<?xml version="1.0" encoding="utf-8"?>
<gpx xmlns:xsi="http://www.w3.org/2001/XMLSchema-instance" xmlns:xsd="http://www.w3.org/2001/XMLSchema" version="1.1" creator="Shapelink.com" xmlns="http://www.topografix.com/GPX/1/1" xmlns:gpxtpx="http://www.garmin.com/xmlschemas/TrackPointExtension/v1">
  <metadata>
    <name>Sykling 52.40 km, 2013-04-24</name>
    <desc></desc>
    <author><name>Mikael Blom</name></author> 
    <time>2013-04-24T15:18:11Z</time>
  </metadata>
  <trk>
    <name>Sykling 52.40 km, 2013-04-24</name>
    <trkseg>
      <trkpt lat="59.9791266" lon="17.7391619">
        <ele>43.3966</ele>
        <time>2013-04-24T15:18:11Z</time>
      </trkpt>
      <trkpt lat="59.9790907" lon="17.739188">
        <ele>43.8773</ele>
        <time>2013-04-24T15:18:12Z</time>
      </trkpt>
      <trkpt lat="59.97905" lon="17.7392077">
        <ele>43.3966</ele>
        <time>2013-04-24T15:18:13Z</time>
      </trkpt>
      <trkpt lat="59.9790079" lon="17.7392263">
        <ele>42.916</ele>
        <time>2013-04-24T15:18:14Z</time>
      </trkpt>
      <trkpt lat="59.978964" lon="17.739244">
        <ele>42.916</ele>
        <time>2013-04-24T15:18:15Z</time>
      </trkpt>
      <trkpt lat="59.9789167" lon="17.7392576">
        <ele>41.9547</ele>
        <time>2013-04-24T15:18:16Z</time>
      </trkpt>
      <trkpt lat="59.9788672" lon="17.7392658">
        <ele>41.9547</ele>
        <time>2013-04-24T15:18:17Z</time>
      </trkpt>
      <trkpt lat="59.9788169" lon="17.7392709">
        <ele>41.9547</ele>
        <time>2013-04-24T15:18:18Z</time>
      </trkpt>
      <trkpt lat="59.9787663" lon="17.7392724">
        <ele>41.9547</ele>
        <time>2013-04-24T15:18:19Z</time>
      </trkpt>
      <trkpt lat="59.9787128" lon="17.7392698">
        <ele>42.4354</ele>
        <time>2013-04-24T15:18:20Z</time>
      </trkpt>
      <trkpt lat="59.9786611" lon="17.7392626">
        <ele>42.4354</ele>
        <time>2013-04-24T15:18:21Z</time>
      </trkpt>
      <trkpt lat="59.9786077" lon="17.7392552">
        <ele>42.4354</ele>
        <time>2013-04-24T15:18:22Z</time>
      </trkpt>
      <trkpt lat="59.9785574" lon="17.7392461">
        <ele>42.4354</ele>
        <time>2013-04-24T15:18:23Z</time>
      </trkpt>
      <trkpt lat="59.9785066" lon="17.7392383">
        <ele>42.4354</ele>
        <time>2013-04-24T15:18:24Z</time>
      </trkpt>
      <trkpt lat="59.9784564" lon="17.739232">
        <ele>42.916</ele>
        <time>2013-04-24T15:18:25Z</time>
      </trkpt>
      <trkpt lat="59.9784067" lon="17.7392251">
        <ele>42.916</ele>
        <time>2013-04-24T15:18:26Z</time>
      </trkpt>
      <trkpt lat="59.978358" lon="17.7392148">
        <ele>42.916</ele>
        <time>2013-04-24T15:18:27Z</time>
      </trkpt>
      <trkpt lat="59.9783092" lon="17.7392026">
        <ele>42.916</ele>
        <time>2013-04-24T15:18:28Z</time>
      </trkpt>
      <trkpt lat="59.9782602" lon="17.7391927">
        <ele>42.916</ele>
        <time>2013-04-24T15:18:29Z</time>
      </trkpt>
      <trkpt lat="59.9782088" lon="17.7391823">
        <ele>42.916</ele>
        <time>2013-04-24T15:18:30Z</time>
      </trkpt>
      <trkpt lat="59.978157" lon="17.7391643">
        <ele>43.3966</ele>
        <time>2013-04-24T15:18:31Z</time>
      </trkpt>
      <trkpt lat="59.978104" lon="17.7391431">
        <ele>42.916</ele>
        <time>2013-04-24T15:18:32Z</time>
      </trkpt>
      <trkpt lat="59.9780516" lon="17.7391154">
        <ele>42.4354</ele>
        <time>2013-04-24T15:18:33Z</time>
      </trkpt>
      <trkpt lat="59.9779988" lon="17.7390845">
        <ele>42.4354</ele>
        <time>2013-04-24T15:18:34Z</time>
      </trkpt>
      <trkpt lat="59.9779441" lon="17.7390586">
        <ele>41.9547</ele>
        <time>2013-04-24T15:18:35Z</time>
      </trkpt>
      <trkpt lat="59.9778891" lon="17.7390322">
        <ele>41.9547</ele>
        <time>2013-04-24T15:18:36Z</time>
      </trkpt>
      <trkpt lat="59.9778342" lon="17.7390087">
        <ele>41.474</ele>
        <time>2013-04-24T15:18:37Z</time>
      </trkpt>
      <trkpt lat="59.9777777" lon="17.7389928">
        <ele>40.9934</ele>
        <time>2013-04-24T15:18:38Z</time>
      </trkpt>
      <trkpt lat="59.9777198" lon="17.7389814">
        <ele>40.5128</ele>
        <time>2013-04-24T15:18:39Z</time>
      </trkpt>
      <trkpt lat="59.9776607" lon="17.7389756">
        <ele>40.0321</ele>
        <time>2013-04-24T15:18:40Z</time>
      </trkpt>
      <trkpt lat="59.9776006" lon="17.7389751">
        <ele>39.5513</ele>
        <time>2013-04-24T15:18:41Z</time>
      </trkpt>
      <trkpt lat="59.9775396" lon="17.7389815">
        <ele>39.5513</ele>
        <time>2013-04-24T15:18:42Z</time>
      </trkpt>
      <trkpt lat="59.9774764" lon="17.7389994">
        <ele>39.5513</ele>
        <time>2013-04-24T15:18:43Z</time>
      </trkpt>
      <trkpt lat="59.9774103" lon="17.7390284">
        <ele>39.0707</ele>
        <time>2013-04-24T15:18:44Z</time>
      </trkpt>
      <trkpt lat="59.9773433" lon="17.7390591">
        <ele>38.5901</ele>
        <time>2013-04-24T15:18:45Z</time>
      </trkpt>
      <trkpt lat="59.9772749" lon="17.7390946">
        <ele>38.5901</ele>
        <time>2013-04-24T15:18:46Z</time>
      </trkpt>
      <trkpt lat="59.9772058" lon="17.7391274">
        <ele>38.5901</ele>
        <time>2013-04-24T15:18:47Z</time>
      </trkpt>
      <trkpt lat="59.977136" lon="17.7391602">
        <ele>38.5901</ele>
        <time>2013-04-24T15:18:48Z</time>
      </trkpt>
      <trkpt lat="59.9770671" lon="17.7391937">
        <ele>38.1094</ele>
        <time>2013-04-24T15:18:49Z</time>
      </trkpt>
      <trkpt lat="59.976999" lon="17.739229">
        <ele>37.6287</ele>
        <time>2013-04-24T15:18:50Z</time>
      </trkpt>
      <trkpt lat="59.9769312" lon="17.7392604">
        <ele>37.1481</ele>
        <time>2013-04-24T15:18:51Z</time>
      </trkpt>
      <trkpt lat="59.9768638" lon="17.7392858">
        <ele>36.6675</ele>
        <time>2013-04-24T15:18:52Z</time>
      </trkpt>
      <trkpt lat="59.9767972" lon="17.7393098">
        <ele>36.1868</ele>
        <time>2013-04-24T15:18:53Z</time>
      </trkpt>
      <trkpt lat="59.9767314" lon="17.7393378">
        <ele>35.7061</ele>
        <time>2013-04-24T15:18:54Z</time>
      </trkpt>
      <trkpt lat="59.9766668" lon="17.7393779">
        <ele>35.7061</ele>
        <time>2013-04-24T15:18:55Z</time>
      </trkpt>
      <trkpt lat="59.9766024" lon="17.7394299">
        <ele>35.7061</ele>
        <time>2013-04-24T15:18:56Z</time>
      </trkpt>
      <trkpt lat="59.9765393" lon="17.7394934">
        <ele>35.7061</ele>
        <time>2013-04-24T15:18:57Z</time>
      </trkpt>
      <trkpt lat="59.9764781" lon="17.7395734">
        <ele>35.7061</ele>
        <time>2013-04-24T15:18:58Z</time>
      </trkpt>
      <trkpt lat="59.9764221" lon="17.7396548">
        <ele>35.7061</ele>
        <time>2013-04-24T15:18:59Z</time>
      </trkpt>
      <trkpt lat="59.9763632" lon="17.7397175">
        <ele>35.7061</ele>
        <time>2013-04-24T15:19:00Z</time>
      </trkpt>
      <trkpt lat="59.976299" lon="17.7397403">
        <ele>35.7061</ele>
        <time>2013-04-24T15:19:01Z</time>
      </trkpt>
      <trkpt lat="59.9762381" lon="17.7397164">
        <ele>35.7061</ele>
        <time>2013-04-24T15:19:02Z</time>
      </trkpt>
      <trkpt lat="59.9761834" lon="17.7396618">
        <ele>35.2255</ele>
        <time>2013-04-24T15:19:03Z</time>
      </trkpt>
      <trkpt lat="59.9761355" lon="17.7395882">
        <ele>34.7449</ele>
        <time>2013-04-24T15:19:04Z</time>
      </trkpt>
      <trkpt lat="59.9760932" lon="17.7395061">
        <ele>34.7449</ele>
        <time>2013-04-24T15:19:05Z</time>
      </trkpt>
      <trkpt lat="59.9760564" lon="17.7394295">
        <ele>34.2642</ele>
        <time>2013-04-24T15:19:06Z</time>
      </trkpt>
      <trkpt lat="59.9760249" lon="17.7393637">
        <ele>33.7834</ele>
        <time>2013-04-24T15:19:07Z</time>
      </trkpt>
      <trkpt lat="59.9759994" lon="17.7393118">
        <ele>33.3029</ele>
        <time>2013-04-24T15:19:08Z</time>
      </trkpt>
      <trkpt lat="59.9759813" lon="17.739278">
        <ele>33.3029</ele>
        <time>2013-04-24T15:19:09Z</time>
      </trkpt>
      <trkpt lat="59.9759729" lon="17.7392625">
        <ele>33.3029</ele>
        <time>2013-04-24T15:19:10Z</time>
      </trkpt>
      <trkpt lat="59.9759558" lon="17.7392222">
        <ele>35.2255</ele>
        <time>2013-04-24T15:19:35Z</time>
      </trkpt>
      <trkpt lat="59.9759371" lon="17.7391963">
        <ele>35.2255</ele>
        <time>2013-04-24T15:19:36Z</time>
      </trkpt>
      <trkpt lat="59.9759135" lon="17.739159">
        <ele>35.2255</ele>
        <time>2013-04-24T15:19:37Z</time>
      </trkpt>
      <trkpt lat="59.9758865" lon="17.7391133">
        <ele>34.7449</ele>
        <time>2013-04-24T15:19:38Z</time>
      </trkpt>
      <trkpt lat="59.9758563" lon="17.739055">
        <ele>34.7449</ele>
        <time>2013-04-24T15:19:39Z</time>
      </trkpt>
      <trkpt lat="59.9758239" lon="17.7389932">
        <ele>34.2642</ele>
        <time>2013-04-24T15:19:40Z</time>
      </trkpt>
      <trkpt lat="59.9757869" lon="17.7389315">
        <ele>34.2642</ele>
        <time>2013-04-24T15:19:41Z</time>
      </trkpt>
      <trkpt lat="59.9757467" lon="17.7388648">
        <ele>33.7834</ele>
        <time>2013-04-24T15:19:42Z</time>
      </trkpt>
      <trkpt lat="59.9757054" lon="17.7387932">
        <ele>33.7834</ele>
        <time>2013-04-24T15:19:43Z</time>
      </trkpt>
      <trkpt lat="59.9756655" lon="17.7387187">
        <ele>33.7834</ele>
        <time>2013-04-24T15:19:44Z</time>
      </trkpt>
      <trkpt lat="59.9756229" lon="17.7386463">
        <ele>33.3029</ele>
        <time>2013-04-24T15:19:45Z</time>
      </trkpt>
      <trkpt lat="59.9755778" lon="17.7385756">
        <ele>33.3029</ele>
        <time>2013-04-24T15:19:46Z</time>
      </trkpt>
      <trkpt lat="59.9755339" lon="17.7385022">
        <ele>33.3029</ele>
        <time>2013-04-24T15:19:47Z</time>
      </trkpt>
      <trkpt lat="59.9754907" lon="17.7384274">
        <ele>33.3029</ele>
        <time>2013-04-24T15:19:48Z</time>
      </trkpt>
      <trkpt lat="59.9754476" lon="17.7383514">
        <ele>33.3029</ele>
        <time>2013-04-24T15:19:49Z</time>
      </trkpt>
      <trkpt lat="59.9754018" lon="17.7382739">
        <ele>32.8223</ele>
        <time>2013-04-24T15:19:50Z</time>
      </trkpt>
      <trkpt lat="59.9753561" lon="17.7381964">
        <ele>32.8223</ele>
        <time>2013-04-24T15:19:51Z</time>
      </trkpt>
      <trkpt lat="59.97531" lon="17.7381173">
        <ele>32.8223</ele>
        <time>2013-04-24T15:19:52Z</time>
      </trkpt>
      <trkpt lat="59.9752634" lon="17.7380397">
        <ele>32.3416</ele>
        <time>2013-04-24T15:19:53Z</time>
      </trkpt>
      <trkpt lat="59.975216" lon="17.737965">
        <ele>32.3416</ele>
        <time>2013-04-24T15:19:54Z</time>
      </trkpt>
      <trkpt lat="59.9751731" lon="17.7378879">
        <ele>32.3416</ele>
        <time>2013-04-24T15:19:55Z</time>
      </trkpt>
      <trkpt lat="59.9751285" lon="17.7378073">
        <ele>32.3416</ele>
        <time>2013-04-24T15:19:56Z</time>
      </trkpt>
      <trkpt lat="59.9750842" lon="17.7377236">
        <ele>31.8607</ele>
        <time>2013-04-24T15:19:57Z</time>
      </trkpt>
      <trkpt lat="59.9750396" lon="17.7376411">
        <ele>31.8607</ele>
        <time>2013-04-24T15:19:58Z</time>
      </trkpt>
      <trkpt lat="59.9749948" lon="17.7375619">
        <ele>31.8607</ele>
        <time>2013-04-24T15:19:59Z</time>
      </trkpt>
      <trkpt lat="59.974951" lon="17.7374839">
        <ele>31.3801</ele>
        <time>2013-04-24T15:20:00Z</time>
      </trkpt>
      <trkpt lat="59.9749116" lon="17.7374039">
        <ele>31.3801</ele>
        <time>2013-04-24T15:20:01Z</time>
      </trkpt>
      <trkpt lat="59.9748728" lon="17.7373214">
        <ele>31.3801</ele>
        <time>2013-04-24T15:20:02Z</time>
      </trkpt>
      <trkpt lat="59.9748358" lon="17.7372346">
        <ele>31.3801</ele>
        <time>2013-04-24T15:20:03Z</time>
      </trkpt>
      <trkpt lat="59.9747999" lon="17.7371424">
        <ele>31.3801</ele>
        <time>2013-04-24T15:20:04Z</time>
      </trkpt>
      <trkpt lat="59.974763" lon="17.7370485">
        <ele>30.8995</ele>
        <time>2013-04-24T15:20:05Z</time>
      </trkpt>
      <trkpt lat="59.9747268" lon="17.7369549">
        <ele>30.8995</ele>
        <time>2013-04-24T15:20:06Z</time>
      </trkpt>
      <trkpt lat="59.9746924" lon="17.73686">
        <ele>30.8995</ele>
        <time>2013-04-24T15:20:07Z</time>
      </trkpt>
      <trkpt lat="59.9746595" lon="17.7367632">
        <ele>30.8995</ele>
        <time>2013-04-24T15:20:08Z</time>
      </trkpt>
      <trkpt lat="59.9746293" lon="17.7366642">
        <ele>30.8995</ele>
        <time>2013-04-24T15:20:09Z</time>
      </trkpt>
      <trkpt lat="59.9746004" lon="17.7365629">
        <ele>30.8995</ele>
        <time>2013-04-24T15:20:10Z</time>
      </trkpt>
      <trkpt lat="59.9745729" lon="17.7364607">
        <ele>30.8995</ele>
        <time>2013-04-24T15:20:11Z</time>
      </trkpt>
      <trkpt lat="59.9745458" lon="17.7363582">
        <ele>30.8995</ele>
        <time>2013-04-24T15:20:12Z</time>
      </trkpt>
      <trkpt lat="59.97452" lon="17.736256">
        <ele>30.8995</ele>
        <time>2013-04-24T15:20:13Z</time>
      </trkpt>
      <trkpt lat="59.9744958" lon="17.7361536">
        <ele>30.8995</ele>
        <time>2013-04-24T15:20:14Z</time>
      </trkpt>
      <trkpt lat="59.9744729" lon="17.7360508">
        <ele>30.8995</ele>
        <time>2013-04-24T15:20:15Z</time>
      </trkpt>
      <trkpt lat="59.9744506" lon="17.7359479">
        <ele>30.4188</ele>
        <time>2013-04-24T15:20:16Z</time>
      </trkpt>
      <trkpt lat="59.9744299" lon="17.7358443">
        <ele>30.4188</ele>
        <time>2013-04-24T15:20:17Z</time>
      </trkpt>
      <trkpt lat="59.9744103" lon="17.7357376">
        <ele>30.4188</ele>
        <time>2013-04-24T15:20:18Z</time>
      </trkpt>
      <trkpt lat="59.9743912" lon="17.7356283">
        <ele>29.9381</ele>
        <time>2013-04-24T15:20:19Z</time>
      </trkpt>
      <trkpt lat="59.9743734" lon="17.7355154">
        <ele>29.9381</ele>
        <time>2013-04-24T15:20:20Z</time>
      </trkpt>
      <trkpt lat="59.9743593" lon="17.7353984">
        <ele>29.4575</ele>
        <time>2013-04-24T15:20:21Z</time>
      </trkpt>
      <trkpt lat="59.9743475" lon="17.735279">
        <ele>29.4575</ele>
        <time>2013-04-24T15:20:22Z</time>
      </trkpt>
      <trkpt lat="59.9743347" lon="17.7351605">
        <ele>29.4575</ele>
        <time>2013-04-24T15:20:23Z</time>
      </trkpt>
      <trkpt lat="59.9743233" lon="17.7350428">
        <ele>28.9769</ele>
        <time>2013-04-24T15:20:24Z</time>
      </trkpt>
      <trkpt lat="59.9743154" lon="17.7349248">
        <ele>28.9769</ele>
        <time>2013-04-24T15:20:25Z</time>
      </trkpt>
      <trkpt lat="59.9743088" lon="17.7348088">
        <ele>28.4962</ele>
        <time>2013-04-24T15:20:26Z</time>
      </trkpt>
      <trkpt lat="59.9743035" lon="17.7346951">
        <ele>28.4962</ele>
        <time>2013-04-24T15:20:27Z</time>
      </trkpt>
      <trkpt lat="59.9742988" lon="17.7345817">
        <ele>28.4962</ele>
        <time>2013-04-24T15:20:28Z</time>
      </trkpt>
      <trkpt lat="59.9742942" lon="17.7344672">
        <ele>28.0155</ele>
        <time>2013-04-24T15:20:29Z</time>
      </trkpt>
      <trkpt lat="59.9742922" lon="17.7343518">
        <ele>27.5349</ele>
        <time>2013-04-24T15:20:30Z</time>
      </trkpt>
      <trkpt lat="59.9742952" lon="17.7342372">
        <ele>27.5349</ele>
        <time>2013-04-24T15:20:31Z</time>
      </trkpt>
      <trkpt lat="59.9742999" lon="17.7341228">
        <ele>27.0543</ele>
        <time>2013-04-24T15:20:32Z</time>
      </trkpt>
      <trkpt lat="59.9743051" lon="17.73401">
        <ele>27.0543</ele>
        <time>2013-04-24T15:20:33Z</time>
      </trkpt>
      <trkpt lat="59.9743098" lon="17.7338976">
        <ele>26.5736</ele>
        <time>2013-04-24T15:20:34Z</time>
      </trkpt>
      <trkpt lat="59.9743154" lon="17.733786">
        <ele>26.5736</ele>
        <time>2013-04-24T15:20:35Z</time>
      </trkpt>
      <trkpt lat="59.9743206" lon="17.7336759">
        <ele>26.5736</ele>
        <time>2013-04-24T15:20:36Z</time>
      </trkpt>
      <trkpt lat="59.9743247" lon="17.7335703">
        <ele>26.0929</ele>
        <time>2013-04-24T15:20:37Z</time>
      </trkpt>
      <trkpt lat="59.974329" lon="17.7334674">
        <ele>26.0929</ele>
        <time>2013-04-24T15:20:38Z</time>
      </trkpt>
      <trkpt lat="59.9743337" lon="17.7333651">
        <ele>25.6123</ele>
        <time>2013-04-24T15:20:39Z</time>
      </trkpt>
      <trkpt lat="59.974337" lon="17.7332633">
        <ele>25.6123</ele>
        <time>2013-04-24T15:20:40Z</time>
      </trkpt>
      <trkpt lat="59.9743391" lon="17.7331614">
        <ele>25.1317</ele>
        <time>2013-04-24T15:20:41Z</time>
      </trkpt>
      <trkpt lat="59.9743417" lon="17.7330574">
        <ele>25.1317</ele>
        <time>2013-04-24T15:20:42Z</time>
      </trkpt>
      <trkpt lat="59.9743439" lon="17.7329523">
        <ele>25.1317</ele>
        <time>2013-04-24T15:20:43Z</time>
      </trkpt>
      <trkpt lat="59.9743448" lon="17.7328481">
        <ele>24.651</ele>
        <time>2013-04-24T15:20:44Z</time>
      </trkpt>
      <trkpt lat="59.974345" lon="17.7327455">
        <ele>24.651</ele>
        <time>2013-04-24T15:20:45Z</time>
      </trkpt>
      <trkpt lat="59.9743443" lon="17.7326446">
        <ele>24.651</ele>
        <time>2013-04-24T15:20:46Z</time>
      </trkpt>
      <trkpt lat="59.974343" lon="17.7325467">
        <ele>24.1703</ele>
        <time>2013-04-24T15:20:47Z</time>
      </trkpt>
      <trkpt lat="59.9743408" lon="17.7324508">
        <ele>24.1703</ele>
        <time>2013-04-24T15:20:48Z</time>
      </trkpt>
      <trkpt lat="59.9743373" lon="17.7323565">
        <ele>24.1703</ele>
        <time>2013-04-24T15:20:49Z</time>
      </trkpt>
      <trkpt lat="59.9743336" lon="17.7322622">
        <ele>24.1703</ele>
        <time>2013-04-24T15:20:50Z</time>
      </trkpt>
      <trkpt lat="59.9743316" lon="17.7321699">
        <ele>24.1703</ele>
        <time>2013-04-24T15:20:51Z</time>
      </trkpt>
      <trkpt lat="59.9743302" lon="17.7320789">
        <ele>24.1703</ele>
        <time>2013-04-24T15:20:52Z</time>
      </trkpt>
      <trkpt lat="59.9743283" lon="17.7319903">
        <ele>24.1703</ele>
        <time>2013-04-24T15:20:53Z</time>
      </trkpt>
      <trkpt lat="59.9743268" lon="17.7319049">
        <ele>24.1703</ele>
        <time>2013-04-24T15:20:54Z</time>
      </trkpt>
      <trkpt lat="59.9743211" lon="17.7311437">
        <ele>27.0543</ele>
        <time>2013-04-24T15:32:04Z</time>
      </trkpt>
      <trkpt lat="59.9743227" lon="17.7311143">
        <ele>26.5736</ele>
        <time>2013-04-24T15:32:05Z</time>
      </trkpt>
      <trkpt lat="59.9743247" lon="17.731075">
        <ele>26.5736</ele>
        <time>2013-04-24T15:32:06Z</time>
      </trkpt>
      <trkpt lat="59.9743268" lon="17.7310216">
        <ele>26.5736</ele>
        <time>2013-04-24T15:32:07Z</time>
      </trkpt>
      <trkpt lat="59.9743305" lon="17.7309552">
        <ele>26.0929</ele>
        <time>2013-04-24T15:32:08Z</time>
      </trkpt>
      <trkpt lat="59.9743341" lon="17.7308789">
        <ele>26.0929</ele>
        <time>2013-04-24T15:32:09Z</time>
      </trkpt>
      <trkpt lat="59.9743397" lon="17.7307982">
        <ele>26.0929</ele>
        <time>2013-04-24T15:32:10Z</time>
      </trkpt>
      <trkpt lat="59.9743477" lon="17.7307129">
        <ele>26.5736</ele>
        <time>2013-04-24T15:32:11Z</time>
      </trkpt>
      <trkpt lat="59.9743558" lon="17.7306222">
        <ele>26.5736</ele>
        <time>2013-04-24T15:32:12Z</time>
      </trkpt>
      <trkpt lat="59.9743631" lon="17.7305274">
        <ele>26.5736</ele>
        <time>2013-04-24T15:32:13Z</time>
      </trkpt>
      <trkpt lat="59.9743709" lon="17.7304301">
        <ele>26.5736</ele>
        <time>2013-04-24T15:32:14Z</time>
      </trkpt>
      <trkpt lat="59.9743782" lon="17.7303321">
        <ele>26.5736</ele>
        <time>2013-04-24T15:32:15Z</time>
      </trkpt>
      <trkpt lat="59.9743855" lon="17.7302323">
        <ele>26.5736</ele>
        <time>2013-04-24T15:32:16Z</time>
      </trkpt>
      <trkpt lat="59.9743943" lon="17.7301301">
        <ele>26.5736</ele>
        <time>2013-04-24T15:32:17Z</time>
      </trkpt>
      <trkpt lat="59.974404" lon="17.7300258">
        <ele>26.5736</ele>
        <time>2013-04-24T15:32:18Z</time>
      </trkpt>
      <trkpt lat="59.9744138" lon="17.7299188">
        <ele>26.5736</ele>
        <time>2013-04-24T15:32:19Z</time>
      </trkpt>
      <trkpt lat="59.9744215" lon="17.7298091">
        <ele>26.5736</ele>
        <time>2013-04-24T15:32:20Z</time>
      </trkpt>
      <trkpt lat="59.9744276" lon="17.729698">
        <ele>26.5736</ele>
        <time>2013-04-24T15:32:21Z</time>
      </trkpt>
      <trkpt lat="59.9744321" lon="17.7295862">
        <ele>26.5736</ele>
        <time>2013-04-24T15:32:22Z</time>
      </trkpt>
      <trkpt lat="59.9744345" lon="17.7294734">
        <ele>26.5736</ele>
        <time>2013-04-24T15:32:23Z</time>
      </trkpt>
      <trkpt lat="59.974435" lon="17.7293598">
        <ele>26.5736</ele>
        <time>2013-04-24T15:32:24Z</time>
      </trkpt>
      <trkpt lat="59.9744354" lon="17.729246">
        <ele>26.5736</ele>
        <time>2013-04-24T15:32:25Z</time>
      </trkpt>
      <trkpt lat="59.9744335" lon="17.7291323">
        <ele>26.5736</ele>
        <time>2013-04-24T15:32:26Z</time>
      </trkpt>
      <trkpt lat="59.9744313" lon="17.7290205">
        <ele>26.5736</ele>
        <time>2013-04-24T15:32:27Z</time>
      </trkpt>
      <trkpt lat="59.9744289" lon="17.7289087">
        <ele>26.5736</ele>
        <time>2013-04-24T15:32:28Z</time>
      </trkpt>
      <trkpt lat="59.9744261" lon="17.7287962">
        <ele>26.5736</ele>
        <time>2013-04-24T15:32:29Z</time>
      </trkpt>
      <trkpt lat="59.974424" lon="17.7286828">
        <ele>27.0543</ele>
        <time>2013-04-24T15:32:30Z</time>
      </trkpt>
      <trkpt lat="59.9744221" lon="17.7285694">
        <ele>27.0543</ele>
        <time>2013-04-24T15:32:31Z</time>
      </trkpt>
      <trkpt lat="59.9744193" lon="17.7284553">
        <ele>27.0543</ele>
        <time>2013-04-24T15:32:32Z</time>
      </trkpt>
      <trkpt lat="59.9744164" lon="17.7283398">
        <ele>27.0543</ele>
        <time>2013-04-24T15:32:33Z</time>
      </trkpt>
      <trkpt lat="59.9744144" lon="17.728225">
        <ele>27.0543</ele>
        <time>2013-04-24T15:32:34Z</time>
      </trkpt>
      <trkpt lat="59.9744128" lon="17.7281119">
        <ele>27.5349</ele>
        <time>2013-04-24T15:32:35Z</time>
      </trkpt>
      <trkpt lat="59.9744101" lon="17.728">
        <ele>27.5349</ele>
        <time>2013-04-24T15:32:36Z</time>
      </trkpt>
      <trkpt lat="59.9744081" lon="17.7278917">
        <ele>27.5349</ele>
        <time>2013-04-24T15:32:37Z</time>
      </trkpt>
      <trkpt lat="59.9744053" lon="17.7277861">
        <ele>27.5349</ele>
        <time>2013-04-24T15:32:38Z</time>
      </trkpt>
      <trkpt lat="59.9744026" lon="17.7276825">
        <ele>27.5349</ele>
        <time>2013-04-24T15:32:39Z</time>
      </trkpt>
      <trkpt lat="59.9744012" lon="17.7275811">
        <ele>28.0155</ele>
        <time>2013-04-24T15:32:40Z</time>
      </trkpt>
      <trkpt lat="59.9744002" lon="17.7274811">
        <ele>28.0155</ele>
        <time>2013-04-24T15:32:41Z</time>
      </trkpt>
      <trkpt lat="59.9743989" lon="17.727383">
        <ele>28.0155</ele>
        <time>2013-04-24T15:32:42Z</time>
      </trkpt>
      <trkpt lat="59.9743976" lon="17.7272881">
        <ele>28.0155</ele>
        <time>2013-04-24T15:32:43Z</time>
      </trkpt>
      <trkpt lat="59.9743965" lon="17.7271951">
        <ele>28.4962</ele>
        <time>2013-04-24T15:32:44Z</time>
      </trkpt>
      <trkpt lat="59.9743952" lon="17.7271029">
        <ele>28.4962</ele>
        <time>2013-04-24T15:32:45Z</time>
      </trkpt>
      <trkpt lat="59.9743931" lon="17.7270117">
        <ele>28.4962</ele>
        <time>2013-04-24T15:32:46Z</time>
      </trkpt>
      <trkpt lat="59.9743921" lon="17.7269221">
        <ele>28.9769</ele>
        <time>2013-04-24T15:32:47Z</time>
      </trkpt>
      <trkpt lat="59.9743909" lon="17.7268319">
        <ele>28.9769</ele>
        <time>2013-04-24T15:32:48Z</time>
      </trkpt>
      <trkpt lat="59.974389" lon="17.726743">
        <ele>29.4575</ele>
        <time>2013-04-24T15:32:49Z</time>
      </trkpt>
      <trkpt lat="59.9743867" lon="17.7266563">
        <ele>29.4575</ele>
        <time>2013-04-24T15:32:50Z</time>
      </trkpt>
      <trkpt lat="59.9743847" lon="17.7265715">
        <ele>28.9769</ele>
        <time>2013-04-24T15:32:51Z</time>
      </trkpt>
      <trkpt lat="59.9743837" lon="17.7264899">
        <ele>29.4575</ele>
        <time>2013-04-24T15:32:52Z</time>
      </trkpt>
      <trkpt lat="59.974382" lon="17.7264091">
        <ele>29.4575</ele>
        <time>2013-04-24T15:32:53Z</time>
      </trkpt>
      <trkpt lat="59.9743797" lon="17.7263284">
        <ele>29.4575</ele>
        <time>2013-04-24T15:32:54Z</time>
      </trkpt>
      <trkpt lat="59.9743759" lon="17.7262456">
        <ele>29.4575</ele>
        <time>2013-04-24T15:32:55Z</time>
      </trkpt>
      <trkpt lat="59.9743714" lon="17.7261599">
        <ele>29.4575</ele>
        <time>2013-04-24T15:32:56Z</time>
      </trkpt>
      <trkpt lat="59.974366" lon="17.7260682">
        <ele>29.4575</ele>
        <time>2013-04-24T15:32:57Z</time>
      </trkpt>
      <trkpt lat="59.9743595" lon="17.7259735">
        <ele>29.4575</ele>
        <time>2013-04-24T15:32:58Z</time>
      </trkpt>
      <trkpt lat="59.9743522" lon="17.7258772">
        <ele>28.9769</ele>
        <time>2013-04-24T15:32:59Z</time>
      </trkpt>
      <trkpt lat="59.9743449" lon="17.725781">
        <ele>28.9769</ele>
        <time>2013-04-24T15:33:00Z</time>
      </trkpt>
      <trkpt lat="59.974336" lon="17.7256846">
        <ele>28.9769</ele>
        <time>2013-04-24T15:33:01Z</time>
      </trkpt>
      <trkpt lat="59.9743268" lon="17.7255867">
        <ele>28.4962</ele>
        <time>2013-04-24T15:33:02Z</time>
      </trkpt>
      <trkpt lat="59.9743178" lon="17.7254868">
        <ele>28.4962</ele>
        <time>2013-04-24T15:33:03Z</time>
      </trkpt>
      <trkpt lat="59.9743071" lon="17.7253868">
        <ele>28.4962</ele>
        <time>2013-04-24T15:33:04Z</time>
      </trkpt>
      <trkpt lat="59.9742952" lon="17.7252872">
        <ele>28.4962</ele>
        <time>2013-04-24T15:33:05Z</time>
      </trkpt>
      <trkpt lat="59.9742823" lon="17.7251867">
        <ele>28.4962</ele>
        <time>2013-04-24T15:33:06Z</time>
      </trkpt>
      <trkpt lat="59.9742691" lon="17.7250842">
        <ele>28.4962</ele>
        <time>2013-04-24T15:33:07Z</time>
      </trkpt>
      <trkpt lat="59.9742548" lon="17.7249795">
        <ele>28.4962</ele>
        <time>2013-04-24T15:33:08Z</time>
      </trkpt>
      <trkpt lat="59.9742401" lon="17.7248729">
        <ele>28.4962</ele>
        <time>2013-04-24T15:33:09Z</time>
      </trkpt>
      <trkpt lat="59.9742249" lon="17.7247651">
        <ele>28.0155</ele>
        <time>2013-04-24T15:33:10Z</time>
      </trkpt>
      <trkpt lat="59.9742098" lon="17.7246568">
        <ele>28.0155</ele>
        <time>2013-04-24T15:33:11Z</time>
      </trkpt>
      <trkpt lat="59.9741937" lon="17.7245483">
        <ele>28.0155</ele>
        <time>2013-04-24T15:33:12Z</time>
      </trkpt>
      <trkpt lat="59.9741774" lon="17.7244402">
        <ele>28.0155</ele>
        <time>2013-04-24T15:33:13Z</time>
      </trkpt>
      <trkpt lat="59.9741609" lon="17.7243323">
        <ele>28.0155</ele>
        <time>2013-04-24T15:33:14Z</time>
      </trkpt>
      <trkpt lat="59.9741445" lon="17.7242236">
        <ele>28.0155</ele>
        <time>2013-04-24T15:33:15Z</time>
      </trkpt>
      <trkpt lat="59.9741282" lon="17.7241139">
        <ele>27.5349</ele>
        <time>2013-04-24T15:33:16Z</time>
      </trkpt>
      <trkpt lat="59.9741114" lon="17.7240039">
        <ele>27.5349</ele>
        <time>2013-04-24T15:33:17Z</time>
      </trkpt>
      <trkpt lat="59.9740953" lon="17.7238934">
        <ele>27.5349</ele>
        <time>2013-04-24T15:33:18Z</time>
      </trkpt>
      <trkpt lat="59.9740793" lon="17.7237848">
        <ele>27.5349</ele>
        <time>2013-04-24T15:33:19Z</time>
      </trkpt>
      <trkpt lat="59.9740638" lon="17.7236773">
        <ele>27.5349</ele>
        <time>2013-04-24T15:33:20Z</time>
      </trkpt>
      <trkpt lat="59.9740491" lon="17.7235701">
        <ele>27.5349</ele>
        <time>2013-04-24T15:33:21Z</time>
      </trkpt>
      <trkpt lat="59.9740336" lon="17.7234655">
        <ele>27.5349</ele>
        <time>2013-04-24T15:33:22Z</time>
      </trkpt>
      <trkpt lat="59.9740175" lon="17.7233637">
        <ele>27.5349</ele>
        <time>2013-04-24T15:33:23Z</time>
      </trkpt>
      <trkpt lat="59.9740003" lon="17.7232635">
        <ele>27.5349</ele>
        <time>2013-04-24T15:33:24Z</time>
      </trkpt>
      <trkpt lat="59.9739808" lon="17.7231649">
        <ele>27.5349</ele>
        <time>2013-04-24T15:33:25Z</time>
      </trkpt>
      <trkpt lat="59.9739606" lon="17.7230671">
        <ele>27.5349</ele>
        <time>2013-04-24T15:33:26Z</time>
      </trkpt>
      <trkpt lat="59.9739393" lon="17.7229702">
        <ele>27.5349</ele>
        <time>2013-04-24T15:33:27Z</time>
      </trkpt>
      <trkpt lat="59.9739161" lon="17.7228752">
        <ele>27.5349</ele>
        <time>2013-04-24T15:33:28Z</time>
      </trkpt>
      <trkpt lat="59.9738918" lon="17.7227806">
        <ele>27.5349</ele>
        <time>2013-04-24T15:33:29Z</time>
      </trkpt>
      <trkpt lat="59.9738673" lon="17.7226852">
        <ele>27.5349</ele>
        <time>2013-04-24T15:33:30Z</time>
      </trkpt>
      <trkpt lat="59.9738408" lon="17.7225905">
        <ele>27.5349</ele>
        <time>2013-04-24T15:33:31Z</time>
      </trkpt>
      <trkpt lat="59.9738128" lon="17.7224975">
        <ele>27.5349</ele>
        <time>2013-04-24T15:33:32Z</time>
      </trkpt>
      <trkpt lat="59.973785" lon="17.7224045">
        <ele>27.5349</ele>
        <time>2013-04-24T15:33:33Z</time>
      </trkpt>
      <trkpt lat="59.9737569" lon="17.7223124">
        <ele>27.5349</ele>
        <time>2013-04-24T15:33:34Z</time>
      </trkpt>
      <trkpt lat="59.9737274" lon="17.7222227">
        <ele>27.5349</ele>
        <time>2013-04-24T15:33:35Z</time>
      </trkpt>
      <trkpt lat="59.9736964" lon="17.722132">
        <ele>27.5349</ele>
        <time>2013-04-24T15:33:36Z</time>
      </trkpt>
      <trkpt lat="59.9736648" lon="17.7220429">
        <ele>28.0155</ele>
        <time>2013-04-24T15:33:37Z</time>
      </trkpt>
      <trkpt lat="59.9736335" lon="17.7219536">
        <ele>28.4962</ele>
        <time>2013-04-24T15:33:38Z</time>
      </trkpt>
      <trkpt lat="59.9736009" lon="17.7218652">
        <ele>28.9769</ele>
        <time>2013-04-24T15:33:39Z</time>
      </trkpt>
      <trkpt lat="59.9735673" lon="17.7217778">
        <ele>28.9769</ele>
        <time>2013-04-24T15:33:40Z</time>
      </trkpt>
      <trkpt lat="59.9735325" lon="17.7216906">
        <ele>29.4575</ele>
        <time>2013-04-24T15:33:41Z</time>
      </trkpt>
      <trkpt lat="59.9734959" lon="17.7216052">
        <ele>29.9381</ele>
        <time>2013-04-24T15:33:42Z</time>
      </trkpt>
      <trkpt lat="59.9734591" lon="17.7215229">
        <ele>29.9381</ele>
        <time>2013-04-24T15:33:43Z</time>
      </trkpt>
      <trkpt lat="59.9734224" lon="17.7214445">
        <ele>30.4188</ele>
        <time>2013-04-24T15:33:44Z</time>
      </trkpt>
      <trkpt lat="59.9733849" lon="17.7213694">
        <ele>30.4188</ele>
        <time>2013-04-24T15:33:45Z</time>
      </trkpt>
      <trkpt lat="59.9733469" lon="17.7212949">
        <ele>30.4188</ele>
        <time>2013-04-24T15:33:46Z</time>
      </trkpt>
      <trkpt lat="59.9733087" lon="17.7212209">
        <ele>30.8995</ele>
        <time>2013-04-24T15:33:47Z</time>
      </trkpt>
      <trkpt lat="59.9732695" lon="17.7211478">
        <ele>30.8995</ele>
        <time>2013-04-24T15:33:48Z</time>
      </trkpt>
      <trkpt lat="59.9732289" lon="17.7210782">
        <ele>30.8995</ele>
        <time>2013-04-24T15:33:49Z</time>
      </trkpt>
      <trkpt lat="59.9731872" lon="17.7210112">
        <ele>30.8995</ele>
        <time>2013-04-24T15:33:50Z</time>
      </trkpt>
      <trkpt lat="59.9731452" lon="17.7209456">
        <ele>31.3801</ele>
        <time>2013-04-24T15:33:51Z</time>
      </trkpt>
      <trkpt lat="59.9731022" lon="17.7208816">
        <ele>31.3801</ele>
        <time>2013-04-24T15:33:52Z</time>
      </trkpt>
      <trkpt lat="59.9730591" lon="17.7208194">
        <ele>31.3801</ele>
        <time>2013-04-24T15:33:53Z</time>
      </trkpt>
      <trkpt lat="59.9730168" lon="17.7207584">
        <ele>31.3801</ele>
        <time>2013-04-24T15:33:54Z</time>
      </trkpt>
      <trkpt lat="59.9729751" lon="17.7206978">
        <ele>31.8607</ele>
        <time>2013-04-24T15:33:55Z</time>
      </trkpt>
      <trkpt lat="59.9729332" lon="17.7206386">
        <ele>31.8607</ele>
        <time>2013-04-24T15:33:56Z</time>
      </trkpt>
      <trkpt lat="59.9728898" lon="17.7205835">
        <ele>31.8607</ele>
        <time>2013-04-24T15:33:57Z</time>
      </trkpt>
      <trkpt lat="59.9728448" lon="17.7205279">
        <ele>31.8607</ele>
        <time>2013-04-24T15:33:58Z</time>
      </trkpt>
      <trkpt lat="59.9727988" lon="17.7204724">
        <ele>31.8607</ele>
        <time>2013-04-24T15:33:59Z</time>
      </trkpt>
      <trkpt lat="59.9727511" lon="17.7204205">
        <ele>31.8607</ele>
        <time>2013-04-24T15:34:00Z</time>
      </trkpt>
      <trkpt lat="59.9727023" lon="17.7203712">
        <ele>31.8607</ele>
        <time>2013-04-24T15:34:01Z</time>
      </trkpt>
      <trkpt lat="59.9726521" lon="17.7203221">
        <ele>31.8607</ele>
        <time>2013-04-24T15:34:02Z</time>
      </trkpt>
      <trkpt lat="59.9726012" lon="17.7202725">
        <ele>31.8607</ele>
        <time>2013-04-24T15:34:03Z</time>
      </trkpt>
      <trkpt lat="59.9725495" lon="17.7202237">
        <ele>31.8607</ele>
        <time>2013-04-24T15:34:04Z</time>
      </trkpt>
      <trkpt lat="59.9724972" lon="17.7201765">
        <ele>31.8607</ele>
        <time>2013-04-24T15:34:05Z</time>
      </trkpt>
      <trkpt lat="59.9724442" lon="17.720128">
        <ele>31.8607</ele>
        <time>2013-04-24T15:34:06Z</time>
      </trkpt>
      <trkpt lat="59.97239" lon="17.7200772">
        <ele>31.8607</ele>
        <time>2013-04-24T15:34:07Z</time>
      </trkpt>
      <trkpt lat="59.972335" lon="17.7200274">
        <ele>31.8607</ele>
        <time>2013-04-24T15:34:08Z</time>
      </trkpt>
      <trkpt lat="59.9722795" lon="17.7199791">
        <ele>31.8607</ele>
        <time>2013-04-24T15:34:09Z</time>
      </trkpt>
      <trkpt lat="59.9722245" lon="17.7199284">
        <ele>32.3416</ele>
        <time>2013-04-24T15:34:10Z</time>
      </trkpt>
      <trkpt lat="59.9721698" lon="17.7198752">
        <ele>32.3416</ele>
        <time>2013-04-24T15:34:11Z</time>
      </trkpt>
      <trkpt lat="59.9721147" lon="17.7198234">
        <ele>32.3416</ele>
        <time>2013-04-24T15:34:12Z</time>
      </trkpt>
      <trkpt lat="59.9720585" lon="17.719772">
        <ele>32.3416</ele>
        <time>2013-04-24T15:34:13Z</time>
      </trkpt>
      <trkpt lat="59.9720021" lon="17.7197202">
        <ele>31.8607</ele>
        <time>2013-04-24T15:34:14Z</time>
      </trkpt>
      <trkpt lat="59.9719456" lon="17.7196679">
        <ele>31.8607</ele>
        <time>2013-04-24T15:34:15Z</time>
      </trkpt>
      <trkpt lat="59.971889" lon="17.719617">
        <ele>31.8607</ele>
        <time>2013-04-24T15:34:16Z</time>
      </trkpt>
      <trkpt lat="59.9718322" lon="17.7195667">
        <ele>31.8607</ele>
        <time>2013-04-24T15:34:17Z</time>
      </trkpt>
      <trkpt lat="59.971776" lon="17.719514">
        <ele>31.8607</ele>
        <time>2013-04-24T15:34:18Z</time>
      </trkpt>
      <trkpt lat="59.9717197" lon="17.7194617">
        <ele>31.8607</ele>
        <time>2013-04-24T15:34:19Z</time>
      </trkpt>
      <trkpt lat="59.9716635" lon="17.7194104">
        <ele>31.3801</ele>
        <time>2013-04-24T15:34:20Z</time>
      </trkpt>
      <trkpt lat="59.9716083" lon="17.7193581">
        <ele>31.3801</ele>
        <time>2013-04-24T15:34:21Z</time>
      </trkpt>
      <trkpt lat="59.9715539" lon="17.7193062">
        <ele>31.3801</ele>
        <time>2013-04-24T15:34:22Z</time>
      </trkpt>
      <trkpt lat="59.9714996" lon="17.7192555">
        <ele>31.3801</ele>
        <time>2013-04-24T15:34:23Z</time>
      </trkpt>
      <trkpt lat="59.9714451" lon="17.7192054">
        <ele>31.3801</ele>
        <time>2013-04-24T15:34:24Z</time>
      </trkpt>
      <trkpt lat="59.97139" lon="17.7191551">
        <ele>31.3801</ele>
        <time>2013-04-24T15:34:25Z</time>
      </trkpt>
      <trkpt lat="59.9713338" lon="17.7191048">
        <ele>31.3801</ele>
        <time>2013-04-24T15:34:26Z</time>
      </trkpt>
      <trkpt lat="59.9712769" lon="17.7190535">
        <ele>31.3801</ele>
        <time>2013-04-24T15:34:27Z</time>
      </trkpt>
      <trkpt lat="59.9712196" lon="17.7190003">
        <ele>31.3801</ele>
        <time>2013-04-24T15:34:28Z</time>
      </trkpt>
      <trkpt lat="59.9711622" lon="17.7189468">
        <ele>31.3801</ele>
        <time>2013-04-24T15:34:29Z</time>
      </trkpt>
      <trkpt lat="59.9711048" lon="17.7188946">
        <ele>31.3801</ele>
        <time>2013-04-24T15:34:30Z</time>
      </trkpt>
      <trkpt lat="59.9710477" lon="17.7188432">
        <ele>30.8995</ele>
        <time>2013-04-24T15:34:31Z</time>
      </trkpt>
      <trkpt lat="59.9709912" lon="17.7187908">
        <ele>30.8995</ele>
        <time>2013-04-24T15:34:32Z</time>
      </trkpt>
      <trkpt lat="59.9709353" lon="17.7187384">
        <ele>30.8995</ele>
        <time>2013-04-24T15:34:33Z</time>
      </trkpt>
      <trkpt lat="59.9708796" lon="17.7186872">
        <ele>30.8995</ele>
        <time>2013-04-24T15:34:34Z</time>
      </trkpt>
      <trkpt lat="59.9708243" lon="17.7186358">
        <ele>30.8995</ele>
        <time>2013-04-24T15:34:35Z</time>
      </trkpt>
      <trkpt lat="59.9707687" lon="17.718585">
        <ele>30.8995</ele>
        <time>2013-04-24T15:34:36Z</time>
      </trkpt>
      <trkpt lat="59.9707132" lon="17.7185355">
        <ele>30.8995</ele>
        <time>2013-04-24T15:34:37Z</time>
      </trkpt>
      <trkpt lat="59.9706584" lon="17.7184857">
        <ele>30.8995</ele>
        <time>2013-04-24T15:34:38Z</time>
      </trkpt>
      <trkpt lat="59.9706043" lon="17.7184359">
        <ele>30.8995</ele>
        <time>2013-04-24T15:34:39Z</time>
      </trkpt>
      <trkpt lat="59.9705509" lon="17.7183873">
        <ele>30.8995</ele>
        <time>2013-04-24T15:34:40Z</time>
      </trkpt>
      <trkpt lat="59.9704986" lon="17.718339">
        <ele>30.8995</ele>
        <time>2013-04-24T15:34:41Z</time>
      </trkpt>
      <trkpt lat="59.9704464" lon="17.7182915">
        <ele>30.8995</ele>
        <time>2013-04-24T15:34:42Z</time>
      </trkpt>
      <trkpt lat="59.970394" lon="17.7182444">
        <ele>30.8995</ele>
        <time>2013-04-24T15:34:43Z</time>
      </trkpt>
      <trkpt lat="59.9703408" lon="17.7181971">
        <ele>30.8995</ele>
        <time>2013-04-24T15:34:44Z</time>
      </trkpt>
      <trkpt lat="59.9702875" lon="17.7181496">
        <ele>30.8995</ele>
        <time>2013-04-24T15:34:45Z</time>
      </trkpt>
      <trkpt lat="59.9702347" lon="17.7181018">
        <ele>30.8995</ele>
        <time>2013-04-24T15:34:46Z</time>
      </trkpt>
      <trkpt lat="59.9701825" lon="17.7180532">
        <ele>30.8995</ele>
        <time>2013-04-24T15:34:47Z</time>
      </trkpt>
      <trkpt lat="59.97013" lon="17.718005">
        <ele>30.8995</ele>
        <time>2013-04-24T15:34:48Z</time>
      </trkpt>
      <trkpt lat="59.9700772" lon="17.717957">
        <ele>30.8995</ele>
        <time>2013-04-24T15:34:49Z</time>
      </trkpt>
      <trkpt lat="59.9700238" lon="17.7179096">
        <ele>30.8995</ele>
        <time>2013-04-24T15:34:50Z</time>
      </trkpt>
      <trkpt lat="59.9699704" lon="17.7178617">
        <ele>30.8995</ele>
        <time>2013-04-24T15:34:51Z</time>
      </trkpt>
      <trkpt lat="59.9699169" lon="17.7178147">
        <ele>30.8995</ele>
        <time>2013-04-24T15:34:52Z</time>
      </trkpt>
      <trkpt lat="59.9698631" lon="17.7177699">
        <ele>30.8995</ele>
        <time>2013-04-24T15:34:53Z</time>
      </trkpt>
      <trkpt lat="59.9698093" lon="17.7177243">
        <ele>30.8995</ele>
        <time>2013-04-24T15:34:54Z</time>
      </trkpt>
      <trkpt lat="59.969756" lon="17.7176782">
        <ele>30.8995</ele>
        <time>2013-04-24T15:34:55Z</time>
      </trkpt>
      <trkpt lat="59.9697029" lon="17.7176342">
        <ele>30.8995</ele>
        <time>2013-04-24T15:34:56Z</time>
      </trkpt>
      <trkpt lat="59.9696496" lon="17.7175946">
        <ele>31.3801</ele>
        <time>2013-04-24T15:34:57Z</time>
      </trkpt>
      <trkpt lat="59.9695968" lon="17.7175585">
        <ele>31.3801</ele>
        <time>2013-04-24T15:34:58Z</time>
      </trkpt>
      <trkpt lat="59.9695446" lon="17.7175243">
        <ele>31.3801</ele>
        <time>2013-04-24T15:34:59Z</time>
      </trkpt>
      <trkpt lat="59.9694916" lon="17.717493">
        <ele>31.3801</ele>
        <time>2013-04-24T15:35:00Z</time>
      </trkpt>
      <trkpt lat="59.9694376" lon="17.7174627">
        <ele>31.3801</ele>
        <time>2013-04-24T15:35:01Z</time>
      </trkpt>
      <trkpt lat="59.9693828" lon="17.7174321">
        <ele>31.3801</ele>
        <time>2013-04-24T15:35:02Z</time>
      </trkpt>
      <trkpt lat="59.969327" lon="17.7174025">
        <ele>31.8607</ele>
        <time>2013-04-24T15:35:03Z</time>
      </trkpt>
      <trkpt lat="59.9692709" lon="17.7173755">
        <ele>31.8607</ele>
        <time>2013-04-24T15:35:04Z</time>
      </trkpt>
      <trkpt lat="59.9692146" lon="17.7173521">
        <ele>31.8607</ele>
        <time>2013-04-24T15:35:05Z</time>
      </trkpt>
      <trkpt lat="59.9691584" lon="17.7173295">
        <ele>31.8607</ele>
        <time>2013-04-24T15:35:06Z</time>
      </trkpt>
      <trkpt lat="59.969102" lon="17.7173057">
        <ele>31.8607</ele>
        <time>2013-04-24T15:35:07Z</time>
      </trkpt>
      <trkpt lat="59.9690447" lon="17.717283">
        <ele>31.8607</ele>
        <time>2013-04-24T15:35:08Z</time>
      </trkpt>
      <trkpt lat="59.9689867" lon="17.7172613">
        <ele>31.8607</ele>
        <time>2013-04-24T15:35:09Z</time>
      </trkpt>
      <trkpt lat="59.9689282" lon="17.7172382">
        <ele>31.8607</ele>
        <time>2013-04-24T15:35:10Z</time>
      </trkpt>
      <trkpt lat="59.9688692" lon="17.7172128">
        <ele>31.8607</ele>
        <time>2013-04-24T15:35:11Z</time>
      </trkpt>
      <trkpt lat="59.9688103" lon="17.7171861">
        <ele>31.8607</ele>
        <time>2013-04-24T15:35:12Z</time>
      </trkpt>
      <trkpt lat="59.968751" lon="17.7171602">
        <ele>31.8607</ele>
        <time>2013-04-24T15:35:13Z</time>
      </trkpt>
      <trkpt lat="59.9686912" lon="17.7171351">
        <ele>31.8607</ele>
        <time>2013-04-24T15:35:14Z</time>
      </trkpt>
      <trkpt lat="59.9686308" lon="17.7171079">
        <ele>31.8607</ele>
        <time>2013-04-24T15:35:15Z</time>
      </trkpt>
      <trkpt lat="59.9685689" lon="17.7170799">
        <ele>31.3801</ele>
        <time>2013-04-24T15:35:16Z</time>
      </trkpt>
      <trkpt lat="59.9685055" lon="17.7170515">
        <ele>31.3801</ele>
        <time>2013-04-24T15:35:17Z</time>
      </trkpt>
      <trkpt lat="59.9684418" lon="17.7170193">
        <ele>31.3801</ele>
        <time>2013-04-24T15:35:18Z</time>
      </trkpt>
      <trkpt lat="59.9683781" lon="17.7169778">
        <ele>30.8995</ele>
        <time>2013-04-24T15:35:19Z</time>
      </trkpt>
      <trkpt lat="59.9683144" lon="17.7169258">
        <ele>30.8995</ele>
        <time>2013-04-24T15:35:20Z</time>
      </trkpt>
      <trkpt lat="59.9682493" lon="17.7168659">
        <ele>30.4188</ele>
        <time>2013-04-24T15:35:21Z</time>
      </trkpt>
      <trkpt lat="59.9681836" lon="17.7167996">
        <ele>29.9381</ele>
        <time>2013-04-24T15:35:22Z</time>
      </trkpt>
      <trkpt lat="59.9681185" lon="17.7167252">
        <ele>29.4575</ele>
        <time>2013-04-24T15:35:23Z</time>
      </trkpt>
      <trkpt lat="59.9680543" lon="17.7166411">
        <ele>28.9769</ele>
        <time>2013-04-24T15:35:24Z</time>
      </trkpt>
      <trkpt lat="59.967991" lon="17.7165487">
        <ele>28.4962</ele>
        <time>2013-04-24T15:35:25Z</time>
      </trkpt>
      <trkpt lat="59.9679284" lon="17.716449">
        <ele>28.0155</ele>
        <time>2013-04-24T15:35:26Z</time>
      </trkpt>
      <trkpt lat="59.9678678" lon="17.7163394">
        <ele>27.0543</ele>
        <time>2013-04-24T15:35:27Z</time>
      </trkpt>
      <trkpt lat="59.9678103" lon="17.7162184">
        <ele>26.5736</ele>
        <time>2013-04-24T15:35:28Z</time>
      </trkpt>
      <trkpt lat="59.9677564" lon="17.7160875">
        <ele>26.0929</ele>
        <time>2013-04-24T15:35:29Z</time>
      </trkpt>
      <trkpt lat="59.9677051" lon="17.7159495">
        <ele>25.6123</ele>
        <time>2013-04-24T15:35:30Z</time>
      </trkpt>
      <trkpt lat="59.9676578" lon="17.7158047">
        <ele>24.651</ele>
        <time>2013-04-24T15:35:31Z</time>
      </trkpt>
      <trkpt lat="59.9676145" lon="17.7156522">
        <ele>24.1703</ele>
        <time>2013-04-24T15:35:32Z</time>
      </trkpt>
      <trkpt lat="59.9675767" lon="17.7154958">
        <ele>23.6896</ele>
        <time>2013-04-24T15:35:33Z</time>
      </trkpt>
      <trkpt lat="59.9675439" lon="17.7153446">
        <ele>23.209</ele>
        <time>2013-04-24T15:35:34Z</time>
      </trkpt>
      <trkpt lat="59.9675228" lon="17.7151367">
        <ele>23.209</ele>
        <time>2013-04-24T15:35:35Z</time>
      </trkpt>
      <trkpt lat="59.9674948" lon="17.7149938">
        <ele>23.209</ele>
        <time>2013-04-24T15:35:36Z</time>
      </trkpt>
      <trkpt lat="59.9674755" lon="17.714855">
        <ele>23.6896</ele>
        <time>2013-04-24T15:35:37Z</time>
      </trkpt>
      <trkpt lat="59.9674575" lon="17.7147145">
        <ele>24.1703</ele>
        <time>2013-04-24T15:35:38Z</time>
      </trkpt>
      <trkpt lat="59.9674403" lon="17.7145858">
        <ele>24.1703</ele>
        <time>2013-04-24T15:35:39Z</time>
      </trkpt>
      <trkpt lat="59.9674222" lon="17.7144556">
        <ele>24.1703</ele>
        <time>2013-04-24T15:35:40Z</time>
      </trkpt>
      <trkpt lat="59.9674031" lon="17.7143412">
        <ele>25.1317</ele>
        <time>2013-04-24T15:35:41Z</time>
      </trkpt>
      <trkpt lat="59.9673849" lon="17.714222">
        <ele>25.1317</ele>
        <time>2013-04-24T15:35:42Z</time>
      </trkpt>
      <trkpt lat="59.9673683" lon="17.7141133">
        <ele>25.6123</ele>
        <time>2013-04-24T15:35:43Z</time>
      </trkpt>
      <trkpt lat="59.9673532" lon="17.7140081">
        <ele>25.6123</ele>
        <time>2013-04-24T15:35:44Z</time>
      </trkpt>
      <trkpt lat="59.96734" lon="17.7139077">
        <ele>25.6123</ele>
        <time>2013-04-24T15:35:45Z</time>
      </trkpt>
      <trkpt lat="59.9673257" lon="17.7138145">
        <ele>25.6123</ele>
        <time>2013-04-24T15:35:46Z</time>
      </trkpt>
      <trkpt lat="59.9673113" lon="17.7137204">
        <ele>26.0929</ele>
        <time>2013-04-24T15:35:47Z</time>
      </trkpt>
      <trkpt lat="59.9672958" lon="17.7136294">
        <ele>26.5736</ele>
        <time>2013-04-24T15:35:48Z</time>
      </trkpt>
      <trkpt lat="59.9672815" lon="17.7135407">
        <ele>27.0543</ele>
        <time>2013-04-24T15:35:49Z</time>
      </trkpt>
      <trkpt lat="59.967267" lon="17.7134547">
        <ele>27.0543</ele>
        <time>2013-04-24T15:35:50Z</time>
      </trkpt>
      <trkpt lat="59.9672499" lon="17.7133728">
        <ele>27.5349</ele>
        <time>2013-04-24T15:35:51Z</time>
      </trkpt>
      <trkpt lat="59.9672347" lon="17.7132932">
        <ele>28.4962</ele>
        <time>2013-04-24T15:35:52Z</time>
      </trkpt>
      <trkpt lat="59.9672229" lon="17.7132145">
        <ele>28.9769</ele>
        <time>2013-04-24T15:35:53Z</time>
      </trkpt>
      <trkpt lat="59.9672084" lon="17.713135">
        <ele>29.4575</ele>
        <time>2013-04-24T15:35:54Z</time>
      </trkpt>
      <trkpt lat="59.9671933" lon="17.7130508">
        <ele>30.4188</ele>
        <time>2013-04-24T15:35:55Z</time>
      </trkpt>
      <trkpt lat="59.9671746" lon="17.7129653">
        <ele>30.8995</ele>
        <time>2013-04-24T15:35:56Z</time>
      </trkpt>
      <trkpt lat="59.9671529" lon="17.7128777">
        <ele>31.3801</ele>
        <time>2013-04-24T15:35:57Z</time>
      </trkpt>
      <trkpt lat="59.96713" lon="17.7127932">
        <ele>31.3801</ele>
        <time>2013-04-24T15:35:58Z</time>
      </trkpt>
      <trkpt lat="59.9671058" lon="17.7127105">
        <ele>31.8607</ele>
        <time>2013-04-24T15:35:59Z</time>
      </trkpt>
      <trkpt lat="59.9670818" lon="17.712626">
        <ele>32.3416</ele>
        <time>2013-04-24T15:36:00Z</time>
      </trkpt>
      <trkpt lat="59.9670579" lon="17.7125389">
        <ele>32.8223</ele>
        <time>2013-04-24T15:36:01Z</time>
      </trkpt>
      <trkpt lat="59.9670307" lon="17.7124564">
        <ele>33.3029</ele>
        <time>2013-04-24T15:36:02Z</time>
      </trkpt>
      <trkpt lat="59.9669979" lon="17.7123713">
        <ele>33.3029</ele>
        <time>2013-04-24T15:36:03Z</time>
      </trkpt>
      <trkpt lat="59.9669658" lon="17.7122834">
        <ele>33.3029</ele>
        <time>2013-04-24T15:36:04Z</time>
      </trkpt>
      <trkpt lat="59.9669336" lon="17.7121959">
        <ele>32.8223</ele>
        <time>2013-04-24T15:36:05Z</time>
      </trkpt>
      <trkpt lat="59.9669006" lon="17.7121125">
        <ele>32.8223</ele>
        <time>2013-04-24T15:36:06Z</time>
      </trkpt>
      <trkpt lat="59.966869" lon="17.7120284">
        <ele>32.8223</ele>
        <time>2013-04-24T15:36:07Z</time>
      </trkpt>
      <trkpt lat="59.9668377" lon="17.7119419">
        <ele>32.8223</ele>
        <time>2013-04-24T15:36:08Z</time>
      </trkpt>
      <trkpt lat="59.9668072" lon="17.7118532">
        <ele>32.8223</ele>
        <time>2013-04-24T15:36:09Z</time>
      </trkpt>
      <trkpt lat="59.9667757" lon="17.7117649">
        <ele>32.3416</ele>
        <time>2013-04-24T15:36:10Z</time>
      </trkpt>
      <trkpt lat="59.9667427" lon="17.7116765">
        <ele>32.3416</ele>
        <time>2013-04-24T15:36:11Z</time>
      </trkpt>
      <trkpt lat="59.9667108" lon="17.7115863">
        <ele>32.3416</ele>
        <time>2013-04-24T15:36:12Z</time>
      </trkpt>
      <trkpt lat="59.9666801" lon="17.7114933">
        <ele>32.3416</ele>
        <time>2013-04-24T15:36:13Z</time>
      </trkpt>
      <trkpt lat="59.9666493" lon="17.7113989">
        <ele>32.3416</ele>
        <time>2013-04-24T15:36:14Z</time>
      </trkpt>
      <trkpt lat="59.9666186" lon="17.7113031">
        <ele>32.3416</ele>
        <time>2013-04-24T15:36:15Z</time>
      </trkpt>
      <trkpt lat="59.9665887" lon="17.7112046">
        <ele>32.3416</ele>
        <time>2013-04-24T15:36:16Z</time>
      </trkpt>
      <trkpt lat="59.9665592" lon="17.7111051">
        <ele>32.3416</ele>
        <time>2013-04-24T15:36:17Z</time>
      </trkpt>
      <trkpt lat="59.9665321" lon="17.7110052">
        <ele>31.8607</ele>
        <time>2013-04-24T15:36:18Z</time>
      </trkpt>
      <trkpt lat="59.9665052" lon="17.7109037">
        <ele>31.8607</ele>
        <time>2013-04-24T15:36:19Z</time>
      </trkpt>
      <trkpt lat="59.9664768" lon="17.7108016">
        <ele>31.8607</ele>
        <time>2013-04-24T15:36:20Z</time>
      </trkpt>
      <trkpt lat="59.9664463" lon="17.710701">
        <ele>31.3801</ele>
        <time>2013-04-24T15:36:21Z</time>
      </trkpt>
      <trkpt lat="59.9664163" lon="17.7105975">
        <ele>31.3801</ele>
        <time>2013-04-24T15:36:22Z</time>
      </trkpt>
      <trkpt lat="59.9663852" lon="17.7104912">
        <ele>31.3801</ele>
        <time>2013-04-24T15:36:23Z</time>
      </trkpt>
      <trkpt lat="59.9663553" lon="17.7103835">
        <ele>30.8995</ele>
        <time>2013-04-24T15:36:24Z</time>
      </trkpt>
      <trkpt lat="59.9663267" lon="17.7102753">
        <ele>30.8995</ele>
        <time>2013-04-24T15:36:25Z</time>
      </trkpt>
      <trkpt lat="59.966296" lon="17.7101679">
        <ele>30.8995</ele>
        <time>2013-04-24T15:36:26Z</time>
      </trkpt>
      <trkpt lat="59.9662648" lon="17.7100593">
        <ele>30.4188</ele>
        <time>2013-04-24T15:36:27Z</time>
      </trkpt>
      <trkpt lat="59.9662327" lon="17.7099504">
        <ele>30.4188</ele>
        <time>2013-04-24T15:36:28Z</time>
      </trkpt>
      <trkpt lat="59.9662007" lon="17.709841">
        <ele>30.4188</ele>
        <time>2013-04-24T15:36:29Z</time>
      </trkpt>
      <trkpt lat="59.9661687" lon="17.7097305">
        <ele>29.9381</ele>
        <time>2013-04-24T15:36:30Z</time>
      </trkpt>
      <trkpt lat="59.9661375" lon="17.7096185">
        <ele>29.9381</ele>
        <time>2013-04-24T15:36:31Z</time>
      </trkpt>
      <trkpt lat="59.9661064" lon="17.7095075">
        <ele>29.9381</ele>
        <time>2013-04-24T15:36:32Z</time>
      </trkpt>
      <trkpt lat="59.9660748" lon="17.7093993">
        <ele>29.9381</ele>
        <time>2013-04-24T15:36:33Z</time>
      </trkpt>
      <trkpt lat="59.9660432" lon="17.7092925">
        <ele>29.9381</ele>
        <time>2013-04-24T15:36:34Z</time>
      </trkpt>
      <trkpt lat="59.9660126" lon="17.709185">
        <ele>29.9381</ele>
        <time>2013-04-24T15:36:35Z</time>
      </trkpt>
      <trkpt lat="59.9659806" lon="17.7090797">
        <ele>29.4575</ele>
        <time>2013-04-24T15:36:36Z</time>
      </trkpt>
      <trkpt lat="59.965948" lon="17.7089764">
        <ele>29.4575</ele>
        <time>2013-04-24T15:36:37Z</time>
      </trkpt>
      <trkpt lat="59.9659154" lon="17.7088752">
        <ele>29.4575</ele>
        <time>2013-04-24T15:36:38Z</time>
      </trkpt>
      <trkpt lat="59.965882" lon="17.7087777">
        <ele>29.4575</ele>
        <time>2013-04-24T15:36:39Z</time>
      </trkpt>
      <trkpt lat="59.9658481" lon="17.7086822">
        <ele>29.9381</ele>
        <time>2013-04-24T15:36:40Z</time>
      </trkpt>
      <trkpt lat="59.9658133" lon="17.7085882">
        <ele>29.9381</ele>
        <time>2013-04-24T15:36:41Z</time>
      </trkpt>
      <trkpt lat="59.965774" lon="17.7084994">
        <ele>29.9381</ele>
        <time>2013-04-24T15:36:42Z</time>
      </trkpt>
      <trkpt lat="59.9657318" lon="17.7084136">
        <ele>29.9381</ele>
        <time>2013-04-24T15:36:43Z</time>
      </trkpt>
      <trkpt lat="59.9656869" lon="17.7083295">
        <ele>29.9381</ele>
        <time>2013-04-24T15:36:44Z</time>
      </trkpt>
      <trkpt lat="59.9656388" lon="17.70825">
        <ele>30.4188</ele>
        <time>2013-04-24T15:36:45Z</time>
      </trkpt>
      <trkpt lat="59.9655864" lon="17.7081768">
        <ele>30.4188</ele>
        <time>2013-04-24T15:36:46Z</time>
      </trkpt>
      <trkpt lat="59.9655318" lon="17.7081096">
        <ele>30.4188</ele>
        <time>2013-04-24T15:36:47Z</time>
      </trkpt>
      <trkpt lat="59.9654744" lon="17.7080487">
        <ele>30.4188</ele>
        <time>2013-04-24T15:36:48Z</time>
      </trkpt>
      <trkpt lat="59.9654156" lon="17.7079919">
        <ele>30.4188</ele>
        <time>2013-04-24T15:36:49Z</time>
      </trkpt>
      <trkpt lat="59.9653565" lon="17.707938">
        <ele>30.4188</ele>
        <time>2013-04-24T15:36:50Z</time>
      </trkpt>
      <trkpt lat="59.9652978" lon="17.7078878">
        <ele>30.4188</ele>
        <time>2013-04-24T15:36:51Z</time>
      </trkpt>
      <trkpt lat="59.9652394" lon="17.7078387">
        <ele>30.4188</ele>
        <time>2013-04-24T15:36:52Z</time>
      </trkpt>
      <trkpt lat="59.9651818" lon="17.7077878">
        <ele>29.9381</ele>
        <time>2013-04-24T15:36:53Z</time>
      </trkpt>
      <trkpt lat="59.9651243" lon="17.7077382">
        <ele>29.9381</ele>
        <time>2013-04-24T15:36:54Z</time>
      </trkpt>
      <trkpt lat="59.9650665" lon="17.7076925">
        <ele>29.9381</ele>
        <time>2013-04-24T15:36:55Z</time>
      </trkpt>
      <trkpt lat="59.9650089" lon="17.707649">
        <ele>29.9381</ele>
        <time>2013-04-24T15:36:56Z</time>
      </trkpt>
      <trkpt lat="59.9649514" lon="17.7076079">
        <ele>29.4575</ele>
        <time>2013-04-24T15:36:57Z</time>
      </trkpt>
      <trkpt lat="59.9648949" lon="17.7075657">
        <ele>29.4575</ele>
        <time>2013-04-24T15:36:58Z</time>
      </trkpt>
      <trkpt lat="59.9648393" lon="17.7075221">
        <ele>29.4575</ele>
        <time>2013-04-24T15:36:59Z</time>
      </trkpt>
      <trkpt lat="59.9647834" lon="17.7074806">
        <ele>29.4575</ele>
        <time>2013-04-24T15:37:00Z</time>
      </trkpt>
      <trkpt lat="59.9647266" lon="17.7074413">
        <ele>29.4575</ele>
        <time>2013-04-24T15:37:01Z</time>
      </trkpt>
      <trkpt lat="59.9646696" lon="17.7074043">
        <ele>28.9769</ele>
        <time>2013-04-24T15:37:02Z</time>
      </trkpt>
      <trkpt lat="59.9646131" lon="17.7073697">
        <ele>28.9769</ele>
        <time>2013-04-24T15:37:03Z</time>
      </trkpt>
      <trkpt lat="59.9645566" lon="17.7073366">
        <ele>28.9769</ele>
        <time>2013-04-24T15:37:04Z</time>
      </trkpt>
      <trkpt lat="59.9644998" lon="17.7073048">
        <ele>28.9769</ele>
        <time>2013-04-24T15:37:05Z</time>
      </trkpt>
      <trkpt lat="59.9644432" lon="17.707276">
        <ele>28.9769</ele>
        <time>2013-04-24T15:37:06Z</time>
      </trkpt>
      <trkpt lat="59.964386" lon="17.7072508">
        <ele>28.9769</ele>
        <time>2013-04-24T15:37:07Z</time>
      </trkpt>
      <trkpt lat="59.964328" lon="17.7072294">
        <ele>28.9769</ele>
        <time>2013-04-24T15:37:08Z</time>
      </trkpt>
      <trkpt lat="59.9642697" lon="17.7072109">
        <ele>28.9769</ele>
        <time>2013-04-24T15:37:09Z</time>
      </trkpt>
      <trkpt lat="59.9642111" lon="17.7071957">
        <ele>28.9769</ele>
        <time>2013-04-24T15:37:10Z</time>
      </trkpt>
      <trkpt lat="59.9641515" lon="17.7071834">
        <ele>29.4575</ele>
        <time>2013-04-24T15:37:11Z</time>
      </trkpt>
      <trkpt lat="59.964092" lon="17.7071741">
        <ele>29.4575</ele>
        <time>2013-04-24T15:37:12Z</time>
      </trkpt>
      <trkpt lat="59.9640329" lon="17.7071648">
        <ele>29.4575</ele>
        <time>2013-04-24T15:37:13Z</time>
      </trkpt>
      <trkpt lat="59.9639737" lon="17.7071541">
        <ele>29.4575</ele>
        <time>2013-04-24T15:37:14Z</time>
      </trkpt>
      <trkpt lat="59.9639138" lon="17.7071433">
        <ele>29.4575</ele>
        <time>2013-04-24T15:37:15Z</time>
      </trkpt>
      <trkpt lat="59.9638532" lon="17.707133">
        <ele>29.9381</ele>
        <time>2013-04-24T15:37:16Z</time>
      </trkpt>
      <trkpt lat="59.9637921" lon="17.7071244">
        <ele>29.9381</ele>
        <time>2013-04-24T15:37:17Z</time>
      </trkpt>
      <trkpt lat="59.9637305" lon="17.7071191">
        <ele>29.9381</ele>
        <time>2013-04-24T15:37:18Z</time>
      </trkpt>
      <trkpt lat="59.9636687" lon="17.7071154">
        <ele>29.9381</ele>
        <time>2013-04-24T15:37:19Z</time>
      </trkpt>
      <trkpt lat="59.9636064" lon="17.7071114">
        <ele>29.9381</ele>
        <time>2013-04-24T15:37:20Z</time>
      </trkpt>
      <trkpt lat="59.9635437" lon="17.7071076">
        <ele>29.9381</ele>
        <time>2013-04-24T15:37:21Z</time>
      </trkpt>
      <trkpt lat="59.9634844" lon="17.707105">
        <ele>30.4188</ele>
        <time>2013-04-24T15:37:22Z</time>
      </trkpt>
      <trkpt lat="59.9634258" lon="17.7071035">
        <ele>30.8995</ele>
        <time>2013-04-24T15:37:23Z</time>
      </trkpt>
      <trkpt lat="59.9633646" lon="17.7071012">
        <ele>31.3801</ele>
        <time>2013-04-24T15:37:24Z</time>
      </trkpt>
      <trkpt lat="59.963303" lon="17.7070976">
        <ele>31.8607</ele>
        <time>2013-04-24T15:37:25Z</time>
      </trkpt>
      <trkpt lat="59.963242" lon="17.7070953">
        <ele>31.8607</ele>
        <time>2013-04-24T15:37:26Z</time>
      </trkpt>
      <trkpt lat="59.9631809" lon="17.7070951">
        <ele>32.3416</ele>
        <time>2013-04-24T15:37:27Z</time>
      </trkpt>
      <trkpt lat="59.9631201" lon="17.7070958">
        <ele>32.8223</ele>
        <time>2013-04-24T15:37:28Z</time>
      </trkpt>
      <trkpt lat="59.9630596" lon="17.7070972">
        <ele>32.8223</ele>
        <time>2013-04-24T15:37:29Z</time>
      </trkpt>
      <trkpt lat="59.9629998" lon="17.7070983">
        <ele>33.3029</ele>
        <time>2013-04-24T15:37:30Z</time>
      </trkpt>
      <trkpt lat="59.9629402" lon="17.7070992">
        <ele>33.3029</ele>
        <time>2013-04-24T15:37:31Z</time>
      </trkpt>
      <trkpt lat="59.962881" lon="17.7070987">
        <ele>33.7834</ele>
        <time>2013-04-24T15:37:32Z</time>
      </trkpt>
      <trkpt lat="59.9628222" lon="17.7070958">
        <ele>33.7834</ele>
        <time>2013-04-24T15:37:33Z</time>
      </trkpt>
      <trkpt lat="59.9627637" lon="17.7070896">
        <ele>34.2642</ele>
        <time>2013-04-24T15:37:34Z</time>
      </trkpt>
      <trkpt lat="59.9627048" lon="17.7070814">
        <ele>34.2642</ele>
        <time>2013-04-24T15:37:35Z</time>
      </trkpt>
      <trkpt lat="59.9626463" lon="17.7070694">
        <ele>34.7449</ele>
        <time>2013-04-24T15:37:36Z</time>
      </trkpt>
      <trkpt lat="59.9625877" lon="17.7070533">
        <ele>34.7449</ele>
        <time>2013-04-24T15:37:37Z</time>
      </trkpt>
      <trkpt lat="59.962529" lon="17.7070352">
        <ele>34.7449</ele>
        <time>2013-04-24T15:37:38Z</time>
      </trkpt>
      <trkpt lat="59.9624701" lon="17.707017">
        <ele>35.2255</ele>
        <time>2013-04-24T15:37:39Z</time>
      </trkpt>
      <trkpt lat="59.9624105" lon="17.7069989">
        <ele>35.2255</ele>
        <time>2013-04-24T15:37:40Z</time>
      </trkpt>
      <trkpt lat="59.9623507" lon="17.7069823">
        <ele>35.7061</ele>
        <time>2013-04-24T15:37:41Z</time>
      </trkpt>
      <trkpt lat="59.9622907" lon="17.7069641">
        <ele>35.7061</ele>
        <time>2013-04-24T15:37:42Z</time>
      </trkpt>
      <trkpt lat="59.9622308" lon="17.7069386">
        <ele>35.7061</ele>
        <time>2013-04-24T15:37:43Z</time>
      </trkpt>
      <trkpt lat="59.9621706" lon="17.7069049">
        <ele>36.1868</ele>
        <time>2013-04-24T15:37:44Z</time>
      </trkpt>
      <trkpt lat="59.9621093" lon="17.7068632">
        <ele>36.1868</ele>
        <time>2013-04-24T15:37:45Z</time>
      </trkpt>
      <trkpt lat="59.962047" lon="17.7068167">
        <ele>36.6675</ele>
        <time>2013-04-24T15:37:46Z</time>
      </trkpt>
      <trkpt lat="59.9619842" lon="17.7067694">
        <ele>36.6675</ele>
        <time>2013-04-24T15:37:47Z</time>
      </trkpt>
      <trkpt lat="59.961921" lon="17.7067181">
        <ele>36.6675</ele>
        <time>2013-04-24T15:37:48Z</time>
      </trkpt>
      <trkpt lat="59.9618577" lon="17.7066622">
        <ele>36.6675</ele>
        <time>2013-04-24T15:37:49Z</time>
      </trkpt>
      <trkpt lat="59.9617944" lon="17.7066001">
        <ele>36.6675</ele>
        <time>2013-04-24T15:37:50Z</time>
      </trkpt>
      <trkpt lat="59.9617302" lon="17.7065327">
        <ele>36.6675</ele>
        <time>2013-04-24T15:37:51Z</time>
      </trkpt>
      <trkpt lat="59.9616656" lon="17.7064608">
        <ele>36.6675</ele>
        <time>2013-04-24T15:37:52Z</time>
      </trkpt>
      <trkpt lat="59.9616018" lon="17.7063799">
        <ele>36.6675</ele>
        <time>2013-04-24T15:37:53Z</time>
      </trkpt>
      <trkpt lat="59.9615398" lon="17.7062907">
        <ele>36.1868</ele>
        <time>2013-04-24T15:37:54Z</time>
      </trkpt>
      <trkpt lat="59.9614794" lon="17.7061935">
        <ele>36.1868</ele>
        <time>2013-04-24T15:37:55Z</time>
      </trkpt>
      <trkpt lat="59.9614202" lon="17.7060897">
        <ele>36.1868</ele>
        <time>2013-04-24T15:37:56Z</time>
      </trkpt>
      <trkpt lat="59.9613629" lon="17.7059834">
        <ele>36.1868</ele>
        <time>2013-04-24T15:37:57Z</time>
      </trkpt>
      <trkpt lat="59.9613065" lon="17.7058777">
        <ele>36.1868</ele>
        <time>2013-04-24T15:37:58Z</time>
      </trkpt>
      <trkpt lat="59.9612502" lon="17.7057737">
        <ele>35.7061</ele>
        <time>2013-04-24T15:37:59Z</time>
      </trkpt>
      <trkpt lat="59.9611953" lon="17.7056707">
        <ele>36.1868</ele>
        <time>2013-04-24T15:38:00Z</time>
      </trkpt>
      <trkpt lat="59.9611399" lon="17.7055697">
        <ele>36.1868</ele>
        <time>2013-04-24T15:38:01Z</time>
      </trkpt>
      <trkpt lat="59.9610844" lon="17.7054718">
        <ele>36.1868</ele>
        <time>2013-04-24T15:38:02Z</time>
      </trkpt>
      <trkpt lat="59.9610264" lon="17.705378">
        <ele>36.1868</ele>
        <time>2013-04-24T15:38:03Z</time>
      </trkpt>
      <trkpt lat="59.9609687" lon="17.7052874">
        <ele>36.1868</ele>
        <time>2013-04-24T15:38:04Z</time>
      </trkpt>
      <trkpt lat="59.9609108" lon="17.7051999">
        <ele>35.7061</ele>
        <time>2013-04-24T15:38:05Z</time>
      </trkpt>
      <trkpt lat="59.9608509" lon="17.7051155">
        <ele>35.7061</ele>
        <time>2013-04-24T15:38:06Z</time>
      </trkpt>
      <trkpt lat="59.9607902" lon="17.7050355">
        <ele>35.7061</ele>
        <time>2013-04-24T15:38:07Z</time>
      </trkpt>
      <trkpt lat="59.9607297" lon="17.7049584">
        <ele>35.7061</ele>
        <time>2013-04-24T15:38:08Z</time>
      </trkpt>
      <trkpt lat="59.9606695" lon="17.7048818">
        <ele>35.7061</ele>
        <time>2013-04-24T15:38:09Z</time>
      </trkpt>
      <trkpt lat="59.9606088" lon="17.7048052">
        <ele>35.2255</ele>
        <time>2013-04-24T15:38:10Z</time>
      </trkpt>
      <trkpt lat="59.9605478" lon="17.7047295">
        <ele>35.2255</ele>
        <time>2013-04-24T15:38:11Z</time>
      </trkpt>
      <trkpt lat="59.9604866" lon="17.7046544">
        <ele>35.2255</ele>
        <time>2013-04-24T15:38:12Z</time>
      </trkpt>
      <trkpt lat="59.9604253" lon="17.7045806">
        <ele>35.2255</ele>
        <time>2013-04-24T15:38:13Z</time>
      </trkpt>
      <trkpt lat="59.9603634" lon="17.7045074">
        <ele>34.7449</ele>
        <time>2013-04-24T15:38:14Z</time>
      </trkpt>
      <trkpt lat="59.9603013" lon="17.7044342">
        <ele>34.7449</ele>
        <time>2013-04-24T15:38:15Z</time>
      </trkpt>
      <trkpt lat="59.96024" lon="17.7043581">
        <ele>35.2255</ele>
        <time>2013-04-24T15:38:16Z</time>
      </trkpt>
      <trkpt lat="59.9601815" lon="17.7042727">
        <ele>35.2255</ele>
        <time>2013-04-24T15:38:17Z</time>
      </trkpt>
      <trkpt lat="59.9601261" lon="17.7041803">
        <ele>35.2255</ele>
        <time>2013-04-24T15:38:18Z</time>
      </trkpt>
      <trkpt lat="59.9600733" lon="17.7040846">
        <ele>35.2255</ele>
        <time>2013-04-24T15:38:19Z</time>
      </trkpt>
      <trkpt lat="59.960023" lon="17.7039814">
        <ele>35.2255</ele>
        <time>2013-04-24T15:38:20Z</time>
      </trkpt>
      <trkpt lat="59.9599784" lon="17.703867">
        <ele>35.2255</ele>
        <time>2013-04-24T15:38:21Z</time>
      </trkpt>
      <trkpt lat="59.9599402" lon="17.7037463">
        <ele>35.2255</ele>
        <time>2013-04-24T15:38:22Z</time>
      </trkpt>
      <trkpt lat="59.9599052" lon="17.7036245">
        <ele>35.2255</ele>
        <time>2013-04-24T15:38:23Z</time>
      </trkpt>
      <trkpt lat="59.9598688" lon="17.7035068">
        <ele>35.2255</ele>
        <time>2013-04-24T15:38:24Z</time>
      </trkpt>
      <trkpt lat="59.9598319" lon="17.703393">
        <ele>35.2255</ele>
        <time>2013-04-24T15:38:25Z</time>
      </trkpt>
      <trkpt lat="59.9597956" lon="17.7032806">
        <ele>35.7061</ele>
        <time>2013-04-24T15:38:26Z</time>
      </trkpt>
      <trkpt lat="59.9597597" lon="17.7031697">
        <ele>35.7061</ele>
        <time>2013-04-24T15:38:27Z</time>
      </trkpt>
      <trkpt lat="59.9597235" lon="17.7030623">
        <ele>35.2255</ele>
        <time>2013-04-24T15:38:28Z</time>
      </trkpt>
      <trkpt lat="59.9596866" lon="17.7029558">
        <ele>35.2255</ele>
        <time>2013-04-24T15:38:29Z</time>
      </trkpt>
      <trkpt lat="59.9596493" lon="17.7028465">
        <ele>35.2255</ele>
        <time>2013-04-24T15:38:30Z</time>
      </trkpt>
      <trkpt lat="59.9596131" lon="17.702733">
        <ele>35.2255</ele>
        <time>2013-04-24T15:38:31Z</time>
      </trkpt>
      <trkpt lat="59.9595761" lon="17.7026154">
        <ele>35.2255</ele>
        <time>2013-04-24T15:38:32Z</time>
      </trkpt>
      <trkpt lat="59.9595418" lon="17.7024937">
        <ele>35.2255</ele>
        <time>2013-04-24T15:38:33Z</time>
      </trkpt>
      <trkpt lat="59.9595084" lon="17.7023701">
        <ele>35.2255</ele>
        <time>2013-04-24T15:38:34Z</time>
      </trkpt>
      <trkpt lat="59.9594724" lon="17.7022445">
        <ele>34.7449</ele>
        <time>2013-04-24T15:38:35Z</time>
      </trkpt>
      <trkpt lat="59.9594381" lon="17.7021176">
        <ele>34.7449</ele>
        <time>2013-04-24T15:38:36Z</time>
      </trkpt>
      <trkpt lat="59.9594035" lon="17.7019911">
        <ele>34.2642</ele>
        <time>2013-04-24T15:38:37Z</time>
      </trkpt>
      <trkpt lat="59.9593698" lon="17.7018636">
        <ele>34.2642</ele>
        <time>2013-04-24T15:38:38Z</time>
      </trkpt>
      <trkpt lat="59.9593381" lon="17.7017344">
        <ele>34.7449</ele>
        <time>2013-04-24T15:38:39Z</time>
      </trkpt>
      <trkpt lat="59.95931" lon="17.7016079">
        <ele>34.7449</ele>
        <time>2013-04-24T15:38:40Z</time>
      </trkpt>
      <trkpt lat="59.9592843" lon="17.7014794">
        <ele>34.2642</ele>
        <time>2013-04-24T15:38:41Z</time>
      </trkpt>
      <trkpt lat="59.9592605" lon="17.7013483">
        <ele>34.2642</ele>
        <time>2013-04-24T15:38:42Z</time>
      </trkpt>
      <trkpt lat="59.9592398" lon="17.7012151">
        <ele>34.2642</ele>
        <time>2013-04-24T15:38:43Z</time>
      </trkpt>
      <trkpt lat="59.9592222" lon="17.7010796">
        <ele>34.2642</ele>
        <time>2013-04-24T15:38:44Z</time>
      </trkpt>
      <trkpt lat="59.9592064" lon="17.7009414">
        <ele>34.2642</ele>
        <time>2013-04-24T15:38:45Z</time>
      </trkpt>
      <trkpt lat="59.9591898" lon="17.7008013">
        <ele>34.2642</ele>
        <time>2013-04-24T15:38:46Z</time>
      </trkpt>
      <trkpt lat="59.9591724" lon="17.7006579">
        <ele>34.2642</ele>
        <time>2013-04-24T15:38:47Z</time>
      </trkpt>
      <trkpt lat="59.9591549" lon="17.7005102">
        <ele>34.2642</ele>
        <time>2013-04-24T15:38:48Z</time>
      </trkpt>
      <trkpt lat="59.9591388" lon="17.7003606">
        <ele>34.2642</ele>
        <time>2013-04-24T15:38:49Z</time>
      </trkpt>
      <trkpt lat="59.9591241" lon="17.7002094">
        <ele>34.2642</ele>
        <time>2013-04-24T15:38:50Z</time>
      </trkpt>
      <trkpt lat="59.9591092" lon="17.7000579">
        <ele>34.2642</ele>
        <time>2013-04-24T15:38:51Z</time>
      </trkpt>
      <trkpt lat="59.9590954" lon="17.6999063">
        <ele>34.2642</ele>
        <time>2013-04-24T15:38:52Z</time>
      </trkpt>
      <trkpt lat="59.9590838" lon="17.6997555">
        <ele>34.7449</ele>
        <time>2013-04-24T15:38:53Z</time>
      </trkpt>
      <trkpt lat="59.9590741" lon="17.6996056">
        <ele>34.7449</ele>
        <time>2013-04-24T15:38:54Z</time>
      </trkpt>
      <trkpt lat="59.9590663" lon="17.6994562">
        <ele>34.7449</ele>
        <time>2013-04-24T15:38:55Z</time>
      </trkpt>
      <trkpt lat="59.9590591" lon="17.699308">
        <ele>35.2255</ele>
        <time>2013-04-24T15:38:56Z</time>
      </trkpt>
      <trkpt lat="59.9590524" lon="17.6991624">
        <ele>35.2255</ele>
        <time>2013-04-24T15:38:57Z</time>
      </trkpt>
      <trkpt lat="59.959047" lon="17.6990204">
        <ele>35.2255</ele>
        <time>2013-04-24T15:38:58Z</time>
      </trkpt>
      <trkpt lat="59.9590435" lon="17.6988801">
        <ele>35.7061</ele>
        <time>2013-04-24T15:38:59Z</time>
      </trkpt>
      <trkpt lat="59.9590409" lon="17.6987391">
        <ele>35.7061</ele>
        <time>2013-04-24T15:39:00Z</time>
      </trkpt>
      <trkpt lat="59.9590388" lon="17.6985981">
        <ele>35.7061</ele>
        <time>2013-04-24T15:39:01Z</time>
      </trkpt>
      <trkpt lat="59.9590358" lon="17.6984565">
        <ele>35.7061</ele>
        <time>2013-04-24T15:39:02Z</time>
      </trkpt>
      <trkpt lat="59.9590315" lon="17.6983135">
        <ele>35.7061</ele>
        <time>2013-04-24T15:39:03Z</time>
      </trkpt>
      <trkpt lat="59.9590247" lon="17.6981699">
        <ele>35.7061</ele>
        <time>2013-04-24T15:39:04Z</time>
      </trkpt>
      <trkpt lat="59.9590144" lon="17.6980265">
        <ele>35.7061</ele>
        <time>2013-04-24T15:39:05Z</time>
      </trkpt>
      <trkpt lat="59.959001" lon="17.697883">
        <ele>35.7061</ele>
        <time>2013-04-24T15:39:06Z</time>
      </trkpt>
      <trkpt lat="59.9589848" lon="17.6977368">
        <ele>35.2255</ele>
        <time>2013-04-24T15:39:07Z</time>
      </trkpt>
      <trkpt lat="59.9589655" lon="17.6975871">
        <ele>34.7449</ele>
        <time>2013-04-24T15:39:08Z</time>
      </trkpt>
      <trkpt lat="59.958942" lon="17.6974345">
        <ele>34.7449</ele>
        <time>2013-04-24T15:39:09Z</time>
      </trkpt>
      <trkpt lat="59.958915" lon="17.6972804">
        <ele>34.2642</ele>
        <time>2013-04-24T15:39:10Z</time>
      </trkpt>
      <trkpt lat="59.9588855" lon="17.697127">
        <ele>34.2642</ele>
        <time>2013-04-24T15:39:11Z</time>
      </trkpt>
      <trkpt lat="59.9588539" lon="17.6969765">
        <ele>34.2642</ele>
        <time>2013-04-24T15:39:12Z</time>
      </trkpt>
      <trkpt lat="59.9588207" lon="17.6968298">
        <ele>34.2642</ele>
        <time>2013-04-24T15:39:13Z</time>
      </trkpt>
      <trkpt lat="59.958785" lon="17.6966869">
        <ele>33.7834</ele>
        <time>2013-04-24T15:39:14Z</time>
      </trkpt>
      <trkpt lat="59.9587467" lon="17.6965471">
        <ele>33.7834</ele>
        <time>2013-04-24T15:39:15Z</time>
      </trkpt>
      <trkpt lat="59.9587052" lon="17.6964109">
        <ele>33.7834</ele>
        <time>2013-04-24T15:39:16Z</time>
      </trkpt>
      <trkpt lat="59.9586604" lon="17.6962795">
        <ele>33.7834</ele>
        <time>2013-04-24T15:39:17Z</time>
      </trkpt>
      <trkpt lat="59.9586135" lon="17.6961524">
        <ele>33.7834</ele>
        <time>2013-04-24T15:39:18Z</time>
      </trkpt>
      <trkpt lat="59.9585652" lon="17.6960288">
        <ele>33.7834</ele>
        <time>2013-04-24T15:39:19Z</time>
      </trkpt>
      <trkpt lat="59.958516" lon="17.6959057">
        <ele>33.7834</ele>
        <time>2013-04-24T15:39:20Z</time>
      </trkpt>
      <trkpt lat="59.9584662" lon="17.6957818">
        <ele>33.3029</ele>
        <time>2013-04-24T15:39:21Z</time>
      </trkpt>
      <trkpt lat="59.9584156" lon="17.6956581">
        <ele>33.3029</ele>
        <time>2013-04-24T15:39:22Z</time>
      </trkpt>
      <trkpt lat="59.9583649" lon="17.6955337">
        <ele>33.3029</ele>
        <time>2013-04-24T15:39:23Z</time>
      </trkpt>
      <trkpt lat="59.9583157" lon="17.6954088">
        <ele>33.3029</ele>
        <time>2013-04-24T15:39:24Z</time>
      </trkpt>
      <trkpt lat="59.958268" lon="17.6952846">
        <ele>33.3029</ele>
        <time>2013-04-24T15:39:25Z</time>
      </trkpt>
      <trkpt lat="59.9582212" lon="17.6951601">
        <ele>33.3029</ele>
        <time>2013-04-24T15:39:26Z</time>
      </trkpt>
      <trkpt lat="59.9581742" lon="17.6950369">
        <ele>33.3029</ele>
        <time>2013-04-24T15:39:27Z</time>
      </trkpt>
      <trkpt lat="59.9581284" lon="17.6949143">
        <ele>33.3029</ele>
        <time>2013-04-24T15:39:28Z</time>
      </trkpt>
      <trkpt lat="59.9580844" lon="17.694791">
        <ele>33.3029</ele>
        <time>2013-04-24T15:39:29Z</time>
      </trkpt>
      <trkpt lat="59.9580419" lon="17.6946671">
        <ele>33.3029</ele>
        <time>2013-04-24T15:39:30Z</time>
      </trkpt>
      <trkpt lat="59.9579986" lon="17.6945434">
        <ele>33.3029</ele>
        <time>2013-04-24T15:39:31Z</time>
      </trkpt>
      <trkpt lat="59.9579541" lon="17.6944224">
        <ele>32.8223</ele>
        <time>2013-04-24T15:39:32Z</time>
      </trkpt>
      <trkpt lat="59.9579101" lon="17.694302">
        <ele>32.8223</ele>
        <time>2013-04-24T15:39:33Z</time>
      </trkpt>
      <trkpt lat="59.9578668" lon="17.6941797">
        <ele>32.8223</ele>
        <time>2013-04-24T15:39:34Z</time>
      </trkpt>
      <trkpt lat="59.9578251" lon="17.6940595">
        <ele>32.8223</ele>
        <time>2013-04-24T15:39:35Z</time>
      </trkpt>
      <trkpt lat="59.9577834" lon="17.6939404">
        <ele>32.8223</ele>
        <time>2013-04-24T15:39:36Z</time>
      </trkpt>
      <trkpt lat="59.9577421" lon="17.6938211">
        <ele>32.8223</ele>
        <time>2013-04-24T15:39:37Z</time>
      </trkpt>
      <trkpt lat="59.9577006" lon="17.6937016">
        <ele>32.8223</ele>
        <time>2013-04-24T15:39:38Z</time>
      </trkpt>
      <trkpt lat="59.9576589" lon="17.6935818">
        <ele>32.8223</ele>
        <time>2013-04-24T15:39:39Z</time>
      </trkpt>
      <trkpt lat="59.9576182" lon="17.6934613">
        <ele>32.8223</ele>
        <time>2013-04-24T15:39:40Z</time>
      </trkpt>
      <trkpt lat="59.957577" lon="17.6933425">
        <ele>32.8223</ele>
        <time>2013-04-24T15:39:41Z</time>
      </trkpt>
      <trkpt lat="59.9575355" lon="17.6932246">
        <ele>32.3416</ele>
        <time>2013-04-24T15:39:42Z</time>
      </trkpt>
      <trkpt lat="59.9574954" lon="17.6931064">
        <ele>32.3416</ele>
        <time>2013-04-24T15:39:43Z</time>
      </trkpt>
      <trkpt lat="59.9574547" lon="17.6929882">
        <ele>32.3416</ele>
        <time>2013-04-24T15:39:44Z</time>
      </trkpt>
      <trkpt lat="59.9574139" lon="17.6928705">
        <ele>32.3416</ele>
        <time>2013-04-24T15:39:45Z</time>
      </trkpt>
      <trkpt lat="59.9573732" lon="17.6927521">
        <ele>32.3416</ele>
        <time>2013-04-24T15:39:46Z</time>
      </trkpt>
      <trkpt lat="59.9573312" lon="17.6926344">
        <ele>32.3416</ele>
        <time>2013-04-24T15:39:47Z</time>
      </trkpt>
      <trkpt lat="59.9572895" lon="17.6925168">
        <ele>32.3416</ele>
        <time>2013-04-24T15:39:48Z</time>
      </trkpt>
      <trkpt lat="59.9572479" lon="17.6923976">
        <ele>32.8223</ele>
        <time>2013-04-24T15:39:49Z</time>
      </trkpt>
      <trkpt lat="59.9572062" lon="17.692277">
        <ele>32.8223</ele>
        <time>2013-04-24T15:39:50Z</time>
      </trkpt>
      <trkpt lat="59.9571641" lon="17.6921562">
        <ele>32.8223</ele>
        <time>2013-04-24T15:39:51Z</time>
      </trkpt>
      <trkpt lat="59.9571216" lon="17.6920356">
        <ele>32.8223</ele>
        <time>2013-04-24T15:39:52Z</time>
      </trkpt>
      <trkpt lat="59.9570797" lon="17.691916">
        <ele>32.8223</ele>
        <time>2013-04-24T15:39:53Z</time>
      </trkpt>
      <trkpt lat="59.9570386" lon="17.6917961">
        <ele>32.8223</ele>
        <time>2013-04-24T15:39:54Z</time>
      </trkpt>
      <trkpt lat="59.9569977" lon="17.6916772">
        <ele>32.8223</ele>
        <time>2013-04-24T15:39:55Z</time>
      </trkpt>
      <trkpt lat="59.9569569" lon="17.6915597">
        <ele>32.8223</ele>
        <time>2013-04-24T15:39:56Z</time>
      </trkpt>
      <trkpt lat="59.9569165" lon="17.6914434">
        <ele>32.8223</ele>
        <time>2013-04-24T15:39:57Z</time>
      </trkpt>
      <trkpt lat="59.9568776" lon="17.6913282">
        <ele>33.3029</ele>
        <time>2013-04-24T15:39:58Z</time>
      </trkpt>
      <trkpt lat="59.9568409" lon="17.6912155">
        <ele>33.3029</ele>
        <time>2013-04-24T15:39:59Z</time>
      </trkpt>
      <trkpt lat="59.9568057" lon="17.6911083">
        <ele>33.7834</ele>
        <time>2013-04-24T15:40:00Z</time>
      </trkpt>
      <trkpt lat="59.9567709" lon="17.6910064">
        <ele>34.2642</ele>
        <time>2013-04-24T15:40:01Z</time>
      </trkpt>
      <trkpt lat="59.9567367" lon="17.690909">
        <ele>34.2642</ele>
        <time>2013-04-24T15:40:02Z</time>
      </trkpt>
      <trkpt lat="59.9567036" lon="17.6908132">
        <ele>34.7449</ele>
        <time>2013-04-24T15:40:03Z</time>
      </trkpt>
      <trkpt lat="59.9566711" lon="17.6907176">
        <ele>34.7449</ele>
        <time>2013-04-24T15:40:04Z</time>
      </trkpt>
      <trkpt lat="59.9566398" lon="17.6906229">
        <ele>35.2255</ele>
        <time>2013-04-24T15:40:05Z</time>
      </trkpt>
      <trkpt lat="59.9566086" lon="17.6905292">
        <ele>35.2255</ele>
        <time>2013-04-24T15:40:06Z</time>
      </trkpt>
      <trkpt lat="59.9565757" lon="17.6904351">
        <ele>35.7061</ele>
        <time>2013-04-24T15:40:07Z</time>
      </trkpt>
      <trkpt lat="59.9565425" lon="17.6903469">
        <ele>35.7061</ele>
        <time>2013-04-24T15:40:08Z</time>
      </trkpt>
      <trkpt lat="59.9565103" lon="17.6902598">
        <ele>36.1868</ele>
        <time>2013-04-24T15:40:09Z</time>
      </trkpt>
      <trkpt lat="59.9564792" lon="17.6901667">
        <ele>36.1868</ele>
        <time>2013-04-24T15:40:10Z</time>
      </trkpt>
      <trkpt lat="59.9564489" lon="17.6900719">
        <ele>36.6675</ele>
        <time>2013-04-24T15:40:11Z</time>
      </trkpt>
      <trkpt lat="59.9564195" lon="17.6899756">
        <ele>37.1481</ele>
        <time>2013-04-24T15:40:12Z</time>
      </trkpt>
      <trkpt lat="59.9563892" lon="17.6898734">
        <ele>37.1481</ele>
        <time>2013-04-24T15:40:13Z</time>
      </trkpt>
      <trkpt lat="59.9563623" lon="17.6897762">
        <ele>37.1481</ele>
        <time>2013-04-24T15:40:14Z</time>
      </trkpt>
      <trkpt lat="59.9563401" lon="17.6896735">
        <ele>37.1481</ele>
        <time>2013-04-24T15:40:15Z</time>
      </trkpt>
      <trkpt lat="59.9563172" lon="17.6895651">
        <ele>37.1481</ele>
        <time>2013-04-24T15:40:16Z</time>
      </trkpt>
      <trkpt lat="59.9562938" lon="17.6894568">
        <ele>37.1481</ele>
        <time>2013-04-24T15:40:17Z</time>
      </trkpt>
      <trkpt lat="59.9562663" lon="17.6893441">
        <ele>37.1481</ele>
        <time>2013-04-24T15:40:18Z</time>
      </trkpt>
      <trkpt lat="59.9562384" lon="17.6892286">
        <ele>37.1481</ele>
        <time>2013-04-24T15:40:19Z</time>
      </trkpt>
      <trkpt lat="59.9562147" lon="17.6891141">
        <ele>37.1481</ele>
        <time>2013-04-24T15:40:20Z</time>
      </trkpt>
      <trkpt lat="59.9561903" lon="17.6889991">
        <ele>37.1481</ele>
        <time>2013-04-24T15:40:21Z</time>
      </trkpt>
      <trkpt lat="59.9561645" lon="17.6888818">
        <ele>37.1481</ele>
        <time>2013-04-24T15:40:22Z</time>
      </trkpt>
      <trkpt lat="59.9561399" lon="17.6887603">
        <ele>36.6675</ele>
        <time>2013-04-24T15:40:23Z</time>
      </trkpt>
      <trkpt lat="59.9561151" lon="17.688633">
        <ele>36.1868</ele>
        <time>2013-04-24T15:40:24Z</time>
      </trkpt>
      <trkpt lat="59.9560922" lon="17.6885052">
        <ele>36.1868</ele>
        <time>2013-04-24T15:40:25Z</time>
      </trkpt>
      <trkpt lat="59.9560683" lon="17.6883753">
        <ele>36.1868</ele>
        <time>2013-04-24T15:40:26Z</time>
      </trkpt>
      <trkpt lat="59.9560446" lon="17.6882462">
        <ele>35.7061</ele>
        <time>2013-04-24T15:40:27Z</time>
      </trkpt>
      <trkpt lat="59.9560217" lon="17.6881154">
        <ele>35.7061</ele>
        <time>2013-04-24T15:40:28Z</time>
      </trkpt>
      <trkpt lat="59.9560017" lon="17.6879836">
        <ele>35.7061</ele>
        <time>2013-04-24T15:40:29Z</time>
      </trkpt>
      <trkpt lat="59.955982" lon="17.6878515">
        <ele>35.7061</ele>
        <time>2013-04-24T15:40:30Z</time>
      </trkpt>
      <trkpt lat="59.9559591" lon="17.6877213">
        <ele>35.7061</ele>
        <time>2013-04-24T15:40:31Z</time>
      </trkpt>
      <trkpt lat="59.9559354" lon="17.6875937">
        <ele>35.2255</ele>
        <time>2013-04-24T15:40:32Z</time>
      </trkpt>
      <trkpt lat="59.9559151" lon="17.6874671">
        <ele>35.2255</ele>
        <time>2013-04-24T15:40:33Z</time>
      </trkpt>
      <trkpt lat="59.9558976" lon="17.6873425">
        <ele>35.2255</ele>
        <time>2013-04-24T15:40:34Z</time>
      </trkpt>
      <trkpt lat="59.9558836" lon="17.6872185">
        <ele>34.7449</ele>
        <time>2013-04-24T15:40:35Z</time>
      </trkpt>
      <trkpt lat="59.9558691" lon="17.6870942">
        <ele>34.7449</ele>
        <time>2013-04-24T15:40:36Z</time>
      </trkpt>
      <trkpt lat="59.9558537" lon="17.6869709">
        <ele>34.7449</ele>
        <time>2013-04-24T15:40:37Z</time>
      </trkpt>
      <trkpt lat="59.9558375" lon="17.6868492">
        <ele>34.7449</ele>
        <time>2013-04-24T15:40:38Z</time>
      </trkpt>
      <trkpt lat="59.9558205" lon="17.6867272">
        <ele>34.2642</ele>
        <time>2013-04-24T15:40:39Z</time>
      </trkpt>
      <trkpt lat="59.9558033" lon="17.6866029">
        <ele>34.2642</ele>
        <time>2013-04-24T15:40:40Z</time>
      </trkpt>
      <trkpt lat="59.9557865" lon="17.6864808">
        <ele>34.2642</ele>
        <time>2013-04-24T15:40:41Z</time>
      </trkpt>
      <trkpt lat="59.9557701" lon="17.6863588">
        <ele>34.2642</ele>
        <time>2013-04-24T15:40:42Z</time>
      </trkpt>
      <trkpt lat="59.9557541" lon="17.6862377">
        <ele>33.7834</ele>
        <time>2013-04-24T15:40:43Z</time>
      </trkpt>
      <trkpt lat="59.955738" lon="17.6861183">
        <ele>33.7834</ele>
        <time>2013-04-24T15:40:44Z</time>
      </trkpt>
      <trkpt lat="59.955722" lon="17.6860014">
        <ele>33.7834</ele>
        <time>2013-04-24T15:40:45Z</time>
      </trkpt>
      <trkpt lat="59.9557068" lon="17.6858864">
        <ele>33.7834</ele>
        <time>2013-04-24T15:40:46Z</time>
      </trkpt>
      <trkpt lat="59.9556918" lon="17.6857739">
        <ele>33.3029</ele>
        <time>2013-04-24T15:40:47Z</time>
      </trkpt>
      <trkpt lat="59.9556764" lon="17.6856632">
        <ele>33.3029</ele>
        <time>2013-04-24T15:40:48Z</time>
      </trkpt>
      <trkpt lat="59.9556613" lon="17.6855532">
        <ele>33.3029</ele>
        <time>2013-04-24T15:40:49Z</time>
      </trkpt>
      <trkpt lat="59.9556457" lon="17.6854441">
        <ele>33.3029</ele>
        <time>2013-04-24T15:40:50Z</time>
      </trkpt>
      <trkpt lat="59.9556303" lon="17.6853361">
        <ele>33.3029</ele>
        <time>2013-04-24T15:40:51Z</time>
      </trkpt>
      <trkpt lat="59.9556158" lon="17.6852284">
        <ele>33.3029</ele>
        <time>2013-04-24T15:40:52Z</time>
      </trkpt>
      <trkpt lat="59.9556003" lon="17.6851207">
        <ele>33.3029</ele>
        <time>2013-04-24T15:40:53Z</time>
      </trkpt>
      <trkpt lat="59.9555848" lon="17.6850128">
        <ele>33.3029</ele>
        <time>2013-04-24T15:40:54Z</time>
      </trkpt>
      <trkpt lat="59.9555698" lon="17.6849052">
        <ele>33.3029</ele>
        <time>2013-04-24T15:40:55Z</time>
      </trkpt>
      <trkpt lat="59.9555546" lon="17.6847986">
        <ele>33.3029</ele>
        <time>2013-04-24T15:40:56Z</time>
      </trkpt>
      <trkpt lat="59.9555382" lon="17.6846925">
        <ele>33.3029</ele>
        <time>2013-04-24T15:40:57Z</time>
      </trkpt>
      <trkpt lat="59.9555219" lon="17.6845867">
        <ele>33.3029</ele>
        <time>2013-04-24T15:40:58Z</time>
      </trkpt>
      <trkpt lat="59.9555052" lon="17.6844808">
        <ele>33.3029</ele>
        <time>2013-04-24T15:40:59Z</time>
      </trkpt>
      <trkpt lat="59.9554874" lon="17.6843739">
        <ele>33.3029</ele>
        <time>2013-04-24T15:41:00Z</time>
      </trkpt>
      <trkpt lat="59.9554687" lon="17.6842665">
        <ele>33.3029</ele>
        <time>2013-04-24T15:41:01Z</time>
      </trkpt>
      <trkpt lat="59.9554491" lon="17.6841596">
        <ele>33.3029</ele>
        <time>2013-04-24T15:41:02Z</time>
      </trkpt>
      <trkpt lat="59.9554288" lon="17.6840531">
        <ele>33.3029</ele>
        <time>2013-04-24T15:41:03Z</time>
      </trkpt>
      <trkpt lat="59.955408" lon="17.6839463">
        <ele>33.3029</ele>
        <time>2013-04-24T15:41:04Z</time>
      </trkpt>
      <trkpt lat="59.9553867" lon="17.6838388">
        <ele>33.3029</ele>
        <time>2013-04-24T15:41:05Z</time>
      </trkpt>
      <trkpt lat="59.955364" lon="17.6837321">
        <ele>33.3029</ele>
        <time>2013-04-24T15:41:06Z</time>
      </trkpt>
      <trkpt lat="59.9553416" lon="17.6836264">
        <ele>33.3029</ele>
        <time>2013-04-24T15:41:07Z</time>
      </trkpt>
      <trkpt lat="59.95532" lon="17.6835225">
        <ele>32.8223</ele>
        <time>2013-04-24T15:41:08Z</time>
      </trkpt>
      <trkpt lat="59.9552963" lon="17.6834199">
        <ele>32.8223</ele>
        <time>2013-04-24T15:41:09Z</time>
      </trkpt>
      <trkpt lat="59.9552725" lon="17.6833184">
        <ele>32.8223</ele>
        <time>2013-04-24T15:41:10Z</time>
      </trkpt>
      <trkpt lat="59.9552489" lon="17.6832172">
        <ele>32.8223</ele>
        <time>2013-04-24T15:41:11Z</time>
      </trkpt>
      <trkpt lat="59.9552231" lon="17.6831164">
        <ele>32.8223</ele>
        <time>2013-04-24T15:41:12Z</time>
      </trkpt>
      <trkpt lat="59.9551976" lon="17.6830161">
        <ele>32.8223</ele>
        <time>2013-04-24T15:41:13Z</time>
      </trkpt>
      <trkpt lat="59.9551722" lon="17.6829166">
        <ele>32.8223</ele>
        <time>2013-04-24T15:41:14Z</time>
      </trkpt>
      <trkpt lat="59.9551464" lon="17.6828181">
        <ele>32.8223</ele>
        <time>2013-04-24T15:41:15Z</time>
      </trkpt>
      <trkpt lat="59.95512" lon="17.6827208">
        <ele>32.8223</ele>
        <time>2013-04-24T15:41:16Z</time>
      </trkpt>
      <trkpt lat="59.9550936" lon="17.6826253">
        <ele>32.8223</ele>
        <time>2013-04-24T15:41:17Z</time>
      </trkpt>
      <trkpt lat="59.9550672" lon="17.6825315">
        <ele>32.3416</ele>
        <time>2013-04-24T15:41:18Z</time>
      </trkpt>
      <trkpt lat="59.9550396" lon="17.6824388">
        <ele>32.3416</ele>
        <time>2013-04-24T15:41:19Z</time>
      </trkpt>
      <trkpt lat="59.9550107" lon="17.6823483">
        <ele>32.3416</ele>
        <time>2013-04-24T15:41:20Z</time>
      </trkpt>
      <trkpt lat="59.9549815" lon="17.6822581">
        <ele>32.3416</ele>
        <time>2013-04-24T15:41:21Z</time>
      </trkpt>
      <trkpt lat="59.9549531" lon="17.6821691">
        <ele>32.3416</ele>
        <time>2013-04-24T15:41:22Z</time>
      </trkpt>
      <trkpt lat="59.9549228" lon="17.6820816">
        <ele>32.3416</ele>
        <time>2013-04-24T15:41:23Z</time>
      </trkpt>
      <trkpt lat="59.9548889" lon="17.6819966">
        <ele>31.8607</ele>
        <time>2013-04-24T15:41:24Z</time>
      </trkpt>
      <trkpt lat="59.9548503" lon="17.6819166">
        <ele>31.8607</ele>
        <time>2013-04-24T15:41:25Z</time>
      </trkpt>
      <trkpt lat="59.954807" lon="17.6818438">
        <ele>31.8607</ele>
        <time>2013-04-24T15:41:26Z</time>
      </trkpt>
      <trkpt lat="59.9547616" lon="17.6817726">
        <ele>31.3801</ele>
        <time>2013-04-24T15:41:27Z</time>
      </trkpt>
      <trkpt lat="59.9547174" lon="17.6816965">
        <ele>31.3801</ele>
        <time>2013-04-24T15:41:28Z</time>
      </trkpt>
      <trkpt lat="59.9546754" lon="17.6816139">
        <ele>31.3801</ele>
        <time>2013-04-24T15:41:29Z</time>
      </trkpt>
      <trkpt lat="59.954636" lon="17.6815251">
        <ele>30.8995</ele>
        <time>2013-04-24T15:41:30Z</time>
      </trkpt>
      <trkpt lat="59.9545996" lon="17.6814319">
        <ele>30.8995</ele>
        <time>2013-04-24T15:41:31Z</time>
      </trkpt>
      <trkpt lat="59.9545653" lon="17.6813372">
        <ele>30.8995</ele>
        <time>2013-04-24T15:41:32Z</time>
      </trkpt>
      <trkpt lat="59.9545295" lon="17.6812443">
        <ele>30.4188</ele>
        <time>2013-04-24T15:41:33Z</time>
      </trkpt>
      <trkpt lat="59.9544903" lon="17.6811581">
        <ele>30.4188</ele>
        <time>2013-04-24T15:41:34Z</time>
      </trkpt>
      <trkpt lat="59.9544451" lon="17.6810863">
        <ele>30.4188</ele>
        <time>2013-04-24T15:41:35Z</time>
      </trkpt>
      <trkpt lat="59.9543985" lon="17.6810269">
        <ele>30.4188</ele>
        <time>2013-04-24T15:41:36Z</time>
      </trkpt>
      <trkpt lat="59.9543581" lon="17.6809559">
        <ele>30.4188</ele>
        <time>2013-04-24T15:41:37Z</time>
      </trkpt>
      <trkpt lat="59.9543278" lon="17.6808669">
        <ele>30.8995</ele>
        <time>2013-04-24T15:41:38Z</time>
      </trkpt>
      <trkpt lat="59.9543004" lon="17.6807737">
        <ele>30.8995</ele>
        <time>2013-04-24T15:41:39Z</time>
      </trkpt>
      <trkpt lat="59.9542706" lon="17.6806828">
        <ele>30.8995</ele>
        <time>2013-04-24T15:41:40Z</time>
      </trkpt>
      <trkpt lat="59.9542409" lon="17.6805922">
        <ele>30.8995</ele>
        <time>2013-04-24T15:41:41Z</time>
      </trkpt>
      <trkpt lat="59.9542107" lon="17.680501">
        <ele>30.8995</ele>
        <time>2013-04-24T15:41:42Z</time>
      </trkpt>
      <trkpt lat="59.9541788" lon="17.6804114">
        <ele>31.3801</ele>
        <time>2013-04-24T15:41:43Z</time>
      </trkpt>
      <trkpt lat="59.9541471" lon="17.6803218">
        <ele>31.3801</ele>
        <time>2013-04-24T15:41:44Z</time>
      </trkpt>
      <trkpt lat="59.9541159" lon="17.6802323">
        <ele>31.3801</ele>
        <time>2013-04-24T15:41:45Z</time>
      </trkpt>
      <trkpt lat="59.9540851" lon="17.6801435">
        <ele>31.3801</ele>
        <time>2013-04-24T15:41:46Z</time>
      </trkpt>
      <trkpt lat="59.954055" lon="17.6800555">
        <ele>31.3801</ele>
        <time>2013-04-24T15:41:47Z</time>
      </trkpt>
      <trkpt lat="59.9540253" lon="17.6799691">
        <ele>31.3801</ele>
        <time>2013-04-24T15:41:48Z</time>
      </trkpt>
      <trkpt lat="59.9539968" lon="17.6798829">
        <ele>31.8607</ele>
        <time>2013-04-24T15:41:49Z</time>
      </trkpt>
      <trkpt lat="59.9539686" lon="17.6797967">
        <ele>31.8607</ele>
        <time>2013-04-24T15:41:50Z</time>
      </trkpt>
      <trkpt lat="59.95394" lon="17.6797125">
        <ele>31.8607</ele>
        <time>2013-04-24T15:41:51Z</time>
      </trkpt>
      <trkpt lat="59.9539118" lon="17.6796302">
        <ele>31.8607</ele>
        <time>2013-04-24T15:41:52Z</time>
      </trkpt>
      <trkpt lat="59.9538846" lon="17.6795493">
        <ele>31.8607</ele>
        <time>2013-04-24T15:41:53Z</time>
      </trkpt>
      <trkpt lat="59.9538582" lon="17.6794685">
        <ele>31.8607</ele>
        <time>2013-04-24T15:41:54Z</time>
      </trkpt>
      <trkpt lat="59.9538327" lon="17.6793869">
        <ele>31.8607</ele>
        <time>2013-04-24T15:41:55Z</time>
      </trkpt>
      <trkpt lat="59.9538073" lon="17.679304">
        <ele>32.3416</ele>
        <time>2013-04-24T15:41:56Z</time>
      </trkpt>
      <trkpt lat="59.9537813" lon="17.6792222">
        <ele>32.3416</ele>
        <time>2013-04-24T15:41:57Z</time>
      </trkpt>
      <trkpt lat="59.953754" lon="17.6791418">
        <ele>32.3416</ele>
        <time>2013-04-24T15:41:58Z</time>
      </trkpt>
      <trkpt lat="59.9537271" lon="17.6790626">
        <ele>32.3416</ele>
        <time>2013-04-24T15:41:59Z</time>
      </trkpt>
      <trkpt lat="59.9536997" lon="17.6789842">
        <ele>32.3416</ele>
        <time>2013-04-24T15:42:00Z</time>
      </trkpt>
      <trkpt lat="59.9536722" lon="17.6789051">
        <ele>32.3416</ele>
        <time>2013-04-24T15:42:01Z</time>
      </trkpt>
      <trkpt lat="59.9536452" lon="17.6788233">
        <ele>32.3416</ele>
        <time>2013-04-24T15:42:02Z</time>
      </trkpt>
      <trkpt lat="59.9536172" lon="17.6787414">
        <ele>32.3416</ele>
        <time>2013-04-24T15:42:03Z</time>
      </trkpt>
      <trkpt lat="59.9535892" lon="17.6786616">
        <ele>32.3416</ele>
        <time>2013-04-24T15:42:04Z</time>
      </trkpt>
      <trkpt lat="59.9535618" lon="17.6785804">
        <ele>32.3416</ele>
        <time>2013-04-24T15:42:05Z</time>
      </trkpt>
      <trkpt lat="59.9535361" lon="17.6785004">
        <ele>32.3416</ele>
        <time>2013-04-24T15:42:06Z</time>
      </trkpt>
      <trkpt lat="59.953509" lon="17.6784191">
        <ele>32.3416</ele>
        <time>2013-04-24T15:42:07Z</time>
      </trkpt>
      <trkpt lat="59.9534842" lon="17.6783388">
        <ele>32.3416</ele>
        <time>2013-04-24T15:42:08Z</time>
      </trkpt>
      <trkpt lat="59.9534586" lon="17.6782596">
        <ele>31.8607</ele>
        <time>2013-04-24T15:42:09Z</time>
      </trkpt>
      <trkpt lat="59.9534309" lon="17.6781815">
        <ele>31.8607</ele>
        <time>2013-04-24T15:42:10Z</time>
      </trkpt>
      <trkpt lat="59.9534016" lon="17.6781007">
        <ele>31.8607</ele>
        <time>2013-04-24T15:42:11Z</time>
      </trkpt>
      <trkpt lat="59.9533727" lon="17.6780189">
        <ele>31.8607</ele>
        <time>2013-04-24T15:42:12Z</time>
      </trkpt>
      <trkpt lat="59.9533431" lon="17.6779375">
        <ele>31.8607</ele>
        <time>2013-04-24T15:42:13Z</time>
      </trkpt>
      <trkpt lat="59.9533117" lon="17.6778599">
        <ele>31.8607</ele>
        <time>2013-04-24T15:42:14Z</time>
      </trkpt>
      <trkpt lat="59.9532801" lon="17.6777857">
        <ele>31.8607</ele>
        <time>2013-04-24T15:42:15Z</time>
      </trkpt>
      <trkpt lat="59.953249" lon="17.6777101">
        <ele>31.3801</ele>
        <time>2013-04-24T15:42:16Z</time>
      </trkpt>
      <trkpt lat="59.9532187" lon="17.6776302">
        <ele>31.3801</ele>
        <time>2013-04-24T15:42:17Z</time>
      </trkpt>
      <trkpt lat="59.9531884" lon="17.6775469">
        <ele>31.3801</ele>
        <time>2013-04-24T15:42:18Z</time>
      </trkpt>
      <trkpt lat="59.9531576" lon="17.6774623">
        <ele>31.3801</ele>
        <time>2013-04-24T15:42:19Z</time>
      </trkpt>
      <trkpt lat="59.953126" lon="17.677377">
        <ele>31.3801</ele>
        <time>2013-04-24T15:42:20Z</time>
      </trkpt>
      <trkpt lat="59.9530936" lon="17.6772901">
        <ele>31.3801</ele>
        <time>2013-04-24T15:42:21Z</time>
      </trkpt>
      <trkpt lat="59.9530611" lon="17.6772028">
        <ele>31.3801</ele>
        <time>2013-04-24T15:42:22Z</time>
      </trkpt>
      <trkpt lat="59.9530302" lon="17.6771168">
        <ele>31.3801</ele>
        <time>2013-04-24T15:42:23Z</time>
      </trkpt>
      <trkpt lat="59.9529981" lon="17.6770316">
        <ele>31.3801</ele>
        <time>2013-04-24T15:42:24Z</time>
      </trkpt>
      <trkpt lat="59.952966" lon="17.6769467">
        <ele>31.3801</ele>
        <time>2013-04-24T15:42:25Z</time>
      </trkpt>
      <trkpt lat="59.9529356" lon="17.6768604">
        <ele>31.8607</ele>
        <time>2013-04-24T15:42:26Z</time>
      </trkpt>
      <trkpt lat="59.9529061" lon="17.6767739">
        <ele>31.8607</ele>
        <time>2013-04-24T15:42:27Z</time>
      </trkpt>
      <trkpt lat="59.952876" lon="17.6766904">
        <ele>31.8607</ele>
        <time>2013-04-24T15:42:28Z</time>
      </trkpt>
      <trkpt lat="59.952845" lon="17.6766108">
        <ele>31.8607</ele>
        <time>2013-04-24T15:42:29Z</time>
      </trkpt>
      <trkpt lat="59.9528133" lon="17.6765354">
        <ele>32.3416</ele>
        <time>2013-04-24T15:42:30Z</time>
      </trkpt>
      <trkpt lat="59.9527832" lon="17.67646">
        <ele>32.3416</ele>
        <time>2013-04-24T15:42:31Z</time>
      </trkpt>
      <trkpt lat="59.9527568" lon="17.6763824">
        <ele>32.8223</ele>
        <time>2013-04-24T15:42:32Z</time>
      </trkpt>
      <trkpt lat="59.9527325" lon="17.676303">
        <ele>32.8223</ele>
        <time>2013-04-24T15:42:33Z</time>
      </trkpt>
      <trkpt lat="59.9527073" lon="17.676225">
        <ele>32.8223</ele>
        <time>2013-04-24T15:42:34Z</time>
      </trkpt>
      <trkpt lat="59.9526811" lon="17.6761477">
        <ele>33.3029</ele>
        <time>2013-04-24T15:42:35Z</time>
      </trkpt>
      <trkpt lat="59.9526548" lon="17.6760701">
        <ele>33.3029</ele>
        <time>2013-04-24T15:42:36Z</time>
      </trkpt>
      <trkpt lat="59.9526272" lon="17.6759934">
        <ele>33.3029</ele>
        <time>2013-04-24T15:42:37Z</time>
      </trkpt>
      <trkpt lat="59.9525988" lon="17.6759188">
        <ele>33.7834</ele>
        <time>2013-04-24T15:42:38Z</time>
      </trkpt>
      <trkpt lat="59.9525714" lon="17.6758456">
        <ele>33.7834</ele>
        <time>2013-04-24T15:42:39Z</time>
      </trkpt>
      <trkpt lat="59.952544" lon="17.6757752">
        <ele>34.2642</ele>
        <time>2013-04-24T15:42:40Z</time>
      </trkpt>
      <trkpt lat="59.952516" lon="17.6757073">
        <ele>34.2642</ele>
        <time>2013-04-24T15:42:41Z</time>
      </trkpt>
      <trkpt lat="59.9524891" lon="17.6756401">
        <ele>34.7449</ele>
        <time>2013-04-24T15:42:42Z</time>
      </trkpt>
      <trkpt lat="59.952463" lon="17.6755742">
        <ele>34.7449</ele>
        <time>2013-04-24T15:42:43Z</time>
      </trkpt>
      <trkpt lat="59.9524378" lon="17.6755096">
        <ele>35.2255</ele>
        <time>2013-04-24T15:42:44Z</time>
      </trkpt>
      <trkpt lat="59.9524134" lon="17.6754446">
        <ele>35.2255</ele>
        <time>2013-04-24T15:42:45Z</time>
      </trkpt>
      <trkpt lat="59.9523886" lon="17.6753796">
        <ele>35.7061</ele>
        <time>2013-04-24T15:42:46Z</time>
      </trkpt>
      <trkpt lat="59.9523659" lon="17.6753125">
        <ele>35.7061</ele>
        <time>2013-04-24T15:42:47Z</time>
      </trkpt>
      <trkpt lat="59.9523461" lon="17.6752412">
        <ele>35.7061</ele>
        <time>2013-04-24T15:42:48Z</time>
      </trkpt>
      <trkpt lat="59.9523263" lon="17.6751693">
        <ele>36.1868</ele>
        <time>2013-04-24T15:42:49Z</time>
      </trkpt>
      <trkpt lat="59.9523067" lon="17.6750977">
        <ele>36.1868</ele>
        <time>2013-04-24T15:42:50Z</time>
      </trkpt>
      <trkpt lat="59.9522896" lon="17.6750216">
        <ele>36.1868</ele>
        <time>2013-04-24T15:42:51Z</time>
      </trkpt>
      <trkpt lat="59.952274" lon="17.6749396">
        <ele>36.1868</ele>
        <time>2013-04-24T15:42:52Z</time>
      </trkpt>
      <trkpt lat="59.9522574" lon="17.6748496">
        <ele>36.1868</ele>
        <time>2013-04-24T15:42:53Z</time>
      </trkpt>
      <trkpt lat="59.952241" lon="17.6747492">
        <ele>35.7061</ele>
        <time>2013-04-24T15:42:54Z</time>
      </trkpt>
      <trkpt lat="59.9522253" lon="17.6746409">
        <ele>35.2255</ele>
        <time>2013-04-24T15:42:55Z</time>
      </trkpt>
      <trkpt lat="59.9522073" lon="17.6745283">
        <ele>35.2255</ele>
        <time>2013-04-24T15:42:56Z</time>
      </trkpt>
      <trkpt lat="59.9521874" lon="17.6744167">
        <ele>35.2255</ele>
        <time>2013-04-24T15:42:57Z</time>
      </trkpt>
      <trkpt lat="59.9521657" lon="17.6743062">
        <ele>34.7449</ele>
        <time>2013-04-24T15:42:58Z</time>
      </trkpt>
      <trkpt lat="59.9521425" lon="17.6741938">
        <ele>34.7449</ele>
        <time>2013-04-24T15:42:59Z</time>
      </trkpt>
      <trkpt lat="59.9521191" lon="17.6740792">
        <ele>34.2642</ele>
        <time>2013-04-24T15:43:00Z</time>
      </trkpt>
      <trkpt lat="59.9520958" lon="17.6739613">
        <ele>34.2642</ele>
        <time>2013-04-24T15:43:01Z</time>
      </trkpt>
      <trkpt lat="59.9520726" lon="17.6738389">
        <ele>33.7834</ele>
        <time>2013-04-24T15:43:02Z</time>
      </trkpt>
      <trkpt lat="59.9520497" lon="17.6737145">
        <ele>33.7834</ele>
        <time>2013-04-24T15:43:03Z</time>
      </trkpt>
      <trkpt lat="59.9520286" lon="17.6735879">
        <ele>33.3029</ele>
        <time>2013-04-24T15:43:04Z</time>
      </trkpt>
      <trkpt lat="59.9520084" lon="17.6734602">
        <ele>33.3029</ele>
        <time>2013-04-24T15:43:05Z</time>
      </trkpt>
      <trkpt lat="59.9519876" lon="17.6733324">
        <ele>33.3029</ele>
        <time>2013-04-24T15:43:06Z</time>
      </trkpt>
      <trkpt lat="59.9519665" lon="17.673205">
        <ele>32.8223</ele>
        <time>2013-04-24T15:43:07Z</time>
      </trkpt>
      <trkpt lat="59.9519461" lon="17.6730785">
        <ele>32.8223</ele>
        <time>2013-04-24T15:43:08Z</time>
      </trkpt>
      <trkpt lat="59.9519258" lon="17.6729525">
        <ele>32.8223</ele>
        <time>2013-04-24T15:43:09Z</time>
      </trkpt>
      <trkpt lat="59.9519079" lon="17.6728262">
        <ele>32.8223</ele>
        <time>2013-04-24T15:43:10Z</time>
      </trkpt>
      <trkpt lat="59.9518924" lon="17.6726983">
        <ele>32.3416</ele>
        <time>2013-04-24T15:43:11Z</time>
      </trkpt>
      <trkpt lat="59.9518777" lon="17.6725672">
        <ele>32.3416</ele>
        <time>2013-04-24T15:43:12Z</time>
      </trkpt>
      <trkpt lat="59.9518632" lon="17.6724335">
        <ele>31.8607</ele>
        <time>2013-04-24T15:43:13Z</time>
      </trkpt>
      <trkpt lat="59.9518491" lon="17.6722984">
        <ele>31.8607</ele>
        <time>2013-04-24T15:43:14Z</time>
      </trkpt>
      <trkpt lat="59.9518365" lon="17.6721627">
        <ele>31.3801</ele>
        <time>2013-04-24T15:43:15Z</time>
      </trkpt>
      <trkpt lat="59.9518276" lon="17.6720273">
        <ele>31.3801</ele>
        <time>2013-04-24T15:43:16Z</time>
      </trkpt>
      <trkpt lat="59.9518219" lon="17.6718932">
        <ele>31.3801</ele>
        <time>2013-04-24T15:43:17Z</time>
      </trkpt>
      <trkpt lat="59.9518172" lon="17.6717598">
        <ele>31.3801</ele>
        <time>2013-04-24T15:43:18Z</time>
      </trkpt>
      <trkpt lat="59.9518136" lon="17.6716249">
        <ele>31.3801</ele>
        <time>2013-04-24T15:43:19Z</time>
      </trkpt>
      <trkpt lat="59.9518085" lon="17.6714867">
        <ele>30.8995</ele>
        <time>2013-04-24T15:43:20Z</time>
      </trkpt>
      <trkpt lat="59.9517958" lon="17.6713492">
        <ele>30.8995</ele>
        <time>2013-04-24T15:43:21Z</time>
      </trkpt>
      <trkpt lat="59.9517715" lon="17.6712135">
        <ele>30.4188</ele>
        <time>2013-04-24T15:43:22Z</time>
      </trkpt>
      <trkpt lat="59.9517427" lon="17.6710723">
        <ele>29.9381</ele>
        <time>2013-04-24T15:43:23Z</time>
      </trkpt>
      <trkpt lat="59.9517261" lon="17.6709198">
        <ele>29.9381</ele>
        <time>2013-04-24T15:43:24Z</time>
      </trkpt>
      <trkpt lat="59.9517274" lon="17.6707625">
        <ele>29.4575</ele>
        <time>2013-04-24T15:43:25Z</time>
      </trkpt>
      <trkpt lat="59.9517395" lon="17.6705947">
        <ele>29.4575</ele>
        <time>2013-04-24T15:43:26Z</time>
      </trkpt>
      <trkpt lat="59.9517517" lon="17.6704392">
        <ele>28.9769</ele>
        <time>2013-04-24T15:43:27Z</time>
      </trkpt>
      <trkpt lat="59.9517623" lon="17.6702874">
        <ele>28.9769</ele>
        <time>2013-04-24T15:43:28Z</time>
      </trkpt>
      <trkpt lat="59.9517702" lon="17.6701378">
        <ele>28.9769</ele>
        <time>2013-04-24T15:43:29Z</time>
      </trkpt>
      <trkpt lat="59.9517784" lon="17.6699908">
        <ele>28.4962</ele>
        <time>2013-04-24T15:43:30Z</time>
      </trkpt>
      <trkpt lat="59.951786" lon="17.6698463">
        <ele>28.4962</ele>
        <time>2013-04-24T15:43:31Z</time>
      </trkpt>
      <trkpt lat="59.9517921" lon="17.6697036">
        <ele>28.4962</ele>
        <time>2013-04-24T15:43:32Z</time>
      </trkpt>
      <trkpt lat="59.951798" lon="17.6695629">
        <ele>28.0155</ele>
        <time>2013-04-24T15:43:33Z</time>
      </trkpt>
      <trkpt lat="59.951803" lon="17.6694245">
        <ele>28.4962</ele>
        <time>2013-04-24T15:43:34Z</time>
      </trkpt>
      <trkpt lat="59.951807" lon="17.6692874">
        <ele>28.4962</ele>
        <time>2013-04-24T15:43:35Z</time>
      </trkpt>
      <trkpt lat="59.9518109" lon="17.6691536">
        <ele>28.4962</ele>
        <time>2013-04-24T15:43:36Z</time>
      </trkpt>
      <trkpt lat="59.9518135" lon="17.6690204">
        <ele>28.4962</ele>
        <time>2013-04-24T15:43:37Z</time>
      </trkpt>
      <trkpt lat="59.9518089" lon="17.6688857">
        <ele>28.0155</ele>
        <time>2013-04-24T15:43:38Z</time>
      </trkpt>
      <trkpt lat="59.9517949" lon="17.6687501">
        <ele>28.0155</ele>
        <time>2013-04-24T15:43:39Z</time>
      </trkpt>
      <trkpt lat="59.9517732" lon="17.6686153">
        <ele>28.0155</ele>
        <time>2013-04-24T15:43:40Z</time>
      </trkpt>
      <trkpt lat="59.9517455" lon="17.6684831">
        <ele>27.5349</ele>
        <time>2013-04-24T15:43:41Z</time>
      </trkpt>
      <trkpt lat="59.9517126" lon="17.6683573">
        <ele>27.5349</ele>
        <time>2013-04-24T15:43:42Z</time>
      </trkpt>
      <trkpt lat="59.9516712" lon="17.6682423">
        <ele>27.5349</ele>
        <time>2013-04-24T15:43:43Z</time>
      </trkpt>
      <trkpt lat="59.9516197" lon="17.6681528">
        <ele>27.5349</ele>
        <time>2013-04-24T15:43:44Z</time>
      </trkpt>
      <trkpt lat="59.9515577" lon="17.6680987">
        <ele>27.5349</ele>
        <time>2013-04-24T15:43:45Z</time>
      </trkpt>
      <trkpt lat="59.9514917" lon="17.6680788">
        <ele>27.5349</ele>
        <time>2013-04-24T15:43:46Z</time>
      </trkpt>
      <trkpt lat="59.9514252" lon="17.6680821">
        <ele>27.5349</ele>
        <time>2013-04-24T15:43:47Z</time>
      </trkpt>
      <trkpt lat="59.9513593" lon="17.6680942">
        <ele>27.5349</ele>
        <time>2013-04-24T15:43:48Z</time>
      </trkpt>
      <trkpt lat="59.9512945" lon="17.6681104">
        <ele>27.5349</ele>
        <time>2013-04-24T15:43:49Z</time>
      </trkpt>
      <trkpt lat="59.9512297" lon="17.6681283">
        <ele>27.5349</ele>
        <time>2013-04-24T15:43:50Z</time>
      </trkpt>
      <trkpt lat="59.9511665" lon="17.6681457">
        <ele>27.5349</ele>
        <time>2013-04-24T15:43:51Z</time>
      </trkpt>
      <trkpt lat="59.951105" lon="17.6681647">
        <ele>27.5349</ele>
        <time>2013-04-24T15:43:52Z</time>
      </trkpt>
      <trkpt lat="59.9510445" lon="17.6681839">
        <ele>27.5349</ele>
        <time>2013-04-24T15:43:53Z</time>
      </trkpt>
      <trkpt lat="59.9509849" lon="17.6682009">
        <ele>27.5349</ele>
        <time>2013-04-24T15:43:54Z</time>
      </trkpt>
      <trkpt lat="59.9509272" lon="17.6682171">
        <ele>28.0155</ele>
        <time>2013-04-24T15:43:55Z</time>
      </trkpt>
      <trkpt lat="59.9508703" lon="17.6682351">
        <ele>28.0155</ele>
        <time>2013-04-24T15:43:56Z</time>
      </trkpt>
      <trkpt lat="59.9508141" lon="17.6682515">
        <ele>28.0155</ele>
        <time>2013-04-24T15:43:57Z</time>
      </trkpt>
      <trkpt lat="59.9507583" lon="17.6682657">
        <ele>28.0155</ele>
        <time>2013-04-24T15:43:58Z</time>
      </trkpt>
      <trkpt lat="59.9507024" lon="17.6682781">
        <ele>28.0155</ele>
        <time>2013-04-24T15:43:59Z</time>
      </trkpt>
      <trkpt lat="59.9506461" lon="17.6682869">
        <ele>28.4962</ele>
        <time>2013-04-24T15:44:00Z</time>
      </trkpt>
      <trkpt lat="59.95059" lon="17.6682916">
        <ele>28.4962</ele>
        <time>2013-04-24T15:44:01Z</time>
      </trkpt>
      <trkpt lat="59.9505336" lon="17.6682935">
        <ele>28.4962</ele>
        <time>2013-04-24T15:44:02Z</time>
      </trkpt>
      <trkpt lat="59.9504766" lon="17.6682922">
        <ele>28.4962</ele>
        <time>2013-04-24T15:44:03Z</time>
      </trkpt>
      <trkpt lat="59.9504191" lon="17.6682902">
        <ele>28.4962</ele>
        <time>2013-04-24T15:44:04Z</time>
      </trkpt>
      <trkpt lat="59.95036" lon="17.6682896">
        <ele>28.4962</ele>
        <time>2013-04-24T15:44:05Z</time>
      </trkpt>
      <trkpt lat="59.9503011" lon="17.6682865">
        <ele>28.0155</ele>
        <time>2013-04-24T15:44:06Z</time>
      </trkpt>
      <trkpt lat="59.950243" lon="17.6682783">
        <ele>28.0155</ele>
        <time>2013-04-24T15:44:07Z</time>
      </trkpt>
      <trkpt lat="59.9501858" lon="17.6682646">
        <ele>28.0155</ele>
        <time>2013-04-24T15:44:08Z</time>
      </trkpt>
      <trkpt lat="59.9501293" lon="17.6682491">
        <ele>28.0155</ele>
        <time>2013-04-24T15:44:09Z</time>
      </trkpt>
      <trkpt lat="59.9500736" lon="17.6682331">
        <ele>28.0155</ele>
        <time>2013-04-24T15:44:10Z</time>
      </trkpt>
      <trkpt lat="59.9500185" lon="17.6682164">
        <ele>28.0155</ele>
        <time>2013-04-24T15:44:11Z</time>
      </trkpt>
      <trkpt lat="59.9499632" lon="17.668198">
        <ele>28.0155</ele>
        <time>2013-04-24T15:44:12Z</time>
      </trkpt>
      <trkpt lat="59.9499073" lon="17.6681783">
        <ele>27.5349</ele>
        <time>2013-04-24T15:44:13Z</time>
      </trkpt>
      <trkpt lat="59.9498509" lon="17.6681567">
        <ele>27.5349</ele>
        <time>2013-04-24T15:44:14Z</time>
      </trkpt>
      <trkpt lat="59.9497945" lon="17.6681312">
        <ele>27.5349</ele>
        <time>2013-04-24T15:44:15Z</time>
      </trkpt>
      <trkpt lat="59.9497379" lon="17.6681037">
        <ele>27.5349</ele>
        <time>2013-04-24T15:44:16Z</time>
      </trkpt>
      <trkpt lat="59.9496813" lon="17.6680754">
        <ele>27.5349</ele>
        <time>2013-04-24T15:44:17Z</time>
      </trkpt>
      <trkpt lat="59.9496249" lon="17.668046">
        <ele>27.5349</ele>
        <time>2013-04-24T15:44:18Z</time>
      </trkpt>
      <trkpt lat="59.9495685" lon="17.6680154">
        <ele>27.5349</ele>
        <time>2013-04-24T15:44:19Z</time>
      </trkpt>
      <trkpt lat="59.9495121" lon="17.6679875">
        <ele>27.5349</ele>
        <time>2013-04-24T15:44:20Z</time>
      </trkpt>
      <trkpt lat="59.9494561" lon="17.6679601">
        <ele>27.5349</ele>
        <time>2013-04-24T15:44:21Z</time>
      </trkpt>
      <trkpt lat="59.9494012" lon="17.6679301">
        <ele>27.5349</ele>
        <time>2013-04-24T15:44:22Z</time>
      </trkpt>
      <trkpt lat="59.9493466" lon="17.6678991">
        <ele>27.5349</ele>
        <time>2013-04-24T15:44:23Z</time>
      </trkpt>
      <trkpt lat="59.949292" lon="17.6678679">
        <ele>27.5349</ele>
        <time>2013-04-24T15:44:24Z</time>
      </trkpt>
      <trkpt lat="59.9492385" lon="17.6678353">
        <ele>28.0155</ele>
        <time>2013-04-24T15:44:25Z</time>
      </trkpt>
      <trkpt lat="59.949185" lon="17.6678026">
        <ele>28.0155</ele>
        <time>2013-04-24T15:44:26Z</time>
      </trkpt>
      <trkpt lat="59.9491314" lon="17.6677695">
        <ele>28.0155</ele>
        <time>2013-04-24T15:44:27Z</time>
      </trkpt>
      <trkpt lat="59.9490779" lon="17.6677373">
        <ele>28.4962</ele>
        <time>2013-04-24T15:44:28Z</time>
      </trkpt>
      <trkpt lat="59.9490241" lon="17.6677071">
        <ele>28.4962</ele>
        <time>2013-04-24T15:44:29Z</time>
      </trkpt>
      <trkpt lat="59.9489706" lon="17.6676793">
        <ele>28.4962</ele>
        <time>2013-04-24T15:44:30Z</time>
      </trkpt>
      <trkpt lat="59.9489172" lon="17.6676535">
        <ele>28.4962</ele>
        <time>2013-04-24T15:44:31Z</time>
      </trkpt>
      <trkpt lat="59.9488639" lon="17.6676238">
        <ele>28.9769</ele>
        <time>2013-04-24T15:44:32Z</time>
      </trkpt>
      <trkpt lat="59.9488107" lon="17.6675887">
        <ele>28.9769</ele>
        <time>2013-04-24T15:44:33Z</time>
      </trkpt>
      <trkpt lat="59.9487573" lon="17.6675535">
        <ele>28.9769</ele>
        <time>2013-04-24T15:44:34Z</time>
      </trkpt>
      <trkpt lat="59.948703" lon="17.6675203">
        <ele>28.9769</ele>
        <time>2013-04-24T15:44:35Z</time>
      </trkpt>
      <trkpt lat="59.9486485" lon="17.6674902">
        <ele>28.9769</ele>
        <time>2013-04-24T15:44:36Z</time>
      </trkpt>
      <trkpt lat="59.9485941" lon="17.6674593">
        <ele>28.9769</ele>
        <time>2013-04-24T15:44:37Z</time>
      </trkpt>
      <trkpt lat="59.9485398" lon="17.6674258">
        <ele>29.4575</ele>
        <time>2013-04-24T15:44:38Z</time>
      </trkpt>
      <trkpt lat="59.9484847" lon="17.6673948">
        <ele>29.4575</ele>
        <time>2013-04-24T15:44:39Z</time>
      </trkpt>
      <trkpt lat="59.9484289" lon="17.667368">
        <ele>29.4575</ele>
        <time>2013-04-24T15:44:40Z</time>
      </trkpt>
      <trkpt lat="59.9483736" lon="17.6673394">
        <ele>29.9381</ele>
        <time>2013-04-24T15:44:41Z</time>
      </trkpt>
      <trkpt lat="59.9483189" lon="17.6673053">
        <ele>29.9381</ele>
        <time>2013-04-24T15:44:42Z</time>
      </trkpt>
      <trkpt lat="59.948264" lon="17.6672712">
        <ele>29.9381</ele>
        <time>2013-04-24T15:44:43Z</time>
      </trkpt>
      <trkpt lat="59.9482094" lon="17.6672371">
        <ele>29.9381</ele>
        <time>2013-04-24T15:44:44Z</time>
      </trkpt>
      <trkpt lat="59.9481554" lon="17.6672059">
        <ele>29.9381</ele>
        <time>2013-04-24T15:44:45Z</time>
      </trkpt>
      <trkpt lat="59.9481011" lon="17.6671767">
        <ele>30.4188</ele>
        <time>2013-04-24T15:44:46Z</time>
      </trkpt>
      <trkpt lat="59.9480476" lon="17.6671473">
        <ele>30.4188</ele>
        <time>2013-04-24T15:44:47Z</time>
      </trkpt>
      <trkpt lat="59.9479942" lon="17.6671199">
        <ele>30.4188</ele>
        <time>2013-04-24T15:44:48Z</time>
      </trkpt>
      <trkpt lat="59.9479409" lon="17.6670918">
        <ele>30.4188</ele>
        <time>2013-04-24T15:44:49Z</time>
      </trkpt>
      <trkpt lat="59.9478876" lon="17.6670628">
        <ele>30.4188</ele>
        <time>2013-04-24T15:44:50Z</time>
      </trkpt>
      <trkpt lat="59.9478337" lon="17.667034">
        <ele>30.8995</ele>
        <time>2013-04-24T15:44:51Z</time>
      </trkpt>
      <trkpt lat="59.9477791" lon="17.6670043">
        <ele>30.8995</ele>
        <time>2013-04-24T15:44:52Z</time>
      </trkpt>
      <trkpt lat="59.9477234" lon="17.6669759">
        <ele>30.8995</ele>
        <time>2013-04-24T15:44:53Z</time>
      </trkpt>
      <trkpt lat="59.9476667" lon="17.6669501">
        <ele>30.8995</ele>
        <time>2013-04-24T15:44:54Z</time>
      </trkpt>
      <trkpt lat="59.9476094" lon="17.666923">
        <ele>31.3801</ele>
        <time>2013-04-24T15:44:55Z</time>
      </trkpt>
      <trkpt lat="59.9475514" lon="17.6668939">
        <ele>31.3801</ele>
        <time>2013-04-24T15:44:56Z</time>
      </trkpt>
      <trkpt lat="59.9474925" lon="17.6668659">
        <ele>31.3801</ele>
        <time>2013-04-24T15:44:57Z</time>
      </trkpt>
      <trkpt lat="59.9474328" lon="17.6668372">
        <ele>31.3801</ele>
        <time>2013-04-24T15:44:58Z</time>
      </trkpt>
      <trkpt lat="59.9473727" lon="17.6668075">
        <ele>31.3801</ele>
        <time>2013-04-24T15:44:59Z</time>
      </trkpt>
      <trkpt lat="59.9473132" lon="17.6667769">
        <ele>31.3801</ele>
        <time>2013-04-24T15:45:00Z</time>
      </trkpt>
      <trkpt lat="59.9472546" lon="17.6667467">
        <ele>31.3801</ele>
        <time>2013-04-24T15:45:01Z</time>
      </trkpt>
      <trkpt lat="59.9471964" lon="17.6667179">
        <ele>31.8607</ele>
        <time>2013-04-24T15:45:02Z</time>
      </trkpt>
      <trkpt lat="59.9471384" lon="17.6666905">
        <ele>31.8607</ele>
        <time>2013-04-24T15:45:03Z</time>
      </trkpt>
      <trkpt lat="59.947081" lon="17.6666635">
        <ele>31.8607</ele>
        <time>2013-04-24T15:45:04Z</time>
      </trkpt>
      <trkpt lat="59.9470246" lon="17.6666359">
        <ele>31.8607</ele>
        <time>2013-04-24T15:45:05Z</time>
      </trkpt>
      <trkpt lat="59.946969" lon="17.6666102">
        <ele>31.8607</ele>
        <time>2013-04-24T15:45:06Z</time>
      </trkpt>
      <trkpt lat="59.9469136" lon="17.6665867">
        <ele>31.8607</ele>
        <time>2013-04-24T15:45:07Z</time>
      </trkpt>
      <trkpt lat="59.9468583" lon="17.6665621">
        <ele>31.8607</ele>
        <time>2013-04-24T15:45:08Z</time>
      </trkpt>
      <trkpt lat="59.946803" lon="17.6665406">
        <ele>32.3416</ele>
        <time>2013-04-24T15:45:09Z</time>
      </trkpt>
      <trkpt lat="59.946748" lon="17.6665268">
        <ele>32.3416</ele>
        <time>2013-04-24T15:45:10Z</time>
      </trkpt>
      <trkpt lat="59.946693" lon="17.6665194">
        <ele>32.3416</ele>
        <time>2013-04-24T15:45:11Z</time>
      </trkpt>
      <trkpt lat="59.9466382" lon="17.6665159">
        <ele>32.3416</ele>
        <time>2013-04-24T15:45:12Z</time>
      </trkpt>
      <trkpt lat="59.9465834" lon="17.6665141">
        <ele>32.3416</ele>
        <time>2013-04-24T15:45:13Z</time>
      </trkpt>
      <trkpt lat="59.9465292" lon="17.6665087">
        <ele>32.3416</ele>
        <time>2013-04-24T15:45:14Z</time>
      </trkpt>
      <trkpt lat="59.9464755" lon="17.6664941">
        <ele>32.3416</ele>
        <time>2013-04-24T15:45:15Z</time>
      </trkpt>
      <trkpt lat="59.9464227" lon="17.6664688">
        <ele>32.3416</ele>
        <time>2013-04-24T15:45:16Z</time>
      </trkpt>
      <trkpt lat="59.9463707" lon="17.6664387">
        <ele>32.3416</ele>
        <time>2013-04-24T15:45:17Z</time>
      </trkpt>
      <trkpt lat="59.9463195" lon="17.6664055">
        <ele>32.3416</ele>
        <time>2013-04-24T15:45:18Z</time>
      </trkpt>
      <trkpt lat="59.9462688" lon="17.6663673">
        <ele>32.3416</ele>
        <time>2013-04-24T15:45:19Z</time>
      </trkpt>
      <trkpt lat="59.9462186" lon="17.6663315">
        <ele>32.3416</ele>
        <time>2013-04-24T15:45:20Z</time>
      </trkpt>
      <trkpt lat="59.9461682" lon="17.6663013">
        <ele>32.3416</ele>
        <time>2013-04-24T15:45:21Z</time>
      </trkpt>
      <trkpt lat="59.9461174" lon="17.6662754">
        <ele>32.3416</ele>
        <time>2013-04-24T15:45:22Z</time>
      </trkpt>
      <trkpt lat="59.9460657" lon="17.6662559">
        <ele>32.3416</ele>
        <time>2013-04-24T15:45:23Z</time>
      </trkpt>
      <trkpt lat="59.9460139" lon="17.6662408">
        <ele>32.3416</ele>
        <time>2013-04-24T15:45:24Z</time>
      </trkpt>
      <trkpt lat="59.9459626" lon="17.6662244">
        <ele>32.8223</ele>
        <time>2013-04-24T15:45:25Z</time>
      </trkpt>
      <trkpt lat="59.945912" lon="17.6662028">
        <ele>32.3416</ele>
        <time>2013-04-24T15:45:26Z</time>
      </trkpt>
      <trkpt lat="59.9458611" lon="17.6661792">
        <ele>32.3416</ele>
        <time>2013-04-24T15:45:27Z</time>
      </trkpt>
      <trkpt lat="59.9458083" lon="17.6661585">
        <ele>32.3416</ele>
        <time>2013-04-24T15:45:28Z</time>
      </trkpt>
      <trkpt lat="59.9457551" lon="17.6661384">
        <ele>32.3416</ele>
        <time>2013-04-24T15:45:29Z</time>
      </trkpt>
      <trkpt lat="59.9457015" lon="17.6661173">
        <ele>32.3416</ele>
        <time>2013-04-24T15:45:30Z</time>
      </trkpt>
      <trkpt lat="59.9456471" lon="17.6660961">
        <ele>32.3416</ele>
        <time>2013-04-24T15:45:31Z</time>
      </trkpt>
      <trkpt lat="59.9455918" lon="17.6660739">
        <ele>32.3416</ele>
        <time>2013-04-24T15:45:32Z</time>
      </trkpt>
      <trkpt lat="59.9455358" lon="17.6660513">
        <ele>32.3416</ele>
        <time>2013-04-24T15:45:33Z</time>
      </trkpt>
      <trkpt lat="59.9454789" lon="17.6660308">
        <ele>32.3416</ele>
        <time>2013-04-24T15:45:34Z</time>
      </trkpt>
      <trkpt lat="59.9454222" lon="17.6660123">
        <ele>32.3416</ele>
        <time>2013-04-24T15:45:35Z</time>
      </trkpt>
      <trkpt lat="59.9453654" lon="17.6659921">
        <ele>32.3416</ele>
        <time>2013-04-24T15:45:36Z</time>
      </trkpt>
      <trkpt lat="59.945309" lon="17.6659693">
        <ele>32.3416</ele>
        <time>2013-04-24T15:45:37Z</time>
      </trkpt>
      <trkpt lat="59.9452524" lon="17.6659469">
        <ele>32.3416</ele>
        <time>2013-04-24T15:45:38Z</time>
      </trkpt>
      <trkpt lat="59.9451951" lon="17.6659257">
        <ele>32.3416</ele>
        <time>2013-04-24T15:45:39Z</time>
      </trkpt>
      <trkpt lat="59.945138" lon="17.6659031">
        <ele>32.3416</ele>
        <time>2013-04-24T15:45:40Z</time>
      </trkpt>
      <trkpt lat="59.9450806" lon="17.6658793">
        <ele>32.3416</ele>
        <time>2013-04-24T15:45:41Z</time>
      </trkpt>
      <trkpt lat="59.945023" lon="17.665858">
        <ele>32.3416</ele>
        <time>2013-04-24T15:45:42Z</time>
      </trkpt>
      <trkpt lat="59.9449649" lon="17.6658388">
        <ele>32.3416</ele>
        <time>2013-04-24T15:45:43Z</time>
      </trkpt>
      <trkpt lat="59.9448505" lon="17.6657953">
        <ele>32.3416</ele>
        <time>2013-04-24T15:45:44Z</time>
      </trkpt>
      <trkpt lat="59.9447936" lon="17.6657739">
        <ele>32.3416</ele>
        <time>2013-04-24T15:45:45Z</time>
      </trkpt>
      <trkpt lat="59.9447371" lon="17.6657512">
        <ele>32.3416</ele>
        <time>2013-04-24T15:45:46Z</time>
      </trkpt>
      <trkpt lat="59.9446804" lon="17.6657276">
        <ele>32.3416</ele>
        <time>2013-04-24T15:45:47Z</time>
      </trkpt>
      <trkpt lat="59.9446236" lon="17.6657066">
        <ele>32.3416</ele>
        <time>2013-04-24T15:45:48Z</time>
      </trkpt>
      <trkpt lat="59.9445666" lon="17.6656865">
        <ele>32.8223</ele>
        <time>2013-04-24T15:45:49Z</time>
      </trkpt>
      <trkpt lat="59.944509" lon="17.6656643">
        <ele>32.8223</ele>
        <time>2013-04-24T15:45:50Z</time>
      </trkpt>
      <trkpt lat="59.9444514" lon="17.6656408">
        <ele>32.8223</ele>
        <time>2013-04-24T15:45:51Z</time>
      </trkpt>
      <trkpt lat="59.9443932" lon="17.6656175">
        <ele>32.8223</ele>
        <time>2013-04-24T15:45:52Z</time>
      </trkpt>
      <trkpt lat="59.9443344" lon="17.6655943">
        <ele>32.8223</ele>
        <time>2013-04-24T15:45:53Z</time>
      </trkpt>
      <trkpt lat="59.9442753" lon="17.6655695">
        <ele>32.8223</ele>
        <time>2013-04-24T15:45:54Z</time>
      </trkpt>
      <trkpt lat="59.9442159" lon="17.6655441">
        <ele>32.8223</ele>
        <time>2013-04-24T15:45:55Z</time>
      </trkpt>
      <trkpt lat="59.9441565" lon="17.6655185">
        <ele>32.8223</ele>
        <time>2013-04-24T15:45:56Z</time>
      </trkpt>
      <trkpt lat="59.9440976" lon="17.6654914">
        <ele>32.8223</ele>
        <time>2013-04-24T15:45:57Z</time>
      </trkpt>
      <trkpt lat="59.9440386" lon="17.6654626">
        <ele>32.8223</ele>
        <time>2013-04-24T15:45:58Z</time>
      </trkpt>
      <trkpt lat="59.9439798" lon="17.6654325">
        <ele>33.3029</ele>
        <time>2013-04-24T15:45:59Z</time>
      </trkpt>
      <trkpt lat="59.9439215" lon="17.6654026">
        <ele>33.3029</ele>
        <time>2013-04-24T15:46:00Z</time>
      </trkpt>
      <trkpt lat="59.9438635" lon="17.6653735">
        <ele>33.3029</ele>
        <time>2013-04-24T15:46:01Z</time>
      </trkpt>
      <trkpt lat="59.9438067" lon="17.6653406">
        <ele>33.3029</ele>
        <time>2013-04-24T15:46:02Z</time>
      </trkpt>
      <trkpt lat="59.9437511" lon="17.6653037">
        <ele>33.3029</ele>
        <time>2013-04-24T15:46:03Z</time>
      </trkpt>
      <trkpt lat="59.9436953" lon="17.6652665">
        <ele>33.3029</ele>
        <time>2013-04-24T15:46:04Z</time>
      </trkpt>
      <trkpt lat="59.9436394" lon="17.6652296">
        <ele>33.3029</ele>
        <time>2013-04-24T15:46:05Z</time>
      </trkpt>
      <trkpt lat="59.9435838" lon="17.6651934">
        <ele>33.7834</ele>
        <time>2013-04-24T15:46:06Z</time>
      </trkpt>
      <trkpt lat="59.9435289" lon="17.6651555">
        <ele>33.7834</ele>
        <time>2013-04-24T15:46:07Z</time>
      </trkpt>
      <trkpt lat="59.943475" lon="17.6651148">
        <ele>33.7834</ele>
        <time>2013-04-24T15:46:08Z</time>
      </trkpt>
      <trkpt lat="59.9434221" lon="17.6650728">
        <ele>33.7834</ele>
        <time>2013-04-24T15:46:09Z</time>
      </trkpt>
      <trkpt lat="59.9433694" lon="17.6650308">
        <ele>33.7834</ele>
        <time>2013-04-24T15:46:10Z</time>
      </trkpt>
      <trkpt lat="59.9433166" lon="17.6649909">
        <ele>33.7834</ele>
        <time>2013-04-24T15:46:11Z</time>
      </trkpt>
      <trkpt lat="59.9432654" lon="17.664952">
        <ele>34.2642</ele>
        <time>2013-04-24T15:46:12Z</time>
      </trkpt>
      <trkpt lat="59.943215" lon="17.664908">
        <ele>34.2642</ele>
        <time>2013-04-24T15:46:13Z</time>
      </trkpt>
      <trkpt lat="59.9431637" lon="17.6648596">
        <ele>34.2642</ele>
        <time>2013-04-24T15:46:14Z</time>
      </trkpt>
      <trkpt lat="59.9431106" lon="17.664811">
        <ele>34.2642</ele>
        <time>2013-04-24T15:46:15Z</time>
      </trkpt>
      <trkpt lat="59.9430567" lon="17.6647609">
        <ele>34.7449</ele>
        <time>2013-04-24T15:46:16Z</time>
      </trkpt>
      <trkpt lat="59.9430013" lon="17.6647076">
        <ele>34.7449</ele>
        <time>2013-04-24T15:46:17Z</time>
      </trkpt>
      <trkpt lat="59.9429447" lon="17.6646541">
        <ele>34.7449</ele>
        <time>2013-04-24T15:46:18Z</time>
      </trkpt>
      <trkpt lat="59.9428877" lon="17.6645992">
        <ele>35.2255</ele>
        <time>2013-04-24T15:46:19Z</time>
      </trkpt>
      <trkpt lat="59.9428303" lon="17.6645391">
        <ele>35.2255</ele>
        <time>2013-04-24T15:46:20Z</time>
      </trkpt>
      <trkpt lat="59.9427722" lon="17.6644766">
        <ele>35.2255</ele>
        <time>2013-04-24T15:46:21Z</time>
      </trkpt>
      <trkpt lat="59.9427132" lon="17.664412">
        <ele>35.2255</ele>
        <time>2013-04-24T15:46:22Z</time>
      </trkpt>
      <trkpt lat="59.9426566" lon="17.6643485">
        <ele>35.2255</ele>
        <time>2013-04-24T15:46:23Z</time>
      </trkpt>
      <trkpt lat="59.9426028" lon="17.6642859">
        <ele>35.7061</ele>
        <time>2013-04-24T15:46:24Z</time>
      </trkpt>
      <trkpt lat="59.9425516" lon="17.6642236">
        <ele>35.7061</ele>
        <time>2013-04-24T15:46:25Z</time>
      </trkpt>
      <trkpt lat="59.9425025" lon="17.6641627">
        <ele>35.7061</ele>
        <time>2013-04-24T15:46:26Z</time>
      </trkpt>
      <trkpt lat="59.942455" lon="17.6641031">
        <ele>35.7061</ele>
        <time>2013-04-24T15:46:27Z</time>
      </trkpt>
      <trkpt lat="59.9424085" lon="17.6640424">
        <ele>35.7061</ele>
        <time>2013-04-24T15:46:28Z</time>
      </trkpt>
      <trkpt lat="59.942363" lon="17.6639811">
        <ele>35.7061</ele>
        <time>2013-04-24T15:46:29Z</time>
      </trkpt>
      <trkpt lat="59.9423185" lon="17.6639206">
        <ele>35.7061</ele>
        <time>2013-04-24T15:46:30Z</time>
      </trkpt>
      <trkpt lat="59.9422747" lon="17.6638607">
        <ele>35.7061</ele>
        <time>2013-04-24T15:46:31Z</time>
      </trkpt>
      <trkpt lat="59.9422315" lon="17.6638">
        <ele>35.7061</ele>
        <time>2013-04-24T15:46:32Z</time>
      </trkpt>
      <trkpt lat="59.9421894" lon="17.6637383">
        <ele>35.7061</ele>
        <time>2013-04-24T15:46:33Z</time>
      </trkpt>
      <trkpt lat="59.9421478" lon="17.6636758">
        <ele>35.7061</ele>
        <time>2013-04-24T15:46:34Z</time>
      </trkpt>
      <trkpt lat="59.9421061" lon="17.6636128">
        <ele>35.7061</ele>
        <time>2013-04-24T15:46:35Z</time>
      </trkpt>
      <trkpt lat="59.9420646" lon="17.6635487">
        <ele>35.7061</ele>
        <time>2013-04-24T15:46:36Z</time>
      </trkpt>
      <trkpt lat="59.9420228" lon="17.6634844">
        <ele>35.7061</ele>
        <time>2013-04-24T15:46:37Z</time>
      </trkpt>
      <trkpt lat="59.9419817" lon="17.6634192">
        <ele>35.7061</ele>
        <time>2013-04-24T15:46:38Z</time>
      </trkpt>
      <trkpt lat="59.9419407" lon="17.6633536">
        <ele>36.1868</ele>
        <time>2013-04-24T15:46:39Z</time>
      </trkpt>
      <trkpt lat="59.9418997" lon="17.6632888">
        <ele>35.7061</ele>
        <time>2013-04-24T15:46:40Z</time>
      </trkpt>
      <trkpt lat="59.9418595" lon="17.6632224">
        <ele>35.7061</ele>
        <time>2013-04-24T15:46:41Z</time>
      </trkpt>
      <trkpt lat="59.9418201" lon="17.6631533">
        <ele>36.1868</ele>
        <time>2013-04-24T15:46:42Z</time>
      </trkpt>
      <trkpt lat="59.9417808" lon="17.663084">
        <ele>36.1868</ele>
        <time>2013-04-24T15:46:43Z</time>
      </trkpt>
      <trkpt lat="59.9417412" lon="17.663015">
        <ele>36.1868</ele>
        <time>2013-04-24T15:46:44Z</time>
      </trkpt>
      <trkpt lat="59.9417019" lon="17.6629437">
        <ele>36.1868</ele>
        <time>2013-04-24T15:46:45Z</time>
      </trkpt>
      <trkpt lat="59.9416633" lon="17.6628696">
        <ele>36.1868</ele>
        <time>2013-04-24T15:46:46Z</time>
      </trkpt>
      <trkpt lat="59.9416234" lon="17.6627966">
        <ele>35.7061</ele>
        <time>2013-04-24T15:46:47Z</time>
      </trkpt>
      <trkpt lat="59.9415823" lon="17.6627267">
        <ele>36.1868</ele>
        <time>2013-04-24T15:46:48Z</time>
      </trkpt>
      <trkpt lat="59.9415393" lon="17.6626602">
        <ele>35.7061</ele>
        <time>2013-04-24T15:46:49Z</time>
      </trkpt>
      <trkpt lat="59.9414949" lon="17.6625952">
        <ele>35.7061</ele>
        <time>2013-04-24T15:46:50Z</time>
      </trkpt>
      <trkpt lat="59.9414485" lon="17.6625309">
        <ele>35.7061</ele>
        <time>2013-04-24T15:46:51Z</time>
      </trkpt>
      <trkpt lat="59.941399" lon="17.6624696">
        <ele>35.7061</ele>
        <time>2013-04-24T15:46:52Z</time>
      </trkpt>
      <trkpt lat="59.9413472" lon="17.6624131">
        <ele>35.2255</ele>
        <time>2013-04-24T15:46:53Z</time>
      </trkpt>
      <trkpt lat="59.9412938" lon="17.6623619">
        <ele>35.2255</ele>
        <time>2013-04-24T15:46:54Z</time>
      </trkpt>
      <trkpt lat="59.9412389" lon="17.6623146">
        <ele>35.2255</ele>
        <time>2013-04-24T15:46:55Z</time>
      </trkpt>
      <trkpt lat="59.9411833" lon="17.6622708">
        <ele>35.2255</ele>
        <time>2013-04-24T15:46:56Z</time>
      </trkpt>
      <trkpt lat="59.9411263" lon="17.6622299">
        <ele>35.2255</ele>
        <time>2013-04-24T15:46:57Z</time>
      </trkpt>
      <trkpt lat="59.9410675" lon="17.6621946">
        <ele>35.2255</ele>
        <time>2013-04-24T15:46:58Z</time>
      </trkpt>
      <trkpt lat="59.9410077" lon="17.6621667">
        <ele>34.7449</ele>
        <time>2013-04-24T15:46:59Z</time>
      </trkpt>
      <trkpt lat="59.9409469" lon="17.6621449">
        <ele>34.7449</ele>
        <time>2013-04-24T15:47:00Z</time>
      </trkpt>
      <trkpt lat="59.9408858" lon="17.6621287">
        <ele>34.7449</ele>
        <time>2013-04-24T15:47:01Z</time>
      </trkpt>
      <trkpt lat="59.940825" lon="17.6621174">
        <ele>34.7449</ele>
        <time>2013-04-24T15:47:02Z</time>
      </trkpt>
      <trkpt lat="59.940764" lon="17.662107">
        <ele>34.7449</ele>
        <time>2013-04-24T15:47:03Z</time>
      </trkpt>
      <trkpt lat="59.9407029" lon="17.6620912">
        <ele>34.7449</ele>
        <time>2013-04-24T15:47:04Z</time>
      </trkpt>
      <trkpt lat="59.9406421" lon="17.66206">
        <ele>34.2642</ele>
        <time>2013-04-24T15:47:05Z</time>
      </trkpt>
      <trkpt lat="59.9405841" lon="17.6620061">
        <ele>34.2642</ele>
        <time>2013-04-24T15:47:06Z</time>
      </trkpt>
      <trkpt lat="59.9405308" lon="17.6619309">
        <ele>33.7834</ele>
        <time>2013-04-24T15:47:07Z</time>
      </trkpt>
      <trkpt lat="59.9404846" lon="17.6618351">
        <ele>33.3029</ele>
        <time>2013-04-24T15:47:08Z</time>
      </trkpt>
      <trkpt lat="59.940449" lon="17.6617189">
        <ele>33.3029</ele>
        <time>2013-04-24T15:47:09Z</time>
      </trkpt>
      <trkpt lat="59.9404251" lon="17.6615881">
        <ele>33.3029</ele>
        <time>2013-04-24T15:47:10Z</time>
      </trkpt>
      <trkpt lat="59.9404118" lon="17.6614499">
        <ele>33.3029</ele>
        <time>2013-04-24T15:47:11Z</time>
      </trkpt>
      <trkpt lat="59.940407" lon="17.6613113">
        <ele>33.3029</ele>
        <time>2013-04-24T15:47:12Z</time>
      </trkpt>
      <trkpt lat="59.940409" lon="17.6611721">
        <ele>33.3029</ele>
        <time>2013-04-24T15:47:13Z</time>
      </trkpt>
      <trkpt lat="59.9404193" lon="17.6610337">
        <ele>33.3029</ele>
        <time>2013-04-24T15:47:14Z</time>
      </trkpt>
      <trkpt lat="59.940441" lon="17.6609017">
        <ele>33.3029</ele>
        <time>2013-04-24T15:47:15Z</time>
      </trkpt>
      <trkpt lat="59.9404703" lon="17.6607805">
        <ele>33.7834</ele>
        <time>2013-04-24T15:47:16Z</time>
      </trkpt>
      <trkpt lat="59.9405004" lon="17.6606658">
        <ele>33.7834</ele>
        <time>2013-04-24T15:47:17Z</time>
      </trkpt>
      <trkpt lat="59.9405235" lon="17.6605478">
        <ele>34.2642</ele>
        <time>2013-04-24T15:47:18Z</time>
      </trkpt>
      <trkpt lat="59.940536" lon="17.6604288">
        <ele>34.7449</ele>
        <time>2013-04-24T15:47:19Z</time>
      </trkpt>
      <trkpt lat="59.9405369" lon="17.6603159">
        <ele>35.2255</ele>
        <time>2013-04-24T15:47:20Z</time>
      </trkpt>
      <trkpt lat="59.9405292" lon="17.6602121">
        <ele>35.2255</ele>
        <time>2013-04-24T15:47:21Z</time>
      </trkpt>
      <trkpt lat="59.9405148" lon="17.6601122">
        <ele>35.2255</ele>
        <time>2013-04-24T15:47:22Z</time>
      </trkpt>
      <trkpt lat="59.940491" lon="17.6600256">
        <ele>35.2255</ele>
        <time>2013-04-24T15:47:23Z</time>
      </trkpt>
      <trkpt lat="59.9404429" lon="17.6599696">
        <ele>35.7061</ele>
        <time>2013-04-24T15:47:24Z</time>
      </trkpt>
      <trkpt lat="59.940405" lon="17.6598857">
        <ele>35.7061</ele>
        <time>2013-04-24T15:47:25Z</time>
      </trkpt>
      <trkpt lat="59.9403873" lon="17.6597569">
        <ele>35.7061</ele>
        <time>2013-04-24T15:47:26Z</time>
      </trkpt>
      <trkpt lat="59.9403739" lon="17.6596259">
        <ele>36.1868</ele>
        <time>2013-04-24T15:47:27Z</time>
      </trkpt>
      <trkpt lat="59.9403512" lon="17.6594908">
        <ele>35.7061</ele>
        <time>2013-04-24T15:47:28Z</time>
      </trkpt>
      <trkpt lat="59.940335" lon="17.6593563">
        <ele>35.2255</ele>
        <time>2013-04-24T15:47:29Z</time>
      </trkpt>
      <trkpt lat="59.9403162" lon="17.6592197">
        <ele>34.7449</ele>
        <time>2013-04-24T15:47:30Z</time>
      </trkpt>
      <trkpt lat="59.9402934" lon="17.6590843">
        <ele>34.7449</ele>
        <time>2013-04-24T15:47:31Z</time>
      </trkpt>
      <trkpt lat="59.940268" lon="17.6589492">
        <ele>34.2642</ele>
        <time>2013-04-24T15:47:32Z</time>
      </trkpt>
      <trkpt lat="59.9402388" lon="17.6588146">
        <ele>34.2642</ele>
        <time>2013-04-24T15:47:33Z</time>
      </trkpt>
      <trkpt lat="59.940208" lon="17.6586818">
        <ele>34.2642</ele>
        <time>2013-04-24T15:47:34Z</time>
      </trkpt>
      <trkpt lat="59.9401769" lon="17.6585528">
        <ele>34.2642</ele>
        <time>2013-04-24T15:47:35Z</time>
      </trkpt>
      <trkpt lat="59.9401454" lon="17.6584278">
        <ele>34.2642</ele>
        <time>2013-04-24T15:47:36Z</time>
      </trkpt>
      <trkpt lat="59.9401159" lon="17.6583039">
        <ele>34.2642</ele>
        <time>2013-04-24T15:47:37Z</time>
      </trkpt>
      <trkpt lat="59.9400885" lon="17.6581804">
        <ele>34.2642</ele>
        <time>2013-04-24T15:47:38Z</time>
      </trkpt>
      <trkpt lat="59.9400621" lon="17.6580583">
        <ele>34.7449</ele>
        <time>2013-04-24T15:47:39Z</time>
      </trkpt>
      <trkpt lat="59.9400376" lon="17.6579418">
        <ele>34.7449</ele>
        <time>2013-04-24T15:47:40Z</time>
      </trkpt>
      <trkpt lat="59.9400124" lon="17.6578262">
        <ele>35.2255</ele>
        <time>2013-04-24T15:47:41Z</time>
      </trkpt>
      <trkpt lat="59.9399874" lon="17.6577121">
        <ele>35.2255</ele>
        <time>2013-04-24T15:47:42Z</time>
      </trkpt>
      <trkpt lat="59.9399631" lon="17.6575984">
        <ele>35.2255</ele>
        <time>2013-04-24T15:47:43Z</time>
      </trkpt>
      <trkpt lat="59.9399393" lon="17.6574849">
        <ele>35.7061</ele>
        <time>2013-04-24T15:47:44Z</time>
      </trkpt>
      <trkpt lat="59.9399164" lon="17.657372">
        <ele>35.7061</ele>
        <time>2013-04-24T15:47:45Z</time>
      </trkpt>
      <trkpt lat="59.939893" lon="17.6572618">
        <ele>36.1868</ele>
        <time>2013-04-24T15:47:46Z</time>
      </trkpt>
      <trkpt lat="59.9398691" lon="17.6571555">
        <ele>36.1868</ele>
        <time>2013-04-24T15:47:47Z</time>
      </trkpt>
      <trkpt lat="59.939846" lon="17.6570492">
        <ele>36.1868</ele>
        <time>2013-04-24T15:47:48Z</time>
      </trkpt>
      <trkpt lat="59.9398243" lon="17.6569384">
        <ele>36.1868</ele>
        <time>2013-04-24T15:47:49Z</time>
      </trkpt>
      <trkpt lat="59.9398025" lon="17.6568256">
        <ele>36.6675</ele>
        <time>2013-04-24T15:47:50Z</time>
      </trkpt>
      <trkpt lat="59.9397792" lon="17.6567134">
        <ele>36.6675</ele>
        <time>2013-04-24T15:47:51Z</time>
      </trkpt>
      <trkpt lat="59.9397557" lon="17.6565999">
        <ele>36.6675</ele>
        <time>2013-04-24T15:47:52Z</time>
      </trkpt>
      <trkpt lat="59.9397344" lon="17.6564819">
        <ele>37.1481</ele>
        <time>2013-04-24T15:47:53Z</time>
      </trkpt>
      <trkpt lat="59.9397117" lon="17.6563598">
        <ele>37.1481</ele>
        <time>2013-04-24T15:47:54Z</time>
      </trkpt>
      <trkpt lat="59.9396885" lon="17.6562399">
        <ele>37.6287</ele>
        <time>2013-04-24T15:47:55Z</time>
      </trkpt>
      <trkpt lat="59.9396653" lon="17.6561194">
        <ele>37.6287</ele>
        <time>2013-04-24T15:47:56Z</time>
      </trkpt>
      <trkpt lat="59.9396413" lon="17.655997">
        <ele>37.6287</ele>
        <time>2013-04-24T15:47:57Z</time>
      </trkpt>
      <trkpt lat="59.9396176" lon="17.6558783">
        <ele>38.1094</ele>
        <time>2013-04-24T15:47:58Z</time>
      </trkpt>
      <trkpt lat="59.939594" lon="17.6557668">
        <ele>38.1094</ele>
        <time>2013-04-24T15:47:59Z</time>
      </trkpt>
      <trkpt lat="59.9395707" lon="17.65566">
        <ele>38.1094</ele>
        <time>2013-04-24T15:48:00Z</time>
      </trkpt>
      <trkpt lat="59.9395501" lon="17.6555538">
        <ele>38.1094</ele>
        <time>2013-04-24T15:48:01Z</time>
      </trkpt>
      <trkpt lat="59.9395299" lon="17.6554495">
        <ele>38.1094</ele>
        <time>2013-04-24T15:48:02Z</time>
      </trkpt>
      <trkpt lat="59.9395083" lon="17.6553472">
        <ele>38.1094</ele>
        <time>2013-04-24T15:48:03Z</time>
      </trkpt>
      <trkpt lat="59.9394875" lon="17.6552455">
        <ele>38.1094</ele>
        <time>2013-04-24T15:48:04Z</time>
      </trkpt>
      <trkpt lat="59.9394664" lon="17.6551434">
        <ele>38.1094</ele>
        <time>2013-04-24T15:48:05Z</time>
      </trkpt>
      <trkpt lat="59.9394451" lon="17.6550402">
        <ele>38.5901</ele>
        <time>2013-04-24T15:48:06Z</time>
      </trkpt>
      <trkpt lat="59.9394239" lon="17.6549368">
        <ele>38.5901</ele>
        <time>2013-04-24T15:48:07Z</time>
      </trkpt>
      <trkpt lat="59.9394029" lon="17.6548336">
        <ele>38.5901</ele>
        <time>2013-04-24T15:48:08Z</time>
      </trkpt>
      <trkpt lat="59.9393823" lon="17.6547306">
        <ele>38.5901</ele>
        <time>2013-04-24T15:48:09Z</time>
      </trkpt>
      <trkpt lat="59.9393615" lon="17.6546271">
        <ele>38.5901</ele>
        <time>2013-04-24T15:48:10Z</time>
      </trkpt>
      <trkpt lat="59.9393399" lon="17.6545234">
        <ele>38.5901</ele>
        <time>2013-04-24T15:48:11Z</time>
      </trkpt>
      <trkpt lat="59.9393185" lon="17.6544193">
        <ele>38.5901</ele>
        <time>2013-04-24T15:48:12Z</time>
      </trkpt>
      <trkpt lat="59.9392974" lon="17.6543147">
        <ele>38.5901</ele>
        <time>2013-04-24T15:48:13Z</time>
      </trkpt>
      <trkpt lat="59.9392771" lon="17.65421">
        <ele>38.5901</ele>
        <time>2013-04-24T15:48:14Z</time>
      </trkpt>
      <trkpt lat="59.9392558" lon="17.6541047">
        <ele>38.5901</ele>
        <time>2013-04-24T15:48:15Z</time>
      </trkpt>
      <trkpt lat="59.9392337" lon="17.6540004">
        <ele>38.5901</ele>
        <time>2013-04-24T15:48:16Z</time>
      </trkpt>
      <trkpt lat="59.9392114" lon="17.6538962">
        <ele>38.5901</ele>
        <time>2013-04-24T15:48:17Z</time>
      </trkpt>
      <trkpt lat="59.9391886" lon="17.653791">
        <ele>38.5901</ele>
        <time>2013-04-24T15:48:18Z</time>
      </trkpt>
      <trkpt lat="59.939166" lon="17.6536856">
        <ele>38.5901</ele>
        <time>2013-04-24T15:48:19Z</time>
      </trkpt>
      <trkpt lat="59.9391431" lon="17.6535799">
        <ele>38.5901</ele>
        <time>2013-04-24T15:48:20Z</time>
      </trkpt>
      <trkpt lat="59.9391187" lon="17.6534738">
        <ele>38.5901</ele>
        <time>2013-04-24T15:48:21Z</time>
      </trkpt>
      <trkpt lat="59.9390913" lon="17.6533677">
        <ele>38.1094</ele>
        <time>2013-04-24T15:48:22Z</time>
      </trkpt>
      <trkpt lat="59.9390647" lon="17.653264">
        <ele>38.1094</ele>
        <time>2013-04-24T15:48:23Z</time>
      </trkpt>
      <trkpt lat="59.939039" lon="17.6531602">
        <ele>38.1094</ele>
        <time>2013-04-24T15:48:24Z</time>
      </trkpt>
      <trkpt lat="59.9390139" lon="17.6530565">
        <ele>38.1094</ele>
        <time>2013-04-24T15:48:25Z</time>
      </trkpt>
      <trkpt lat="59.9389888" lon="17.6529528">
        <ele>38.1094</ele>
        <time>2013-04-24T15:48:26Z</time>
      </trkpt>
      <trkpt lat="59.9389639" lon="17.6528502">
        <ele>38.1094</ele>
        <time>2013-04-24T15:48:27Z</time>
      </trkpt>
      <trkpt lat="59.9389379" lon="17.6527487">
        <ele>38.1094</ele>
        <time>2013-04-24T15:48:28Z</time>
      </trkpt>
      <trkpt lat="59.9389108" lon="17.6526481">
        <ele>38.1094</ele>
        <time>2013-04-24T15:48:29Z</time>
      </trkpt>
      <trkpt lat="59.9388841" lon="17.6525463">
        <ele>38.1094</ele>
        <time>2013-04-24T15:48:30Z</time>
      </trkpt>
      <trkpt lat="59.9388574" lon="17.6524445">
        <ele>38.1094</ele>
        <time>2013-04-24T15:48:31Z</time>
      </trkpt>
      <trkpt lat="59.9388296" lon="17.652344">
        <ele>38.1094</ele>
        <time>2013-04-24T15:48:32Z</time>
      </trkpt>
      <trkpt lat="59.9388017" lon="17.6522446">
        <ele>38.1094</ele>
        <time>2013-04-24T15:48:33Z</time>
      </trkpt>
      <trkpt lat="59.9387736" lon="17.6521461">
        <ele>38.1094</ele>
        <time>2013-04-24T15:48:34Z</time>
      </trkpt>
      <trkpt lat="59.9387447" lon="17.652049">
        <ele>38.1094</ele>
        <time>2013-04-24T15:48:35Z</time>
      </trkpt>
      <trkpt lat="59.9387165" lon="17.6519522">
        <ele>38.1094</ele>
        <time>2013-04-24T15:48:36Z</time>
      </trkpt>
      <trkpt lat="59.9386888" lon="17.6518555">
        <ele>38.1094</ele>
        <time>2013-04-24T15:48:37Z</time>
      </trkpt>
      <trkpt lat="59.9386603" lon="17.6517593">
        <ele>37.6287</ele>
        <time>2013-04-24T15:48:38Z</time>
      </trkpt>
      <trkpt lat="59.9386307" lon="17.6516633">
        <ele>37.6287</ele>
        <time>2013-04-24T15:48:39Z</time>
      </trkpt>
      <trkpt lat="59.9385998" lon="17.6515673">
        <ele>37.6287</ele>
        <time>2013-04-24T15:48:40Z</time>
      </trkpt>
      <trkpt lat="59.9385691" lon="17.6514708">
        <ele>37.6287</ele>
        <time>2013-04-24T15:48:41Z</time>
      </trkpt>
      <trkpt lat="59.938538" lon="17.6513748">
        <ele>37.6287</ele>
        <time>2013-04-24T15:48:42Z</time>
      </trkpt>
      <trkpt lat="59.9385054" lon="17.6512801">
        <ele>37.6287</ele>
        <time>2013-04-24T15:48:43Z</time>
      </trkpt>
      <trkpt lat="59.9384721" lon="17.6511857">
        <ele>37.6287</ele>
        <time>2013-04-24T15:48:44Z</time>
      </trkpt>
      <trkpt lat="59.9384375" lon="17.6510915">
        <ele>37.1481</ele>
        <time>2013-04-24T15:48:45Z</time>
      </trkpt>
      <trkpt lat="59.9383995" lon="17.6510021">
        <ele>37.1481</ele>
        <time>2013-04-24T15:48:46Z</time>
      </trkpt>
      <trkpt lat="59.9383562" lon="17.6509166">
        <ele>37.1481</ele>
        <time>2013-04-24T15:48:47Z</time>
      </trkpt>
      <trkpt lat="59.9383133" lon="17.6508321">
        <ele>36.6675</ele>
        <time>2013-04-24T15:48:48Z</time>
      </trkpt>
      <trkpt lat="59.9382733" lon="17.6507461">
        <ele>36.6675</ele>
        <time>2013-04-24T15:48:49Z</time>
      </trkpt>
      <trkpt lat="59.9382358" lon="17.6506568">
        <ele>36.6675</ele>
        <time>2013-04-24T15:48:50Z</time>
      </trkpt>
      <trkpt lat="59.9382024" lon="17.6505639">
        <ele>36.6675</ele>
        <time>2013-04-24T15:48:51Z</time>
      </trkpt>
      <trkpt lat="59.9381707" lon="17.65047">
        <ele>36.6675</ele>
        <time>2013-04-24T15:48:52Z</time>
      </trkpt>
      <trkpt lat="59.9381381" lon="17.6503768">
        <ele>36.6675</ele>
        <time>2013-04-24T15:48:53Z</time>
      </trkpt>
      <trkpt lat="59.938105" lon="17.6502833">
        <ele>36.6675</ele>
        <time>2013-04-24T15:48:54Z</time>
      </trkpt>
      <trkpt lat="59.9380704" lon="17.6501902">
        <ele>36.6675</ele>
        <time>2013-04-24T15:48:55Z</time>
      </trkpt>
      <trkpt lat="59.9380357" lon="17.6500977">
        <ele>36.6675</ele>
        <time>2013-04-24T15:48:56Z</time>
      </trkpt>
      <trkpt lat="59.9380012" lon="17.650007">
        <ele>36.6675</ele>
        <time>2013-04-24T15:48:57Z</time>
      </trkpt>
      <trkpt lat="59.937966" lon="17.6499198">
        <ele>36.6675</ele>
        <time>2013-04-24T15:48:58Z</time>
      </trkpt>
      <trkpt lat="59.9379299" lon="17.6498353">
        <ele>36.6675</ele>
        <time>2013-04-24T15:48:59Z</time>
      </trkpt>
      <trkpt lat="59.9378926" lon="17.6497514">
        <ele>36.6675</ele>
        <time>2013-04-24T15:49:00Z</time>
      </trkpt>
      <trkpt lat="59.9378566" lon="17.6496688">
        <ele>36.6675</ele>
        <time>2013-04-24T15:49:01Z</time>
      </trkpt>
      <trkpt lat="59.9378225" lon="17.649589">
        <ele>36.1868</ele>
        <time>2013-04-24T15:49:02Z</time>
      </trkpt>
      <trkpt lat="59.9377926" lon="17.6495138">
        <ele>36.1868</ele>
        <time>2013-04-24T15:49:03Z</time>
      </trkpt>
      <trkpt lat="59.9377782" lon="17.6494403">
        <ele>36.1868</ele>
        <time>2013-04-24T15:49:04Z</time>
      </trkpt>
      <trkpt lat="59.9377875" lon="17.6493812">
        <ele>36.1868</ele>
        <time>2013-04-24T15:49:05Z</time>
      </trkpt>
      <trkpt lat="59.9378113" lon="17.6493608">
        <ele>36.6675</ele>
        <time>2013-04-24T15:49:06Z</time>
      </trkpt>
      <trkpt lat="59.9378299" lon="17.6493749">
        <ele>36.6675</ele>
        <time>2013-04-24T15:49:07Z</time>
      </trkpt>
      <trkpt lat="59.9378408" lon="17.6493926">
        <ele>36.6675</ele>
        <time>2013-04-24T15:49:08Z</time>
      </trkpt>
      <trkpt lat="59.9378489" lon="17.6494012">
        <ele>36.6675</ele>
        <time>2013-04-24T15:49:09Z</time>
      </trkpt>
      <trkpt lat="59.9378598" lon="17.6494055">
        <ele>36.6675</ele>
        <time>2013-04-24T15:49:10Z</time>
      </trkpt>
      <trkpt lat="59.9378768" lon="17.6493993">
        <ele>36.6675</ele>
        <time>2013-04-24T15:49:11Z</time>
      </trkpt>
      <trkpt lat="59.9378921" lon="17.6493722">
        <ele>36.6675</ele>
        <time>2013-04-24T15:49:12Z</time>
      </trkpt>
      <trkpt lat="59.9379029" lon="17.6493261">
        <ele>36.6675</ele>
        <time>2013-04-24T15:49:13Z</time>
      </trkpt>
      <trkpt lat="59.9379045" lon="17.6492661">
        <ele>36.6675</ele>
        <time>2013-04-24T15:49:14Z</time>
      </trkpt>
      <trkpt lat="59.9378916" lon="17.6492035">
        <ele>36.6675</ele>
        <time>2013-04-24T15:49:15Z</time>
      </trkpt>
      <trkpt lat="59.9378656" lon="17.6491492">
        <ele>36.6675</ele>
        <time>2013-04-24T15:49:16Z</time>
      </trkpt>
      <trkpt lat="59.9378361" lon="17.649099">
        <ele>37.1481</ele>
        <time>2013-04-24T15:49:17Z</time>
      </trkpt>
      <trkpt lat="59.9378071" lon="17.649045">
        <ele>37.1481</ele>
        <time>2013-04-24T15:49:18Z</time>
      </trkpt>
      <trkpt lat="59.9377789" lon="17.6489871">
        <ele>37.1481</ele>
        <time>2013-04-24T15:49:19Z</time>
      </trkpt>
      <trkpt lat="59.937751" lon="17.6489264">
        <ele>36.6675</ele>
        <time>2013-04-24T15:49:20Z</time>
      </trkpt>
      <trkpt lat="59.9377207" lon="17.6488633">
        <ele>36.6675</ele>
        <time>2013-04-24T15:49:21Z</time>
      </trkpt>
      <trkpt lat="59.9376874" lon="17.6487973">
        <ele>36.6675</ele>
        <time>2013-04-24T15:49:22Z</time>
      </trkpt>
      <trkpt lat="59.9376517" lon="17.6487258">
        <ele>36.6675</ele>
        <time>2013-04-24T15:49:23Z</time>
      </trkpt>
      <trkpt lat="59.937614" lon="17.6486524">
        <ele>36.1868</ele>
        <time>2013-04-24T15:49:24Z</time>
      </trkpt>
      <trkpt lat="59.9375738" lon="17.6485797">
        <ele>36.1868</ele>
        <time>2013-04-24T15:49:25Z</time>
      </trkpt>
      <trkpt lat="59.9375321" lon="17.6485051">
        <ele>35.7061</ele>
        <time>2013-04-24T15:49:26Z</time>
      </trkpt>
      <trkpt lat="59.9374894" lon="17.6484314">
        <ele>35.7061</ele>
        <time>2013-04-24T15:49:27Z</time>
      </trkpt>
      <trkpt lat="59.9374435" lon="17.6483647">
        <ele>35.7061</ele>
        <time>2013-04-24T15:49:28Z</time>
      </trkpt>
      <trkpt lat="59.9373953" lon="17.6483069">
        <ele>35.7061</ele>
        <time>2013-04-24T15:49:29Z</time>
      </trkpt>
      <trkpt lat="59.9373469" lon="17.6482554">
        <ele>35.7061</ele>
        <time>2013-04-24T15:49:30Z</time>
      </trkpt>
      <trkpt lat="59.9372993" lon="17.6482085">
        <ele>36.1868</ele>
        <time>2013-04-24T15:49:31Z</time>
      </trkpt>
      <trkpt lat="59.9372534" lon="17.6481659">
        <ele>36.1868</ele>
        <time>2013-04-24T15:49:32Z</time>
      </trkpt>
      <trkpt lat="59.9372104" lon="17.6481229">
        <ele>36.1868</ele>
        <time>2013-04-24T15:49:33Z</time>
      </trkpt>
      <trkpt lat="59.93717" lon="17.6480754">
        <ele>36.1868</ele>
        <time>2013-04-24T15:49:34Z</time>
      </trkpt>
      <trkpt lat="59.9371305" lon="17.6480255">
        <ele>36.6675</ele>
        <time>2013-04-24T15:49:35Z</time>
      </trkpt>
      <trkpt lat="59.9370911" lon="17.6479744">
        <ele>36.6675</ele>
        <time>2013-04-24T15:49:36Z</time>
      </trkpt>
      <trkpt lat="59.9370519" lon="17.6479202">
        <ele>36.6675</ele>
        <time>2013-04-24T15:49:37Z</time>
      </trkpt>
      <trkpt lat="59.937012" lon="17.6478658">
        <ele>36.6675</ele>
        <time>2013-04-24T15:49:38Z</time>
      </trkpt>
      <trkpt lat="59.93697" lon="17.6478146">
        <ele>37.1481</ele>
        <time>2013-04-24T15:49:39Z</time>
      </trkpt>
      <trkpt lat="59.9369258" lon="17.6477629">
        <ele>36.6675</ele>
        <time>2013-04-24T15:49:40Z</time>
      </trkpt>
      <trkpt lat="59.9368814" lon="17.6477106">
        <ele>36.6675</ele>
        <time>2013-04-24T15:49:41Z</time>
      </trkpt>
      <trkpt lat="59.9368369" lon="17.6476563">
        <ele>37.1481</ele>
        <time>2013-04-24T15:49:42Z</time>
      </trkpt>
      <trkpt lat="59.9367921" lon="17.6476021">
        <ele>37.1481</ele>
        <time>2013-04-24T15:49:43Z</time>
      </trkpt>
      <trkpt lat="59.9367473" lon="17.6475475">
        <ele>37.1481</ele>
        <time>2013-04-24T15:49:44Z</time>
      </trkpt>
      <trkpt lat="59.9367017" lon="17.647489">
        <ele>37.1481</ele>
        <time>2013-04-24T15:49:45Z</time>
      </trkpt>
      <trkpt lat="59.9366564" lon="17.6474277">
        <ele>37.1481</ele>
        <time>2013-04-24T15:49:46Z</time>
      </trkpt>
      <trkpt lat="59.9366098" lon="17.647365">
        <ele>37.1481</ele>
        <time>2013-04-24T15:49:47Z</time>
      </trkpt>
      <trkpt lat="59.9365617" lon="17.6472998">
        <ele>37.1481</ele>
        <time>2013-04-24T15:49:48Z</time>
      </trkpt>
      <trkpt lat="59.9365127" lon="17.647233">
        <ele>37.1481</ele>
        <time>2013-04-24T15:49:49Z</time>
      </trkpt>
      <trkpt lat="59.9364639" lon="17.6471667">
        <ele>37.1481</ele>
        <time>2013-04-24T15:49:50Z</time>
      </trkpt>
      <trkpt lat="59.9364142" lon="17.6471029">
        <ele>37.1481</ele>
        <time>2013-04-24T15:49:51Z</time>
      </trkpt>
      <trkpt lat="59.9363654" lon="17.6470398">
        <ele>37.6287</ele>
        <time>2013-04-24T15:49:52Z</time>
      </trkpt>
      <trkpt lat="59.9363179" lon="17.6469769">
        <ele>37.6287</ele>
        <time>2013-04-24T15:49:53Z</time>
      </trkpt>
      <trkpt lat="59.9362703" lon="17.6469149">
        <ele>37.6287</ele>
        <time>2013-04-24T15:49:54Z</time>
      </trkpt>
      <trkpt lat="59.936221" lon="17.6468515">
        <ele>37.6287</ele>
        <time>2013-04-24T15:49:55Z</time>
      </trkpt>
      <trkpt lat="59.9361714" lon="17.6467853">
        <ele>37.6287</ele>
        <time>2013-04-24T15:49:56Z</time>
      </trkpt>
      <trkpt lat="59.936122" lon="17.646717">
        <ele>37.6287</ele>
        <time>2013-04-24T15:49:57Z</time>
      </trkpt>
      <trkpt lat="59.9360718" lon="17.6466486">
        <ele>38.1094</ele>
        <time>2013-04-24T15:49:58Z</time>
      </trkpt>
      <trkpt lat="59.9360209" lon="17.6465834">
        <ele>38.1094</ele>
        <time>2013-04-24T15:49:59Z</time>
      </trkpt>
      <trkpt lat="59.9359697" lon="17.6465196">
        <ele>38.5901</ele>
        <time>2013-04-24T15:50:00Z</time>
      </trkpt>
      <trkpt lat="59.9359189" lon="17.6464547">
        <ele>38.5901</ele>
        <time>2013-04-24T15:50:01Z</time>
      </trkpt>
      <trkpt lat="59.9358672" lon="17.6463897">
        <ele>38.5901</ele>
        <time>2013-04-24T15:50:02Z</time>
      </trkpt>
      <trkpt lat="59.9358149" lon="17.6463258">
        <ele>38.5901</ele>
        <time>2013-04-24T15:50:03Z</time>
      </trkpt>
      <trkpt lat="59.9357624" lon="17.6462599">
        <ele>38.1094</ele>
        <time>2013-04-24T15:50:04Z</time>
      </trkpt>
      <trkpt lat="59.935709" lon="17.646188">
        <ele>38.1094</ele>
        <time>2013-04-24T15:50:05Z</time>
      </trkpt>
      <trkpt lat="59.9356548" lon="17.6461167">
        <ele>38.1094</ele>
        <time>2013-04-24T15:50:06Z</time>
      </trkpt>
      <trkpt lat="59.9356004" lon="17.6460483">
        <ele>38.1094</ele>
        <time>2013-04-24T15:50:07Z</time>
      </trkpt>
      <trkpt lat="59.935545" lon="17.6459825">
        <ele>37.6287</ele>
        <time>2013-04-24T15:50:08Z</time>
      </trkpt>
      <trkpt lat="59.9354878" lon="17.6459207">
        <ele>37.6287</ele>
        <time>2013-04-24T15:50:09Z</time>
      </trkpt>
      <trkpt lat="59.9354293" lon="17.6458647">
        <ele>37.6287</ele>
        <time>2013-04-24T15:50:10Z</time>
      </trkpt>
      <trkpt lat="59.9353709" lon="17.6458096">
        <ele>37.6287</ele>
        <time>2013-04-24T15:50:11Z</time>
      </trkpt>
      <trkpt lat="59.9353138" lon="17.6457498">
        <ele>37.6287</ele>
        <time>2013-04-24T15:50:12Z</time>
      </trkpt>
      <trkpt lat="59.9352589" lon="17.645682">
        <ele>37.6287</ele>
        <time>2013-04-24T15:50:13Z</time>
      </trkpt>
      <trkpt lat="59.9352037" lon="17.6456105">
        <ele>37.6287</ele>
        <time>2013-04-24T15:50:14Z</time>
      </trkpt>
      <trkpt lat="59.9351476" lon="17.6455406">
        <ele>37.6287</ele>
        <time>2013-04-24T15:50:15Z</time>
      </trkpt>
      <trkpt lat="59.9350899" lon="17.6454753">
        <ele>37.6287</ele>
        <time>2013-04-24T15:50:16Z</time>
      </trkpt>
      <trkpt lat="59.9350316" lon="17.6454138">
        <ele>37.6287</ele>
        <time>2013-04-24T15:50:17Z</time>
      </trkpt>
      <trkpt lat="59.9349742" lon="17.6453557">
        <ele>37.6287</ele>
        <time>2013-04-24T15:50:18Z</time>
      </trkpt>
      <trkpt lat="59.9349181" lon="17.6452962">
        <ele>37.6287</ele>
        <time>2013-04-24T15:50:19Z</time>
      </trkpt>
      <trkpt lat="59.9348633" lon="17.6452313">
        <ele>37.1481</ele>
        <time>2013-04-24T15:50:20Z</time>
      </trkpt>
      <trkpt lat="59.9348094" lon="17.645163">
        <ele>37.1481</ele>
        <time>2013-04-24T15:50:21Z</time>
      </trkpt>
      <trkpt lat="59.9347551" lon="17.6450926">
        <ele>37.1481</ele>
        <time>2013-04-24T15:50:22Z</time>
      </trkpt>
      <trkpt lat="59.9347001" lon="17.6450217">
        <ele>37.1481</ele>
        <time>2013-04-24T15:50:23Z</time>
      </trkpt>
      <trkpt lat="59.9346445" lon="17.644949">
        <ele>36.6675</ele>
        <time>2013-04-24T15:50:24Z</time>
      </trkpt>
      <trkpt lat="59.9345877" lon="17.6448746">
        <ele>36.6675</ele>
        <time>2013-04-24T15:50:25Z</time>
      </trkpt>
      <trkpt lat="59.9345303" lon="17.6448009">
        <ele>36.6675</ele>
        <time>2013-04-24T15:50:26Z</time>
      </trkpt>
      <trkpt lat="59.9344757" lon="17.644721">
        <ele>36.1868</ele>
        <time>2013-04-24T15:50:27Z</time>
      </trkpt>
      <trkpt lat="59.9344245" lon="17.6446292">
        <ele>36.1868</ele>
        <time>2013-04-24T15:50:28Z</time>
      </trkpt>
      <trkpt lat="59.9343717" lon="17.6445317">
        <ele>35.7061</ele>
        <time>2013-04-24T15:50:29Z</time>
      </trkpt>
      <trkpt lat="59.9343131" lon="17.6444376">
        <ele>35.2255</ele>
        <time>2013-04-24T15:50:30Z</time>
      </trkpt>
      <trkpt lat="59.9342497" lon="17.6443501">
        <ele>35.2255</ele>
        <time>2013-04-24T15:50:31Z</time>
      </trkpt>
      <trkpt lat="59.9341848" lon="17.6442654">
        <ele>35.2255</ele>
        <time>2013-04-24T15:50:32Z</time>
      </trkpt>
      <trkpt lat="59.9341198" lon="17.6441803">
        <ele>34.7449</ele>
        <time>2013-04-24T15:50:33Z</time>
      </trkpt>
      <trkpt lat="59.9340542" lon="17.6440938">
        <ele>34.7449</ele>
        <time>2013-04-24T15:50:34Z</time>
      </trkpt>
      <trkpt lat="59.9339878" lon="17.6440082">
        <ele>34.7449</ele>
        <time>2013-04-24T15:50:35Z</time>
      </trkpt>
      <trkpt lat="59.93392" lon="17.6439285">
        <ele>34.2642</ele>
        <time>2013-04-24T15:50:36Z</time>
      </trkpt>
      <trkpt lat="59.9338501" lon="17.6438576">
        <ele>34.2642</ele>
        <time>2013-04-24T15:50:37Z</time>
      </trkpt>
      <trkpt lat="59.9337786" lon="17.6437934">
        <ele>34.2642</ele>
        <time>2013-04-24T15:50:38Z</time>
      </trkpt>
      <trkpt lat="59.933706" lon="17.6437292">
        <ele>33.7834</ele>
        <time>2013-04-24T15:50:39Z</time>
      </trkpt>
      <trkpt lat="59.933634" lon="17.643657">
        <ele>33.3029</ele>
        <time>2013-04-24T15:50:40Z</time>
      </trkpt>
      <trkpt lat="59.9335634" lon="17.6435758">
        <ele>33.3029</ele>
        <time>2013-04-24T15:50:41Z</time>
      </trkpt>
      <trkpt lat="59.9334922" lon="17.6434888">
        <ele>32.8223</ele>
        <time>2013-04-24T15:50:42Z</time>
      </trkpt>
      <trkpt lat="59.9334196" lon="17.6433926">
        <ele>32.3416</ele>
        <time>2013-04-24T15:50:43Z</time>
      </trkpt>
      <trkpt lat="59.9333469" lon="17.643285">
        <ele>31.8607</ele>
        <time>2013-04-24T15:50:44Z</time>
      </trkpt>
      <trkpt lat="59.9332762" lon="17.6431655">
        <ele>31.3801</ele>
        <time>2013-04-24T15:50:45Z</time>
      </trkpt>
      <trkpt lat="59.9332046" lon="17.6430444">
        <ele>30.4188</ele>
        <time>2013-04-24T15:50:46Z</time>
      </trkpt>
      <trkpt lat="59.9331294" lon="17.6429295">
        <ele>29.9381</ele>
        <time>2013-04-24T15:50:47Z</time>
      </trkpt>
      <trkpt lat="59.9330502" lon="17.6428236">
        <ele>29.4575</ele>
        <time>2013-04-24T15:50:48Z</time>
      </trkpt>
      <trkpt lat="59.9329708" lon="17.6427235">
        <ele>28.9769</ele>
        <time>2013-04-24T15:50:49Z</time>
      </trkpt>
      <trkpt lat="59.9328944" lon="17.6426212">
        <ele>28.9769</ele>
        <time>2013-04-24T15:50:50Z</time>
      </trkpt>
      <trkpt lat="59.9328255" lon="17.6425077">
        <ele>28.4962</ele>
        <time>2013-04-24T15:50:51Z</time>
      </trkpt>
      <trkpt lat="59.932763" lon="17.6423884">
        <ele>28.4962</ele>
        <time>2013-04-24T15:50:52Z</time>
      </trkpt>
      <trkpt lat="59.9326984" lon="17.6422791">
        <ele>28.4962</ele>
        <time>2013-04-24T15:50:53Z</time>
      </trkpt>
      <trkpt lat="59.9326286" lon="17.6421865">
        <ele>28.0155</ele>
        <time>2013-04-24T15:50:54Z</time>
      </trkpt>
      <trkpt lat="59.9325572" lon="17.6421057">
        <ele>28.0155</ele>
        <time>2013-04-24T15:50:55Z</time>
      </trkpt>
      <trkpt lat="59.9324864" lon="17.6420321">
        <ele>28.0155</ele>
        <time>2013-04-24T15:50:56Z</time>
      </trkpt>
      <trkpt lat="59.9324168" lon="17.6419644">
        <ele>28.0155</ele>
        <time>2013-04-24T15:50:57Z</time>
      </trkpt>
      <trkpt lat="59.9323492" lon="17.6419002">
        <ele>28.0155</ele>
        <time>2013-04-24T15:50:58Z</time>
      </trkpt>
      <trkpt lat="59.9322826" lon="17.6418409">
        <ele>28.0155</ele>
        <time>2013-04-24T15:50:59Z</time>
      </trkpt>
      <trkpt lat="59.9322179" lon="17.641784">
        <ele>28.0155</ele>
        <time>2013-04-24T15:51:00Z</time>
      </trkpt>
      <trkpt lat="59.9321557" lon="17.6417263">
        <ele>28.0155</ele>
        <time>2013-04-24T15:51:01Z</time>
      </trkpt>
      <trkpt lat="59.9320965" lon="17.6416688">
        <ele>28.4962</ele>
        <time>2013-04-24T15:51:02Z</time>
      </trkpt>
      <trkpt lat="59.9320401" lon="17.6416145">
        <ele>28.4962</ele>
        <time>2013-04-24T15:51:03Z</time>
      </trkpt>
      <trkpt lat="59.9319836" lon="17.641567">
        <ele>28.4962</ele>
        <time>2013-04-24T15:51:04Z</time>
      </trkpt>
      <trkpt lat="59.931924" lon="17.6415256">
        <ele>28.4962</ele>
        <time>2013-04-24T15:51:05Z</time>
      </trkpt>
      <trkpt lat="59.9318609" lon="17.6414862">
        <ele>28.0155</ele>
        <time>2013-04-24T15:51:06Z</time>
      </trkpt>
      <trkpt lat="59.9317965" lon="17.6414453">
        <ele>28.0155</ele>
        <time>2013-04-24T15:51:07Z</time>
      </trkpt>
      <trkpt lat="59.9317305" lon="17.6414023">
        <ele>28.0155</ele>
        <time>2013-04-24T15:51:08Z</time>
      </trkpt>
      <trkpt lat="59.9316647" lon="17.6413554">
        <ele>28.0155</ele>
        <time>2013-04-24T15:51:09Z</time>
      </trkpt>
      <trkpt lat="59.9315994" lon="17.6413072">
        <ele>28.0155</ele>
        <time>2013-04-24T15:51:10Z</time>
      </trkpt>
      <trkpt lat="59.9315344" lon="17.6412598">
        <ele>28.0155</ele>
        <time>2013-04-24T15:51:11Z</time>
      </trkpt>
      <trkpt lat="59.9314698" lon="17.6412132">
        <ele>28.0155</ele>
        <time>2013-04-24T15:51:12Z</time>
      </trkpt>
      <trkpt lat="59.9314071" lon="17.6411677">
        <ele>28.0155</ele>
        <time>2013-04-24T15:51:13Z</time>
      </trkpt>
      <trkpt lat="59.9313464" lon="17.6411229">
        <ele>28.0155</ele>
        <time>2013-04-24T15:51:14Z</time>
      </trkpt>
      <trkpt lat="59.931285" lon="17.641077">
        <ele>27.5349</ele>
        <time>2013-04-24T15:51:15Z</time>
      </trkpt>
      <trkpt lat="59.9312206" lon="17.6410297">
        <ele>27.0543</ele>
        <time>2013-04-24T15:51:16Z</time>
      </trkpt>
      <trkpt lat="59.9311533" lon="17.6409799">
        <ele>26.5736</ele>
        <time>2013-04-24T15:51:17Z</time>
      </trkpt>
      <trkpt lat="59.931084" lon="17.6409288">
        <ele>26.5736</ele>
        <time>2013-04-24T15:51:18Z</time>
      </trkpt>
      <trkpt lat="59.9310133" lon="17.6408794">
        <ele>26.5736</ele>
        <time>2013-04-24T15:51:19Z</time>
      </trkpt>
      <trkpt lat="59.9309414" lon="17.6408387">
        <ele>26.0929</ele>
        <time>2013-04-24T15:51:20Z</time>
      </trkpt>
      <trkpt lat="59.9308697" lon="17.6408118">
        <ele>26.0929</ele>
        <time>2013-04-24T15:51:21Z</time>
      </trkpt>
      <trkpt lat="59.9307991" lon="17.6407993">
        <ele>26.0929</ele>
        <time>2013-04-24T15:51:22Z</time>
      </trkpt>
      <trkpt lat="59.9307309" lon="17.6407961">
        <ele>26.0929</ele>
        <time>2013-04-24T15:51:23Z</time>
      </trkpt>
      <trkpt lat="59.9306639" lon="17.6408015">
        <ele>26.0929</ele>
        <time>2013-04-24T15:51:24Z</time>
      </trkpt>
      <trkpt lat="59.9305967" lon="17.6408143">
        <ele>25.6123</ele>
        <time>2013-04-24T15:51:25Z</time>
      </trkpt>
      <trkpt lat="59.9305274" lon="17.6408282">
        <ele>25.6123</ele>
        <time>2013-04-24T15:51:26Z</time>
      </trkpt>
      <trkpt lat="59.9304559" lon="17.6408364">
        <ele>25.1317</ele>
        <time>2013-04-24T15:51:27Z</time>
      </trkpt>
      <trkpt lat="59.930383" lon="17.6408377">
        <ele>25.1317</ele>
        <time>2013-04-24T15:51:28Z</time>
      </trkpt>
      <trkpt lat="59.9303097" lon="17.6408355">
        <ele>25.1317</ele>
        <time>2013-04-24T15:51:29Z</time>
      </trkpt>
      <trkpt lat="59.9302367" lon="17.6408315">
        <ele>25.1317</ele>
        <time>2013-04-24T15:51:30Z</time>
      </trkpt>
      <trkpt lat="59.9301642" lon="17.6408278">
        <ele>24.651</ele>
        <time>2013-04-24T15:51:31Z</time>
      </trkpt>
      <trkpt lat="59.930092" lon="17.6408271">
        <ele>24.651</ele>
        <time>2013-04-24T15:51:32Z</time>
      </trkpt>
      <trkpt lat="59.9300205" lon="17.6408272">
        <ele>24.651</ele>
        <time>2013-04-24T15:51:33Z</time>
      </trkpt>
      <trkpt lat="59.9299505" lon="17.6408273">
        <ele>24.651</ele>
        <time>2013-04-24T15:51:34Z</time>
      </trkpt>
      <trkpt lat="59.9298826" lon="17.6408283">
        <ele>25.1317</ele>
        <time>2013-04-24T15:51:35Z</time>
      </trkpt>
      <trkpt lat="59.9298172" lon="17.6408309">
        <ele>25.1317</ele>
        <time>2013-04-24T15:51:36Z</time>
      </trkpt>
      <trkpt lat="59.9297531" lon="17.6408396">
        <ele>25.1317</ele>
        <time>2013-04-24T15:51:37Z</time>
      </trkpt>
      <trkpt lat="59.9296889" lon="17.6408546">
        <ele>24.651</ele>
        <time>2013-04-24T15:51:38Z</time>
      </trkpt>
      <trkpt lat="59.929622" lon="17.6408718">
        <ele>24.651</ele>
        <time>2013-04-24T15:51:39Z</time>
      </trkpt>
      <trkpt lat="59.9295533" lon="17.6408884">
        <ele>24.651</ele>
        <time>2013-04-24T15:51:40Z</time>
      </trkpt>
      <trkpt lat="59.9294837" lon="17.640904">
        <ele>24.651</ele>
        <time>2013-04-24T15:51:41Z</time>
      </trkpt>
      <trkpt lat="59.9294136" lon="17.6409165">
        <ele>24.1703</ele>
        <time>2013-04-24T15:51:42Z</time>
      </trkpt>
      <trkpt lat="59.9293437" lon="17.6409289">
        <ele>24.1703</ele>
        <time>2013-04-24T15:51:43Z</time>
      </trkpt>
      <trkpt lat="59.9292739" lon="17.640941">
        <ele>24.1703</ele>
        <time>2013-04-24T15:51:44Z</time>
      </trkpt>
      <trkpt lat="59.9292051" lon="17.6409438">
        <ele>24.1703</ele>
        <time>2013-04-24T15:51:45Z</time>
      </trkpt>
      <trkpt lat="59.9291372" lon="17.6409403">
        <ele>24.1703</ele>
        <time>2013-04-24T15:51:46Z</time>
      </trkpt>
      <trkpt lat="59.9290705" lon="17.6409415">
        <ele>24.1703</ele>
        <time>2013-04-24T15:51:47Z</time>
      </trkpt>
      <trkpt lat="59.9290056" lon="17.6409464">
        <ele>24.1703</ele>
        <time>2013-04-24T15:51:48Z</time>
      </trkpt>
      <trkpt lat="59.9289422" lon="17.6409538">
        <ele>24.1703</ele>
        <time>2013-04-24T15:51:49Z</time>
      </trkpt>
      <trkpt lat="59.9288797" lon="17.6409649">
        <ele>24.1703</ele>
        <time>2013-04-24T15:51:50Z</time>
      </trkpt>
      <trkpt lat="59.9288181" lon="17.6409781">
        <ele>24.1703</ele>
        <time>2013-04-24T15:51:51Z</time>
      </trkpt>
      <trkpt lat="59.9287578" lon="17.6409918">
        <ele>24.1703</ele>
        <time>2013-04-24T15:51:52Z</time>
      </trkpt>
      <trkpt lat="59.9286987" lon="17.6410061">
        <ele>24.651</ele>
        <time>2013-04-24T15:51:53Z</time>
      </trkpt>
      <trkpt lat="59.9286404" lon="17.6410221">
        <ele>24.651</ele>
        <time>2013-04-24T15:51:54Z</time>
      </trkpt>
      <trkpt lat="59.9285819" lon="17.641036">
        <ele>24.651</ele>
        <time>2013-04-24T15:51:55Z</time>
      </trkpt>
      <trkpt lat="59.9285229" lon="17.6410447">
        <ele>24.651</ele>
        <time>2013-04-24T15:51:56Z</time>
      </trkpt>
      <trkpt lat="59.9284634" lon="17.6410499">
        <ele>24.651</ele>
        <time>2013-04-24T15:51:57Z</time>
      </trkpt>
      <trkpt lat="59.9284037" lon="17.6410558">
        <ele>24.1703</ele>
        <time>2013-04-24T15:51:58Z</time>
      </trkpt>
      <trkpt lat="59.9283435" lon="17.6410651">
        <ele>24.1703</ele>
        <time>2013-04-24T15:51:59Z</time>
      </trkpt>
      <trkpt lat="59.928283" lon="17.6410749">
        <ele>24.1703</ele>
        <time>2013-04-24T15:52:00Z</time>
      </trkpt>
      <trkpt lat="59.9282223" lon="17.6410832">
        <ele>24.1703</ele>
        <time>2013-04-24T15:52:01Z</time>
      </trkpt>
      <trkpt lat="59.9281616" lon="17.6410909">
        <ele>24.1703</ele>
        <time>2013-04-24T15:52:02Z</time>
      </trkpt>
      <trkpt lat="59.9281007" lon="17.6410973">
        <ele>24.1703</ele>
        <time>2013-04-24T15:52:03Z</time>
      </trkpt>
      <trkpt lat="59.9280398" lon="17.6411038">
        <ele>24.1703</ele>
        <time>2013-04-24T15:52:04Z</time>
      </trkpt>
      <trkpt lat="59.9279787" lon="17.641111">
        <ele>24.1703</ele>
        <time>2013-04-24T15:52:05Z</time>
      </trkpt>
      <trkpt lat="59.9279174" lon="17.6411184">
        <ele>24.1703</ele>
        <time>2013-04-24T15:52:06Z</time>
      </trkpt>
      <trkpt lat="59.9278562" lon="17.6411236">
        <ele>24.1703</ele>
        <time>2013-04-24T15:52:07Z</time>
      </trkpt>
      <trkpt lat="59.9277958" lon="17.641128">
        <ele>24.1703</ele>
        <time>2013-04-24T15:52:08Z</time>
      </trkpt>
      <trkpt lat="59.9277359" lon="17.6411349">
        <ele>24.1703</ele>
        <time>2013-04-24T15:52:09Z</time>
      </trkpt>
      <trkpt lat="59.927676" lon="17.6411418">
        <ele>24.1703</ele>
        <time>2013-04-24T15:52:10Z</time>
      </trkpt>
      <trkpt lat="59.9276163" lon="17.6411488">
        <ele>24.1703</ele>
        <time>2013-04-24T15:52:11Z</time>
      </trkpt>
      <trkpt lat="59.9275566" lon="17.6411552">
        <ele>24.1703</ele>
        <time>2013-04-24T15:52:12Z</time>
      </trkpt>
      <trkpt lat="59.927497" lon="17.6411609">
        <ele>24.1703</ele>
        <time>2013-04-24T15:52:13Z</time>
      </trkpt>
      <trkpt lat="59.9274379" lon="17.6411651">
        <ele>24.1703</ele>
        <time>2013-04-24T15:52:14Z</time>
      </trkpt>
      <trkpt lat="59.9273792" lon="17.641168">
        <ele>24.651</ele>
        <time>2013-04-24T15:52:15Z</time>
      </trkpt>
      <trkpt lat="59.9273208" lon="17.6411722">
        <ele>24.651</ele>
        <time>2013-04-24T15:52:16Z</time>
      </trkpt>
      <trkpt lat="59.9272621" lon="17.6411767">
        <ele>24.651</ele>
        <time>2013-04-24T15:52:17Z</time>
      </trkpt>
      <trkpt lat="59.9272034" lon="17.641178">
        <ele>24.651</ele>
        <time>2013-04-24T15:52:18Z</time>
      </trkpt>
      <trkpt lat="59.9271443" lon="17.6411801">
        <ele>24.651</ele>
        <time>2013-04-24T15:52:19Z</time>
      </trkpt>
      <trkpt lat="59.9270849" lon="17.6411866">
        <ele>24.651</ele>
        <time>2013-04-24T15:52:20Z</time>
      </trkpt>
      <trkpt lat="59.9270253" lon="17.6411955">
        <ele>24.651</ele>
        <time>2013-04-24T15:52:21Z</time>
      </trkpt>
      <trkpt lat="59.9269653" lon="17.6412033">
        <ele>24.651</ele>
        <time>2013-04-24T15:52:22Z</time>
      </trkpt>
      <trkpt lat="59.9269052" lon="17.6412102">
        <ele>24.651</ele>
        <time>2013-04-24T15:52:23Z</time>
      </trkpt>
      <trkpt lat="59.9268456" lon="17.6412167">
        <ele>24.651</ele>
        <time>2013-04-24T15:52:24Z</time>
      </trkpt>
      <trkpt lat="59.9267869" lon="17.6412213">
        <ele>24.651</ele>
        <time>2013-04-24T15:52:25Z</time>
      </trkpt>
      <trkpt lat="59.9267288" lon="17.641226">
        <ele>24.651</ele>
        <time>2013-04-24T15:52:26Z</time>
      </trkpt>
      <trkpt lat="59.9266707" lon="17.6412313">
        <ele>24.651</ele>
        <time>2013-04-24T15:52:27Z</time>
      </trkpt>
      <trkpt lat="59.9266124" lon="17.6412387">
        <ele>24.651</ele>
        <time>2013-04-24T15:52:28Z</time>
      </trkpt>
      <trkpt lat="59.9265539" lon="17.6412485">
        <ele>24.651</ele>
        <time>2013-04-24T15:52:29Z</time>
      </trkpt>
      <trkpt lat="59.9264951" lon="17.6412583">
        <ele>24.651</ele>
        <time>2013-04-24T15:52:30Z</time>
      </trkpt>
      <trkpt lat="59.9264358" lon="17.6412658">
        <ele>24.651</ele>
        <time>2013-04-24T15:52:31Z</time>
      </trkpt>
      <trkpt lat="59.9263762" lon="17.641272">
        <ele>24.651</ele>
        <time>2013-04-24T15:52:32Z</time>
      </trkpt>
      <trkpt lat="59.9263166" lon="17.6412788">
        <ele>24.651</ele>
        <time>2013-04-24T15:52:33Z</time>
      </trkpt>
      <trkpt lat="59.9262569" lon="17.6412856">
        <ele>25.1317</ele>
        <time>2013-04-24T15:52:34Z</time>
      </trkpt>
      <trkpt lat="59.9261976" lon="17.6412927">
        <ele>25.1317</ele>
        <time>2013-04-24T15:52:35Z</time>
      </trkpt>
      <trkpt lat="59.9261388" lon="17.6412997">
        <ele>25.1317</ele>
        <time>2013-04-24T15:52:36Z</time>
      </trkpt>
      <trkpt lat="59.9260804" lon="17.641307">
        <ele>25.1317</ele>
        <time>2013-04-24T15:52:37Z</time>
      </trkpt>
      <trkpt lat="59.9260224" lon="17.6413157">
        <ele>25.1317</ele>
        <time>2013-04-24T15:52:38Z</time>
      </trkpt>
      <trkpt lat="59.925965" lon="17.6413247">
        <ele>25.6123</ele>
        <time>2013-04-24T15:52:39Z</time>
      </trkpt>
      <trkpt lat="59.9259083" lon="17.6413318">
        <ele>25.6123</ele>
        <time>2013-04-24T15:52:40Z</time>
      </trkpt>
      <trkpt lat="59.9258516" lon="17.6413381">
        <ele>25.6123</ele>
        <time>2013-04-24T15:52:41Z</time>
      </trkpt>
      <trkpt lat="59.925795" lon="17.6413462">
        <ele>25.6123</ele>
        <time>2013-04-24T15:52:42Z</time>
      </trkpt>
      <trkpt lat="59.9257389" lon="17.6413536">
        <ele>25.6123</ele>
        <time>2013-04-24T15:52:43Z</time>
      </trkpt>
      <trkpt lat="59.9256831" lon="17.6413608">
        <ele>25.6123</ele>
        <time>2013-04-24T15:52:44Z</time>
      </trkpt>
      <trkpt lat="59.9256277" lon="17.6413686">
        <ele>26.0929</ele>
        <time>2013-04-24T15:52:45Z</time>
      </trkpt>
      <trkpt lat="59.9255727" lon="17.6413763">
        <ele>26.0929</ele>
        <time>2013-04-24T15:52:46Z</time>
      </trkpt>
      <trkpt lat="59.9255184" lon="17.6413842">
        <ele>26.0929</ele>
        <time>2013-04-24T15:52:47Z</time>
      </trkpt>
      <trkpt lat="59.9254651" lon="17.6413933">
        <ele>26.0929</ele>
        <time>2013-04-24T15:52:48Z</time>
      </trkpt>
      <trkpt lat="59.9254126" lon="17.6414001">
        <ele>26.0929</ele>
        <time>2013-04-24T15:52:49Z</time>
      </trkpt>
      <trkpt lat="59.9253604" lon="17.6414032">
        <ele>26.5736</ele>
        <time>2013-04-24T15:52:50Z</time>
      </trkpt>
      <trkpt lat="59.925308" lon="17.6414054">
        <ele>26.5736</ele>
        <time>2013-04-24T15:52:51Z</time>
      </trkpt>
      <trkpt lat="59.9252552" lon="17.6414074">
        <ele>26.5736</ele>
        <time>2013-04-24T15:52:52Z</time>
      </trkpt>
      <trkpt lat="59.9252024" lon="17.641407">
        <ele>26.5736</ele>
        <time>2013-04-24T15:52:53Z</time>
      </trkpt>
      <trkpt lat="59.9251501" lon="17.6414068">
        <ele>26.5736</ele>
        <time>2013-04-24T15:52:54Z</time>
      </trkpt>
      <trkpt lat="59.9250988" lon="17.6414074">
        <ele>26.5736</ele>
        <time>2013-04-24T15:52:55Z</time>
      </trkpt>
      <trkpt lat="59.9250489" lon="17.6414069">
        <ele>26.5736</ele>
        <time>2013-04-24T15:52:56Z</time>
      </trkpt>
      <trkpt lat="59.9250002" lon="17.6414074">
        <ele>27.0543</ele>
        <time>2013-04-24T15:52:57Z</time>
      </trkpt>
      <trkpt lat="59.924952" lon="17.6414099">
        <ele>27.0543</ele>
        <time>2013-04-24T15:52:58Z</time>
      </trkpt>
      <trkpt lat="59.9249038" lon="17.641413">
        <ele>27.0543</ele>
        <time>2013-04-24T15:52:59Z</time>
      </trkpt>
      <trkpt lat="59.9248553" lon="17.6414191">
        <ele>27.0543</ele>
        <time>2013-04-24T15:53:00Z</time>
      </trkpt>
      <trkpt lat="59.9248067" lon="17.6414291">
        <ele>27.0543</ele>
        <time>2013-04-24T15:53:01Z</time>
      </trkpt>
      <trkpt lat="59.9247583" lon="17.6414414">
        <ele>27.0543</ele>
        <time>2013-04-24T15:53:02Z</time>
      </trkpt>
      <trkpt lat="59.9247098" lon="17.641455">
        <ele>27.0543</ele>
        <time>2013-04-24T15:53:03Z</time>
      </trkpt>
      <trkpt lat="59.9246606" lon="17.64147">
        <ele>27.0543</ele>
        <time>2013-04-24T15:53:04Z</time>
      </trkpt>
      <trkpt lat="59.9246102" lon="17.6414847">
        <ele>27.5349</ele>
        <time>2013-04-24T15:53:05Z</time>
      </trkpt>
      <trkpt lat="59.9245584" lon="17.6414965">
        <ele>27.5349</ele>
        <time>2013-04-24T15:53:06Z</time>
      </trkpt>
      <trkpt lat="59.9245058" lon="17.6415039">
        <ele>27.5349</ele>
        <time>2013-04-24T15:53:07Z</time>
      </trkpt>
      <trkpt lat="59.9244534" lon="17.6415105">
        <ele>27.5349</ele>
        <time>2013-04-24T15:53:08Z</time>
      </trkpt>
      <trkpt lat="59.9244015" lon="17.6415165">
        <ele>27.5349</ele>
        <time>2013-04-24T15:53:09Z</time>
      </trkpt>
      <trkpt lat="59.92435" lon="17.6415219">
        <ele>27.5349</ele>
        <time>2013-04-24T15:53:10Z</time>
      </trkpt>
      <trkpt lat="59.9242986" lon="17.6415276">
        <ele>27.5349</ele>
        <time>2013-04-24T15:53:11Z</time>
      </trkpt>
      <trkpt lat="59.9242473" lon="17.6415302">
        <ele>27.5349</ele>
        <time>2013-04-24T15:53:12Z</time>
      </trkpt>
      <trkpt lat="59.9241957" lon="17.6415318">
        <ele>27.5349</ele>
        <time>2013-04-24T15:53:13Z</time>
      </trkpt>
      <trkpt lat="59.9241434" lon="17.6415334">
        <ele>27.5349</ele>
        <time>2013-04-24T15:53:14Z</time>
      </trkpt>
      <trkpt lat="59.9240906" lon="17.6415358">
        <ele>27.5349</ele>
        <time>2013-04-24T15:53:15Z</time>
      </trkpt>
      <trkpt lat="59.9240377" lon="17.6415409">
        <ele>27.5349</ele>
        <time>2013-04-24T15:53:16Z</time>
      </trkpt>
      <trkpt lat="59.9239851" lon="17.6415474">
        <ele>27.5349</ele>
        <time>2013-04-24T15:53:17Z</time>
      </trkpt>
      <trkpt lat="59.923933" lon="17.6415549">
        <ele>28.0155</ele>
        <time>2013-04-24T15:53:18Z</time>
      </trkpt>
      <trkpt lat="59.9238809" lon="17.6415627">
        <ele>28.0155</ele>
        <time>2013-04-24T15:53:19Z</time>
      </trkpt>
      <trkpt lat="59.9238292" lon="17.64157">
        <ele>28.0155</ele>
        <time>2013-04-24T15:53:20Z</time>
      </trkpt>
      <trkpt lat="59.9237773" lon="17.6415758">
        <ele>28.0155</ele>
        <time>2013-04-24T15:53:21Z</time>
      </trkpt>
      <trkpt lat="59.9237253" lon="17.6415811">
        <ele>28.0155</ele>
        <time>2013-04-24T15:53:22Z</time>
      </trkpt>
      <trkpt lat="59.9236736" lon="17.641587">
        <ele>28.4962</ele>
        <time>2013-04-24T15:53:23Z</time>
      </trkpt>
      <trkpt lat="59.923623" lon="17.6415929">
        <ele>28.4962</ele>
        <time>2013-04-24T15:53:24Z</time>
      </trkpt>
      <trkpt lat="59.9235738" lon="17.6415999">
        <ele>28.4962</ele>
        <time>2013-04-24T15:53:25Z</time>
      </trkpt>
      <trkpt lat="59.9235256" lon="17.641609">
        <ele>28.9769</ele>
        <time>2013-04-24T15:53:26Z</time>
      </trkpt>
      <trkpt lat="59.9234784" lon="17.6416173">
        <ele>28.9769</ele>
        <time>2013-04-24T15:53:27Z</time>
      </trkpt>
      <trkpt lat="59.9234319" lon="17.6416232">
        <ele>28.9769</ele>
        <time>2013-04-24T15:53:28Z</time>
      </trkpt>
      <trkpt lat="59.9233866" lon="17.6416295">
        <ele>28.9769</ele>
        <time>2013-04-24T15:53:29Z</time>
      </trkpt>
      <trkpt lat="59.9233418" lon="17.6416363">
        <ele>29.4575</ele>
        <time>2013-04-24T15:53:30Z</time>
      </trkpt>
      <trkpt lat="59.9232971" lon="17.6416436">
        <ele>29.4575</ele>
        <time>2013-04-24T15:53:31Z</time>
      </trkpt>
      <trkpt lat="59.9232515" lon="17.6416525">
        <ele>29.4575</ele>
        <time>2013-04-24T15:53:32Z</time>
      </trkpt>
      <trkpt lat="59.9232042" lon="17.6416606">
        <ele>29.4575</ele>
        <time>2013-04-24T15:53:33Z</time>
      </trkpt>
      <trkpt lat="59.9231556" lon="17.641668">
        <ele>29.9381</ele>
        <time>2013-04-24T15:53:34Z</time>
      </trkpt>
      <trkpt lat="59.9231059" lon="17.641675">
        <ele>29.9381</ele>
        <time>2013-04-24T15:53:35Z</time>
      </trkpt>
      <trkpt lat="59.9230552" lon="17.6416785">
        <ele>29.9381</ele>
        <time>2013-04-24T15:53:36Z</time>
      </trkpt>
      <trkpt lat="59.9230039" lon="17.6416813">
        <ele>29.9381</ele>
        <time>2013-04-24T15:53:37Z</time>
      </trkpt>
      <trkpt lat="59.9229521" lon="17.6416857">
        <ele>30.4188</ele>
        <time>2013-04-24T15:53:38Z</time>
      </trkpt>
      <trkpt lat="59.9228998" lon="17.6416913">
        <ele>30.4188</ele>
        <time>2013-04-24T15:53:39Z</time>
      </trkpt>
      <trkpt lat="59.922848" lon="17.641697">
        <ele>30.4188</ele>
        <time>2013-04-24T15:53:40Z</time>
      </trkpt>
      <trkpt lat="59.9227969" lon="17.641703">
        <ele>30.8995</ele>
        <time>2013-04-24T15:53:41Z</time>
      </trkpt>
      <trkpt lat="59.9227463" lon="17.6417094">
        <ele>30.8995</ele>
        <time>2013-04-24T15:53:42Z</time>
      </trkpt>
      <trkpt lat="59.9226948" lon="17.6417181">
        <ele>30.8995</ele>
        <time>2013-04-24T15:53:43Z</time>
      </trkpt>
      <trkpt lat="59.9226424" lon="17.6417275">
        <ele>30.8995</ele>
        <time>2013-04-24T15:53:44Z</time>
      </trkpt>
      <trkpt lat="59.9225878" lon="17.6417358">
        <ele>30.8995</ele>
        <time>2013-04-24T15:53:45Z</time>
      </trkpt>
      <trkpt lat="59.9225318" lon="17.6417439">
        <ele>30.8995</ele>
        <time>2013-04-24T15:53:46Z</time>
      </trkpt>
      <trkpt lat="59.9224752" lon="17.641752">
        <ele>30.8995</ele>
        <time>2013-04-24T15:53:47Z</time>
      </trkpt>
      <trkpt lat="59.9224181" lon="17.6417608">
        <ele>30.8995</ele>
        <time>2013-04-24T15:53:48Z</time>
      </trkpt>
      <trkpt lat="59.9223601" lon="17.6417676">
        <ele>30.8995</ele>
        <time>2013-04-24T15:53:49Z</time>
      </trkpt>
      <trkpt lat="59.9223025" lon="17.6417724">
        <ele>30.8995</ele>
        <time>2013-04-24T15:53:50Z</time>
      </trkpt>
      <trkpt lat="59.9222467" lon="17.6417787">
        <ele>30.8995</ele>
        <time>2013-04-24T15:53:51Z</time>
      </trkpt>
      <trkpt lat="59.9221943" lon="17.6417869">
        <ele>30.8995</ele>
        <time>2013-04-24T15:53:52Z</time>
      </trkpt>
      <trkpt lat="59.9221439" lon="17.6417964">
        <ele>30.8995</ele>
        <time>2013-04-24T15:53:53Z</time>
      </trkpt>
      <trkpt lat="59.9220946" lon="17.6418048">
        <ele>30.8995</ele>
        <time>2013-04-24T15:53:54Z</time>
      </trkpt>
      <trkpt lat="59.9220456" lon="17.6418089">
        <ele>30.8995</ele>
        <time>2013-04-24T15:53:55Z</time>
      </trkpt>
      <trkpt lat="59.9219964" lon="17.6418106">
        <ele>31.3801</ele>
        <time>2013-04-24T15:53:56Z</time>
      </trkpt>
      <trkpt lat="59.9219467" lon="17.6418141">
        <ele>31.3801</ele>
        <time>2013-04-24T15:53:57Z</time>
      </trkpt>
      <trkpt lat="59.9218963" lon="17.6418196">
        <ele>31.3801</ele>
        <time>2013-04-24T15:53:58Z</time>
      </trkpt>
      <trkpt lat="59.9218455" lon="17.6418265">
        <ele>31.3801</ele>
        <time>2013-04-24T15:53:59Z</time>
      </trkpt>
      <trkpt lat="59.9217939" lon="17.6418348">
        <ele>31.3801</ele>
        <time>2013-04-24T15:54:00Z</time>
      </trkpt>
      <trkpt lat="59.921742" lon="17.6418461">
        <ele>31.3801</ele>
        <time>2013-04-24T15:54:01Z</time>
      </trkpt>
      <trkpt lat="59.9216893" lon="17.6418602">
        <ele>30.8995</ele>
        <time>2013-04-24T15:54:02Z</time>
      </trkpt>
      <trkpt lat="59.9216367" lon="17.6418705">
        <ele>30.8995</ele>
        <time>2013-04-24T15:54:03Z</time>
      </trkpt>
      <trkpt lat="59.9215839" lon="17.6418766">
        <ele>30.8995</ele>
        <time>2013-04-24T15:54:04Z</time>
      </trkpt>
      <trkpt lat="59.9215298" lon="17.6418817">
        <ele>30.8995</ele>
        <time>2013-04-24T15:54:05Z</time>
      </trkpt>
      <trkpt lat="59.9214743" lon="17.6418879">
        <ele>30.8995</ele>
        <time>2013-04-24T15:54:06Z</time>
      </trkpt>
      <trkpt lat="59.9214156" lon="17.641896">
        <ele>30.8995</ele>
        <time>2013-04-24T15:54:07Z</time>
      </trkpt>
      <trkpt lat="59.9213536" lon="17.6419063">
        <ele>30.4188</ele>
        <time>2013-04-24T15:54:08Z</time>
      </trkpt>
      <trkpt lat="59.9212903" lon="17.6419125">
        <ele>29.9381</ele>
        <time>2013-04-24T15:54:09Z</time>
      </trkpt>
      <trkpt lat="59.9212251" lon="17.6419165">
        <ele>29.4575</ele>
        <time>2013-04-24T15:54:10Z</time>
      </trkpt>
      <trkpt lat="59.9211584" lon="17.6419208">
        <ele>28.9769</ele>
        <time>2013-04-24T15:54:11Z</time>
      </trkpt>
      <trkpt lat="59.9210912" lon="17.6419273">
        <ele>28.9769</ele>
        <time>2013-04-24T15:54:12Z</time>
      </trkpt>
      <trkpt lat="59.9210241" lon="17.6419351">
        <ele>28.9769</ele>
        <time>2013-04-24T15:54:13Z</time>
      </trkpt>
      <trkpt lat="59.9209568" lon="17.6419356">
        <ele>28.9769</ele>
        <time>2013-04-24T15:54:14Z</time>
      </trkpt>
      <trkpt lat="59.9208885" lon="17.641928">
        <ele>28.9769</ele>
        <time>2013-04-24T15:54:15Z</time>
      </trkpt>
      <trkpt lat="59.9208196" lon="17.6419212">
        <ele>28.9769</ele>
        <time>2013-04-24T15:54:16Z</time>
      </trkpt>
      <trkpt lat="59.92075" lon="17.6419238">
        <ele>28.9769</ele>
        <time>2013-04-24T15:54:17Z</time>
      </trkpt>
      <trkpt lat="59.9206795" lon="17.6419301">
        <ele>28.9769</ele>
        <time>2013-04-24T15:54:18Z</time>
      </trkpt>
      <trkpt lat="59.9206088" lon="17.6419363">
        <ele>28.9769</ele>
        <time>2013-04-24T15:54:19Z</time>
      </trkpt>
      <trkpt lat="59.920539" lon="17.6419399">
        <ele>28.9769</ele>
        <time>2013-04-24T15:54:20Z</time>
      </trkpt>
      <trkpt lat="59.9204709" lon="17.641941">
        <ele>28.9769</ele>
        <time>2013-04-24T15:54:21Z</time>
      </trkpt>
      <trkpt lat="59.9204056" lon="17.6419435">
        <ele>28.9769</ele>
        <time>2013-04-24T15:54:22Z</time>
      </trkpt>
      <trkpt lat="59.920343" lon="17.6419468">
        <ele>29.4575</ele>
        <time>2013-04-24T15:54:23Z</time>
      </trkpt>
      <trkpt lat="59.9202823" lon="17.6419494">
        <ele>29.4575</ele>
        <time>2013-04-24T15:54:24Z</time>
      </trkpt>
      <trkpt lat="59.9202237" lon="17.6419502">
        <ele>29.4575</ele>
        <time>2013-04-24T15:54:25Z</time>
      </trkpt>
      <trkpt lat="59.9201669" lon="17.6419508">
        <ele>29.4575</ele>
        <time>2013-04-24T15:54:26Z</time>
      </trkpt>
      <trkpt lat="59.9201109" lon="17.6419543">
        <ele>29.4575</ele>
        <time>2013-04-24T15:54:27Z</time>
      </trkpt>
      <trkpt lat="59.9200543" lon="17.6419611">
        <ele>29.4575</ele>
        <time>2013-04-24T15:54:28Z</time>
      </trkpt>
      <trkpt lat="59.919997" lon="17.6419684">
        <ele>29.4575</ele>
        <time>2013-04-24T15:54:29Z</time>
      </trkpt>
      <trkpt lat="59.9199399" lon="17.641976">
        <ele>29.4575</ele>
        <time>2013-04-24T15:54:30Z</time>
      </trkpt>
      <trkpt lat="59.9198839" lon="17.6419896">
        <ele>29.4575</ele>
        <time>2013-04-24T15:54:31Z</time>
      </trkpt>
      <trkpt lat="59.9198285" lon="17.6420082">
        <ele>29.4575</ele>
        <time>2013-04-24T15:54:32Z</time>
      </trkpt>
      <trkpt lat="59.9197735" lon="17.6420227">
        <ele>29.4575</ele>
        <time>2013-04-24T15:54:33Z</time>
      </trkpt>
      <trkpt lat="59.9197187" lon="17.642034">
        <ele>29.9381</ele>
        <time>2013-04-24T15:54:34Z</time>
      </trkpt>
      <trkpt lat="59.9196641" lon="17.642045">
        <ele>29.9381</ele>
        <time>2013-04-24T15:54:35Z</time>
      </trkpt>
      <trkpt lat="59.9196092" lon="17.6420537">
        <ele>29.9381</ele>
        <time>2013-04-24T15:54:36Z</time>
      </trkpt>
      <trkpt lat="59.9195543" lon="17.6420596">
        <ele>29.9381</ele>
        <time>2013-04-24T15:54:37Z</time>
      </trkpt>
      <trkpt lat="59.9194996" lon="17.6420657">
        <ele>29.9381</ele>
        <time>2013-04-24T15:54:38Z</time>
      </trkpt>
      <trkpt lat="59.9194451" lon="17.6420727">
        <ele>29.9381</ele>
        <time>2013-04-24T15:54:39Z</time>
      </trkpt>
      <trkpt lat="59.9193908" lon="17.6420782">
        <ele>29.9381</ele>
        <time>2013-04-24T15:54:40Z</time>
      </trkpt>
      <trkpt lat="59.9193368" lon="17.6420825">
        <ele>29.9381</ele>
        <time>2013-04-24T15:54:41Z</time>
      </trkpt>
      <trkpt lat="59.9192829" lon="17.6420875">
        <ele>29.9381</ele>
        <time>2013-04-24T15:54:42Z</time>
      </trkpt>
      <trkpt lat="59.9192298" lon="17.6420928">
        <ele>29.9381</ele>
        <time>2013-04-24T15:54:43Z</time>
      </trkpt>
      <trkpt lat="59.9191777" lon="17.6420993">
        <ele>29.9381</ele>
        <time>2013-04-24T15:54:44Z</time>
      </trkpt>
      <trkpt lat="59.919126" lon="17.6421052">
        <ele>30.4188</ele>
        <time>2013-04-24T15:54:45Z</time>
      </trkpt>
      <trkpt lat="59.9190746" lon="17.642111">
        <ele>30.4188</ele>
        <time>2013-04-24T15:54:46Z</time>
      </trkpt>
      <trkpt lat="59.9190226" lon="17.6421174">
        <ele>30.4188</ele>
        <time>2013-04-24T15:54:47Z</time>
      </trkpt>
      <trkpt lat="59.91897" lon="17.6421248">
        <ele>30.4188</ele>
        <time>2013-04-24T15:54:48Z</time>
      </trkpt>
      <trkpt lat="59.9189163" lon="17.6421321">
        <ele>29.9381</ele>
        <time>2013-04-24T15:54:49Z</time>
      </trkpt>
      <trkpt lat="59.9188617" lon="17.6421367">
        <ele>29.9381</ele>
        <time>2013-04-24T15:54:50Z</time>
      </trkpt>
      <trkpt lat="59.9188065" lon="17.6421413">
        <ele>29.9381</ele>
        <time>2013-04-24T15:54:51Z</time>
      </trkpt>
      <trkpt lat="59.9187507" lon="17.6421487">
        <ele>29.9381</ele>
        <time>2013-04-24T15:54:52Z</time>
      </trkpt>
      <trkpt lat="59.9186946" lon="17.6421563">
        <ele>29.9381</ele>
        <time>2013-04-24T15:54:53Z</time>
      </trkpt>
      <trkpt lat="59.9186377" lon="17.6421637">
        <ele>29.9381</ele>
        <time>2013-04-24T15:54:54Z</time>
      </trkpt>
      <trkpt lat="59.9185807" lon="17.6421724">
        <ele>29.9381</ele>
        <time>2013-04-24T15:54:55Z</time>
      </trkpt>
      <trkpt lat="59.9185233" lon="17.6421801">
        <ele>29.9381</ele>
        <time>2013-04-24T15:54:56Z</time>
      </trkpt>
      <trkpt lat="59.9184667" lon="17.6421869">
        <ele>29.9381</ele>
        <time>2013-04-24T15:54:57Z</time>
      </trkpt>
      <trkpt lat="59.9184111" lon="17.6421951">
        <ele>29.4575</ele>
        <time>2013-04-24T15:54:58Z</time>
      </trkpt>
      <trkpt lat="59.9183553" lon="17.6422031">
        <ele>29.4575</ele>
        <time>2013-04-24T15:54:59Z</time>
      </trkpt>
      <trkpt lat="59.9182978" lon="17.6422105">
        <ele>28.9769</ele>
        <time>2013-04-24T15:55:00Z</time>
      </trkpt>
      <trkpt lat="59.9182383" lon="17.6422158">
        <ele>28.9769</ele>
        <time>2013-04-24T15:55:01Z</time>
      </trkpt>
      <trkpt lat="59.9181778" lon="17.6422184">
        <ele>28.4962</ele>
        <time>2013-04-24T15:55:02Z</time>
      </trkpt>
      <trkpt lat="59.9181165" lon="17.6422232">
        <ele>28.0155</ele>
        <time>2013-04-24T15:55:03Z</time>
      </trkpt>
      <trkpt lat="59.9180537" lon="17.64223">
        <ele>28.0155</ele>
        <time>2013-04-24T15:55:04Z</time>
      </trkpt>
      <trkpt lat="59.9179895" lon="17.6422362">
        <ele>27.5349</ele>
        <time>2013-04-24T15:55:05Z</time>
      </trkpt>
      <trkpt lat="59.9179246" lon="17.642243">
        <ele>27.5349</ele>
        <time>2013-04-24T15:55:06Z</time>
      </trkpt>
      <trkpt lat="59.9178591" lon="17.6422491">
        <ele>27.0543</ele>
        <time>2013-04-24T15:55:07Z</time>
      </trkpt>
      <trkpt lat="59.9177937" lon="17.6422529">
        <ele>27.0543</ele>
        <time>2013-04-24T15:55:08Z</time>
      </trkpt>
      <trkpt lat="59.917728" lon="17.6422563">
        <ele>27.0543</ele>
        <time>2013-04-24T15:55:09Z</time>
      </trkpt>
      <trkpt lat="59.9176629" lon="17.642257">
        <ele>26.5736</ele>
        <time>2013-04-24T15:55:10Z</time>
      </trkpt>
      <trkpt lat="59.9175985" lon="17.6422543">
        <ele>26.5736</ele>
        <time>2013-04-24T15:55:11Z</time>
      </trkpt>
      <trkpt lat="59.9175348" lon="17.6422527">
        <ele>26.5736</ele>
        <time>2013-04-24T15:55:12Z</time>
      </trkpt>
      <trkpt lat="59.9174722" lon="17.6422553">
        <ele>26.5736</ele>
        <time>2013-04-24T15:55:13Z</time>
      </trkpt>
      <trkpt lat="59.9174106" lon="17.6422596">
        <ele>26.5736</ele>
        <time>2013-04-24T15:55:14Z</time>
      </trkpt>
      <trkpt lat="59.9173495" lon="17.6422628">
        <ele>26.0929</ele>
        <time>2013-04-24T15:55:15Z</time>
      </trkpt>
      <trkpt lat="59.9172885" lon="17.6422621">
        <ele>26.0929</ele>
        <time>2013-04-24T15:55:16Z</time>
      </trkpt>
      <trkpt lat="59.9172276" lon="17.6422566">
        <ele>26.0929</ele>
        <time>2013-04-24T15:55:17Z</time>
      </trkpt>
      <trkpt lat="59.9171675" lon="17.642259">
        <ele>26.0929</ele>
        <time>2013-04-24T15:55:18Z</time>
      </trkpt>
      <trkpt lat="59.9171086" lon="17.6422787">
        <ele>26.0929</ele>
        <time>2013-04-24T15:55:19Z</time>
      </trkpt>
      <trkpt lat="59.9170513" lon="17.6423044">
        <ele>26.0929</ele>
        <time>2013-04-24T15:55:20Z</time>
      </trkpt>
      <trkpt lat="59.916995" lon="17.6423237">
        <ele>26.5736</ele>
        <time>2013-04-24T15:55:21Z</time>
      </trkpt>
      <trkpt lat="59.9169397" lon="17.6423372">
        <ele>26.5736</ele>
        <time>2013-04-24T15:55:22Z</time>
      </trkpt>
      <trkpt lat="59.9168852" lon="17.642348">
        <ele>26.5736</ele>
        <time>2013-04-24T15:55:23Z</time>
      </trkpt>
      <trkpt lat="59.9168314" lon="17.6423562">
        <ele>26.5736</ele>
        <time>2013-04-24T15:55:24Z</time>
      </trkpt>
      <trkpt lat="59.9167781" lon="17.6423621">
        <ele>26.5736</ele>
        <time>2013-04-24T15:55:25Z</time>
      </trkpt>
      <trkpt lat="59.9167261" lon="17.6423668">
        <ele>26.5736</ele>
        <time>2013-04-24T15:55:26Z</time>
      </trkpt>
      <trkpt lat="59.9166753" lon="17.6423731">
        <ele>27.0543</ele>
        <time>2013-04-24T15:55:27Z</time>
      </trkpt>
      <trkpt lat="59.9166253" lon="17.6423822">
        <ele>27.0543</ele>
        <time>2013-04-24T15:55:28Z</time>
      </trkpt>
      <trkpt lat="59.9165753" lon="17.6423901">
        <ele>27.0543</ele>
        <time>2013-04-24T15:55:29Z</time>
      </trkpt>
      <trkpt lat="59.9165243" lon="17.6423961">
        <ele>27.0543</ele>
        <time>2013-04-24T15:55:30Z</time>
      </trkpt>
      <trkpt lat="59.9164733" lon="17.6424015">
        <ele>27.5349</ele>
        <time>2013-04-24T15:55:31Z</time>
      </trkpt>
      <trkpt lat="59.9164226" lon="17.6424093">
        <ele>27.5349</ele>
        <time>2013-04-24T15:55:32Z</time>
      </trkpt>
      <trkpt lat="59.9163723" lon="17.6424186">
        <ele>27.5349</ele>
        <time>2013-04-24T15:55:33Z</time>
      </trkpt>
      <trkpt lat="59.9163216" lon="17.6424269">
        <ele>27.5349</ele>
        <time>2013-04-24T15:55:34Z</time>
      </trkpt>
      <trkpt lat="59.9162702" lon="17.6424347">
        <ele>27.5349</ele>
        <time>2013-04-24T15:55:35Z</time>
      </trkpt>
      <trkpt lat="59.9162178" lon="17.6424393">
        <ele>27.5349</ele>
        <time>2013-04-24T15:55:36Z</time>
      </trkpt>
      <trkpt lat="59.9161641" lon="17.6424389">
        <ele>27.0543</ele>
        <time>2013-04-24T15:55:37Z</time>
      </trkpt>
      <trkpt lat="59.9161092" lon="17.6424378">
        <ele>27.0543</ele>
        <time>2013-04-24T15:55:38Z</time>
      </trkpt>
      <trkpt lat="59.9160534" lon="17.6424386">
        <ele>27.0543</ele>
        <time>2013-04-24T15:55:39Z</time>
      </trkpt>
      <trkpt lat="59.9159973" lon="17.6424403">
        <ele>27.0543</ele>
        <time>2013-04-24T15:55:40Z</time>
      </trkpt>
      <trkpt lat="59.9159412" lon="17.6424424">
        <ele>27.0543</ele>
        <time>2013-04-24T15:55:41Z</time>
      </trkpt>
      <trkpt lat="59.9158849" lon="17.6424449">
        <ele>26.5736</ele>
        <time>2013-04-24T15:55:42Z</time>
      </trkpt>
      <trkpt lat="59.915829" lon="17.6424445">
        <ele>26.5736</ele>
        <time>2013-04-24T15:55:43Z</time>
      </trkpt>
      <trkpt lat="59.9157736" lon="17.6424438">
        <ele>26.5736</ele>
        <time>2013-04-24T15:55:44Z</time>
      </trkpt>
      <trkpt lat="59.9157186" lon="17.6424469">
        <ele>26.5736</ele>
        <time>2013-04-24T15:55:45Z</time>
      </trkpt>
      <trkpt lat="59.9156635" lon="17.6424548">
        <ele>26.5736</ele>
        <time>2013-04-24T15:55:46Z</time>
      </trkpt>
      <trkpt lat="59.9156083" lon="17.6424647">
        <ele>26.5736</ele>
        <time>2013-04-24T15:55:47Z</time>
      </trkpt>
      <trkpt lat="59.9155529" lon="17.6424754">
        <ele>26.0929</ele>
        <time>2013-04-24T15:55:48Z</time>
      </trkpt>
      <trkpt lat="59.9154965" lon="17.6424862">
        <ele>26.0929</ele>
        <time>2013-04-24T15:55:49Z</time>
      </trkpt>
      <trkpt lat="59.9154394" lon="17.6424978">
        <ele>26.0929</ele>
        <time>2013-04-24T15:55:50Z</time>
      </trkpt>
      <trkpt lat="59.9153818" lon="17.6425142">
        <ele>26.0929</ele>
        <time>2013-04-24T15:55:51Z</time>
      </trkpt>
      <trkpt lat="59.9153255" lon="17.6425404">
        <ele>26.0929</ele>
        <time>2013-04-24T15:55:52Z</time>
      </trkpt>
      <trkpt lat="59.9152727" lon="17.6425808">
        <ele>26.5736</ele>
        <time>2013-04-24T15:55:53Z</time>
      </trkpt>
      <trkpt lat="59.9152229" lon="17.6426235">
        <ele>26.5736</ele>
        <time>2013-04-24T15:55:54Z</time>
      </trkpt>
      <trkpt lat="59.9151753" lon="17.6426569">
        <ele>27.0543</ele>
        <time>2013-04-24T15:55:55Z</time>
      </trkpt>
      <trkpt lat="59.9151271" lon="17.6426772">
        <ele>27.0543</ele>
        <time>2013-04-24T15:55:56Z</time>
      </trkpt>
      <trkpt lat="59.9150753" lon="17.6426909">
        <ele>27.0543</ele>
        <time>2013-04-24T15:55:57Z</time>
      </trkpt>
      <trkpt lat="59.9150187" lon="17.6427007">
        <ele>27.0543</ele>
        <time>2013-04-24T15:55:58Z</time>
      </trkpt>
      <trkpt lat="59.9149582" lon="17.6427082">
        <ele>27.0543</ele>
        <time>2013-04-24T15:55:59Z</time>
      </trkpt>
      <trkpt lat="59.9148981" lon="17.6427137">
        <ele>27.0543</ele>
        <time>2013-04-24T15:56:00Z</time>
      </trkpt>
      <trkpt lat="59.9148406" lon="17.6427233">
        <ele>27.5349</ele>
        <time>2013-04-24T15:56:01Z</time>
      </trkpt>
      <trkpt lat="59.9147842" lon="17.6427351">
        <ele>27.5349</ele>
        <time>2013-04-24T15:56:02Z</time>
      </trkpt>
      <trkpt lat="59.9147282" lon="17.6427454">
        <ele>27.5349</ele>
        <time>2013-04-24T15:56:03Z</time>
      </trkpt>
      <trkpt lat="59.9146734" lon="17.6427561">
        <ele>27.5349</ele>
        <time>2013-04-24T15:56:04Z</time>
      </trkpt>
      <trkpt lat="59.9146205" lon="17.6427687">
        <ele>28.0155</ele>
        <time>2013-04-24T15:56:05Z</time>
      </trkpt>
      <trkpt lat="59.9145686" lon="17.6427797">
        <ele>28.0155</ele>
        <time>2013-04-24T15:56:06Z</time>
      </trkpt>
      <trkpt lat="59.9145173" lon="17.642789">
        <ele>28.0155</ele>
        <time>2013-04-24T15:56:07Z</time>
      </trkpt>
      <trkpt lat="59.9144665" lon="17.6427967">
        <ele>28.0155</ele>
        <time>2013-04-24T15:56:08Z</time>
      </trkpt>
      <trkpt lat="59.9144162" lon="17.6428017">
        <ele>28.0155</ele>
        <time>2013-04-24T15:56:09Z</time>
      </trkpt>
      <trkpt lat="59.9143659" lon="17.6428095">
        <ele>28.0155</ele>
        <time>2013-04-24T15:56:10Z</time>
      </trkpt>
      <trkpt lat="59.9143152" lon="17.6428225">
        <ele>28.4962</ele>
        <time>2013-04-24T15:56:11Z</time>
      </trkpt>
      <trkpt lat="59.9142639" lon="17.642836">
        <ele>28.4962</ele>
        <time>2013-04-24T15:56:12Z</time>
      </trkpt>
      <trkpt lat="59.9142126" lon="17.6428468">
        <ele>28.4962</ele>
        <time>2013-04-24T15:56:13Z</time>
      </trkpt>
      <trkpt lat="59.9141611" lon="17.6428575">
        <ele>28.9769</ele>
        <time>2013-04-24T15:56:14Z</time>
      </trkpt>
      <trkpt lat="59.9141098" lon="17.6428693">
        <ele>28.9769</ele>
        <time>2013-04-24T15:56:15Z</time>
      </trkpt>
      <trkpt lat="59.9140583" lon="17.6428807">
        <ele>28.9769</ele>
        <time>2013-04-24T15:56:16Z</time>
      </trkpt>
      <trkpt lat="59.9140066" lon="17.6428898">
        <ele>28.9769</ele>
        <time>2013-04-24T15:56:17Z</time>
      </trkpt>
      <trkpt lat="59.9139552" lon="17.6428977">
        <ele>28.9769</ele>
        <time>2013-04-24T15:56:18Z</time>
      </trkpt>
      <trkpt lat="59.9139035" lon="17.6429071">
        <ele>29.4575</ele>
        <time>2013-04-24T15:56:19Z</time>
      </trkpt>
      <trkpt lat="59.9138519" lon="17.6429162">
        <ele>29.4575</ele>
        <time>2013-04-24T15:56:20Z</time>
      </trkpt>
      <trkpt lat="59.9138005" lon="17.6429247">
        <ele>29.4575</ele>
        <time>2013-04-24T15:56:21Z</time>
      </trkpt>
      <trkpt lat="59.9137488" lon="17.6429364">
        <ele>29.4575</ele>
        <time>2013-04-24T15:56:22Z</time>
      </trkpt>
      <trkpt lat="59.9136974" lon="17.64295">
        <ele>29.9381</ele>
        <time>2013-04-24T15:56:23Z</time>
      </trkpt>
      <trkpt lat="59.9136454" lon="17.6429623">
        <ele>29.9381</ele>
        <time>2013-04-24T15:56:24Z</time>
      </trkpt>
      <trkpt lat="59.913593" lon="17.6429739">
        <ele>29.9381</ele>
        <time>2013-04-24T15:56:25Z</time>
      </trkpt>
      <trkpt lat="59.9135402" lon="17.6429826">
        <ele>29.9381</ele>
        <time>2013-04-24T15:56:26Z</time>
      </trkpt>
      <trkpt lat="59.9134865" lon="17.6429901">
        <ele>29.9381</ele>
        <time>2013-04-24T15:56:27Z</time>
      </trkpt>
      <trkpt lat="59.9134327" lon="17.6429997">
        <ele>29.9381</ele>
        <time>2013-04-24T15:56:28Z</time>
      </trkpt>
      <trkpt lat="59.9133787" lon="17.643016">
        <ele>29.9381</ele>
        <time>2013-04-24T15:56:29Z</time>
      </trkpt>
      <trkpt lat="59.9133234" lon="17.6430369">
        <ele>29.9381</ele>
        <time>2013-04-24T15:56:30Z</time>
      </trkpt>
      <trkpt lat="59.913266" lon="17.6430566">
        <ele>30.4188</ele>
        <time>2013-04-24T15:56:31Z</time>
      </trkpt>
      <trkpt lat="59.9132069" lon="17.6430716">
        <ele>30.4188</ele>
        <time>2013-04-24T15:56:32Z</time>
      </trkpt>
      <trkpt lat="59.9131472" lon="17.6430794">
        <ele>30.4188</ele>
        <time>2013-04-24T15:56:33Z</time>
      </trkpt>
      <trkpt lat="59.9130862" lon="17.6430899">
        <ele>30.4188</ele>
        <time>2013-04-24T15:56:34Z</time>
      </trkpt>
      <trkpt lat="59.9130245" lon="17.643103">
        <ele>30.8995</ele>
        <time>2013-04-24T15:56:35Z</time>
      </trkpt>
      <trkpt lat="59.9129634" lon="17.6431144">
        <ele>30.8995</ele>
        <time>2013-04-24T15:56:36Z</time>
      </trkpt>
      <trkpt lat="59.9129028" lon="17.643124">
        <ele>30.8995</ele>
        <time>2013-04-24T15:56:37Z</time>
      </trkpt>
      <trkpt lat="59.9128427" lon="17.6431318">
        <ele>30.8995</ele>
        <time>2013-04-24T15:56:38Z</time>
      </trkpt>
      <trkpt lat="59.9127831" lon="17.6431356">
        <ele>30.8995</ele>
        <time>2013-04-24T15:56:39Z</time>
      </trkpt>
      <trkpt lat="59.9127241" lon="17.6431271">
        <ele>30.8995</ele>
        <time>2013-04-24T15:56:40Z</time>
      </trkpt>
      <trkpt lat="59.9126637" lon="17.6431011">
        <ele>29.9381</ele>
        <time>2013-04-24T15:56:41Z</time>
      </trkpt>
      <trkpt lat="59.9125997" lon="17.6430677">
        <ele>29.9381</ele>
        <time>2013-04-24T15:56:42Z</time>
      </trkpt>
      <trkpt lat="59.9125339" lon="17.6430463">
        <ele>29.4575</ele>
        <time>2013-04-24T15:56:43Z</time>
      </trkpt>
      <trkpt lat="59.9124686" lon="17.6430447">
        <ele>29.4575</ele>
        <time>2013-04-24T15:56:44Z</time>
      </trkpt>
      <trkpt lat="59.9124045" lon="17.6430541">
        <ele>29.9381</ele>
        <time>2013-04-24T15:56:45Z</time>
      </trkpt>
      <trkpt lat="59.9123418" lon="17.6430674">
        <ele>29.9381</ele>
        <time>2013-04-24T15:56:46Z</time>
      </trkpt>
      <trkpt lat="59.9122805" lon="17.6430832">
        <ele>29.9381</ele>
        <time>2013-04-24T15:56:47Z</time>
      </trkpt>
      <trkpt lat="59.9122211" lon="17.6431003">
        <ele>29.9381</ele>
        <time>2013-04-24T15:56:48Z</time>
      </trkpt>
      <trkpt lat="59.9121636" lon="17.6431169">
        <ele>29.9381</ele>
        <time>2013-04-24T15:56:49Z</time>
      </trkpt>
      <trkpt lat="59.9121079" lon="17.6431351">
        <ele>30.4188</ele>
        <time>2013-04-24T15:56:50Z</time>
      </trkpt>
      <trkpt lat="59.9120546" lon="17.6431553">
        <ele>30.4188</ele>
        <time>2013-04-24T15:56:51Z</time>
      </trkpt>
      <trkpt lat="59.9120024" lon="17.6431758">
        <ele>30.4188</ele>
        <time>2013-04-24T15:56:52Z</time>
      </trkpt>
      <trkpt lat="59.9119501" lon="17.6431938">
        <ele>30.4188</ele>
        <time>2013-04-24T15:56:53Z</time>
      </trkpt>
      <trkpt lat="59.9118968" lon="17.6432064">
        <ele>30.4188</ele>
        <time>2013-04-24T15:56:54Z</time>
      </trkpt>
      <trkpt lat="59.9118419" lon="17.6432171">
        <ele>30.4188</ele>
        <time>2013-04-24T15:56:55Z</time>
      </trkpt>
      <trkpt lat="59.9117854" lon="17.6432292">
        <ele>30.4188</ele>
        <time>2013-04-24T15:56:56Z</time>
      </trkpt>
      <trkpt lat="59.9117274" lon="17.6432399">
        <ele>30.4188</ele>
        <time>2013-04-24T15:56:57Z</time>
      </trkpt>
      <trkpt lat="59.9116697" lon="17.6432469">
        <ele>29.9381</ele>
        <time>2013-04-24T15:56:58Z</time>
      </trkpt>
      <trkpt lat="59.9116138" lon="17.6432545">
        <ele>29.4575</ele>
        <time>2013-04-24T15:56:59Z</time>
      </trkpt>
      <trkpt lat="59.9115589" lon="17.6432635">
        <ele>29.4575</ele>
        <time>2013-04-24T15:57:00Z</time>
      </trkpt>
      <trkpt lat="59.9115041" lon="17.6432739">
        <ele>29.4575</ele>
        <time>2013-04-24T15:57:01Z</time>
      </trkpt>
      <trkpt lat="59.91145" lon="17.6432868">
        <ele>29.4575</ele>
        <time>2013-04-24T15:57:02Z</time>
      </trkpt>
      <trkpt lat="59.9113967" lon="17.6433047">
        <ele>29.4575</ele>
        <time>2013-04-24T15:57:03Z</time>
      </trkpt>
      <trkpt lat="59.9113431" lon="17.6433233">
        <ele>29.4575</ele>
        <time>2013-04-24T15:57:04Z</time>
      </trkpt>
      <trkpt lat="59.9112886" lon="17.6433387">
        <ele>29.4575</ele>
        <time>2013-04-24T15:57:05Z</time>
      </trkpt>
      <trkpt lat="59.9112332" lon="17.6433521">
        <ele>29.4575</ele>
        <time>2013-04-24T15:57:06Z</time>
      </trkpt>
      <trkpt lat="59.9111768" lon="17.6433634">
        <ele>28.9769</ele>
        <time>2013-04-24T15:57:07Z</time>
      </trkpt>
      <trkpt lat="59.9111196" lon="17.6433737">
        <ele>28.9769</ele>
        <time>2013-04-24T15:57:08Z</time>
      </trkpt>
      <trkpt lat="59.911061" lon="17.6433836">
        <ele>28.9769</ele>
        <time>2013-04-24T15:57:09Z</time>
      </trkpt>
      <trkpt lat="59.9110011" lon="17.6433935">
        <ele>28.9769</ele>
        <time>2013-04-24T15:57:10Z</time>
      </trkpt>
      <trkpt lat="59.9109404" lon="17.6434027">
        <ele>28.4962</ele>
        <time>2013-04-24T15:57:11Z</time>
      </trkpt>
      <trkpt lat="59.9108794" lon="17.6434105">
        <ele>28.4962</ele>
        <time>2013-04-24T15:57:12Z</time>
      </trkpt>
      <trkpt lat="59.9108181" lon="17.6434204">
        <ele>28.4962</ele>
        <time>2013-04-24T15:57:13Z</time>
      </trkpt>
      <trkpt lat="59.9107557" lon="17.6434345">
        <ele>28.0155</ele>
        <time>2013-04-24T15:57:14Z</time>
      </trkpt>
      <trkpt lat="59.9106923" lon="17.6434509">
        <ele>28.0155</ele>
        <time>2013-04-24T15:57:15Z</time>
      </trkpt>
      <trkpt lat="59.9106281" lon="17.6434689">
        <ele>28.0155</ele>
        <time>2013-04-24T15:57:16Z</time>
      </trkpt>
      <trkpt lat="59.910564" lon="17.6434941">
        <ele>28.0155</ele>
        <time>2013-04-24T15:57:17Z</time>
      </trkpt>
      <trkpt lat="59.9105017" lon="17.6435296">
        <ele>28.4962</ele>
        <time>2013-04-24T15:57:18Z</time>
      </trkpt>
      <trkpt lat="59.91044" lon="17.643564">
        <ele>28.4962</ele>
        <time>2013-04-24T15:57:19Z</time>
      </trkpt>
      <trkpt lat="59.9103772" lon="17.6435908">
        <ele>28.4962</ele>
        <time>2013-04-24T15:57:20Z</time>
      </trkpt>
      <trkpt lat="59.9103131" lon="17.6436089">
        <ele>28.4962</ele>
        <time>2013-04-24T15:57:21Z</time>
      </trkpt>
      <trkpt lat="59.9102474" lon="17.6436161">
        <ele>28.4962</ele>
        <time>2013-04-24T15:57:22Z</time>
      </trkpt>
      <trkpt lat="59.9101805" lon="17.6436181">
        <ele>28.4962</ele>
        <time>2013-04-24T15:57:23Z</time>
      </trkpt>
      <trkpt lat="59.9101118" lon="17.6436215">
        <ele>28.4962</ele>
        <time>2013-04-24T15:57:24Z</time>
      </trkpt>
      <trkpt lat="59.9100413" lon="17.6436167">
        <ele>28.0155</ele>
        <time>2013-04-24T15:57:25Z</time>
      </trkpt>
      <trkpt lat="59.9099677" lon="17.6435939">
        <ele>27.5349</ele>
        <time>2013-04-24T15:57:26Z</time>
      </trkpt>
      <trkpt lat="59.9098921" lon="17.6435627">
        <ele>27.5349</ele>
        <time>2013-04-24T15:57:27Z</time>
      </trkpt>
      <trkpt lat="59.909816" lon="17.6435417">
        <ele>27.5349</ele>
        <time>2013-04-24T15:57:28Z</time>
      </trkpt>
      <trkpt lat="59.9097406" lon="17.6435402">
        <ele>27.0543</ele>
        <time>2013-04-24T15:57:29Z</time>
      </trkpt>
      <trkpt lat="59.9096658" lon="17.6435523">
        <ele>27.0543</ele>
        <time>2013-04-24T15:57:30Z</time>
      </trkpt>
      <trkpt lat="59.9095917" lon="17.643571">
        <ele>27.0543</ele>
        <time>2013-04-24T15:57:31Z</time>
      </trkpt>
      <trkpt lat="59.9095191" lon="17.6435913">
        <ele>27.0543</ele>
        <time>2013-04-24T15:57:32Z</time>
      </trkpt>
      <trkpt lat="59.9094487" lon="17.64361">
        <ele>27.0543</ele>
        <time>2013-04-24T15:57:33Z</time>
      </trkpt>
      <trkpt lat="59.9093809" lon="17.643624">
        <ele>27.0543</ele>
        <time>2013-04-24T15:57:34Z</time>
      </trkpt>
      <trkpt lat="59.9093151" lon="17.6436349">
        <ele>27.0543</ele>
        <time>2013-04-24T15:57:35Z</time>
      </trkpt>
      <trkpt lat="59.9092503" lon="17.6436445">
        <ele>27.0543</ele>
        <time>2013-04-24T15:57:36Z</time>
      </trkpt>
      <trkpt lat="59.9091858" lon="17.6436528">
        <ele>27.0543</ele>
        <time>2013-04-24T15:57:37Z</time>
      </trkpt>
      <trkpt lat="59.9091217" lon="17.6436597">
        <ele>27.5349</ele>
        <time>2013-04-24T15:57:38Z</time>
      </trkpt>
      <trkpt lat="59.9090576" lon="17.6436669">
        <ele>27.5349</ele>
        <time>2013-04-24T15:57:39Z</time>
      </trkpt>
      <trkpt lat="59.9089933" lon="17.6436759">
        <ele>27.0543</ele>
        <time>2013-04-24T15:57:40Z</time>
      </trkpt>
      <trkpt lat="59.9089292" lon="17.6436846">
        <ele>27.5349</ele>
        <time>2013-04-24T15:57:41Z</time>
      </trkpt>
      <trkpt lat="59.9088649" lon="17.6436918">
        <ele>27.5349</ele>
        <time>2013-04-24T15:57:42Z</time>
      </trkpt>
      <trkpt lat="59.9088017" lon="17.6436985">
        <ele>27.5349</ele>
        <time>2013-04-24T15:57:43Z</time>
      </trkpt>
      <trkpt lat="59.9087395" lon="17.6437037">
        <ele>27.5349</ele>
        <time>2013-04-24T15:57:44Z</time>
      </trkpt>
      <trkpt lat="59.9086782" lon="17.643706">
        <ele>27.5349</ele>
        <time>2013-04-24T15:57:45Z</time>
      </trkpt>
      <trkpt lat="59.9086172" lon="17.6437079">
        <ele>27.5349</ele>
        <time>2013-04-24T15:57:46Z</time>
      </trkpt>
      <trkpt lat="59.9085562" lon="17.6437106">
        <ele>27.5349</ele>
        <time>2013-04-24T15:57:47Z</time>
      </trkpt>
      <trkpt lat="59.9084959" lon="17.6437115">
        <ele>27.5349</ele>
        <time>2013-04-24T15:57:48Z</time>
      </trkpt>
      <trkpt lat="59.9084359" lon="17.643711">
        <ele>27.5349</ele>
        <time>2013-04-24T15:57:49Z</time>
      </trkpt>
      <trkpt lat="59.9083762" lon="17.6437075">
        <ele>27.5349</ele>
        <time>2013-04-24T15:57:50Z</time>
      </trkpt>
      <trkpt lat="59.9083167" lon="17.6437007">
        <ele>27.5349</ele>
        <time>2013-04-24T15:57:51Z</time>
      </trkpt>
      <trkpt lat="59.9082571" lon="17.6436923">
        <ele>27.5349</ele>
        <time>2013-04-24T15:57:52Z</time>
      </trkpt>
      <trkpt lat="59.9081966" lon="17.643683">
        <ele>27.5349</ele>
        <time>2013-04-24T15:57:53Z</time>
      </trkpt>
      <trkpt lat="59.9081345" lon="17.6436753">
        <ele>27.5349</ele>
        <time>2013-04-24T15:57:54Z</time>
      </trkpt>
      <trkpt lat="59.9080702" lon="17.6436687">
        <ele>27.5349</ele>
        <time>2013-04-24T15:57:55Z</time>
      </trkpt>
      <trkpt lat="59.9080045" lon="17.64366">
        <ele>27.5349</ele>
        <time>2013-04-24T15:57:56Z</time>
      </trkpt>
      <trkpt lat="59.9079388" lon="17.6436468">
        <ele>27.5349</ele>
        <time>2013-04-24T15:57:57Z</time>
      </trkpt>
      <trkpt lat="59.9078742" lon="17.6436336">
        <ele>27.0543</ele>
        <time>2013-04-24T15:57:58Z</time>
      </trkpt>
      <trkpt lat="59.9078098" lon="17.6436226">
        <ele>27.0543</ele>
        <time>2013-04-24T15:57:59Z</time>
      </trkpt>
      <trkpt lat="59.9077454" lon="17.6436132">
        <ele>27.0543</ele>
        <time>2013-04-24T15:58:00Z</time>
      </trkpt>
      <trkpt lat="59.9076802" lon="17.6435998">
        <ele>26.5736</ele>
        <time>2013-04-24T15:58:01Z</time>
      </trkpt>
      <trkpt lat="59.9076139" lon="17.6435841">
        <ele>26.0929</ele>
        <time>2013-04-24T15:58:02Z</time>
      </trkpt>
      <trkpt lat="59.907545" lon="17.6435668">
        <ele>25.6123</ele>
        <time>2013-04-24T15:58:03Z</time>
      </trkpt>
      <trkpt lat="59.9074781" lon="17.6435484">
        <ele>25.1317</ele>
        <time>2013-04-24T15:58:04Z</time>
      </trkpt>
      <trkpt lat="59.907415" lon="17.6435365">
        <ele>25.1317</ele>
        <time>2013-04-24T15:58:05Z</time>
      </trkpt>
      <trkpt lat="59.9073537" lon="17.6435285">
        <ele>25.1317</ele>
        <time>2013-04-24T15:58:06Z</time>
      </trkpt>
      <trkpt lat="59.9072927" lon="17.6435179">
        <ele>25.1317</ele>
        <time>2013-04-24T15:58:07Z</time>
      </trkpt>
      <trkpt lat="59.907232" lon="17.6435063">
        <ele>25.1317</ele>
        <time>2013-04-24T15:58:08Z</time>
      </trkpt>
      <trkpt lat="59.9071709" lon="17.6434948">
        <ele>25.1317</ele>
        <time>2013-04-24T15:58:09Z</time>
      </trkpt>
      <trkpt lat="59.9071097" lon="17.6434815">
        <ele>25.1317</ele>
        <time>2013-04-24T15:58:10Z</time>
      </trkpt>
      <trkpt lat="59.9070483" lon="17.6434671">
        <ele>24.651</ele>
        <time>2013-04-24T15:58:11Z</time>
      </trkpt>
      <trkpt lat="59.9069871" lon="17.6434528">
        <ele>24.651</ele>
        <time>2013-04-24T15:58:12Z</time>
      </trkpt>
      <trkpt lat="59.9069264" lon="17.6434378">
        <ele>24.651</ele>
        <time>2013-04-24T15:58:13Z</time>
      </trkpt>
      <trkpt lat="59.9068657" lon="17.6434226">
        <ele>24.651</ele>
        <time>2013-04-24T15:58:14Z</time>
      </trkpt>
      <trkpt lat="59.9068048" lon="17.6434075">
        <ele>24.651</ele>
        <time>2013-04-24T15:58:15Z</time>
      </trkpt>
      <trkpt lat="59.9067442" lon="17.6433934">
        <ele>24.651</ele>
        <time>2013-04-24T15:58:16Z</time>
      </trkpt>
      <trkpt lat="59.9066843" lon="17.6433788">
        <ele>24.651</ele>
        <time>2013-04-24T15:58:17Z</time>
      </trkpt>
      <trkpt lat="59.9066253" lon="17.6433609">
        <ele>24.651</ele>
        <time>2013-04-24T15:58:18Z</time>
      </trkpt>
      <trkpt lat="59.9065665" lon="17.6433417">
        <ele>24.651</ele>
        <time>2013-04-24T15:58:19Z</time>
      </trkpt>
      <trkpt lat="59.9065077" lon="17.643323">
        <ele>24.651</ele>
        <time>2013-04-24T15:58:20Z</time>
      </trkpt>
      <trkpt lat="59.9064485" lon="17.6433044">
        <ele>24.651</ele>
        <time>2013-04-24T15:58:21Z</time>
      </trkpt>
      <trkpt lat="59.9063899" lon="17.6432836">
        <ele>24.1703</ele>
        <time>2013-04-24T15:58:22Z</time>
      </trkpt>
      <trkpt lat="59.9063328" lon="17.6432609">
        <ele>24.1703</ele>
        <time>2013-04-24T15:58:23Z</time>
      </trkpt>
      <trkpt lat="59.906277" lon="17.643237">
        <ele>24.1703</ele>
        <time>2013-04-24T15:58:24Z</time>
      </trkpt>
      <trkpt lat="59.9062226" lon="17.6432126">
        <ele>24.1703</ele>
        <time>2013-04-24T15:58:25Z</time>
      </trkpt>
      <trkpt lat="59.9061692" lon="17.6431881">
        <ele>24.1703</ele>
        <time>2013-04-24T15:58:26Z</time>
      </trkpt>
      <trkpt lat="59.9061164" lon="17.643166">
        <ele>24.1703</ele>
        <time>2013-04-24T15:58:27Z</time>
      </trkpt>
      <trkpt lat="59.906065" lon="17.6431449">
        <ele>24.1703</ele>
        <time>2013-04-24T15:58:28Z</time>
      </trkpt>
      <trkpt lat="59.9060153" lon="17.643121">
        <ele>24.1703</ele>
        <time>2013-04-24T15:58:29Z</time>
      </trkpt>
      <trkpt lat="59.9059659" lon="17.643096">
        <ele>24.1703</ele>
        <time>2013-04-24T15:58:30Z</time>
      </trkpt>
      <trkpt lat="59.9059153" lon="17.6430702">
        <ele>23.6896</ele>
        <time>2013-04-24T15:58:31Z</time>
      </trkpt>
      <trkpt lat="59.9058638" lon="17.6430442">
        <ele>23.6896</ele>
        <time>2013-04-24T15:58:32Z</time>
      </trkpt>
      <trkpt lat="59.9058125" lon="17.6430191">
        <ele>23.6896</ele>
        <time>2013-04-24T15:58:33Z</time>
      </trkpt>
      <trkpt lat="59.905762" lon="17.6429965">
        <ele>23.6896</ele>
        <time>2013-04-24T15:58:34Z</time>
      </trkpt>
      <trkpt lat="59.9057128" lon="17.6429759">
        <ele>23.6896</ele>
        <time>2013-04-24T15:58:35Z</time>
      </trkpt>
      <trkpt lat="59.9056642" lon="17.6429595">
        <ele>23.6896</ele>
        <time>2013-04-24T15:58:36Z</time>
      </trkpt>
      <trkpt lat="59.9055319" lon="17.6428454">
        <ele>25.1317</ele>
        <time>2013-04-24T16:01:32Z</time>
      </trkpt>
      <trkpt lat="59.9055459" lon="17.6428463">
        <ele>25.1317</ele>
        <time>2013-04-24T16:01:33Z</time>
      </trkpt>
      <trkpt lat="59.9055644" lon="17.6428537">
        <ele>25.1317</ele>
        <time>2013-04-24T16:01:34Z</time>
      </trkpt>
      <trkpt lat="59.9055908" lon="17.6428682">
        <ele>25.1317</ele>
        <time>2013-04-24T16:01:35Z</time>
      </trkpt>
      <trkpt lat="59.9056205" lon="17.6428791">
        <ele>25.1317</ele>
        <time>2013-04-24T16:01:36Z</time>
      </trkpt>
      <trkpt lat="59.9056583" lon="17.6428905">
        <ele>25.6123</ele>
        <time>2013-04-24T16:01:37Z</time>
      </trkpt>
      <trkpt lat="59.9056996" lon="17.6429041">
        <ele>26.0929</ele>
        <time>2013-04-24T16:01:38Z</time>
      </trkpt>
      <trkpt lat="59.9057449" lon="17.6429274">
        <ele>26.5736</ele>
        <time>2013-04-24T16:01:39Z</time>
      </trkpt>
      <trkpt lat="59.9057931" lon="17.6429577">
        <ele>27.0543</ele>
        <time>2013-04-24T16:01:40Z</time>
      </trkpt>
      <trkpt lat="59.9058438" lon="17.6429898">
        <ele>27.0543</ele>
        <time>2013-04-24T16:01:41Z</time>
      </trkpt>
      <trkpt lat="59.9058972" lon="17.6430239">
        <ele>28.0155</ele>
        <time>2013-04-24T16:01:42Z</time>
      </trkpt>
      <trkpt lat="59.9059521" lon="17.6430562">
        <ele>28.4962</ele>
        <time>2013-04-24T16:01:43Z</time>
      </trkpt>
      <trkpt lat="59.906008" lon="17.6430871">
        <ele>29.4575</ele>
        <time>2013-04-24T16:01:44Z</time>
      </trkpt>
      <trkpt lat="59.9060649" lon="17.6431165">
        <ele>29.9381</ele>
        <time>2013-04-24T16:01:45Z</time>
      </trkpt>
      <trkpt lat="59.9061246" lon="17.6431443">
        <ele>30.4188</ele>
        <time>2013-04-24T16:01:46Z</time>
      </trkpt>
      <trkpt lat="59.9061867" lon="17.6431723">
        <ele>30.4188</ele>
        <time>2013-04-24T16:01:47Z</time>
      </trkpt>
      <trkpt lat="59.9062499" lon="17.6431998">
        <ele>31.3801</ele>
        <time>2013-04-24T16:01:48Z</time>
      </trkpt>
      <trkpt lat="59.9063173" lon="17.6432293">
        <ele>31.8607</ele>
        <time>2013-04-24T16:01:49Z</time>
      </trkpt>
      <trkpt lat="59.9063829" lon="17.6432557">
        <ele>32.8223</ele>
        <time>2013-04-24T16:01:50Z</time>
      </trkpt>
      <trkpt lat="59.9066234" lon="17.64335">
        <ele>28.9769</ele>
        <time>2013-04-24T16:03:02Z</time>
      </trkpt>
      <trkpt lat="59.9066084" lon="17.6433483">
        <ele>28.9769</ele>
        <time>2013-04-24T16:03:03Z</time>
      </trkpt>
      <trkpt lat="59.9065917" lon="17.6433469">
        <ele>29.4575</ele>
        <time>2013-04-24T16:03:04Z</time>
      </trkpt>
      <trkpt lat="59.9065696" lon="17.6433379">
        <ele>29.4575</ele>
        <time>2013-04-24T16:03:05Z</time>
      </trkpt>
      <trkpt lat="59.9065426" lon="17.6433256">
        <ele>29.4575</ele>
        <time>2013-04-24T16:03:06Z</time>
      </trkpt>
      <trkpt lat="59.9065103" lon="17.6433152">
        <ele>29.4575</ele>
        <time>2013-04-24T16:03:07Z</time>
      </trkpt>
      <trkpt lat="59.9064742" lon="17.6433017">
        <ele>29.4575</ele>
        <time>2013-04-24T16:03:08Z</time>
      </trkpt>
      <trkpt lat="59.9064345" lon="17.643289">
        <ele>29.4575</ele>
        <time>2013-04-24T16:03:09Z</time>
      </trkpt>
      <trkpt lat="59.9063918" lon="17.643275">
        <ele>29.4575</ele>
        <time>2013-04-24T16:03:10Z</time>
      </trkpt>
      <trkpt lat="59.9063469" lon="17.6432567">
        <ele>29.4575</ele>
        <time>2013-04-24T16:03:11Z</time>
      </trkpt>
      <trkpt lat="59.9062998" lon="17.643235">
        <ele>29.4575</ele>
        <time>2013-04-24T16:03:12Z</time>
      </trkpt>
      <trkpt lat="59.9062498" lon="17.6432152">
        <ele>29.4575</ele>
        <time>2013-04-24T16:03:13Z</time>
      </trkpt>
      <trkpt lat="59.9061969" lon="17.6431956">
        <ele>29.4575</ele>
        <time>2013-04-24T16:03:14Z</time>
      </trkpt>
      <trkpt lat="59.9061426" lon="17.6431737">
        <ele>28.9769</ele>
        <time>2013-04-24T16:03:15Z</time>
      </trkpt>
      <trkpt lat="59.9060898" lon="17.6431451">
        <ele>28.9769</ele>
        <time>2013-04-24T16:03:16Z</time>
      </trkpt>
      <trkpt lat="59.906039" lon="17.6431147">
        <ele>28.9769</ele>
        <time>2013-04-24T16:03:17Z</time>
      </trkpt>
      <trkpt lat="59.9059894" lon="17.6430873">
        <ele>28.9769</ele>
        <time>2013-04-24T16:03:18Z</time>
      </trkpt>
      <trkpt lat="59.9059412" lon="17.6430612">
        <ele>28.9769</ele>
        <time>2013-04-24T16:03:19Z</time>
      </trkpt>
      <trkpt lat="59.9058941" lon="17.6430375">
        <ele>28.9769</ele>
        <time>2013-04-24T16:03:20Z</time>
      </trkpt>
      <trkpt lat="59.9058483" lon="17.6430144">
        <ele>28.4962</ele>
        <time>2013-04-24T16:03:21Z</time>
      </trkpt>
      <trkpt lat="59.9058024" lon="17.6429914">
        <ele>28.4962</ele>
        <time>2013-04-24T16:03:22Z</time>
      </trkpt>
      <trkpt lat="59.9057545" lon="17.6429718">
        <ele>28.4962</ele>
        <time>2013-04-24T16:03:23Z</time>
      </trkpt>
      <trkpt lat="59.905704" lon="17.6429559">
        <ele>28.4962</ele>
        <time>2013-04-24T16:03:24Z</time>
      </trkpt>
      <trkpt lat="59.9056518" lon="17.6429412">
        <ele>28.4962</ele>
        <time>2013-04-24T16:03:25Z</time>
      </trkpt>
      <trkpt lat="59.9055993" lon="17.6429278">
        <ele>28.0155</ele>
        <time>2013-04-24T16:03:26Z</time>
      </trkpt>
      <trkpt lat="59.9055465" lon="17.6429181">
        <ele>28.0155</ele>
        <time>2013-04-24T16:03:27Z</time>
      </trkpt>
      <trkpt lat="59.9054936" lon="17.6429138">
        <ele>28.0155</ele>
        <time>2013-04-24T16:03:28Z</time>
      </trkpt>
      <trkpt lat="59.9054408" lon="17.6429086">
        <ele>28.0155</ele>
        <time>2013-04-24T16:03:29Z</time>
      </trkpt>
      <trkpt lat="59.9053876" lon="17.642897">
        <ele>28.0155</ele>
        <time>2013-04-24T16:03:30Z</time>
      </trkpt>
      <trkpt lat="59.9053331" lon="17.6428808">
        <ele>28.0155</ele>
        <time>2013-04-24T16:03:31Z</time>
      </trkpt>
      <trkpt lat="59.9052771" lon="17.6428599">
        <ele>27.5349</ele>
        <time>2013-04-24T16:03:32Z</time>
      </trkpt>
      <trkpt lat="59.9052217" lon="17.642836">
        <ele>27.5349</ele>
        <time>2013-04-24T16:03:33Z</time>
      </trkpt>
      <trkpt lat="59.9051671" lon="17.6428103">
        <ele>27.5349</ele>
        <time>2013-04-24T16:03:34Z</time>
      </trkpt>
      <trkpt lat="59.9051129" lon="17.6427817">
        <ele>27.5349</ele>
        <time>2013-04-24T16:03:35Z</time>
      </trkpt>
      <trkpt lat="59.9050574" lon="17.6427506">
        <ele>27.5349</ele>
        <time>2013-04-24T16:03:36Z</time>
      </trkpt>
      <trkpt lat="59.9049994" lon="17.6427197">
        <ele>27.5349</ele>
        <time>2013-04-24T16:03:37Z</time>
      </trkpt>
      <trkpt lat="59.9049389" lon="17.6426914">
        <ele>27.0543</ele>
        <time>2013-04-24T16:03:38Z</time>
      </trkpt>
      <trkpt lat="59.9048751" lon="17.6426631">
        <ele>27.5349</ele>
        <time>2013-04-24T16:03:39Z</time>
      </trkpt>
      <trkpt lat="59.9048113" lon="17.6426236">
        <ele>27.0543</ele>
        <time>2013-04-24T16:03:40Z</time>
      </trkpt>
      <trkpt lat="59.9047482" lon="17.642576">
        <ele>27.0543</ele>
        <time>2013-04-24T16:03:41Z</time>
      </trkpt>
      <trkpt lat="59.9046856" lon="17.6425295">
        <ele>27.0543</ele>
        <time>2013-04-24T16:03:42Z</time>
      </trkpt>
      <trkpt lat="59.9046247" lon="17.6424881">
        <ele>27.0543</ele>
        <time>2013-04-24T16:03:43Z</time>
      </trkpt>
      <trkpt lat="59.9045679" lon="17.6424493">
        <ele>27.0543</ele>
        <time>2013-04-24T16:03:44Z</time>
      </trkpt>
      <trkpt lat="59.9045163" lon="17.6424128">
        <ele>27.0543</ele>
        <time>2013-04-24T16:03:45Z</time>
      </trkpt>
      <trkpt lat="59.9044676" lon="17.6423803">
        <ele>27.0543</ele>
        <time>2013-04-24T16:03:46Z</time>
      </trkpt>
      <trkpt lat="59.9044194" lon="17.6423529">
        <ele>27.0543</ele>
        <time>2013-04-24T16:03:47Z</time>
      </trkpt>
      <trkpt lat="59.9043717" lon="17.6423273">
        <ele>27.0543</ele>
        <time>2013-04-24T16:03:48Z</time>
      </trkpt>
      <trkpt lat="59.9043251" lon="17.6423008">
        <ele>27.0543</ele>
        <time>2013-04-24T16:03:49Z</time>
      </trkpt>
      <trkpt lat="59.9042798" lon="17.6422744">
        <ele>27.0543</ele>
        <time>2013-04-24T16:03:50Z</time>
      </trkpt>
      <trkpt lat="59.9042354" lon="17.6422486">
        <ele>27.0543</ele>
        <time>2013-04-24T16:03:51Z</time>
      </trkpt>
      <trkpt lat="59.9041925" lon="17.6422215">
        <ele>27.0543</ele>
        <time>2013-04-24T16:03:52Z</time>
      </trkpt>
      <trkpt lat="59.904151" lon="17.6421937">
        <ele>27.0543</ele>
        <time>2013-04-24T16:03:53Z</time>
      </trkpt>
      <trkpt lat="59.9041098" lon="17.6421699">
        <ele>27.5349</ele>
        <time>2013-04-24T16:03:54Z</time>
      </trkpt>
      <trkpt lat="59.9040686" lon="17.6421512">
        <ele>27.5349</ele>
        <time>2013-04-24T16:03:55Z</time>
      </trkpt>
      <trkpt lat="59.904028" lon="17.6421347">
        <ele>27.5349</ele>
        <time>2013-04-24T16:03:56Z</time>
      </trkpt>
      <trkpt lat="59.9039874" lon="17.6421171">
        <ele>27.5349</ele>
        <time>2013-04-24T16:03:57Z</time>
      </trkpt>
      <trkpt lat="59.903948" lon="17.6420972">
        <ele>27.5349</ele>
        <time>2013-04-24T16:03:58Z</time>
      </trkpt>
      <trkpt lat="59.903909" lon="17.6420777">
        <ele>27.5349</ele>
        <time>2013-04-24T16:03:59Z</time>
      </trkpt>
      <trkpt lat="59.9038697" lon="17.6420608">
        <ele>27.5349</ele>
        <time>2013-04-24T16:04:00Z</time>
      </trkpt>
      <trkpt lat="59.9038306" lon="17.6420444">
        <ele>27.5349</ele>
        <time>2013-04-24T16:04:01Z</time>
      </trkpt>
      <trkpt lat="59.9037923" lon="17.6420265">
        <ele>28.0155</ele>
        <time>2013-04-24T16:04:02Z</time>
      </trkpt>
      <trkpt lat="59.9037553" lon="17.6420081">
        <ele>28.0155</ele>
        <time>2013-04-24T16:04:03Z</time>
      </trkpt>
      <trkpt lat="59.9037219" lon="17.6419906">
        <ele>28.0155</ele>
        <time>2013-04-24T16:04:04Z</time>
      </trkpt>
      <trkpt lat="59.9036908" lon="17.6419758">
        <ele>28.4962</ele>
        <time>2013-04-24T16:04:05Z</time>
      </trkpt>
      <trkpt lat="59.9036609" lon="17.6419653">
        <ele>28.4962</ele>
        <time>2013-04-24T16:04:06Z</time>
      </trkpt>
      <trkpt lat="59.9036314" lon="17.6419669">
        <ele>28.4962</ele>
        <time>2013-04-24T16:04:07Z</time>
      </trkpt>
      <trkpt lat="59.903601" lon="17.6419782">
        <ele>28.4962</ele>
        <time>2013-04-24T16:04:08Z</time>
      </trkpt>
      <trkpt lat="59.9035686" lon="17.6419809">
        <ele>28.4962</ele>
        <time>2013-04-24T16:04:09Z</time>
      </trkpt>
      <trkpt lat="59.9035361" lon="17.6419688">
        <ele>28.4962</ele>
        <time>2013-04-24T16:04:10Z</time>
      </trkpt>
      <trkpt lat="59.9035045" lon="17.6419473">
        <ele>28.4962</ele>
        <time>2013-04-24T16:04:11Z</time>
      </trkpt>
      <trkpt lat="59.9034713" lon="17.6419208">
        <ele>28.4962</ele>
        <time>2013-04-24T16:04:12Z</time>
      </trkpt>
      <trkpt lat="59.9034349" lon="17.6418934">
        <ele>28.4962</ele>
        <time>2013-04-24T16:04:13Z</time>
      </trkpt>
      <trkpt lat="59.9033947" lon="17.6418712">
        <ele>28.4962</ele>
        <time>2013-04-24T16:04:14Z</time>
      </trkpt>
      <trkpt lat="59.9033523" lon="17.6418544">
        <ele>28.4962</ele>
        <time>2013-04-24T16:04:15Z</time>
      </trkpt>
      <trkpt lat="59.9033103" lon="17.6418383">
        <ele>28.4962</ele>
        <time>2013-04-24T16:04:16Z</time>
      </trkpt>
      <trkpt lat="59.9032693" lon="17.6418197">
        <ele>28.4962</ele>
        <time>2013-04-24T16:04:17Z</time>
      </trkpt>
      <trkpt lat="59.9032297" lon="17.6417955">
        <ele>28.4962</ele>
        <time>2013-04-24T16:04:18Z</time>
      </trkpt>
      <trkpt lat="59.9031926" lon="17.6417628">
        <ele>28.4962</ele>
        <time>2013-04-24T16:04:19Z</time>
      </trkpt>
      <trkpt lat="59.9031612" lon="17.6417181">
        <ele>28.4962</ele>
        <time>2013-04-24T16:04:20Z</time>
      </trkpt>
      <trkpt lat="59.9031352" lon="17.641666">
        <ele>28.4962</ele>
        <time>2013-04-24T16:04:21Z</time>
      </trkpt>
      <trkpt lat="59.9031098" lon="17.6416132">
        <ele>28.4962</ele>
        <time>2013-04-24T16:04:22Z</time>
      </trkpt>
      <trkpt lat="59.9030807" lon="17.6415623">
        <ele>28.4962</ele>
        <time>2013-04-24T16:04:23Z</time>
      </trkpt>
      <trkpt lat="59.9030475" lon="17.6415158">
        <ele>28.9769</ele>
        <time>2013-04-24T16:04:24Z</time>
      </trkpt>
      <trkpt lat="59.9030109" lon="17.6414758">
        <ele>28.9769</ele>
        <time>2013-04-24T16:04:25Z</time>
      </trkpt>
      <trkpt lat="59.9029724" lon="17.6414411">
        <ele>28.9769</ele>
        <time>2013-04-24T16:04:26Z</time>
      </trkpt>
      <trkpt lat="59.9029324" lon="17.6414088">
        <ele>28.9769</ele>
        <time>2013-04-24T16:04:27Z</time>
      </trkpt>
      <trkpt lat="59.9028927" lon="17.6413779">
        <ele>29.4575</ele>
        <time>2013-04-24T16:04:28Z</time>
      </trkpt>
      <trkpt lat="59.9028553" lon="17.6413472">
        <ele>29.4575</ele>
        <time>2013-04-24T16:04:29Z</time>
      </trkpt>
      <trkpt lat="59.9028182" lon="17.6413163">
        <ele>29.4575</ele>
        <time>2013-04-24T16:04:30Z</time>
      </trkpt>
      <trkpt lat="59.9027818" lon="17.6412888">
        <ele>29.4575</ele>
        <time>2013-04-24T16:04:31Z</time>
      </trkpt>
      <trkpt lat="59.9027451" lon="17.6412699">
        <ele>29.4575</ele>
        <time>2013-04-24T16:04:32Z</time>
      </trkpt>
      <trkpt lat="59.902711" lon="17.6412618">
        <ele>29.4575</ele>
        <time>2013-04-24T16:04:33Z</time>
      </trkpt>
      <trkpt lat="59.9026772" lon="17.6412696">
        <ele>29.4575</ele>
        <time>2013-04-24T16:04:34Z</time>
      </trkpt>
      <trkpt lat="59.9026428" lon="17.641291">
        <ele>29.4575</ele>
        <time>2013-04-24T16:04:35Z</time>
      </trkpt>
      <trkpt lat="59.9026086" lon="17.6413181">
        <ele>29.4575</ele>
        <time>2013-04-24T16:04:36Z</time>
      </trkpt>
      <trkpt lat="59.9025748" lon="17.6413473">
        <ele>28.9769</ele>
        <time>2013-04-24T16:04:37Z</time>
      </trkpt>
      <trkpt lat="59.9025394" lon="17.6413705">
        <ele>28.9769</ele>
        <time>2013-04-24T16:04:38Z</time>
      </trkpt>
      <trkpt lat="59.9025012" lon="17.6413758">
        <ele>28.9769</ele>
        <time>2013-04-24T16:04:39Z</time>
      </trkpt>
      <trkpt lat="59.9024602" lon="17.6413608">
        <ele>28.9769</ele>
        <time>2013-04-24T16:04:40Z</time>
      </trkpt>
      <trkpt lat="59.9024162" lon="17.6413376">
        <ele>28.9769</ele>
        <time>2013-04-24T16:04:41Z</time>
      </trkpt>
      <trkpt lat="59.9023694" lon="17.6413105">
        <ele>28.9769</ele>
        <time>2013-04-24T16:04:42Z</time>
      </trkpt>
      <trkpt lat="59.9023224" lon="17.6412774">
        <ele>28.9769</ele>
        <time>2013-04-24T16:04:43Z</time>
      </trkpt>
      <trkpt lat="59.9022746" lon="17.6412415">
        <ele>28.9769</ele>
        <time>2013-04-24T16:04:44Z</time>
      </trkpt>
      <trkpt lat="59.9022266" lon="17.6412028">
        <ele>28.9769</ele>
        <time>2013-04-24T16:04:45Z</time>
      </trkpt>
      <trkpt lat="59.9021794" lon="17.6411594">
        <ele>28.4962</ele>
        <time>2013-04-24T16:04:46Z</time>
      </trkpt>
      <trkpt lat="59.9021317" lon="17.6411182">
        <ele>28.4962</ele>
        <time>2013-04-24T16:04:47Z</time>
      </trkpt>
      <trkpt lat="59.9020841" lon="17.6410804">
        <ele>28.4962</ele>
        <time>2013-04-24T16:04:48Z</time>
      </trkpt>
      <trkpt lat="59.9020369" lon="17.6410428">
        <ele>28.4962</ele>
        <time>2013-04-24T16:04:49Z</time>
      </trkpt>
      <trkpt lat="59.9019902" lon="17.6410038">
        <ele>28.0155</ele>
        <time>2013-04-24T16:04:50Z</time>
      </trkpt>
      <trkpt lat="59.9019433" lon="17.6409643">
        <ele>28.0155</ele>
        <time>2013-04-24T16:04:51Z</time>
      </trkpt>
      <trkpt lat="59.9018965" lon="17.6409248">
        <ele>28.0155</ele>
        <time>2013-04-24T16:04:52Z</time>
      </trkpt>
      <trkpt lat="59.9018489" lon="17.6408856">
        <ele>28.0155</ele>
        <time>2013-04-24T16:04:53Z</time>
      </trkpt>
      <trkpt lat="59.9018008" lon="17.6408459">
        <ele>28.0155</ele>
        <time>2013-04-24T16:04:54Z</time>
      </trkpt>
      <trkpt lat="59.9017527" lon="17.6408055">
        <ele>28.0155</ele>
        <time>2013-04-24T16:04:55Z</time>
      </trkpt>
      <trkpt lat="59.9017045" lon="17.6407647">
        <ele>28.0155</ele>
        <time>2013-04-24T16:04:56Z</time>
      </trkpt>
      <trkpt lat="59.9016566" lon="17.6407217">
        <ele>28.0155</ele>
        <time>2013-04-24T16:04:57Z</time>
      </trkpt>
      <trkpt lat="59.9016092" lon="17.640678">
        <ele>28.0155</ele>
        <time>2013-04-24T16:04:58Z</time>
      </trkpt>
      <trkpt lat="59.9015633" lon="17.6406345">
        <ele>28.0155</ele>
        <time>2013-04-24T16:04:59Z</time>
      </trkpt>
      <trkpt lat="59.9015183" lon="17.6405914">
        <ele>28.0155</ele>
        <time>2013-04-24T16:05:00Z</time>
      </trkpt>
      <trkpt lat="59.9014734" lon="17.6405494">
        <ele>28.0155</ele>
        <time>2013-04-24T16:05:01Z</time>
      </trkpt>
      <trkpt lat="59.9014283" lon="17.6405096">
        <ele>28.0155</ele>
        <time>2013-04-24T16:05:02Z</time>
      </trkpt>
      <trkpt lat="59.901383" lon="17.6404698">
        <ele>28.0155</ele>
        <time>2013-04-24T16:05:03Z</time>
      </trkpt>
      <trkpt lat="59.9013375" lon="17.6404278">
        <ele>28.0155</ele>
        <time>2013-04-24T16:05:04Z</time>
      </trkpt>
      <trkpt lat="59.901292" lon="17.640385">
        <ele>28.0155</ele>
        <time>2013-04-24T16:05:05Z</time>
      </trkpt>
      <trkpt lat="59.9012468" lon="17.640341">
        <ele>28.0155</ele>
        <time>2013-04-24T16:05:06Z</time>
      </trkpt>
      <trkpt lat="59.9012019" lon="17.6402943">
        <ele>28.0155</ele>
        <time>2013-04-24T16:05:07Z</time>
      </trkpt>
      <trkpt lat="59.9011572" lon="17.6402484">
        <ele>28.0155</ele>
        <time>2013-04-24T16:05:08Z</time>
      </trkpt>
      <trkpt lat="59.9011121" lon="17.6402052">
        <ele>28.0155</ele>
        <time>2013-04-24T16:05:09Z</time>
      </trkpt>
      <trkpt lat="59.9010667" lon="17.6401637">
        <ele>28.0155</ele>
        <time>2013-04-24T16:05:10Z</time>
      </trkpt>
      <trkpt lat="59.9010215" lon="17.6401202">
        <ele>28.0155</ele>
        <time>2013-04-24T16:05:11Z</time>
      </trkpt>
      <trkpt lat="59.9009766" lon="17.6400746">
        <ele>28.0155</ele>
        <time>2013-04-24T16:05:12Z</time>
      </trkpt>
      <trkpt lat="59.9009313" lon="17.6400275">
        <ele>28.0155</ele>
        <time>2013-04-24T16:05:13Z</time>
      </trkpt>
      <trkpt lat="59.9008853" lon="17.6399806">
        <ele>28.0155</ele>
        <time>2013-04-24T16:05:14Z</time>
      </trkpt>
      <trkpt lat="59.9008397" lon="17.6399337">
        <ele>28.0155</ele>
        <time>2013-04-24T16:05:15Z</time>
      </trkpt>
      <trkpt lat="59.9007943" lon="17.6398869">
        <ele>28.0155</ele>
        <time>2013-04-24T16:05:16Z</time>
      </trkpt>
      <trkpt lat="59.9007487" lon="17.6398389">
        <ele>28.4962</ele>
        <time>2013-04-24T16:05:17Z</time>
      </trkpt>
      <trkpt lat="59.9007019" lon="17.6397907">
        <ele>28.4962</ele>
        <time>2013-04-24T16:05:18Z</time>
      </trkpt>
      <trkpt lat="59.9006547" lon="17.6397423">
        <ele>28.4962</ele>
        <time>2013-04-24T16:05:19Z</time>
      </trkpt>
      <trkpt lat="59.9006078" lon="17.6396926">
        <ele>28.4962</ele>
        <time>2013-04-24T16:05:20Z</time>
      </trkpt>
      <trkpt lat="59.9005611" lon="17.6396439">
        <ele>28.4962</ele>
        <time>2013-04-24T16:05:21Z</time>
      </trkpt>
      <trkpt lat="59.9005147" lon="17.6395971">
        <ele>28.4962</ele>
        <time>2013-04-24T16:05:22Z</time>
      </trkpt>
      <trkpt lat="59.9004694" lon="17.6395503">
        <ele>28.4962</ele>
        <time>2013-04-24T16:05:23Z</time>
      </trkpt>
      <trkpt lat="59.9004244" lon="17.6395035">
        <ele>28.4962</ele>
        <time>2013-04-24T16:05:24Z</time>
      </trkpt>
      <trkpt lat="59.9003793" lon="17.6394571">
        <ele>28.4962</ele>
        <time>2013-04-24T16:05:25Z</time>
      </trkpt>
      <trkpt lat="59.9003342" lon="17.6394116">
        <ele>28.9769</ele>
        <time>2013-04-24T16:05:26Z</time>
      </trkpt>
      <trkpt lat="59.9002891" lon="17.6393659">
        <ele>28.9769</ele>
        <time>2013-04-24T16:05:27Z</time>
      </trkpt>
      <trkpt lat="59.9002439" lon="17.63932">
        <ele>28.9769</ele>
        <time>2013-04-24T16:05:28Z</time>
      </trkpt>
      <trkpt lat="59.9001986" lon="17.6392763">
        <ele>28.9769</ele>
        <time>2013-04-24T16:05:29Z</time>
      </trkpt>
      <trkpt lat="59.9001545" lon="17.6392339">
        <ele>28.9769</ele>
        <time>2013-04-24T16:05:30Z</time>
      </trkpt>
      <trkpt lat="59.9001116" lon="17.6391909">
        <ele>28.9769</ele>
        <time>2013-04-24T16:05:31Z</time>
      </trkpt>
      <trkpt lat="59.9000694" lon="17.6391489">
        <ele>28.9769</ele>
        <time>2013-04-24T16:05:32Z</time>
      </trkpt>
      <trkpt lat="59.900028" lon="17.6391079">
        <ele>28.9769</ele>
        <time>2013-04-24T16:05:33Z</time>
      </trkpt>
      <trkpt lat="59.8999857" lon="17.6390671">
        <ele>28.9769</ele>
        <time>2013-04-24T16:05:34Z</time>
      </trkpt>
      <trkpt lat="59.8999435" lon="17.6390246">
        <ele>28.9769</ele>
        <time>2013-04-24T16:05:35Z</time>
      </trkpt>
      <trkpt lat="59.8999006" lon="17.63898">
        <ele>29.4575</ele>
        <time>2013-04-24T16:05:36Z</time>
      </trkpt>
      <trkpt lat="59.8998571" lon="17.638934">
        <ele>29.4575</ele>
        <time>2013-04-24T16:05:37Z</time>
      </trkpt>
      <trkpt lat="59.8998132" lon="17.638889">
        <ele>29.4575</ele>
        <time>2013-04-24T16:05:38Z</time>
      </trkpt>
      <trkpt lat="59.8997695" lon="17.6388441">
        <ele>29.9381</ele>
        <time>2013-04-24T16:05:39Z</time>
      </trkpt>
      <trkpt lat="59.8997261" lon="17.6387982">
        <ele>29.9381</ele>
        <time>2013-04-24T16:05:40Z</time>
      </trkpt>
      <trkpt lat="59.899682" lon="17.6387542">
        <ele>30.4188</ele>
        <time>2013-04-24T16:05:41Z</time>
      </trkpt>
      <trkpt lat="59.8996381" lon="17.6387105">
        <ele>30.8995</ele>
        <time>2013-04-24T16:05:42Z</time>
      </trkpt>
      <trkpt lat="59.8995947" lon="17.6386656">
        <ele>30.8995</ele>
        <time>2013-04-24T16:05:43Z</time>
      </trkpt>
      <trkpt lat="59.8995516" lon="17.6386205">
        <ele>30.8995</ele>
        <time>2013-04-24T16:05:44Z</time>
      </trkpt>
      <trkpt lat="59.8995084" lon="17.6385768">
        <ele>31.3801</ele>
        <time>2013-04-24T16:05:45Z</time>
      </trkpt>
      <trkpt lat="59.899465" lon="17.6385343">
        <ele>31.3801</ele>
        <time>2013-04-24T16:05:46Z</time>
      </trkpt>
      <trkpt lat="59.8994225" lon="17.6384926">
        <ele>31.3801</ele>
        <time>2013-04-24T16:05:47Z</time>
      </trkpt>
      <trkpt lat="59.8993796" lon="17.6384532">
        <ele>31.3801</ele>
        <time>2013-04-24T16:05:48Z</time>
      </trkpt>
      <trkpt lat="59.8993365" lon="17.6384144">
        <ele>31.8607</ele>
        <time>2013-04-24T16:05:49Z</time>
      </trkpt>
      <trkpt lat="59.8992937" lon="17.6383739">
        <ele>31.8607</ele>
        <time>2013-04-24T16:05:50Z</time>
      </trkpt>
      <trkpt lat="59.8992504" lon="17.6383311">
        <ele>32.3416</ele>
        <time>2013-04-24T16:05:51Z</time>
      </trkpt>
      <trkpt lat="59.8992058" lon="17.6382898">
        <ele>32.3416</ele>
        <time>2013-04-24T16:05:52Z</time>
      </trkpt>
      <trkpt lat="59.8991618" lon="17.6382536">
        <ele>32.8223</ele>
        <time>2013-04-24T16:05:53Z</time>
      </trkpt>
      <trkpt lat="59.8991186" lon="17.6382212">
        <ele>32.8223</ele>
        <time>2013-04-24T16:05:54Z</time>
      </trkpt>
      <trkpt lat="59.8990764" lon="17.638188">
        <ele>32.8223</ele>
        <time>2013-04-24T16:05:55Z</time>
      </trkpt>
      <trkpt lat="59.8990352" lon="17.6381528">
        <ele>33.3029</ele>
        <time>2013-04-24T16:05:56Z</time>
      </trkpt>
      <trkpt lat="59.8989957" lon="17.638115">
        <ele>33.3029</ele>
        <time>2013-04-24T16:05:57Z</time>
      </trkpt>
      <trkpt lat="59.8989577" lon="17.6380786">
        <ele>33.3029</ele>
        <time>2013-04-24T16:05:58Z</time>
      </trkpt>
      <trkpt lat="59.8989227" lon="17.6380457">
        <ele>33.3029</ele>
        <time>2013-04-24T16:05:59Z</time>
      </trkpt>
      <trkpt lat="59.8988916" lon="17.6380128">
        <ele>33.3029</ele>
        <time>2013-04-24T16:06:00Z</time>
      </trkpt>
      <trkpt lat="59.8988634" lon="17.6379804">
        <ele>33.3029</ele>
        <time>2013-04-24T16:06:01Z</time>
      </trkpt>
      <trkpt lat="59.8988365" lon="17.6379533">
        <ele>33.3029</ele>
        <time>2013-04-24T16:06:02Z</time>
      </trkpt>
      <trkpt lat="59.8988098" lon="17.637943">
        <ele>33.3029</ele>
        <time>2013-04-24T16:06:03Z</time>
      </trkpt>
      <trkpt lat="59.8987864" lon="17.6379544">
        <ele>33.3029</ele>
        <time>2013-04-24T16:06:04Z</time>
      </trkpt>
      <trkpt lat="59.8987693" lon="17.6379808">
        <ele>33.7834</ele>
        <time>2013-04-24T16:06:05Z</time>
      </trkpt>
      <trkpt lat="59.8987553" lon="17.6380119">
        <ele>33.7834</ele>
        <time>2013-04-24T16:06:06Z</time>
      </trkpt>
      <trkpt lat="59.8987398" lon="17.6380417">
        <ele>33.7834</ele>
        <time>2013-04-24T16:06:07Z</time>
      </trkpt>
      <trkpt lat="59.8987206" lon="17.6380726">
        <ele>33.7834</ele>
        <time>2013-04-24T16:06:08Z</time>
      </trkpt>
      <trkpt lat="59.8986954" lon="17.6381044">
        <ele>33.7834</ele>
        <time>2013-04-24T16:06:09Z</time>
      </trkpt>
      <trkpt lat="59.8986637" lon="17.6381304">
        <ele>33.7834</ele>
        <time>2013-04-24T16:06:10Z</time>
      </trkpt>
      <trkpt lat="59.8986277" lon="17.6381526">
        <ele>33.7834</ele>
        <time>2013-04-24T16:06:11Z</time>
      </trkpt>
      <trkpt lat="59.8985922" lon="17.63817">
        <ele>33.7834</ele>
        <time>2013-04-24T16:06:12Z</time>
      </trkpt>
      <trkpt lat="59.8985591" lon="17.6381817">
        <ele>33.7834</ele>
        <time>2013-04-24T16:06:13Z</time>
      </trkpt>
      <trkpt lat="59.8985289" lon="17.6381811">
        <ele>33.7834</ele>
        <time>2013-04-24T16:06:14Z</time>
      </trkpt>
      <trkpt lat="59.8984989" lon="17.6381616">
        <ele>33.7834</ele>
        <time>2013-04-24T16:06:15Z</time>
      </trkpt>
      <trkpt lat="59.8984643" lon="17.6381322">
        <ele>33.7834</ele>
        <time>2013-04-24T16:06:16Z</time>
      </trkpt>
      <trkpt lat="59.898425" lon="17.6380997">
        <ele>33.7834</ele>
        <time>2013-04-24T16:06:17Z</time>
      </trkpt>
      <trkpt lat="59.8983841" lon="17.6380635">
        <ele>33.3029</ele>
        <time>2013-04-24T16:06:18Z</time>
      </trkpt>
      <trkpt lat="59.898342" lon="17.6380279">
        <ele>33.3029</ele>
        <time>2013-04-24T16:06:19Z</time>
      </trkpt>
      <trkpt lat="59.8982984" lon="17.6379917">
        <ele>33.3029</ele>
        <time>2013-04-24T16:06:20Z</time>
      </trkpt>
      <trkpt lat="59.8982523" lon="17.6379533">
        <ele>33.3029</ele>
        <time>2013-04-24T16:06:21Z</time>
      </trkpt>
      <trkpt lat="59.898204" lon="17.6379124">
        <ele>33.3029</ele>
        <time>2013-04-24T16:06:22Z</time>
      </trkpt>
      <trkpt lat="59.8981539" lon="17.6378684">
        <ele>33.3029</ele>
        <time>2013-04-24T16:06:23Z</time>
      </trkpt>
      <trkpt lat="59.8981017" lon="17.6378223">
        <ele>33.3029</ele>
        <time>2013-04-24T16:06:24Z</time>
      </trkpt>
      <trkpt lat="59.8980477" lon="17.6377685">
        <ele>32.8223</ele>
        <time>2013-04-24T16:06:25Z</time>
      </trkpt>
      <trkpt lat="59.8979944" lon="17.6377024">
        <ele>32.8223</ele>
        <time>2013-04-24T16:06:26Z</time>
      </trkpt>
      <trkpt lat="59.8979431" lon="17.6376265">
        <ele>32.8223</ele>
        <time>2013-04-24T16:06:27Z</time>
      </trkpt>
      <trkpt lat="59.8978965" lon="17.63754">
        <ele>32.8223</ele>
        <time>2013-04-24T16:06:28Z</time>
      </trkpt>
      <trkpt lat="59.8978549" lon="17.6374451">
        <ele>32.8223</ele>
        <time>2013-04-24T16:06:29Z</time>
      </trkpt>
      <trkpt lat="59.8978131" lon="17.6373556">
        <ele>33.3029</ele>
        <time>2013-04-24T16:06:30Z</time>
      </trkpt>
      <trkpt lat="59.897766" lon="17.6372815">
        <ele>33.3029</ele>
        <time>2013-04-24T16:06:31Z</time>
      </trkpt>
      <trkpt lat="59.8977142" lon="17.6372255">
        <ele>33.3029</ele>
        <time>2013-04-24T16:06:32Z</time>
      </trkpt>
      <trkpt lat="59.8976603" lon="17.6371824">
        <ele>33.3029</ele>
        <time>2013-04-24T16:06:33Z</time>
      </trkpt>
      <trkpt lat="59.8976054" lon="17.6371438">
        <ele>33.7834</ele>
        <time>2013-04-24T16:06:34Z</time>
      </trkpt>
      <trkpt lat="59.8975495" lon="17.6371079">
        <ele>33.7834</ele>
        <time>2013-04-24T16:06:35Z</time>
      </trkpt>
      <trkpt lat="59.897493" lon="17.6370727">
        <ele>33.7834</ele>
        <time>2013-04-24T16:06:36Z</time>
      </trkpt>
      <trkpt lat="59.897436" lon="17.6370401">
        <ele>33.7834</ele>
        <time>2013-04-24T16:06:37Z</time>
      </trkpt>
      <trkpt lat="59.8973786" lon="17.6370107">
        <ele>34.2642</ele>
        <time>2013-04-24T16:06:38Z</time>
      </trkpt>
      <trkpt lat="59.8973221" lon="17.636981">
        <ele>34.2642</ele>
        <time>2013-04-24T16:06:39Z</time>
      </trkpt>
      <trkpt lat="59.8972666" lon="17.6369524">
        <ele>34.2642</ele>
        <time>2013-04-24T16:06:40Z</time>
      </trkpt>
      <trkpt lat="59.8972127" lon="17.6369245">
        <ele>34.7449</ele>
        <time>2013-04-24T16:06:41Z</time>
      </trkpt>
      <trkpt lat="59.897161" lon="17.6368959">
        <ele>34.7449</ele>
        <time>2013-04-24T16:06:42Z</time>
      </trkpt>
      <trkpt lat="59.8971138" lon="17.6368572">
        <ele>34.7449</ele>
        <time>2013-04-24T16:06:43Z</time>
      </trkpt>
      <trkpt lat="59.8970676" lon="17.6368149">
        <ele>34.7449</ele>
        <time>2013-04-24T16:06:44Z</time>
      </trkpt>
      <trkpt lat="59.8970199" lon="17.6367805">
        <ele>34.7449</ele>
        <time>2013-04-24T16:06:45Z</time>
      </trkpt>
      <trkpt lat="59.8969707" lon="17.6367529">
        <ele>34.7449</ele>
        <time>2013-04-24T16:06:46Z</time>
      </trkpt>
      <trkpt lat="59.8969206" lon="17.6367291">
        <ele>34.7449</ele>
        <time>2013-04-24T16:06:47Z</time>
      </trkpt>
      <trkpt lat="59.8968703" lon="17.6367065">
        <ele>34.7449</ele>
        <time>2013-04-24T16:06:48Z</time>
      </trkpt>
      <trkpt lat="59.8968209" lon="17.6366851">
        <ele>35.2255</ele>
        <time>2013-04-24T16:06:49Z</time>
      </trkpt>
      <trkpt lat="59.8967717" lon="17.6366643">
        <ele>35.2255</ele>
        <time>2013-04-24T16:06:50Z</time>
      </trkpt>
      <trkpt lat="59.8967233" lon="17.6366428">
        <ele>35.2255</ele>
        <time>2013-04-24T16:06:51Z</time>
      </trkpt>
      <trkpt lat="59.8966751" lon="17.6366215">
        <ele>35.2255</ele>
        <time>2013-04-24T16:06:52Z</time>
      </trkpt>
      <trkpt lat="59.8966269" lon="17.6366032">
        <ele>35.7061</ele>
        <time>2013-04-24T16:06:53Z</time>
      </trkpt>
      <trkpt lat="59.8965792" lon="17.6365892">
        <ele>35.7061</ele>
        <time>2013-04-24T16:06:54Z</time>
      </trkpt>
      <trkpt lat="59.8965324" lon="17.6365765">
        <ele>35.7061</ele>
        <time>2013-04-24T16:06:55Z</time>
      </trkpt>
      <trkpt lat="59.8964861" lon="17.6365616">
        <ele>35.7061</ele>
        <time>2013-04-24T16:06:56Z</time>
      </trkpt>
      <trkpt lat="59.8964405" lon="17.6365441">
        <ele>35.7061</ele>
        <time>2013-04-24T16:06:57Z</time>
      </trkpt>
      <trkpt lat="59.8963957" lon="17.6365247">
        <ele>35.7061</ele>
        <time>2013-04-24T16:06:58Z</time>
      </trkpt>
      <trkpt lat="59.8963509" lon="17.636506">
        <ele>35.7061</ele>
        <time>2013-04-24T16:06:59Z</time>
      </trkpt>
      <trkpt lat="59.8963046" lon="17.6364887">
        <ele>35.7061</ele>
        <time>2013-04-24T16:07:00Z</time>
      </trkpt>
      <trkpt lat="59.896256" lon="17.6364699">
        <ele>35.7061</ele>
        <time>2013-04-24T16:07:01Z</time>
      </trkpt>
      <trkpt lat="59.8962068" lon="17.63645">
        <ele>35.7061</ele>
        <time>2013-04-24T16:07:02Z</time>
      </trkpt>
      <trkpt lat="59.8961585" lon="17.6364294">
        <ele>35.7061</ele>
        <time>2013-04-24T16:07:03Z</time>
      </trkpt>
      <trkpt lat="59.8961098" lon="17.6364105">
        <ele>35.7061</ele>
        <time>2013-04-24T16:07:04Z</time>
      </trkpt>
      <trkpt lat="59.896061" lon="17.636394">
        <ele>35.7061</ele>
        <time>2013-04-24T16:07:05Z</time>
      </trkpt>
      <trkpt lat="59.8960123" lon="17.6363821">
        <ele>35.7061</ele>
        <time>2013-04-24T16:07:06Z</time>
      </trkpt>
      <trkpt lat="59.8959647" lon="17.6363781">
        <ele>35.7061</ele>
        <time>2013-04-24T16:07:07Z</time>
      </trkpt>
      <trkpt lat="59.8959181" lon="17.6363784">
        <ele>35.7061</ele>
        <time>2013-04-24T16:07:08Z</time>
      </trkpt>
      <trkpt lat="59.8958715" lon="17.6363796">
        <ele>35.7061</ele>
        <time>2013-04-24T16:07:09Z</time>
      </trkpt>
      <trkpt lat="59.8958241" lon="17.6363808">
        <ele>36.1868</ele>
        <time>2013-04-24T16:07:10Z</time>
      </trkpt>
      <trkpt lat="59.8957758" lon="17.6363858">
        <ele>35.7061</ele>
        <time>2013-04-24T16:07:11Z</time>
      </trkpt>
      <trkpt lat="59.8957267" lon="17.6363957">
        <ele>35.7061</ele>
        <time>2013-04-24T16:07:12Z</time>
      </trkpt>
      <trkpt lat="59.8956773" lon="17.6364093">
        <ele>35.7061</ele>
        <time>2013-04-24T16:07:13Z</time>
      </trkpt>
      <trkpt lat="59.8956271" lon="17.6364266">
        <ele>35.7061</ele>
        <time>2013-04-24T16:07:14Z</time>
      </trkpt>
      <trkpt lat="59.8955761" lon="17.6364465">
        <ele>35.7061</ele>
        <time>2013-04-24T16:07:15Z</time>
      </trkpt>
      <trkpt lat="59.8955245" lon="17.6364721">
        <ele>35.7061</ele>
        <time>2013-04-24T16:07:16Z</time>
      </trkpt>
      <trkpt lat="59.8954727" lon="17.6365035">
        <ele>35.7061</ele>
        <time>2013-04-24T16:07:17Z</time>
      </trkpt>
      <trkpt lat="59.8954204" lon="17.6365387">
        <ele>35.2255</ele>
        <time>2013-04-24T16:07:18Z</time>
      </trkpt>
      <trkpt lat="59.8953672" lon="17.6365752">
        <ele>35.2255</ele>
        <time>2013-04-24T16:07:19Z</time>
      </trkpt>
      <trkpt lat="59.8953126" lon="17.6366117">
        <ele>35.2255</ele>
        <time>2013-04-24T16:07:20Z</time>
      </trkpt>
      <trkpt lat="59.8952563" lon="17.636649">
        <ele>35.2255</ele>
        <time>2013-04-24T16:07:21Z</time>
      </trkpt>
      <trkpt lat="59.8951991" lon="17.6366863">
        <ele>35.7061</ele>
        <time>2013-04-24T16:07:22Z</time>
      </trkpt>
      <trkpt lat="59.8951406" lon="17.6367218">
        <ele>35.2255</ele>
        <time>2013-04-24T16:07:23Z</time>
      </trkpt>
      <trkpt lat="59.8950811" lon="17.6367581">
        <ele>35.2255</ele>
        <time>2013-04-24T16:07:24Z</time>
      </trkpt>
      <trkpt lat="59.8950209" lon="17.6367972">
        <ele>35.2255</ele>
        <time>2013-04-24T16:07:25Z</time>
      </trkpt>
      <trkpt lat="59.8949599" lon="17.6368381">
        <ele>35.2255</ele>
        <time>2013-04-24T16:07:26Z</time>
      </trkpt>
      <trkpt lat="59.8948982" lon="17.6368774">
        <ele>35.2255</ele>
        <time>2013-04-24T16:07:27Z</time>
      </trkpt>
      <trkpt lat="59.8948351" lon="17.6369132">
        <ele>35.2255</ele>
        <time>2013-04-24T16:07:28Z</time>
      </trkpt>
      <trkpt lat="59.8947723" lon="17.636947">
        <ele>35.7061</ele>
        <time>2013-04-24T16:07:29Z</time>
      </trkpt>
      <trkpt lat="59.8947114" lon="17.6369847">
        <ele>35.2255</ele>
        <time>2013-04-24T16:07:30Z</time>
      </trkpt>
      <trkpt lat="59.8946517" lon="17.6370269">
        <ele>35.2255</ele>
        <time>2013-04-24T16:07:31Z</time>
      </trkpt>
      <trkpt lat="59.8945916" lon="17.6370697">
        <ele>35.2255</ele>
        <time>2013-04-24T16:07:32Z</time>
      </trkpt>
      <trkpt lat="59.8945311" lon="17.6371116">
        <ele>35.2255</ele>
        <time>2013-04-24T16:07:33Z</time>
      </trkpt>
      <trkpt lat="59.89447" lon="17.6371528">
        <ele>35.2255</ele>
        <time>2013-04-24T16:07:34Z</time>
      </trkpt>
      <trkpt lat="59.8944088" lon="17.6371939">
        <ele>35.7061</ele>
        <time>2013-04-24T16:07:35Z</time>
      </trkpt>
      <trkpt lat="59.894348" lon="17.6372338">
        <ele>35.7061</ele>
        <time>2013-04-24T16:07:36Z</time>
      </trkpt>
      <trkpt lat="59.894287" lon="17.6372728">
        <ele>35.7061</ele>
        <time>2013-04-24T16:07:37Z</time>
      </trkpt>
      <trkpt lat="59.8942257" lon="17.6373147">
        <ele>35.7061</ele>
        <time>2013-04-24T16:07:38Z</time>
      </trkpt>
      <trkpt lat="59.8941642" lon="17.6373602">
        <ele>35.7061</ele>
        <time>2013-04-24T16:07:39Z</time>
      </trkpt>
      <trkpt lat="59.8941022" lon="17.6374068">
        <ele>35.7061</ele>
        <time>2013-04-24T16:07:40Z</time>
      </trkpt>
      <trkpt lat="59.8940402" lon="17.6374531">
        <ele>35.2255</ele>
        <time>2013-04-24T16:07:41Z</time>
      </trkpt>
      <trkpt lat="59.8939773" lon="17.6375006">
        <ele>35.2255</ele>
        <time>2013-04-24T16:07:42Z</time>
      </trkpt>
      <trkpt lat="59.8939146" lon="17.637548">
        <ele>35.2255</ele>
        <time>2013-04-24T16:07:43Z</time>
      </trkpt>
      <trkpt lat="59.8938525" lon="17.6375936">
        <ele>35.2255</ele>
        <time>2013-04-24T16:07:44Z</time>
      </trkpt>
      <trkpt lat="59.8937906" lon="17.637639">
        <ele>35.2255</ele>
        <time>2013-04-24T16:07:45Z</time>
      </trkpt>
      <trkpt lat="59.8937285" lon="17.6376858">
        <ele>34.7449</ele>
        <time>2013-04-24T16:07:46Z</time>
      </trkpt>
      <trkpt lat="59.893665" lon="17.6377302">
        <ele>34.7449</ele>
        <time>2013-04-24T16:07:47Z</time>
      </trkpt>
      <trkpt lat="59.8936001" lon="17.6377724">
        <ele>34.7449</ele>
        <time>2013-04-24T16:07:48Z</time>
      </trkpt>
      <trkpt lat="59.8935354" lon="17.6378146">
        <ele>34.7449</ele>
        <time>2013-04-24T16:07:49Z</time>
      </trkpt>
      <trkpt lat="59.8934699" lon="17.6378585">
        <ele>34.7449</ele>
        <time>2013-04-24T16:07:50Z</time>
      </trkpt>
      <trkpt lat="59.8934038" lon="17.6379031">
        <ele>34.2642</ele>
        <time>2013-04-24T16:07:51Z</time>
      </trkpt>
      <trkpt lat="59.8933374" lon="17.6379476">
        <ele>34.2642</ele>
        <time>2013-04-24T16:07:52Z</time>
      </trkpt>
      <trkpt lat="59.8932703" lon="17.6379895">
        <ele>34.2642</ele>
        <time>2013-04-24T16:07:53Z</time>
      </trkpt>
      <trkpt lat="59.8932029" lon="17.6380289">
        <ele>33.7834</ele>
        <time>2013-04-24T16:07:54Z</time>
      </trkpt>
      <trkpt lat="59.8931348" lon="17.6380658">
        <ele>33.7834</ele>
        <time>2013-04-24T16:07:55Z</time>
      </trkpt>
      <trkpt lat="59.8930657" lon="17.6381015">
        <ele>33.3029</ele>
        <time>2013-04-24T16:07:56Z</time>
      </trkpt>
      <trkpt lat="59.8929957" lon="17.6381362">
        <ele>33.3029</ele>
        <time>2013-04-24T16:07:57Z</time>
      </trkpt>
      <trkpt lat="59.8929248" lon="17.6381652">
        <ele>32.8223</ele>
        <time>2013-04-24T16:07:58Z</time>
      </trkpt>
      <trkpt lat="59.8928537" lon="17.638188">
        <ele>32.8223</ele>
        <time>2013-04-24T16:07:59Z</time>
      </trkpt>
      <trkpt lat="59.8927802" lon="17.6381987">
        <ele>32.3416</ele>
        <time>2013-04-24T16:08:00Z</time>
      </trkpt>
      <trkpt lat="59.8927045" lon="17.6381936">
        <ele>31.8607</ele>
        <time>2013-04-24T16:08:01Z</time>
      </trkpt>
      <trkpt lat="59.8926273" lon="17.6381795">
        <ele>31.8607</ele>
        <time>2013-04-24T16:08:02Z</time>
      </trkpt>
      <trkpt lat="59.8925496" lon="17.6381708">
        <ele>31.3801</ele>
        <time>2013-04-24T16:08:03Z</time>
      </trkpt>
      <trkpt lat="59.8924719" lon="17.6381775">
        <ele>31.3801</ele>
        <time>2013-04-24T16:08:04Z</time>
      </trkpt>
      <trkpt lat="59.8923921" lon="17.6381925">
        <ele>30.8995</ele>
        <time>2013-04-24T16:08:05Z</time>
      </trkpt>
      <trkpt lat="59.8923112" lon="17.6382083">
        <ele>30.8995</ele>
        <time>2013-04-24T16:08:06Z</time>
      </trkpt>
      <trkpt lat="59.8922303" lon="17.6382279">
        <ele>30.4188</ele>
        <time>2013-04-24T16:08:07Z</time>
      </trkpt>
      <trkpt lat="59.8921508" lon="17.6382667">
        <ele>30.4188</ele>
        <time>2013-04-24T16:08:08Z</time>
      </trkpt>
      <trkpt lat="59.8920767" lon="17.6383309">
        <ele>29.9381</ele>
        <time>2013-04-24T16:08:09Z</time>
      </trkpt>
      <trkpt lat="59.8920024" lon="17.6383879">
        <ele>29.9381</ele>
        <time>2013-04-24T16:08:10Z</time>
      </trkpt>
      <trkpt lat="59.8919221" lon="17.6384206">
        <ele>29.9381</ele>
        <time>2013-04-24T16:08:11Z</time>
      </trkpt>
      <trkpt lat="59.8918389" lon="17.6384381">
        <ele>29.9381</ele>
        <time>2013-04-24T16:08:12Z</time>
      </trkpt>
      <trkpt lat="59.891755" lon="17.6384513">
        <ele>29.4575</ele>
        <time>2013-04-24T16:08:13Z</time>
      </trkpt>
      <trkpt lat="59.8916711" lon="17.6384623">
        <ele>29.4575</ele>
        <time>2013-04-24T16:08:14Z</time>
      </trkpt>
      <trkpt lat="59.8915872" lon="17.6384699">
        <ele>29.4575</ele>
        <time>2013-04-24T16:08:15Z</time>
      </trkpt>
      <trkpt lat="59.8915028" lon="17.638476">
        <ele>28.9769</ele>
        <time>2013-04-24T16:08:16Z</time>
      </trkpt>
      <trkpt lat="59.8914188" lon="17.6384789">
        <ele>28.9769</ele>
        <time>2013-04-24T16:08:17Z</time>
      </trkpt>
      <trkpt lat="59.8913349" lon="17.6384786">
        <ele>28.9769</ele>
        <time>2013-04-24T16:08:18Z</time>
      </trkpt>
      <trkpt lat="59.8912513" lon="17.6384746">
        <ele>28.9769</ele>
        <time>2013-04-24T16:08:19Z</time>
      </trkpt>
      <trkpt lat="59.8911686" lon="17.6384682">
        <ele>28.9769</ele>
        <time>2013-04-24T16:08:20Z</time>
      </trkpt>
      <trkpt lat="59.8910867" lon="17.6384605">
        <ele>28.9769</ele>
        <time>2013-04-24T16:08:21Z</time>
      </trkpt>
      <trkpt lat="59.8910054" lon="17.63845">
        <ele>28.9769</ele>
        <time>2013-04-24T16:08:22Z</time>
      </trkpt>
      <trkpt lat="59.8909245" lon="17.6384377">
        <ele>28.9769</ele>
        <time>2013-04-24T16:08:23Z</time>
      </trkpt>
      <trkpt lat="59.8908441" lon="17.638425">
        <ele>28.4962</ele>
        <time>2013-04-24T16:08:24Z</time>
      </trkpt>
      <trkpt lat="59.8907649" lon="17.6384127">
        <ele>28.4962</ele>
        <time>2013-04-24T16:08:25Z</time>
      </trkpt>
      <trkpt lat="59.8906869" lon="17.6383973">
        <ele>28.4962</ele>
        <time>2013-04-24T16:08:26Z</time>
      </trkpt>
      <trkpt lat="59.8906093" lon="17.6383803">
        <ele>28.4962</ele>
        <time>2013-04-24T16:08:27Z</time>
      </trkpt>
      <trkpt lat="59.8905331" lon="17.6383626">
        <ele>28.4962</ele>
        <time>2013-04-24T16:08:28Z</time>
      </trkpt>
      <trkpt lat="59.8904584" lon="17.638342">
        <ele>28.0155</ele>
        <time>2013-04-24T16:08:29Z</time>
      </trkpt>
      <trkpt lat="59.8903844" lon="17.6383205">
        <ele>28.0155</ele>
        <time>2013-04-24T16:08:30Z</time>
      </trkpt>
      <trkpt lat="59.8903108" lon="17.6382993">
        <ele>28.0155</ele>
        <time>2013-04-24T16:08:31Z</time>
      </trkpt>
      <trkpt lat="59.8902372" lon="17.638278">
        <ele>28.0155</ele>
        <time>2013-04-24T16:08:32Z</time>
      </trkpt>
      <trkpt lat="59.8901645" lon="17.6382549">
        <ele>27.5349</ele>
        <time>2013-04-24T16:08:33Z</time>
      </trkpt>
      <trkpt lat="59.8900925" lon="17.6382288">
        <ele>27.5349</ele>
        <time>2013-04-24T16:08:34Z</time>
      </trkpt>
      <trkpt lat="59.8900207" lon="17.6382016">
        <ele>27.5349</ele>
        <time>2013-04-24T16:08:35Z</time>
      </trkpt>
      <trkpt lat="59.8899497" lon="17.6381731">
        <ele>27.0543</ele>
        <time>2013-04-24T16:08:36Z</time>
      </trkpt>
      <trkpt lat="59.8898799" lon="17.6381422">
        <ele>27.0543</ele>
        <time>2013-04-24T16:08:37Z</time>
      </trkpt>
      <trkpt lat="59.8898108" lon="17.6381098">
        <ele>26.5736</ele>
        <time>2013-04-24T16:08:38Z</time>
      </trkpt>
      <trkpt lat="59.8897415" lon="17.6380782">
        <ele>26.5736</ele>
        <time>2013-04-24T16:08:39Z</time>
      </trkpt>
      <trkpt lat="59.8896731" lon="17.6380462">
        <ele>26.5736</ele>
        <time>2013-04-24T16:08:40Z</time>
      </trkpt>
      <trkpt lat="59.8896063" lon="17.6380141">
        <ele>26.5736</ele>
        <time>2013-04-24T16:08:41Z</time>
      </trkpt>
      <trkpt lat="59.8895395" lon="17.6379858">
        <ele>26.5736</ele>
        <time>2013-04-24T16:08:42Z</time>
      </trkpt>
      <trkpt lat="59.8894729" lon="17.6379591">
        <ele>26.5736</ele>
        <time>2013-04-24T16:08:43Z</time>
      </trkpt>
      <trkpt lat="59.889407" lon="17.6379314">
        <ele>26.5736</ele>
        <time>2013-04-24T16:08:44Z</time>
      </trkpt>
      <trkpt lat="59.8893416" lon="17.6379067">
        <ele>26.5736</ele>
        <time>2013-04-24T16:08:45Z</time>
      </trkpt>
      <trkpt lat="59.8892757" lon="17.6378881">
        <ele>26.0929</ele>
        <time>2013-04-24T16:08:46Z</time>
      </trkpt>
      <trkpt lat="59.8892085" lon="17.6378723">
        <ele>26.0929</ele>
        <time>2013-04-24T16:08:47Z</time>
      </trkpt>
      <trkpt lat="59.8891409" lon="17.6378592">
        <ele>26.5736</ele>
        <time>2013-04-24T16:08:48Z</time>
      </trkpt>
      <trkpt lat="59.8890728" lon="17.6378478">
        <ele>26.5736</ele>
        <time>2013-04-24T16:08:49Z</time>
      </trkpt>
      <trkpt lat="59.8890049" lon="17.6378425">
        <ele>26.5736</ele>
        <time>2013-04-24T16:08:50Z</time>
      </trkpt>
      <trkpt lat="59.8889375" lon="17.6378454">
        <ele>26.5736</ele>
        <time>2013-04-24T16:08:51Z</time>
      </trkpt>
      <trkpt lat="59.8888707" lon="17.6378534">
        <ele>26.5736</ele>
        <time>2013-04-24T16:08:52Z</time>
      </trkpt>
      <trkpt lat="59.8888042" lon="17.6378631">
        <ele>26.5736</ele>
        <time>2013-04-24T16:08:53Z</time>
      </trkpt>
      <trkpt lat="59.8887381" lon="17.6378708">
        <ele>26.5736</ele>
        <time>2013-04-24T16:08:54Z</time>
      </trkpt>
      <trkpt lat="59.8886714" lon="17.6378783">
        <ele>27.0543</ele>
        <time>2013-04-24T16:08:55Z</time>
      </trkpt>
      <trkpt lat="59.8886046" lon="17.637885">
        <ele>27.0543</ele>
        <time>2013-04-24T16:08:56Z</time>
      </trkpt>
      <trkpt lat="59.8885385" lon="17.6378891">
        <ele>27.0543</ele>
        <time>2013-04-24T16:08:57Z</time>
      </trkpt>
      <trkpt lat="59.8884729" lon="17.6378915">
        <ele>27.5349</ele>
        <time>2013-04-24T16:08:58Z</time>
      </trkpt>
      <trkpt lat="59.8884071" lon="17.6378938">
        <ele>27.5349</ele>
        <time>2013-04-24T16:08:59Z</time>
      </trkpt>
      <trkpt lat="59.8883421" lon="17.6378968">
        <ele>27.5349</ele>
        <time>2013-04-24T16:09:00Z</time>
      </trkpt>
      <trkpt lat="59.8882784" lon="17.6378983">
        <ele>27.5349</ele>
        <time>2013-04-24T16:09:01Z</time>
      </trkpt>
      <trkpt lat="59.8882135" lon="17.6378965">
        <ele>28.0155</ele>
        <time>2013-04-24T16:09:02Z</time>
      </trkpt>
      <trkpt lat="59.8881477" lon="17.6378896">
        <ele>28.0155</ele>
        <time>2013-04-24T16:09:03Z</time>
      </trkpt>
      <trkpt lat="59.8880803" lon="17.6378813">
        <ele>28.0155</ele>
        <time>2013-04-24T16:09:04Z</time>
      </trkpt>
      <trkpt lat="59.8880128" lon="17.637872">
        <ele>27.5349</ele>
        <time>2013-04-24T16:09:05Z</time>
      </trkpt>
      <trkpt lat="59.887945" lon="17.6378621">
        <ele>27.5349</ele>
        <time>2013-04-24T16:09:06Z</time>
      </trkpt>
      <trkpt lat="59.8878778" lon="17.6378492">
        <ele>27.5349</ele>
        <time>2013-04-24T16:09:07Z</time>
      </trkpt>
      <trkpt lat="59.8878108" lon="17.6378345">
        <ele>28.0155</ele>
        <time>2013-04-24T16:09:08Z</time>
      </trkpt>
      <trkpt lat="59.8877435" lon="17.6378135">
        <ele>28.0155</ele>
        <time>2013-04-24T16:09:09Z</time>
      </trkpt>
      <trkpt lat="59.8876761" lon="17.6377891">
        <ele>28.0155</ele>
        <time>2013-04-24T16:09:10Z</time>
      </trkpt>
      <trkpt lat="59.8876083" lon="17.6377622">
        <ele>28.0155</ele>
        <time>2013-04-24T16:09:11Z</time>
      </trkpt>
      <trkpt lat="59.8875401" lon="17.6377317">
        <ele>28.0155</ele>
        <time>2013-04-24T16:09:12Z</time>
      </trkpt>
      <trkpt lat="59.8874714" lon="17.6376998">
        <ele>28.0155</ele>
        <time>2013-04-24T16:09:13Z</time>
      </trkpt>
      <trkpt lat="59.8874016" lon="17.6376717">
        <ele>28.0155</ele>
        <time>2013-04-24T16:09:14Z</time>
      </trkpt>
      <trkpt lat="59.88733" lon="17.6376451">
        <ele>27.5349</ele>
        <time>2013-04-24T16:09:15Z</time>
      </trkpt>
      <trkpt lat="59.8872587" lon="17.6376147">
        <ele>27.0543</ele>
        <time>2013-04-24T16:09:16Z</time>
      </trkpt>
      <trkpt lat="59.8871877" lon="17.6375797">
        <ele>26.5736</ele>
        <time>2013-04-24T16:09:17Z</time>
      </trkpt>
      <trkpt lat="59.8871163" lon="17.6375463">
        <ele>26.0929</ele>
        <time>2013-04-24T16:09:18Z</time>
      </trkpt>
      <trkpt lat="59.8870442" lon="17.6375168">
        <ele>26.0929</ele>
        <time>2013-04-24T16:09:19Z</time>
      </trkpt>
      <trkpt lat="59.886972" lon="17.6374866">
        <ele>25.6123</ele>
        <time>2013-04-24T16:09:20Z</time>
      </trkpt>
      <trkpt lat="59.8868986" lon="17.6374566">
        <ele>25.6123</ele>
        <time>2013-04-24T16:09:21Z</time>
      </trkpt>
      <trkpt lat="59.8868252" lon="17.6374234">
        <ele>25.1317</ele>
        <time>2013-04-24T16:09:22Z</time>
      </trkpt>
      <trkpt lat="59.88675" lon="17.6373909">
        <ele>25.1317</ele>
        <time>2013-04-24T16:09:23Z</time>
      </trkpt>
      <trkpt lat="59.8866744" lon="17.6373554">
        <ele>25.1317</ele>
        <time>2013-04-24T16:09:24Z</time>
      </trkpt>
      <trkpt lat="59.8865986" lon="17.6373202">
        <ele>24.651</ele>
        <time>2013-04-24T16:09:25Z</time>
      </trkpt>
      <trkpt lat="59.8865221" lon="17.6372872">
        <ele>24.651</ele>
        <time>2013-04-24T16:09:26Z</time>
      </trkpt>
      <trkpt lat="59.8864457" lon="17.6372535">
        <ele>24.651</ele>
        <time>2013-04-24T16:09:27Z</time>
      </trkpt>
      <trkpt lat="59.8863699" lon="17.6372155">
        <ele>24.1703</ele>
        <time>2013-04-24T16:09:28Z</time>
      </trkpt>
      <trkpt lat="59.8862941" lon="17.6371732">
        <ele>24.1703</ele>
        <time>2013-04-24T16:09:29Z</time>
      </trkpt>
      <trkpt lat="59.8862185" lon="17.6371254">
        <ele>24.1703</ele>
        <time>2013-04-24T16:09:30Z</time>
      </trkpt>
      <trkpt lat="59.886144" lon="17.6370715">
        <ele>24.1703</ele>
        <time>2013-04-24T16:09:31Z</time>
      </trkpt>
      <trkpt lat="59.8860699" lon="17.6370166">
        <ele>23.6896</ele>
        <time>2013-04-24T16:09:32Z</time>
      </trkpt>
      <trkpt lat="59.8859953" lon="17.6369629">
        <ele>23.6896</ele>
        <time>2013-04-24T16:09:33Z</time>
      </trkpt>
      <trkpt lat="59.8859217" lon="17.6369075">
        <ele>23.6896</ele>
        <time>2013-04-24T16:09:34Z</time>
      </trkpt>
      <trkpt lat="59.8858485" lon="17.6368483">
        <ele>23.6896</ele>
        <time>2013-04-24T16:09:35Z</time>
      </trkpt>
      <trkpt lat="59.885775" lon="17.6367848">
        <ele>24.1703</ele>
        <time>2013-04-24T16:09:36Z</time>
      </trkpt>
      <trkpt lat="59.8857031" lon="17.6367169">
        <ele>23.6896</ele>
        <time>2013-04-24T16:09:37Z</time>
      </trkpt>
      <trkpt lat="59.8856321" lon="17.6366474">
        <ele>24.1703</ele>
        <time>2013-04-24T16:09:38Z</time>
      </trkpt>
      <trkpt lat="59.8855586" lon="17.6365807">
        <ele>24.1703</ele>
        <time>2013-04-24T16:09:39Z</time>
      </trkpt>
      <trkpt lat="59.8854843" lon="17.6365153">
        <ele>24.651</ele>
        <time>2013-04-24T16:09:40Z</time>
      </trkpt>
      <trkpt lat="59.8854124" lon="17.636447">
        <ele>24.1703</ele>
        <time>2013-04-24T16:09:41Z</time>
      </trkpt>
      <trkpt lat="59.8853408" lon="17.6363775">
        <ele>24.1703</ele>
        <time>2013-04-24T16:09:42Z</time>
      </trkpt>
      <trkpt lat="59.8852678" lon="17.6363126">
        <ele>24.1703</ele>
        <time>2013-04-24T16:09:43Z</time>
      </trkpt>
      <trkpt lat="59.8851949" lon="17.6362512">
        <ele>24.1703</ele>
        <time>2013-04-24T16:09:44Z</time>
      </trkpt>
      <trkpt lat="59.8851237" lon="17.6361883">
        <ele>24.1703</ele>
        <time>2013-04-24T16:09:45Z</time>
      </trkpt>
      <trkpt lat="59.8850545" lon="17.6361233">
        <ele>24.651</ele>
        <time>2013-04-24T16:09:46Z</time>
      </trkpt>
      <trkpt lat="59.8849891" lon="17.6360635">
        <ele>24.651</ele>
        <time>2013-04-24T16:09:47Z</time>
      </trkpt>
      <trkpt lat="59.8849251" lon="17.6360111">
        <ele>24.1703</ele>
        <time>2013-04-24T16:09:48Z</time>
      </trkpt>
      <trkpt lat="59.8848622" lon="17.6359588">
        <ele>24.1703</ele>
        <time>2013-04-24T16:09:49Z</time>
      </trkpt>
      <trkpt lat="59.8847992" lon="17.6359046">
        <ele>24.651</ele>
        <time>2013-04-24T16:09:50Z</time>
      </trkpt>
      <trkpt lat="59.884736" lon="17.6358508">
        <ele>24.651</ele>
        <time>2013-04-24T16:09:51Z</time>
      </trkpt>
      <trkpt lat="59.884672" lon="17.6357965">
        <ele>24.651</ele>
        <time>2013-04-24T16:09:52Z</time>
      </trkpt>
      <trkpt lat="59.8846086" lon="17.635742">
        <ele>24.651</ele>
        <time>2013-04-24T16:09:53Z</time>
      </trkpt>
      <trkpt lat="59.8845448" lon="17.6356925">
        <ele>24.651</ele>
        <time>2013-04-24T16:09:54Z</time>
      </trkpt>
      <trkpt lat="59.8844786" lon="17.6356477">
        <ele>24.651</ele>
        <time>2013-04-24T16:09:55Z</time>
      </trkpt>
      <trkpt lat="59.8844107" lon="17.6356063">
        <ele>24.651</ele>
        <time>2013-04-24T16:09:56Z</time>
      </trkpt>
      <trkpt lat="59.8843421" lon="17.6355669">
        <ele>24.651</ele>
        <time>2013-04-24T16:09:57Z</time>
      </trkpt>
      <trkpt lat="59.8842735" lon="17.6355275">
        <ele>24.651</ele>
        <time>2013-04-24T16:09:58Z</time>
      </trkpt>
      <trkpt lat="59.8842054" lon="17.6354911">
        <ele>24.651</ele>
        <time>2013-04-24T16:09:59Z</time>
      </trkpt>
      <trkpt lat="59.8841357" lon="17.6354646">
        <ele>24.651</ele>
        <time>2013-04-24T16:10:00Z</time>
      </trkpt>
      <trkpt lat="59.8840646" lon="17.635445">
        <ele>24.651</ele>
        <time>2013-04-24T16:10:01Z</time>
      </trkpt>
      <trkpt lat="59.8839916" lon="17.6354331">
        <ele>24.651</ele>
        <time>2013-04-24T16:10:02Z</time>
      </trkpt>
      <trkpt lat="59.8839165" lon="17.6354331">
        <ele>24.651</ele>
        <time>2013-04-24T16:10:03Z</time>
      </trkpt>
      <trkpt lat="59.8838398" lon="17.6354415">
        <ele>24.1703</ele>
        <time>2013-04-24T16:10:04Z</time>
      </trkpt>
      <trkpt lat="59.8837598" lon="17.6354488">
        <ele>24.1703</ele>
        <time>2013-04-24T16:10:05Z</time>
      </trkpt>
      <trkpt lat="59.8836809" lon="17.6354478">
        <ele>24.1703</ele>
        <time>2013-04-24T16:10:06Z</time>
      </trkpt>
      <trkpt lat="59.8836081" lon="17.6354623">
        <ele>24.1703</ele>
        <time>2013-04-24T16:10:07Z</time>
      </trkpt>
      <trkpt lat="59.8835443" lon="17.6355072">
        <ele>24.1703</ele>
        <time>2013-04-24T16:10:08Z</time>
      </trkpt>
      <trkpt lat="59.883484" lon="17.6355519">
        <ele>24.1703</ele>
        <time>2013-04-24T16:10:09Z</time>
      </trkpt>
      <trkpt lat="59.8834229" lon="17.6355659">
        <ele>24.1703</ele>
        <time>2013-04-24T16:10:10Z</time>
      </trkpt>
      <trkpt lat="59.8833627" lon="17.6355575">
        <ele>24.651</ele>
        <time>2013-04-24T16:10:11Z</time>
      </trkpt>
      <trkpt lat="59.8833032" lon="17.6355452">
        <ele>25.1317</ele>
        <time>2013-04-24T16:10:12Z</time>
      </trkpt>
      <trkpt lat="59.8832432" lon="17.635533">
        <ele>25.1317</ele>
        <time>2013-04-24T16:10:13Z</time>
      </trkpt>
      <trkpt lat="59.8831808" lon="17.6355235">
        <ele>25.6123</ele>
        <time>2013-04-24T16:10:14Z</time>
      </trkpt>
      <trkpt lat="59.883116" lon="17.6355167">
        <ele>25.6123</ele>
        <time>2013-04-24T16:10:15Z</time>
      </trkpt>
      <trkpt lat="59.8830488" lon="17.6355104">
        <ele>25.6123</ele>
        <time>2013-04-24T16:10:16Z</time>
      </trkpt>
      <trkpt lat="59.8829805" lon="17.6355052">
        <ele>25.1317</ele>
        <time>2013-04-24T16:10:17Z</time>
      </trkpt>
      <trkpt lat="59.882912" lon="17.6355066">
        <ele>25.1317</ele>
        <time>2013-04-24T16:10:18Z</time>
      </trkpt>
      <trkpt lat="59.8828421" lon="17.6355162">
        <ele>25.1317</ele>
        <time>2013-04-24T16:10:19Z</time>
      </trkpt>
      <trkpt lat="59.8827717" lon="17.6355327">
        <ele>25.1317</ele>
        <time>2013-04-24T16:10:20Z</time>
      </trkpt>
      <trkpt lat="59.8827024" lon="17.6355534">
        <ele>25.1317</ele>
        <time>2013-04-24T16:10:21Z</time>
      </trkpt>
      <trkpt lat="59.8826343" lon="17.6355767">
        <ele>25.1317</ele>
        <time>2013-04-24T16:10:22Z</time>
      </trkpt>
      <trkpt lat="59.8825668" lon="17.6356031">
        <ele>25.1317</ele>
        <time>2013-04-24T16:10:23Z</time>
      </trkpt>
      <trkpt lat="59.882499" lon="17.6356302">
        <ele>25.1317</ele>
        <time>2013-04-24T16:10:24Z</time>
      </trkpt>
      <trkpt lat="59.8824319" lon="17.635656">
        <ele>25.6123</ele>
        <time>2013-04-24T16:10:25Z</time>
      </trkpt>
      <trkpt lat="59.882366" lon="17.6356773">
        <ele>26.0929</ele>
        <time>2013-04-24T16:10:26Z</time>
      </trkpt>
      <trkpt lat="59.8823013" lon="17.6356959">
        <ele>26.5736</ele>
        <time>2013-04-24T16:10:27Z</time>
      </trkpt>
      <trkpt lat="59.8822375" lon="17.6357135">
        <ele>26.5736</ele>
        <time>2013-04-24T16:10:28Z</time>
      </trkpt>
      <trkpt lat="59.8821743" lon="17.6357314">
        <ele>26.5736</ele>
        <time>2013-04-24T16:10:29Z</time>
      </trkpt>
      <trkpt lat="59.8821126" lon="17.6357527">
        <ele>26.5736</ele>
        <time>2013-04-24T16:10:30Z</time>
      </trkpt>
      <trkpt lat="59.8820532" lon="17.6357721">
        <ele>27.0543</ele>
        <time>2013-04-24T16:10:31Z</time>
      </trkpt>
      <trkpt lat="59.8819951" lon="17.635789">
        <ele>27.0543</ele>
        <time>2013-04-24T16:10:32Z</time>
      </trkpt>
      <trkpt lat="59.881937" lon="17.6358066">
        <ele>27.0543</ele>
        <time>2013-04-24T16:10:33Z</time>
      </trkpt>
      <trkpt lat="59.8818792" lon="17.6358254">
        <ele>27.5349</ele>
        <time>2013-04-24T16:10:34Z</time>
      </trkpt>
      <trkpt lat="59.8818222" lon="17.6358441">
        <ele>27.5349</ele>
        <time>2013-04-24T16:10:35Z</time>
      </trkpt>
      <trkpt lat="59.8817655" lon="17.6358583">
        <ele>27.5349</ele>
        <time>2013-04-24T16:10:36Z</time>
      </trkpt>
      <trkpt lat="59.8817087" lon="17.6358625">
        <ele>27.5349</ele>
        <time>2013-04-24T16:10:37Z</time>
      </trkpt>
      <trkpt lat="59.8816518" lon="17.635854">
        <ele>27.5349</ele>
        <time>2013-04-24T16:10:38Z</time>
      </trkpt>
      <trkpt lat="59.8815956" lon="17.6358279">
        <ele>27.5349</ele>
        <time>2013-04-24T16:10:39Z</time>
      </trkpt>
      <trkpt lat="59.8815418" lon="17.6357834">
        <ele>28.0155</ele>
        <time>2013-04-24T16:10:40Z</time>
      </trkpt>
      <trkpt lat="59.8814901" lon="17.63573">
        <ele>28.0155</ele>
        <time>2013-04-24T16:10:41Z</time>
      </trkpt>
      <trkpt lat="59.8814378" lon="17.6356807">
        <ele>28.0155</ele>
        <time>2013-04-24T16:10:42Z</time>
      </trkpt>
      <trkpt lat="59.8813827" lon="17.6356435">
        <ele>28.0155</ele>
        <time>2013-04-24T16:10:43Z</time>
      </trkpt>
      <trkpt lat="59.8813253" lon="17.6356197">
        <ele>27.5349</ele>
        <time>2013-04-24T16:10:44Z</time>
      </trkpt>
      <trkpt lat="59.8812658" lon="17.6356081">
        <ele>27.5349</ele>
        <time>2013-04-24T16:10:45Z</time>
      </trkpt>
      <trkpt lat="59.8812052" lon="17.6356055">
        <ele>27.5349</ele>
        <time>2013-04-24T16:10:46Z</time>
      </trkpt>
      <trkpt lat="59.8811431" lon="17.6356097">
        <ele>27.0543</ele>
        <time>2013-04-24T16:10:47Z</time>
      </trkpt>
      <trkpt lat="59.8810803" lon="17.6356157">
        <ele>27.0543</ele>
        <time>2013-04-24T16:10:48Z</time>
      </trkpt>
      <trkpt lat="59.881017" lon="17.6356211">
        <ele>27.0543</ele>
        <time>2013-04-24T16:10:49Z</time>
      </trkpt>
      <trkpt lat="59.8809539" lon="17.635627">
        <ele>27.0543</ele>
        <time>2013-04-24T16:10:50Z</time>
      </trkpt>
      <trkpt lat="59.8808906" lon="17.6356338">
        <ele>27.0543</ele>
        <time>2013-04-24T16:10:51Z</time>
      </trkpt>
      <trkpt lat="59.8808271" lon="17.6356409">
        <ele>27.0543</ele>
        <time>2013-04-24T16:10:52Z</time>
      </trkpt>
      <trkpt lat="59.8807632" lon="17.6356483">
        <ele>26.5736</ele>
        <time>2013-04-24T16:10:53Z</time>
      </trkpt>
      <trkpt lat="59.8806981" lon="17.635656">
        <ele>26.5736</ele>
        <time>2013-04-24T16:10:54Z</time>
      </trkpt>
      <trkpt lat="59.8806318" lon="17.6356631">
        <ele>26.5736</ele>
        <time>2013-04-24T16:10:55Z</time>
      </trkpt>
      <trkpt lat="59.8805635" lon="17.6356693">
        <ele>26.5736</ele>
        <time>2013-04-24T16:10:56Z</time>
      </trkpt>
      <trkpt lat="59.8804929" lon="17.635674">
        <ele>26.5736</ele>
        <time>2013-04-24T16:10:57Z</time>
      </trkpt>
      <trkpt lat="59.8804212" lon="17.6356806">
        <ele>26.5736</ele>
        <time>2013-04-24T16:10:58Z</time>
      </trkpt>
      <trkpt lat="59.8803485" lon="17.6356881">
        <ele>26.5736</ele>
        <time>2013-04-24T16:10:59Z</time>
      </trkpt>
      <trkpt lat="59.8802752" lon="17.6356933">
        <ele>26.5736</ele>
        <time>2013-04-24T16:11:00Z</time>
      </trkpt>
      <trkpt lat="59.8802007" lon="17.6356973">
        <ele>26.0929</ele>
        <time>2013-04-24T16:11:01Z</time>
      </trkpt>
      <trkpt lat="59.8801262" lon="17.6357048">
        <ele>26.0929</ele>
        <time>2013-04-24T16:11:02Z</time>
      </trkpt>
      <trkpt lat="59.8800522" lon="17.6357154">
        <ele>26.0929</ele>
        <time>2013-04-24T16:11:03Z</time>
      </trkpt>
      <trkpt lat="59.8799797" lon="17.635721">
        <ele>26.0929</ele>
        <time>2013-04-24T16:11:04Z</time>
      </trkpt>
      <trkpt lat="59.8799077" lon="17.6357223">
        <ele>26.0929</ele>
        <time>2013-04-24T16:11:05Z</time>
      </trkpt>
      <trkpt lat="59.8798352" lon="17.6357222">
        <ele>26.0929</ele>
        <time>2013-04-24T16:11:06Z</time>
      </trkpt>
      <trkpt lat="59.8797618" lon="17.6357226">
        <ele>26.0929</ele>
        <time>2013-04-24T16:11:07Z</time>
      </trkpt>
      <trkpt lat="59.8796875" lon="17.6357265">
        <ele>26.0929</ele>
        <time>2013-04-24T16:11:08Z</time>
      </trkpt>
      <trkpt lat="59.8796138" lon="17.635735">
        <ele>26.0929</ele>
        <time>2013-04-24T16:11:09Z</time>
      </trkpt>
      <trkpt lat="59.8795408" lon="17.6357419">
        <ele>26.0929</ele>
        <time>2013-04-24T16:11:10Z</time>
      </trkpt>
      <trkpt lat="59.8794687" lon="17.6357451">
        <ele>26.0929</ele>
        <time>2013-04-24T16:11:11Z</time>
      </trkpt>
      <trkpt lat="59.8793961" lon="17.6357487">
        <ele>25.6123</ele>
        <time>2013-04-24T16:11:12Z</time>
      </trkpt>
      <trkpt lat="59.8793225" lon="17.6357538">
        <ele>25.6123</ele>
        <time>2013-04-24T16:11:13Z</time>
      </trkpt>
      <trkpt lat="59.8792485" lon="17.6357585">
        <ele>25.6123</ele>
        <time>2013-04-24T16:11:14Z</time>
      </trkpt>
      <trkpt lat="59.8791746" lon="17.6357631">
        <ele>25.6123</ele>
        <time>2013-04-24T16:11:15Z</time>
      </trkpt>
      <trkpt lat="59.8791017" lon="17.6357669">
        <ele>25.6123</ele>
        <time>2013-04-24T16:11:16Z</time>
      </trkpt>
      <trkpt lat="59.8790289" lon="17.6357694">
        <ele>25.6123</ele>
        <time>2013-04-24T16:11:17Z</time>
      </trkpt>
      <trkpt lat="59.8789556" lon="17.6357716">
        <ele>25.6123</ele>
        <time>2013-04-24T16:11:18Z</time>
      </trkpt>
      <trkpt lat="59.8788815" lon="17.6357745">
        <ele>25.6123</ele>
        <time>2013-04-24T16:11:19Z</time>
      </trkpt>
      <trkpt lat="59.8788072" lon="17.6357772">
        <ele>25.6123</ele>
        <time>2013-04-24T16:11:20Z</time>
      </trkpt>
      <trkpt lat="59.8787322" lon="17.6357783">
        <ele>25.1317</ele>
        <time>2013-04-24T16:11:21Z</time>
      </trkpt>
      <trkpt lat="59.878657" lon="17.6357782">
        <ele>25.1317</ele>
        <time>2013-04-24T16:11:22Z</time>
      </trkpt>
      <trkpt lat="59.878581" lon="17.6357808">
        <ele>25.1317</ele>
        <time>2013-04-24T16:11:23Z</time>
      </trkpt>
      <trkpt lat="59.8785033" lon="17.635786">
        <ele>24.651</ele>
        <time>2013-04-24T16:11:24Z</time>
      </trkpt>
      <trkpt lat="59.8784257" lon="17.6357923">
        <ele>24.651</ele>
        <time>2013-04-24T16:11:25Z</time>
      </trkpt>
      <trkpt lat="59.8783494" lon="17.6357995">
        <ele>24.651</ele>
        <time>2013-04-24T16:11:26Z</time>
      </trkpt>
      <trkpt lat="59.8782741" lon="17.6358083">
        <ele>24.1703</ele>
        <time>2013-04-24T16:11:27Z</time>
      </trkpt>
      <trkpt lat="59.8781993" lon="17.6358185">
        <ele>24.1703</ele>
        <time>2013-04-24T16:11:28Z</time>
      </trkpt>
      <trkpt lat="59.8781237" lon="17.635827">
        <ele>24.1703</ele>
        <time>2013-04-24T16:11:29Z</time>
      </trkpt>
      <trkpt lat="59.8780464" lon="17.6358305">
        <ele>24.1703</ele>
        <time>2013-04-24T16:11:30Z</time>
      </trkpt>
      <trkpt lat="59.8779671" lon="17.635829">
        <ele>23.6896</ele>
        <time>2013-04-24T16:11:31Z</time>
      </trkpt>
      <trkpt lat="59.8778858" lon="17.6358269">
        <ele>23.6896</ele>
        <time>2013-04-24T16:11:32Z</time>
      </trkpt>
      <trkpt lat="59.8778053" lon="17.6358279">
        <ele>23.6896</ele>
        <time>2013-04-24T16:11:33Z</time>
      </trkpt>
      <trkpt lat="59.8777263" lon="17.6358311">
        <ele>23.209</ele>
        <time>2013-04-24T16:11:34Z</time>
      </trkpt>
      <trkpt lat="59.8776478" lon="17.635832">
        <ele>23.209</ele>
        <time>2013-04-24T16:11:35Z</time>
      </trkpt>
      <trkpt lat="59.8775694" lon="17.635832">
        <ele>23.209</ele>
        <time>2013-04-24T16:11:36Z</time>
      </trkpt>
      <trkpt lat="59.8774921" lon="17.6358351">
        <ele>23.209</ele>
        <time>2013-04-24T16:11:37Z</time>
      </trkpt>
      <trkpt lat="59.8774155" lon="17.6358404">
        <ele>23.209</ele>
        <time>2013-04-24T16:11:38Z</time>
      </trkpt>
      <trkpt lat="59.8773408" lon="17.6358465">
        <ele>23.209</ele>
        <time>2013-04-24T16:11:39Z</time>
      </trkpt>
      <trkpt lat="59.8772663" lon="17.6358523">
        <ele>22.7283</ele>
        <time>2013-04-24T16:11:40Z</time>
      </trkpt>
      <trkpt lat="59.877192" lon="17.6358578">
        <ele>22.7283</ele>
        <time>2013-04-24T16:11:41Z</time>
      </trkpt>
      <trkpt lat="59.8771179" lon="17.6358624">
        <ele>22.7283</ele>
        <time>2013-04-24T16:11:42Z</time>
      </trkpt>
      <trkpt lat="59.8770435" lon="17.6358652">
        <ele>22.7283</ele>
        <time>2013-04-24T16:11:43Z</time>
      </trkpt>
      <trkpt lat="59.8769685" lon="17.6358689">
        <ele>22.7283</ele>
        <time>2013-04-24T16:11:44Z</time>
      </trkpt>
      <trkpt lat="59.8768933" lon="17.6358728">
        <ele>22.7283</ele>
        <time>2013-04-24T16:11:45Z</time>
      </trkpt>
      <trkpt lat="59.8768182" lon="17.6358759">
        <ele>22.7283</ele>
        <time>2013-04-24T16:11:46Z</time>
      </trkpt>
      <trkpt lat="59.8767439" lon="17.6358808">
        <ele>22.7283</ele>
        <time>2013-04-24T16:11:47Z</time>
      </trkpt>
      <trkpt lat="59.8766704" lon="17.6358855">
        <ele>22.7283</ele>
        <time>2013-04-24T16:11:48Z</time>
      </trkpt>
      <trkpt lat="59.8765976" lon="17.6358906">
        <ele>22.7283</ele>
        <time>2013-04-24T16:11:49Z</time>
      </trkpt>
      <trkpt lat="59.8765265" lon="17.6358997">
        <ele>22.7283</ele>
        <time>2013-04-24T16:11:50Z</time>
      </trkpt>
      <trkpt lat="59.8764559" lon="17.6359097">
        <ele>22.7283</ele>
        <time>2013-04-24T16:11:51Z</time>
      </trkpt>
      <trkpt lat="59.8763849" lon="17.6359192">
        <ele>22.2476</ele>
        <time>2013-04-24T16:11:52Z</time>
      </trkpt>
      <trkpt lat="59.8763139" lon="17.635929">
        <ele>22.2476</ele>
        <time>2013-04-24T16:11:53Z</time>
      </trkpt>
      <trkpt lat="59.8762431" lon="17.6359373">
        <ele>22.2476</ele>
        <time>2013-04-24T16:11:54Z</time>
      </trkpt>
      <trkpt lat="59.8761722" lon="17.6359477">
        <ele>22.2476</ele>
        <time>2013-04-24T16:11:55Z</time>
      </trkpt>
      <trkpt lat="59.8761018" lon="17.6359637">
        <ele>22.2476</ele>
        <time>2013-04-24T16:11:56Z</time>
      </trkpt>
      <trkpt lat="59.8760317" lon="17.6359832">
        <ele>22.2476</ele>
        <time>2013-04-24T16:11:57Z</time>
      </trkpt>
      <trkpt lat="59.8759625" lon="17.6360036">
        <ele>22.2476</ele>
        <time>2013-04-24T16:11:58Z</time>
      </trkpt>
      <trkpt lat="59.8758947" lon="17.6360228">
        <ele>22.2476</ele>
        <time>2013-04-24T16:11:59Z</time>
      </trkpt>
      <trkpt lat="59.8758277" lon="17.6360415">
        <ele>22.2476</ele>
        <time>2013-04-24T16:12:00Z</time>
      </trkpt>
      <trkpt lat="59.8757609" lon="17.6360631">
        <ele>22.2476</ele>
        <time>2013-04-24T16:12:01Z</time>
      </trkpt>
      <trkpt lat="59.8756941" lon="17.636088">
        <ele>22.2476</ele>
        <time>2013-04-24T16:12:02Z</time>
      </trkpt>
      <trkpt lat="59.8756277" lon="17.6361149">
        <ele>22.2476</ele>
        <time>2013-04-24T16:12:03Z</time>
      </trkpt>
      <trkpt lat="59.8755615" lon="17.6361444">
        <ele>22.7283</ele>
        <time>2013-04-24T16:12:04Z</time>
      </trkpt>
      <trkpt lat="59.8754956" lon="17.6361765">
        <ele>22.7283</ele>
        <time>2013-04-24T16:12:05Z</time>
      </trkpt>
      <trkpt lat="59.8754304" lon="17.6362097">
        <ele>22.7283</ele>
        <time>2013-04-24T16:12:06Z</time>
      </trkpt>
      <trkpt lat="59.8753653" lon="17.6362455">
        <ele>22.7283</ele>
        <time>2013-04-24T16:12:07Z</time>
      </trkpt>
      <trkpt lat="59.8753002" lon="17.6362827">
        <ele>22.7283</ele>
        <time>2013-04-24T16:12:08Z</time>
      </trkpt>
      <trkpt lat="59.8752346" lon="17.6363209">
        <ele>22.7283</ele>
        <time>2013-04-24T16:12:09Z</time>
      </trkpt>
      <trkpt lat="59.8751699" lon="17.6363652">
        <ele>22.2476</ele>
        <time>2013-04-24T16:12:10Z</time>
      </trkpt>
      <trkpt lat="59.8751067" lon="17.6364121">
        <ele>22.2476</ele>
        <time>2013-04-24T16:12:11Z</time>
      </trkpt>
      <trkpt lat="59.8750446" lon="17.6364563">
        <ele>22.2476</ele>
        <time>2013-04-24T16:12:12Z</time>
      </trkpt>
      <trkpt lat="59.8749844" lon="17.6364999">
        <ele>22.2476</ele>
        <time>2013-04-24T16:12:13Z</time>
      </trkpt>
      <trkpt lat="59.8749258" lon="17.6365436">
        <ele>22.2476</ele>
        <time>2013-04-24T16:12:14Z</time>
      </trkpt>
      <trkpt lat="59.8748687" lon="17.6365862">
        <ele>22.2476</ele>
        <time>2013-04-24T16:12:15Z</time>
      </trkpt>
      <trkpt lat="59.8748133" lon="17.6366299">
        <ele>22.2476</ele>
        <time>2013-04-24T16:12:16Z</time>
      </trkpt>
      <trkpt lat="59.874759" lon="17.6366784">
        <ele>22.2476</ele>
        <time>2013-04-24T16:12:17Z</time>
      </trkpt>
      <trkpt lat="59.8747042" lon="17.6367282">
        <ele>22.2476</ele>
        <time>2013-04-24T16:12:18Z</time>
      </trkpt>
      <trkpt lat="59.8746493" lon="17.6367786">
        <ele>22.2476</ele>
        <time>2013-04-24T16:12:19Z</time>
      </trkpt>
      <trkpt lat="59.874596" lon="17.6368328">
        <ele>22.2476</ele>
        <time>2013-04-24T16:12:20Z</time>
      </trkpt>
      <trkpt lat="59.8745457" lon="17.6368873">
        <ele>21.767</ele>
        <time>2013-04-24T16:12:21Z</time>
      </trkpt>
      <trkpt lat="59.8745001" lon="17.6369417">
        <ele>21.767</ele>
        <time>2013-04-24T16:12:22Z</time>
      </trkpt>
      <trkpt lat="59.8744589" lon="17.6369962">
        <ele>21.767</ele>
        <time>2013-04-24T16:12:23Z</time>
      </trkpt>
      <trkpt lat="59.8744182" lon="17.6370425">
        <ele>21.767</ele>
        <time>2013-04-24T16:12:24Z</time>
      </trkpt>
      <trkpt lat="59.874375" lon="17.6370764">
        <ele>21.767</ele>
        <time>2013-04-24T16:12:25Z</time>
      </trkpt>
      <trkpt lat="59.8743294" lon="17.6370989">
        <ele>21.767</ele>
        <time>2013-04-24T16:12:26Z</time>
      </trkpt>
      <trkpt lat="59.874282" lon="17.6371145">
        <ele>21.767</ele>
        <time>2013-04-24T16:12:27Z</time>
      </trkpt>
      <trkpt lat="59.8742339" lon="17.6371316">
        <ele>21.767</ele>
        <time>2013-04-24T16:12:28Z</time>
      </trkpt>
      <trkpt lat="59.8741856" lon="17.6371547">
        <ele>21.767</ele>
        <time>2013-04-24T16:12:29Z</time>
      </trkpt>
      <trkpt lat="59.8741367" lon="17.6371852">
        <ele>21.767</ele>
        <time>2013-04-24T16:12:30Z</time>
      </trkpt>
      <trkpt lat="59.8740877" lon="17.6372229">
        <ele>21.767</ele>
        <time>2013-04-24T16:12:31Z</time>
      </trkpt>
      <trkpt lat="59.8740394" lon="17.6372669">
        <ele>21.767</ele>
        <time>2013-04-24T16:12:32Z</time>
      </trkpt>
      <trkpt lat="59.8739919" lon="17.637316">
        <ele>21.767</ele>
        <time>2013-04-24T16:12:33Z</time>
      </trkpt>
      <trkpt lat="59.873943" lon="17.6373678">
        <ele>21.2864</ele>
        <time>2013-04-24T16:12:34Z</time>
      </trkpt>
      <trkpt lat="59.8738935" lon="17.6374219">
        <ele>21.2864</ele>
        <time>2013-04-24T16:12:35Z</time>
      </trkpt>
      <trkpt lat="59.8738453" lon="17.6374792">
        <ele>21.2864</ele>
        <time>2013-04-24T16:12:36Z</time>
      </trkpt>
      <trkpt lat="59.8737991" lon="17.6375389">
        <ele>21.2864</ele>
        <time>2013-04-24T16:12:37Z</time>
      </trkpt>
      <trkpt lat="59.8737532" lon="17.6375971">
        <ele>21.767</ele>
        <time>2013-04-24T16:12:38Z</time>
      </trkpt>
      <trkpt lat="59.8737078" lon="17.6376511">
        <ele>21.767</ele>
        <time>2013-04-24T16:12:39Z</time>
      </trkpt>
      <trkpt lat="59.8736625" lon="17.637701">
        <ele>21.767</ele>
        <time>2013-04-24T16:12:40Z</time>
      </trkpt>
      <trkpt lat="59.8736174" lon="17.6377475">
        <ele>21.767</ele>
        <time>2013-04-24T16:12:41Z</time>
      </trkpt>
      <trkpt lat="59.8735723" lon="17.6377901">
        <ele>21.767</ele>
        <time>2013-04-24T16:12:42Z</time>
      </trkpt>
      <trkpt lat="59.8735267" lon="17.6378288">
        <ele>21.767</ele>
        <time>2013-04-24T16:12:43Z</time>
      </trkpt>
      <trkpt lat="59.8734817" lon="17.6378637">
        <ele>21.767</ele>
        <time>2013-04-24T16:12:44Z</time>
      </trkpt>
      <trkpt lat="59.8734376" lon="17.6378876">
        <ele>21.767</ele>
        <time>2013-04-24T16:12:45Z</time>
      </trkpt>
      <trkpt lat="59.8733946" lon="17.6378912">
        <ele>21.767</ele>
        <time>2013-04-24T16:12:46Z</time>
      </trkpt>
      <trkpt lat="59.8733533" lon="17.6378693">
        <ele>21.2864</ele>
        <time>2013-04-24T16:12:47Z</time>
      </trkpt>
      <trkpt lat="59.8733159" lon="17.637821">
        <ele>21.2864</ele>
        <time>2013-04-24T16:12:48Z</time>
      </trkpt>
      <trkpt lat="59.8732883" lon="17.6377496">
        <ele>21.2864</ele>
        <time>2013-04-24T16:12:49Z</time>
      </trkpt>
      <trkpt lat="59.8732677" lon="17.6376634">
        <ele>21.2864</ele>
        <time>2013-04-24T16:12:50Z</time>
      </trkpt>
      <trkpt lat="59.8732444" lon="17.637574">
        <ele>21.2864</ele>
        <time>2013-04-24T16:12:51Z</time>
      </trkpt>
      <trkpt lat="59.8732189" lon="17.637482">
        <ele>21.2864</ele>
        <time>2013-04-24T16:12:52Z</time>
      </trkpt>
      <trkpt lat="59.8731968" lon="17.6373823">
        <ele>20.8057</ele>
        <time>2013-04-24T16:12:53Z</time>
      </trkpt>
      <trkpt lat="59.873175" lon="17.637279">
        <ele>20.8057</ele>
        <time>2013-04-24T16:12:54Z</time>
      </trkpt>
      <trkpt lat="59.8731491" lon="17.637178">
        <ele>20.8057</ele>
        <time>2013-04-24T16:12:55Z</time>
      </trkpt>
      <trkpt lat="59.8731165" lon="17.6370872">
        <ele>20.325</ele>
        <time>2013-04-24T16:12:56Z</time>
      </trkpt>
      <trkpt lat="59.8730787" lon="17.6370068">
        <ele>19.8444</ele>
        <time>2013-04-24T16:12:57Z</time>
      </trkpt>
      <trkpt lat="59.8730413" lon="17.6369249">
        <ele>19.3638</ele>
        <time>2013-04-24T16:12:58Z</time>
      </trkpt>
      <trkpt lat="59.8730082" lon="17.6368342">
        <ele>18.8831</ele>
        <time>2013-04-24T16:12:59Z</time>
      </trkpt>
      <trkpt lat="59.8729788" lon="17.6367311">
        <ele>18.4023</ele>
        <time>2013-04-24T16:13:00Z</time>
      </trkpt>
      <trkpt lat="59.872951" lon="17.6366184">
        <ele>17.9218</ele>
        <time>2013-04-24T16:13:01Z</time>
      </trkpt>
      <trkpt lat="59.8729253" lon="17.6364987">
        <ele>17.4412</ele>
        <time>2013-04-24T16:13:02Z</time>
      </trkpt>
      <trkpt lat="59.8728992" lon="17.636374">
        <ele>17.4412</ele>
        <time>2013-04-24T16:13:03Z</time>
      </trkpt>
      <trkpt lat="59.8728694" lon="17.636246">
        <ele>16.9604</ele>
        <time>2013-04-24T16:13:04Z</time>
      </trkpt>
      <trkpt lat="59.8728357" lon="17.6361156">
        <ele>16.4797</ele>
        <time>2013-04-24T16:13:05Z</time>
      </trkpt>
      <trkpt lat="59.872799" lon="17.6359817">
        <ele>15.999</ele>
        <time>2013-04-24T16:13:06Z</time>
      </trkpt>
      <trkpt lat="59.8727606" lon="17.635848">
        <ele>15.5184</ele>
        <time>2013-04-24T16:13:07Z</time>
      </trkpt>
      <trkpt lat="59.8727208" lon="17.635716">
        <ele>15.0377</ele>
        <time>2013-04-24T16:13:08Z</time>
      </trkpt>
      <trkpt lat="59.8726829" lon="17.6355228">
        <ele>15.0377</ele>
        <time>2013-04-24T16:13:09Z</time>
      </trkpt>
      <trkpt lat="59.8726358" lon="17.6353976">
        <ele>15.0377</ele>
        <time>2013-04-24T16:13:10Z</time>
      </trkpt>
      <trkpt lat="59.8725908" lon="17.6352675">
        <ele>14.557</ele>
        <time>2013-04-24T16:13:11Z</time>
      </trkpt>
      <trkpt lat="59.8725507" lon="17.6351407">
        <ele>14.557</ele>
        <time>2013-04-24T16:13:12Z</time>
      </trkpt>
      <trkpt lat="59.8725128" lon="17.6350181">
        <ele>14.557</ele>
        <time>2013-04-24T16:13:13Z</time>
      </trkpt>
      <trkpt lat="59.8724752" lon="17.6349007">
        <ele>15.0377</ele>
        <time>2013-04-24T16:13:14Z</time>
      </trkpt>
      <trkpt lat="59.8724383" lon="17.6347873">
        <ele>15.0377</ele>
        <time>2013-04-24T16:13:15Z</time>
      </trkpt>
      <trkpt lat="59.872403" lon="17.634677">
        <ele>15.0377</ele>
        <time>2013-04-24T16:13:16Z</time>
      </trkpt>
      <trkpt lat="59.8723695" lon="17.634569">
        <ele>15.5184</ele>
        <time>2013-04-24T16:13:17Z</time>
      </trkpt>
      <trkpt lat="59.8723369" lon="17.6344655">
        <ele>15.5184</ele>
        <time>2013-04-24T16:13:18Z</time>
      </trkpt>
      <trkpt lat="59.8723051" lon="17.6343654">
        <ele>15.999</ele>
        <time>2013-04-24T16:13:19Z</time>
      </trkpt>
      <trkpt lat="59.8722745" lon="17.6342677">
        <ele>15.999</ele>
        <time>2013-04-24T16:13:20Z</time>
      </trkpt>
      <trkpt lat="59.8722426" lon="17.6341719">
        <ele>15.999</ele>
        <time>2013-04-24T16:13:21Z</time>
      </trkpt>
      <trkpt lat="59.8722098" lon="17.6340776">
        <ele>15.5184</ele>
        <time>2013-04-24T16:13:22Z</time>
      </trkpt>
      <trkpt lat="59.8721761" lon="17.6339848">
        <ele>15.5184</ele>
        <time>2013-04-24T16:13:23Z</time>
      </trkpt>
      <trkpt lat="59.8721452" lon="17.6338894">
        <ele>15.5184</ele>
        <time>2013-04-24T16:13:24Z</time>
      </trkpt>
      <trkpt lat="59.8721147" lon="17.6337909">
        <ele>15.999</ele>
        <time>2013-04-24T16:13:25Z</time>
      </trkpt>
      <trkpt lat="59.8720893" lon="17.6336896">
        <ele>15.999</ele>
        <time>2013-04-24T16:13:26Z</time>
      </trkpt>
      <trkpt lat="59.8720601" lon="17.6335865">
        <ele>15.999</ele>
        <time>2013-04-24T16:13:27Z</time>
      </trkpt>
      <trkpt lat="59.8720314" lon="17.6334819">
        <ele>16.4797</ele>
        <time>2013-04-24T16:13:28Z</time>
      </trkpt>
      <trkpt lat="59.8719997" lon="17.6333761">
        <ele>16.4797</ele>
        <time>2013-04-24T16:13:29Z</time>
      </trkpt>
      <trkpt lat="59.8719691" lon="17.6332663">
        <ele>16.4797</ele>
        <time>2013-04-24T16:13:30Z</time>
      </trkpt>
      <trkpt lat="59.8719311" lon="17.6331535">
        <ele>16.4797</ele>
        <time>2013-04-24T16:13:31Z</time>
      </trkpt>
      <trkpt lat="59.8718943" lon="17.6330348">
        <ele>16.4797</ele>
        <time>2013-04-24T16:13:32Z</time>
      </trkpt>
      <trkpt lat="59.8718586" lon="17.6329162">
        <ele>16.4797</ele>
        <time>2013-04-24T16:13:33Z</time>
      </trkpt>
      <trkpt lat="59.8718099" lon="17.6328054">
        <ele>17.4412</ele>
        <time>2013-04-24T16:13:34Z</time>
      </trkpt>
      <trkpt lat="59.8717686" lon="17.6326841">
        <ele>17.4412</ele>
        <time>2013-04-24T16:13:35Z</time>
      </trkpt>
      <trkpt lat="59.8717318" lon="17.6325634">
        <ele>16.9604</ele>
        <time>2013-04-24T16:13:36Z</time>
      </trkpt>
      <trkpt lat="59.8716935" lon="17.6324431">
        <ele>16.9604</ele>
        <time>2013-04-24T16:13:37Z</time>
      </trkpt>
      <trkpt lat="59.8716537" lon="17.632322">
        <ele>16.9604</ele>
        <time>2013-04-24T16:13:38Z</time>
      </trkpt>
      <trkpt lat="59.8716158" lon="17.6321982">
        <ele>16.9604</ele>
        <time>2013-04-24T16:13:39Z</time>
      </trkpt>
      <trkpt lat="59.8715816" lon="17.6320735">
        <ele>16.9604</ele>
        <time>2013-04-24T16:13:40Z</time>
      </trkpt>
      <trkpt lat="59.871547" lon="17.6319512">
        <ele>16.9604</ele>
        <time>2013-04-24T16:13:41Z</time>
      </trkpt>
      <trkpt lat="59.8715121" lon="17.6318329">
        <ele>16.9604</ele>
        <time>2013-04-24T16:13:42Z</time>
      </trkpt>
      <trkpt lat="59.8714759" lon="17.6317156">
        <ele>17.4412</ele>
        <time>2013-04-24T16:13:43Z</time>
      </trkpt>
      <trkpt lat="59.8714381" lon="17.6315985">
        <ele>17.4412</ele>
        <time>2013-04-24T16:13:44Z</time>
      </trkpt>
      <trkpt lat="59.8714122" lon="17.6314767">
        <ele>16.9604</ele>
        <time>2013-04-24T16:13:45Z</time>
      </trkpt>
      <trkpt lat="59.8713791" lon="17.6313689">
        <ele>16.9604</ele>
        <time>2013-04-24T16:13:46Z</time>
      </trkpt>
      <trkpt lat="59.8713448" lon="17.631263">
        <ele>16.9604</ele>
        <time>2013-04-24T16:13:47Z</time>
      </trkpt>
      <trkpt lat="59.8713122" lon="17.6311597">
        <ele>16.9604</ele>
        <time>2013-04-24T16:13:48Z</time>
      </trkpt>
      <trkpt lat="59.871272" lon="17.6310513">
        <ele>17.4412</ele>
        <time>2013-04-24T16:13:49Z</time>
      </trkpt>
      <trkpt lat="59.871239" lon="17.6309493">
        <ele>17.4412</ele>
        <time>2013-04-24T16:13:50Z</time>
      </trkpt>
      <trkpt lat="59.8712069" lon="17.6308477">
        <ele>17.4412</ele>
        <time>2013-04-24T16:13:51Z</time>
      </trkpt>
      <trkpt lat="59.8711758" lon="17.6307406">
        <ele>17.9218</ele>
        <time>2013-04-24T16:13:52Z</time>
      </trkpt>
      <trkpt lat="59.8711448" lon="17.6306349">
        <ele>17.9218</ele>
        <time>2013-04-24T16:13:53Z</time>
      </trkpt>
      <trkpt lat="59.8711128" lon="17.6305282">
        <ele>17.9218</ele>
        <time>2013-04-24T16:13:54Z</time>
      </trkpt>
      <trkpt lat="59.87108" lon="17.6304207">
        <ele>17.9218</ele>
        <time>2013-04-24T16:13:55Z</time>
      </trkpt>
      <trkpt lat="59.8710479" lon="17.6303135">
        <ele>17.9218</ele>
        <time>2013-04-24T16:13:56Z</time>
      </trkpt>
      <trkpt lat="59.8710183" lon="17.630207">
        <ele>17.9218</ele>
        <time>2013-04-24T16:13:57Z</time>
      </trkpt>
      <trkpt lat="59.8709863" lon="17.6301012">
        <ele>17.9218</ele>
        <time>2013-04-24T16:13:58Z</time>
      </trkpt>
      <trkpt lat="59.8709559" lon="17.6300001">
        <ele>17.9218</ele>
        <time>2013-04-24T16:13:59Z</time>
      </trkpt>
      <trkpt lat="59.8709275" lon="17.6299053">
        <ele>17.9218</ele>
        <time>2013-04-24T16:14:00Z</time>
      </trkpt>
      <trkpt lat="59.870902" lon="17.6298124">
        <ele>17.4412</ele>
        <time>2013-04-24T16:14:01Z</time>
      </trkpt>
      <trkpt lat="59.8708762" lon="17.6297211">
        <ele>17.4412</ele>
        <time>2013-04-24T16:14:02Z</time>
      </trkpt>
      <trkpt lat="59.8708429" lon="17.6296222">
        <ele>17.4412</ele>
        <time>2013-04-24T16:14:03Z</time>
      </trkpt>
      <trkpt lat="59.8708154" lon="17.629528">
        <ele>17.4412</ele>
        <time>2013-04-24T16:14:04Z</time>
      </trkpt>
      <trkpt lat="59.8707884" lon="17.6294326">
        <ele>17.4412</ele>
        <time>2013-04-24T16:14:05Z</time>
      </trkpt>
      <trkpt lat="59.8707616" lon="17.6293397">
        <ele>17.4412</ele>
        <time>2013-04-24T16:14:06Z</time>
      </trkpt>
      <trkpt lat="59.8707355" lon="17.629242">
        <ele>17.4412</ele>
        <time>2013-04-24T16:14:07Z</time>
      </trkpt>
      <trkpt lat="59.8707086" lon="17.629143">
        <ele>17.4412</ele>
        <time>2013-04-24T16:14:08Z</time>
      </trkpt>
      <trkpt lat="59.8706798" lon="17.6290437">
        <ele>17.4412</ele>
        <time>2013-04-24T16:14:09Z</time>
      </trkpt>
      <trkpt lat="59.8706497" lon="17.6289415">
        <ele>17.4412</ele>
        <time>2013-04-24T16:14:10Z</time>
      </trkpt>
      <trkpt lat="59.8706197" lon="17.6288395">
        <ele>17.9218</ele>
        <time>2013-04-24T16:14:11Z</time>
      </trkpt>
      <trkpt lat="59.8705891" lon="17.6287389">
        <ele>17.9218</ele>
        <time>2013-04-24T16:14:12Z</time>
      </trkpt>
      <trkpt lat="59.8705623" lon="17.6286297">
        <ele>17.4412</ele>
        <time>2013-04-24T16:14:13Z</time>
      </trkpt>
      <trkpt lat="59.8705252" lon="17.6285399">
        <ele>17.9218</ele>
        <time>2013-04-24T16:14:14Z</time>
      </trkpt>
      <trkpt lat="59.8705009" lon="17.6284406">
        <ele>17.9218</ele>
        <time>2013-04-24T16:14:15Z</time>
      </trkpt>
      <trkpt lat="59.8704698" lon="17.6283456">
        <ele>18.4023</ele>
        <time>2013-04-24T16:14:16Z</time>
      </trkpt>
      <trkpt lat="59.8704395" lon="17.6282516">
        <ele>18.4023</ele>
        <time>2013-04-24T16:14:17Z</time>
      </trkpt>
      <trkpt lat="59.8704161" lon="17.6281605">
        <ele>18.4023</ele>
        <time>2013-04-24T16:14:18Z</time>
      </trkpt>
      <trkpt lat="59.8703946" lon="17.6280737">
        <ele>17.9218</ele>
        <time>2013-04-24T16:14:19Z</time>
      </trkpt>
      <trkpt lat="59.8703751" lon="17.6279852">
        <ele>17.9218</ele>
        <time>2013-04-24T16:14:20Z</time>
      </trkpt>
      <trkpt lat="59.8703591" lon="17.6278978">
        <ele>18.4023</ele>
        <time>2013-04-24T16:14:21Z</time>
      </trkpt>
      <trkpt lat="59.8703466" lon="17.62782">
        <ele>18.4023</ele>
        <time>2013-04-24T16:14:22Z</time>
      </trkpt>
      <trkpt lat="59.8703269" lon="17.6277454">
        <ele>18.8831</ele>
        <time>2013-04-24T16:14:23Z</time>
      </trkpt>
      <trkpt lat="59.8703227" lon="17.6276725">
        <ele>18.4023</ele>
        <time>2013-04-24T16:14:24Z</time>
      </trkpt>
      <trkpt lat="59.8703104" lon="17.6275977">
        <ele>18.8831</ele>
        <time>2013-04-24T16:14:25Z</time>
      </trkpt>
      <trkpt lat="59.8702988" lon="17.6275237">
        <ele>18.4023</ele>
        <time>2013-04-24T16:14:26Z</time>
      </trkpt>
      <trkpt lat="59.8702809" lon="17.6274489">
        <ele>17.9218</ele>
        <time>2013-04-24T16:14:27Z</time>
      </trkpt>
      <trkpt lat="59.8702641" lon="17.6273787">
        <ele>17.4412</ele>
        <time>2013-04-24T16:14:28Z</time>
      </trkpt>
      <trkpt lat="59.8702497" lon="17.6273187">
        <ele>17.4412</ele>
        <time>2013-04-24T16:14:29Z</time>
      </trkpt>
      <trkpt lat="59.8702323" lon="17.6272741">
        <ele>16.9604</ele>
        <time>2013-04-24T16:14:30Z</time>
      </trkpt>
      <trkpt lat="59.870211" lon="17.627241">
        <ele>16.4797</ele>
        <time>2013-04-24T16:14:31Z</time>
      </trkpt>
      <trkpt lat="59.870188" lon="17.6272145">
        <ele>16.4797</ele>
        <time>2013-04-24T16:14:32Z</time>
      </trkpt>
      <trkpt lat="59.87016" lon="17.6271818">
        <ele>16.4797</ele>
        <time>2013-04-24T16:14:33Z</time>
      </trkpt>
      <trkpt lat="59.870131" lon="17.6271345">
        <ele>15.999</ele>
        <time>2013-04-24T16:14:34Z</time>
      </trkpt>
      <trkpt lat="59.8701047" lon="17.6270641">
        <ele>15.999</ele>
        <time>2013-04-24T16:14:35Z</time>
      </trkpt>
      <trkpt lat="59.8700842" lon="17.6269807">
        <ele>15.999</ele>
        <time>2013-04-24T16:14:36Z</time>
      </trkpt>
      <trkpt lat="59.8700663" lon="17.6268938">
        <ele>15.999</ele>
        <time>2013-04-24T16:14:37Z</time>
      </trkpt>
      <trkpt lat="59.8700476" lon="17.6268024">
        <ele>15.999</ele>
        <time>2013-04-24T16:14:38Z</time>
      </trkpt>
      <trkpt lat="59.8700295" lon="17.6267071">
        <ele>15.5184</ele>
        <time>2013-04-24T16:14:39Z</time>
      </trkpt>
      <trkpt lat="59.8700101" lon="17.6266092">
        <ele>15.5184</ele>
        <time>2013-04-24T16:14:40Z</time>
      </trkpt>
      <trkpt lat="59.8699881" lon="17.6265042">
        <ele>15.5184</ele>
        <time>2013-04-24T16:14:41Z</time>
      </trkpt>
      <trkpt lat="59.8699695" lon="17.626406">
        <ele>15.5184</ele>
        <time>2013-04-24T16:14:42Z</time>
      </trkpt>
      <trkpt lat="59.8699395" lon="17.6263048">
        <ele>15.5184</ele>
        <time>2013-04-24T16:14:43Z</time>
      </trkpt>
      <trkpt lat="59.8699166" lon="17.626239">
        <ele>15.999</ele>
        <time>2013-04-24T16:14:44Z</time>
      </trkpt>
      <trkpt lat="59.8699027" lon="17.6261751">
        <ele>15.999</ele>
        <time>2013-04-24T16:14:45Z</time>
      </trkpt>
      <trkpt lat="59.8698877" lon="17.6261138">
        <ele>15.999</ele>
        <time>2013-04-24T16:14:46Z</time>
      </trkpt>
      <trkpt lat="59.8698736" lon="17.6260495">
        <ele>16.4797</ele>
        <time>2013-04-24T16:14:47Z</time>
      </trkpt>
      <trkpt lat="59.8698569" lon="17.6259826">
        <ele>16.4797</ele>
        <time>2013-04-24T16:14:48Z</time>
      </trkpt>
      <trkpt lat="59.8698441" lon="17.6259069">
        <ele>16.9604</ele>
        <time>2013-04-24T16:14:49Z</time>
      </trkpt>
      <trkpt lat="59.869824" lon="17.6258193">
        <ele>16.9604</ele>
        <time>2013-04-24T16:14:50Z</time>
      </trkpt>
      <trkpt lat="59.8698031" lon="17.6257284">
        <ele>16.4797</ele>
        <time>2013-04-24T16:14:51Z</time>
      </trkpt>
      <trkpt lat="59.8697819" lon="17.625632">
        <ele>15.999</ele>
        <time>2013-04-24T16:14:52Z</time>
      </trkpt>
      <trkpt lat="59.8697624" lon="17.6255294">
        <ele>15.999</ele>
        <time>2013-04-24T16:14:53Z</time>
      </trkpt>
      <trkpt lat="59.869739" lon="17.6254222">
        <ele>15.999</ele>
        <time>2013-04-24T16:14:54Z</time>
      </trkpt>
      <trkpt lat="59.8697141" lon="17.6253096">
        <ele>16.4797</ele>
        <time>2013-04-24T16:14:55Z</time>
      </trkpt>
      <trkpt lat="59.8696904" lon="17.6251938">
        <ele>16.4797</ele>
        <time>2013-04-24T16:14:56Z</time>
      </trkpt>
      <trkpt lat="59.8696619" lon="17.6250746">
        <ele>15.999</ele>
        <time>2013-04-24T16:14:57Z</time>
      </trkpt>
      <trkpt lat="59.8696339" lon="17.6249497">
        <ele>15.5184</ele>
        <time>2013-04-24T16:14:58Z</time>
      </trkpt>
      <trkpt lat="59.8696064" lon="17.6248157">
        <ele>15.5184</ele>
        <time>2013-04-24T16:14:59Z</time>
      </trkpt>
      <trkpt lat="59.8695774" lon="17.624674">
        <ele>15.0377</ele>
        <time>2013-04-24T16:15:00Z</time>
      </trkpt>
      <trkpt lat="59.8695449" lon="17.6245268">
        <ele>14.557</ele>
        <time>2013-04-24T16:15:01Z</time>
      </trkpt>
      <trkpt lat="59.8695116" lon="17.62438">
        <ele>14.557</ele>
        <time>2013-04-24T16:15:02Z</time>
      </trkpt>
      <trkpt lat="59.8694753" lon="17.6242355">
        <ele>14.0764</ele>
        <time>2013-04-24T16:15:03Z</time>
      </trkpt>
      <trkpt lat="59.8694392" lon="17.6240908">
        <ele>13.5958</ele>
        <time>2013-04-24T16:15:04Z</time>
      </trkpt>
      <trkpt lat="59.8694086" lon="17.6239437">
        <ele>13.5958</ele>
        <time>2013-04-24T16:15:05Z</time>
      </trkpt>
      <trkpt lat="59.8693802" lon="17.6237938">
        <ele>13.1151</ele>
        <time>2013-04-24T16:15:06Z</time>
      </trkpt>
      <trkpt lat="59.8693507" lon="17.6236483">
        <ele>12.6344</ele>
        <time>2013-04-24T16:15:07Z</time>
      </trkpt>
      <trkpt lat="59.8693213" lon="17.6235055">
        <ele>12.6344</ele>
        <time>2013-04-24T16:15:08Z</time>
      </trkpt>
      <trkpt lat="59.8692906" lon="17.6233615">
        <ele>12.1538</ele>
        <time>2013-04-24T16:15:09Z</time>
      </trkpt>
      <trkpt lat="59.8692602" lon="17.6232176">
        <ele>11.6732</ele>
        <time>2013-04-24T16:15:10Z</time>
      </trkpt>
      <trkpt lat="59.869227" lon="17.623073">
        <ele>11.1925</ele>
        <time>2013-04-24T16:15:11Z</time>
      </trkpt>
      <trkpt lat="59.8691904" lon="17.6229286">
        <ele>10.7118</ele>
        <time>2013-04-24T16:15:12Z</time>
      </trkpt>
      <trkpt lat="59.869151" lon="17.6227859">
        <ele>10.2312</ele>
        <time>2013-04-24T16:15:13Z</time>
      </trkpt>
      <trkpt lat="59.8691116" lon="17.6226426">
        <ele>10.2312</ele>
        <time>2013-04-24T16:15:14Z</time>
      </trkpt>
      <trkpt lat="59.8690745" lon="17.6224995">
        <ele>9.75061</ele>
        <time>2013-04-24T16:15:15Z</time>
      </trkpt>
      <trkpt lat="59.8690401" lon="17.6223579">
        <ele>9.75061</ele>
        <time>2013-04-24T16:15:16Z</time>
      </trkpt>
      <trkpt lat="59.8690079" lon="17.6222183">
        <ele>9.75061</ele>
        <time>2013-04-24T16:15:17Z</time>
      </trkpt>
      <trkpt lat="59.8689782" lon="17.6220834">
        <ele>9.75061</ele>
        <time>2013-04-24T16:15:18Z</time>
      </trkpt>
      <trkpt lat="59.8689527" lon="17.6219586">
        <ele>9.2699</ele>
        <time>2013-04-24T16:15:19Z</time>
      </trkpt>
      <trkpt lat="59.8689302" lon="17.621849">
        <ele>9.2699</ele>
        <time>2013-04-24T16:15:20Z</time>
      </trkpt>
      <trkpt lat="59.8689113" lon="17.6217495">
        <ele>9.2699</ele>
        <time>2013-04-24T16:15:21Z</time>
      </trkpt>
      <trkpt lat="59.8688919" lon="17.6216514">
        <ele>9.75061</ele>
        <time>2013-04-24T16:15:22Z</time>
      </trkpt>
      <trkpt lat="59.8688678" lon="17.6215621">
        <ele>9.75061</ele>
        <time>2013-04-24T16:15:23Z</time>
      </trkpt>
      <trkpt lat="59.8688289" lon="17.6214931">
        <ele>9.75061</ele>
        <time>2013-04-24T16:15:24Z</time>
      </trkpt>
      <trkpt lat="59.8687781" lon="17.6214641">
        <ele>10.7118</ele>
        <time>2013-04-24T16:15:25Z</time>
      </trkpt>
      <trkpt lat="59.8687231" lon="17.6214714">
        <ele>10.7118</ele>
        <time>2013-04-24T16:15:26Z</time>
      </trkpt>
      <trkpt lat="59.868672" lon="17.6214962">
        <ele>10.7118</ele>
        <time>2013-04-24T16:15:27Z</time>
      </trkpt>
      <trkpt lat="59.8686211" lon="17.6215237">
        <ele>10.7118</ele>
        <time>2013-04-24T16:15:28Z</time>
      </trkpt>
      <trkpt lat="59.8685682" lon="17.6215511">
        <ele>10.7118</ele>
        <time>2013-04-24T16:15:29Z</time>
      </trkpt>
      <trkpt lat="59.868515" lon="17.6215815">
        <ele>10.7118</ele>
        <time>2013-04-24T16:15:30Z</time>
      </trkpt>
      <trkpt lat="59.8684621" lon="17.6216138">
        <ele>10.7118</ele>
        <time>2013-04-24T16:15:31Z</time>
      </trkpt>
      <trkpt lat="59.8684088" lon="17.6216474">
        <ele>10.7118</ele>
        <time>2013-04-24T16:15:32Z</time>
      </trkpt>
      <trkpt lat="59.8683552" lon="17.6216825">
        <ele>10.7118</ele>
        <time>2013-04-24T16:15:33Z</time>
      </trkpt>
      <trkpt lat="59.8683009" lon="17.6217184">
        <ele>10.7118</ele>
        <time>2013-04-24T16:15:34Z</time>
      </trkpt>
      <trkpt lat="59.8682461" lon="17.6217578">
        <ele>10.7118</ele>
        <time>2013-04-24T16:15:35Z</time>
      </trkpt>
      <trkpt lat="59.8681896" lon="17.6217985">
        <ele>10.7118</ele>
        <time>2013-04-24T16:15:36Z</time>
      </trkpt>
      <trkpt lat="59.8681322" lon="17.621838">
        <ele>10.2312</ele>
        <time>2013-04-24T16:15:37Z</time>
      </trkpt>
      <trkpt lat="59.8680731" lon="17.6218774">
        <ele>10.2312</ele>
        <time>2013-04-24T16:15:38Z</time>
      </trkpt>
      <trkpt lat="59.8680135" lon="17.621919">
        <ele>10.2312</ele>
        <time>2013-04-24T16:15:39Z</time>
      </trkpt>
      <trkpt lat="59.867953" lon="17.6219623">
        <ele>10.2312</ele>
        <time>2013-04-24T16:15:40Z</time>
      </trkpt>
      <trkpt lat="59.8678911" lon="17.6220031">
        <ele>10.2312</ele>
        <time>2013-04-24T16:15:41Z</time>
      </trkpt>
      <trkpt lat="59.8678293" lon="17.6220406">
        <ele>10.2312</ele>
        <time>2013-04-24T16:15:42Z</time>
      </trkpt>
      <trkpt lat="59.8677663" lon="17.6220798">
        <ele>11.1925</ele>
        <time>2013-04-24T16:15:43Z</time>
      </trkpt>
      <trkpt lat="59.8677051" lon="17.6221167">
        <ele>11.6732</ele>
        <time>2013-04-24T16:15:44Z</time>
      </trkpt>
      <trkpt lat="59.8676428" lon="17.622153">
        <ele>12.6344</ele>
        <time>2013-04-24T16:15:45Z</time>
      </trkpt>
      <trkpt lat="59.8675795" lon="17.6221857">
        <ele>13.5958</ele>
        <time>2013-04-24T16:15:46Z</time>
      </trkpt>
      <trkpt lat="59.8675157" lon="17.6222167">
        <ele>14.0764</ele>
        <time>2013-04-24T16:15:47Z</time>
      </trkpt>
      <trkpt lat="59.8674505" lon="17.622242">
        <ele>14.557</ele>
        <time>2013-04-24T16:15:48Z</time>
      </trkpt>
      <trkpt lat="59.8673847" lon="17.6222597">
        <ele>15.0377</ele>
        <time>2013-04-24T16:15:49Z</time>
      </trkpt>
      <trkpt lat="59.8673193" lon="17.6222727">
        <ele>15.0377</ele>
        <time>2013-04-24T16:15:50Z</time>
      </trkpt>
      <trkpt lat="59.8672537" lon="17.6222851">
        <ele>15.5184</ele>
        <time>2013-04-24T16:15:51Z</time>
      </trkpt>
      <trkpt lat="59.8671889" lon="17.622295">
        <ele>15.0377</ele>
        <time>2013-04-24T16:15:52Z</time>
      </trkpt>
      <trkpt lat="59.8671239" lon="17.6223025">
        <ele>15.0377</ele>
        <time>2013-04-24T16:15:53Z</time>
      </trkpt>
      <trkpt lat="59.8670587" lon="17.6223074">
        <ele>15.0377</ele>
        <time>2013-04-24T16:15:54Z</time>
      </trkpt>
      <trkpt lat="59.8669926" lon="17.6223101">
        <ele>15.5184</ele>
        <time>2013-04-24T16:15:55Z</time>
      </trkpt>
      <trkpt lat="59.8669267" lon="17.6223059">
        <ele>15.5184</ele>
        <time>2013-04-24T16:15:56Z</time>
      </trkpt>
      <trkpt lat="59.8668615" lon="17.6222963">
        <ele>15.5184</ele>
        <time>2013-04-24T16:15:57Z</time>
      </trkpt>
      <trkpt lat="59.8667988" lon="17.6222847">
        <ele>15.5184</ele>
        <time>2013-04-24T16:15:58Z</time>
      </trkpt>
      <trkpt lat="59.866739" lon="17.6222726">
        <ele>15.0377</ele>
        <time>2013-04-24T16:15:59Z</time>
      </trkpt>
      <trkpt lat="59.8666823" lon="17.6222571">
        <ele>15.0377</ele>
        <time>2013-04-24T16:16:00Z</time>
      </trkpt>
      <trkpt lat="59.8666299" lon="17.6222352">
        <ele>15.0377</ele>
        <time>2013-04-24T16:16:01Z</time>
      </trkpt>
      <trkpt lat="59.8665807" lon="17.6222053">
        <ele>15.0377</ele>
        <time>2013-04-24T16:16:02Z</time>
      </trkpt>
      <trkpt lat="59.8665336" lon="17.6221608">
        <ele>15.0377</ele>
        <time>2013-04-24T16:16:03Z</time>
      </trkpt>
      <trkpt lat="59.8664902" lon="17.6220995">
        <ele>15.5184</ele>
        <time>2013-04-24T16:16:04Z</time>
      </trkpt>
      <trkpt lat="59.8664471" lon="17.6220307">
        <ele>15.0377</ele>
        <time>2013-04-24T16:16:05Z</time>
      </trkpt>
      <trkpt lat="59.8664057" lon="17.6219562">
        <ele>15.0377</ele>
        <time>2013-04-24T16:16:06Z</time>
      </trkpt>
      <trkpt lat="59.8663654" lon="17.621878">
        <ele>14.557</ele>
        <time>2013-04-24T16:16:07Z</time>
      </trkpt>
      <trkpt lat="59.8663248" lon="17.6217956">
        <ele>14.0764</ele>
        <time>2013-04-24T16:16:08Z</time>
      </trkpt>
      <trkpt lat="59.8662843" lon="17.6217106">
        <ele>14.0764</ele>
        <time>2013-04-24T16:16:09Z</time>
      </trkpt>
      <trkpt lat="59.8662435" lon="17.6216236">
        <ele>14.0764</ele>
        <time>2013-04-24T16:16:10Z</time>
      </trkpt>
      <trkpt lat="59.8662031" lon="17.6215343">
        <ele>14.0764</ele>
        <time>2013-04-24T16:16:11Z</time>
      </trkpt>
      <trkpt lat="59.8661623" lon="17.6214438">
        <ele>13.5958</ele>
        <time>2013-04-24T16:16:12Z</time>
      </trkpt>
      <trkpt lat="59.8661212" lon="17.6213527">
        <ele>13.5958</ele>
        <time>2013-04-24T16:16:13Z</time>
      </trkpt>
      <trkpt lat="59.8660804" lon="17.6212623">
        <ele>13.5958</ele>
        <time>2013-04-24T16:16:14Z</time>
      </trkpt>
      <trkpt lat="59.8660388" lon="17.6211707">
        <ele>13.1151</ele>
        <time>2013-04-24T16:16:15Z</time>
      </trkpt>
      <trkpt lat="59.8659985" lon="17.621077">
        <ele>13.1151</ele>
        <time>2013-04-24T16:16:16Z</time>
      </trkpt>
      <trkpt lat="59.8659571" lon="17.6209837">
        <ele>13.1151</ele>
        <time>2013-04-24T16:16:17Z</time>
      </trkpt>
      <trkpt lat="59.8659151" lon="17.6208897">
        <ele>13.1151</ele>
        <time>2013-04-24T16:16:18Z</time>
      </trkpt>
      <trkpt lat="59.8658717" lon="17.6207951">
        <ele>13.1151</ele>
        <time>2013-04-24T16:16:19Z</time>
      </trkpt>
      <trkpt lat="59.865827" lon="17.6206963">
        <ele>13.5958</ele>
        <time>2013-04-24T16:16:20Z</time>
      </trkpt>
      <trkpt lat="59.8657814" lon="17.6205913">
        <ele>13.5958</ele>
        <time>2013-04-24T16:16:21Z</time>
      </trkpt>
      <trkpt lat="59.8657336" lon="17.620481">
        <ele>13.5958</ele>
        <time>2013-04-24T16:16:22Z</time>
      </trkpt>
      <trkpt lat="59.8656802" lon="17.6203689">
        <ele>13.5958</ele>
        <time>2013-04-24T16:16:23Z</time>
      </trkpt>
      <trkpt lat="59.8656281" lon="17.6202572">
        <ele>13.5958</ele>
        <time>2013-04-24T16:16:24Z</time>
      </trkpt>
      <trkpt lat="59.8655761" lon="17.6201435">
        <ele>13.5958</ele>
        <time>2013-04-24T16:16:25Z</time>
      </trkpt>
      <trkpt lat="59.8655229" lon="17.6200276">
        <ele>13.5958</ele>
        <time>2013-04-24T16:16:26Z</time>
      </trkpt>
      <trkpt lat="59.8654699" lon="17.6199119">
        <ele>13.5958</ele>
        <time>2013-04-24T16:16:27Z</time>
      </trkpt>
      <trkpt lat="59.8654166" lon="17.6197953">
        <ele>13.1151</ele>
        <time>2013-04-24T16:16:28Z</time>
      </trkpt>
      <trkpt lat="59.8653629" lon="17.6196795">
        <ele>13.1151</ele>
        <time>2013-04-24T16:16:29Z</time>
      </trkpt>
      <trkpt lat="59.8653101" lon="17.6195641">
        <ele>13.1151</ele>
        <time>2013-04-24T16:16:30Z</time>
      </trkpt>
      <trkpt lat="59.8652571" lon="17.6194488">
        <ele>13.1151</ele>
        <time>2013-04-24T16:16:31Z</time>
      </trkpt>
      <trkpt lat="59.8652048" lon="17.6193331">
        <ele>13.1151</ele>
        <time>2013-04-24T16:16:32Z</time>
      </trkpt>
      <trkpt lat="59.865154" lon="17.6192175">
        <ele>13.5958</ele>
        <time>2013-04-24T16:16:33Z</time>
      </trkpt>
      <trkpt lat="59.8650998" lon="17.6190988">
        <ele>13.5958</ele>
        <time>2013-04-24T16:16:34Z</time>
      </trkpt>
      <trkpt lat="59.8650446" lon="17.6189798">
        <ele>14.0764</ele>
        <time>2013-04-24T16:16:35Z</time>
      </trkpt>
      <trkpt lat="59.8649916" lon="17.618864">
        <ele>14.0764</ele>
        <time>2013-04-24T16:16:36Z</time>
      </trkpt>
      <trkpt lat="59.8649402" lon="17.6187507">
        <ele>14.557</ele>
        <time>2013-04-24T16:16:37Z</time>
      </trkpt>
      <trkpt lat="59.8648894" lon="17.6186383">
        <ele>14.557</ele>
        <time>2013-04-24T16:16:38Z</time>
      </trkpt>
      <trkpt lat="59.8648423" lon="17.6185258">
        <ele>13.5958</ele>
        <time>2013-04-24T16:16:39Z</time>
      </trkpt>
      <trkpt lat="59.8647956" lon="17.6184161">
        <ele>14.0764</ele>
        <time>2013-04-24T16:16:40Z</time>
      </trkpt>
      <trkpt lat="59.864745" lon="17.6183055">
        <ele>14.0764</ele>
        <time>2013-04-24T16:16:41Z</time>
      </trkpt>
      <trkpt lat="59.8646965" lon="17.6181938">
        <ele>14.0764</ele>
        <time>2013-04-24T16:16:42Z</time>
      </trkpt>
      <trkpt lat="59.864647" lon="17.6180823">
        <ele>14.0764</ele>
        <time>2013-04-24T16:16:43Z</time>
      </trkpt>
      <trkpt lat="59.8645968" lon="17.6179748">
        <ele>14.557</ele>
        <time>2013-04-24T16:16:44Z</time>
      </trkpt>
      <trkpt lat="59.8645469" lon="17.6178661">
        <ele>14.557</ele>
        <time>2013-04-24T16:16:45Z</time>
      </trkpt>
      <trkpt lat="59.8645015" lon="17.6177572">
        <ele>15.0377</ele>
        <time>2013-04-24T16:16:46Z</time>
      </trkpt>
      <trkpt lat="59.8644559" lon="17.6176508">
        <ele>15.5184</ele>
        <time>2013-04-24T16:16:47Z</time>
      </trkpt>
      <trkpt lat="59.8644073" lon="17.6175453">
        <ele>15.0377</ele>
        <time>2013-04-24T16:16:48Z</time>
      </trkpt>
      <trkpt lat="59.8643625" lon="17.617447">
        <ele>15.0377</ele>
        <time>2013-04-24T16:16:49Z</time>
      </trkpt>
      <trkpt lat="59.8643201" lon="17.6173534">
        <ele>15.5184</ele>
        <time>2013-04-24T16:16:50Z</time>
      </trkpt>
      <trkpt lat="59.8642797" lon="17.617263">
        <ele>15.999</ele>
        <time>2013-04-24T16:16:51Z</time>
      </trkpt>
      <trkpt lat="59.8642391" lon="17.617177">
        <ele>15.999</ele>
        <time>2013-04-24T16:16:52Z</time>
      </trkpt>
      <trkpt lat="59.8642001" lon="17.6170927">
        <ele>16.4797</ele>
        <time>2013-04-24T16:16:53Z</time>
      </trkpt>
      <trkpt lat="59.8641623" lon="17.6170092">
        <ele>15.999</ele>
        <time>2013-04-24T16:16:54Z</time>
      </trkpt>
      <trkpt lat="59.8641238" lon="17.6169216">
        <ele>15.5184</ele>
        <time>2013-04-24T16:16:55Z</time>
      </trkpt>
      <trkpt lat="59.8640879" lon="17.6168341">
        <ele>15.5184</ele>
        <time>2013-04-24T16:16:56Z</time>
      </trkpt>
      <trkpt lat="59.8640485" lon="17.6167451">
        <ele>15.5184</ele>
        <time>2013-04-24T16:16:57Z</time>
      </trkpt>
      <trkpt lat="59.8640081" lon="17.6166543">
        <ele>15.5184</ele>
        <time>2013-04-24T16:16:58Z</time>
      </trkpt>
      <trkpt lat="59.8639674" lon="17.6165632">
        <ele>15.5184</ele>
        <time>2013-04-24T16:16:59Z</time>
      </trkpt>
      <trkpt lat="59.8639264" lon="17.6164704">
        <ele>15.5184</ele>
        <time>2013-04-24T16:17:00Z</time>
      </trkpt>
      <trkpt lat="59.8638841" lon="17.6163781">
        <ele>15.5184</ele>
        <time>2013-04-24T16:17:01Z</time>
      </trkpt>
      <trkpt lat="59.863841" lon="17.6162849">
        <ele>15.5184</ele>
        <time>2013-04-24T16:17:02Z</time>
      </trkpt>
      <trkpt lat="59.8637985" lon="17.61619">
        <ele>15.5184</ele>
        <time>2013-04-24T16:17:03Z</time>
      </trkpt>
      <trkpt lat="59.8637566" lon="17.6160952">
        <ele>15.5184</ele>
        <time>2013-04-24T16:17:04Z</time>
      </trkpt>
      <trkpt lat="59.8637137" lon="17.6160001">
        <ele>15.5184</ele>
        <time>2013-04-24T16:17:05Z</time>
      </trkpt>
      <trkpt lat="59.8636714" lon="17.6159042">
        <ele>15.999</ele>
        <time>2013-04-24T16:17:06Z</time>
      </trkpt>
      <trkpt lat="59.8636312" lon="17.6158063">
        <ele>15.999</ele>
        <time>2013-04-24T16:17:07Z</time>
      </trkpt>
      <trkpt lat="59.863597" lon="17.6156896">
        <ele>15.5184</ele>
        <time>2013-04-24T16:17:08Z</time>
      </trkpt>
      <trkpt lat="59.8635518" lon="17.6155899">
        <ele>15.999</ele>
        <time>2013-04-24T16:17:09Z</time>
      </trkpt>
      <trkpt lat="59.8635085" lon="17.6154986">
        <ele>16.4797</ele>
        <time>2013-04-24T16:17:10Z</time>
      </trkpt>
      <trkpt lat="59.8634661" lon="17.6154093">
        <ele>16.4797</ele>
        <time>2013-04-24T16:17:11Z</time>
      </trkpt>
      <trkpt lat="59.8634215" lon="17.6153188">
        <ele>16.4797</ele>
        <time>2013-04-24T16:17:12Z</time>
      </trkpt>
      <trkpt lat="59.8633794" lon="17.6152304">
        <ele>16.9604</ele>
        <time>2013-04-24T16:17:13Z</time>
      </trkpt>
      <trkpt lat="59.8633352" lon="17.6151469">
        <ele>17.4412</ele>
        <time>2013-04-24T16:17:14Z</time>
      </trkpt>
      <trkpt lat="59.8633017" lon="17.6150666">
        <ele>17.9218</ele>
        <time>2013-04-24T16:17:15Z</time>
      </trkpt>
      <trkpt lat="59.8632681" lon="17.614989">
        <ele>17.9218</ele>
        <time>2013-04-24T16:17:16Z</time>
      </trkpt>
      <trkpt lat="59.8632335" lon="17.614916">
        <ele>17.9218</ele>
        <time>2013-04-24T16:17:17Z</time>
      </trkpt>
      <trkpt lat="59.8632013" lon="17.6148452">
        <ele>18.4023</ele>
        <time>2013-04-24T16:17:18Z</time>
      </trkpt>
      <trkpt lat="59.8631707" lon="17.6147843">
        <ele>18.4023</ele>
        <time>2013-04-24T16:17:19Z</time>
      </trkpt>
      <trkpt lat="59.8631448" lon="17.6147205">
        <ele>18.4023</ele>
        <time>2013-04-24T16:17:20Z</time>
      </trkpt>
      <trkpt lat="59.8631208" lon="17.614665">
        <ele>18.4023</ele>
        <time>2013-04-24T16:17:21Z</time>
      </trkpt>
      <trkpt lat="59.8630966" lon="17.6146159">
        <ele>18.8831</ele>
        <time>2013-04-24T16:17:22Z</time>
      </trkpt>
      <trkpt lat="59.8630754" lon="17.6145629">
        <ele>18.4023</ele>
        <time>2013-04-24T16:17:23Z</time>
      </trkpt>
      <trkpt lat="59.8630522" lon="17.6145025">
        <ele>18.4023</ele>
        <time>2013-04-24T16:17:24Z</time>
      </trkpt>
      <trkpt lat="59.8630338" lon="17.6144427">
        <ele>18.4023</ele>
        <time>2013-04-24T16:17:25Z</time>
      </trkpt>
      <trkpt lat="59.8630164" lon="17.6143759">
        <ele>18.4023</ele>
        <time>2013-04-24T16:17:26Z</time>
      </trkpt>
      <trkpt lat="59.8629925" lon="17.6143089">
        <ele>17.9218</ele>
        <time>2013-04-24T16:17:27Z</time>
      </trkpt>
      <trkpt lat="59.8629589" lon="17.6142591">
        <ele>18.4023</ele>
        <time>2013-04-24T16:17:28Z</time>
      </trkpt>
      <trkpt lat="59.8629194" lon="17.6142205">
        <ele>18.4023</ele>
        <time>2013-04-24T16:17:29Z</time>
      </trkpt>
      <trkpt lat="59.8628797" lon="17.6141754">
        <ele>17.9218</ele>
        <time>2013-04-24T16:17:30Z</time>
      </trkpt>
      <trkpt lat="59.862845" lon="17.6141126">
        <ele>17.4412</ele>
        <time>2013-04-24T16:17:31Z</time>
      </trkpt>
      <trkpt lat="59.8628162" lon="17.6140373">
        <ele>17.4412</ele>
        <time>2013-04-24T16:17:32Z</time>
      </trkpt>
      <trkpt lat="59.8627867" lon="17.6139591">
        <ele>17.4412</ele>
        <time>2013-04-24T16:17:33Z</time>
      </trkpt>
      <trkpt lat="59.8627558" lon="17.61388">
        <ele>17.4412</ele>
        <time>2013-04-24T16:17:34Z</time>
      </trkpt>
      <trkpt lat="59.8627235" lon="17.6138016">
        <ele>16.9604</ele>
        <time>2013-04-24T16:17:35Z</time>
      </trkpt>
      <trkpt lat="59.8626889" lon="17.6137219">
        <ele>16.9604</ele>
        <time>2013-04-24T16:17:36Z</time>
      </trkpt>
      <trkpt lat="59.8626564" lon="17.6136385">
        <ele>16.4797</ele>
        <time>2013-04-24T16:17:37Z</time>
      </trkpt>
      <trkpt lat="59.8626243" lon="17.6135531">
        <ele>16.4797</ele>
        <time>2013-04-24T16:17:38Z</time>
      </trkpt>
      <trkpt lat="59.8625913" lon="17.6134661">
        <ele>16.4797</ele>
        <time>2013-04-24T16:17:39Z</time>
      </trkpt>
      <trkpt lat="59.8625583" lon="17.6133769">
        <ele>16.4797</ele>
        <time>2013-04-24T16:17:40Z</time>
      </trkpt>
      <trkpt lat="59.8625243" lon="17.6132876">
        <ele>15.999</ele>
        <time>2013-04-24T16:17:41Z</time>
      </trkpt>
      <trkpt lat="59.862489" lon="17.6131992">
        <ele>15.999</ele>
        <time>2013-04-24T16:17:42Z</time>
      </trkpt>
      <trkpt lat="59.862453" lon="17.6131117">
        <ele>15.999</ele>
        <time>2013-04-24T16:17:43Z</time>
      </trkpt>
      <trkpt lat="59.8624175" lon="17.6130255">
        <ele>16.4797</ele>
        <time>2013-04-24T16:17:44Z</time>
      </trkpt>
      <trkpt lat="59.8623822" lon="17.6129415">
        <ele>16.9604</ele>
        <time>2013-04-24T16:17:45Z</time>
      </trkpt>
      <trkpt lat="59.862343" lon="17.6128564">
        <ele>16.4797</ele>
        <time>2013-04-24T16:17:46Z</time>
      </trkpt>
      <trkpt lat="59.8623072" lon="17.6127744">
        <ele>16.4797</ele>
        <time>2013-04-24T16:17:47Z</time>
      </trkpt>
      <trkpt lat="59.8622693" lon="17.6126947">
        <ele>16.9604</ele>
        <time>2013-04-24T16:17:48Z</time>
      </trkpt>
      <trkpt lat="59.8622326" lon="17.6126144">
        <ele>16.9604</ele>
        <time>2013-04-24T16:17:49Z</time>
      </trkpt>
      <trkpt lat="59.8621935" lon="17.6125328">
        <ele>16.9604</ele>
        <time>2013-04-24T16:17:50Z</time>
      </trkpt>
      <trkpt lat="59.8621549" lon="17.612449">
        <ele>17.4412</ele>
        <time>2013-04-24T16:17:51Z</time>
      </trkpt>
      <trkpt lat="59.8621171" lon="17.6123673">
        <ele>17.4412</ele>
        <time>2013-04-24T16:17:52Z</time>
      </trkpt>
      <trkpt lat="59.8620803" lon="17.6122876">
        <ele>17.4412</ele>
        <time>2013-04-24T16:17:53Z</time>
      </trkpt>
      <trkpt lat="59.8620415" lon="17.6122061">
        <ele>17.4412</ele>
        <time>2013-04-24T16:17:54Z</time>
      </trkpt>
      <trkpt lat="59.8620041" lon="17.6121268">
        <ele>17.4412</ele>
        <time>2013-04-24T16:17:55Z</time>
      </trkpt>
      <trkpt lat="59.8619685" lon="17.6120457">
        <ele>17.4412</ele>
        <time>2013-04-24T16:17:56Z</time>
      </trkpt>
      <trkpt lat="59.8619325" lon="17.6119644">
        <ele>17.4412</ele>
        <time>2013-04-24T16:17:57Z</time>
      </trkpt>
      <trkpt lat="59.8619015" lon="17.6118869">
        <ele>18.4023</ele>
        <time>2013-04-24T16:17:58Z</time>
      </trkpt>
      <trkpt lat="59.8618679" lon="17.6118053">
        <ele>18.8831</ele>
        <time>2013-04-24T16:17:59Z</time>
      </trkpt>
      <trkpt lat="59.8618326" lon="17.6117234">
        <ele>19.3638</ele>
        <time>2013-04-24T16:18:00Z</time>
      </trkpt>
      <trkpt lat="59.8617957" lon="17.6116398">
        <ele>19.3638</ele>
        <time>2013-04-24T16:18:01Z</time>
      </trkpt>
      <trkpt lat="59.8617561" lon="17.611554">
        <ele>19.3638</ele>
        <time>2013-04-24T16:18:02Z</time>
      </trkpt>
      <trkpt lat="59.8617151" lon="17.6114711">
        <ele>19.3638</ele>
        <time>2013-04-24T16:18:03Z</time>
      </trkpt>
      <trkpt lat="59.8616747" lon="17.6113887">
        <ele>18.8831</ele>
        <time>2013-04-24T16:18:04Z</time>
      </trkpt>
      <trkpt lat="59.8616348" lon="17.6113038">
        <ele>18.4023</ele>
        <time>2013-04-24T16:18:05Z</time>
      </trkpt>
      <trkpt lat="59.8615973" lon="17.6112215">
        <ele>18.4023</ele>
        <time>2013-04-24T16:18:06Z</time>
      </trkpt>
      <trkpt lat="59.8615572" lon="17.611137">
        <ele>18.4023</ele>
        <time>2013-04-24T16:18:07Z</time>
      </trkpt>
      <trkpt lat="59.8615202" lon="17.6110526">
        <ele>18.8831</ele>
        <time>2013-04-24T16:18:08Z</time>
      </trkpt>
      <trkpt lat="59.8614862" lon="17.610966">
        <ele>18.8831</ele>
        <time>2013-04-24T16:18:09Z</time>
      </trkpt>
      <trkpt lat="59.861453" lon="17.6108771">
        <ele>18.8831</ele>
        <time>2013-04-24T16:18:10Z</time>
      </trkpt>
      <trkpt lat="59.8614178" lon="17.6107899">
        <ele>18.8831</ele>
        <time>2013-04-24T16:18:11Z</time>
      </trkpt>
      <trkpt lat="59.8613814" lon="17.6107044">
        <ele>19.3638</ele>
        <time>2013-04-24T16:18:12Z</time>
      </trkpt>
      <trkpt lat="59.8613426" lon="17.6106194">
        <ele>19.3638</ele>
        <time>2013-04-24T16:18:13Z</time>
      </trkpt>
      <trkpt lat="59.8613005" lon="17.6105326">
        <ele>18.8831</ele>
        <time>2013-04-24T16:18:14Z</time>
      </trkpt>
      <trkpt lat="59.8612577" lon="17.610448">
        <ele>18.8831</ele>
        <time>2013-04-24T16:18:15Z</time>
      </trkpt>
      <trkpt lat="59.8612072" lon="17.6103596">
        <ele>19.3638</ele>
        <time>2013-04-24T16:18:16Z</time>
      </trkpt>
      <trkpt lat="59.8611664" lon="17.610273">
        <ele>19.3638</ele>
        <time>2013-04-24T16:18:17Z</time>
      </trkpt>
      <trkpt lat="59.861125" lon="17.6101947">
        <ele>19.8444</ele>
        <time>2013-04-24T16:18:18Z</time>
      </trkpt>
      <trkpt lat="59.861085" lon="17.6101151">
        <ele>19.8444</ele>
        <time>2013-04-24T16:18:19Z</time>
      </trkpt>
      <trkpt lat="59.8610437" lon="17.6100362">
        <ele>20.325</ele>
        <time>2013-04-24T16:18:20Z</time>
      </trkpt>
      <trkpt lat="59.8610018" lon="17.6099581">
        <ele>20.325</ele>
        <time>2013-04-24T16:18:21Z</time>
      </trkpt>
      <trkpt lat="59.8609588" lon="17.6098801">
        <ele>20.8057</ele>
        <time>2013-04-24T16:18:22Z</time>
      </trkpt>
      <trkpt lat="59.8609152" lon="17.609799">
        <ele>20.8057</ele>
        <time>2013-04-24T16:18:23Z</time>
      </trkpt>
      <trkpt lat="59.8608724" lon="17.6097136">
        <ele>21.2864</ele>
        <time>2013-04-24T16:18:24Z</time>
      </trkpt>
      <trkpt lat="59.8608304" lon="17.6096261">
        <ele>21.2864</ele>
        <time>2013-04-24T16:18:25Z</time>
      </trkpt>
      <trkpt lat="59.8607888" lon="17.6095396">
        <ele>21.767</ele>
        <time>2013-04-24T16:18:26Z</time>
      </trkpt>
      <trkpt lat="59.860748" lon="17.6094524">
        <ele>21.767</ele>
        <time>2013-04-24T16:18:27Z</time>
      </trkpt>
      <trkpt lat="59.8607106" lon="17.6093607">
        <ele>21.767</ele>
        <time>2013-04-24T16:18:28Z</time>
      </trkpt>
      <trkpt lat="59.8606716" lon="17.6092736">
        <ele>21.767</ele>
        <time>2013-04-24T16:18:29Z</time>
      </trkpt>
      <trkpt lat="59.8606241" lon="17.6092018">
        <ele>22.7283</ele>
        <time>2013-04-24T16:18:30Z</time>
      </trkpt>
      <trkpt lat="59.8605888" lon="17.6091239">
        <ele>22.7283</ele>
        <time>2013-04-24T16:18:31Z</time>
      </trkpt>
      <trkpt lat="59.8605558" lon="17.6090421">
        <ele>22.7283</ele>
        <time>2013-04-24T16:18:32Z</time>
      </trkpt>
      <trkpt lat="59.8605262" lon="17.6089712">
        <ele>22.7283</ele>
        <time>2013-04-24T16:18:33Z</time>
      </trkpt>
      <trkpt lat="59.8604946" lon="17.608909">
        <ele>22.7283</ele>
        <time>2013-04-24T16:18:34Z</time>
      </trkpt>
      <trkpt lat="59.8604573" lon="17.6088588">
        <ele>22.7283</ele>
        <time>2013-04-24T16:18:35Z</time>
      </trkpt>
      <trkpt lat="59.8604129" lon="17.6088354">
        <ele>22.7283</ele>
        <time>2013-04-24T16:18:36Z</time>
      </trkpt>
      <trkpt lat="59.8603658" lon="17.6088356">
        <ele>23.209</ele>
        <time>2013-04-24T16:18:37Z</time>
      </trkpt>
      <trkpt lat="59.8603159" lon="17.6088526">
        <ele>23.209</ele>
        <time>2013-04-24T16:18:38Z</time>
      </trkpt>
      <trkpt lat="59.8602671" lon="17.6088857">
        <ele>23.209</ele>
        <time>2013-04-24T16:18:39Z</time>
      </trkpt>
      <trkpt lat="59.860217" lon="17.6089235">
        <ele>23.209</ele>
        <time>2013-04-24T16:18:40Z</time>
      </trkpt>
      <trkpt lat="59.8601662" lon="17.6089633">
        <ele>23.209</ele>
        <time>2013-04-24T16:18:41Z</time>
      </trkpt>
      <trkpt lat="59.8601158" lon="17.6090086">
        <ele>23.209</ele>
        <time>2013-04-24T16:18:42Z</time>
      </trkpt>
      <trkpt lat="59.8600642" lon="17.6090587">
        <ele>22.7283</ele>
        <time>2013-04-24T16:18:43Z</time>
      </trkpt>
      <trkpt lat="59.8600124" lon="17.6091095">
        <ele>22.7283</ele>
        <time>2013-04-24T16:18:44Z</time>
      </trkpt>
      <trkpt lat="59.8599617" lon="17.6091611">
        <ele>22.7283</ele>
        <time>2013-04-24T16:18:45Z</time>
      </trkpt>
      <trkpt lat="59.8599118" lon="17.6092095">
        <ele>22.7283</ele>
        <time>2013-04-24T16:18:46Z</time>
      </trkpt>
      <trkpt lat="59.8598611" lon="17.6092543">
        <ele>22.7283</ele>
        <time>2013-04-24T16:18:47Z</time>
      </trkpt>
      <trkpt lat="59.8598102" lon="17.6093006">
        <ele>22.7283</ele>
        <time>2013-04-24T16:18:48Z</time>
      </trkpt>
      <trkpt lat="59.8597591" lon="17.6093515">
        <ele>22.7283</ele>
        <time>2013-04-24T16:18:49Z</time>
      </trkpt>
      <trkpt lat="59.8597078" lon="17.6094032">
        <ele>22.7283</ele>
        <time>2013-04-24T16:18:50Z</time>
      </trkpt>
      <trkpt lat="59.8596569" lon="17.6094534">
        <ele>22.7283</ele>
        <time>2013-04-24T16:18:51Z</time>
      </trkpt>
      <trkpt lat="59.8596055" lon="17.6095021">
        <ele>22.7283</ele>
        <time>2013-04-24T16:18:52Z</time>
      </trkpt>
      <trkpt lat="59.8595539" lon="17.6095491">
        <ele>22.7283</ele>
        <time>2013-04-24T16:18:53Z</time>
      </trkpt>
      <trkpt lat="59.8595024" lon="17.609594">
        <ele>22.2476</ele>
        <time>2013-04-24T16:18:54Z</time>
      </trkpt>
      <trkpt lat="59.8594497" lon="17.6096428">
        <ele>22.7283</ele>
        <time>2013-04-24T16:18:55Z</time>
      </trkpt>
      <trkpt lat="59.8593965" lon="17.609697">
        <ele>22.7283</ele>
        <time>2013-04-24T16:18:56Z</time>
      </trkpt>
      <trkpt lat="59.8593434" lon="17.6097558">
        <ele>22.7283</ele>
        <time>2013-04-24T16:18:57Z</time>
      </trkpt>
      <trkpt lat="59.8592898" lon="17.6098174">
        <ele>22.7283</ele>
        <time>2013-04-24T16:18:58Z</time>
      </trkpt>
      <trkpt lat="59.859235" lon="17.6098833">
        <ele>22.2476</ele>
        <time>2013-04-24T16:18:59Z</time>
      </trkpt>
      <trkpt lat="59.8591787" lon="17.6099496">
        <ele>22.2476</ele>
        <time>2013-04-24T16:19:00Z</time>
      </trkpt>
      <trkpt lat="59.8591207" lon="17.6100129">
        <ele>22.2476</ele>
        <time>2013-04-24T16:19:01Z</time>
      </trkpt>
      <trkpt lat="59.8590624" lon="17.6100766">
        <ele>22.2476</ele>
        <time>2013-04-24T16:19:02Z</time>
      </trkpt>
      <trkpt lat="59.8590043" lon="17.610142">
        <ele>21.767</ele>
        <time>2013-04-24T16:19:03Z</time>
      </trkpt>
      <trkpt lat="59.8589459" lon="17.6102082">
        <ele>21.767</ele>
        <time>2013-04-24T16:19:04Z</time>
      </trkpt>
      <trkpt lat="59.8588881" lon="17.610275">
        <ele>21.767</ele>
        <time>2013-04-24T16:19:05Z</time>
      </trkpt>
      <trkpt lat="59.8588308" lon="17.6103396">
        <ele>21.767</ele>
        <time>2013-04-24T16:19:06Z</time>
      </trkpt>
      <trkpt lat="59.8587733" lon="17.6103983">
        <ele>21.767</ele>
        <time>2013-04-24T16:19:07Z</time>
      </trkpt>
      <trkpt lat="59.8587158" lon="17.6104548">
        <ele>21.767</ele>
        <time>2013-04-24T16:19:08Z</time>
      </trkpt>
      <trkpt lat="59.8586592" lon="17.6105159">
        <ele>21.767</ele>
        <time>2013-04-24T16:19:09Z</time>
      </trkpt>
      <trkpt lat="59.8586038" lon="17.6105807">
        <ele>21.767</ele>
        <time>2013-04-24T16:19:10Z</time>
      </trkpt>
      <trkpt lat="59.8585495" lon="17.6106479">
        <ele>21.2864</ele>
        <time>2013-04-24T16:19:11Z</time>
      </trkpt>
      <trkpt lat="59.8584966" lon="17.6107164">
        <ele>21.2864</ele>
        <time>2013-04-24T16:19:12Z</time>
      </trkpt>
      <trkpt lat="59.8584457" lon="17.6107836">
        <ele>21.2864</ele>
        <time>2013-04-24T16:19:13Z</time>
      </trkpt>
      <trkpt lat="59.8583941" lon="17.6108436">
        <ele>21.2864</ele>
        <time>2013-04-24T16:19:14Z</time>
      </trkpt>
      <trkpt lat="59.8583377" lon="17.6109012">
        <ele>20.8057</ele>
        <time>2013-04-24T16:19:15Z</time>
      </trkpt>
      <trkpt lat="59.8582808" lon="17.6109525">
        <ele>20.8057</ele>
        <time>2013-04-24T16:19:16Z</time>
      </trkpt>
      <trkpt lat="59.8582248" lon="17.611008">
        <ele>20.8057</ele>
        <time>2013-04-24T16:19:17Z</time>
      </trkpt>
      <trkpt lat="59.8581703" lon="17.611071">
        <ele>20.325</ele>
        <time>2013-04-24T16:19:18Z</time>
      </trkpt>
      <trkpt lat="59.8581159" lon="17.611135">
        <ele>20.325</ele>
        <time>2013-04-24T16:19:19Z</time>
      </trkpt>
      <trkpt lat="59.8580611" lon="17.6111995">
        <ele>20.325</ele>
        <time>2013-04-24T16:19:20Z</time>
      </trkpt>
      <trkpt lat="59.8580072" lon="17.6112648">
        <ele>20.325</ele>
        <time>2013-04-24T16:19:21Z</time>
      </trkpt>
      <trkpt lat="59.8579532" lon="17.6113307">
        <ele>20.325</ele>
        <time>2013-04-24T16:19:22Z</time>
      </trkpt>
      <trkpt lat="59.8578987" lon="17.611396">
        <ele>19.8444</ele>
        <time>2013-04-24T16:19:23Z</time>
      </trkpt>
      <trkpt lat="59.8578443" lon="17.6114578">
        <ele>20.325</ele>
        <time>2013-04-24T16:19:24Z</time>
      </trkpt>
      <trkpt lat="59.8577892" lon="17.6115152">
        <ele>19.8444</ele>
        <time>2013-04-24T16:19:25Z</time>
      </trkpt>
      <trkpt lat="59.8577357" lon="17.6115669">
        <ele>19.8444</ele>
        <time>2013-04-24T16:19:26Z</time>
      </trkpt>
      <trkpt lat="59.8576847" lon="17.6116216">
        <ele>19.3638</ele>
        <time>2013-04-24T16:19:27Z</time>
      </trkpt>
      <trkpt lat="59.8576348" lon="17.6116788">
        <ele>19.3638</ele>
        <time>2013-04-24T16:19:28Z</time>
      </trkpt>
      <trkpt lat="59.8575838" lon="17.6117359">
        <ele>19.3638</ele>
        <time>2013-04-24T16:19:29Z</time>
      </trkpt>
      <trkpt lat="59.8575316" lon="17.6117957">
        <ele>19.3638</ele>
        <time>2013-04-24T16:19:30Z</time>
      </trkpt>
      <trkpt lat="59.8574799" lon="17.6118555">
        <ele>19.3638</ele>
        <time>2013-04-24T16:19:31Z</time>
      </trkpt>
      <trkpt lat="59.8574296" lon="17.6119155">
        <ele>19.3638</ele>
        <time>2013-04-24T16:19:32Z</time>
      </trkpt>
      <trkpt lat="59.8573793" lon="17.6119724">
        <ele>19.3638</ele>
        <time>2013-04-24T16:19:33Z</time>
      </trkpt>
      <trkpt lat="59.8573306" lon="17.6120191">
        <ele>18.8831</ele>
        <time>2013-04-24T16:19:34Z</time>
      </trkpt>
      <trkpt lat="59.8572824" lon="17.6120493">
        <ele>18.8831</ele>
        <time>2013-04-24T16:19:35Z</time>
      </trkpt>
      <trkpt lat="59.8572353" lon="17.6120547">
        <ele>19.3638</ele>
        <time>2013-04-24T16:19:36Z</time>
      </trkpt>
      <trkpt lat="59.8571895" lon="17.6120309">
        <ele>18.8831</ele>
        <time>2013-04-24T16:19:37Z</time>
      </trkpt>
      <trkpt lat="59.8571457" lon="17.6119889">
        <ele>18.8831</ele>
        <time>2013-04-24T16:19:38Z</time>
      </trkpt>
      <trkpt lat="59.8571038" lon="17.6119373">
        <ele>18.8831</ele>
        <time>2013-04-24T16:19:39Z</time>
      </trkpt>
      <trkpt lat="59.8570633" lon="17.6118802">
        <ele>18.4023</ele>
        <time>2013-04-24T16:19:40Z</time>
      </trkpt>
      <trkpt lat="59.8570229" lon="17.6118217">
        <ele>18.8831</ele>
        <time>2013-04-24T16:19:41Z</time>
      </trkpt>
      <trkpt lat="59.8569825" lon="17.6117612">
        <ele>18.4023</ele>
        <time>2013-04-24T16:19:42Z</time>
      </trkpt>
      <trkpt lat="59.8569407" lon="17.6117022">
        <ele>18.4023</ele>
        <time>2013-04-24T16:19:43Z</time>
      </trkpt>
      <trkpt lat="59.8568976" lon="17.6116453">
        <ele>18.4023</ele>
        <time>2013-04-24T16:19:44Z</time>
      </trkpt>
      <trkpt lat="59.8568546" lon="17.6115866">
        <ele>18.4023</ele>
        <time>2013-04-24T16:19:45Z</time>
      </trkpt>
      <trkpt lat="59.8568116" lon="17.6115245">
        <ele>18.4023</ele>
        <time>2013-04-24T16:19:46Z</time>
      </trkpt>
      <trkpt lat="59.8567676" lon="17.6114613">
        <ele>18.4023</ele>
        <time>2013-04-24T16:19:47Z</time>
      </trkpt>
      <trkpt lat="59.8567223" lon="17.6114003">
        <ele>18.4023</ele>
        <time>2013-04-24T16:19:48Z</time>
      </trkpt>
      <trkpt lat="59.8566762" lon="17.6113412">
        <ele>18.4023</ele>
        <time>2013-04-24T16:19:49Z</time>
      </trkpt>
      <trkpt lat="59.8566303" lon="17.6112816">
        <ele>18.4023</ele>
        <time>2013-04-24T16:19:50Z</time>
      </trkpt>
      <trkpt lat="59.8565852" lon="17.611221">
        <ele>18.4023</ele>
        <time>2013-04-24T16:19:51Z</time>
      </trkpt>
      <trkpt lat="59.8565397" lon="17.6111608">
        <ele>18.4023</ele>
        <time>2013-04-24T16:19:52Z</time>
      </trkpt>
      <trkpt lat="59.8564944" lon="17.6110998">
        <ele>18.8831</ele>
        <time>2013-04-24T16:19:53Z</time>
      </trkpt>
      <trkpt lat="59.8564491" lon="17.6110375">
        <ele>18.8831</ele>
        <time>2013-04-24T16:19:54Z</time>
      </trkpt>
      <trkpt lat="59.8564039" lon="17.6109757">
        <ele>18.8831</ele>
        <time>2013-04-24T16:19:55Z</time>
      </trkpt>
      <trkpt lat="59.8563583" lon="17.6109158">
        <ele>19.3638</ele>
        <time>2013-04-24T16:19:56Z</time>
      </trkpt>
      <trkpt lat="59.8563127" lon="17.6108551">
        <ele>19.3638</ele>
        <time>2013-04-24T16:19:57Z</time>
      </trkpt>
      <trkpt lat="59.8562677" lon="17.610792">
        <ele>19.3638</ele>
        <time>2013-04-24T16:19:58Z</time>
      </trkpt>
      <trkpt lat="59.8562227" lon="17.6107278">
        <ele>19.3638</ele>
        <time>2013-04-24T16:19:59Z</time>
      </trkpt>
      <trkpt lat="59.8561779" lon="17.6106625">
        <ele>19.3638</ele>
        <time>2013-04-24T16:20:00Z</time>
      </trkpt>
      <trkpt lat="59.8561328" lon="17.6105987">
        <ele>19.3638</ele>
        <time>2013-04-24T16:20:01Z</time>
      </trkpt>
      <trkpt lat="59.8560878" lon="17.6105356">
        <ele>19.3638</ele>
        <time>2013-04-24T16:20:02Z</time>
      </trkpt>
      <trkpt lat="59.8560425" lon="17.610472">
        <ele>19.3638</ele>
        <time>2013-04-24T16:20:03Z</time>
      </trkpt>
      <trkpt lat="59.8559968" lon="17.6104074">
        <ele>19.3638</ele>
        <time>2013-04-24T16:20:04Z</time>
      </trkpt>
      <trkpt lat="59.8559502" lon="17.6103418">
        <ele>19.3638</ele>
        <time>2013-04-24T16:20:05Z</time>
      </trkpt>
      <trkpt lat="59.8559024" lon="17.6102741">
        <ele>19.3638</ele>
        <time>2013-04-24T16:20:06Z</time>
      </trkpt>
      <trkpt lat="59.8558541" lon="17.6102035">
        <ele>19.3638</ele>
        <time>2013-04-24T16:20:07Z</time>
      </trkpt>
      <trkpt lat="59.8558056" lon="17.6101294">
        <ele>19.3638</ele>
        <time>2013-04-24T16:20:08Z</time>
      </trkpt>
      <trkpt lat="59.8557569" lon="17.6100544">
        <ele>19.3638</ele>
        <time>2013-04-24T16:20:09Z</time>
      </trkpt>
      <trkpt lat="59.855708" lon="17.6099793">
        <ele>18.8831</ele>
        <time>2013-04-24T16:20:10Z</time>
      </trkpt>
      <trkpt lat="59.8556593" lon="17.6099031">
        <ele>18.8831</ele>
        <time>2013-04-24T16:20:11Z</time>
      </trkpt>
      <trkpt lat="59.8556122" lon="17.6098253">
        <ele>18.8831</ele>
        <time>2013-04-24T16:20:12Z</time>
      </trkpt>
      <trkpt lat="59.8555668" lon="17.6097483">
        <ele>18.8831</ele>
        <time>2013-04-24T16:20:13Z</time>
      </trkpt>
      <trkpt lat="59.8555228" lon="17.6096742">
        <ele>18.8831</ele>
        <time>2013-04-24T16:20:14Z</time>
      </trkpt>
      <trkpt lat="59.8554801" lon="17.6096036">
        <ele>18.4023</ele>
        <time>2013-04-24T16:20:15Z</time>
      </trkpt>
      <trkpt lat="59.8554392" lon="17.6095347">
        <ele>18.4023</ele>
        <time>2013-04-24T16:20:16Z</time>
      </trkpt>
      <trkpt lat="59.8554003" lon="17.6094678">
        <ele>18.8831</ele>
        <time>2013-04-24T16:20:17Z</time>
      </trkpt>
      <trkpt lat="59.8553638" lon="17.6094035">
        <ele>18.8831</ele>
        <time>2013-04-24T16:20:18Z</time>
      </trkpt>
      <trkpt lat="59.8553301" lon="17.6093401">
        <ele>18.8831</ele>
        <time>2013-04-24T16:20:19Z</time>
      </trkpt>
      <trkpt lat="59.8553004" lon="17.6092758">
        <ele>18.8831</ele>
        <time>2013-04-24T16:20:20Z</time>
      </trkpt>
      <trkpt lat="59.8552758" lon="17.609209">
        <ele>18.8831</ele>
        <time>2013-04-24T16:20:21Z</time>
      </trkpt>
      <trkpt lat="59.8552569" lon="17.6091416">
        <ele>18.4023</ele>
        <time>2013-04-24T16:20:22Z</time>
      </trkpt>
      <trkpt lat="59.8552421" lon="17.6090753">
        <ele>18.4023</ele>
        <time>2013-04-24T16:20:23Z</time>
      </trkpt>
      <trkpt lat="59.8552333" lon="17.6090085">
        <ele>18.4023</ele>
        <time>2013-04-24T16:20:24Z</time>
      </trkpt>
      <trkpt lat="59.8552249" lon="17.6089427">
        <ele>18.4023</ele>
        <time>2013-04-24T16:20:25Z</time>
      </trkpt>
      <trkpt lat="59.8552071" lon="17.6088853">
        <ele>18.4023</ele>
        <time>2013-04-24T16:20:26Z</time>
      </trkpt>
      <trkpt lat="59.855182" lon="17.608837">
        <ele>18.4023</ele>
        <time>2013-04-24T16:20:27Z</time>
      </trkpt>
      <trkpt lat="59.8551575" lon="17.6087876">
        <ele>17.9218</ele>
        <time>2013-04-24T16:20:28Z</time>
      </trkpt>
      <trkpt lat="59.8551312" lon="17.6087442">
        <ele>17.9218</ele>
        <time>2013-04-24T16:20:29Z</time>
      </trkpt>
      <trkpt lat="59.8551004" lon="17.6087204">
        <ele>17.9218</ele>
        <time>2013-04-24T16:20:30Z</time>
      </trkpt>
      <trkpt lat="59.855069" lon="17.6087017">
        <ele>17.9218</ele>
        <time>2013-04-24T16:20:31Z</time>
      </trkpt>
      <trkpt lat="59.85504" lon="17.6086722">
        <ele>17.9218</ele>
        <time>2013-04-24T16:20:32Z</time>
      </trkpt>
      <trkpt lat="59.8550116" lon="17.6086384">
        <ele>18.4023</ele>
        <time>2013-04-24T16:20:33Z</time>
      </trkpt>
      <trkpt lat="59.8549818" lon="17.6085985">
        <ele>18.4023</ele>
        <time>2013-04-24T16:20:34Z</time>
      </trkpt>
      <trkpt lat="59.8549613" lon="17.6085447">
        <ele>18.4023</ele>
        <time>2013-04-24T16:20:35Z</time>
      </trkpt>
      <trkpt lat="59.8549359" lon="17.6084815">
        <ele>18.8831</ele>
        <time>2013-04-24T16:20:36Z</time>
      </trkpt>
      <trkpt lat="59.8549062" lon="17.6084155">
        <ele>19.3638</ele>
        <time>2013-04-24T16:20:37Z</time>
      </trkpt>
      <trkpt lat="59.8548704" lon="17.6083476">
        <ele>19.3638</ele>
        <time>2013-04-24T16:20:38Z</time>
      </trkpt>
      <trkpt lat="59.8548329" lon="17.6082719">
        <ele>19.8444</ele>
        <time>2013-04-24T16:20:39Z</time>
      </trkpt>
      <trkpt lat="59.8547972" lon="17.6081894">
        <ele>19.8444</ele>
        <time>2013-04-24T16:20:40Z</time>
      </trkpt>
      <trkpt lat="59.854763" lon="17.6081036">
        <ele>20.325</ele>
        <time>2013-04-24T16:20:41Z</time>
      </trkpt>
      <trkpt lat="59.8547303" lon="17.6080147">
        <ele>20.325</ele>
        <time>2013-04-24T16:20:42Z</time>
      </trkpt>
      <trkpt lat="59.8546981" lon="17.6079238">
        <ele>20.8057</ele>
        <time>2013-04-24T16:20:43Z</time>
      </trkpt>
      <trkpt lat="59.8546665" lon="17.6078303">
        <ele>20.8057</ele>
        <time>2013-04-24T16:20:44Z</time>
      </trkpt>
      <trkpt lat="59.8546307" lon="17.607739">
        <ele>21.767</ele>
        <time>2013-04-24T16:20:45Z</time>
      </trkpt>
      <trkpt lat="59.8545987" lon="17.607643">
        <ele>21.767</ele>
        <time>2013-04-24T16:20:46Z</time>
      </trkpt>
      <trkpt lat="59.8545664" lon="17.6075442">
        <ele>21.767</ele>
        <time>2013-04-24T16:20:47Z</time>
      </trkpt>
      <trkpt lat="59.854535" lon="17.6074437">
        <ele>21.767</ele>
        <time>2013-04-24T16:20:48Z</time>
      </trkpt>
      <trkpt lat="59.8545052" lon="17.6073406">
        <ele>21.767</ele>
        <time>2013-04-24T16:20:49Z</time>
      </trkpt>
      <trkpt lat="59.8544758" lon="17.6072358">
        <ele>21.767</ele>
        <time>2013-04-24T16:20:50Z</time>
      </trkpt>
      <trkpt lat="59.8544467" lon="17.6071324">
        <ele>22.2476</ele>
        <time>2013-04-24T16:20:51Z</time>
      </trkpt>
      <trkpt lat="59.8544192" lon="17.6070279">
        <ele>22.2476</ele>
        <time>2013-04-24T16:20:52Z</time>
      </trkpt>
      <trkpt lat="59.8543925" lon="17.6069215">
        <ele>22.2476</ele>
        <time>2013-04-24T16:20:53Z</time>
      </trkpt>
      <trkpt lat="59.8543662" lon="17.6068147">
        <ele>22.2476</ele>
        <time>2013-04-24T16:20:54Z</time>
      </trkpt>
      <trkpt lat="59.8543412" lon="17.6067074">
        <ele>22.2476</ele>
        <time>2013-04-24T16:20:55Z</time>
      </trkpt>
      <trkpt lat="59.8543172" lon="17.6066007">
        <ele>22.2476</ele>
        <time>2013-04-24T16:20:56Z</time>
      </trkpt>
      <trkpt lat="59.8542946" lon="17.6064942">
        <ele>22.2476</ele>
        <time>2013-04-24T16:20:57Z</time>
      </trkpt>
      <trkpt lat="59.8542733" lon="17.606389">
        <ele>22.2476</ele>
        <time>2013-04-24T16:20:58Z</time>
      </trkpt>
      <trkpt lat="59.8542541" lon="17.6062852">
        <ele>22.2476</ele>
        <time>2013-04-24T16:20:59Z</time>
      </trkpt>
      <trkpt lat="59.8542381" lon="17.6061822">
        <ele>22.2476</ele>
        <time>2013-04-24T16:21:00Z</time>
      </trkpt>
      <trkpt lat="59.8542226" lon="17.6060802">
        <ele>22.2476</ele>
        <time>2013-04-24T16:21:01Z</time>
      </trkpt>
      <trkpt lat="59.8542051" lon="17.6059792">
        <ele>22.2476</ele>
        <time>2013-04-24T16:21:02Z</time>
      </trkpt>
      <trkpt lat="59.8541883" lon="17.6058787">
        <ele>22.2476</ele>
        <time>2013-04-24T16:21:03Z</time>
      </trkpt>
      <trkpt lat="59.8541723" lon="17.6057778">
        <ele>22.2476</ele>
        <time>2013-04-24T16:21:04Z</time>
      </trkpt>
      <trkpt lat="59.8541573" lon="17.6056754">
        <ele>22.2476</ele>
        <time>2013-04-24T16:21:05Z</time>
      </trkpt>
      <trkpt lat="59.8541432" lon="17.605574">
        <ele>22.2476</ele>
        <time>2013-04-24T16:21:06Z</time>
      </trkpt>
      <trkpt lat="59.8541273" lon="17.6054737">
        <ele>22.7283</ele>
        <time>2013-04-24T16:21:07Z</time>
      </trkpt>
      <trkpt lat="59.854112" lon="17.6053732">
        <ele>22.7283</ele>
        <time>2013-04-24T16:21:08Z</time>
      </trkpt>
      <trkpt lat="59.8540993" lon="17.6052735">
        <ele>22.7283</ele>
        <time>2013-04-24T16:21:09Z</time>
      </trkpt>
      <trkpt lat="59.8540895" lon="17.6051732">
        <ele>23.209</ele>
        <time>2013-04-24T16:21:10Z</time>
      </trkpt>
      <trkpt lat="59.8540797" lon="17.6050716">
        <ele>23.209</ele>
        <time>2013-04-24T16:21:11Z</time>
      </trkpt>
      <trkpt lat="59.8540687" lon="17.6049717">
        <ele>23.209</ele>
        <time>2013-04-24T16:21:12Z</time>
      </trkpt>
      <trkpt lat="59.8540574" lon="17.6048758">
        <ele>23.209</ele>
        <time>2013-04-24T16:21:13Z</time>
      </trkpt>
      <trkpt lat="59.8540479" lon="17.6047816">
        <ele>23.209</ele>
        <time>2013-04-24T16:21:14Z</time>
      </trkpt>
      <trkpt lat="59.8540381" lon="17.6046891">
        <ele>23.6896</ele>
        <time>2013-04-24T16:21:15Z</time>
      </trkpt>
      <trkpt lat="59.8540295" lon="17.6045946">
        <ele>23.6896</ele>
        <time>2013-04-24T16:21:16Z</time>
      </trkpt>
      <trkpt lat="59.8540226" lon="17.6045001">
        <ele>23.6896</ele>
        <time>2013-04-24T16:21:17Z</time>
      </trkpt>
      <trkpt lat="59.8540163" lon="17.6044054">
        <ele>23.209</ele>
        <time>2013-04-24T16:21:18Z</time>
      </trkpt>
      <trkpt lat="59.8540102" lon="17.6043121">
        <ele>23.209</ele>
        <time>2013-04-24T16:21:19Z</time>
      </trkpt>
      <trkpt lat="59.8540055" lon="17.6042195">
        <ele>23.209</ele>
        <time>2013-04-24T16:21:20Z</time>
      </trkpt>
      <trkpt lat="59.8540009" lon="17.604123">
        <ele>22.7283</ele>
        <time>2013-04-24T16:21:21Z</time>
      </trkpt>
      <trkpt lat="59.8539972" lon="17.6040279">
        <ele>22.2476</ele>
        <time>2013-04-24T16:21:22Z</time>
      </trkpt>
      <trkpt lat="59.8539929" lon="17.6039341">
        <ele>22.2476</ele>
        <time>2013-04-24T16:21:23Z</time>
      </trkpt>
      <trkpt lat="59.8539887" lon="17.6038406">
        <ele>21.767</ele>
        <time>2013-04-24T16:21:24Z</time>
      </trkpt>
      <trkpt lat="59.8539867" lon="17.6037482">
        <ele>21.767</ele>
        <time>2013-04-24T16:21:25Z</time>
      </trkpt>
      <trkpt lat="59.8539846" lon="17.6036536">
        <ele>21.767</ele>
        <time>2013-04-24T16:21:26Z</time>
      </trkpt>
      <trkpt lat="59.8539849" lon="17.6035583">
        <ele>21.767</ele>
        <time>2013-04-24T16:21:27Z</time>
      </trkpt>
      <trkpt lat="59.8539862" lon="17.6034616">
        <ele>21.767</ele>
        <time>2013-04-24T16:21:28Z</time>
      </trkpt>
      <trkpt lat="59.8539867" lon="17.6033638">
        <ele>21.767</ele>
        <time>2013-04-24T16:21:29Z</time>
      </trkpt>
      <trkpt lat="59.8539868" lon="17.6032653">
        <ele>21.767</ele>
        <time>2013-04-24T16:21:30Z</time>
      </trkpt>
      <trkpt lat="59.8539872" lon="17.6031653">
        <ele>21.2864</ele>
        <time>2013-04-24T16:21:31Z</time>
      </trkpt>
      <trkpt lat="59.853989" lon="17.6030646">
        <ele>21.2864</ele>
        <time>2013-04-24T16:21:32Z</time>
      </trkpt>
      <trkpt lat="59.8539915" lon="17.6029624">
        <ele>21.2864</ele>
        <time>2013-04-24T16:21:33Z</time>
      </trkpt>
      <trkpt lat="59.8539953" lon="17.6028597">
        <ele>21.2864</ele>
        <time>2013-04-24T16:21:34Z</time>
      </trkpt>
      <trkpt lat="59.8540009" lon="17.602757">
        <ele>21.2864</ele>
        <time>2013-04-24T16:21:35Z</time>
      </trkpt>
      <trkpt lat="59.8540066" lon="17.6026547">
        <ele>21.2864</ele>
        <time>2013-04-24T16:21:36Z</time>
      </trkpt>
      <trkpt lat="59.8540129" lon="17.6025552">
        <ele>21.2864</ele>
        <time>2013-04-24T16:21:37Z</time>
      </trkpt>
      <trkpt lat="59.8540193" lon="17.6024575">
        <ele>21.2864</ele>
        <time>2013-04-24T16:21:38Z</time>
      </trkpt>
      <trkpt lat="59.8540267" lon="17.6023599">
        <ele>21.767</ele>
        <time>2013-04-24T16:21:39Z</time>
      </trkpt>
      <trkpt lat="59.854034" lon="17.6022636">
        <ele>21.767</ele>
        <time>2013-04-24T16:21:40Z</time>
      </trkpt>
      <trkpt lat="59.8540386" lon="17.6021661">
        <ele>21.767</ele>
        <time>2013-04-24T16:21:41Z</time>
      </trkpt>
      <trkpt lat="59.8540435" lon="17.6020667">
        <ele>21.767</ele>
        <time>2013-04-24T16:21:42Z</time>
      </trkpt>
      <trkpt lat="59.8540511" lon="17.6019682">
        <ele>21.767</ele>
        <time>2013-04-24T16:21:43Z</time>
      </trkpt>
      <trkpt lat="59.8540589" lon="17.6018702">
        <ele>21.767</ele>
        <time>2013-04-24T16:21:44Z</time>
      </trkpt>
      <trkpt lat="59.8540673" lon="17.601773">
        <ele>21.767</ele>
        <time>2013-04-24T16:21:45Z</time>
      </trkpt>
      <trkpt lat="59.8540759" lon="17.6016771">
        <ele>21.767</ele>
        <time>2013-04-24T16:21:46Z</time>
      </trkpt>
      <trkpt lat="59.8540835" lon="17.6015809">
        <ele>21.767</ele>
        <time>2013-04-24T16:21:47Z</time>
      </trkpt>
      <trkpt lat="59.85409" lon="17.6014837">
        <ele>21.767</ele>
        <time>2013-04-24T16:21:48Z</time>
      </trkpt>
      <trkpt lat="59.8540951" lon="17.6013864">
        <ele>21.767</ele>
        <time>2013-04-24T16:21:49Z</time>
      </trkpt>
      <trkpt lat="59.8541002" lon="17.6012903">
        <ele>21.767</ele>
        <time>2013-04-24T16:21:50Z</time>
      </trkpt>
      <trkpt lat="59.8541065" lon="17.601196">
        <ele>21.767</ele>
        <time>2013-04-24T16:21:51Z</time>
      </trkpt>
      <trkpt lat="59.8541128" lon="17.6011014">
        <ele>21.2864</ele>
        <time>2013-04-24T16:21:52Z</time>
      </trkpt>
      <trkpt lat="59.8541186" lon="17.6010062">
        <ele>21.2864</ele>
        <time>2013-04-24T16:21:53Z</time>
      </trkpt>
      <trkpt lat="59.854124" lon="17.6009099">
        <ele>21.2864</ele>
        <time>2013-04-24T16:21:54Z</time>
      </trkpt>
      <trkpt lat="59.8541288" lon="17.6008124">
        <ele>21.2864</ele>
        <time>2013-04-24T16:21:55Z</time>
      </trkpt>
      <trkpt lat="59.854134" lon="17.6007136">
        <ele>21.2864</ele>
        <time>2013-04-24T16:21:56Z</time>
      </trkpt>
      <trkpt lat="59.8541402" lon="17.6006142">
        <ele>20.8057</ele>
        <time>2013-04-24T16:21:57Z</time>
      </trkpt>
      <trkpt lat="59.8541478" lon="17.6005162">
        <ele>20.8057</ele>
        <time>2013-04-24T16:21:58Z</time>
      </trkpt>
      <trkpt lat="59.8541545" lon="17.6004204">
        <ele>20.8057</ele>
        <time>2013-04-24T16:21:59Z</time>
      </trkpt>
      <trkpt lat="59.8541609" lon="17.6003256">
        <ele>20.8057</ele>
        <time>2013-04-24T16:22:00Z</time>
      </trkpt>
      <trkpt lat="59.8541661" lon="17.6002313">
        <ele>20.8057</ele>
        <time>2013-04-24T16:22:01Z</time>
      </trkpt>
      <trkpt lat="59.8541703" lon="17.6001366">
        <ele>20.8057</ele>
        <time>2013-04-24T16:22:02Z</time>
      </trkpt>
      <trkpt lat="59.8541747" lon="17.6000401">
        <ele>20.8057</ele>
        <time>2013-04-24T16:22:03Z</time>
      </trkpt>
      <trkpt lat="59.8541811" lon="17.5999431">
        <ele>20.325</ele>
        <time>2013-04-24T16:22:04Z</time>
      </trkpt>
      <trkpt lat="59.854188" lon="17.599845">
        <ele>20.8057</ele>
        <time>2013-04-24T16:22:05Z</time>
      </trkpt>
      <trkpt lat="59.8541972" lon="17.5997485">
        <ele>20.8057</ele>
        <time>2013-04-24T16:22:06Z</time>
      </trkpt>
      <trkpt lat="59.8542065" lon="17.5996505">
        <ele>20.8057</ele>
        <time>2013-04-24T16:22:07Z</time>
      </trkpt>
      <trkpt lat="59.8542152" lon="17.5995512">
        <ele>20.8057</ele>
        <time>2013-04-24T16:22:08Z</time>
      </trkpt>
      <trkpt lat="59.8542231" lon="17.5994503">
        <ele>20.8057</ele>
        <time>2013-04-24T16:22:09Z</time>
      </trkpt>
      <trkpt lat="59.8542287" lon="17.5993466">
        <ele>21.2864</ele>
        <time>2013-04-24T16:22:10Z</time>
      </trkpt>
      <trkpt lat="59.8542349" lon="17.5992438">
        <ele>21.2864</ele>
        <time>2013-04-24T16:22:11Z</time>
      </trkpt>
      <trkpt lat="59.8542402" lon="17.5991399">
        <ele>21.2864</ele>
        <time>2013-04-24T16:22:12Z</time>
      </trkpt>
      <trkpt lat="59.8542449" lon="17.5990362">
        <ele>21.2864</ele>
        <time>2013-04-24T16:22:13Z</time>
      </trkpt>
      <trkpt lat="59.8542491" lon="17.5989316">
        <ele>21.2864</ele>
        <time>2013-04-24T16:22:14Z</time>
      </trkpt>
      <trkpt lat="59.8542525" lon="17.5988256">
        <ele>20.8057</ele>
        <time>2013-04-24T16:22:15Z</time>
      </trkpt>
      <trkpt lat="59.8542558" lon="17.5987189">
        <ele>20.8057</ele>
        <time>2013-04-24T16:22:16Z</time>
      </trkpt>
      <trkpt lat="59.8542591" lon="17.5986106">
        <ele>20.8057</ele>
        <time>2013-04-24T16:22:17Z</time>
      </trkpt>
      <trkpt lat="59.8542615" lon="17.5985025">
        <ele>20.8057</ele>
        <time>2013-04-24T16:22:18Z</time>
      </trkpt>
      <trkpt lat="59.8542615" lon="17.5983943">
        <ele>20.8057</ele>
        <time>2013-04-24T16:22:19Z</time>
      </trkpt>
      <trkpt lat="59.8542599" lon="17.5982848">
        <ele>20.8057</ele>
        <time>2013-04-24T16:22:20Z</time>
      </trkpt>
      <trkpt lat="59.8542603" lon="17.5981773">
        <ele>20.8057</ele>
        <time>2013-04-24T16:22:21Z</time>
      </trkpt>
      <trkpt lat="59.8542613" lon="17.5980703">
        <ele>20.325</ele>
        <time>2013-04-24T16:22:22Z</time>
      </trkpt>
      <trkpt lat="59.8542623" lon="17.5979644">
        <ele>20.325</ele>
        <time>2013-04-24T16:22:23Z</time>
      </trkpt>
      <trkpt lat="59.8542623" lon="17.5978592">
        <ele>20.325</ele>
        <time>2013-04-24T16:22:24Z</time>
      </trkpt>
      <trkpt lat="59.8542625" lon="17.5977548">
        <ele>19.8444</ele>
        <time>2013-04-24T16:22:25Z</time>
      </trkpt>
      <trkpt lat="59.8542628" lon="17.5976514">
        <ele>19.8444</ele>
        <time>2013-04-24T16:22:26Z</time>
      </trkpt>
      <trkpt lat="59.8542625" lon="17.5975481">
        <ele>19.8444</ele>
        <time>2013-04-24T16:22:27Z</time>
      </trkpt>
      <trkpt lat="59.8542619" lon="17.5974434">
        <ele>19.3638</ele>
        <time>2013-04-24T16:22:28Z</time>
      </trkpt>
      <trkpt lat="59.8542607" lon="17.5973366">
        <ele>19.3638</ele>
        <time>2013-04-24T16:22:29Z</time>
      </trkpt>
      <trkpt lat="59.8542599" lon="17.5972273">
        <ele>19.3638</ele>
        <time>2013-04-24T16:22:30Z</time>
      </trkpt>
      <trkpt lat="59.8542579" lon="17.597115">
        <ele>19.3638</ele>
        <time>2013-04-24T16:22:31Z</time>
      </trkpt>
      <trkpt lat="59.8542529" lon="17.5970009">
        <ele>18.8831</ele>
        <time>2013-04-24T16:22:32Z</time>
      </trkpt>
      <trkpt lat="59.8542469" lon="17.5968855">
        <ele>18.8831</ele>
        <time>2013-04-24T16:22:33Z</time>
      </trkpt>
      <trkpt lat="59.8542437" lon="17.5967695">
        <ele>18.8831</ele>
        <time>2013-04-24T16:22:34Z</time>
      </trkpt>
      <trkpt lat="59.8542424" lon="17.5966527">
        <ele>18.4023</ele>
        <time>2013-04-24T16:22:35Z</time>
      </trkpt>
      <trkpt lat="59.8542437" lon="17.5965358">
        <ele>18.4023</ele>
        <time>2013-04-24T16:22:36Z</time>
      </trkpt>
      <trkpt lat="59.8542464" lon="17.5964194">
        <ele>18.4023</ele>
        <time>2013-04-24T16:22:37Z</time>
      </trkpt>
      <trkpt lat="59.8542516" lon="17.5963027">
        <ele>18.4023</ele>
        <time>2013-04-24T16:22:38Z</time>
      </trkpt>
      <trkpt lat="59.8542604" lon="17.5961882">
        <ele>18.4023</ele>
        <time>2013-04-24T16:22:39Z</time>
      </trkpt>
      <trkpt lat="59.8542733" lon="17.5960775">
        <ele>17.9218</ele>
        <time>2013-04-24T16:22:40Z</time>
      </trkpt>
      <trkpt lat="59.8542893" lon="17.5959715">
        <ele>17.9218</ele>
        <time>2013-04-24T16:22:41Z</time>
      </trkpt>
      <trkpt lat="59.8543053" lon="17.5958659">
        <ele>17.4412</ele>
        <time>2013-04-24T16:22:42Z</time>
      </trkpt>
      <trkpt lat="59.8543242" lon="17.5957578">
        <ele>17.4412</ele>
        <time>2013-04-24T16:22:43Z</time>
      </trkpt>
      <trkpt lat="59.8543483" lon="17.5956475">
        <ele>16.9604</ele>
        <time>2013-04-24T16:22:44Z</time>
      </trkpt>
      <trkpt lat="59.8543757" lon="17.5955345">
        <ele>16.9604</ele>
        <time>2013-04-24T16:22:45Z</time>
      </trkpt>
      <trkpt lat="59.8544061" lon="17.5954195">
        <ele>16.4797</ele>
        <time>2013-04-24T16:22:46Z</time>
      </trkpt>
      <trkpt lat="59.8544391" lon="17.5953039">
        <ele>15.999</ele>
        <time>2013-04-24T16:22:47Z</time>
      </trkpt>
      <trkpt lat="59.8544734" lon="17.5951884">
        <ele>15.5184</ele>
        <time>2013-04-24T16:22:48Z</time>
      </trkpt>
      <trkpt lat="59.8545085" lon="17.595074">
        <ele>15.0377</ele>
        <time>2013-04-24T16:22:49Z</time>
      </trkpt>
      <trkpt lat="59.8545456" lon="17.5949596">
        <ele>15.0377</ele>
        <time>2013-04-24T16:22:50Z</time>
      </trkpt>
      <trkpt lat="59.8545837" lon="17.5948413">
        <ele>14.557</ele>
        <time>2013-04-24T16:22:51Z</time>
      </trkpt>
      <trkpt lat="59.8546226" lon="17.5947187">
        <ele>14.0764</ele>
        <time>2013-04-24T16:22:52Z</time>
      </trkpt>
      <trkpt lat="59.8546624" lon="17.5945932">
        <ele>13.5958</ele>
        <time>2013-04-24T16:22:53Z</time>
      </trkpt>
      <trkpt lat="59.854701" lon="17.5944617">
        <ele>13.1151</ele>
        <time>2013-04-24T16:22:54Z</time>
      </trkpt>
      <trkpt lat="59.8547376" lon="17.5943239">
        <ele>13.1151</ele>
        <time>2013-04-24T16:22:55Z</time>
      </trkpt>
      <trkpt lat="59.8547727" lon="17.5941783">
        <ele>12.6344</ele>
        <time>2013-04-24T16:22:56Z</time>
      </trkpt>
      <trkpt lat="59.8548038" lon="17.5940261">
        <ele>12.1538</ele>
        <time>2013-04-24T16:22:57Z</time>
      </trkpt>
      <trkpt lat="59.8548291" lon="17.5938643">
        <ele>12.1538</ele>
        <time>2013-04-24T16:22:58Z</time>
      </trkpt>
      <trkpt lat="59.8548487" lon="17.5936935">
        <ele>11.6732</ele>
        <time>2013-04-24T16:22:59Z</time>
      </trkpt>
      <trkpt lat="59.8548618" lon="17.5935157">
        <ele>11.6732</ele>
        <time>2013-04-24T16:23:00Z</time>
      </trkpt>
      <trkpt lat="59.854867" lon="17.5933303">
        <ele>11.1925</ele>
        <time>2013-04-24T16:23:01Z</time>
      </trkpt>
      <trkpt lat="59.8548639" lon="17.5931429">
        <ele>10.2312</ele>
        <time>2013-04-24T16:23:02Z</time>
      </trkpt>
      <trkpt lat="59.8548528" lon="17.5929575">
        <ele>9.2699</ele>
        <time>2013-04-24T16:23:03Z</time>
      </trkpt>
      <trkpt lat="59.8548359" lon="17.5927709">
        <ele>8.78918</ele>
        <time>2013-04-24T16:23:04Z</time>
      </trkpt>
      <trkpt lat="59.8548147" lon="17.5925845">
        <ele>8.30859</ele>
        <time>2013-04-24T16:23:05Z</time>
      </trkpt>
      <trkpt lat="59.8547825" lon="17.5924133">
        <ele>8.30859</ele>
        <time>2013-04-24T16:23:06Z</time>
      </trkpt>
      <trkpt lat="59.8547432" lon="17.5922473">
        <ele>9.2699</ele>
        <time>2013-04-24T16:23:07Z</time>
      </trkpt>
      <trkpt lat="59.8547002" lon="17.5920956">
        <ele>10.2312</ele>
        <time>2013-04-24T16:23:08Z</time>
      </trkpt>
      <trkpt lat="59.8546537" lon="17.5919591">
        <ele>10.7118</ele>
        <time>2013-04-24T16:23:09Z</time>
      </trkpt>
      <trkpt lat="59.8546045" lon="17.5918344">
        <ele>11.1925</ele>
        <time>2013-04-24T16:23:10Z</time>
      </trkpt>
      <trkpt lat="59.8545532" lon="17.591722">
        <ele>11.1925</ele>
        <time>2013-04-24T16:23:11Z</time>
      </trkpt>
      <trkpt lat="59.8545002" lon="17.5916192">
        <ele>11.6732</ele>
        <time>2013-04-24T16:23:12Z</time>
      </trkpt>
      <trkpt lat="59.8544453" lon="17.5915272">
        <ele>12.1538</ele>
        <time>2013-04-24T16:23:13Z</time>
      </trkpt>
      <trkpt lat="59.8543885" lon="17.5914469">
        <ele>12.6344</ele>
        <time>2013-04-24T16:23:14Z</time>
      </trkpt>
      <trkpt lat="59.854331" lon="17.5913716">
        <ele>13.1151</ele>
        <time>2013-04-24T16:23:15Z</time>
      </trkpt>
      <trkpt lat="59.8542753" lon="17.5913009">
        <ele>13.5958</ele>
        <time>2013-04-24T16:23:16Z</time>
      </trkpt>
      <trkpt lat="59.8542201" lon="17.5912364">
        <ele>14.0764</ele>
        <time>2013-04-24T16:23:17Z</time>
      </trkpt>
      <trkpt lat="59.8541629" lon="17.5911858">
        <ele>14.557</ele>
        <time>2013-04-24T16:23:18Z</time>
      </trkpt>
      <trkpt lat="59.8541045" lon="17.5911403">
        <ele>15.0377</ele>
        <time>2013-04-24T16:23:19Z</time>
      </trkpt>
      <trkpt lat="59.854047" lon="17.5910973">
        <ele>15.5184</ele>
        <time>2013-04-24T16:23:20Z</time>
      </trkpt>
      <trkpt lat="59.8539908" lon="17.5910544">
        <ele>15.5184</ele>
        <time>2013-04-24T16:23:21Z</time>
      </trkpt>
      <trkpt lat="59.8539355" lon="17.5910111">
        <ele>15.999</ele>
        <time>2013-04-24T16:23:22Z</time>
      </trkpt>
      <trkpt lat="59.8538796" lon="17.5909672">
        <ele>15.999</ele>
        <time>2013-04-24T16:23:23Z</time>
      </trkpt>
      <trkpt lat="59.853824" lon="17.5909217">
        <ele>16.4797</ele>
        <time>2013-04-24T16:23:24Z</time>
      </trkpt>
      <trkpt lat="59.8537694" lon="17.5908715">
        <ele>16.4797</ele>
        <time>2013-04-24T16:23:25Z</time>
      </trkpt>
      <trkpt lat="59.853716" lon="17.5908176">
        <ele>16.4797</ele>
        <time>2013-04-24T16:23:26Z</time>
      </trkpt>
      <trkpt lat="59.8536638" lon="17.59076">
        <ele>16.4797</ele>
        <time>2013-04-24T16:23:27Z</time>
      </trkpt>
      <trkpt lat="59.8536128" lon="17.5906988">
        <ele>16.4797</ele>
        <time>2013-04-24T16:23:28Z</time>
      </trkpt>
      <trkpt lat="59.853563" lon="17.5906314">
        <ele>16.9604</ele>
        <time>2013-04-24T16:23:29Z</time>
      </trkpt>
      <trkpt lat="59.8535176" lon="17.5905522">
        <ele>16.9604</ele>
        <time>2013-04-24T16:23:30Z</time>
      </trkpt>
      <trkpt lat="59.8534756" lon="17.5904658">
        <ele>17.4412</ele>
        <time>2013-04-24T16:23:31Z</time>
      </trkpt>
      <trkpt lat="59.8534347" lon="17.5903792">
        <ele>17.4412</ele>
        <time>2013-04-24T16:23:32Z</time>
      </trkpt>
      <trkpt lat="59.8533954" lon="17.590288">
        <ele>17.4412</ele>
        <time>2013-04-24T16:23:33Z</time>
      </trkpt>
      <trkpt lat="59.853358" lon="17.5901927">
        <ele>17.9218</ele>
        <time>2013-04-24T16:23:34Z</time>
      </trkpt>
      <trkpt lat="59.8533222" lon="17.5900934">
        <ele>17.9218</ele>
        <time>2013-04-24T16:23:35Z</time>
      </trkpt>
      <trkpt lat="59.8532889" lon="17.5899914">
        <ele>17.9218</ele>
        <time>2013-04-24T16:23:36Z</time>
      </trkpt>
      <trkpt lat="59.8532575" lon="17.5898883">
        <ele>17.9218</ele>
        <time>2013-04-24T16:23:37Z</time>
      </trkpt>
      <trkpt lat="59.853228" lon="17.589784">
        <ele>17.9218</ele>
        <time>2013-04-24T16:23:38Z</time>
      </trkpt>
      <trkpt lat="59.8531991" lon="17.5896803">
        <ele>17.9218</ele>
        <time>2013-04-24T16:23:39Z</time>
      </trkpt>
      <trkpt lat="59.853171" lon="17.5895765">
        <ele>17.9218</ele>
        <time>2013-04-24T16:23:40Z</time>
      </trkpt>
      <trkpt lat="59.8531445" lon="17.5894707">
        <ele>17.9218</ele>
        <time>2013-04-24T16:23:41Z</time>
      </trkpt>
      <trkpt lat="59.8531182" lon="17.5893624">
        <ele>17.9218</ele>
        <time>2013-04-24T16:23:42Z</time>
      </trkpt>
      <trkpt lat="59.8530923" lon="17.5892521">
        <ele>17.9218</ele>
        <time>2013-04-24T16:23:43Z</time>
      </trkpt>
      <trkpt lat="59.8530653" lon="17.5891416">
        <ele>17.9218</ele>
        <time>2013-04-24T16:23:44Z</time>
      </trkpt>
      <trkpt lat="59.8530382" lon="17.5890314">
        <ele>17.9218</ele>
        <time>2013-04-24T16:23:45Z</time>
      </trkpt>
      <trkpt lat="59.8530118" lon="17.5889212">
        <ele>17.9218</ele>
        <time>2013-04-24T16:23:46Z</time>
      </trkpt>
      <trkpt lat="59.8529854" lon="17.5888109">
        <ele>17.9218</ele>
        <time>2013-04-24T16:23:47Z</time>
      </trkpt>
      <trkpt lat="59.8529593" lon="17.5887008">
        <ele>17.9218</ele>
        <time>2013-04-24T16:23:48Z</time>
      </trkpt>
      <trkpt lat="59.8529331" lon="17.5885906">
        <ele>17.9218</ele>
        <time>2013-04-24T16:23:49Z</time>
      </trkpt>
      <trkpt lat="59.8529068" lon="17.5884802">
        <ele>17.9218</ele>
        <time>2013-04-24T16:23:50Z</time>
      </trkpt>
      <trkpt lat="59.8528809" lon="17.5883685">
        <ele>18.4023</ele>
        <time>2013-04-24T16:23:51Z</time>
      </trkpt>
      <trkpt lat="59.8528548" lon="17.5882561">
        <ele>18.4023</ele>
        <time>2013-04-24T16:23:52Z</time>
      </trkpt>
      <trkpt lat="59.8528275" lon="17.5881434">
        <ele>18.4023</ele>
        <time>2013-04-24T16:23:53Z</time>
      </trkpt>
      <trkpt lat="59.8528001" lon="17.5880295">
        <ele>18.4023</ele>
        <time>2013-04-24T16:23:54Z</time>
      </trkpt>
      <trkpt lat="59.8527732" lon="17.5879139">
        <ele>18.8831</ele>
        <time>2013-04-24T16:23:55Z</time>
      </trkpt>
      <trkpt lat="59.8527472" lon="17.587797">
        <ele>18.8831</ele>
        <time>2013-04-24T16:23:56Z</time>
      </trkpt>
      <trkpt lat="59.852721" lon="17.5876795">
        <ele>18.8831</ele>
        <time>2013-04-24T16:23:57Z</time>
      </trkpt>
      <trkpt lat="59.8526946" lon="17.587562">
        <ele>18.8831</ele>
        <time>2013-04-24T16:23:58Z</time>
      </trkpt>
      <trkpt lat="59.8526681" lon="17.5874444">
        <ele>18.4023</ele>
        <time>2013-04-24T16:23:59Z</time>
      </trkpt>
      <trkpt lat="59.8526417" lon="17.5873273">
        <ele>18.4023</ele>
        <time>2013-04-24T16:24:00Z</time>
      </trkpt>
      <trkpt lat="59.8526157" lon="17.5872102">
        <ele>18.4023</ele>
        <time>2013-04-24T16:24:01Z</time>
      </trkpt>
      <trkpt lat="59.8525893" lon="17.587093">
        <ele>18.4023</ele>
        <time>2013-04-24T16:24:02Z</time>
      </trkpt>
      <trkpt lat="59.8525629" lon="17.5869759">
        <ele>18.4023</ele>
        <time>2013-04-24T16:24:03Z</time>
      </trkpt>
      <trkpt lat="59.852536" lon="17.5868584">
        <ele>18.4023</ele>
        <time>2013-04-24T16:24:04Z</time>
      </trkpt>
      <trkpt lat="59.852508" lon="17.5867402">
        <ele>18.8831</ele>
        <time>2013-04-24T16:24:05Z</time>
      </trkpt>
      <trkpt lat="59.8524819" lon="17.5866227">
        <ele>18.8831</ele>
        <time>2013-04-24T16:24:06Z</time>
      </trkpt>
      <trkpt lat="59.8524556" lon="17.586506">
        <ele>18.8831</ele>
        <time>2013-04-24T16:24:07Z</time>
      </trkpt>
      <trkpt lat="59.8524292" lon="17.5863902">
        <ele>18.8831</ele>
        <time>2013-04-24T16:24:08Z</time>
      </trkpt>
      <trkpt lat="59.8524031" lon="17.5862772">
        <ele>18.8831</ele>
        <time>2013-04-24T16:24:09Z</time>
      </trkpt>
      <trkpt lat="59.8523779" lon="17.5861701">
        <ele>18.8831</ele>
        <time>2013-04-24T16:24:10Z</time>
      </trkpt>
      <trkpt lat="59.8523547" lon="17.5860695">
        <ele>18.8831</ele>
        <time>2013-04-24T16:24:11Z</time>
      </trkpt>
      <trkpt lat="59.8523333" lon="17.5859741">
        <ele>18.8831</ele>
        <time>2013-04-24T16:24:12Z</time>
      </trkpt>
      <trkpt lat="59.8523136" lon="17.5858835">
        <ele>18.8831</ele>
        <time>2013-04-24T16:24:13Z</time>
      </trkpt>
      <trkpt lat="59.8522941" lon="17.5857969">
        <ele>18.8831</ele>
        <time>2013-04-24T16:24:14Z</time>
      </trkpt>
      <trkpt lat="59.8522755" lon="17.5857114">
        <ele>18.8831</ele>
        <time>2013-04-24T16:24:15Z</time>
      </trkpt>
      <trkpt lat="59.8522578" lon="17.5856243">
        <ele>18.8831</ele>
        <time>2013-04-24T16:24:16Z</time>
      </trkpt>
      <trkpt lat="59.8522456" lon="17.5855328">
        <ele>18.8831</ele>
        <time>2013-04-24T16:24:17Z</time>
      </trkpt>
      <trkpt lat="59.8522298" lon="17.585441">
        <ele>18.8831</ele>
        <time>2013-04-24T16:24:18Z</time>
      </trkpt>
      <trkpt lat="59.852214" lon="17.5853505">
        <ele>18.8831</ele>
        <time>2013-04-24T16:24:19Z</time>
      </trkpt>
      <trkpt lat="59.8521961" lon="17.5852624">
        <ele>18.8831</ele>
        <time>2013-04-24T16:24:20Z</time>
      </trkpt>
      <trkpt lat="59.8521744" lon="17.5851748">
        <ele>19.3638</ele>
        <time>2013-04-24T16:24:21Z</time>
      </trkpt>
      <trkpt lat="59.8521541" lon="17.5850853">
        <ele>19.3638</ele>
        <time>2013-04-24T16:24:22Z</time>
      </trkpt>
      <trkpt lat="59.8521344" lon="17.5849926">
        <ele>19.3638</ele>
        <time>2013-04-24T16:24:23Z</time>
      </trkpt>
      <trkpt lat="59.8521143" lon="17.5848981">
        <ele>19.3638</ele>
        <time>2013-04-24T16:24:24Z</time>
      </trkpt>
      <trkpt lat="59.8520919" lon="17.5848039">
        <ele>19.3638</ele>
        <time>2013-04-24T16:24:25Z</time>
      </trkpt>
      <trkpt lat="59.8520661" lon="17.5847105">
        <ele>19.3638</ele>
        <time>2013-04-24T16:24:26Z</time>
      </trkpt>
      <trkpt lat="59.8520415" lon="17.5846147">
        <ele>19.3638</ele>
        <time>2013-04-24T16:24:27Z</time>
      </trkpt>
      <trkpt lat="59.8520185" lon="17.5845155">
        <ele>19.3638</ele>
        <time>2013-04-24T16:24:28Z</time>
      </trkpt>
      <trkpt lat="59.8519957" lon="17.5844142">
        <ele>19.3638</ele>
        <time>2013-04-24T16:24:29Z</time>
      </trkpt>
      <trkpt lat="59.8519729" lon="17.5843108">
        <ele>19.3638</ele>
        <time>2013-04-24T16:24:30Z</time>
      </trkpt>
      <trkpt lat="59.8519497" lon="17.5842073">
        <ele>19.8444</ele>
        <time>2013-04-24T16:24:31Z</time>
      </trkpt>
      <trkpt lat="59.851926" lon="17.5841044">
        <ele>19.8444</ele>
        <time>2013-04-24T16:24:32Z</time>
      </trkpt>
      <trkpt lat="59.851902" lon="17.5840008">
        <ele>19.8444</ele>
        <time>2013-04-24T16:24:33Z</time>
      </trkpt>
      <trkpt lat="59.8518782" lon="17.5838959">
        <ele>19.8444</ele>
        <time>2013-04-24T16:24:34Z</time>
      </trkpt>
      <trkpt lat="59.8518546" lon="17.5837921">
        <ele>20.325</ele>
        <time>2013-04-24T16:24:35Z</time>
      </trkpt>
      <trkpt lat="59.8518309" lon="17.5836897">
        <ele>20.325</ele>
        <time>2013-04-24T16:24:36Z</time>
      </trkpt>
      <trkpt lat="59.8518081" lon="17.5835869">
        <ele>20.325</ele>
        <time>2013-04-24T16:24:37Z</time>
      </trkpt>
      <trkpt lat="59.8517853" lon="17.5834851">
        <ele>20.325</ele>
        <time>2013-04-24T16:24:38Z</time>
      </trkpt>
      <trkpt lat="59.8517621" lon="17.5833834">
        <ele>20.325</ele>
        <time>2013-04-24T16:24:39Z</time>
      </trkpt>
      <trkpt lat="59.8517396" lon="17.5832818">
        <ele>20.8057</ele>
        <time>2013-04-24T16:24:40Z</time>
      </trkpt>
      <trkpt lat="59.8517164" lon="17.5831811">
        <ele>20.8057</ele>
        <time>2013-04-24T16:24:41Z</time>
      </trkpt>
      <trkpt lat="59.8516931" lon="17.5830806">
        <ele>20.8057</ele>
        <time>2013-04-24T16:24:42Z</time>
      </trkpt>
      <trkpt lat="59.8516705" lon="17.58298">
        <ele>20.8057</ele>
        <time>2013-04-24T16:24:43Z</time>
      </trkpt>
      <trkpt lat="59.8516477" lon="17.582879">
        <ele>20.8057</ele>
        <time>2013-04-24T16:24:44Z</time>
      </trkpt>
      <trkpt lat="59.8516249" lon="17.5827774">
        <ele>20.8057</ele>
        <time>2013-04-24T16:24:45Z</time>
      </trkpt>
      <trkpt lat="59.8516015" lon="17.5826763">
        <ele>21.2864</ele>
        <time>2013-04-24T16:24:46Z</time>
      </trkpt>
      <trkpt lat="59.8515786" lon="17.582575">
        <ele>21.2864</ele>
        <time>2013-04-24T16:24:47Z</time>
      </trkpt>
      <trkpt lat="59.8515557" lon="17.5824741">
        <ele>21.2864</ele>
        <time>2013-04-24T16:24:48Z</time>
      </trkpt>
      <trkpt lat="59.8515326" lon="17.5823736">
        <ele>21.2864</ele>
        <time>2013-04-24T16:24:49Z</time>
      </trkpt>
      <trkpt lat="59.8515098" lon="17.5822739">
        <ele>21.2864</ele>
        <time>2013-04-24T16:24:50Z</time>
      </trkpt>
      <trkpt lat="59.8514876" lon="17.5821761">
        <ele>21.767</ele>
        <time>2013-04-24T16:24:51Z</time>
      </trkpt>
      <trkpt lat="59.851466" lon="17.5820801">
        <ele>21.767</ele>
        <time>2013-04-24T16:24:52Z</time>
      </trkpt>
      <trkpt lat="59.8514443" lon="17.5819858">
        <ele>21.767</ele>
        <time>2013-04-24T16:24:53Z</time>
      </trkpt>
      <trkpt lat="59.8514223" lon="17.5818921">
        <ele>21.767</ele>
        <time>2013-04-24T16:24:54Z</time>
      </trkpt>
      <trkpt lat="59.8514006" lon="17.5817974">
        <ele>21.767</ele>
        <time>2013-04-24T16:24:55Z</time>
      </trkpt>
      <trkpt lat="59.8513791" lon="17.5817031">
        <ele>22.2476</ele>
        <time>2013-04-24T16:24:56Z</time>
      </trkpt>
      <trkpt lat="59.8513576" lon="17.58161">
        <ele>22.2476</ele>
        <time>2013-04-24T16:24:57Z</time>
      </trkpt>
      <trkpt lat="59.8513366" lon="17.5815185">
        <ele>22.2476</ele>
        <time>2013-04-24T16:24:58Z</time>
      </trkpt>
      <trkpt lat="59.8513154" lon="17.5814276">
        <ele>22.2476</ele>
        <time>2013-04-24T16:24:59Z</time>
      </trkpt>
      <trkpt lat="59.8512936" lon="17.5813364">
        <ele>22.2476</ele>
        <time>2013-04-24T16:25:00Z</time>
      </trkpt>
      <trkpt lat="59.851271" lon="17.5812442">
        <ele>22.2476</ele>
        <time>2013-04-24T16:25:01Z</time>
      </trkpt>
      <trkpt lat="59.8512496" lon="17.5811502">
        <ele>22.7283</ele>
        <time>2013-04-24T16:25:02Z</time>
      </trkpt>
      <trkpt lat="59.8512284" lon="17.5810566">
        <ele>22.7283</ele>
        <time>2013-04-24T16:25:03Z</time>
      </trkpt>
      <trkpt lat="59.851207" lon="17.5809645">
        <ele>22.7283</ele>
        <time>2013-04-24T16:25:04Z</time>
      </trkpt>
      <trkpt lat="59.8511861" lon="17.5808743">
        <ele>22.7283</ele>
        <time>2013-04-24T16:25:05Z</time>
      </trkpt>
      <trkpt lat="59.8511653" lon="17.5807861">
        <ele>22.7283</ele>
        <time>2013-04-24T16:25:06Z</time>
      </trkpt>
      <trkpt lat="59.851145" lon="17.5806988">
        <ele>22.7283</ele>
        <time>2013-04-24T16:25:07Z</time>
      </trkpt>
      <trkpt lat="59.8511253" lon="17.5806117">
        <ele>23.209</ele>
        <time>2013-04-24T16:25:08Z</time>
      </trkpt>
      <trkpt lat="59.8511053" lon="17.5805248">
        <ele>23.209</ele>
        <time>2013-04-24T16:25:09Z</time>
      </trkpt>
      <trkpt lat="59.8510861" lon="17.5804382">
        <ele>23.209</ele>
        <time>2013-04-24T16:25:10Z</time>
      </trkpt>
      <trkpt lat="59.8510663" lon="17.5803518">
        <ele>23.209</ele>
        <time>2013-04-24T16:25:11Z</time>
      </trkpt>
      <trkpt lat="59.8510456" lon="17.5802656">
        <ele>23.209</ele>
        <time>2013-04-24T16:25:12Z</time>
      </trkpt>
      <trkpt lat="59.8510258" lon="17.5801767">
        <ele>23.209</ele>
        <time>2013-04-24T16:25:13Z</time>
      </trkpt>
      <trkpt lat="59.8510058" lon="17.5800855">
        <ele>23.209</ele>
        <time>2013-04-24T16:25:14Z</time>
      </trkpt>
      <trkpt lat="59.850985" lon="17.5799937">
        <ele>23.209</ele>
        <time>2013-04-24T16:25:15Z</time>
      </trkpt>
      <trkpt lat="59.8509641" lon="17.5799016">
        <ele>23.209</ele>
        <time>2013-04-24T16:25:16Z</time>
      </trkpt>
      <trkpt lat="59.8509436" lon="17.5798099">
        <ele>22.7283</ele>
        <time>2013-04-24T16:25:17Z</time>
      </trkpt>
      <trkpt lat="59.8509227" lon="17.5797192">
        <ele>22.7283</ele>
        <time>2013-04-24T16:25:18Z</time>
      </trkpt>
      <trkpt lat="59.8509022" lon="17.5796285">
        <ele>22.7283</ele>
        <time>2013-04-24T16:25:19Z</time>
      </trkpt>
      <trkpt lat="59.8508815" lon="17.5795379">
        <ele>22.7283</ele>
        <time>2013-04-24T16:25:20Z</time>
      </trkpt>
      <trkpt lat="59.8508601" lon="17.5794489">
        <ele>22.7283</ele>
        <time>2013-04-24T16:25:21Z</time>
      </trkpt>
      <trkpt lat="59.8508394" lon="17.5793615">
        <ele>23.209</ele>
        <time>2013-04-24T16:25:22Z</time>
      </trkpt>
      <trkpt lat="59.8508201" lon="17.5792741">
        <ele>23.209</ele>
        <time>2013-04-24T16:25:23Z</time>
      </trkpt>
      <trkpt lat="59.8508016" lon="17.5791857">
        <ele>23.209</ele>
        <time>2013-04-24T16:25:24Z</time>
      </trkpt>
      <trkpt lat="59.850782" lon="17.5790968">
        <ele>23.209</ele>
        <time>2013-04-24T16:25:25Z</time>
      </trkpt>
      <trkpt lat="59.8507616" lon="17.5790068">
        <ele>23.209</ele>
        <time>2013-04-24T16:25:26Z</time>
      </trkpt>
      <trkpt lat="59.850741" lon="17.5789146">
        <ele>23.209</ele>
        <time>2013-04-24T16:25:27Z</time>
      </trkpt>
      <trkpt lat="59.8507223" lon="17.5788192">
        <ele>23.209</ele>
        <time>2013-04-24T16:25:28Z</time>
      </trkpt>
      <trkpt lat="59.8507049" lon="17.5787221">
        <ele>23.209</ele>
        <time>2013-04-24T16:25:29Z</time>
      </trkpt>
      <trkpt lat="59.850686" lon="17.5786272">
        <ele>23.6896</ele>
        <time>2013-04-24T16:25:30Z</time>
      </trkpt>
      <trkpt lat="59.8506664" lon="17.5785343">
        <ele>23.6896</ele>
        <time>2013-04-24T16:25:31Z</time>
      </trkpt>
      <trkpt lat="59.8506487" lon="17.5784416">
        <ele>23.6896</ele>
        <time>2013-04-24T16:25:32Z</time>
      </trkpt>
      <trkpt lat="59.8506312" lon="17.5783509">
        <ele>23.6896</ele>
        <time>2013-04-24T16:25:33Z</time>
      </trkpt>
      <trkpt lat="59.850613" lon="17.5782623">
        <ele>23.6896</ele>
        <time>2013-04-24T16:25:34Z</time>
      </trkpt>
      <trkpt lat="59.8505951" lon="17.578173">
        <ele>23.6896</ele>
        <time>2013-04-24T16:25:35Z</time>
      </trkpt>
      <trkpt lat="59.8505774" lon="17.5780823">
        <ele>24.1703</ele>
        <time>2013-04-24T16:25:36Z</time>
      </trkpt>
      <trkpt lat="59.85056" lon="17.5779914">
        <ele>24.1703</ele>
        <time>2013-04-24T16:25:37Z</time>
      </trkpt>
      <trkpt lat="59.8505427" lon="17.5779024">
        <ele>24.1703</ele>
        <time>2013-04-24T16:25:38Z</time>
      </trkpt>
      <trkpt lat="59.8505257" lon="17.5778124">
        <ele>24.1703</ele>
        <time>2013-04-24T16:25:39Z</time>
      </trkpt>
      <trkpt lat="59.8505069" lon="17.5777264">
        <ele>24.1703</ele>
        <time>2013-04-24T16:25:40Z</time>
      </trkpt>
      <trkpt lat="59.8504909" lon="17.5776445">
        <ele>24.1703</ele>
        <time>2013-04-24T16:25:41Z</time>
      </trkpt>
      <trkpt lat="59.8504768" lon="17.5775648">
        <ele>24.651</ele>
        <time>2013-04-24T16:25:42Z</time>
      </trkpt>
      <trkpt lat="59.8504632" lon="17.5774846">
        <ele>24.651</ele>
        <time>2013-04-24T16:25:43Z</time>
      </trkpt>
      <trkpt lat="59.85045" lon="17.5774036">
        <ele>24.651</ele>
        <time>2013-04-24T16:25:44Z</time>
      </trkpt>
      <trkpt lat="59.8504362" lon="17.5773229">
        <ele>24.651</ele>
        <time>2013-04-24T16:25:45Z</time>
      </trkpt>
      <trkpt lat="59.8504213" lon="17.5772422">
        <ele>24.651</ele>
        <time>2013-04-24T16:25:46Z</time>
      </trkpt>
      <trkpt lat="59.8504072" lon="17.5771607">
        <ele>24.651</ele>
        <time>2013-04-24T16:25:47Z</time>
      </trkpt>
      <trkpt lat="59.8503928" lon="17.577078">
        <ele>24.651</ele>
        <time>2013-04-24T16:25:48Z</time>
      </trkpt>
      <trkpt lat="59.8503777" lon="17.5769951">
        <ele>25.1317</ele>
        <time>2013-04-24T16:25:49Z</time>
      </trkpt>
      <trkpt lat="59.8503625" lon="17.576912">
        <ele>25.1317</ele>
        <time>2013-04-24T16:25:50Z</time>
      </trkpt>
      <trkpt lat="59.8503469" lon="17.576829">
        <ele>25.1317</ele>
        <time>2013-04-24T16:25:51Z</time>
      </trkpt>
      <trkpt lat="59.8503313" lon="17.5767467">
        <ele>25.1317</ele>
        <time>2013-04-24T16:25:52Z</time>
      </trkpt>
      <trkpt lat="59.8503173" lon="17.5766645">
        <ele>25.1317</ele>
        <time>2013-04-24T16:25:53Z</time>
      </trkpt>
      <trkpt lat="59.8503043" lon="17.5765827">
        <ele>25.1317</ele>
        <time>2013-04-24T16:25:54Z</time>
      </trkpt>
      <trkpt lat="59.850292" lon="17.5765014">
        <ele>25.1317</ele>
        <time>2013-04-24T16:25:55Z</time>
      </trkpt>
      <trkpt lat="59.8502795" lon="17.5764198">
        <ele>25.6123</ele>
        <time>2013-04-24T16:25:56Z</time>
      </trkpt>
      <trkpt lat="59.8502666" lon="17.5763376">
        <ele>25.6123</ele>
        <time>2013-04-24T16:25:57Z</time>
      </trkpt>
      <trkpt lat="59.850254" lon="17.5762542">
        <ele>25.6123</ele>
        <time>2013-04-24T16:25:58Z</time>
      </trkpt>
      <trkpt lat="59.850241" lon="17.5761717">
        <ele>25.6123</ele>
        <time>2013-04-24T16:25:59Z</time>
      </trkpt>
      <trkpt lat="59.850228" lon="17.5760913">
        <ele>25.6123</ele>
        <time>2013-04-24T16:26:00Z</time>
      </trkpt>
      <trkpt lat="59.8502154" lon="17.5760128">
        <ele>25.6123</ele>
        <time>2013-04-24T16:26:01Z</time>
      </trkpt>
      <trkpt lat="59.8502037" lon="17.5759356">
        <ele>25.6123</ele>
        <time>2013-04-24T16:26:02Z</time>
      </trkpt>
      <trkpt lat="59.8501926" lon="17.5758583">
        <ele>25.6123</ele>
        <time>2013-04-24T16:26:03Z</time>
      </trkpt>
      <trkpt lat="59.8501814" lon="17.5757822">
        <ele>25.6123</ele>
        <time>2013-04-24T16:26:04Z</time>
      </trkpt>
      <trkpt lat="59.8501697" lon="17.5757078">
        <ele>25.6123</ele>
        <time>2013-04-24T16:26:05Z</time>
      </trkpt>
      <trkpt lat="59.8501584" lon="17.575634">
        <ele>25.6123</ele>
        <time>2013-04-24T16:26:06Z</time>
      </trkpt>
      <trkpt lat="59.8501479" lon="17.5755596">
        <ele>26.0929</ele>
        <time>2013-04-24T16:26:07Z</time>
      </trkpt>
      <trkpt lat="59.8501368" lon="17.5754843">
        <ele>26.0929</ele>
        <time>2013-04-24T16:26:08Z</time>
      </trkpt>
      <trkpt lat="59.8501251" lon="17.5754088">
        <ele>26.0929</ele>
        <time>2013-04-24T16:26:09Z</time>
      </trkpt>
      <trkpt lat="59.8501128" lon="17.575333">
        <ele>26.0929</ele>
        <time>2013-04-24T16:26:10Z</time>
      </trkpt>
      <trkpt lat="59.8501006" lon="17.575256">
        <ele>26.0929</ele>
        <time>2013-04-24T16:26:11Z</time>
      </trkpt>
      <trkpt lat="59.8500893" lon="17.5751777">
        <ele>26.0929</ele>
        <time>2013-04-24T16:26:12Z</time>
      </trkpt>
      <trkpt lat="59.8500781" lon="17.5750983">
        <ele>26.0929</ele>
        <time>2013-04-24T16:26:13Z</time>
      </trkpt>
      <trkpt lat="59.850066" lon="17.5750196">
        <ele>26.5736</ele>
        <time>2013-04-24T16:26:14Z</time>
      </trkpt>
      <trkpt lat="59.8500536" lon="17.5749417">
        <ele>26.5736</ele>
        <time>2013-04-24T16:26:15Z</time>
      </trkpt>
      <trkpt lat="59.8500423" lon="17.5748632">
        <ele>26.5736</ele>
        <time>2013-04-24T16:26:16Z</time>
      </trkpt>
      <trkpt lat="59.8500308" lon="17.574783">
        <ele>26.5736</ele>
        <time>2013-04-24T16:26:17Z</time>
      </trkpt>
      <trkpt lat="59.850018" lon="17.5747003">
        <ele>26.5736</ele>
        <time>2013-04-24T16:26:18Z</time>
      </trkpt>
      <trkpt lat="59.8500051" lon="17.5746157">
        <ele>27.0543</ele>
        <time>2013-04-24T16:26:19Z</time>
      </trkpt>
      <trkpt lat="59.8499925" lon="17.5745301">
        <ele>27.0543</ele>
        <time>2013-04-24T16:26:20Z</time>
      </trkpt>
      <trkpt lat="59.8499799" lon="17.5744428">
        <ele>27.0543</ele>
        <time>2013-04-24T16:26:21Z</time>
      </trkpt>
      <trkpt lat="59.8499666" lon="17.5743535">
        <ele>27.0543</ele>
        <time>2013-04-24T16:26:22Z</time>
      </trkpt>
      <trkpt lat="59.8499531" lon="17.574262">
        <ele>27.0543</ele>
        <time>2013-04-24T16:26:23Z</time>
      </trkpt>
      <trkpt lat="59.84994" lon="17.5741697">
        <ele>27.0543</ele>
        <time>2013-04-24T16:26:24Z</time>
      </trkpt>
      <trkpt lat="59.849927" lon="17.5740782">
        <ele>27.0543</ele>
        <time>2013-04-24T16:26:25Z</time>
      </trkpt>
      <trkpt lat="59.8499139" lon="17.5739878">
        <ele>27.0543</ele>
        <time>2013-04-24T16:26:26Z</time>
      </trkpt>
      <trkpt lat="59.8499009" lon="17.5738979">
        <ele>27.0543</ele>
        <time>2013-04-24T16:26:27Z</time>
      </trkpt>
      <trkpt lat="59.8498879" lon="17.5738086">
        <ele>27.0543</ele>
        <time>2013-04-24T16:26:28Z</time>
      </trkpt>
      <trkpt lat="59.849876" lon="17.5737183">
        <ele>27.5349</ele>
        <time>2013-04-24T16:26:29Z</time>
      </trkpt>
      <trkpt lat="59.8498661" lon="17.5736201">
        <ele>27.5349</ele>
        <time>2013-04-24T16:26:30Z</time>
      </trkpt>
      <trkpt lat="59.8498599" lon="17.573526">
        <ele>27.5349</ele>
        <time>2013-04-24T16:26:31Z</time>
      </trkpt>
      <trkpt lat="59.8498594" lon="17.5734306">
        <ele>27.5349</ele>
        <time>2013-04-24T16:26:32Z</time>
      </trkpt>
      <trkpt lat="59.849862" lon="17.5733348">
        <ele>27.5349</ele>
        <time>2013-04-24T16:26:33Z</time>
      </trkpt>
      <trkpt lat="59.8498745" lon="17.5732415">
        <ele>27.5349</ele>
        <time>2013-04-24T16:26:34Z</time>
      </trkpt>
      <trkpt lat="59.849894" lon="17.5731513">
        <ele>27.5349</ele>
        <time>2013-04-24T16:26:35Z</time>
      </trkpt>
      <trkpt lat="59.849918" lon="17.5730653">
        <ele>27.5349</ele>
        <time>2013-04-24T16:26:36Z</time>
      </trkpt>
      <trkpt lat="59.8499428" lon="17.5729824">
        <ele>27.5349</ele>
        <time>2013-04-24T16:26:37Z</time>
      </trkpt>
      <trkpt lat="59.8499678" lon="17.5729046">
        <ele>27.5349</ele>
        <time>2013-04-24T16:26:38Z</time>
      </trkpt>
      <trkpt lat="59.8499982" lon="17.572842">
        <ele>27.5349</ele>
        <time>2013-04-24T16:26:39Z</time>
      </trkpt>
      <trkpt lat="59.8500358" lon="17.5727947">
        <ele>27.5349</ele>
        <time>2013-04-24T16:26:40Z</time>
      </trkpt>
      <trkpt lat="59.8500743" lon="17.5727462">
        <ele>27.5349</ele>
        <time>2013-04-24T16:26:41Z</time>
      </trkpt>
      <trkpt lat="59.8501074" lon="17.5726798">
        <ele>27.5349</ele>
        <time>2013-04-24T16:26:42Z</time>
      </trkpt>
      <trkpt lat="59.8501303" lon="17.5725945">
        <ele>27.5349</ele>
        <time>2013-04-24T16:26:43Z</time>
      </trkpt>
      <trkpt lat="59.8501402" lon="17.5724987">
        <ele>27.5349</ele>
        <time>2013-04-24T16:26:44Z</time>
      </trkpt>
      <trkpt lat="59.8501377" lon="17.5724032">
        <ele>27.5349</ele>
        <time>2013-04-24T16:26:45Z</time>
      </trkpt>
      <trkpt lat="59.850126" lon="17.5723162">
        <ele>27.5349</ele>
        <time>2013-04-24T16:26:46Z</time>
      </trkpt>
      <trkpt lat="59.8501094" lon="17.5722351">
        <ele>27.5349</ele>
        <time>2013-04-24T16:26:47Z</time>
      </trkpt>
      <trkpt lat="59.850092" lon="17.5721566">
        <ele>28.0155</ele>
        <time>2013-04-24T16:26:48Z</time>
      </trkpt>
      <trkpt lat="59.8500738" lon="17.5720786">
        <ele>28.0155</ele>
        <time>2013-04-24T16:26:49Z</time>
      </trkpt>
      <trkpt lat="59.850055" lon="17.5719993">
        <ele>28.0155</ele>
        <time>2013-04-24T16:26:50Z</time>
      </trkpt>
      <trkpt lat="59.8500364" lon="17.5719186">
        <ele>28.0155</ele>
        <time>2013-04-24T16:26:51Z</time>
      </trkpt>
      <trkpt lat="59.8500175" lon="17.5718371">
        <ele>28.0155</ele>
        <time>2013-04-24T16:26:52Z</time>
      </trkpt>
      <trkpt lat="59.849998" lon="17.5717564">
        <ele>28.0155</ele>
        <time>2013-04-24T16:26:53Z</time>
      </trkpt>
      <trkpt lat="59.8499764" lon="17.5716776">
        <ele>28.0155</ele>
        <time>2013-04-24T16:26:54Z</time>
      </trkpt>
      <trkpt lat="59.8499548" lon="17.5715983">
        <ele>28.0155</ele>
        <time>2013-04-24T16:26:55Z</time>
      </trkpt>
      <trkpt lat="59.8499349" lon="17.5715164">
        <ele>28.0155</ele>
        <time>2013-04-24T16:26:56Z</time>
      </trkpt>
      <trkpt lat="59.8499158" lon="17.5714324">
        <ele>28.4962</ele>
        <time>2013-04-24T16:26:57Z</time>
      </trkpt>
      <trkpt lat="59.8498965" lon="17.5713476">
        <ele>28.4962</ele>
        <time>2013-04-24T16:26:58Z</time>
      </trkpt>
      <trkpt lat="59.849876" lon="17.5712627">
        <ele>28.4962</ele>
        <time>2013-04-24T16:26:59Z</time>
      </trkpt>
      <trkpt lat="59.8498542" lon="17.5711767">
        <ele>28.4962</ele>
        <time>2013-04-24T16:27:00Z</time>
      </trkpt>
      <trkpt lat="59.8498319" lon="17.5710886">
        <ele>28.4962</ele>
        <time>2013-04-24T16:27:01Z</time>
      </trkpt>
      <trkpt lat="59.8498084" lon="17.570998">
        <ele>28.4962</ele>
        <time>2013-04-24T16:27:02Z</time>
      </trkpt>
      <trkpt lat="59.8497844" lon="17.5709048">
        <ele>28.4962</ele>
        <time>2013-04-24T16:27:03Z</time>
      </trkpt>
      <trkpt lat="59.8497604" lon="17.5708102">
        <ele>28.4962</ele>
        <time>2013-04-24T16:27:04Z</time>
      </trkpt>
      <trkpt lat="59.8497361" lon="17.5707145">
        <ele>28.4962</ele>
        <time>2013-04-24T16:27:05Z</time>
      </trkpt>
      <trkpt lat="59.8497116" lon="17.5706163">
        <ele>28.4962</ele>
        <time>2013-04-24T16:27:06Z</time>
      </trkpt>
      <trkpt lat="59.8496858" lon="17.5705172">
        <ele>28.4962</ele>
        <time>2013-04-24T16:27:07Z</time>
      </trkpt>
      <trkpt lat="59.8496587" lon="17.5704166">
        <ele>28.4962</ele>
        <time>2013-04-24T16:27:08Z</time>
      </trkpt>
      <trkpt lat="59.8496295" lon="17.5703153">
        <ele>28.4962</ele>
        <time>2013-04-24T16:27:09Z</time>
      </trkpt>
      <trkpt lat="59.8495999" lon="17.5702137">
        <ele>28.4962</ele>
        <time>2013-04-24T16:27:10Z</time>
      </trkpt>
      <trkpt lat="59.849571" lon="17.5701085">
        <ele>28.4962</ele>
        <time>2013-04-24T16:27:11Z</time>
      </trkpt>
      <trkpt lat="59.8495429" lon="17.5699992">
        <ele>28.4962</ele>
        <time>2013-04-24T16:27:12Z</time>
      </trkpt>
      <trkpt lat="59.8495157" lon="17.5698864">
        <ele>28.4962</ele>
        <time>2013-04-24T16:27:13Z</time>
      </trkpt>
      <trkpt lat="59.8494886" lon="17.5697728">
        <ele>28.4962</ele>
        <time>2013-04-24T16:27:14Z</time>
      </trkpt>
      <trkpt lat="59.8494611" lon="17.569659">
        <ele>28.4962</ele>
        <time>2013-04-24T16:27:15Z</time>
      </trkpt>
      <trkpt lat="59.8494347" lon="17.5695443">
        <ele>28.4962</ele>
        <time>2013-04-24T16:27:16Z</time>
      </trkpt>
      <trkpt lat="59.8494091" lon="17.569428">
        <ele>28.0155</ele>
        <time>2013-04-24T16:27:17Z</time>
      </trkpt>
      <trkpt lat="59.8493831" lon="17.5693128">
        <ele>28.4962</ele>
        <time>2013-04-24T16:27:18Z</time>
      </trkpt>
      <trkpt lat="59.8493574" lon="17.5691972">
        <ele>28.4962</ele>
        <time>2013-04-24T16:27:19Z</time>
      </trkpt>
      <trkpt lat="59.8493321" lon="17.5690807">
        <ele>28.0155</ele>
        <time>2013-04-24T16:27:20Z</time>
      </trkpt>
      <trkpt lat="59.8493082" lon="17.5689617">
        <ele>28.0155</ele>
        <time>2013-04-24T16:27:21Z</time>
      </trkpt>
      <trkpt lat="59.849285" lon="17.56884">
        <ele>28.0155</ele>
        <time>2013-04-24T16:27:22Z</time>
      </trkpt>
      <trkpt lat="59.8492614" lon="17.5687176">
        <ele>28.0155</ele>
        <time>2013-04-24T16:27:23Z</time>
      </trkpt>
      <trkpt lat="59.8492388" lon="17.5685934">
        <ele>28.0155</ele>
        <time>2013-04-24T16:27:24Z</time>
      </trkpt>
      <trkpt lat="59.8492176" lon="17.5684689">
        <ele>28.0155</ele>
        <time>2013-04-24T16:27:25Z</time>
      </trkpt>
      <trkpt lat="59.8491964" lon="17.5683432">
        <ele>28.0155</ele>
        <time>2013-04-24T16:27:26Z</time>
      </trkpt>
      <trkpt lat="59.849177" lon="17.5682167">
        <ele>28.0155</ele>
        <time>2013-04-24T16:27:27Z</time>
      </trkpt>
      <trkpt lat="59.8491585" lon="17.5680905">
        <ele>28.0155</ele>
        <time>2013-04-24T16:27:28Z</time>
      </trkpt>
      <trkpt lat="59.84914" lon="17.5679662">
        <ele>28.0155</ele>
        <time>2013-04-24T16:27:29Z</time>
      </trkpt>
      <trkpt lat="59.8491218" lon="17.5678447">
        <ele>28.0155</ele>
        <time>2013-04-24T16:27:30Z</time>
      </trkpt>
      <trkpt lat="59.8491052" lon="17.5677262">
        <ele>28.0155</ele>
        <time>2013-04-24T16:27:31Z</time>
      </trkpt>
      <trkpt lat="59.8490897" lon="17.5676098">
        <ele>28.0155</ele>
        <time>2013-04-24T16:27:32Z</time>
      </trkpt>
      <trkpt lat="59.8490746" lon="17.5674947">
        <ele>28.0155</ele>
        <time>2013-04-24T16:27:33Z</time>
      </trkpt>
      <trkpt lat="59.8490586" lon="17.5673813">
        <ele>28.0155</ele>
        <time>2013-04-24T16:27:34Z</time>
      </trkpt>
      <trkpt lat="59.8490426" lon="17.5672686">
        <ele>28.0155</ele>
        <time>2013-04-24T16:27:35Z</time>
      </trkpt>
      <trkpt lat="59.8490285" lon="17.5671562">
        <ele>28.0155</ele>
        <time>2013-04-24T16:27:36Z</time>
      </trkpt>
      <trkpt lat="59.8490153" lon="17.5670461">
        <ele>28.0155</ele>
        <time>2013-04-24T16:27:37Z</time>
      </trkpt>
      <trkpt lat="59.849002" lon="17.5669394">
        <ele>28.0155</ele>
        <time>2013-04-24T16:27:38Z</time>
      </trkpt>
      <trkpt lat="59.8489879" lon="17.5668353">
        <ele>28.0155</ele>
        <time>2013-04-24T16:27:39Z</time>
      </trkpt>
      <trkpt lat="59.848973" lon="17.5667321">
        <ele>28.0155</ele>
        <time>2013-04-24T16:27:40Z</time>
      </trkpt>
      <trkpt lat="59.8489584" lon="17.5666285">
        <ele>28.0155</ele>
        <time>2013-04-24T16:27:41Z</time>
      </trkpt>
      <trkpt lat="59.8489328" lon="17.566512">
        <ele>28.0155</ele>
        <time>2013-04-24T16:27:42Z</time>
      </trkpt>
      <trkpt lat="59.8489195" lon="17.5664084">
        <ele>28.0155</ele>
        <time>2013-04-24T16:27:43Z</time>
      </trkpt>
      <trkpt lat="59.8488964" lon="17.5663072">
        <ele>28.4962</ele>
        <time>2013-04-24T16:27:44Z</time>
      </trkpt>
      <trkpt lat="59.8488835" lon="17.5662012">
        <ele>28.4962</ele>
        <time>2013-04-24T16:27:45Z</time>
      </trkpt>
      <trkpt lat="59.8488725" lon="17.5660971">
        <ele>28.4962</ele>
        <time>2013-04-24T16:27:46Z</time>
      </trkpt>
      <trkpt lat="59.848856" lon="17.5659896">
        <ele>28.4962</ele>
        <time>2013-04-24T16:27:47Z</time>
      </trkpt>
      <trkpt lat="59.8488383" lon="17.5658815">
        <ele>28.4962</ele>
        <time>2013-04-24T16:27:48Z</time>
      </trkpt>
      <trkpt lat="59.8488195" lon="17.5657718">
        <ele>28.9769</ele>
        <time>2013-04-24T16:27:49Z</time>
      </trkpt>
      <trkpt lat="59.8488011" lon="17.5656625">
        <ele>28.9769</ele>
        <time>2013-04-24T16:27:50Z</time>
      </trkpt>
      <trkpt lat="59.8487824" lon="17.5655538">
        <ele>28.9769</ele>
        <time>2013-04-24T16:27:51Z</time>
      </trkpt>
      <trkpt lat="59.8487628" lon="17.5654453">
        <ele>29.4575</ele>
        <time>2013-04-24T16:27:52Z</time>
      </trkpt>
      <trkpt lat="59.8487434" lon="17.5653352">
        <ele>29.4575</ele>
        <time>2013-04-24T16:27:53Z</time>
      </trkpt>
      <trkpt lat="59.8487228" lon="17.5652256">
        <ele>29.4575</ele>
        <time>2013-04-24T16:27:54Z</time>
      </trkpt>
      <trkpt lat="59.8487021" lon="17.5651158">
        <ele>29.9381</ele>
        <time>2013-04-24T16:27:55Z</time>
      </trkpt>
      <trkpt lat="59.8486821" lon="17.5650045">
        <ele>29.9381</ele>
        <time>2013-04-24T16:27:56Z</time>
      </trkpt>
      <trkpt lat="59.8486634" lon="17.5648925">
        <ele>29.9381</ele>
        <time>2013-04-24T16:27:57Z</time>
      </trkpt>
      <trkpt lat="59.8486426" lon="17.5647817">
        <ele>29.4575</ele>
        <time>2013-04-24T16:27:58Z</time>
      </trkpt>
      <trkpt lat="59.8486213" lon="17.5646714">
        <ele>29.4575</ele>
        <time>2013-04-24T16:27:59Z</time>
      </trkpt>
      <trkpt lat="59.8486011" lon="17.5645602">
        <ele>29.4575</ele>
        <time>2013-04-24T16:28:00Z</time>
      </trkpt>
      <trkpt lat="59.848581" lon="17.5644489">
        <ele>29.4575</ele>
        <time>2013-04-24T16:28:01Z</time>
      </trkpt>
      <trkpt lat="59.8485598" lon="17.5643389">
        <ele>28.9769</ele>
        <time>2013-04-24T16:28:02Z</time>
      </trkpt>
      <trkpt lat="59.848538" lon="17.5642297">
        <ele>28.9769</ele>
        <time>2013-04-24T16:28:03Z</time>
      </trkpt>
      <trkpt lat="59.8485162" lon="17.5641212">
        <ele>28.9769</ele>
        <time>2013-04-24T16:28:04Z</time>
      </trkpt>
      <trkpt lat="59.848495" lon="17.5640137">
        <ele>28.9769</ele>
        <time>2013-04-24T16:28:05Z</time>
      </trkpt>
      <trkpt lat="59.8484758" lon="17.5639074">
        <ele>28.9769</ele>
        <time>2013-04-24T16:28:06Z</time>
      </trkpt>
      <trkpt lat="59.8484574" lon="17.5638018">
        <ele>28.9769</ele>
        <time>2013-04-24T16:28:07Z</time>
      </trkpt>
      <trkpt lat="59.8484404" lon="17.5636969">
        <ele>28.9769</ele>
        <time>2013-04-24T16:28:08Z</time>
      </trkpt>
      <trkpt lat="59.8484287" lon="17.5635904">
        <ele>28.9769</ele>
        <time>2013-04-24T16:28:09Z</time>
      </trkpt>
      <trkpt lat="59.8484318" lon="17.5634853">
        <ele>28.9769</ele>
        <time>2013-04-24T16:28:10Z</time>
      </trkpt>
      <trkpt lat="59.8484552" lon="17.5633956">
        <ele>29.4575</ele>
        <time>2013-04-24T16:28:11Z</time>
      </trkpt>
      <trkpt lat="59.8484938" lon="17.563335">
        <ele>29.4575</ele>
        <time>2013-04-24T16:28:12Z</time>
      </trkpt>
      <trkpt lat="59.8485364" lon="17.5632989">
        <ele>29.4575</ele>
        <time>2013-04-24T16:28:13Z</time>
      </trkpt>
      <trkpt lat="59.8485821" lon="17.5632827">
        <ele>29.4575</ele>
        <time>2013-04-24T16:28:14Z</time>
      </trkpt>
      <trkpt lat="59.8486265" lon="17.5633165">
        <ele>29.9381</ele>
        <time>2013-04-24T16:28:15Z</time>
      </trkpt>
      <trkpt lat="59.84867" lon="17.5633697">
        <ele>30.4188</ele>
        <time>2013-04-24T16:28:16Z</time>
      </trkpt>
      <trkpt lat="59.8487019" lon="17.5634454">
        <ele>30.4188</ele>
        <time>2013-04-24T16:28:17Z</time>
      </trkpt>
      <trkpt lat="59.8487311" lon="17.5635239">
        <ele>30.4188</ele>
        <time>2013-04-24T16:28:18Z</time>
      </trkpt>
      <trkpt lat="59.8487685" lon="17.5635837">
        <ele>30.4188</ele>
        <time>2013-04-24T16:28:19Z</time>
      </trkpt>
      <trkpt lat="59.8488098" lon="17.5636299">
        <ele>30.4188</ele>
        <time>2013-04-24T16:28:20Z</time>
      </trkpt>
      <trkpt lat="59.8488466" lon="17.5636838">
        <ele>30.4188</ele>
        <time>2013-04-24T16:28:21Z</time>
      </trkpt>
      <trkpt lat="59.8488751" lon="17.5637501">
        <ele>30.4188</ele>
        <time>2013-04-24T16:28:22Z</time>
      </trkpt>
      <trkpt lat="59.8496951" lon="17.5636039">
        <ele>36.1868</ele>
        <time>2013-04-24T16:32:34Z</time>
      </trkpt>
      <trkpt lat="59.8496823" lon="17.5635588">
        <ele>35.2255</ele>
        <time>2013-04-24T16:32:35Z</time>
      </trkpt>
      <trkpt lat="59.8496729" lon="17.5635126">
        <ele>34.7449</ele>
        <time>2013-04-24T16:32:36Z</time>
      </trkpt>
      <trkpt lat="59.8496646" lon="17.5634582">
        <ele>33.7834</ele>
        <time>2013-04-24T16:32:37Z</time>
      </trkpt>
      <trkpt lat="59.8496575" lon="17.563397">
        <ele>33.3029</ele>
        <time>2013-04-24T16:32:38Z</time>
      </trkpt>
      <trkpt lat="59.8496505" lon="17.5633339">
        <ele>32.8223</ele>
        <time>2013-04-24T16:32:39Z</time>
      </trkpt>
      <trkpt lat="59.8496447" lon="17.5632697">
        <ele>32.8223</ele>
        <time>2013-04-24T16:32:40Z</time>
      </trkpt>
      <trkpt lat="59.8496367" lon="17.5632039">
        <ele>32.8223</ele>
        <time>2013-04-24T16:32:41Z</time>
      </trkpt>
      <trkpt lat="59.8496245" lon="17.5631401">
        <ele>32.3416</ele>
        <time>2013-04-24T16:32:42Z</time>
      </trkpt>
      <trkpt lat="59.8496105" lon="17.5630807">
        <ele>32.3416</ele>
        <time>2013-04-24T16:32:43Z</time>
      </trkpt>
      <trkpt lat="59.8495973" lon="17.5630205">
        <ele>32.3416</ele>
        <time>2013-04-24T16:32:44Z</time>
      </trkpt>
      <trkpt lat="59.8495832" lon="17.56296">
        <ele>32.3416</ele>
        <time>2013-04-24T16:32:45Z</time>
      </trkpt>
      <trkpt lat="59.8495663" lon="17.5629018">
        <ele>32.3416</ele>
        <time>2013-04-24T16:32:46Z</time>
      </trkpt>
      <trkpt lat="59.849546" lon="17.5628517">
        <ele>31.8607</ele>
        <time>2013-04-24T16:32:47Z</time>
      </trkpt>
      <trkpt lat="59.8495195" lon="17.5628186">
        <ele>31.8607</ele>
        <time>2013-04-24T16:32:48Z</time>
      </trkpt>
      <trkpt lat="59.8494895" lon="17.562804">
        <ele>31.8607</ele>
        <time>2013-04-24T16:32:49Z</time>
      </trkpt>
      <trkpt lat="59.8494591" lon="17.5627935">
        <ele>31.8607</ele>
        <time>2013-04-24T16:32:50Z</time>
      </trkpt>
      <trkpt lat="59.8494313" lon="17.5627734">
        <ele>31.8607</ele>
        <time>2013-04-24T16:32:51Z</time>
      </trkpt>
      <trkpt lat="59.8494116" lon="17.5627358">
        <ele>31.8607</ele>
        <time>2013-04-24T16:32:52Z</time>
      </trkpt>
      <trkpt lat="59.8493969" lon="17.56269">
        <ele>31.3801</ele>
        <time>2013-04-24T16:32:53Z</time>
      </trkpt>
      <trkpt lat="59.8493755" lon="17.5626559">
        <ele>31.3801</ele>
        <time>2013-04-24T16:32:54Z</time>
      </trkpt>
      <trkpt lat="59.8493446" lon="17.5626465">
        <ele>31.3801</ele>
        <time>2013-04-24T16:32:55Z</time>
      </trkpt>
      <trkpt lat="59.8493088" lon="17.5626559">
        <ele>31.3801</ele>
        <time>2013-04-24T16:32:56Z</time>
      </trkpt>
      <trkpt lat="59.8492705" lon="17.5626765">
        <ele>30.8995</ele>
        <time>2013-04-24T16:32:57Z</time>
      </trkpt>
      <trkpt lat="59.8492305" lon="17.5627056">
        <ele>30.8995</ele>
        <time>2013-04-24T16:32:58Z</time>
      </trkpt>
      <trkpt lat="59.8491904" lon="17.5627397">
        <ele>30.8995</ele>
        <time>2013-04-24T16:32:59Z</time>
      </trkpt>
      <trkpt lat="59.8491511" lon="17.5627778">
        <ele>30.8995</ele>
        <time>2013-04-24T16:33:00Z</time>
      </trkpt>
      <trkpt lat="59.8491122" lon="17.5628169">
        <ele>30.8995</ele>
        <time>2013-04-24T16:33:01Z</time>
      </trkpt>
      <trkpt lat="59.8490725" lon="17.5628515">
        <ele>30.8995</ele>
        <time>2013-04-24T16:33:02Z</time>
      </trkpt>
      <trkpt lat="59.8490319" lon="17.5628745">
        <ele>30.4188</ele>
        <time>2013-04-24T16:33:03Z</time>
      </trkpt>
      <trkpt lat="59.8489916" lon="17.5628788">
        <ele>30.4188</ele>
        <time>2013-04-24T16:33:04Z</time>
      </trkpt>
      <trkpt lat="59.8489543" lon="17.5628662">
        <ele>30.8995</ele>
        <time>2013-04-24T16:33:05Z</time>
      </trkpt>
      <trkpt lat="59.8489223" lon="17.5628436">
        <ele>30.8995</ele>
        <time>2013-04-24T16:33:06Z</time>
      </trkpt>
      <trkpt lat="59.8488937" lon="17.5628223">
        <ele>30.8995</ele>
        <time>2013-04-24T16:33:07Z</time>
      </trkpt>
      <trkpt lat="59.8488642" lon="17.562822">
        <ele>30.8995</ele>
        <time>2013-04-24T16:33:08Z</time>
      </trkpt>
      <trkpt lat="59.8488338" lon="17.5628454">
        <ele>30.8995</ele>
        <time>2013-04-24T16:33:09Z</time>
      </trkpt>
      <trkpt lat="59.8488042" lon="17.5628792">
        <ele>30.8995</ele>
        <time>2013-04-24T16:33:10Z</time>
      </trkpt>
      <trkpt lat="59.8487752" lon="17.562918">
        <ele>30.4188</ele>
        <time>2013-04-24T16:33:11Z</time>
      </trkpt>
      <trkpt lat="59.8487447" lon="17.5629565">
        <ele>30.4188</ele>
        <time>2013-04-24T16:33:12Z</time>
      </trkpt>
      <trkpt lat="59.8487113" lon="17.5629899">
        <ele>30.4188</ele>
        <time>2013-04-24T16:33:13Z</time>
      </trkpt>
      <trkpt lat="59.8486762" lon="17.5630179">
        <ele>29.9381</ele>
        <time>2013-04-24T16:33:14Z</time>
      </trkpt>
      <trkpt lat="59.8486418" lon="17.5630456">
        <ele>29.9381</ele>
        <time>2013-04-24T16:33:15Z</time>
      </trkpt>
      <trkpt lat="59.8486077" lon="17.5630744">
        <ele>29.9381</ele>
        <time>2013-04-24T16:33:16Z</time>
      </trkpt>
      <trkpt lat="59.8485732" lon="17.5631039">
        <ele>29.9381</ele>
        <time>2013-04-24T16:33:17Z</time>
      </trkpt>
      <trkpt lat="59.8485385" lon="17.5631361">
        <ele>29.9381</ele>
        <time>2013-04-24T16:33:18Z</time>
      </trkpt>
      <trkpt lat="59.848503" lon="17.5631675">
        <ele>29.4575</ele>
        <time>2013-04-24T16:33:19Z</time>
      </trkpt>
      <trkpt lat="59.8484692" lon="17.5631967">
        <ele>29.4575</ele>
        <time>2013-04-24T16:33:20Z</time>
      </trkpt>
      <trkpt lat="59.8484393" lon="17.563222">
        <ele>29.4575</ele>
        <time>2013-04-24T16:33:21Z</time>
      </trkpt>
      <trkpt lat="59.8484125" lon="17.5632345">
        <ele>29.4575</ele>
        <time>2013-04-24T16:33:22Z</time>
      </trkpt>
      <trkpt lat="59.8483867" lon="17.5632324">
        <ele>29.4575</ele>
        <time>2013-04-24T16:33:23Z</time>
      </trkpt>
      <trkpt lat="59.8483634" lon="17.5632193">
        <ele>29.4575</ele>
        <time>2013-04-24T16:33:24Z</time>
      </trkpt>
      <trkpt lat="59.8483428" lon="17.5632027">
        <ele>29.4575</ele>
        <time>2013-04-24T16:33:25Z</time>
      </trkpt>
      <trkpt lat="59.8483226" lon="17.5631916">
        <ele>29.4575</ele>
        <time>2013-04-24T16:33:26Z</time>
      </trkpt>
      <trkpt lat="59.8482998" lon="17.5631858">
        <ele>29.9381</ele>
        <time>2013-04-24T16:33:27Z</time>
      </trkpt>
      <trkpt lat="59.848273" lon="17.5631813">
        <ele>29.9381</ele>
        <time>2013-04-24T16:33:28Z</time>
      </trkpt>
      <trkpt lat="59.8482391" lon="17.5631693">
        <ele>29.9381</ele>
        <time>2013-04-24T16:33:29Z</time>
      </trkpt>
      <trkpt lat="59.8482008" lon="17.5631442">
        <ele>29.9381</ele>
        <time>2013-04-24T16:33:30Z</time>
      </trkpt>
      <trkpt lat="59.848163" lon="17.5631061">
        <ele>29.9381</ele>
        <time>2013-04-24T16:33:31Z</time>
      </trkpt>
      <trkpt lat="59.8481295" lon="17.5630542">
        <ele>29.9381</ele>
        <time>2013-04-24T16:33:32Z</time>
      </trkpt>
      <trkpt lat="59.8481007" lon="17.5629909">
        <ele>29.9381</ele>
        <time>2013-04-24T16:33:33Z</time>
      </trkpt>
      <trkpt lat="59.8480772" lon="17.5629194">
        <ele>29.9381</ele>
        <time>2013-04-24T16:33:34Z</time>
      </trkpt>
      <trkpt lat="59.8480593" lon="17.5628486">
        <ele>29.9381</ele>
        <time>2013-04-24T16:33:35Z</time>
      </trkpt>
      <trkpt lat="59.8480474" lon="17.5627838">
        <ele>29.9381</ele>
        <time>2013-04-24T16:33:36Z</time>
      </trkpt>
      <trkpt lat="59.8480417" lon="17.5627206">
        <ele>29.9381</ele>
        <time>2013-04-24T16:33:37Z</time>
      </trkpt>
      <trkpt lat="59.8480386" lon="17.5626532">
        <ele>29.9381</ele>
        <time>2013-04-24T16:33:38Z</time>
      </trkpt>
      <trkpt lat="59.8480332" lon="17.5625792">
        <ele>29.9381</ele>
        <time>2013-04-24T16:33:39Z</time>
      </trkpt>
      <trkpt lat="59.8480199" lon="17.5625005">
        <ele>29.9381</ele>
        <time>2013-04-24T16:33:40Z</time>
      </trkpt>
      <trkpt lat="59.8479975" lon="17.5624203">
        <ele>29.9381</ele>
        <time>2013-04-24T16:33:41Z</time>
      </trkpt>
      <trkpt lat="59.8479686" lon="17.5623377">
        <ele>29.9381</ele>
        <time>2013-04-24T16:33:42Z</time>
      </trkpt>
      <trkpt lat="59.8479371" lon="17.5622489">
        <ele>30.4188</ele>
        <time>2013-04-24T16:33:43Z</time>
      </trkpt>
      <trkpt lat="59.8479065" lon="17.5621525">
        <ele>30.4188</ele>
        <time>2013-04-24T16:33:44Z</time>
      </trkpt>
      <trkpt lat="59.8478793" lon="17.5620503">
        <ele>30.4188</ele>
        <time>2013-04-24T16:33:45Z</time>
      </trkpt>
      <trkpt lat="59.847854" lon="17.5619431">
        <ele>30.4188</ele>
        <time>2013-04-24T16:33:46Z</time>
      </trkpt>
      <trkpt lat="59.8478297" lon="17.5618321">
        <ele>30.4188</ele>
        <time>2013-04-24T16:33:47Z</time>
      </trkpt>
      <trkpt lat="59.8478063" lon="17.5617192">
        <ele>30.4188</ele>
        <time>2013-04-24T16:33:48Z</time>
      </trkpt>
      <trkpt lat="59.8477827" lon="17.561606">
        <ele>30.4188</ele>
        <time>2013-04-24T16:33:49Z</time>
      </trkpt>
      <trkpt lat="59.8477592" lon="17.561492">
        <ele>30.4188</ele>
        <time>2013-04-24T16:33:50Z</time>
      </trkpt>
      <trkpt lat="59.8477355" lon="17.5613768">
        <ele>30.4188</ele>
        <time>2013-04-24T16:33:51Z</time>
      </trkpt>
      <trkpt lat="59.8477117" lon="17.5612619">
        <ele>30.4188</ele>
        <time>2013-04-24T16:33:52Z</time>
      </trkpt>
      <trkpt lat="59.847688" lon="17.5611473">
        <ele>30.4188</ele>
        <time>2013-04-24T16:33:53Z</time>
      </trkpt>
      <trkpt lat="59.847665" lon="17.5610319">
        <ele>30.4188</ele>
        <time>2013-04-24T16:33:54Z</time>
      </trkpt>
      <trkpt lat="59.8476424" lon="17.5609154">
        <ele>30.4188</ele>
        <time>2013-04-24T16:33:55Z</time>
      </trkpt>
      <trkpt lat="59.8476196" lon="17.5607981">
        <ele>29.9381</ele>
        <time>2013-04-24T16:33:56Z</time>
      </trkpt>
      <trkpt lat="59.8475958" lon="17.5606801">
        <ele>29.9381</ele>
        <time>2013-04-24T16:33:57Z</time>
      </trkpt>
      <trkpt lat="59.8475716" lon="17.5605614">
        <ele>29.9381</ele>
        <time>2013-04-24T16:33:58Z</time>
      </trkpt>
      <trkpt lat="59.8475473" lon="17.5604425">
        <ele>29.9381</ele>
        <time>2013-04-24T16:33:59Z</time>
      </trkpt>
      <trkpt lat="59.8475222" lon="17.5603249">
        <ele>29.9381</ele>
        <time>2013-04-24T16:34:00Z</time>
      </trkpt>
      <trkpt lat="59.847497" lon="17.5602087">
        <ele>29.9381</ele>
        <time>2013-04-24T16:34:01Z</time>
      </trkpt>
      <trkpt lat="59.8474722" lon="17.5600929">
        <ele>29.9381</ele>
        <time>2013-04-24T16:34:02Z</time>
      </trkpt>
      <trkpt lat="59.8474478" lon="17.5599782">
        <ele>29.9381</ele>
        <time>2013-04-24T16:34:03Z</time>
      </trkpt>
      <trkpt lat="59.8474237" lon="17.559864">
        <ele>29.9381</ele>
        <time>2013-04-24T16:34:04Z</time>
      </trkpt>
      <trkpt lat="59.8473995" lon="17.5597499">
        <ele>29.9381</ele>
        <time>2013-04-24T16:34:05Z</time>
      </trkpt>
      <trkpt lat="59.8473753" lon="17.5596374">
        <ele>29.9381</ele>
        <time>2013-04-24T16:34:06Z</time>
      </trkpt>
      <trkpt lat="59.8473513" lon="17.5595272">
        <ele>29.9381</ele>
        <time>2013-04-24T16:34:07Z</time>
      </trkpt>
      <trkpt lat="59.8473279" lon="17.5594188">
        <ele>29.9381</ele>
        <time>2013-04-24T16:34:08Z</time>
      </trkpt>
      <trkpt lat="59.8473046" lon="17.559312">
        <ele>29.9381</ele>
        <time>2013-04-24T16:34:09Z</time>
      </trkpt>
      <trkpt lat="59.847281" lon="17.559208">
        <ele>29.9381</ele>
        <time>2013-04-24T16:34:10Z</time>
      </trkpt>
      <trkpt lat="59.8472579" lon="17.559105">
        <ele>29.9381</ele>
        <time>2013-04-24T16:34:11Z</time>
      </trkpt>
      <trkpt lat="59.847236" lon="17.5590008">
        <ele>29.9381</ele>
        <time>2013-04-24T16:34:12Z</time>
      </trkpt>
      <trkpt lat="59.8472135" lon="17.5588961">
        <ele>29.9381</ele>
        <time>2013-04-24T16:34:13Z</time>
      </trkpt>
      <trkpt lat="59.8471904" lon="17.5587911">
        <ele>29.9381</ele>
        <time>2013-04-24T16:34:14Z</time>
      </trkpt>
      <trkpt lat="59.8471668" lon="17.5586857">
        <ele>29.9381</ele>
        <time>2013-04-24T16:34:15Z</time>
      </trkpt>
      <trkpt lat="59.8471424" lon="17.5585802">
        <ele>29.9381</ele>
        <time>2013-04-24T16:34:16Z</time>
      </trkpt>
      <trkpt lat="59.8471189" lon="17.5584745">
        <ele>29.9381</ele>
        <time>2013-04-24T16:34:17Z</time>
      </trkpt>
      <trkpt lat="59.8470959" lon="17.5583689">
        <ele>29.9381</ele>
        <time>2013-04-24T16:34:18Z</time>
      </trkpt>
      <trkpt lat="59.8470724" lon="17.5582652">
        <ele>29.9381</ele>
        <time>2013-04-24T16:34:19Z</time>
      </trkpt>
      <trkpt lat="59.847049" lon="17.5581639">
        <ele>29.9381</ele>
        <time>2013-04-24T16:34:20Z</time>
      </trkpt>
      <trkpt lat="59.8470259" lon="17.5580643">
        <ele>29.9381</ele>
        <time>2013-04-24T16:34:21Z</time>
      </trkpt>
      <trkpt lat="59.8470032" lon="17.5579652">
        <ele>29.9381</ele>
        <time>2013-04-24T16:34:22Z</time>
      </trkpt>
      <trkpt lat="59.8469808" lon="17.5578669">
        <ele>29.9381</ele>
        <time>2013-04-24T16:34:23Z</time>
      </trkpt>
      <trkpt lat="59.846959" lon="17.5577701">
        <ele>29.9381</ele>
        <time>2013-04-24T16:34:24Z</time>
      </trkpt>
      <trkpt lat="59.8469376" lon="17.5576742">
        <ele>29.4575</ele>
        <time>2013-04-24T16:34:25Z</time>
      </trkpt>
      <trkpt lat="59.8469164" lon="17.5575794">
        <ele>29.9381</ele>
        <time>2013-04-24T16:34:26Z</time>
      </trkpt>
      <trkpt lat="59.8468952" lon="17.557485">
        <ele>29.4575</ele>
        <time>2013-04-24T16:34:27Z</time>
      </trkpt>
      <trkpt lat="59.8468731" lon="17.5573913">
        <ele>29.4575</ele>
        <time>2013-04-24T16:34:28Z</time>
      </trkpt>
      <trkpt lat="59.8468511" lon="17.5572971">
        <ele>29.4575</ele>
        <time>2013-04-24T16:34:29Z</time>
      </trkpt>
      <trkpt lat="59.8468288" lon="17.5572014">
        <ele>29.4575</ele>
        <time>2013-04-24T16:34:30Z</time>
      </trkpt>
      <trkpt lat="59.8468062" lon="17.5571043">
        <ele>29.4575</ele>
        <time>2013-04-24T16:34:31Z</time>
      </trkpt>
      <trkpt lat="59.8467834" lon="17.557006">
        <ele>29.4575</ele>
        <time>2013-04-24T16:34:32Z</time>
      </trkpt>
      <trkpt lat="59.8467602" lon="17.556908">
        <ele>29.4575</ele>
        <time>2013-04-24T16:34:33Z</time>
      </trkpt>
      <trkpt lat="59.8467367" lon="17.5568101">
        <ele>29.4575</ele>
        <time>2013-04-24T16:34:34Z</time>
      </trkpt>
      <trkpt lat="59.8467134" lon="17.5567123">
        <ele>29.4575</ele>
        <time>2013-04-24T16:34:35Z</time>
      </trkpt>
      <trkpt lat="59.8466905" lon="17.5566153">
        <ele>29.4575</ele>
        <time>2013-04-24T16:34:36Z</time>
      </trkpt>
      <trkpt lat="59.846668" lon="17.5565192">
        <ele>29.4575</ele>
        <time>2013-04-24T16:34:37Z</time>
      </trkpt>
      <trkpt lat="59.8466458" lon="17.5564241">
        <ele>29.4575</ele>
        <time>2013-04-24T16:34:38Z</time>
      </trkpt>
      <trkpt lat="59.8466229" lon="17.5563314">
        <ele>29.4575</ele>
        <time>2013-04-24T16:34:39Z</time>
      </trkpt>
      <trkpt lat="59.8466002" lon="17.5562415">
        <ele>29.4575</ele>
        <time>2013-04-24T16:34:40Z</time>
      </trkpt>
      <trkpt lat="59.8465788" lon="17.5561523">
        <ele>29.4575</ele>
        <time>2013-04-24T16:34:41Z</time>
      </trkpt>
      <trkpt lat="59.8465575" lon="17.556064">
        <ele>29.4575</ele>
        <time>2013-04-24T16:34:42Z</time>
      </trkpt>
      <trkpt lat="59.8465363" lon="17.5559767">
        <ele>29.4575</ele>
        <time>2013-04-24T16:34:43Z</time>
      </trkpt>
      <trkpt lat="59.8465152" lon="17.55589">
        <ele>29.9381</ele>
        <time>2013-04-24T16:34:44Z</time>
      </trkpt>
      <trkpt lat="59.8464949" lon="17.5558045">
        <ele>29.9381</ele>
        <time>2013-04-24T16:34:45Z</time>
      </trkpt>
      <trkpt lat="59.8464745" lon="17.5557218">
        <ele>29.9381</ele>
        <time>2013-04-24T16:34:46Z</time>
      </trkpt>
      <trkpt lat="59.846454" lon="17.5556403">
        <ele>29.9381</ele>
        <time>2013-04-24T16:34:47Z</time>
      </trkpt>
      <trkpt lat="59.8464343" lon="17.5555598">
        <ele>29.9381</ele>
        <time>2013-04-24T16:34:48Z</time>
      </trkpt>
      <trkpt lat="59.846415" lon="17.5554805">
        <ele>29.9381</ele>
        <time>2013-04-24T16:34:49Z</time>
      </trkpt>
      <trkpt lat="59.846396" lon="17.5554017">
        <ele>29.9381</ele>
        <time>2013-04-24T16:34:50Z</time>
      </trkpt>
      <trkpt lat="59.8463766" lon="17.5553238">
        <ele>30.4188</ele>
        <time>2013-04-24T16:34:51Z</time>
      </trkpt>
      <trkpt lat="59.8463577" lon="17.5552454">
        <ele>30.4188</ele>
        <time>2013-04-24T16:34:52Z</time>
      </trkpt>
      <trkpt lat="59.846339" lon="17.555167">
        <ele>30.4188</ele>
        <time>2013-04-24T16:34:53Z</time>
      </trkpt>
      <trkpt lat="59.8463193" lon="17.5550893">
        <ele>30.4188</ele>
        <time>2013-04-24T16:34:54Z</time>
      </trkpt>
      <trkpt lat="59.8462994" lon="17.5550111">
        <ele>30.4188</ele>
        <time>2013-04-24T16:34:55Z</time>
      </trkpt>
      <trkpt lat="59.8462794" lon="17.5549317">
        <ele>30.4188</ele>
        <time>2013-04-24T16:34:56Z</time>
      </trkpt>
      <trkpt lat="59.8462587" lon="17.5548519">
        <ele>30.8995</ele>
        <time>2013-04-24T16:34:57Z</time>
      </trkpt>
      <trkpt lat="59.8462385" lon="17.5547718">
        <ele>30.8995</ele>
        <time>2013-04-24T16:34:58Z</time>
      </trkpt>
      <trkpt lat="59.8462188" lon="17.5546931">
        <ele>30.8995</ele>
        <time>2013-04-24T16:34:59Z</time>
      </trkpt>
      <trkpt lat="59.8461987" lon="17.5546188">
        <ele>31.3801</ele>
        <time>2013-04-24T16:35:00Z</time>
      </trkpt>
      <trkpt lat="59.84618" lon="17.5545492">
        <ele>31.3801</ele>
        <time>2013-04-24T16:35:01Z</time>
      </trkpt>
      <trkpt lat="59.8461629" lon="17.5544846">
        <ele>31.3801</ele>
        <time>2013-04-24T16:35:02Z</time>
      </trkpt>
      <trkpt lat="59.8461468" lon="17.5544206">
        <ele>31.3801</ele>
        <time>2013-04-24T16:35:03Z</time>
      </trkpt>
      <trkpt lat="59.8461307" lon="17.5543532">
        <ele>31.3801</ele>
        <time>2013-04-24T16:35:04Z</time>
      </trkpt>
      <trkpt lat="59.8461137" lon="17.5542811">
        <ele>31.3801</ele>
        <time>2013-04-24T16:35:05Z</time>
      </trkpt>
      <trkpt lat="59.846095" lon="17.554204">
        <ele>31.8607</ele>
        <time>2013-04-24T16:35:06Z</time>
      </trkpt>
      <trkpt lat="59.8460746" lon="17.5541247">
        <ele>31.8607</ele>
        <time>2013-04-24T16:35:07Z</time>
      </trkpt>
      <trkpt lat="59.8460528" lon="17.5540439">
        <ele>31.8607</ele>
        <time>2013-04-24T16:35:08Z</time>
      </trkpt>
      <trkpt lat="59.8460308" lon="17.5539606">
        <ele>32.3416</ele>
        <time>2013-04-24T16:35:09Z</time>
      </trkpt>
      <trkpt lat="59.8460095" lon="17.5538749">
        <ele>32.3416</ele>
        <time>2013-04-24T16:35:10Z</time>
      </trkpt>
      <trkpt lat="59.8459888" lon="17.5537858">
        <ele>32.3416</ele>
        <time>2013-04-24T16:35:11Z</time>
      </trkpt>
      <trkpt lat="59.8459676" lon="17.5536944">
        <ele>32.3416</ele>
        <time>2013-04-24T16:35:12Z</time>
      </trkpt>
      <trkpt lat="59.8459451" lon="17.5536016">
        <ele>32.3416</ele>
        <time>2013-04-24T16:35:13Z</time>
      </trkpt>
      <trkpt lat="59.8459214" lon="17.5535058">
        <ele>32.3416</ele>
        <time>2013-04-24T16:35:14Z</time>
      </trkpt>
      <trkpt lat="59.8458975" lon="17.5534098">
        <ele>32.3416</ele>
        <time>2013-04-24T16:35:15Z</time>
      </trkpt>
      <trkpt lat="59.8458747" lon="17.5533153">
        <ele>32.3416</ele>
        <time>2013-04-24T16:35:16Z</time>
      </trkpt>
      <trkpt lat="59.8458515" lon="17.5532207">
        <ele>32.3416</ele>
        <time>2013-04-24T16:35:17Z</time>
      </trkpt>
      <trkpt lat="59.8458273" lon="17.5531252">
        <ele>32.8223</ele>
        <time>2013-04-24T16:35:18Z</time>
      </trkpt>
      <trkpt lat="59.8458032" lon="17.5530291">
        <ele>32.8223</ele>
        <time>2013-04-24T16:35:19Z</time>
      </trkpt>
      <trkpt lat="59.8457794" lon="17.5529322">
        <ele>32.8223</ele>
        <time>2013-04-24T16:35:20Z</time>
      </trkpt>
      <trkpt lat="59.8457551" lon="17.5528335">
        <ele>32.8223</ele>
        <time>2013-04-24T16:35:21Z</time>
      </trkpt>
      <trkpt lat="59.8457308" lon="17.5527335">
        <ele>32.8223</ele>
        <time>2013-04-24T16:35:22Z</time>
      </trkpt>
      <trkpt lat="59.8457073" lon="17.552633">
        <ele>32.8223</ele>
        <time>2013-04-24T16:35:23Z</time>
      </trkpt>
      <trkpt lat="59.845685" lon="17.5525313">
        <ele>32.8223</ele>
        <time>2013-04-24T16:35:24Z</time>
      </trkpt>
      <trkpt lat="59.8456636" lon="17.5524267">
        <ele>32.8223</ele>
        <time>2013-04-24T16:35:25Z</time>
      </trkpt>
      <trkpt lat="59.8456428" lon="17.5523185">
        <ele>32.3416</ele>
        <time>2013-04-24T16:35:26Z</time>
      </trkpt>
      <trkpt lat="59.8456224" lon="17.5522067">
        <ele>32.3416</ele>
        <time>2013-04-24T16:35:27Z</time>
      </trkpt>
      <trkpt lat="59.845603" lon="17.552094">
        <ele>32.3416</ele>
        <time>2013-04-24T16:35:28Z</time>
      </trkpt>
      <trkpt lat="59.8455863" lon="17.5519828">
        <ele>32.3416</ele>
        <time>2013-04-24T16:35:29Z</time>
      </trkpt>
      <trkpt lat="59.8455744" lon="17.5518747">
        <ele>32.3416</ele>
        <time>2013-04-24T16:35:30Z</time>
      </trkpt>
      <trkpt lat="59.8455676" lon="17.5517754">
        <ele>32.3416</ele>
        <time>2013-04-24T16:35:31Z</time>
      </trkpt>
      <trkpt lat="59.8455634" lon="17.5516891">
        <ele>32.3416</ele>
        <time>2013-04-24T16:35:32Z</time>
      </trkpt>
      <trkpt lat="59.8455626" lon="17.5516188">
        <ele>32.3416</ele>
        <time>2013-04-24T16:35:33Z</time>
      </trkpt>
      <trkpt lat="59.845564" lon="17.5515634">
        <ele>32.3416</ele>
        <time>2013-04-24T16:35:34Z</time>
      </trkpt>
      <trkpt lat="59.8455737" lon="17.551527">
        <ele>31.8607</ele>
        <time>2013-04-24T16:35:35Z</time>
      </trkpt>
      <trkpt lat="59.845592" lon="17.5515193">
        <ele>31.8607</ele>
        <time>2013-04-24T16:35:36Z</time>
      </trkpt>
      <trkpt lat="59.8456087" lon="17.5515377">
        <ele>32.3416</ele>
        <time>2013-04-24T16:35:37Z</time>
      </trkpt>
      <trkpt lat="59.845626" lon="17.5515639">
        <ele>32.3416</ele>
        <time>2013-04-24T16:35:38Z</time>
      </trkpt>
      <trkpt lat="59.8456494" lon="17.5515768">
        <ele>32.3416</ele>
        <time>2013-04-24T16:35:39Z</time>
      </trkpt>
      <trkpt lat="59.8456718" lon="17.5515554">
        <ele>32.8223</ele>
        <time>2013-04-24T16:35:40Z</time>
      </trkpt>
      <trkpt lat="59.8456836" lon="17.5515026">
        <ele>32.8223</ele>
        <time>2013-04-24T16:35:41Z</time>
      </trkpt>
      <trkpt lat="59.845691" lon="17.5514392">
        <ele>32.8223</ele>
        <time>2013-04-24T16:35:42Z</time>
      </trkpt>
      <trkpt lat="59.8457018" lon="17.5513742">
        <ele>32.8223</ele>
        <time>2013-04-24T16:35:43Z</time>
      </trkpt>
      <trkpt lat="59.8457163" lon="17.5513094">
        <ele>32.8223</ele>
        <time>2013-04-24T16:35:44Z</time>
      </trkpt>
      <trkpt lat="59.8457324" lon="17.5512429">
        <ele>32.8223</ele>
        <time>2013-04-24T16:35:45Z</time>
      </trkpt>
      <trkpt lat="59.8457493" lon="17.5511746">
        <ele>32.8223</ele>
        <time>2013-04-24T16:35:46Z</time>
      </trkpt>
      <trkpt lat="59.8457679" lon="17.5511064">
        <ele>32.8223</ele>
        <time>2013-04-24T16:35:47Z</time>
      </trkpt>
      <trkpt lat="59.8457886" lon="17.5510395">
        <ele>32.8223</ele>
        <time>2013-04-24T16:35:48Z</time>
      </trkpt>
      <trkpt lat="59.8458097" lon="17.5509717">
        <ele>32.8223</ele>
        <time>2013-04-24T16:35:49Z</time>
      </trkpt>
      <trkpt lat="59.8458319" lon="17.5509031">
        <ele>32.8223</ele>
        <time>2013-04-24T16:35:50Z</time>
      </trkpt>
      <trkpt lat="59.8458545" lon="17.550833">
        <ele>32.8223</ele>
        <time>2013-04-24T16:35:51Z</time>
      </trkpt>
      <trkpt lat="59.8458781" lon="17.5507582">
        <ele>32.8223</ele>
        <time>2013-04-24T16:35:52Z</time>
      </trkpt>
      <trkpt lat="59.8459044" lon="17.5506827">
        <ele>32.8223</ele>
        <time>2013-04-24T16:35:53Z</time>
      </trkpt>
      <trkpt lat="59.8459328" lon="17.5506082">
        <ele>32.8223</ele>
        <time>2013-04-24T16:35:54Z</time>
      </trkpt>
      <trkpt lat="59.8459625" lon="17.550531">
        <ele>32.8223</ele>
        <time>2013-04-24T16:35:55Z</time>
      </trkpt>
      <trkpt lat="59.8459938" lon="17.5504514">
        <ele>32.8223</ele>
        <time>2013-04-24T16:35:56Z</time>
      </trkpt>
      <trkpt lat="59.8460251" lon="17.5503698">
        <ele>32.8223</ele>
        <time>2013-04-24T16:35:57Z</time>
      </trkpt>
      <trkpt lat="59.8460562" lon="17.5502858">
        <ele>32.8223</ele>
        <time>2013-04-24T16:35:58Z</time>
      </trkpt>
      <trkpt lat="59.8460882" lon="17.5501996">
        <ele>32.8223</ele>
        <time>2013-04-24T16:35:59Z</time>
      </trkpt>
      <trkpt lat="59.8461205" lon="17.5501103">
        <ele>32.8223</ele>
        <time>2013-04-24T16:36:00Z</time>
      </trkpt>
      <trkpt lat="59.846153" lon="17.5500169">
        <ele>32.8223</ele>
        <time>2013-04-24T16:36:01Z</time>
      </trkpt>
      <trkpt lat="59.8461872" lon="17.5499201">
        <ele>32.3416</ele>
        <time>2013-04-24T16:36:02Z</time>
      </trkpt>
      <trkpt lat="59.8462248" lon="17.5498197">
        <ele>32.3416</ele>
        <time>2013-04-24T16:36:03Z</time>
      </trkpt>
      <trkpt lat="59.8462645" lon="17.549716">
        <ele>31.8607</ele>
        <time>2013-04-24T16:36:04Z</time>
      </trkpt>
      <trkpt lat="59.8463058" lon="17.5496109">
        <ele>31.8607</ele>
        <time>2013-04-24T16:36:05Z</time>
      </trkpt>
      <trkpt lat="59.8463486" lon="17.549505">
        <ele>31.8607</ele>
        <time>2013-04-24T16:36:06Z</time>
      </trkpt>
      <trkpt lat="59.8463956" lon="17.549403">
        <ele>31.8607</ele>
        <time>2013-04-24T16:36:07Z</time>
      </trkpt>
      <trkpt lat="59.8464465" lon="17.5493058">
        <ele>31.8607</ele>
        <time>2013-04-24T16:36:08Z</time>
      </trkpt>
      <trkpt lat="59.8464979" lon="17.5492068">
        <ele>31.3801</ele>
        <time>2013-04-24T16:36:09Z</time>
      </trkpt>
      <trkpt lat="59.8465489" lon="17.5491031">
        <ele>31.3801</ele>
        <time>2013-04-24T16:36:10Z</time>
      </trkpt>
      <trkpt lat="59.8465979" lon="17.5489928">
        <ele>31.3801</ele>
        <time>2013-04-24T16:36:11Z</time>
      </trkpt>
      <trkpt lat="59.8466431" lon="17.5488758">
        <ele>31.3801</ele>
        <time>2013-04-24T16:36:12Z</time>
      </trkpt>
      <trkpt lat="59.846685" lon="17.548754">
        <ele>30.8995</ele>
        <time>2013-04-24T16:36:13Z</time>
      </trkpt>
      <trkpt lat="59.8467243" lon="17.5486283">
        <ele>30.8995</ele>
        <time>2013-04-24T16:36:14Z</time>
      </trkpt>
      <trkpt lat="59.8467621" lon="17.5485023">
        <ele>30.8995</ele>
        <time>2013-04-24T16:36:15Z</time>
      </trkpt>
      <trkpt lat="59.846799" lon="17.548377">
        <ele>30.8995</ele>
        <time>2013-04-24T16:36:16Z</time>
      </trkpt>
      <trkpt lat="59.8468347" lon="17.5482536">
        <ele>30.8995</ele>
        <time>2013-04-24T16:36:17Z</time>
      </trkpt>
      <trkpt lat="59.8468709" lon="17.5481347">
        <ele>30.8995</ele>
        <time>2013-04-24T16:36:18Z</time>
      </trkpt>
      <trkpt lat="59.8469086" lon="17.54802">
        <ele>30.8995</ele>
        <time>2013-04-24T16:36:19Z</time>
      </trkpt>
      <trkpt lat="59.8469454" lon="17.5479065">
        <ele>30.4188</ele>
        <time>2013-04-24T16:36:20Z</time>
      </trkpt>
      <trkpt lat="59.8469799" lon="17.5477919">
        <ele>30.4188</ele>
        <time>2013-04-24T16:36:21Z</time>
      </trkpt>
      <trkpt lat="59.8470137" lon="17.5476769">
        <ele>30.4188</ele>
        <time>2013-04-24T16:36:22Z</time>
      </trkpt>
      <trkpt lat="59.847047" lon="17.5475609">
        <ele>30.4188</ele>
        <time>2013-04-24T16:36:23Z</time>
      </trkpt>
      <trkpt lat="59.8470796" lon="17.5474433">
        <ele>30.4188</ele>
        <time>2013-04-24T16:36:24Z</time>
      </trkpt>
      <trkpt lat="59.8471114" lon="17.5473265">
        <ele>30.4188</ele>
        <time>2013-04-24T16:36:25Z</time>
      </trkpt>
      <trkpt lat="59.8471409" lon="17.5472107">
        <ele>30.4188</ele>
        <time>2013-04-24T16:36:26Z</time>
      </trkpt>
      <trkpt lat="59.8471674" lon="17.5470952">
        <ele>30.4188</ele>
        <time>2013-04-24T16:36:27Z</time>
      </trkpt>
      <trkpt lat="59.847192" lon="17.5469793">
        <ele>30.4188</ele>
        <time>2013-04-24T16:36:28Z</time>
      </trkpt>
      <trkpt lat="59.8472147" lon="17.5468628">
        <ele>30.4188</ele>
        <time>2013-04-24T16:36:29Z</time>
      </trkpt>
      <trkpt lat="59.8472361" lon="17.5467467">
        <ele>30.4188</ele>
        <time>2013-04-24T16:36:30Z</time>
      </trkpt>
      <trkpt lat="59.8472574" lon="17.5466303">
        <ele>30.4188</ele>
        <time>2013-04-24T16:36:31Z</time>
      </trkpt>
      <trkpt lat="59.8472793" lon="17.5465136">
        <ele>30.4188</ele>
        <time>2013-04-24T16:36:32Z</time>
      </trkpt>
      <trkpt lat="59.8473002" lon="17.5463947">
        <ele>30.4188</ele>
        <time>2013-04-24T16:36:33Z</time>
      </trkpt>
      <trkpt lat="59.8473206" lon="17.5462759">
        <ele>30.4188</ele>
        <time>2013-04-24T16:36:34Z</time>
      </trkpt>
      <trkpt lat="59.8473423" lon="17.5461562">
        <ele>30.4188</ele>
        <time>2013-04-24T16:36:35Z</time>
      </trkpt>
      <trkpt lat="59.8473642" lon="17.5460345">
        <ele>30.4188</ele>
        <time>2013-04-24T16:36:36Z</time>
      </trkpt>
      <trkpt lat="59.8473858" lon="17.5459098">
        <ele>29.9381</ele>
        <time>2013-04-24T16:36:37Z</time>
      </trkpt>
      <trkpt lat="59.8474075" lon="17.5457834">
        <ele>29.9381</ele>
        <time>2013-04-24T16:36:38Z</time>
      </trkpt>
      <trkpt lat="59.8474295" lon="17.5456573">
        <ele>29.9381</ele>
        <time>2013-04-24T16:36:39Z</time>
      </trkpt>
      <trkpt lat="59.8474518" lon="17.5455326">
        <ele>29.9381</ele>
        <time>2013-04-24T16:36:40Z</time>
      </trkpt>
      <trkpt lat="59.8474724" lon="17.5454097">
        <ele>30.4188</ele>
        <time>2013-04-24T16:36:41Z</time>
      </trkpt>
      <trkpt lat="59.8474891" lon="17.5452889">
        <ele>30.4188</ele>
        <time>2013-04-24T16:36:42Z</time>
      </trkpt>
      <trkpt lat="59.847504" lon="17.5451704">
        <ele>30.4188</ele>
        <time>2013-04-24T16:36:43Z</time>
      </trkpt>
      <trkpt lat="59.847519" lon="17.5450534">
        <ele>30.4188</ele>
        <time>2013-04-24T16:36:44Z</time>
      </trkpt>
      <trkpt lat="59.8475356" lon="17.5449396">
        <ele>30.4188</ele>
        <time>2013-04-24T16:36:45Z</time>
      </trkpt>
      <trkpt lat="59.8475527" lon="17.5448285">
        <ele>30.4188</ele>
        <time>2013-04-24T16:36:46Z</time>
      </trkpt>
      <trkpt lat="59.8475693" lon="17.5447189">
        <ele>30.8995</ele>
        <time>2013-04-24T16:36:47Z</time>
      </trkpt>
      <trkpt lat="59.8475847" lon="17.5446103">
        <ele>30.8995</ele>
        <time>2013-04-24T16:36:48Z</time>
      </trkpt>
      <trkpt lat="59.8476001" lon="17.5445017">
        <ele>30.8995</ele>
        <time>2013-04-24T16:36:49Z</time>
      </trkpt>
      <trkpt lat="59.847617" lon="17.5443945">
        <ele>30.8995</ele>
        <time>2013-04-24T16:36:50Z</time>
      </trkpt>
      <trkpt lat="59.847633" lon="17.5442873">
        <ele>30.4188</ele>
        <time>2013-04-24T16:36:51Z</time>
      </trkpt>
      <trkpt lat="59.847649" lon="17.5441806">
        <ele>30.4188</ele>
        <time>2013-04-24T16:36:52Z</time>
      </trkpt>
      <trkpt lat="59.847666" lon="17.5440744">
        <ele>30.4188</ele>
        <time>2013-04-24T16:36:53Z</time>
      </trkpt>
      <trkpt lat="59.8476827" lon="17.5439688">
        <ele>30.4188</ele>
        <time>2013-04-24T16:36:54Z</time>
      </trkpt>
      <trkpt lat="59.8476998" lon="17.543864">
        <ele>30.4188</ele>
        <time>2013-04-24T16:36:55Z</time>
      </trkpt>
      <trkpt lat="59.8477175" lon="17.5437597">
        <ele>30.4188</ele>
        <time>2013-04-24T16:36:56Z</time>
      </trkpt>
      <trkpt lat="59.8477362" lon="17.543657">
        <ele>30.4188</ele>
        <time>2013-04-24T16:36:57Z</time>
      </trkpt>
      <trkpt lat="59.8477545" lon="17.5435553">
        <ele>30.4188</ele>
        <time>2013-04-24T16:36:58Z</time>
      </trkpt>
      <trkpt lat="59.8477723" lon="17.5434533">
        <ele>30.4188</ele>
        <time>2013-04-24T16:36:59Z</time>
      </trkpt>
      <trkpt lat="59.8477914" lon="17.5433512">
        <ele>30.4188</ele>
        <time>2013-04-24T16:37:00Z</time>
      </trkpt>
      <trkpt lat="59.8478107" lon="17.5432482">
        <ele>30.4188</ele>
        <time>2013-04-24T16:37:01Z</time>
      </trkpt>
      <trkpt lat="59.8478293" lon="17.543144">
        <ele>30.4188</ele>
        <time>2013-04-24T16:37:02Z</time>
      </trkpt>
      <trkpt lat="59.8478473" lon="17.5430384">
        <ele>30.4188</ele>
        <time>2013-04-24T16:37:03Z</time>
      </trkpt>
      <trkpt lat="59.8478646" lon="17.5429305">
        <ele>30.4188</ele>
        <time>2013-04-24T16:37:04Z</time>
      </trkpt>
      <trkpt lat="59.8478812" lon="17.5428212">
        <ele>30.4188</ele>
        <time>2013-04-24T16:37:05Z</time>
      </trkpt>
      <trkpt lat="59.847899" lon="17.5427129">
        <ele>30.4188</ele>
        <time>2013-04-24T16:37:06Z</time>
      </trkpt>
      <trkpt lat="59.8479161" lon="17.5426058">
        <ele>30.4188</ele>
        <time>2013-04-24T16:37:07Z</time>
      </trkpt>
      <trkpt lat="59.8479319" lon="17.5424986">
        <ele>30.4188</ele>
        <time>2013-04-24T16:37:08Z</time>
      </trkpt>
      <trkpt lat="59.8479484" lon="17.5423927">
        <ele>30.8995</ele>
        <time>2013-04-24T16:37:09Z</time>
      </trkpt>
      <trkpt lat="59.8479646" lon="17.5422874">
        <ele>30.8995</ele>
        <time>2013-04-24T16:37:10Z</time>
      </trkpt>
      <trkpt lat="59.8479812" lon="17.5421826">
        <ele>30.8995</ele>
        <time>2013-04-24T16:37:11Z</time>
      </trkpt>
      <trkpt lat="59.8479986" lon="17.542078">
        <ele>30.8995</ele>
        <time>2013-04-24T16:37:12Z</time>
      </trkpt>
      <trkpt lat="59.8480153" lon="17.5419734">
        <ele>30.8995</ele>
        <time>2013-04-24T16:37:13Z</time>
      </trkpt>
      <trkpt lat="59.8480309" lon="17.54187">
        <ele>30.8995</ele>
        <time>2013-04-24T16:37:14Z</time>
      </trkpt>
      <trkpt lat="59.8480458" lon="17.5417664">
        <ele>30.8995</ele>
        <time>2013-04-24T16:37:15Z</time>
      </trkpt>
      <trkpt lat="59.8480613" lon="17.5416605">
        <ele>30.4188</ele>
        <time>2013-04-24T16:37:16Z</time>
      </trkpt>
      <trkpt lat="59.8480763" lon="17.5415516">
        <ele>30.4188</ele>
        <time>2013-04-24T16:37:17Z</time>
      </trkpt>
      <trkpt lat="59.8480904" lon="17.5414403">
        <ele>30.4188</ele>
        <time>2013-04-24T16:37:18Z</time>
      </trkpt>
      <trkpt lat="59.8481043" lon="17.5413309">
        <ele>30.4188</ele>
        <time>2013-04-24T16:37:19Z</time>
      </trkpt>
      <trkpt lat="59.8481172" lon="17.5412221">
        <ele>30.4188</ele>
        <time>2013-04-24T16:37:20Z</time>
      </trkpt>
      <trkpt lat="59.8481291" lon="17.5411138">
        <ele>30.4188</ele>
        <time>2013-04-24T16:37:21Z</time>
      </trkpt>
      <trkpt lat="59.8481416" lon="17.5410066">
        <ele>30.4188</ele>
        <time>2013-04-24T16:37:22Z</time>
      </trkpt>
      <trkpt lat="59.8481551" lon="17.540899">
        <ele>30.4188</ele>
        <time>2013-04-24T16:37:23Z</time>
      </trkpt>
      <trkpt lat="59.8481696" lon="17.5407914">
        <ele>30.4188</ele>
        <time>2013-04-24T16:37:24Z</time>
      </trkpt>
      <trkpt lat="59.8481839" lon="17.5406857">
        <ele>30.4188</ele>
        <time>2013-04-24T16:37:25Z</time>
      </trkpt>
      <trkpt lat="59.8481976" lon="17.5405819">
        <ele>30.8995</ele>
        <time>2013-04-24T16:37:26Z</time>
      </trkpt>
      <trkpt lat="59.8482126" lon="17.5404799">
        <ele>30.8995</ele>
        <time>2013-04-24T16:37:27Z</time>
      </trkpt>
      <trkpt lat="59.8482287" lon="17.540379">
        <ele>30.8995</ele>
        <time>2013-04-24T16:37:28Z</time>
      </trkpt>
      <trkpt lat="59.8482458" lon="17.5402793">
        <ele>30.8995</ele>
        <time>2013-04-24T16:37:29Z</time>
      </trkpt>
      <trkpt lat="59.8482635" lon="17.5401811">
        <ele>30.8995</ele>
        <time>2013-04-24T16:37:30Z</time>
      </trkpt>
      <trkpt lat="59.8482792" lon="17.5400838">
        <ele>31.3801</ele>
        <time>2013-04-24T16:37:31Z</time>
      </trkpt>
      <trkpt lat="59.8482903" lon="17.5399853">
        <ele>31.3801</ele>
        <time>2013-04-24T16:37:32Z</time>
      </trkpt>
      <trkpt lat="59.8482982" lon="17.5398862">
        <ele>31.3801</ele>
        <time>2013-04-24T16:37:33Z</time>
      </trkpt>
      <trkpt lat="59.8483067" lon="17.5397868">
        <ele>31.3801</ele>
        <time>2013-04-24T16:37:34Z</time>
      </trkpt>
      <trkpt lat="59.8483161" lon="17.5396878">
        <ele>31.3801</ele>
        <time>2013-04-24T16:37:35Z</time>
      </trkpt>
      <trkpt lat="59.8483245" lon="17.5395889">
        <ele>31.3801</ele>
        <time>2013-04-24T16:37:36Z</time>
      </trkpt>
      <trkpt lat="59.8483338" lon="17.5394898">
        <ele>31.3801</ele>
        <time>2013-04-24T16:37:37Z</time>
      </trkpt>
      <trkpt lat="59.8483458" lon="17.539391">
        <ele>31.3801</ele>
        <time>2013-04-24T16:37:38Z</time>
      </trkpt>
      <trkpt lat="59.8483587" lon="17.5392909">
        <ele>31.3801</ele>
        <time>2013-04-24T16:37:39Z</time>
      </trkpt>
      <trkpt lat="59.8483727" lon="17.5391885">
        <ele>31.3801</ele>
        <time>2013-04-24T16:37:40Z</time>
      </trkpt>
      <trkpt lat="59.8483877" lon="17.539086">
        <ele>31.3801</ele>
        <time>2013-04-24T16:37:41Z</time>
      </trkpt>
      <trkpt lat="59.8484022" lon="17.5389834">
        <ele>31.3801</ele>
        <time>2013-04-24T16:37:42Z</time>
      </trkpt>
      <trkpt lat="59.8484158" lon="17.5388789">
        <ele>31.3801</ele>
        <time>2013-04-24T16:37:43Z</time>
      </trkpt>
      <trkpt lat="59.8484303" lon="17.5387731">
        <ele>31.3801</ele>
        <time>2013-04-24T16:37:44Z</time>
      </trkpt>
      <trkpt lat="59.8484461" lon="17.5386672">
        <ele>31.3801</ele>
        <time>2013-04-24T16:37:45Z</time>
      </trkpt>
      <trkpt lat="59.8484618" lon="17.5385617">
        <ele>31.3801</ele>
        <time>2013-04-24T16:37:46Z</time>
      </trkpt>
      <trkpt lat="59.8484763" lon="17.5384581">
        <ele>31.3801</ele>
        <time>2013-04-24T16:37:47Z</time>
      </trkpt>
      <trkpt lat="59.8484902" lon="17.5383575">
        <ele>31.3801</ele>
        <time>2013-04-24T16:37:48Z</time>
      </trkpt>
      <trkpt lat="59.8485032" lon="17.5382608">
        <ele>31.3801</ele>
        <time>2013-04-24T16:37:49Z</time>
      </trkpt>
      <trkpt lat="59.8485139" lon="17.5381674">
        <ele>31.3801</ele>
        <time>2013-04-24T16:37:50Z</time>
      </trkpt>
      <trkpt lat="59.848524" lon="17.5380758">
        <ele>31.8607</ele>
        <time>2013-04-24T16:37:51Z</time>
      </trkpt>
      <trkpt lat="59.8485338" lon="17.5379847">
        <ele>31.8607</ele>
        <time>2013-04-24T16:37:52Z</time>
      </trkpt>
      <trkpt lat="59.8485435" lon="17.5378933">
        <ele>31.8607</ele>
        <time>2013-04-24T16:37:53Z</time>
      </trkpt>
      <trkpt lat="59.8485545" lon="17.5378016">
        <ele>31.8607</ele>
        <time>2013-04-24T16:37:54Z</time>
      </trkpt>
      <trkpt lat="59.8485652" lon="17.5377086">
        <ele>31.8607</ele>
        <time>2013-04-24T16:37:55Z</time>
      </trkpt>
      <trkpt lat="59.8485737" lon="17.5376158">
        <ele>32.3416</ele>
        <time>2013-04-24T16:37:56Z</time>
      </trkpt>
      <trkpt lat="59.8485828" lon="17.537525">
        <ele>32.3416</ele>
        <time>2013-04-24T16:37:57Z</time>
      </trkpt>
      <trkpt lat="59.8485923" lon="17.5374361">
        <ele>32.3416</ele>
        <time>2013-04-24T16:37:58Z</time>
      </trkpt>
      <trkpt lat="59.8486018" lon="17.5373484">
        <ele>32.3416</ele>
        <time>2013-04-24T16:37:59Z</time>
      </trkpt>
      <trkpt lat="59.8486128" lon="17.5372626">
        <ele>32.8223</ele>
        <time>2013-04-24T16:38:00Z</time>
      </trkpt>
      <trkpt lat="59.8486233" lon="17.5371785">
        <ele>32.8223</ele>
        <time>2013-04-24T16:38:01Z</time>
      </trkpt>
      <trkpt lat="59.8486326" lon="17.5370947">
        <ele>32.8223</ele>
        <time>2013-04-24T16:38:02Z</time>
      </trkpt>
      <trkpt lat="59.8486415" lon="17.5370123">
        <ele>32.8223</ele>
        <time>2013-04-24T16:38:03Z</time>
      </trkpt>
      <trkpt lat="59.8486497" lon="17.5369305">
        <ele>32.8223</ele>
        <time>2013-04-24T16:38:04Z</time>
      </trkpt>
      <trkpt lat="59.8486576" lon="17.5368497">
        <ele>32.8223</ele>
        <time>2013-04-24T16:38:05Z</time>
      </trkpt>
      <trkpt lat="59.8486655" lon="17.5367699">
        <ele>32.8223</ele>
        <time>2013-04-24T16:38:06Z</time>
      </trkpt>
      <trkpt lat="59.8486726" lon="17.5366911">
        <ele>32.8223</ele>
        <time>2013-04-24T16:38:07Z</time>
      </trkpt>
      <trkpt lat="59.8486777" lon="17.5366114">
        <ele>32.8223</ele>
        <time>2013-04-24T16:38:08Z</time>
      </trkpt>
      <trkpt lat="59.848684" lon="17.5365296">
        <ele>32.8223</ele>
        <time>2013-04-24T16:38:09Z</time>
      </trkpt>
      <trkpt lat="59.8486923" lon="17.536445">
        <ele>32.8223</ele>
        <time>2013-04-24T16:38:10Z</time>
      </trkpt>
      <trkpt lat="59.8487" lon="17.5363554">
        <ele>32.8223</ele>
        <time>2013-04-24T16:38:11Z</time>
      </trkpt>
      <trkpt lat="59.8487073" lon="17.5362618">
        <ele>32.8223</ele>
        <time>2013-04-24T16:38:12Z</time>
      </trkpt>
      <trkpt lat="59.8487144" lon="17.536167">
        <ele>32.8223</ele>
        <time>2013-04-24T16:38:13Z</time>
      </trkpt>
      <trkpt lat="59.8487203" lon="17.5360718">
        <ele>32.8223</ele>
        <time>2013-04-24T16:38:14Z</time>
      </trkpt>
      <trkpt lat="59.8487259" lon="17.5359774">
        <ele>32.8223</ele>
        <time>2013-04-24T16:38:15Z</time>
      </trkpt>
      <trkpt lat="59.8487315" lon="17.5358837">
        <ele>32.8223</ele>
        <time>2013-04-24T16:38:16Z</time>
      </trkpt>
      <trkpt lat="59.8487366" lon="17.5357904">
        <ele>32.8223</ele>
        <time>2013-04-24T16:38:17Z</time>
      </trkpt>
      <trkpt lat="59.8487421" lon="17.535694">
        <ele>32.8223</ele>
        <time>2013-04-24T16:38:18Z</time>
      </trkpt>
      <trkpt lat="59.8487488" lon="17.5355966">
        <ele>32.3416</ele>
        <time>2013-04-24T16:38:19Z</time>
      </trkpt>
      <trkpt lat="59.8487566" lon="17.5354997">
        <ele>32.3416</ele>
        <time>2013-04-24T16:38:20Z</time>
      </trkpt>
      <trkpt lat="59.8487668" lon="17.5354037">
        <ele>32.3416</ele>
        <time>2013-04-24T16:38:21Z</time>
      </trkpt>
      <trkpt lat="59.8487787" lon="17.5353096">
        <ele>32.3416</ele>
        <time>2013-04-24T16:38:22Z</time>
      </trkpt>
      <trkpt lat="59.8487906" lon="17.5352138">
        <ele>32.3416</ele>
        <time>2013-04-24T16:38:23Z</time>
      </trkpt>
      <trkpt lat="59.8488" lon="17.5351165">
        <ele>32.3416</ele>
        <time>2013-04-24T16:38:24Z</time>
      </trkpt>
      <trkpt lat="59.8488052" lon="17.5350197">
        <ele>32.3416</ele>
        <time>2013-04-24T16:38:25Z</time>
      </trkpt>
      <trkpt lat="59.8488078" lon="17.5349237">
        <ele>32.3416</ele>
        <time>2013-04-24T16:38:26Z</time>
      </trkpt>
      <trkpt lat="59.8488099" lon="17.5348274">
        <ele>32.3416</ele>
        <time>2013-04-24T16:38:27Z</time>
      </trkpt>
      <trkpt lat="59.848814" lon="17.5347319">
        <ele>32.3416</ele>
        <time>2013-04-24T16:38:28Z</time>
      </trkpt>
      <trkpt lat="59.8488193" lon="17.5346368">
        <ele>32.3416</ele>
        <time>2013-04-24T16:38:29Z</time>
      </trkpt>
      <trkpt lat="59.8488248" lon="17.5345421">
        <ele>32.3416</ele>
        <time>2013-04-24T16:38:30Z</time>
      </trkpt>
      <trkpt lat="59.8488316" lon="17.5344472">
        <ele>32.3416</ele>
        <time>2013-04-24T16:38:31Z</time>
      </trkpt>
      <trkpt lat="59.8488398" lon="17.5343549">
        <ele>32.3416</ele>
        <time>2013-04-24T16:38:32Z</time>
      </trkpt>
      <trkpt lat="59.8488482" lon="17.5342648">
        <ele>32.3416</ele>
        <time>2013-04-24T16:38:33Z</time>
      </trkpt>
      <trkpt lat="59.8488555" lon="17.5341758">
        <ele>32.3416</ele>
        <time>2013-04-24T16:38:34Z</time>
      </trkpt>
      <trkpt lat="59.8488618" lon="17.5340883">
        <ele>32.3416</ele>
        <time>2013-04-24T16:38:35Z</time>
      </trkpt>
      <trkpt lat="59.8488689" lon="17.534003">
        <ele>32.3416</ele>
        <time>2013-04-24T16:38:36Z</time>
      </trkpt>
      <trkpt lat="59.8488752" lon="17.5339184">
        <ele>32.3416</ele>
        <time>2013-04-24T16:38:37Z</time>
      </trkpt>
      <trkpt lat="59.8488808" lon="17.5338336">
        <ele>32.3416</ele>
        <time>2013-04-24T16:38:38Z</time>
      </trkpt>
      <trkpt lat="59.8488861" lon="17.5337479">
        <ele>32.3416</ele>
        <time>2013-04-24T16:38:39Z</time>
      </trkpt>
      <trkpt lat="59.8488928" lon="17.5336619">
        <ele>32.3416</ele>
        <time>2013-04-24T16:38:40Z</time>
      </trkpt>
      <trkpt lat="59.8488999" lon="17.5335746">
        <ele>32.3416</ele>
        <time>2013-04-24T16:38:41Z</time>
      </trkpt>
      <trkpt lat="59.8489068" lon="17.5334847">
        <ele>32.3416</ele>
        <time>2013-04-24T16:38:42Z</time>
      </trkpt>
      <trkpt lat="59.8489125" lon="17.533393">
        <ele>31.8607</ele>
        <time>2013-04-24T16:38:43Z</time>
      </trkpt>
      <trkpt lat="59.8489177" lon="17.5332988">
        <ele>31.8607</ele>
        <time>2013-04-24T16:38:44Z</time>
      </trkpt>
      <trkpt lat="59.8489249" lon="17.5332039">
        <ele>31.8607</ele>
        <time>2013-04-24T16:38:45Z</time>
      </trkpt>
      <trkpt lat="59.8489333" lon="17.5331092">
        <ele>31.8607</ele>
        <time>2013-04-24T16:38:46Z</time>
      </trkpt>
      <trkpt lat="59.8489409" lon="17.5330162">
        <ele>31.8607</ele>
        <time>2013-04-24T16:38:47Z</time>
      </trkpt>
      <trkpt lat="59.8489475" lon="17.5329228">
        <ele>31.8607</ele>
        <time>2013-04-24T16:38:48Z</time>
      </trkpt>
      <trkpt lat="59.8489516" lon="17.5328294">
        <ele>31.8607</ele>
        <time>2013-04-24T16:38:49Z</time>
      </trkpt>
      <trkpt lat="59.8489538" lon="17.5327375">
        <ele>31.8607</ele>
        <time>2013-04-24T16:38:50Z</time>
      </trkpt>
      <trkpt lat="59.8489542" lon="17.5326459">
        <ele>31.8607</ele>
        <time>2013-04-24T16:38:51Z</time>
      </trkpt>
      <trkpt lat="59.8489513" lon="17.532555">
        <ele>31.8607</ele>
        <time>2013-04-24T16:38:52Z</time>
      </trkpt>
      <trkpt lat="59.8489465" lon="17.5324662">
        <ele>31.8607</ele>
        <time>2013-04-24T16:38:53Z</time>
      </trkpt>
      <trkpt lat="59.8489404" lon="17.5323797">
        <ele>31.8607</ele>
        <time>2013-04-24T16:38:54Z</time>
      </trkpt>
      <trkpt lat="59.8489362" lon="17.5322939">
        <ele>31.8607</ele>
        <time>2013-04-24T16:38:55Z</time>
      </trkpt>
      <trkpt lat="59.8489361" lon="17.5322092">
        <ele>31.8607</ele>
        <time>2013-04-24T16:38:56Z</time>
      </trkpt>
      <trkpt lat="59.8489389" lon="17.5321248">
        <ele>31.8607</ele>
        <time>2013-04-24T16:38:57Z</time>
      </trkpt>
      <trkpt lat="59.848943" lon="17.5320401">
        <ele>31.8607</ele>
        <time>2013-04-24T16:38:58Z</time>
      </trkpt>
      <trkpt lat="59.848947" lon="17.5319533">
        <ele>31.8607</ele>
        <time>2013-04-24T16:38:59Z</time>
      </trkpt>
      <trkpt lat="59.8489509" lon="17.5318633">
        <ele>31.3801</ele>
        <time>2013-04-24T16:39:00Z</time>
      </trkpt>
      <trkpt lat="59.8489547" lon="17.5317701">
        <ele>31.3801</ele>
        <time>2013-04-24T16:39:01Z</time>
      </trkpt>
      <trkpt lat="59.8489584" lon="17.5316758">
        <ele>31.3801</ele>
        <time>2013-04-24T16:39:02Z</time>
      </trkpt>
      <trkpt lat="59.8489631" lon="17.531581">
        <ele>31.3801</ele>
        <time>2013-04-24T16:39:03Z</time>
      </trkpt>
      <trkpt lat="59.8489687" lon="17.5314873">
        <ele>31.3801</ele>
        <time>2013-04-24T16:39:04Z</time>
      </trkpt>
      <trkpt lat="59.8489741" lon="17.531394">
        <ele>31.3801</ele>
        <time>2013-04-24T16:39:05Z</time>
      </trkpt>
      <trkpt lat="59.848978" lon="17.5312992">
        <ele>31.8607</ele>
        <time>2013-04-24T16:39:06Z</time>
      </trkpt>
      <trkpt lat="59.8489804" lon="17.5312025">
        <ele>31.8607</ele>
        <time>2013-04-24T16:39:07Z</time>
      </trkpt>
      <trkpt lat="59.8489834" lon="17.5311048">
        <ele>31.8607</ele>
        <time>2013-04-24T16:39:08Z</time>
      </trkpt>
      <trkpt lat="59.8489869" lon="17.531005">
        <ele>32.3416</ele>
        <time>2013-04-24T16:39:09Z</time>
      </trkpt>
      <trkpt lat="59.8489907" lon="17.5309033">
        <ele>31.8607</ele>
        <time>2013-04-24T16:39:10Z</time>
      </trkpt>
      <trkpt lat="59.8489947" lon="17.5307979">
        <ele>31.8607</ele>
        <time>2013-04-24T16:39:11Z</time>
      </trkpt>
      <trkpt lat="59.8489985" lon="17.5306932">
        <ele>31.8607</ele>
        <time>2013-04-24T16:39:12Z</time>
      </trkpt>
      <trkpt lat="59.8490016" lon="17.5305896">
        <ele>31.8607</ele>
        <time>2013-04-24T16:39:13Z</time>
      </trkpt>
      <trkpt lat="59.8490034" lon="17.5304835">
        <ele>31.8607</ele>
        <time>2013-04-24T16:39:14Z</time>
      </trkpt>
      <trkpt lat="59.8490024" lon="17.5303761">
        <ele>31.8607</ele>
        <time>2013-04-24T16:39:15Z</time>
      </trkpt>
      <trkpt lat="59.8489983" lon="17.53027">
        <ele>31.3801</ele>
        <time>2013-04-24T16:39:16Z</time>
      </trkpt>
      <trkpt lat="59.8489936" lon="17.5301663">
        <ele>31.3801</ele>
        <time>2013-04-24T16:39:17Z</time>
      </trkpt>
      <trkpt lat="59.8489898" lon="17.5300658">
        <ele>31.3801</ele>
        <time>2013-04-24T16:39:18Z</time>
      </trkpt>
      <trkpt lat="59.8489871" lon="17.5299668">
        <ele>31.3801</ele>
        <time>2013-04-24T16:39:19Z</time>
      </trkpt>
      <trkpt lat="59.8489861" lon="17.5298673">
        <ele>31.3801</ele>
        <time>2013-04-24T16:39:20Z</time>
      </trkpt>
      <trkpt lat="59.848986" lon="17.5297664">
        <ele>31.3801</ele>
        <time>2013-04-24T16:39:21Z</time>
      </trkpt>
      <trkpt lat="59.8489871" lon="17.5296659">
        <ele>31.3801</ele>
        <time>2013-04-24T16:39:22Z</time>
      </trkpt>
      <trkpt lat="59.8489886" lon="17.5295661">
        <ele>31.3801</ele>
        <time>2013-04-24T16:39:23Z</time>
      </trkpt>
      <trkpt lat="59.8489891" lon="17.529467">
        <ele>31.3801</ele>
        <time>2013-04-24T16:39:24Z</time>
      </trkpt>
      <trkpt lat="59.8489903" lon="17.5293682">
        <ele>31.3801</ele>
        <time>2013-04-24T16:39:25Z</time>
      </trkpt>
      <trkpt lat="59.8489922" lon="17.5292696">
        <ele>31.3801</ele>
        <time>2013-04-24T16:39:26Z</time>
      </trkpt>
      <trkpt lat="59.8489927" lon="17.529171">
        <ele>31.3801</ele>
        <time>2013-04-24T16:39:27Z</time>
      </trkpt>
      <trkpt lat="59.8489925" lon="17.5290733">
        <ele>31.3801</ele>
        <time>2013-04-24T16:39:28Z</time>
      </trkpt>
      <trkpt lat="59.8489931" lon="17.5289768">
        <ele>31.3801</ele>
        <time>2013-04-24T16:39:29Z</time>
      </trkpt>
      <trkpt lat="59.8489969" lon="17.5288807">
        <ele>31.3801</ele>
        <time>2013-04-24T16:39:30Z</time>
      </trkpt>
      <trkpt lat="59.8490099" lon="17.5287872">
        <ele>31.3801</ele>
        <time>2013-04-24T16:39:31Z</time>
      </trkpt>
      <trkpt lat="59.8490267" lon="17.5286911">
        <ele>31.3801</ele>
        <time>2013-04-24T16:39:32Z</time>
      </trkpt>
      <trkpt lat="59.8490384" lon="17.528588">
        <ele>31.3801</ele>
        <time>2013-04-24T16:39:33Z</time>
      </trkpt>
      <trkpt lat="59.8490435" lon="17.5284822">
        <ele>31.3801</ele>
        <time>2013-04-24T16:39:34Z</time>
      </trkpt>
      <trkpt lat="59.8490462" lon="17.528376">
        <ele>31.3801</ele>
        <time>2013-04-24T16:39:35Z</time>
      </trkpt>
      <trkpt lat="59.8490476" lon="17.5282698">
        <ele>31.3801</ele>
        <time>2013-04-24T16:39:36Z</time>
      </trkpt>
      <trkpt lat="59.8490485" lon="17.5281627">
        <ele>31.3801</ele>
        <time>2013-04-24T16:39:37Z</time>
      </trkpt>
      <trkpt lat="59.8490495" lon="17.5280552">
        <ele>31.3801</ele>
        <time>2013-04-24T16:39:38Z</time>
      </trkpt>
      <trkpt lat="59.8490498" lon="17.5279483">
        <ele>30.8995</ele>
        <time>2013-04-24T16:39:39Z</time>
      </trkpt>
      <trkpt lat="59.8490501" lon="17.5278426">
        <ele>30.8995</ele>
        <time>2013-04-24T16:39:40Z</time>
      </trkpt>
      <trkpt lat="59.8490506" lon="17.5277375">
        <ele>30.8995</ele>
        <time>2013-04-24T16:39:41Z</time>
      </trkpt>
      <trkpt lat="59.8490507" lon="17.5276328">
        <ele>30.4188</ele>
        <time>2013-04-24T16:39:42Z</time>
      </trkpt>
      <trkpt lat="59.8490508" lon="17.5275264">
        <ele>30.4188</ele>
        <time>2013-04-24T16:39:43Z</time>
      </trkpt>
      <trkpt lat="59.8490513" lon="17.5274204">
        <ele>29.9381</ele>
        <time>2013-04-24T16:39:44Z</time>
      </trkpt>
      <trkpt lat="59.8490519" lon="17.5273138">
        <ele>29.9381</ele>
        <time>2013-04-24T16:39:45Z</time>
      </trkpt>
      <trkpt lat="59.8490524" lon="17.5272069">
        <ele>29.4575</ele>
        <time>2013-04-24T16:39:46Z</time>
      </trkpt>
      <trkpt lat="59.8490522" lon="17.5270992">
        <ele>29.4575</ele>
        <time>2013-04-24T16:39:47Z</time>
      </trkpt>
      <trkpt lat="59.8490516" lon="17.5269913">
        <ele>29.4575</ele>
        <time>2013-04-24T16:39:48Z</time>
      </trkpt>
      <trkpt lat="59.8490506" lon="17.5268816">
        <ele>28.9769</ele>
        <time>2013-04-24T16:39:49Z</time>
      </trkpt>
      <trkpt lat="59.8490502" lon="17.5267711">
        <ele>28.9769</ele>
        <time>2013-04-24T16:39:50Z</time>
      </trkpt>
      <trkpt lat="59.8490501" lon="17.5266602">
        <ele>28.9769</ele>
        <time>2013-04-24T16:39:51Z</time>
      </trkpt>
      <trkpt lat="59.8490493" lon="17.5265491">
        <ele>28.9769</ele>
        <time>2013-04-24T16:39:52Z</time>
      </trkpt>
      <trkpt lat="59.8490486" lon="17.5264376">
        <ele>28.9769</ele>
        <time>2013-04-24T16:39:53Z</time>
      </trkpt>
      <trkpt lat="59.8490466" lon="17.5263247">
        <ele>28.4962</ele>
        <time>2013-04-24T16:39:54Z</time>
      </trkpt>
      <trkpt lat="59.849046" lon="17.5262096">
        <ele>28.4962</ele>
        <time>2013-04-24T16:39:55Z</time>
      </trkpt>
      <trkpt lat="59.8490461" lon="17.5260932">
        <ele>28.4962</ele>
        <time>2013-04-24T16:39:56Z</time>
      </trkpt>
      <trkpt lat="59.8490456" lon="17.5259756">
        <ele>28.4962</ele>
        <time>2013-04-24T16:39:57Z</time>
      </trkpt>
      <trkpt lat="59.849045" lon="17.5258586">
        <ele>28.0155</ele>
        <time>2013-04-24T16:39:58Z</time>
      </trkpt>
      <trkpt lat="59.8490461" lon="17.52574">
        <ele>28.0155</ele>
        <time>2013-04-24T16:39:59Z</time>
      </trkpt>
      <trkpt lat="59.8490471" lon="17.5256196">
        <ele>28.0155</ele>
        <time>2013-04-24T16:40:00Z</time>
      </trkpt>
      <trkpt lat="59.8490475" lon="17.5254971">
        <ele>28.0155</ele>
        <time>2013-04-24T16:40:01Z</time>
      </trkpt>
      <trkpt lat="59.8490477" lon="17.5253745">
        <ele>27.5349</ele>
        <time>2013-04-24T16:40:02Z</time>
      </trkpt>
      <trkpt lat="59.8490482" lon="17.5252528">
        <ele>27.5349</ele>
        <time>2013-04-24T16:40:03Z</time>
      </trkpt>
      <trkpt lat="59.8490481" lon="17.5251324">
        <ele>27.5349</ele>
        <time>2013-04-24T16:40:04Z</time>
      </trkpt>
      <trkpt lat="59.849048" lon="17.5250121">
        <ele>27.5349</ele>
        <time>2013-04-24T16:40:05Z</time>
      </trkpt>
      <trkpt lat="59.8490497" lon="17.5248913">
        <ele>27.5349</ele>
        <time>2013-04-24T16:40:06Z</time>
      </trkpt>
      <trkpt lat="59.8490517" lon="17.52477">
        <ele>27.5349</ele>
        <time>2013-04-24T16:40:07Z</time>
      </trkpt>
      <trkpt lat="59.8490531" lon="17.5246491">
        <ele>27.5349</ele>
        <time>2013-04-24T16:40:08Z</time>
      </trkpt>
      <trkpt lat="59.8490547" lon="17.5245299">
        <ele>27.5349</ele>
        <time>2013-04-24T16:40:09Z</time>
      </trkpt>
      <trkpt lat="59.8490555" lon="17.5244128">
        <ele>27.5349</ele>
        <time>2013-04-24T16:40:10Z</time>
      </trkpt>
      <trkpt lat="59.8490557" lon="17.5242969">
        <ele>27.5349</ele>
        <time>2013-04-24T16:40:11Z</time>
      </trkpt>
      <trkpt lat="59.8490555" lon="17.5241802">
        <ele>27.5349</ele>
        <time>2013-04-24T16:40:12Z</time>
      </trkpt>
      <trkpt lat="59.8490553" lon="17.524062">
        <ele>27.5349</ele>
        <time>2013-04-24T16:40:13Z</time>
      </trkpt>
      <trkpt lat="59.8490553" lon="17.5239429">
        <ele>27.0543</ele>
        <time>2013-04-24T16:40:14Z</time>
      </trkpt>
      <trkpt lat="59.8490559" lon="17.5238238">
        <ele>27.0543</ele>
        <time>2013-04-24T16:40:15Z</time>
      </trkpt>
      <trkpt lat="59.8490566" lon="17.5237048">
        <ele>27.0543</ele>
        <time>2013-04-24T16:40:16Z</time>
      </trkpt>
      <trkpt lat="59.8490575" lon="17.5235874">
        <ele>27.0543</ele>
        <time>2013-04-24T16:40:17Z</time>
      </trkpt>
      <trkpt lat="59.849059" lon="17.5234727">
        <ele>27.0543</ele>
        <time>2013-04-24T16:40:18Z</time>
      </trkpt>
      <trkpt lat="59.8490609" lon="17.5233605">
        <ele>27.0543</ele>
        <time>2013-04-24T16:40:19Z</time>
      </trkpt>
      <trkpt lat="59.8490627" lon="17.5232499">
        <ele>27.0543</ele>
        <time>2013-04-24T16:40:20Z</time>
      </trkpt>
      <trkpt lat="59.8490638" lon="17.5231409">
        <ele>26.5736</ele>
        <time>2013-04-24T16:40:21Z</time>
      </trkpt>
      <trkpt lat="59.8490637" lon="17.5230329">
        <ele>26.5736</ele>
        <time>2013-04-24T16:40:22Z</time>
      </trkpt>
      <trkpt lat="59.8490621" lon="17.522926">
        <ele>27.0543</ele>
        <time>2013-04-24T16:40:23Z</time>
      </trkpt>
      <trkpt lat="59.8490597" lon="17.5228188">
        <ele>27.0543</ele>
        <time>2013-04-24T16:40:24Z</time>
      </trkpt>
      <trkpt lat="59.849057" lon="17.5227107">
        <ele>27.0543</ele>
        <time>2013-04-24T16:40:25Z</time>
      </trkpt>
      <trkpt lat="59.8490534" lon="17.5226025">
        <ele>26.5736</ele>
        <time>2013-04-24T16:40:26Z</time>
      </trkpt>
      <trkpt lat="59.8490502" lon="17.5224934">
        <ele>26.5736</ele>
        <time>2013-04-24T16:40:27Z</time>
      </trkpt>
      <trkpt lat="59.849048" lon="17.5223826">
        <ele>26.5736</ele>
        <time>2013-04-24T16:40:28Z</time>
      </trkpt>
      <trkpt lat="59.8490465" lon="17.5222704">
        <ele>26.5736</ele>
        <time>2013-04-24T16:40:29Z</time>
      </trkpt>
      <trkpt lat="59.8490466" lon="17.522157">
        <ele>26.5736</ele>
        <time>2013-04-24T16:40:30Z</time>
      </trkpt>
      <trkpt lat="59.8490486" lon="17.5220429">
        <ele>26.5736</ele>
        <time>2013-04-24T16:40:31Z</time>
      </trkpt>
      <trkpt lat="59.8490511" lon="17.5219306">
        <ele>26.5736</ele>
        <time>2013-04-24T16:40:32Z</time>
      </trkpt>
      <trkpt lat="59.8490542" lon="17.5218215">
        <ele>26.5736</ele>
        <time>2013-04-24T16:40:33Z</time>
      </trkpt>
      <trkpt lat="59.8490555" lon="17.5217145">
        <ele>26.5736</ele>
        <time>2013-04-24T16:40:34Z</time>
      </trkpt>
      <trkpt lat="59.8490531" lon="17.5216086">
        <ele>26.5736</ele>
        <time>2013-04-24T16:40:35Z</time>
      </trkpt>
      <trkpt lat="59.8490496" lon="17.5215043">
        <ele>26.5736</ele>
        <time>2013-04-24T16:40:36Z</time>
      </trkpt>
      <trkpt lat="59.8490491" lon="17.5214017">
        <ele>26.5736</ele>
        <time>2013-04-24T16:40:37Z</time>
      </trkpt>
      <trkpt lat="59.8490516" lon="17.5213005">
        <ele>26.5736</ele>
        <time>2013-04-24T16:40:38Z</time>
      </trkpt>
      <trkpt lat="59.8490549" lon="17.5211987">
        <ele>26.5736</ele>
        <time>2013-04-24T16:40:39Z</time>
      </trkpt>
      <trkpt lat="59.8490576" lon="17.5210978">
        <ele>26.5736</ele>
        <time>2013-04-24T16:40:40Z</time>
      </trkpt>
      <trkpt lat="59.8490594" lon="17.5209989">
        <ele>26.5736</ele>
        <time>2013-04-24T16:40:41Z</time>
      </trkpt>
      <trkpt lat="59.8490606" lon="17.5209012">
        <ele>26.5736</ele>
        <time>2013-04-24T16:40:42Z</time>
      </trkpt>
      <trkpt lat="59.8490618" lon="17.5208039">
        <ele>26.5736</ele>
        <time>2013-04-24T16:40:43Z</time>
      </trkpt>
      <trkpt lat="59.849064" lon="17.5207064">
        <ele>26.5736</ele>
        <time>2013-04-24T16:40:44Z</time>
      </trkpt>
      <trkpt lat="59.8490657" lon="17.5206076">
        <ele>26.5736</ele>
        <time>2013-04-24T16:40:45Z</time>
      </trkpt>
      <trkpt lat="59.8490663" lon="17.5205082">
        <ele>27.0543</ele>
        <time>2013-04-24T16:40:46Z</time>
      </trkpt>
      <trkpt lat="59.8490674" lon="17.5204084">
        <ele>27.0543</ele>
        <time>2013-04-24T16:40:47Z</time>
      </trkpt>
      <trkpt lat="59.849069" lon="17.5203081">
        <ele>27.0543</ele>
        <time>2013-04-24T16:40:48Z</time>
      </trkpt>
      <trkpt lat="59.8490705" lon="17.520209">
        <ele>27.0543</ele>
        <time>2013-04-24T16:40:49Z</time>
      </trkpt>
      <trkpt lat="59.8490725" lon="17.5201111">
        <ele>27.0543</ele>
        <time>2013-04-24T16:40:50Z</time>
      </trkpt>
      <trkpt lat="59.8490751" lon="17.5200139">
        <ele>27.0543</ele>
        <time>2013-04-24T16:40:51Z</time>
      </trkpt>
      <trkpt lat="59.8490783" lon="17.5199161">
        <ele>27.5349</ele>
        <time>2013-04-24T16:40:52Z</time>
      </trkpt>
      <trkpt lat="59.8490818" lon="17.5198171">
        <ele>27.5349</ele>
        <time>2013-04-24T16:40:53Z</time>
      </trkpt>
      <trkpt lat="59.8490853" lon="17.5197174">
        <ele>27.5349</ele>
        <time>2013-04-24T16:40:54Z</time>
      </trkpt>
      <trkpt lat="59.8490892" lon="17.5196171">
        <ele>27.5349</ele>
        <time>2013-04-24T16:40:55Z</time>
      </trkpt>
      <trkpt lat="59.8490936" lon="17.5195162">
        <ele>27.5349</ele>
        <time>2013-04-24T16:40:56Z</time>
      </trkpt>
      <trkpt lat="59.8490984" lon="17.5194146">
        <ele>27.5349</ele>
        <time>2013-04-24T16:40:57Z</time>
      </trkpt>
      <trkpt lat="59.8491039" lon="17.5193126">
        <ele>27.5349</ele>
        <time>2013-04-24T16:40:58Z</time>
      </trkpt>
      <trkpt lat="59.8491098" lon="17.5192102">
        <ele>27.5349</ele>
        <time>2013-04-24T16:40:59Z</time>
      </trkpt>
      <trkpt lat="59.8491155" lon="17.5191073">
        <ele>28.0155</ele>
        <time>2013-04-24T16:41:00Z</time>
      </trkpt>
      <trkpt lat="59.849121" lon="17.5190027">
        <ele>28.0155</ele>
        <time>2013-04-24T16:41:01Z</time>
      </trkpt>
      <trkpt lat="59.8491273" lon="17.5188964">
        <ele>28.0155</ele>
        <time>2013-04-24T16:41:02Z</time>
      </trkpt>
      <trkpt lat="59.8491342" lon="17.5187914">
        <ele>28.4962</ele>
        <time>2013-04-24T16:41:03Z</time>
      </trkpt>
      <trkpt lat="59.8491397" lon="17.5186899">
        <ele>28.4962</ele>
        <time>2013-04-24T16:41:04Z</time>
      </trkpt>
      <trkpt lat="59.8491405" lon="17.5185918">
        <ele>28.4962</ele>
        <time>2013-04-24T16:41:05Z</time>
      </trkpt>
      <trkpt lat="59.8491397" lon="17.5184964">
        <ele>28.9769</ele>
        <time>2013-04-24T16:41:06Z</time>
      </trkpt>
      <trkpt lat="59.8491391" lon="17.518405">
        <ele>28.9769</ele>
        <time>2013-04-24T16:41:07Z</time>
      </trkpt>
      <trkpt lat="59.8491384" lon="17.5183177">
        <ele>28.9769</ele>
        <time>2013-04-24T16:41:08Z</time>
      </trkpt>
      <trkpt lat="59.8491389" lon="17.5182323">
        <ele>29.4575</ele>
        <time>2013-04-24T16:41:09Z</time>
      </trkpt>
      <trkpt lat="59.8491395" lon="17.5181478">
        <ele>29.4575</ele>
        <time>2013-04-24T16:41:10Z</time>
      </trkpt>
      <trkpt lat="59.8491404" lon="17.5180637">
        <ele>29.4575</ele>
        <time>2013-04-24T16:41:11Z</time>
      </trkpt>
      <trkpt lat="59.849142" lon="17.51798">
        <ele>29.9381</ele>
        <time>2013-04-24T16:41:12Z</time>
      </trkpt>
      <trkpt lat="59.8491448" lon="17.5178951">
        <ele>29.9381</ele>
        <time>2013-04-24T16:41:13Z</time>
      </trkpt>
      <trkpt lat="59.8491469" lon="17.5178103">
        <ele>29.9381</ele>
        <time>2013-04-24T16:41:14Z</time>
      </trkpt>
      <trkpt lat="59.8491476" lon="17.5177257">
        <ele>29.9381</ele>
        <time>2013-04-24T16:41:15Z</time>
      </trkpt>
      <trkpt lat="59.8491471" lon="17.5176386">
        <ele>29.9381</ele>
        <time>2013-04-24T16:41:16Z</time>
      </trkpt>
      <trkpt lat="59.8491482" lon="17.5175481">
        <ele>29.9381</ele>
        <time>2013-04-24T16:41:17Z</time>
      </trkpt>
      <trkpt lat="59.8491513" lon="17.5174566">
        <ele>30.4188</ele>
        <time>2013-04-24T16:41:18Z</time>
      </trkpt>
      <trkpt lat="59.849154" lon="17.5173675">
        <ele>30.4188</ele>
        <time>2013-04-24T16:41:19Z</time>
      </trkpt>
      <trkpt lat="59.8491544" lon="17.5172789">
        <ele>30.4188</ele>
        <time>2013-04-24T16:41:20Z</time>
      </trkpt>
      <trkpt lat="59.849154" lon="17.5171907">
        <ele>30.4188</ele>
        <time>2013-04-24T16:41:21Z</time>
      </trkpt>
      <trkpt lat="59.8491557" lon="17.5171022">
        <ele>30.4188</ele>
        <time>2013-04-24T16:41:22Z</time>
      </trkpt>
      <trkpt lat="59.8491586" lon="17.5170137">
        <ele>30.4188</ele>
        <time>2013-04-24T16:41:23Z</time>
      </trkpt>
      <trkpt lat="59.8491621" lon="17.5169259">
        <ele>30.4188</ele>
        <time>2013-04-24T16:41:24Z</time>
      </trkpt>
      <trkpt lat="59.8491648" lon="17.5168389">
        <ele>30.4188</ele>
        <time>2013-04-24T16:41:25Z</time>
      </trkpt>
      <trkpt lat="59.8491667" lon="17.5167525">
        <ele>30.4188</ele>
        <time>2013-04-24T16:41:26Z</time>
      </trkpt>
      <trkpt lat="59.8491685" lon="17.516667">
        <ele>30.4188</ele>
        <time>2013-04-24T16:41:27Z</time>
      </trkpt>
      <trkpt lat="59.8491698" lon="17.5165814">
        <ele>30.8995</ele>
        <time>2013-04-24T16:41:28Z</time>
      </trkpt>
      <trkpt lat="59.849171" lon="17.5164948">
        <ele>30.8995</ele>
        <time>2013-04-24T16:41:29Z</time>
      </trkpt>
      <trkpt lat="59.8491741" lon="17.5164075">
        <ele>30.8995</ele>
        <time>2013-04-24T16:41:30Z</time>
      </trkpt>
      <trkpt lat="59.8491775" lon="17.5163189">
        <ele>30.8995</ele>
        <time>2013-04-24T16:41:31Z</time>
      </trkpt>
      <trkpt lat="59.8491807" lon="17.5162277">
        <ele>30.8995</ele>
        <time>2013-04-24T16:41:32Z</time>
      </trkpt>
      <trkpt lat="59.8491839" lon="17.5161348">
        <ele>31.3801</ele>
        <time>2013-04-24T16:41:33Z</time>
      </trkpt>
      <trkpt lat="59.849186" lon="17.5160418">
        <ele>31.3801</ele>
        <time>2013-04-24T16:41:34Z</time>
      </trkpt>
      <trkpt lat="59.849187" lon="17.5159485">
        <ele>31.3801</ele>
        <time>2013-04-24T16:41:35Z</time>
      </trkpt>
      <trkpt lat="59.84919" lon="17.5158548">
        <ele>31.8607</ele>
        <time>2013-04-24T16:41:36Z</time>
      </trkpt>
      <trkpt lat="59.8491948" lon="17.515762">
        <ele>31.8607</ele>
        <time>2013-04-24T16:41:37Z</time>
      </trkpt>
      <trkpt lat="59.8492" lon="17.5156677">
        <ele>31.8607</ele>
        <time>2013-04-24T16:41:38Z</time>
      </trkpt>
      <trkpt lat="59.8492046" lon="17.515572">
        <ele>31.8607</ele>
        <time>2013-04-24T16:41:39Z</time>
      </trkpt>
      <trkpt lat="59.8492093" lon="17.5154746">
        <ele>32.3416</ele>
        <time>2013-04-24T16:41:40Z</time>
      </trkpt>
      <trkpt lat="59.8492142" lon="17.5153747">
        <ele>32.3416</ele>
        <time>2013-04-24T16:41:41Z</time>
      </trkpt>
      <trkpt lat="59.8492197" lon="17.5152721">
        <ele>32.3416</ele>
        <time>2013-04-24T16:41:42Z</time>
      </trkpt>
      <trkpt lat="59.8492256" lon="17.515167">
        <ele>32.3416</ele>
        <time>2013-04-24T16:41:43Z</time>
      </trkpt>
      <trkpt lat="59.8492314" lon="17.5150611">
        <ele>32.3416</ele>
        <time>2013-04-24T16:41:44Z</time>
      </trkpt>
      <trkpt lat="59.8492367" lon="17.514953">
        <ele>32.3416</ele>
        <time>2013-04-24T16:41:45Z</time>
      </trkpt>
      <trkpt lat="59.8492422" lon="17.5148436">
        <ele>32.3416</ele>
        <time>2013-04-24T16:41:46Z</time>
      </trkpt>
      <trkpt lat="59.8492487" lon="17.5147343">
        <ele>32.8223</ele>
        <time>2013-04-24T16:41:47Z</time>
      </trkpt>
      <trkpt lat="59.8492545" lon="17.5146225">
        <ele>32.8223</ele>
        <time>2013-04-24T16:41:48Z</time>
      </trkpt>
      <trkpt lat="59.8492614" lon="17.5145096">
        <ele>32.8223</ele>
        <time>2013-04-24T16:41:49Z</time>
      </trkpt>
      <trkpt lat="59.8492692" lon="17.5143977">
        <ele>32.8223</ele>
        <time>2013-04-24T16:41:50Z</time>
      </trkpt>
      <trkpt lat="59.8492761" lon="17.5142883">
        <ele>32.3416</ele>
        <time>2013-04-24T16:41:51Z</time>
      </trkpt>
      <trkpt lat="59.8492823" lon="17.5141814">
        <ele>32.3416</ele>
        <time>2013-04-24T16:41:52Z</time>
      </trkpt>
      <trkpt lat="59.8492894" lon="17.5140781">
        <ele>32.3416</ele>
        <time>2013-04-24T16:41:53Z</time>
      </trkpt>
      <trkpt lat="59.8492963" lon="17.5139734">
        <ele>32.3416</ele>
        <time>2013-04-24T16:41:54Z</time>
      </trkpt>
      <trkpt lat="59.8493042" lon="17.5138706">
        <ele>32.3416</ele>
        <time>2013-04-24T16:41:55Z</time>
      </trkpt>
      <trkpt lat="59.8493124" lon="17.5137709">
        <ele>32.3416</ele>
        <time>2013-04-24T16:41:56Z</time>
      </trkpt>
      <trkpt lat="59.8493212" lon="17.5136667">
        <ele>32.8223</ele>
        <time>2013-04-24T16:41:57Z</time>
      </trkpt>
      <trkpt lat="59.8493306" lon="17.5135601">
        <ele>32.8223</ele>
        <time>2013-04-24T16:41:58Z</time>
      </trkpt>
      <trkpt lat="59.8493403" lon="17.5134513">
        <ele>32.8223</ele>
        <time>2013-04-24T16:41:59Z</time>
      </trkpt>
      <trkpt lat="59.84935" lon="17.5133407">
        <ele>32.8223</ele>
        <time>2013-04-24T16:42:00Z</time>
      </trkpt>
      <trkpt lat="59.8493616" lon="17.51323">
        <ele>32.8223</ele>
        <time>2013-04-24T16:42:01Z</time>
      </trkpt>
      <trkpt lat="59.8493738" lon="17.5131179">
        <ele>32.8223</ele>
        <time>2013-04-24T16:42:02Z</time>
      </trkpt>
      <trkpt lat="59.8493869" lon="17.5130053">
        <ele>32.8223</ele>
        <time>2013-04-24T16:42:03Z</time>
      </trkpt>
      <trkpt lat="59.8494" lon="17.5128916">
        <ele>32.3416</ele>
        <time>2013-04-24T16:42:04Z</time>
      </trkpt>
      <trkpt lat="59.8494132" lon="17.5127755">
        <ele>32.3416</ele>
        <time>2013-04-24T16:42:05Z</time>
      </trkpt>
      <trkpt lat="59.8494268" lon="17.5126566">
        <ele>32.3416</ele>
        <time>2013-04-24T16:42:06Z</time>
      </trkpt>
      <trkpt lat="59.8494403" lon="17.5125352">
        <ele>31.8607</ele>
        <time>2013-04-24T16:42:07Z</time>
      </trkpt>
      <trkpt lat="59.8494532" lon="17.5124094">
        <ele>31.8607</ele>
        <time>2013-04-24T16:42:08Z</time>
      </trkpt>
      <trkpt lat="59.8494653" lon="17.51228">
        <ele>31.3801</ele>
        <time>2013-04-24T16:42:09Z</time>
      </trkpt>
      <trkpt lat="59.8494772" lon="17.5121485">
        <ele>30.8995</ele>
        <time>2013-04-24T16:42:10Z</time>
      </trkpt>
      <trkpt lat="59.8494885" lon="17.5120142">
        <ele>30.8995</ele>
        <time>2013-04-24T16:42:11Z</time>
      </trkpt>
      <trkpt lat="59.8494998" lon="17.5118768">
        <ele>30.4188</ele>
        <time>2013-04-24T16:42:12Z</time>
      </trkpt>
      <trkpt lat="59.8495128" lon="17.5117375">
        <ele>29.9381</ele>
        <time>2013-04-24T16:42:13Z</time>
      </trkpt>
      <trkpt lat="59.8495279" lon="17.5115968">
        <ele>29.9381</ele>
        <time>2013-04-24T16:42:14Z</time>
      </trkpt>
      <trkpt lat="59.8495434" lon="17.5114566">
        <ele>29.4575</ele>
        <time>2013-04-24T16:42:15Z</time>
      </trkpt>
      <trkpt lat="59.849558" lon="17.5113187">
        <ele>28.9769</ele>
        <time>2013-04-24T16:42:16Z</time>
      </trkpt>
      <trkpt lat="59.8495734" lon="17.5111857">
        <ele>28.9769</ele>
        <time>2013-04-24T16:42:17Z</time>
      </trkpt>
      <trkpt lat="59.8495877" lon="17.511057">
        <ele>28.4962</ele>
        <time>2013-04-24T16:42:18Z</time>
      </trkpt>
      <trkpt lat="59.8495979" lon="17.510933">
        <ele>28.4962</ele>
        <time>2013-04-24T16:42:19Z</time>
      </trkpt>
      <trkpt lat="59.8496066" lon="17.5108143">
        <ele>28.4962</ele>
        <time>2013-04-24T16:42:20Z</time>
      </trkpt>
      <trkpt lat="59.8496155" lon="17.5107006">
        <ele>28.0155</ele>
        <time>2013-04-24T16:42:21Z</time>
      </trkpt>
      <trkpt lat="59.8496238" lon="17.5105927">
        <ele>28.0155</ele>
        <time>2013-04-24T16:42:22Z</time>
      </trkpt>
      <trkpt lat="59.8496304" lon="17.5104885">
        <ele>28.0155</ele>
        <time>2013-04-24T16:42:23Z</time>
      </trkpt>
      <trkpt lat="59.8496366" lon="17.5103839">
        <ele>28.0155</ele>
        <time>2013-04-24T16:42:24Z</time>
      </trkpt>
      <trkpt lat="59.8496423" lon="17.5102778">
        <ele>28.0155</ele>
        <time>2013-04-24T16:42:25Z</time>
      </trkpt>
      <trkpt lat="59.849647" lon="17.5101692">
        <ele>27.5349</ele>
        <time>2013-04-24T16:42:26Z</time>
      </trkpt>
      <trkpt lat="59.8496533" lon="17.5100591">
        <ele>27.5349</ele>
        <time>2013-04-24T16:42:27Z</time>
      </trkpt>
      <trkpt lat="59.8496613" lon="17.5099449">
        <ele>27.5349</ele>
        <time>2013-04-24T16:42:28Z</time>
      </trkpt>
      <trkpt lat="59.8496715" lon="17.5098271">
        <ele>27.0543</ele>
        <time>2013-04-24T16:42:29Z</time>
      </trkpt>
      <trkpt lat="59.8496838" lon="17.5097064">
        <ele>27.0543</ele>
        <time>2013-04-24T16:42:30Z</time>
      </trkpt>
      <trkpt lat="59.8496968" lon="17.5095841">
        <ele>26.5736</ele>
        <time>2013-04-24T16:42:31Z</time>
      </trkpt>
      <trkpt lat="59.8497107" lon="17.5094585">
        <ele>26.0929</ele>
        <time>2013-04-24T16:42:32Z</time>
      </trkpt>
      <trkpt lat="59.8497237" lon="17.5093303">
        <ele>26.0929</ele>
        <time>2013-04-24T16:42:33Z</time>
      </trkpt>
      <trkpt lat="59.8497382" lon="17.5092014">
        <ele>26.0929</ele>
        <time>2013-04-24T16:42:34Z</time>
      </trkpt>
      <trkpt lat="59.8497558" lon="17.5090722">
        <ele>25.6123</ele>
        <time>2013-04-24T16:42:35Z</time>
      </trkpt>
      <trkpt lat="59.8497765" lon="17.5089415">
        <ele>25.6123</ele>
        <time>2013-04-24T16:42:36Z</time>
      </trkpt>
      <trkpt lat="59.8497994" lon="17.5088089">
        <ele>25.1317</ele>
        <time>2013-04-24T16:42:37Z</time>
      </trkpt>
      <trkpt lat="59.8498227" lon="17.508671">
        <ele>25.1317</ele>
        <time>2013-04-24T16:42:38Z</time>
      </trkpt>
      <trkpt lat="59.8498465" lon="17.5085274">
        <ele>24.651</ele>
        <time>2013-04-24T16:42:39Z</time>
      </trkpt>
      <trkpt lat="59.8498708" lon="17.5083812">
        <ele>24.1703</ele>
        <time>2013-04-24T16:42:40Z</time>
      </trkpt>
      <trkpt lat="59.8498951" lon="17.5082353">
        <ele>24.1703</ele>
        <time>2013-04-24T16:42:41Z</time>
      </trkpt>
      <trkpt lat="59.8499184" lon="17.5080877">
        <ele>23.6896</ele>
        <time>2013-04-24T16:42:42Z</time>
      </trkpt>
      <trkpt lat="59.8499423" lon="17.5079414">
        <ele>23.209</ele>
        <time>2013-04-24T16:42:43Z</time>
      </trkpt>
      <trkpt lat="59.8499651" lon="17.5077935">
        <ele>22.7283</ele>
        <time>2013-04-24T16:42:44Z</time>
      </trkpt>
      <trkpt lat="59.8499889" lon="17.5076449">
        <ele>22.7283</ele>
        <time>2013-04-24T16:42:45Z</time>
      </trkpt>
      <trkpt lat="59.8500126" lon="17.5074946">
        <ele>22.2476</ele>
        <time>2013-04-24T16:42:46Z</time>
      </trkpt>
      <trkpt lat="59.8500339" lon="17.5073402">
        <ele>21.767</ele>
        <time>2013-04-24T16:42:47Z</time>
      </trkpt>
      <trkpt lat="59.8500526" lon="17.5071828">
        <ele>21.767</ele>
        <time>2013-04-24T16:42:48Z</time>
      </trkpt>
      <trkpt lat="59.8500708" lon="17.5070232">
        <ele>21.2864</ele>
        <time>2013-04-24T16:42:49Z</time>
      </trkpt>
      <trkpt lat="59.8500895" lon="17.5068617">
        <ele>21.2864</ele>
        <time>2013-04-24T16:42:50Z</time>
      </trkpt>
      <trkpt lat="59.850109" lon="17.5067004">
        <ele>21.2864</ele>
        <time>2013-04-24T16:42:51Z</time>
      </trkpt>
      <trkpt lat="59.8501293" lon="17.5065397">
        <ele>21.767</ele>
        <time>2013-04-24T16:42:52Z</time>
      </trkpt>
      <trkpt lat="59.8501479" lon="17.5063778">
        <ele>21.767</ele>
        <time>2013-04-24T16:42:53Z</time>
      </trkpt>
      <trkpt lat="59.850166" lon="17.5062197">
        <ele>21.767</ele>
        <time>2013-04-24T16:42:54Z</time>
      </trkpt>
      <trkpt lat="59.8501826" lon="17.5060618">
        <ele>21.767</ele>
        <time>2013-04-24T16:42:55Z</time>
      </trkpt>
      <trkpt lat="59.8501966" lon="17.5059037">
        <ele>21.767</ele>
        <time>2013-04-24T16:42:56Z</time>
      </trkpt>
      <trkpt lat="59.8502104" lon="17.5057442">
        <ele>21.767</ele>
        <time>2013-04-24T16:42:57Z</time>
      </trkpt>
      <trkpt lat="59.8502259" lon="17.5055852">
        <ele>22.2476</ele>
        <time>2013-04-24T16:42:58Z</time>
      </trkpt>
      <trkpt lat="59.8502461" lon="17.5054301">
        <ele>22.2476</ele>
        <time>2013-04-24T16:42:59Z</time>
      </trkpt>
      <trkpt lat="59.8502717" lon="17.505278">
        <ele>22.2476</ele>
        <time>2013-04-24T16:43:00Z</time>
      </trkpt>
      <trkpt lat="59.8503018" lon="17.5051281">
        <ele>22.2476</ele>
        <time>2013-04-24T16:43:01Z</time>
      </trkpt>
      <trkpt lat="59.8503338" lon="17.5049776">
        <ele>22.2476</ele>
        <time>2013-04-24T16:43:02Z</time>
      </trkpt>
      <trkpt lat="59.8503639" lon="17.5048246">
        <ele>22.2476</ele>
        <time>2013-04-24T16:43:03Z</time>
      </trkpt>
      <trkpt lat="59.8503881" lon="17.5046661">
        <ele>22.2476</ele>
        <time>2013-04-24T16:43:04Z</time>
      </trkpt>
      <trkpt lat="59.8504069" lon="17.504506">
        <ele>22.2476</ele>
        <time>2013-04-24T16:43:05Z</time>
      </trkpt>
      <trkpt lat="59.8504231" lon="17.504347">
        <ele>22.2476</ele>
        <time>2013-04-24T16:43:06Z</time>
      </trkpt>
      <trkpt lat="59.8504404" lon="17.5041896">
        <ele>22.2476</ele>
        <time>2013-04-24T16:43:07Z</time>
      </trkpt>
      <trkpt lat="59.8504583" lon="17.5040338">
        <ele>22.2476</ele>
        <time>2013-04-24T16:43:08Z</time>
      </trkpt>
      <trkpt lat="59.8504752" lon="17.5038794">
        <ele>22.2476</ele>
        <time>2013-04-24T16:43:09Z</time>
      </trkpt>
      <trkpt lat="59.8504918" lon="17.5037276">
        <ele>22.2476</ele>
        <time>2013-04-24T16:43:10Z</time>
      </trkpt>
      <trkpt lat="59.8505088" lon="17.503579">
        <ele>22.2476</ele>
        <time>2013-04-24T16:43:11Z</time>
      </trkpt>
      <trkpt lat="59.8505255" lon="17.503433">
        <ele>22.2476</ele>
        <time>2013-04-24T16:43:12Z</time>
      </trkpt>
      <trkpt lat="59.8505426" lon="17.5032902">
        <ele>22.7283</ele>
        <time>2013-04-24T16:43:13Z</time>
      </trkpt>
      <trkpt lat="59.8505606" lon="17.50315">
        <ele>22.7283</ele>
        <time>2013-04-24T16:43:14Z</time>
      </trkpt>
      <trkpt lat="59.8505785" lon="17.5030117">
        <ele>22.7283</ele>
        <time>2013-04-24T16:43:15Z</time>
      </trkpt>
      <trkpt lat="59.8505974" lon="17.5028771">
        <ele>22.7283</ele>
        <time>2013-04-24T16:43:16Z</time>
      </trkpt>
      <trkpt lat="59.8506161" lon="17.5027455">
        <ele>22.7283</ele>
        <time>2013-04-24T16:43:17Z</time>
      </trkpt>
      <trkpt lat="59.8506333" lon="17.5026168">
        <ele>22.7283</ele>
        <time>2013-04-24T16:43:18Z</time>
      </trkpt>
      <trkpt lat="59.8506508" lon="17.5024917">
        <ele>22.7283</ele>
        <time>2013-04-24T16:43:19Z</time>
      </trkpt>
      <trkpt lat="59.8506678" lon="17.5023693">
        <ele>23.209</ele>
        <time>2013-04-24T16:43:20Z</time>
      </trkpt>
      <trkpt lat="59.8506847" lon="17.5022483">
        <ele>22.7283</ele>
        <time>2013-04-24T16:43:21Z</time>
      </trkpt>
      <trkpt lat="59.8507028" lon="17.5021299">
        <ele>22.7283</ele>
        <time>2013-04-24T16:43:22Z</time>
      </trkpt>
      <trkpt lat="59.8507208" lon="17.502014">
        <ele>22.7283</ele>
        <time>2013-04-24T16:43:23Z</time>
      </trkpt>
      <trkpt lat="59.8507374" lon="17.5019002">
        <ele>22.7283</ele>
        <time>2013-04-24T16:43:24Z</time>
      </trkpt>
      <trkpt lat="59.8507533" lon="17.5017878">
        <ele>22.7283</ele>
        <time>2013-04-24T16:43:25Z</time>
      </trkpt>
      <trkpt lat="59.8507701" lon="17.5016774">
        <ele>22.7283</ele>
        <time>2013-04-24T16:43:26Z</time>
      </trkpt>
      <trkpt lat="59.8507874" lon="17.5015675">
        <ele>22.7283</ele>
        <time>2013-04-24T16:43:27Z</time>
      </trkpt>
      <trkpt lat="59.8508031" lon="17.5014576">
        <ele>22.7283</ele>
        <time>2013-04-24T16:43:28Z</time>
      </trkpt>
      <trkpt lat="59.8508177" lon="17.5013473">
        <ele>23.209</ele>
        <time>2013-04-24T16:43:29Z</time>
      </trkpt>
      <trkpt lat="59.8508323" lon="17.501241">
        <ele>23.209</ele>
        <time>2013-04-24T16:43:30Z</time>
      </trkpt>
      <trkpt lat="59.8508471" lon="17.501141">
        <ele>23.209</ele>
        <time>2013-04-24T16:43:31Z</time>
      </trkpt>
      <trkpt lat="59.8508615" lon="17.5010436">
        <ele>23.209</ele>
        <time>2013-04-24T16:43:32Z</time>
      </trkpt>
      <trkpt lat="59.8508753" lon="17.5009458">
        <ele>23.209</ele>
        <time>2013-04-24T16:43:33Z</time>
      </trkpt>
      <trkpt lat="59.8508882" lon="17.5008473">
        <ele>23.6896</ele>
        <time>2013-04-24T16:43:34Z</time>
      </trkpt>
      <trkpt lat="59.8509001" lon="17.5007481">
        <ele>23.6896</ele>
        <time>2013-04-24T16:43:35Z</time>
      </trkpt>
      <trkpt lat="59.8509133" lon="17.500649">
        <ele>23.6896</ele>
        <time>2013-04-24T16:43:36Z</time>
      </trkpt>
      <trkpt lat="59.8509269" lon="17.5005484">
        <ele>23.6896</ele>
        <time>2013-04-24T16:43:37Z</time>
      </trkpt>
      <trkpt lat="59.8509404" lon="17.500449">
        <ele>23.6896</ele>
        <time>2013-04-24T16:43:38Z</time>
      </trkpt>
      <trkpt lat="59.8509529" lon="17.5003523">
        <ele>23.6896</ele>
        <time>2013-04-24T16:43:39Z</time>
      </trkpt>
      <trkpt lat="59.8509636" lon="17.5002565">
        <ele>24.1703</ele>
        <time>2013-04-24T16:43:40Z</time>
      </trkpt>
      <trkpt lat="59.8509736" lon="17.5001614">
        <ele>24.1703</ele>
        <time>2013-04-24T16:43:41Z</time>
      </trkpt>
      <trkpt lat="59.8509827" lon="17.5000658">
        <ele>24.1703</ele>
        <time>2013-04-24T16:43:42Z</time>
      </trkpt>
      <trkpt lat="59.8509918" lon="17.4999684">
        <ele>24.1703</ele>
        <time>2013-04-24T16:43:43Z</time>
      </trkpt>
      <trkpt lat="59.8510015" lon="17.4998699">
        <ele>24.1703</ele>
        <time>2013-04-24T16:43:44Z</time>
      </trkpt>
      <trkpt lat="59.8510109" lon="17.4997699">
        <ele>24.1703</ele>
        <time>2013-04-24T16:43:45Z</time>
      </trkpt>
      <trkpt lat="59.8510187" lon="17.4996683">
        <ele>24.1703</ele>
        <time>2013-04-24T16:43:46Z</time>
      </trkpt>
      <trkpt lat="59.8510273" lon="17.4995692">
        <ele>24.1703</ele>
        <time>2013-04-24T16:43:47Z</time>
      </trkpt>
      <trkpt lat="59.851039" lon="17.4994714">
        <ele>24.1703</ele>
        <time>2013-04-24T16:43:48Z</time>
      </trkpt>
      <trkpt lat="59.8510519" lon="17.4993746">
        <ele>24.1703</ele>
        <time>2013-04-24T16:43:49Z</time>
      </trkpt>
      <trkpt lat="59.8510643" lon="17.4992798">
        <ele>24.651</ele>
        <time>2013-04-24T16:43:50Z</time>
      </trkpt>
      <trkpt lat="59.8510767" lon="17.4991858">
        <ele>24.1703</ele>
        <time>2013-04-24T16:43:51Z</time>
      </trkpt>
      <trkpt lat="59.8510886" lon="17.4990935">
        <ele>24.651</ele>
        <time>2013-04-24T16:43:52Z</time>
      </trkpt>
      <trkpt lat="59.8511003" lon="17.4990008">
        <ele>24.651</ele>
        <time>2013-04-24T16:43:53Z</time>
      </trkpt>
      <trkpt lat="59.8511103" lon="17.4989061">
        <ele>24.651</ele>
        <time>2013-04-24T16:43:54Z</time>
      </trkpt>
      <trkpt lat="59.8511181" lon="17.4988091">
        <ele>24.651</ele>
        <time>2013-04-24T16:43:55Z</time>
      </trkpt>
      <trkpt lat="59.8511258" lon="17.49871">
        <ele>24.651</ele>
        <time>2013-04-24T16:43:56Z</time>
      </trkpt>
      <trkpt lat="59.8511332" lon="17.4986102">
        <ele>25.1317</ele>
        <time>2013-04-24T16:43:57Z</time>
      </trkpt>
      <trkpt lat="59.8511409" lon="17.498504">
        <ele>24.651</ele>
        <time>2013-04-24T16:43:58Z</time>
      </trkpt>
      <trkpt lat="59.8511478" lon="17.4984024">
        <ele>25.1317</ele>
        <time>2013-04-24T16:43:59Z</time>
      </trkpt>
      <trkpt lat="59.8511518" lon="17.4983041">
        <ele>25.1317</ele>
        <time>2013-04-24T16:44:00Z</time>
      </trkpt>
      <trkpt lat="59.8511565" lon="17.4982075">
        <ele>25.1317</ele>
        <time>2013-04-24T16:44:01Z</time>
      </trkpt>
      <trkpt lat="59.8511621" lon="17.4981128">
        <ele>25.1317</ele>
        <time>2013-04-24T16:44:02Z</time>
      </trkpt>
      <trkpt lat="59.8511671" lon="17.4980197">
        <ele>25.1317</ele>
        <time>2013-04-24T16:44:03Z</time>
      </trkpt>
      <trkpt lat="59.851172" lon="17.4979279">
        <ele>25.1317</ele>
        <time>2013-04-24T16:44:04Z</time>
      </trkpt>
      <trkpt lat="59.8511768" lon="17.4978363">
        <ele>25.1317</ele>
        <time>2013-04-24T16:44:05Z</time>
      </trkpt>
      <trkpt lat="59.8511824" lon="17.4977451">
        <ele>25.1317</ele>
        <time>2013-04-24T16:44:06Z</time>
      </trkpt>
      <trkpt lat="59.851189" lon="17.4976554">
        <ele>25.1317</ele>
        <time>2013-04-24T16:44:07Z</time>
      </trkpt>
      <trkpt lat="59.8511954" lon="17.4975675">
        <ele>25.1317</ele>
        <time>2013-04-24T16:44:08Z</time>
      </trkpt>
      <trkpt lat="59.851201" lon="17.4974824">
        <ele>25.6123</ele>
        <time>2013-04-24T16:44:09Z</time>
      </trkpt>
      <trkpt lat="59.8512066" lon="17.4974005">
        <ele>25.6123</ele>
        <time>2013-04-24T16:44:10Z</time>
      </trkpt>
      <trkpt lat="59.8512133" lon="17.4973219">
        <ele>25.6123</ele>
        <time>2013-04-24T16:44:11Z</time>
      </trkpt>
      <trkpt lat="59.8512213" lon="17.4972457">
        <ele>25.6123</ele>
        <time>2013-04-24T16:44:12Z</time>
      </trkpt>
      <trkpt lat="59.851228" lon="17.4971682">
        <ele>25.6123</ele>
        <time>2013-04-24T16:44:13Z</time>
      </trkpt>
      <trkpt lat="59.8512342" lon="17.4970888">
        <ele>25.6123</ele>
        <time>2013-04-24T16:44:14Z</time>
      </trkpt>
      <trkpt lat="59.8512417" lon="17.4970086">
        <ele>25.6123</ele>
        <time>2013-04-24T16:44:15Z</time>
      </trkpt>
      <trkpt lat="59.8512497" lon="17.4969262">
        <ele>25.6123</ele>
        <time>2013-04-24T16:44:16Z</time>
      </trkpt>
      <trkpt lat="59.851257" lon="17.496842">
        <ele>26.0929</ele>
        <time>2013-04-24T16:44:17Z</time>
      </trkpt>
      <trkpt lat="59.8512643" lon="17.4967569">
        <ele>26.0929</ele>
        <time>2013-04-24T16:44:18Z</time>
      </trkpt>
      <trkpt lat="59.8512711" lon="17.4966712">
        <ele>26.0929</ele>
        <time>2013-04-24T16:44:19Z</time>
      </trkpt>
      <trkpt lat="59.8512745" lon="17.4965863">
        <ele>26.0929</ele>
        <time>2013-04-24T16:44:20Z</time>
      </trkpt>
      <trkpt lat="59.8512729" lon="17.4964983">
        <ele>26.0929</ele>
        <time>2013-04-24T16:44:21Z</time>
      </trkpt>
      <trkpt lat="59.8512684" lon="17.4964106">
        <ele>26.0929</ele>
        <time>2013-04-24T16:44:22Z</time>
      </trkpt>
      <trkpt lat="59.8512652" lon="17.4963232">
        <ele>26.0929</ele>
        <time>2013-04-24T16:44:23Z</time>
      </trkpt>
      <trkpt lat="59.8512645" lon="17.4962341">
        <ele>26.5736</ele>
        <time>2013-04-24T16:44:24Z</time>
      </trkpt>
      <trkpt lat="59.8512641" lon="17.4961414">
        <ele>26.5736</ele>
        <time>2013-04-24T16:44:25Z</time>
      </trkpt>
      <trkpt lat="59.8512647" lon="17.4960465">
        <ele>26.5736</ele>
        <time>2013-04-24T16:44:26Z</time>
      </trkpt>
      <trkpt lat="59.8512679" lon="17.4959509">
        <ele>27.0543</ele>
        <time>2013-04-24T16:44:27Z</time>
      </trkpt>
      <trkpt lat="59.851272" lon="17.495857">
        <ele>27.0543</ele>
        <time>2013-04-24T16:44:28Z</time>
      </trkpt>
      <trkpt lat="59.8512755" lon="17.4957635">
        <ele>27.0543</ele>
        <time>2013-04-24T16:44:29Z</time>
      </trkpt>
      <trkpt lat="59.8512771" lon="17.4956705">
        <ele>27.0543</ele>
        <time>2013-04-24T16:44:30Z</time>
      </trkpt>
      <trkpt lat="59.8512791" lon="17.4955788">
        <ele>27.0543</ele>
        <time>2013-04-24T16:44:31Z</time>
      </trkpt>
      <trkpt lat="59.8512818" lon="17.4954881">
        <ele>27.0543</ele>
        <time>2013-04-24T16:44:32Z</time>
      </trkpt>
      <trkpt lat="59.851284" lon="17.4953996">
        <ele>27.0543</ele>
        <time>2013-04-24T16:44:33Z</time>
      </trkpt>
      <trkpt lat="59.8512859" lon="17.4953137">
        <ele>27.5349</ele>
        <time>2013-04-24T16:44:34Z</time>
      </trkpt>
      <trkpt lat="59.8512871" lon="17.4952289">
        <ele>27.5349</ele>
        <time>2013-04-24T16:44:35Z</time>
      </trkpt>
      <trkpt lat="59.8512866" lon="17.4951455">
        <ele>28.0155</ele>
        <time>2013-04-24T16:44:36Z</time>
      </trkpt>
      <trkpt lat="59.851287" lon="17.4950644">
        <ele>28.0155</ele>
        <time>2013-04-24T16:44:37Z</time>
      </trkpt>
      <trkpt lat="59.8512892" lon="17.4949852">
        <ele>28.4962</ele>
        <time>2013-04-24T16:44:38Z</time>
      </trkpt>
      <trkpt lat="59.8512921" lon="17.4949055">
        <ele>28.4962</ele>
        <time>2013-04-24T16:44:39Z</time>
      </trkpt>
      <trkpt lat="59.8512943" lon="17.4948234">
        <ele>28.4962</ele>
        <time>2013-04-24T16:44:40Z</time>
      </trkpt>
      <trkpt lat="59.8512969" lon="17.4947386">
        <ele>28.4962</ele>
        <time>2013-04-24T16:44:41Z</time>
      </trkpt>
      <trkpt lat="59.851299" lon="17.494653">
        <ele>28.4962</ele>
        <time>2013-04-24T16:44:42Z</time>
      </trkpt>
      <trkpt lat="59.8513006" lon="17.4945674">
        <ele>28.4962</ele>
        <time>2013-04-24T16:44:43Z</time>
      </trkpt>
      <trkpt lat="59.8513031" lon="17.4944806">
        <ele>28.0155</ele>
        <time>2013-04-24T16:44:44Z</time>
      </trkpt>
      <trkpt lat="59.8513063" lon="17.494392">
        <ele>28.0155</ele>
        <time>2013-04-24T16:44:45Z</time>
      </trkpt>
      <trkpt lat="59.8513094" lon="17.4943031">
        <ele>28.0155</ele>
        <time>2013-04-24T16:44:46Z</time>
      </trkpt>
      <trkpt lat="59.8513108" lon="17.4942136">
        <ele>28.0155</ele>
        <time>2013-04-24T16:44:47Z</time>
      </trkpt>
      <trkpt lat="59.8513115" lon="17.494124">
        <ele>28.0155</ele>
        <time>2013-04-24T16:44:48Z</time>
      </trkpt>
      <trkpt lat="59.8513148" lon="17.4940341">
        <ele>28.0155</ele>
        <time>2013-04-24T16:44:49Z</time>
      </trkpt>
      <trkpt lat="59.8513202" lon="17.4939451">
        <ele>28.0155</ele>
        <time>2013-04-24T16:44:50Z</time>
      </trkpt>
      <trkpt lat="59.8513259" lon="17.4938609">
        <ele>28.0155</ele>
        <time>2013-04-24T16:44:51Z</time>
      </trkpt>
      <trkpt lat="59.8513301" lon="17.4937777">
        <ele>28.0155</ele>
        <time>2013-04-24T16:44:52Z</time>
      </trkpt>
      <trkpt lat="59.8513331" lon="17.4936938">
        <ele>28.0155</ele>
        <time>2013-04-24T16:44:53Z</time>
      </trkpt>
      <trkpt lat="59.8513357" lon="17.4936118">
        <ele>28.4962</ele>
        <time>2013-04-24T16:44:54Z</time>
      </trkpt>
      <trkpt lat="59.8513386" lon="17.4935301">
        <ele>28.4962</ele>
        <time>2013-04-24T16:44:55Z</time>
      </trkpt>
      <trkpt lat="59.851343" lon="17.4934493">
        <ele>28.4962</ele>
        <time>2013-04-24T16:44:56Z</time>
      </trkpt>
      <trkpt lat="59.851348" lon="17.4933712">
        <ele>28.4962</ele>
        <time>2013-04-24T16:44:57Z</time>
      </trkpt>
      <trkpt lat="59.8513538" lon="17.4932931">
        <ele>28.4962</ele>
        <time>2013-04-24T16:44:58Z</time>
      </trkpt>
      <trkpt lat="59.85136" lon="17.4932157">
        <ele>28.9769</ele>
        <time>2013-04-24T16:44:59Z</time>
      </trkpt>
      <trkpt lat="59.8513657" lon="17.4931381">
        <ele>28.9769</ele>
        <time>2013-04-24T16:45:00Z</time>
      </trkpt>
      <trkpt lat="59.851371" lon="17.49306">
        <ele>28.9769</ele>
        <time>2013-04-24T16:45:01Z</time>
      </trkpt>
      <trkpt lat="59.8513764" lon="17.4929813">
        <ele>28.9769</ele>
        <time>2013-04-24T16:45:02Z</time>
      </trkpt>
      <trkpt lat="59.8513822" lon="17.4929033">
        <ele>28.9769</ele>
        <time>2013-04-24T16:45:03Z</time>
      </trkpt>
      <trkpt lat="59.85139" lon="17.4928257">
        <ele>28.9769</ele>
        <time>2013-04-24T16:45:04Z</time>
      </trkpt>
      <trkpt lat="59.8513989" lon="17.4927493">
        <ele>29.4575</ele>
        <time>2013-04-24T16:45:05Z</time>
      </trkpt>
      <trkpt lat="59.8514077" lon="17.4926738">
        <ele>29.4575</ele>
        <time>2013-04-24T16:45:06Z</time>
      </trkpt>
      <trkpt lat="59.8514164" lon="17.4925973">
        <ele>29.4575</ele>
        <time>2013-04-24T16:45:07Z</time>
      </trkpt>
      <trkpt lat="59.8514243" lon="17.4925206">
        <ele>29.9381</ele>
        <time>2013-04-24T16:45:08Z</time>
      </trkpt>
      <trkpt lat="59.851431" lon="17.4924438">
        <ele>29.9381</ele>
        <time>2013-04-24T16:45:09Z</time>
      </trkpt>
      <trkpt lat="59.8514386" lon="17.4923678">
        <ele>29.9381</ele>
        <time>2013-04-24T16:45:10Z</time>
      </trkpt>
      <trkpt lat="59.8514469" lon="17.4922934">
        <ele>30.4188</ele>
        <time>2013-04-24T16:45:11Z</time>
      </trkpt>
      <trkpt lat="59.8514549" lon="17.4922191">
        <ele>30.4188</ele>
        <time>2013-04-24T16:45:12Z</time>
      </trkpt>
      <trkpt lat="59.8514622" lon="17.4921439">
        <ele>30.4188</ele>
        <time>2013-04-24T16:45:13Z</time>
      </trkpt>
      <trkpt lat="59.8514692" lon="17.4920682">
        <ele>30.8995</ele>
        <time>2013-04-24T16:45:14Z</time>
      </trkpt>
      <trkpt lat="59.8514764" lon="17.4919885">
        <ele>30.8995</ele>
        <time>2013-04-24T16:45:15Z</time>
      </trkpt>
      <trkpt lat="59.8514844" lon="17.4919029">
        <ele>31.3801</ele>
        <time>2013-04-24T16:45:16Z</time>
      </trkpt>
      <trkpt lat="59.8514911" lon="17.4918117">
        <ele>31.3801</ele>
        <time>2013-04-24T16:45:17Z</time>
      </trkpt>
      <trkpt lat="59.8514969" lon="17.4917176">
        <ele>31.8607</ele>
        <time>2013-04-24T16:45:18Z</time>
      </trkpt>
      <trkpt lat="59.8514999" lon="17.4916247">
        <ele>31.8607</ele>
        <time>2013-04-24T16:45:19Z</time>
      </trkpt>
      <trkpt lat="59.8514979" lon="17.4915327">
        <ele>32.3416</ele>
        <time>2013-04-24T16:45:20Z</time>
      </trkpt>
      <trkpt lat="59.8514927" lon="17.4914409">
        <ele>32.8223</ele>
        <time>2013-04-24T16:45:21Z</time>
      </trkpt>
      <trkpt lat="59.8514849" lon="17.4913472">
        <ele>32.8223</ele>
        <time>2013-04-24T16:45:22Z</time>
      </trkpt>
      <trkpt lat="59.8514755" lon="17.4912523">
        <ele>33.3029</ele>
        <time>2013-04-24T16:45:23Z</time>
      </trkpt>
      <trkpt lat="59.8514677" lon="17.4911548">
        <ele>33.7834</ele>
        <time>2013-04-24T16:45:24Z</time>
      </trkpt>
      <trkpt lat="59.8514637" lon="17.4910574">
        <ele>34.2642</ele>
        <time>2013-04-24T16:45:25Z</time>
      </trkpt>
      <trkpt lat="59.8514619" lon="17.4909611">
        <ele>34.2642</ele>
        <time>2013-04-24T16:45:26Z</time>
      </trkpt>
      <trkpt lat="59.8514616" lon="17.4908669">
        <ele>34.2642</ele>
        <time>2013-04-24T16:45:27Z</time>
      </trkpt>
      <trkpt lat="59.85146" lon="17.4907774">
        <ele>34.2642</ele>
        <time>2013-04-24T16:45:28Z</time>
      </trkpt>
      <trkpt lat="59.8514585" lon="17.4906922">
        <ele>34.2642</ele>
        <time>2013-04-24T16:45:29Z</time>
      </trkpt>
      <trkpt lat="59.8514584" lon="17.4906044">
        <ele>34.2642</ele>
        <time>2013-04-24T16:45:30Z</time>
      </trkpt>
      <trkpt lat="59.8514599" lon="17.4905151">
        <ele>33.7834</ele>
        <time>2013-04-24T16:45:31Z</time>
      </trkpt>
      <trkpt lat="59.851463" lon="17.4904237">
        <ele>33.7834</ele>
        <time>2013-04-24T16:45:32Z</time>
      </trkpt>
      <trkpt lat="59.8514674" lon="17.4903319">
        <ele>33.3029</ele>
        <time>2013-04-24T16:45:33Z</time>
      </trkpt>
      <trkpt lat="59.8514721" lon="17.4902391">
        <ele>33.3029</ele>
        <time>2013-04-24T16:45:34Z</time>
      </trkpt>
      <trkpt lat="59.8514764" lon="17.4901434">
        <ele>32.8223</ele>
        <time>2013-04-24T16:45:35Z</time>
      </trkpt>
      <trkpt lat="59.8514798" lon="17.490048">
        <ele>32.8223</ele>
        <time>2013-04-24T16:45:36Z</time>
      </trkpt>
      <trkpt lat="59.8514823" lon="17.4899512">
        <ele>32.8223</ele>
        <time>2013-04-24T16:45:37Z</time>
      </trkpt>
      <trkpt lat="59.8514849" lon="17.4898501">
        <ele>32.8223</ele>
        <time>2013-04-24T16:45:38Z</time>
      </trkpt>
      <trkpt lat="59.8514888" lon="17.4897472">
        <ele>32.3416</ele>
        <time>2013-04-24T16:45:39Z</time>
      </trkpt>
      <trkpt lat="59.851493" lon="17.4896429">
        <ele>32.3416</ele>
        <time>2013-04-24T16:45:40Z</time>
      </trkpt>
      <trkpt lat="59.8514968" lon="17.4895362">
        <ele>32.3416</ele>
        <time>2013-04-24T16:45:41Z</time>
      </trkpt>
      <trkpt lat="59.8514999" lon="17.4894276">
        <ele>32.3416</ele>
        <time>2013-04-24T16:45:42Z</time>
      </trkpt>
      <trkpt lat="59.8515035" lon="17.4893171">
        <ele>32.3416</ele>
        <time>2013-04-24T16:45:43Z</time>
      </trkpt>
      <trkpt lat="59.8515091" lon="17.4892077">
        <ele>32.3416</ele>
        <time>2013-04-24T16:45:44Z</time>
      </trkpt>
      <trkpt lat="59.8515155" lon="17.4891001">
        <ele>32.3416</ele>
        <time>2013-04-24T16:45:45Z</time>
      </trkpt>
      <trkpt lat="59.8515211" lon="17.4889931">
        <ele>31.8607</ele>
        <time>2013-04-24T16:45:46Z</time>
      </trkpt>
      <trkpt lat="59.8515269" lon="17.4888859">
        <ele>31.8607</ele>
        <time>2013-04-24T16:45:47Z</time>
      </trkpt>
      <trkpt lat="59.851532" lon="17.4887788">
        <ele>31.8607</ele>
        <time>2013-04-24T16:45:48Z</time>
      </trkpt>
      <trkpt lat="59.8515346" lon="17.4886691">
        <ele>31.8607</ele>
        <time>2013-04-24T16:45:49Z</time>
      </trkpt>
      <trkpt lat="59.8515368" lon="17.4885577">
        <ele>31.8607</ele>
        <time>2013-04-24T16:45:50Z</time>
      </trkpt>
      <trkpt lat="59.8515409" lon="17.4884463">
        <ele>31.3801</ele>
        <time>2013-04-24T16:45:51Z</time>
      </trkpt>
      <trkpt lat="59.8515437" lon="17.488335">
        <ele>31.3801</ele>
        <time>2013-04-24T16:45:52Z</time>
      </trkpt>
      <trkpt lat="59.851547" lon="17.4882241">
        <ele>31.3801</ele>
        <time>2013-04-24T16:45:53Z</time>
      </trkpt>
      <trkpt lat="59.851547" lon="17.4881117">
        <ele>31.3801</ele>
        <time>2013-04-24T16:45:54Z</time>
      </trkpt>
      <trkpt lat="59.8515481" lon="17.4880003">
        <ele>31.3801</ele>
        <time>2013-04-24T16:45:55Z</time>
      </trkpt>
      <trkpt lat="59.8515476" lon="17.4878842">
        <ele>31.3801</ele>
        <time>2013-04-24T16:45:56Z</time>
      </trkpt>
      <trkpt lat="59.8515495" lon="17.4877703">
        <ele>30.8995</ele>
        <time>2013-04-24T16:45:57Z</time>
      </trkpt>
      <trkpt lat="59.8515543" lon="17.4876569">
        <ele>30.8995</ele>
        <time>2013-04-24T16:45:58Z</time>
      </trkpt>
      <trkpt lat="59.8515605" lon="17.4875454">
        <ele>30.8995</ele>
        <time>2013-04-24T16:45:59Z</time>
      </trkpt>
      <trkpt lat="59.8515648" lon="17.4874326">
        <ele>30.8995</ele>
        <time>2013-04-24T16:46:00Z</time>
      </trkpt>
      <trkpt lat="59.8515697" lon="17.4873208">
        <ele>30.8995</ele>
        <time>2013-04-24T16:46:01Z</time>
      </trkpt>
      <trkpt lat="59.851573" lon="17.4872084">
        <ele>30.8995</ele>
        <time>2013-04-24T16:46:02Z</time>
      </trkpt>
      <trkpt lat="59.8515766" lon="17.4870959">
        <ele>30.4188</ele>
        <time>2013-04-24T16:46:03Z</time>
      </trkpt>
      <trkpt lat="59.8515807" lon="17.4869798">
        <ele>30.4188</ele>
        <time>2013-04-24T16:46:04Z</time>
      </trkpt>
      <trkpt lat="59.8515831" lon="17.486861">
        <ele>30.4188</ele>
        <time>2013-04-24T16:46:05Z</time>
      </trkpt>
      <trkpt lat="59.851585" lon="17.4867426">
        <ele>29.9381</ele>
        <time>2013-04-24T16:46:06Z</time>
      </trkpt>
      <trkpt lat="59.8515827" lon="17.4866215">
        <ele>29.9381</ele>
        <time>2013-04-24T16:46:07Z</time>
      </trkpt>
      <trkpt lat="59.8515833" lon="17.4864975">
        <ele>29.9381</ele>
        <time>2013-04-24T16:46:08Z</time>
      </trkpt>
      <trkpt lat="59.8515871" lon="17.4863751">
        <ele>29.9381</ele>
        <time>2013-04-24T16:46:09Z</time>
      </trkpt>
      <trkpt lat="59.8515926" lon="17.4862578">
        <ele>29.9381</ele>
        <time>2013-04-24T16:46:10Z</time>
      </trkpt>
      <trkpt lat="59.8515969" lon="17.4861448">
        <ele>29.9381</ele>
        <time>2013-04-24T16:46:11Z</time>
      </trkpt>
      <trkpt lat="59.8515994" lon="17.4860308">
        <ele>29.9381</ele>
        <time>2013-04-24T16:46:12Z</time>
      </trkpt>
      <trkpt lat="59.8515993" lon="17.4859193">
        <ele>29.9381</ele>
        <time>2013-04-24T16:46:13Z</time>
      </trkpt>
      <trkpt lat="59.8516009" lon="17.4858112">
        <ele>30.4188</ele>
        <time>2013-04-24T16:46:14Z</time>
      </trkpt>
      <trkpt lat="59.851603" lon="17.4857071">
        <ele>30.4188</ele>
        <time>2013-04-24T16:46:15Z</time>
      </trkpt>
      <trkpt lat="59.8516039" lon="17.4856036">
        <ele>30.4188</ele>
        <time>2013-04-24T16:46:16Z</time>
      </trkpt>
      <trkpt lat="59.8516057" lon="17.4854963">
        <ele>29.9381</ele>
        <time>2013-04-24T16:46:17Z</time>
      </trkpt>
      <trkpt lat="59.8516087" lon="17.485392">
        <ele>30.4188</ele>
        <time>2013-04-24T16:46:18Z</time>
      </trkpt>
      <trkpt lat="59.8516119" lon="17.4852828">
        <ele>30.4188</ele>
        <time>2013-04-24T16:46:19Z</time>
      </trkpt>
      <trkpt lat="59.851616" lon="17.4851718">
        <ele>30.4188</ele>
        <time>2013-04-24T16:46:20Z</time>
      </trkpt>
      <trkpt lat="59.8516235" lon="17.4850611">
        <ele>30.4188</ele>
        <time>2013-04-24T16:46:21Z</time>
      </trkpt>
      <trkpt lat="59.8516321" lon="17.4849504">
        <ele>30.8995</ele>
        <time>2013-04-24T16:46:22Z</time>
      </trkpt>
      <trkpt lat="59.8516339" lon="17.484839">
        <ele>30.8995</ele>
        <time>2013-04-24T16:46:23Z</time>
      </trkpt>
      <trkpt lat="59.8516284" lon="17.4847297">
        <ele>30.8995</ele>
        <time>2013-04-24T16:46:24Z</time>
      </trkpt>
      <trkpt lat="59.8516268" lon="17.4846213">
        <ele>30.8995</ele>
        <time>2013-04-24T16:46:25Z</time>
      </trkpt>
      <trkpt lat="59.851632" lon="17.4845129">
        <ele>30.8995</ele>
        <time>2013-04-24T16:46:26Z</time>
      </trkpt>
      <trkpt lat="59.8516373" lon="17.4843987">
        <ele>30.8995</ele>
        <time>2013-04-24T16:46:27Z</time>
      </trkpt>
      <trkpt lat="59.8516382" lon="17.4842783">
        <ele>30.4188</ele>
        <time>2013-04-24T16:46:28Z</time>
      </trkpt>
      <trkpt lat="59.8516365" lon="17.4841542">
        <ele>30.4188</ele>
        <time>2013-04-24T16:46:29Z</time>
      </trkpt>
      <trkpt lat="59.8516341" lon="17.4840316">
        <ele>30.4188</ele>
        <time>2013-04-24T16:46:30Z</time>
      </trkpt>
      <trkpt lat="59.8516314" lon="17.4839106">
        <ele>30.4188</ele>
        <time>2013-04-24T16:46:31Z</time>
      </trkpt>
      <trkpt lat="59.8516298" lon="17.4837909">
        <ele>30.4188</ele>
        <time>2013-04-24T16:46:32Z</time>
      </trkpt>
      <trkpt lat="59.8516289" lon="17.4836716">
        <ele>30.4188</ele>
        <time>2013-04-24T16:46:33Z</time>
      </trkpt>
      <trkpt lat="59.8516277" lon="17.4835527">
        <ele>30.8995</ele>
        <time>2013-04-24T16:46:34Z</time>
      </trkpt>
      <trkpt lat="59.8516263" lon="17.4834367">
        <ele>30.8995</ele>
        <time>2013-04-24T16:46:35Z</time>
      </trkpt>
      <trkpt lat="59.8516237" lon="17.4833222">
        <ele>30.8995</ele>
        <time>2013-04-24T16:46:36Z</time>
      </trkpt>
      <trkpt lat="59.8516209" lon="17.4832098">
        <ele>30.8995</ele>
        <time>2013-04-24T16:46:37Z</time>
      </trkpt>
      <trkpt lat="59.8516196" lon="17.4831014">
        <ele>30.8995</ele>
        <time>2013-04-24T16:46:38Z</time>
      </trkpt>
      <trkpt lat="59.8516187" lon="17.4829952">
        <ele>30.8995</ele>
        <time>2013-04-24T16:46:39Z</time>
      </trkpt>
      <trkpt lat="59.8516165" lon="17.4828901">
        <ele>30.8995</ele>
        <time>2013-04-24T16:46:40Z</time>
      </trkpt>
      <trkpt lat="59.8516126" lon="17.4827858">
        <ele>30.8995</ele>
        <time>2013-04-24T16:46:41Z</time>
      </trkpt>
      <trkpt lat="59.8516091" lon="17.4826819">
        <ele>30.8995</ele>
        <time>2013-04-24T16:46:42Z</time>
      </trkpt>
      <trkpt lat="59.8516071" lon="17.4825779">
        <ele>30.8995</ele>
        <time>2013-04-24T16:46:43Z</time>
      </trkpt>
      <trkpt lat="59.8516044" lon="17.4824746">
        <ele>30.8995</ele>
        <time>2013-04-24T16:46:44Z</time>
      </trkpt>
      <trkpt lat="59.8516005" lon="17.4823722">
        <ele>30.8995</ele>
        <time>2013-04-24T16:46:45Z</time>
      </trkpt>
      <trkpt lat="59.8515959" lon="17.4822709">
        <ele>30.8995</ele>
        <time>2013-04-24T16:46:46Z</time>
      </trkpt>
      <trkpt lat="59.8515909" lon="17.4821686">
        <ele>30.8995</ele>
        <time>2013-04-24T16:46:47Z</time>
      </trkpt>
      <trkpt lat="59.8515867" lon="17.482065">
        <ele>30.8995</ele>
        <time>2013-04-24T16:46:48Z</time>
      </trkpt>
      <trkpt lat="59.8515829" lon="17.4819609">
        <ele>30.8995</ele>
        <time>2013-04-24T16:46:49Z</time>
      </trkpt>
      <trkpt lat="59.8515792" lon="17.4818571">
        <ele>31.3801</ele>
        <time>2013-04-24T16:46:50Z</time>
      </trkpt>
      <trkpt lat="59.8515761" lon="17.4817538">
        <ele>31.3801</ele>
        <time>2013-04-24T16:46:51Z</time>
      </trkpt>
      <trkpt lat="59.8515739" lon="17.4816516">
        <ele>31.3801</ele>
        <time>2013-04-24T16:46:52Z</time>
      </trkpt>
      <trkpt lat="59.8515724" lon="17.4815501">
        <ele>31.3801</ele>
        <time>2013-04-24T16:46:53Z</time>
      </trkpt>
      <trkpt lat="59.8515709" lon="17.4814495">
        <ele>31.3801</ele>
        <time>2013-04-24T16:46:54Z</time>
      </trkpt>
      <trkpt lat="59.8515691" lon="17.4813494">
        <ele>31.3801</ele>
        <time>2013-04-24T16:46:55Z</time>
      </trkpt>
      <trkpt lat="59.8515672" lon="17.4812501">
        <ele>31.3801</ele>
        <time>2013-04-24T16:46:56Z</time>
      </trkpt>
      <trkpt lat="59.8515653" lon="17.4811522">
        <ele>31.3801</ele>
        <time>2013-04-24T16:46:57Z</time>
      </trkpt>
      <trkpt lat="59.851564" lon="17.4810553">
        <ele>31.3801</ele>
        <time>2013-04-24T16:46:58Z</time>
      </trkpt>
      <trkpt lat="59.8515627" lon="17.480959">
        <ele>31.3801</ele>
        <time>2013-04-24T16:46:59Z</time>
      </trkpt>
      <trkpt lat="59.8515615" lon="17.4808628">
        <ele>31.3801</ele>
        <time>2013-04-24T16:47:00Z</time>
      </trkpt>
      <trkpt lat="59.8515595" lon="17.4807663">
        <ele>31.3801</ele>
        <time>2013-04-24T16:47:01Z</time>
      </trkpt>
      <trkpt lat="59.8515573" lon="17.480669">
        <ele>31.3801</ele>
        <time>2013-04-24T16:47:02Z</time>
      </trkpt>
      <trkpt lat="59.8515543" lon="17.480571">
        <ele>31.3801</ele>
        <time>2013-04-24T16:47:03Z</time>
      </trkpt>
      <trkpt lat="59.8515512" lon="17.4804719">
        <ele>31.3801</ele>
        <time>2013-04-24T16:47:04Z</time>
      </trkpt>
      <trkpt lat="59.8515479" lon="17.4803721">
        <ele>31.3801</ele>
        <time>2013-04-24T16:47:05Z</time>
      </trkpt>
      <trkpt lat="59.851543" lon="17.480268">
        <ele>31.3801</ele>
        <time>2013-04-24T16:47:06Z</time>
      </trkpt>
      <trkpt lat="59.8515377" lon="17.480153">
        <ele>30.8995</ele>
        <time>2013-04-24T16:47:07Z</time>
      </trkpt>
      <trkpt lat="59.8515347" lon="17.4800265">
        <ele>30.4188</ele>
        <time>2013-04-24T16:47:08Z</time>
      </trkpt>
      <trkpt lat="59.8515351" lon="17.4798927">
        <ele>29.9381</ele>
        <time>2013-04-24T16:47:09Z</time>
      </trkpt>
      <trkpt lat="59.8515351" lon="17.4797552">
        <ele>29.4575</ele>
        <time>2013-04-24T16:47:10Z</time>
      </trkpt>
      <trkpt lat="59.851533" lon="17.4796161">
        <ele>29.4575</ele>
        <time>2013-04-24T16:47:11Z</time>
      </trkpt>
      <trkpt lat="59.8515306" lon="17.4794787">
        <ele>29.4575</ele>
        <time>2013-04-24T16:47:12Z</time>
      </trkpt>
      <trkpt lat="59.8515279" lon="17.4793445">
        <ele>29.4575</ele>
        <time>2013-04-24T16:47:13Z</time>
      </trkpt>
      <trkpt lat="59.8515242" lon="17.4792119">
        <ele>29.4575</ele>
        <time>2013-04-24T16:47:14Z</time>
      </trkpt>
      <trkpt lat="59.8515201" lon="17.4790819">
        <ele>29.4575</ele>
        <time>2013-04-24T16:47:15Z</time>
      </trkpt>
      <trkpt lat="59.8515164" lon="17.4789548">
        <ele>29.4575</ele>
        <time>2013-04-24T16:47:16Z</time>
      </trkpt>
      <trkpt lat="59.8515128" lon="17.4788296">
        <ele>28.9769</ele>
        <time>2013-04-24T16:47:17Z</time>
      </trkpt>
      <trkpt lat="59.8515102" lon="17.4787062">
        <ele>28.9769</ele>
        <time>2013-04-24T16:47:18Z</time>
      </trkpt>
      <trkpt lat="59.8515081" lon="17.4785839">
        <ele>28.9769</ele>
        <time>2013-04-24T16:47:19Z</time>
      </trkpt>
      <trkpt lat="59.8515056" lon="17.4784618">
        <ele>28.9769</ele>
        <time>2013-04-24T16:47:20Z</time>
      </trkpt>
      <trkpt lat="59.8515036" lon="17.4783401">
        <ele>28.9769</ele>
        <time>2013-04-24T16:47:21Z</time>
      </trkpt>
      <trkpt lat="59.8515008" lon="17.4782187">
        <ele>28.9769</ele>
        <time>2013-04-24T16:47:22Z</time>
      </trkpt>
      <trkpt lat="59.8514978" lon="17.4780963">
        <ele>28.9769</ele>
        <time>2013-04-24T16:47:23Z</time>
      </trkpt>
      <trkpt lat="59.8514958" lon="17.477973">
        <ele>28.9769</ele>
        <time>2013-04-24T16:47:24Z</time>
      </trkpt>
      <trkpt lat="59.8514941" lon="17.4778488">
        <ele>28.9769</ele>
        <time>2013-04-24T16:47:25Z</time>
      </trkpt>
      <trkpt lat="59.8514919" lon="17.4777244">
        <ele>28.9769</ele>
        <time>2013-04-24T16:47:26Z</time>
      </trkpt>
      <trkpt lat="59.8514885" lon="17.4775997">
        <ele>28.9769</ele>
        <time>2013-04-24T16:47:27Z</time>
      </trkpt>
      <trkpt lat="59.8514863" lon="17.4774764">
        <ele>28.9769</ele>
        <time>2013-04-24T16:47:28Z</time>
      </trkpt>
      <trkpt lat="59.8514848" lon="17.4773562">
        <ele>28.9769</ele>
        <time>2013-04-24T16:47:29Z</time>
      </trkpt>
      <trkpt lat="59.8514829" lon="17.4772382">
        <ele>28.9769</ele>
        <time>2013-04-24T16:47:30Z</time>
      </trkpt>
      <trkpt lat="59.8514819" lon="17.4771211">
        <ele>28.9769</ele>
        <time>2013-04-24T16:47:31Z</time>
      </trkpt>
      <trkpt lat="59.8514807" lon="17.4770043">
        <ele>28.9769</ele>
        <time>2013-04-24T16:47:32Z</time>
      </trkpt>
      <trkpt lat="59.8514788" lon="17.4768871">
        <ele>28.9769</ele>
        <time>2013-04-24T16:47:33Z</time>
      </trkpt>
      <trkpt lat="59.8514774" lon="17.4767699">
        <ele>28.9769</ele>
        <time>2013-04-24T16:47:34Z</time>
      </trkpt>
      <trkpt lat="59.851476" lon="17.4766531">
        <ele>28.9769</ele>
        <time>2013-04-24T16:47:35Z</time>
      </trkpt>
      <trkpt lat="59.8514744" lon="17.4765368">
        <ele>28.9769</ele>
        <time>2013-04-24T16:47:36Z</time>
      </trkpt>
      <trkpt lat="59.8514719" lon="17.4764218">
        <ele>28.9769</ele>
        <time>2013-04-24T16:47:37Z</time>
      </trkpt>
      <trkpt lat="59.8514694" lon="17.4763084">
        <ele>28.9769</ele>
        <time>2013-04-24T16:47:38Z</time>
      </trkpt>
      <trkpt lat="59.8514662" lon="17.476196">
        <ele>28.9769</ele>
        <time>2013-04-24T16:47:39Z</time>
      </trkpt>
      <trkpt lat="59.8514632" lon="17.4760835">
        <ele>28.9769</ele>
        <time>2013-04-24T16:47:40Z</time>
      </trkpt>
      <trkpt lat="59.8514616" lon="17.4759706">
        <ele>28.9769</ele>
        <time>2013-04-24T16:47:41Z</time>
      </trkpt>
      <trkpt lat="59.85146" lon="17.4758585">
        <ele>28.4962</ele>
        <time>2013-04-24T16:47:42Z</time>
      </trkpt>
      <trkpt lat="59.8514574" lon="17.4757482">
        <ele>28.4962</ele>
        <time>2013-04-24T16:47:43Z</time>
      </trkpt>
      <trkpt lat="59.8514528" lon="17.475639">
        <ele>28.4962</ele>
        <time>2013-04-24T16:47:44Z</time>
      </trkpt>
      <trkpt lat="59.851447" lon="17.4755287">
        <ele>28.4962</ele>
        <time>2013-04-24T16:47:45Z</time>
      </trkpt>
      <trkpt lat="59.8514423" lon="17.4754173">
        <ele>28.4962</ele>
        <time>2013-04-24T16:47:46Z</time>
      </trkpt>
      <trkpt lat="59.8514389" lon="17.4753064">
        <ele>28.4962</ele>
        <time>2013-04-24T16:47:47Z</time>
      </trkpt>
      <trkpt lat="59.8514352" lon="17.4751956">
        <ele>28.4962</ele>
        <time>2013-04-24T16:47:48Z</time>
      </trkpt>
      <trkpt lat="59.8514303" lon="17.4750864">
        <ele>28.9769</ele>
        <time>2013-04-24T16:47:49Z</time>
      </trkpt>
      <trkpt lat="59.8514257" lon="17.4749775">
        <ele>28.9769</ele>
        <time>2013-04-24T16:47:50Z</time>
      </trkpt>
      <trkpt lat="59.8514201" lon="17.4748691">
        <ele>28.9769</ele>
        <time>2013-04-24T16:47:51Z</time>
      </trkpt>
      <trkpt lat="59.851414" lon="17.4747611">
        <ele>28.9769</ele>
        <time>2013-04-24T16:47:52Z</time>
      </trkpt>
      <trkpt lat="59.8514077" lon="17.4746581">
        <ele>28.9769</ele>
        <time>2013-04-24T16:47:53Z</time>
      </trkpt>
      <trkpt lat="59.8514029" lon="17.4745681">
        <ele>28.9769</ele>
        <time>2013-04-24T16:47:54Z</time>
      </trkpt>
      <trkpt lat="59.8514005" lon="17.4744952">
        <ele>28.9769</ele>
        <time>2013-04-24T16:47:55Z</time>
      </trkpt>
      <trkpt lat="59.8513982" lon="17.4744343">
        <ele>28.9769</ele>
        <time>2013-04-24T16:47:56Z</time>
      </trkpt>
      <trkpt lat="59.8513942" lon="17.4743818">
        <ele>28.9769</ele>
        <time>2013-04-24T16:47:57Z</time>
      </trkpt>
      <trkpt lat="59.8513923" lon="17.4743352">
        <ele>28.9769</ele>
        <time>2013-04-24T16:47:58Z</time>
      </trkpt>
      <trkpt lat="59.8513911" lon="17.4742949">
        <ele>28.9769</ele>
        <time>2013-04-24T16:47:59Z</time>
      </trkpt>
      <trkpt lat="59.8513818" lon="17.4742706">
        <ele>28.9769</ele>
        <time>2013-04-24T16:48:00Z</time>
      </trkpt>
      <trkpt lat="59.8513699" lon="17.4742782">
        <ele>28.9769</ele>
        <time>2013-04-24T16:48:01Z</time>
      </trkpt>
      <trkpt lat="59.8513662" lon="17.4743088">
        <ele>28.9769</ele>
        <time>2013-04-24T16:48:02Z</time>
      </trkpt>
      <trkpt lat="59.8513715" lon="17.4743461">
        <ele>28.9769</ele>
        <time>2013-04-24T16:48:03Z</time>
      </trkpt>
      <trkpt lat="59.8513808" lon="17.4743912">
        <ele>28.4962</ele>
        <time>2013-04-24T16:48:04Z</time>
      </trkpt>
      <trkpt lat="59.8513902" lon="17.4744511">
        <ele>28.4962</ele>
        <time>2013-04-24T16:48:05Z</time>
      </trkpt>
      <trkpt lat="59.8513975" lon="17.4745242">
        <ele>28.0155</ele>
        <time>2013-04-24T16:48:06Z</time>
      </trkpt>
      <trkpt lat="59.8514056" lon="17.4746082">
        <ele>28.0155</ele>
        <time>2013-04-24T16:48:07Z</time>
      </trkpt>
      <trkpt lat="59.851414" lon="17.4747015">
        <ele>27.5349</ele>
        <time>2013-04-24T16:48:08Z</time>
      </trkpt>
      <trkpt lat="59.8514217" lon="17.4748031">
        <ele>27.5349</ele>
        <time>2013-04-24T16:48:09Z</time>
      </trkpt>
      <trkpt lat="59.8514295" lon="17.4749123">
        <ele>27.5349</ele>
        <time>2013-04-24T16:48:10Z</time>
      </trkpt>
      <trkpt lat="59.8514378" lon="17.4750277">
        <ele>27.5349</ele>
        <time>2013-04-24T16:48:11Z</time>
      </trkpt>
      <trkpt lat="59.8514453" lon="17.4751485">
        <ele>27.5349</ele>
        <time>2013-04-24T16:48:12Z</time>
      </trkpt>
      <trkpt lat="59.8514507" lon="17.4752744">
        <ele>27.5349</ele>
        <time>2013-04-24T16:48:13Z</time>
      </trkpt>
      <trkpt lat="59.8514549" lon="17.475406">
        <ele>27.0543</ele>
        <time>2013-04-24T16:48:14Z</time>
      </trkpt>
      <trkpt lat="59.8514584" lon="17.4755418">
        <ele>27.0543</ele>
        <time>2013-04-24T16:48:15Z</time>
      </trkpt>
      <trkpt lat="59.8514609" lon="17.4756808">
        <ele>26.5736</ele>
        <time>2013-04-24T16:48:16Z</time>
      </trkpt>
      <trkpt lat="59.8514641" lon="17.4758222">
        <ele>26.5736</ele>
        <time>2013-04-24T16:48:17Z</time>
      </trkpt>
      <trkpt lat="59.8514683" lon="17.475966">
        <ele>26.5736</ele>
        <time>2013-04-24T16:48:18Z</time>
      </trkpt>
      <trkpt lat="59.8514728" lon="17.4761123">
        <ele>26.5736</ele>
        <time>2013-04-24T16:48:19Z</time>
      </trkpt>
      <trkpt lat="59.8514757" lon="17.4762599">
        <ele>26.0929</ele>
        <time>2013-04-24T16:48:20Z</time>
      </trkpt>
      <trkpt lat="59.8514771" lon="17.4764078">
        <ele>26.0929</ele>
        <time>2013-04-24T16:48:21Z</time>
      </trkpt>
      <trkpt lat="59.8514792" lon="17.4765562">
        <ele>25.6123</ele>
        <time>2013-04-24T16:48:22Z</time>
      </trkpt>
      <trkpt lat="59.8514822" lon="17.4767051">
        <ele>25.6123</ele>
        <time>2013-04-24T16:48:23Z</time>
      </trkpt>
      <trkpt lat="59.8514839" lon="17.4768555">
        <ele>25.6123</ele>
        <time>2013-04-24T16:48:24Z</time>
      </trkpt>
      <trkpt lat="59.8514849" lon="17.4770091">
        <ele>25.1317</ele>
        <time>2013-04-24T16:48:25Z</time>
      </trkpt>
      <trkpt lat="59.8514875" lon="17.4771641">
        <ele>25.1317</ele>
        <time>2013-04-24T16:48:26Z</time>
      </trkpt>
      <trkpt lat="59.8514916" lon="17.47732">
        <ele>25.1317</ele>
        <time>2013-04-24T16:48:27Z</time>
      </trkpt>
      <trkpt lat="59.8514953" lon="17.4774775">
        <ele>24.651</ele>
        <time>2013-04-24T16:48:28Z</time>
      </trkpt>
      <trkpt lat="59.8514983" lon="17.4776371">
        <ele>24.651</ele>
        <time>2013-04-24T16:48:29Z</time>
      </trkpt>
      <trkpt lat="59.8515009" lon="17.4777993">
        <ele>24.651</ele>
        <time>2013-04-24T16:48:30Z</time>
      </trkpt>
      <trkpt lat="59.8515041" lon="17.4779635">
        <ele>24.651</ele>
        <time>2013-04-24T16:48:31Z</time>
      </trkpt>
      <trkpt lat="59.8515078" lon="17.47813">
        <ele>24.651</ele>
        <time>2013-04-24T16:48:32Z</time>
      </trkpt>
      <trkpt lat="59.8515114" lon="17.4782994">
        <ele>24.1703</ele>
        <time>2013-04-24T16:48:33Z</time>
      </trkpt>
      <trkpt lat="59.8515144" lon="17.4784716">
        <ele>24.1703</ele>
        <time>2013-04-24T16:48:34Z</time>
      </trkpt>
      <trkpt lat="59.8515171" lon="17.4786467">
        <ele>24.1703</ele>
        <time>2013-04-24T16:48:35Z</time>
      </trkpt>
      <trkpt lat="59.8515222" lon="17.4788244">
        <ele>23.6896</ele>
        <time>2013-04-24T16:48:36Z</time>
      </trkpt>
      <trkpt lat="59.8515283" lon="17.4790047">
        <ele>23.6896</ele>
        <time>2013-04-24T16:48:37Z</time>
      </trkpt>
      <trkpt lat="59.851533" lon="17.4791878">
        <ele>23.6896</ele>
        <time>2013-04-24T16:48:38Z</time>
      </trkpt>
      <trkpt lat="59.851537" lon="17.479373">
        <ele>23.6896</ele>
        <time>2013-04-24T16:48:39Z</time>
      </trkpt>
      <trkpt lat="59.8515399" lon="17.4795602">
        <ele>23.6896</ele>
        <time>2013-04-24T16:48:40Z</time>
      </trkpt>
      <trkpt lat="59.8515414" lon="17.4797478">
        <ele>23.6896</ele>
        <time>2013-04-24T16:48:41Z</time>
      </trkpt>
      <trkpt lat="59.8515433" lon="17.4799327">
        <ele>24.1703</ele>
        <time>2013-04-24T16:48:42Z</time>
      </trkpt>
      <trkpt lat="59.8515465" lon="17.480111">
        <ele>24.1703</ele>
        <time>2013-04-24T16:48:43Z</time>
      </trkpt>
      <trkpt lat="59.8515511" lon="17.4802809">
        <ele>24.651</ele>
        <time>2013-04-24T16:48:44Z</time>
      </trkpt>
      <trkpt lat="59.8515562" lon="17.4804449">
        <ele>24.651</ele>
        <time>2013-04-24T16:48:45Z</time>
      </trkpt>
      <trkpt lat="59.8515611" lon="17.4806088">
        <ele>24.651</ele>
        <time>2013-04-24T16:48:46Z</time>
      </trkpt>
      <trkpt lat="59.8515652" lon="17.4807767">
        <ele>24.651</ele>
        <time>2013-04-24T16:48:47Z</time>
      </trkpt>
      <trkpt lat="59.8515669" lon="17.4809484">
        <ele>24.651</ele>
        <time>2013-04-24T16:48:48Z</time>
      </trkpt>
      <trkpt lat="59.8515684" lon="17.481123">
        <ele>24.651</ele>
        <time>2013-04-24T16:48:49Z</time>
      </trkpt>
      <trkpt lat="59.8515708" lon="17.4813">
        <ele>24.651</ele>
        <time>2013-04-24T16:48:50Z</time>
      </trkpt>
      <trkpt lat="59.8515727" lon="17.4814789">
        <ele>24.1703</ele>
        <time>2013-04-24T16:48:51Z</time>
      </trkpt>
      <trkpt lat="59.8515761" lon="17.4816594">
        <ele>24.1703</ele>
        <time>2013-04-24T16:48:52Z</time>
      </trkpt>
      <trkpt lat="59.8515812" lon="17.4818423">
        <ele>24.1703</ele>
        <time>2013-04-24T16:48:53Z</time>
      </trkpt>
      <trkpt lat="59.851588" lon="17.4820272">
        <ele>24.1703</ele>
        <time>2013-04-24T16:48:54Z</time>
      </trkpt>
      <trkpt lat="59.8515955" lon="17.4822132">
        <ele>24.1703</ele>
        <time>2013-04-24T16:48:55Z</time>
      </trkpt>
      <trkpt lat="59.8516029" lon="17.4824009">
        <ele>23.6896</ele>
        <time>2013-04-24T16:48:56Z</time>
      </trkpt>
      <trkpt lat="59.8516097" lon="17.4825918">
        <ele>23.6896</ele>
        <time>2013-04-24T16:48:57Z</time>
      </trkpt>
      <trkpt lat="59.8516154" lon="17.482786">
        <ele>23.6896</ele>
        <time>2013-04-24T16:48:58Z</time>
      </trkpt>
      <trkpt lat="59.8516196" lon="17.4829839">
        <ele>23.209</ele>
        <time>2013-04-24T16:48:59Z</time>
      </trkpt>
      <trkpt lat="59.8516231" lon="17.4831859">
        <ele>23.209</ele>
        <time>2013-04-24T16:49:00Z</time>
      </trkpt>
      <trkpt lat="59.8516262" lon="17.4833921">
        <ele>22.7283</ele>
        <time>2013-04-24T16:49:01Z</time>
      </trkpt>
      <trkpt lat="59.851629" lon="17.4836014">
        <ele>22.7283</ele>
        <time>2013-04-24T16:49:02Z</time>
      </trkpt>
      <trkpt lat="59.851631" lon="17.483812">
        <ele>22.2476</ele>
        <time>2013-04-24T16:49:03Z</time>
      </trkpt>
      <trkpt lat="59.8516328" lon="17.4840226">
        <ele>22.2476</ele>
        <time>2013-04-24T16:49:04Z</time>
      </trkpt>
      <trkpt lat="59.8516345" lon="17.4842335">
        <ele>22.2476</ele>
        <time>2013-04-24T16:49:05Z</time>
      </trkpt>
      <trkpt lat="59.8516341" lon="17.4844436">
        <ele>22.2476</ele>
        <time>2013-04-24T16:49:06Z</time>
      </trkpt>
      <trkpt lat="59.8516325" lon="17.4846492">
        <ele>22.2476</ele>
        <time>2013-04-24T16:49:07Z</time>
      </trkpt>
      <trkpt lat="59.8516305" lon="17.4848501">
        <ele>22.2476</ele>
        <time>2013-04-24T16:49:08Z</time>
      </trkpt>
      <trkpt lat="59.8516252" lon="17.4850508">
        <ele>22.7283</ele>
        <time>2013-04-24T16:49:09Z</time>
      </trkpt>
      <trkpt lat="59.8516158" lon="17.4852518">
        <ele>22.7283</ele>
        <time>2013-04-24T16:49:10Z</time>
      </trkpt>
      <trkpt lat="59.851607" lon="17.4854517">
        <ele>23.209</ele>
        <time>2013-04-24T16:49:11Z</time>
      </trkpt>
      <trkpt lat="59.8516009" lon="17.4856501">
        <ele>23.209</ele>
        <time>2013-04-24T16:49:12Z</time>
      </trkpt>
      <trkpt lat="59.8515962" lon="17.485847">
        <ele>23.209</ele>
        <time>2013-04-24T16:49:13Z</time>
      </trkpt>
      <trkpt lat="59.8515911" lon="17.4860416">
        <ele>23.6896</ele>
        <time>2013-04-24T16:49:14Z</time>
      </trkpt>
      <trkpt lat="59.8515838" lon="17.4862324">
        <ele>23.6896</ele>
        <time>2013-04-24T16:49:15Z</time>
      </trkpt>
      <trkpt lat="59.8515779" lon="17.4864233">
        <ele>24.1703</ele>
        <time>2013-04-24T16:49:16Z</time>
      </trkpt>
      <trkpt lat="59.8515728" lon="17.4866084">
        <ele>24.651</ele>
        <time>2013-04-24T16:49:17Z</time>
      </trkpt>
      <trkpt lat="59.8515708" lon="17.486785">
        <ele>25.1317</ele>
        <time>2013-04-24T16:49:18Z</time>
      </trkpt>
      <trkpt lat="59.8515725" lon="17.4869616">
        <ele>25.6123</ele>
        <time>2013-04-24T16:49:19Z</time>
      </trkpt>
      <trkpt lat="59.8515717" lon="17.4871317">
        <ele>26.0929</ele>
        <time>2013-04-24T16:49:20Z</time>
      </trkpt>
      <trkpt lat="59.8515702" lon="17.4872989">
        <ele>26.5736</ele>
        <time>2013-04-24T16:49:21Z</time>
      </trkpt>
      <trkpt lat="59.8515666" lon="17.4874645">
        <ele>26.5736</ele>
        <time>2013-04-24T16:49:22Z</time>
      </trkpt>
      <trkpt lat="59.8515616" lon="17.487631">
        <ele>26.5736</ele>
        <time>2013-04-24T16:49:23Z</time>
      </trkpt>
      <trkpt lat="59.8515569" lon="17.4877948">
        <ele>27.0543</ele>
        <time>2013-04-24T16:49:24Z</time>
      </trkpt>
      <trkpt lat="59.8515523" lon="17.4879607">
        <ele>27.5349</ele>
        <time>2013-04-24T16:49:25Z</time>
      </trkpt>
      <trkpt lat="59.8515486" lon="17.4881272">
        <ele>27.5349</ele>
        <time>2013-04-24T16:49:26Z</time>
      </trkpt>
      <trkpt lat="59.8515472" lon="17.488293">
        <ele>27.0543</ele>
        <time>2013-04-24T16:49:27Z</time>
      </trkpt>
      <trkpt lat="59.8515458" lon="17.4884629">
        <ele>26.5736</ele>
        <time>2013-04-24T16:49:28Z</time>
      </trkpt>
      <trkpt lat="59.8515425" lon="17.4886355">
        <ele>27.0543</ele>
        <time>2013-04-24T16:49:29Z</time>
      </trkpt>
      <trkpt lat="59.8515396" lon="17.4888067">
        <ele>26.5736</ele>
        <time>2013-04-24T16:49:30Z</time>
      </trkpt>
      <trkpt lat="59.8515346" lon="17.4889781">
        <ele>26.5736</ele>
        <time>2013-04-24T16:49:31Z</time>
      </trkpt>
      <trkpt lat="59.8515294" lon="17.4891529">
        <ele>26.0929</ele>
        <time>2013-04-24T16:49:32Z</time>
      </trkpt>
      <trkpt lat="59.8515249" lon="17.489329">
        <ele>25.6123</ele>
        <time>2013-04-24T16:49:33Z</time>
      </trkpt>
      <trkpt lat="59.8515213" lon="17.4895058">
        <ele>25.6123</ele>
        <time>2013-04-24T16:49:34Z</time>
      </trkpt>
      <trkpt lat="59.8515184" lon="17.4896844">
        <ele>25.6123</ele>
        <time>2013-04-24T16:49:35Z</time>
      </trkpt>
      <trkpt lat="59.8515158" lon="17.4898621">
        <ele>25.6123</ele>
        <time>2013-04-24T16:49:36Z</time>
      </trkpt>
      <trkpt lat="59.8515139" lon="17.4900377">
        <ele>25.6123</ele>
        <time>2013-04-24T16:49:37Z</time>
      </trkpt>
      <trkpt lat="59.8515118" lon="17.4902132">
        <ele>25.1317</ele>
        <time>2013-04-24T16:49:38Z</time>
      </trkpt>
      <trkpt lat="59.8515102" lon="17.4903889">
        <ele>25.1317</ele>
        <time>2013-04-24T16:49:39Z</time>
      </trkpt>
      <trkpt lat="59.8515102" lon="17.4905629">
        <ele>25.1317</ele>
        <time>2013-04-24T16:49:40Z</time>
      </trkpt>
      <trkpt lat="59.851513" lon="17.4907374">
        <ele>25.1317</ele>
        <time>2013-04-24T16:49:41Z</time>
      </trkpt>
      <trkpt lat="59.8515165" lon="17.4909105">
        <ele>25.1317</ele>
        <time>2013-04-24T16:49:42Z</time>
      </trkpt>
      <trkpt lat="59.8515212" lon="17.4910838">
        <ele>25.1317</ele>
        <time>2013-04-24T16:49:43Z</time>
      </trkpt>
      <trkpt lat="59.8515296" lon="17.4912545">
        <ele>24.651</ele>
        <time>2013-04-24T16:49:44Z</time>
      </trkpt>
      <trkpt lat="59.8515401" lon="17.4914263">
        <ele>24.1703</ele>
        <time>2013-04-24T16:49:45Z</time>
      </trkpt>
      <trkpt lat="59.8515468" lon="17.4915957">
        <ele>24.1703</ele>
        <time>2013-04-24T16:49:46Z</time>
      </trkpt>
      <trkpt lat="59.8515456" lon="17.4917647">
        <ele>23.209</ele>
        <time>2013-04-24T16:49:47Z</time>
      </trkpt>
      <trkpt lat="59.8515349" lon="17.491934">
        <ele>22.7283</ele>
        <time>2013-04-24T16:49:48Z</time>
      </trkpt>
      <trkpt lat="59.8515191" lon="17.4921045">
        <ele>22.2476</ele>
        <time>2013-04-24T16:49:49Z</time>
      </trkpt>
      <trkpt lat="59.8515024" lon="17.492278">
        <ele>21.767</ele>
        <time>2013-04-24T16:49:50Z</time>
      </trkpt>
      <trkpt lat="59.8514842" lon="17.4924569">
        <ele>21.2864</ele>
        <time>2013-04-24T16:49:51Z</time>
      </trkpt>
      <trkpt lat="59.8514655" lon="17.4926405">
        <ele>21.2864</ele>
        <time>2013-04-24T16:49:52Z</time>
      </trkpt>
      <trkpt lat="59.851449" lon="17.4928267">
        <ele>21.2864</ele>
        <time>2013-04-24T16:49:53Z</time>
      </trkpt>
      <trkpt lat="59.8514334" lon="17.4930151">
        <ele>21.2864</ele>
        <time>2013-04-24T16:49:54Z</time>
      </trkpt>
      <trkpt lat="59.851418" lon="17.4932043">
        <ele>21.2864</ele>
        <time>2013-04-24T16:49:55Z</time>
      </trkpt>
      <trkpt lat="59.8514051" lon="17.4933942">
        <ele>20.8057</ele>
        <time>2013-04-24T16:49:56Z</time>
      </trkpt>
      <trkpt lat="59.8513923" lon="17.4935845">
        <ele>21.2864</ele>
        <time>2013-04-24T16:49:57Z</time>
      </trkpt>
      <trkpt lat="59.8513773" lon="17.4937761">
        <ele>21.767</ele>
        <time>2013-04-24T16:49:58Z</time>
      </trkpt>
      <trkpt lat="59.8513655" lon="17.4939698">
        <ele>22.2476</ele>
        <time>2013-04-24T16:49:59Z</time>
      </trkpt>
      <trkpt lat="59.8513568" lon="17.4941658">
        <ele>21.767</ele>
        <time>2013-04-24T16:50:00Z</time>
      </trkpt>
      <trkpt lat="59.8513483" lon="17.4943647">
        <ele>21.767</ele>
        <time>2013-04-24T16:50:01Z</time>
      </trkpt>
      <trkpt lat="59.85134" lon="17.4945671">
        <ele>21.2864</ele>
        <time>2013-04-24T16:50:02Z</time>
      </trkpt>
      <trkpt lat="59.851335" lon="17.4947734">
        <ele>21.2864</ele>
        <time>2013-04-24T16:50:03Z</time>
      </trkpt>
      <trkpt lat="59.8513316" lon="17.4949836">
        <ele>20.8057</ele>
        <time>2013-04-24T16:50:04Z</time>
      </trkpt>
      <trkpt lat="59.8513253" lon="17.4952018">
        <ele>20.8057</ele>
        <time>2013-04-24T16:50:05Z</time>
      </trkpt>
      <trkpt lat="59.8513201" lon="17.4954255">
        <ele>21.2864</ele>
        <time>2013-04-24T16:50:06Z</time>
      </trkpt>
      <trkpt lat="59.8513148" lon="17.495652">
        <ele>21.2864</ele>
        <time>2013-04-24T16:50:07Z</time>
      </trkpt>
      <trkpt lat="59.8513073" lon="17.4958772">
        <ele>20.8057</ele>
        <time>2013-04-24T16:50:08Z</time>
      </trkpt>
      <trkpt lat="59.8513031" lon="17.4961045">
        <ele>20.325</ele>
        <time>2013-04-24T16:50:09Z</time>
      </trkpt>
      <trkpt lat="59.851302" lon="17.496331">
        <ele>20.325</ele>
        <time>2013-04-24T16:50:10Z</time>
      </trkpt>
      <trkpt lat="59.8512998" lon="17.4965578">
        <ele>20.325</ele>
        <time>2013-04-24T16:50:11Z</time>
      </trkpt>
      <trkpt lat="59.8512889" lon="17.4967835">
        <ele>20.325</ele>
        <time>2013-04-24T16:50:12Z</time>
      </trkpt>
      <trkpt lat="59.85127" lon="17.4970064">
        <ele>20.325</ele>
        <time>2013-04-24T16:50:13Z</time>
      </trkpt>
      <trkpt lat="59.8512492" lon="17.4972302">
        <ele>19.8444</ele>
        <time>2013-04-24T16:50:14Z</time>
      </trkpt>
      <trkpt lat="59.85123" lon="17.497459">
        <ele>19.8444</ele>
        <time>2013-04-24T16:50:15Z</time>
      </trkpt>
      <trkpt lat="59.851213" lon="17.4976944">
        <ele>19.3638</ele>
        <time>2013-04-24T16:50:16Z</time>
      </trkpt>
      <trkpt lat="59.8511974" lon="17.4979347">
        <ele>19.3638</ele>
        <time>2013-04-24T16:50:17Z</time>
      </trkpt>
      <trkpt lat="59.8511833" lon="17.4981741">
        <ele>19.3638</ele>
        <time>2013-04-24T16:50:18Z</time>
      </trkpt>
      <trkpt lat="59.8511679" lon="17.4984104">
        <ele>18.8831</ele>
        <time>2013-04-24T16:50:19Z</time>
      </trkpt>
      <trkpt lat="59.8511499" lon="17.4986438">
        <ele>18.8831</ele>
        <time>2013-04-24T16:50:20Z</time>
      </trkpt>
      <trkpt lat="59.8511295" lon="17.4988733">
        <ele>18.8831</ele>
        <time>2013-04-24T16:50:21Z</time>
      </trkpt>
      <trkpt lat="59.8511058" lon="17.4990993">
        <ele>18.4023</ele>
        <time>2013-04-24T16:50:22Z</time>
      </trkpt>
      <trkpt lat="59.8510806" lon="17.499323">
        <ele>17.9218</ele>
        <time>2013-04-24T16:50:23Z</time>
      </trkpt>
      <trkpt lat="59.8510563" lon="17.4995463">
        <ele>17.9218</ele>
        <time>2013-04-24T16:50:24Z</time>
      </trkpt>
      <trkpt lat="59.8510342" lon="17.4997714">
        <ele>17.4412</ele>
        <time>2013-04-24T16:50:25Z</time>
      </trkpt>
      <trkpt lat="59.851014" lon="17.4999957">
        <ele>17.4412</ele>
        <time>2013-04-24T16:50:26Z</time>
      </trkpt>
      <trkpt lat="59.8509938" lon="17.5002185">
        <ele>16.9604</ele>
        <time>2013-04-24T16:50:27Z</time>
      </trkpt>
      <trkpt lat="59.850971" lon="17.5004393">
        <ele>16.9604</ele>
        <time>2013-04-24T16:50:28Z</time>
      </trkpt>
      <trkpt lat="59.8509454" lon="17.500657">
        <ele>16.4797</ele>
        <time>2013-04-24T16:50:29Z</time>
      </trkpt>
      <trkpt lat="59.8509171" lon="17.5008725">
        <ele>16.4797</ele>
        <time>2013-04-24T16:50:30Z</time>
      </trkpt>
      <trkpt lat="59.8508871" lon="17.5010884">
        <ele>15.999</ele>
        <time>2013-04-24T16:50:31Z</time>
      </trkpt>
      <trkpt lat="59.8508561" lon="17.5013049">
        <ele>15.999</ele>
        <time>2013-04-24T16:50:32Z</time>
      </trkpt>
      <trkpt lat="59.850825" lon="17.5015195">
        <ele>15.999</ele>
        <time>2013-04-24T16:50:33Z</time>
      </trkpt>
      <trkpt lat="59.8507939" lon="17.5017316">
        <ele>15.999</ele>
        <time>2013-04-24T16:50:34Z</time>
      </trkpt>
      <trkpt lat="59.8507641" lon="17.5019404">
        <ele>15.999</ele>
        <time>2013-04-24T16:50:35Z</time>
      </trkpt>
      <trkpt lat="59.8507358" lon="17.5021456">
        <ele>15.999</ele>
        <time>2013-04-24T16:50:36Z</time>
      </trkpt>
      <trkpt lat="59.8507077" lon="17.5023459">
        <ele>15.999</ele>
        <time>2013-04-24T16:50:37Z</time>
      </trkpt>
      <trkpt lat="59.8506792" lon="17.5025414">
        <ele>15.999</ele>
        <time>2013-04-24T16:50:38Z</time>
      </trkpt>
      <trkpt lat="59.8506512" lon="17.5027356">
        <ele>15.999</ele>
        <time>2013-04-24T16:50:39Z</time>
      </trkpt>
      <trkpt lat="59.8506248" lon="17.5029299">
        <ele>15.999</ele>
        <time>2013-04-24T16:50:40Z</time>
      </trkpt>
      <trkpt lat="59.8506001" lon="17.503124">
        <ele>15.999</ele>
        <time>2013-04-24T16:50:41Z</time>
      </trkpt>
      <trkpt lat="59.8505766" lon="17.5033177">
        <ele>15.999</ele>
        <time>2013-04-24T16:50:42Z</time>
      </trkpt>
      <trkpt lat="59.8505546" lon="17.503511">
        <ele>15.999</ele>
        <time>2013-04-24T16:50:43Z</time>
      </trkpt>
      <trkpt lat="59.8505333" lon="17.5037043">
        <ele>15.5184</ele>
        <time>2013-04-24T16:50:44Z</time>
      </trkpt>
      <trkpt lat="59.8505121" lon="17.5038965">
        <ele>15.5184</ele>
        <time>2013-04-24T16:50:45Z</time>
      </trkpt>
      <trkpt lat="59.8504919" lon="17.5040874">
        <ele>15.5184</ele>
        <time>2013-04-24T16:50:46Z</time>
      </trkpt>
      <trkpt lat="59.8504722" lon="17.5042773">
        <ele>15.5184</ele>
        <time>2013-04-24T16:50:47Z</time>
      </trkpt>
      <trkpt lat="59.8504505" lon="17.5044656">
        <ele>15.5184</ele>
        <time>2013-04-24T16:50:48Z</time>
      </trkpt>
      <trkpt lat="59.850427" lon="17.5046511">
        <ele>15.999</ele>
        <time>2013-04-24T16:50:49Z</time>
      </trkpt>
      <trkpt lat="59.8503991" lon="17.5048325">
        <ele>15.999</ele>
        <time>2013-04-24T16:50:50Z</time>
      </trkpt>
      <trkpt lat="59.850366" lon="17.5050093">
        <ele>15.999</ele>
        <time>2013-04-24T16:50:51Z</time>
      </trkpt>
      <trkpt lat="59.8503313" lon="17.5051822">
        <ele>16.4797</ele>
        <time>2013-04-24T16:50:52Z</time>
      </trkpt>
      <trkpt lat="59.8502984" lon="17.5053555">
        <ele>16.4797</ele>
        <time>2013-04-24T16:50:53Z</time>
      </trkpt>
      <trkpt lat="59.8502703" lon="17.5055324">
        <ele>16.9604</ele>
        <time>2013-04-24T16:50:54Z</time>
      </trkpt>
      <trkpt lat="59.8502467" lon="17.5057125">
        <ele>16.9604</ele>
        <time>2013-04-24T16:50:55Z</time>
      </trkpt>
      <trkpt lat="59.8502257" lon="17.5058928">
        <ele>17.4412</ele>
        <time>2013-04-24T16:50:56Z</time>
      </trkpt>
      <trkpt lat="59.8502059" lon="17.5060741">
        <ele>17.4412</ele>
        <time>2013-04-24T16:50:57Z</time>
      </trkpt>
      <trkpt lat="59.8501868" lon="17.506254">
        <ele>17.9218</ele>
        <time>2013-04-24T16:50:58Z</time>
      </trkpt>
      <trkpt lat="59.8501666" lon="17.5064322">
        <ele>17.9218</ele>
        <time>2013-04-24T16:50:59Z</time>
      </trkpt>
      <trkpt lat="59.8501443" lon="17.5066083">
        <ele>17.9218</ele>
        <time>2013-04-24T16:51:00Z</time>
      </trkpt>
      <trkpt lat="59.8501214" lon="17.5067818">
        <ele>18.4023</ele>
        <time>2013-04-24T16:51:01Z</time>
      </trkpt>
      <trkpt lat="59.850099" lon="17.5069533">
        <ele>18.8831</ele>
        <time>2013-04-24T16:51:02Z</time>
      </trkpt>
      <trkpt lat="59.8500769" lon="17.5071209">
        <ele>18.8831</ele>
        <time>2013-04-24T16:51:03Z</time>
      </trkpt>
      <trkpt lat="59.8500552" lon="17.5072861">
        <ele>19.3638</ele>
        <time>2013-04-24T16:51:04Z</time>
      </trkpt>
      <trkpt lat="59.8500332" lon="17.5074496">
        <ele>19.8444</ele>
        <time>2013-04-24T16:51:05Z</time>
      </trkpt>
      <trkpt lat="59.8500107" lon="17.5076101">
        <ele>20.325</ele>
        <time>2013-04-24T16:51:06Z</time>
      </trkpt>
      <trkpt lat="59.8499873" lon="17.5077687">
        <ele>20.325</ele>
        <time>2013-04-24T16:51:07Z</time>
      </trkpt>
      <trkpt lat="59.8499635" lon="17.507925">
        <ele>20.8057</ele>
        <time>2013-04-24T16:51:08Z</time>
      </trkpt>
      <trkpt lat="59.8499397" lon="17.5080794">
        <ele>21.2864</ele>
        <time>2013-04-24T16:51:09Z</time>
      </trkpt>
      <trkpt lat="59.8499157" lon="17.5082312">
        <ele>21.767</ele>
        <time>2013-04-24T16:51:10Z</time>
      </trkpt>
      <trkpt lat="59.8498919" lon="17.5083794">
        <ele>22.2476</ele>
        <time>2013-04-24T16:51:11Z</time>
      </trkpt>
      <trkpt lat="59.8498676" lon="17.5085237">
        <ele>22.7283</ele>
        <time>2013-04-24T16:51:12Z</time>
      </trkpt>
      <trkpt lat="59.8498432" lon="17.5086622">
        <ele>23.209</ele>
        <time>2013-04-24T16:51:13Z</time>
      </trkpt>
      <trkpt lat="59.8498189" lon="17.5087943">
        <ele>23.6896</ele>
        <time>2013-04-24T16:51:14Z</time>
      </trkpt>
      <trkpt lat="59.8497966" lon="17.508921">
        <ele>23.6896</ele>
        <time>2013-04-24T16:51:15Z</time>
      </trkpt>
      <trkpt lat="59.8497786" lon="17.5090449">
        <ele>24.1703</ele>
        <time>2013-04-24T16:51:16Z</time>
      </trkpt>
      <trkpt lat="59.8497624" lon="17.5091714">
        <ele>24.651</ele>
        <time>2013-04-24T16:51:17Z</time>
      </trkpt>
      <trkpt lat="59.8497447" lon="17.5093014">
        <ele>24.651</ele>
        <time>2013-04-24T16:51:18Z</time>
      </trkpt>
      <trkpt lat="59.8497292" lon="17.5094331">
        <ele>24.651</ele>
        <time>2013-04-24T16:51:19Z</time>
      </trkpt>
      <trkpt lat="59.8497143" lon="17.5095686">
        <ele>25.1317</ele>
        <time>2013-04-24T16:51:20Z</time>
      </trkpt>
      <trkpt lat="59.8497036" lon="17.5097039">
        <ele>25.6123</ele>
        <time>2013-04-24T16:51:21Z</time>
      </trkpt>
      <trkpt lat="59.8496974" lon="17.5098353">
        <ele>26.0929</ele>
        <time>2013-04-24T16:51:22Z</time>
      </trkpt>
      <trkpt lat="59.8496926" lon="17.5099679">
        <ele>26.0929</ele>
        <time>2013-04-24T16:51:23Z</time>
      </trkpt>
      <trkpt lat="59.849687" lon="17.5101018">
        <ele>26.0929</ele>
        <time>2013-04-24T16:51:24Z</time>
      </trkpt>
      <trkpt lat="59.8496801" lon="17.5102385">
        <ele>26.0929</ele>
        <time>2013-04-24T16:51:25Z</time>
      </trkpt>
      <trkpt lat="59.8496733" lon="17.5103778">
        <ele>26.0929</ele>
        <time>2013-04-24T16:51:26Z</time>
      </trkpt>
      <trkpt lat="59.8496649" lon="17.5105187">
        <ele>26.0929</ele>
        <time>2013-04-24T16:51:27Z</time>
      </trkpt>
      <trkpt lat="59.8496558" lon="17.5106625">
        <ele>26.0929</ele>
        <time>2013-04-24T16:51:28Z</time>
      </trkpt>
      <trkpt lat="59.849646" lon="17.5108125">
        <ele>25.6123</ele>
        <time>2013-04-24T16:51:29Z</time>
      </trkpt>
      <trkpt lat="59.8496335" lon="17.5109606">
        <ele>25.6123</ele>
        <time>2013-04-24T16:51:30Z</time>
      </trkpt>
      <trkpt lat="59.8496181" lon="17.511104">
        <ele>25.6123</ele>
        <time>2013-04-24T16:51:31Z</time>
      </trkpt>
      <trkpt lat="59.8496014" lon="17.5112441">
        <ele>25.6123</ele>
        <time>2013-04-24T16:51:32Z</time>
      </trkpt>
      <trkpt lat="59.8495852" lon="17.5113818">
        <ele>25.1317</ele>
        <time>2013-04-24T16:51:33Z</time>
      </trkpt>
      <trkpt lat="59.8495698" lon="17.5115164">
        <ele>25.1317</ele>
        <time>2013-04-24T16:51:34Z</time>
      </trkpt>
      <trkpt lat="59.8495558" lon="17.5116479">
        <ele>24.651</ele>
        <time>2013-04-24T16:51:35Z</time>
      </trkpt>
      <trkpt lat="59.8495428" lon="17.5117775">
        <ele>24.651</ele>
        <time>2013-04-24T16:51:36Z</time>
      </trkpt>
      <trkpt lat="59.8495306" lon="17.511903">
        <ele>25.1317</ele>
        <time>2013-04-24T16:51:37Z</time>
      </trkpt>
      <trkpt lat="59.8495206" lon="17.512021">
        <ele>25.1317</ele>
        <time>2013-04-24T16:51:38Z</time>
      </trkpt>
      <trkpt lat="59.8495104" lon="17.5121365">
        <ele>25.6123</ele>
        <time>2013-04-24T16:51:39Z</time>
      </trkpt>
      <trkpt lat="59.849501" lon="17.512251">
        <ele>26.0929</ele>
        <time>2013-04-24T16:51:40Z</time>
      </trkpt>
      <trkpt lat="59.8494922" lon="17.512364">
        <ele>26.5736</ele>
        <time>2013-04-24T16:51:41Z</time>
      </trkpt>
      <trkpt lat="59.8494823" lon="17.5124743">
        <ele>26.5736</ele>
        <time>2013-04-24T16:51:42Z</time>
      </trkpt>
      <trkpt lat="59.8494714" lon="17.5125808">
        <ele>26.5736</ele>
        <time>2013-04-24T16:51:43Z</time>
      </trkpt>
      <trkpt lat="59.8494608" lon="17.5126845">
        <ele>27.0543</ele>
        <time>2013-04-24T16:51:44Z</time>
      </trkpt>
      <trkpt lat="59.8494487" lon="17.5127876">
        <ele>27.5349</ele>
        <time>2013-04-24T16:51:45Z</time>
      </trkpt>
      <trkpt lat="59.849435" lon="17.5128902">
        <ele>28.0155</ele>
        <time>2013-04-24T16:51:46Z</time>
      </trkpt>
      <trkpt lat="59.8494232" lon="17.5129922">
        <ele>28.0155</ele>
        <time>2013-04-24T16:51:47Z</time>
      </trkpt>
      <trkpt lat="59.8494133" lon="17.5130954">
        <ele>28.0155</ele>
        <time>2013-04-24T16:51:48Z</time>
      </trkpt>
      <trkpt lat="59.8494041" lon="17.513202">
        <ele>28.4962</ele>
        <time>2013-04-24T16:51:49Z</time>
      </trkpt>
      <trkpt lat="59.8493952" lon="17.5133087">
        <ele>28.9769</ele>
        <time>2013-04-24T16:51:50Z</time>
      </trkpt>
      <trkpt lat="59.8493864" lon="17.5134139">
        <ele>28.9769</ele>
        <time>2013-04-24T16:51:51Z</time>
      </trkpt>
      <trkpt lat="59.8493756" lon="17.5135192">
        <ele>28.9769</ele>
        <time>2013-04-24T16:51:52Z</time>
      </trkpt>
      <trkpt lat="59.8493635" lon="17.5136268">
        <ele>29.4575</ele>
        <time>2013-04-24T16:51:53Z</time>
      </trkpt>
      <trkpt lat="59.8493518" lon="17.5137366">
        <ele>29.4575</ele>
        <time>2013-04-24T16:51:54Z</time>
      </trkpt>
      <trkpt lat="59.8493419" lon="17.5138475">
        <ele>29.4575</ele>
        <time>2013-04-24T16:51:55Z</time>
      </trkpt>
      <trkpt lat="59.8493325" lon="17.5139588">
        <ele>29.4575</ele>
        <time>2013-04-24T16:51:56Z</time>
      </trkpt>
      <trkpt lat="59.8493238" lon="17.5140706">
        <ele>29.4575</ele>
        <time>2013-04-24T16:51:57Z</time>
      </trkpt>
      <trkpt lat="59.8493164" lon="17.5141847">
        <ele>29.4575</ele>
        <time>2013-04-24T16:51:58Z</time>
      </trkpt>
      <trkpt lat="59.8493094" lon="17.5143026">
        <ele>28.9769</ele>
        <time>2013-04-24T16:51:59Z</time>
      </trkpt>
      <trkpt lat="59.849303" lon="17.5144209">
        <ele>28.4962</ele>
        <time>2013-04-24T16:52:00Z</time>
      </trkpt>
      <trkpt lat="59.8492959" lon="17.5145395">
        <ele>28.0155</ele>
        <time>2013-04-24T16:52:01Z</time>
      </trkpt>
      <trkpt lat="59.8492885" lon="17.5146603">
        <ele>27.5349</ele>
        <time>2013-04-24T16:52:02Z</time>
      </trkpt>
      <trkpt lat="59.8492817" lon="17.5147846">
        <ele>27.5349</ele>
        <time>2013-04-24T16:52:03Z</time>
      </trkpt>
      <trkpt lat="59.8492754" lon="17.5149104">
        <ele>27.0543</ele>
        <time>2013-04-24T16:52:04Z</time>
      </trkpt>
      <trkpt lat="59.8492688" lon="17.515038">
        <ele>27.0543</ele>
        <time>2013-04-24T16:52:05Z</time>
      </trkpt>
      <trkpt lat="59.8492621" lon="17.5151656">
        <ele>26.5736</ele>
        <time>2013-04-24T16:52:06Z</time>
      </trkpt>
      <trkpt lat="59.8492553" lon="17.5152906">
        <ele>26.5736</ele>
        <time>2013-04-24T16:52:07Z</time>
      </trkpt>
      <trkpt lat="59.8492476" lon="17.5154135">
        <ele>26.5736</ele>
        <time>2013-04-24T16:52:08Z</time>
      </trkpt>
      <trkpt lat="59.84924" lon="17.5155356">
        <ele>26.0929</ele>
        <time>2013-04-24T16:52:09Z</time>
      </trkpt>
      <trkpt lat="59.8492336" lon="17.5156577">
        <ele>26.0929</ele>
        <time>2013-04-24T16:52:10Z</time>
      </trkpt>
      <trkpt lat="59.8492274" lon="17.5157838">
        <ele>26.0929</ele>
        <time>2013-04-24T16:52:11Z</time>
      </trkpt>
      <trkpt lat="59.8492222" lon="17.5159132">
        <ele>26.0929</ele>
        <time>2013-04-24T16:52:12Z</time>
      </trkpt>
      <trkpt lat="59.8492168" lon="17.5160464">
        <ele>25.6123</ele>
        <time>2013-04-24T16:52:13Z</time>
      </trkpt>
      <trkpt lat="59.8492118" lon="17.5161835">
        <ele>25.6123</ele>
        <time>2013-04-24T16:52:14Z</time>
      </trkpt>
      <trkpt lat="59.8492071" lon="17.5163237">
        <ele>25.6123</ele>
        <time>2013-04-24T16:52:15Z</time>
      </trkpt>
      <trkpt lat="59.8492015" lon="17.516467">
        <ele>25.6123</ele>
        <time>2013-04-24T16:52:16Z</time>
      </trkpt>
      <trkpt lat="59.8491966" lon="17.5166137">
        <ele>25.1317</ele>
        <time>2013-04-24T16:52:17Z</time>
      </trkpt>
      <trkpt lat="59.8491927" lon="17.5167639">
        <ele>25.1317</ele>
        <time>2013-04-24T16:52:18Z</time>
      </trkpt>
      <trkpt lat="59.849189" lon="17.5169172">
        <ele>25.1317</ele>
        <time>2013-04-24T16:52:19Z</time>
      </trkpt>
      <trkpt lat="59.8491854" lon="17.517073">
        <ele>25.1317</ele>
        <time>2013-04-24T16:52:20Z</time>
      </trkpt>
      <trkpt lat="59.8491813" lon="17.5172311">
        <ele>24.651</ele>
        <time>2013-04-24T16:52:21Z</time>
      </trkpt>
      <trkpt lat="59.8491775" lon="17.5173912">
        <ele>24.651</ele>
        <time>2013-04-24T16:52:22Z</time>
      </trkpt>
      <trkpt lat="59.8491741" lon="17.5175529">
        <ele>24.651</ele>
        <time>2013-04-24T16:52:23Z</time>
      </trkpt>
      <trkpt lat="59.8491716" lon="17.5177163">
        <ele>24.1703</ele>
        <time>2013-04-24T16:52:24Z</time>
      </trkpt>
      <trkpt lat="59.8491678" lon="17.5178815">
        <ele>24.1703</ele>
        <time>2013-04-24T16:52:25Z</time>
      </trkpt>
      <trkpt lat="59.8491624" lon="17.5180485">
        <ele>24.1703</ele>
        <time>2013-04-24T16:52:26Z</time>
      </trkpt>
      <trkpt lat="59.849159" lon="17.5182179">
        <ele>23.6896</ele>
        <time>2013-04-24T16:52:27Z</time>
      </trkpt>
      <trkpt lat="59.8491583" lon="17.5183919">
        <ele>23.209</ele>
        <time>2013-04-24T16:52:28Z</time>
      </trkpt>
      <trkpt lat="59.8491574" lon="17.5185725">
        <ele>23.209</ele>
        <time>2013-04-24T16:52:29Z</time>
      </trkpt>
      <trkpt lat="59.8491513" lon="17.5187601">
        <ele>22.7283</ele>
        <time>2013-04-24T16:52:30Z</time>
      </trkpt>
      <trkpt lat="59.8491403" lon="17.5189514">
        <ele>22.2476</ele>
        <time>2013-04-24T16:52:31Z</time>
      </trkpt>
      <trkpt lat="59.849128" lon="17.5191452">
        <ele>22.2476</ele>
        <time>2013-04-24T16:52:32Z</time>
      </trkpt>
      <trkpt lat="59.8491169" lon="17.5193405">
        <ele>22.2476</ele>
        <time>2013-04-24T16:52:33Z</time>
      </trkpt>
      <trkpt lat="59.8491083" lon="17.5195376">
        <ele>21.767</ele>
        <time>2013-04-24T16:52:34Z</time>
      </trkpt>
      <trkpt lat="59.8491005" lon="17.519736">
        <ele>21.767</ele>
        <time>2013-04-24T16:52:35Z</time>
      </trkpt>
      <trkpt lat="59.849093" lon="17.519935">
        <ele>21.767</ele>
        <time>2013-04-24T16:52:36Z</time>
      </trkpt>
      <trkpt lat="59.8490869" lon="17.5201356">
        <ele>21.2864</ele>
        <time>2013-04-24T16:52:37Z</time>
      </trkpt>
      <trkpt lat="59.8490824" lon="17.520339">
        <ele>21.2864</ele>
        <time>2013-04-24T16:52:38Z</time>
      </trkpt>
      <trkpt lat="59.8490787" lon="17.5205433">
        <ele>21.2864</ele>
        <time>2013-04-24T16:52:39Z</time>
      </trkpt>
      <trkpt lat="59.8490751" lon="17.5207469">
        <ele>21.2864</ele>
        <time>2013-04-24T16:52:40Z</time>
      </trkpt>
      <trkpt lat="59.849071" lon="17.5209503">
        <ele>20.8057</ele>
        <time>2013-04-24T16:52:41Z</time>
      </trkpt>
      <trkpt lat="59.8490666" lon="17.5211543">
        <ele>20.8057</ele>
        <time>2013-04-24T16:52:42Z</time>
      </trkpt>
      <trkpt lat="59.8490637" lon="17.5213586">
        <ele>20.8057</ele>
        <time>2013-04-24T16:52:43Z</time>
      </trkpt>
      <trkpt lat="59.849064" lon="17.5215626">
        <ele>20.8057</ele>
        <time>2013-04-24T16:52:44Z</time>
      </trkpt>
      <trkpt lat="59.8490649" lon="17.5217657">
        <ele>20.8057</ele>
        <time>2013-04-24T16:52:45Z</time>
      </trkpt>
      <trkpt lat="59.8490648" lon="17.5219677">
        <ele>20.8057</ele>
        <time>2013-04-24T16:52:46Z</time>
      </trkpt>
      <trkpt lat="59.8490645" lon="17.5221698">
        <ele>20.8057</ele>
        <time>2013-04-24T16:52:47Z</time>
      </trkpt>
      <trkpt lat="59.8490657" lon="17.5223716">
        <ele>20.8057</ele>
        <time>2013-04-24T16:52:48Z</time>
      </trkpt>
      <trkpt lat="59.8490694" lon="17.5225718">
        <ele>20.8057</ele>
        <time>2013-04-24T16:52:49Z</time>
      </trkpt>
      <trkpt lat="59.8490735" lon="17.5227696">
        <ele>21.2864</ele>
        <time>2013-04-24T16:52:50Z</time>
      </trkpt>
      <trkpt lat="59.8490756" lon="17.522964">
        <ele>21.2864</ele>
        <time>2013-04-24T16:52:51Z</time>
      </trkpt>
      <trkpt lat="59.8490761" lon="17.523159">
        <ele>21.2864</ele>
        <time>2013-04-24T16:52:52Z</time>
      </trkpt>
      <trkpt lat="59.8490741" lon="17.5233549">
        <ele>21.2864</ele>
        <time>2013-04-24T16:52:53Z</time>
      </trkpt>
      <trkpt lat="59.849071" lon="17.5235493">
        <ele>21.2864</ele>
        <time>2013-04-24T16:52:54Z</time>
      </trkpt>
      <trkpt lat="59.8490684" lon="17.5237414">
        <ele>21.2864</ele>
        <time>2013-04-24T16:52:55Z</time>
      </trkpt>
      <trkpt lat="59.8490668" lon="17.5239312">
        <ele>21.2864</ele>
        <time>2013-04-24T16:52:56Z</time>
      </trkpt>
      <trkpt lat="59.8490658" lon="17.5241186">
        <ele>21.767</ele>
        <time>2013-04-24T16:52:57Z</time>
      </trkpt>
      <trkpt lat="59.8490648" lon="17.5243024">
        <ele>21.767</ele>
        <time>2013-04-24T16:52:58Z</time>
      </trkpt>
      <trkpt lat="59.8490648" lon="17.5244856">
        <ele>21.767</ele>
        <time>2013-04-24T16:52:59Z</time>
      </trkpt>
      <trkpt lat="59.8490649" lon="17.5246697">
        <ele>21.767</ele>
        <time>2013-04-24T16:53:00Z</time>
      </trkpt>
      <trkpt lat="59.8490648" lon="17.5248552">
        <ele>21.767</ele>
        <time>2013-04-24T16:53:01Z</time>
      </trkpt>
      <trkpt lat="59.8490637" lon="17.5250406">
        <ele>21.767</ele>
        <time>2013-04-24T16:53:02Z</time>
      </trkpt>
      <trkpt lat="59.8490622" lon="17.5252257">
        <ele>21.767</ele>
        <time>2013-04-24T16:53:03Z</time>
      </trkpt>
      <trkpt lat="59.8490609" lon="17.5254111">
        <ele>21.767</ele>
        <time>2013-04-24T16:53:04Z</time>
      </trkpt>
      <trkpt lat="59.8490595" lon="17.5255975">
        <ele>21.767</ele>
        <time>2013-04-24T16:53:05Z</time>
      </trkpt>
      <trkpt lat="59.8490581" lon="17.5257845">
        <ele>21.767</ele>
        <time>2013-04-24T16:53:06Z</time>
      </trkpt>
      <trkpt lat="59.8490568" lon="17.5259721">
        <ele>21.767</ele>
        <time>2013-04-24T16:53:07Z</time>
      </trkpt>
      <trkpt lat="59.8490552" lon="17.5261598">
        <ele>21.767</ele>
        <time>2013-04-24T16:53:08Z</time>
      </trkpt>
      <trkpt lat="59.8490547" lon="17.526347">
        <ele>22.2476</ele>
        <time>2013-04-24T16:53:09Z</time>
      </trkpt>
      <trkpt lat="59.8490554" lon="17.5265338">
        <ele>22.2476</ele>
        <time>2013-04-24T16:53:10Z</time>
      </trkpt>
      <trkpt lat="59.8490568" lon="17.5267209">
        <ele>22.2476</ele>
        <time>2013-04-24T16:53:11Z</time>
      </trkpt>
      <trkpt lat="59.849058" lon="17.5269086">
        <ele>22.2476</ele>
        <time>2013-04-24T16:53:12Z</time>
      </trkpt>
      <trkpt lat="59.8490592" lon="17.5270971">
        <ele>22.2476</ele>
        <time>2013-04-24T16:53:13Z</time>
      </trkpt>
      <trkpt lat="59.8490601" lon="17.5272852">
        <ele>22.2476</ele>
        <time>2013-04-24T16:53:14Z</time>
      </trkpt>
      <trkpt lat="59.8490601" lon="17.5274715">
        <ele>22.7283</ele>
        <time>2013-04-24T16:53:15Z</time>
      </trkpt>
      <trkpt lat="59.8490596" lon="17.527656">
        <ele>22.7283</ele>
        <time>2013-04-24T16:53:16Z</time>
      </trkpt>
      <trkpt lat="59.8490585" lon="17.527839">
        <ele>22.7283</ele>
        <time>2013-04-24T16:53:17Z</time>
      </trkpt>
      <trkpt lat="59.8490573" lon="17.5280213">
        <ele>22.7283</ele>
        <time>2013-04-24T16:53:18Z</time>
      </trkpt>
      <trkpt lat="59.849056" lon="17.528202">
        <ele>22.7283</ele>
        <time>2013-04-24T16:53:19Z</time>
      </trkpt>
      <trkpt lat="59.8490535" lon="17.5283806">
        <ele>22.7283</ele>
        <time>2013-04-24T16:53:20Z</time>
      </trkpt>
      <trkpt lat="59.849047" lon="17.5285574">
        <ele>22.7283</ele>
        <time>2013-04-24T16:53:21Z</time>
      </trkpt>
      <trkpt lat="59.849033" lon="17.5287308">
        <ele>22.7283</ele>
        <time>2013-04-24T16:53:22Z</time>
      </trkpt>
      <trkpt lat="59.8490161" lon="17.5289012">
        <ele>23.209</ele>
        <time>2013-04-24T16:53:23Z</time>
      </trkpt>
      <trkpt lat="59.8490056" lon="17.5290724">
        <ele>23.209</ele>
        <time>2013-04-24T16:53:24Z</time>
      </trkpt>
      <trkpt lat="59.849001" lon="17.5292456">
        <ele>23.209</ele>
        <time>2013-04-24T16:53:25Z</time>
      </trkpt>
      <trkpt lat="59.8490003" lon="17.5294216">
        <ele>22.7283</ele>
        <time>2013-04-24T16:53:26Z</time>
      </trkpt>
      <trkpt lat="59.8490006" lon="17.5295999">
        <ele>22.7283</ele>
        <time>2013-04-24T16:53:27Z</time>
      </trkpt>
      <trkpt lat="59.8490005" lon="17.5297804">
        <ele>22.7283</ele>
        <time>2013-04-24T16:53:28Z</time>
      </trkpt>
      <trkpt lat="59.8490031" lon="17.5299597">
        <ele>22.7283</ele>
        <time>2013-04-24T16:53:29Z</time>
      </trkpt>
      <trkpt lat="59.8490074" lon="17.5301399">
        <ele>22.7283</ele>
        <time>2013-04-24T16:53:30Z</time>
      </trkpt>
      <trkpt lat="59.849011" lon="17.5303218">
        <ele>22.2476</ele>
        <time>2013-04-24T16:53:31Z</time>
      </trkpt>
      <trkpt lat="59.8490112" lon="17.5305055">
        <ele>22.7283</ele>
        <time>2013-04-24T16:53:32Z</time>
      </trkpt>
      <trkpt lat="59.8490063" lon="17.5306889">
        <ele>22.7283</ele>
        <time>2013-04-24T16:53:33Z</time>
      </trkpt>
      <trkpt lat="59.8489988" lon="17.5308715">
        <ele>22.7283</ele>
        <time>2013-04-24T16:53:34Z</time>
      </trkpt>
      <trkpt lat="59.8489928" lon="17.5310543">
        <ele>22.2476</ele>
        <time>2013-04-24T16:53:35Z</time>
      </trkpt>
      <trkpt lat="59.8489882" lon="17.5312395">
        <ele>22.2476</ele>
        <time>2013-04-24T16:53:36Z</time>
      </trkpt>
      <trkpt lat="59.8489819" lon="17.5314275">
        <ele>22.2476</ele>
        <time>2013-04-24T16:53:37Z</time>
      </trkpt>
      <trkpt lat="59.8489754" lon="17.5316148">
        <ele>22.2476</ele>
        <time>2013-04-24T16:53:38Z</time>
      </trkpt>
      <trkpt lat="59.8489698" lon="17.5318022">
        <ele>22.2476</ele>
        <time>2013-04-24T16:53:39Z</time>
      </trkpt>
      <trkpt lat="59.8489657" lon="17.5319867">
        <ele>22.7283</ele>
        <time>2013-04-24T16:53:40Z</time>
      </trkpt>
      <trkpt lat="59.8489613" lon="17.5321695">
        <ele>22.7283</ele>
        <time>2013-04-24T16:53:41Z</time>
      </trkpt>
      <trkpt lat="59.8489601" lon="17.5323529">
        <ele>22.7283</ele>
        <time>2013-04-24T16:53:42Z</time>
      </trkpt>
      <trkpt lat="59.8489648" lon="17.5325371">
        <ele>23.209</ele>
        <time>2013-04-24T16:53:43Z</time>
      </trkpt>
      <trkpt lat="59.8489675" lon="17.5327222">
        <ele>23.209</ele>
        <time>2013-04-24T16:53:44Z</time>
      </trkpt>
      <trkpt lat="59.8489632" lon="17.5329071">
        <ele>23.209</ele>
        <time>2013-04-24T16:53:45Z</time>
      </trkpt>
      <trkpt lat="59.8489529" lon="17.5330915">
        <ele>23.209</ele>
        <time>2013-04-24T16:53:46Z</time>
      </trkpt>
      <trkpt lat="59.84894" lon="17.5332743">
        <ele>22.7283</ele>
        <time>2013-04-24T16:53:47Z</time>
      </trkpt>
      <trkpt lat="59.8489262" lon="17.5334553">
        <ele>22.7283</ele>
        <time>2013-04-24T16:53:48Z</time>
      </trkpt>
      <trkpt lat="59.8489113" lon="17.5336344">
        <ele>22.7283</ele>
        <time>2013-04-24T16:53:49Z</time>
      </trkpt>
      <trkpt lat="59.8488958" lon="17.5338125">
        <ele>23.209</ele>
        <time>2013-04-24T16:53:50Z</time>
      </trkpt>
      <trkpt lat="59.8488803" lon="17.5339903">
        <ele>23.209</ele>
        <time>2013-04-24T16:53:51Z</time>
      </trkpt>
      <trkpt lat="59.8488658" lon="17.534168">
        <ele>22.7283</ele>
        <time>2013-04-24T16:53:52Z</time>
      </trkpt>
      <trkpt lat="59.8488519" lon="17.5343482">
        <ele>22.7283</ele>
        <time>2013-04-24T16:53:53Z</time>
      </trkpt>
      <trkpt lat="59.8488387" lon="17.5345314">
        <ele>22.7283</ele>
        <time>2013-04-24T16:53:54Z</time>
      </trkpt>
      <trkpt lat="59.8488271" lon="17.5347158">
        <ele>22.7283</ele>
        <time>2013-04-24T16:53:55Z</time>
      </trkpt>
      <trkpt lat="59.8488165" lon="17.534901">
        <ele>22.7283</ele>
        <time>2013-04-24T16:53:56Z</time>
      </trkpt>
      <trkpt lat="59.8488057" lon="17.535086">
        <ele>23.209</ele>
        <time>2013-04-24T16:53:57Z</time>
      </trkpt>
      <trkpt lat="59.8487912" lon="17.5352697">
        <ele>23.209</ele>
        <time>2013-04-24T16:53:58Z</time>
      </trkpt>
      <trkpt lat="59.8487731" lon="17.5354501">
        <ele>23.6896</ele>
        <time>2013-04-24T16:53:59Z</time>
      </trkpt>
      <trkpt lat="59.8487569" lon="17.5356302">
        <ele>23.6896</ele>
        <time>2013-04-24T16:54:00Z</time>
      </trkpt>
      <trkpt lat="59.8487419" lon="17.5358107">
        <ele>23.6896</ele>
        <time>2013-04-24T16:54:01Z</time>
      </trkpt>
      <trkpt lat="59.8487279" lon="17.5359919">
        <ele>24.1703</ele>
        <time>2013-04-24T16:54:02Z</time>
      </trkpt>
      <trkpt lat="59.8487149" lon="17.5361747">
        <ele>24.1703</ele>
        <time>2013-04-24T16:54:03Z</time>
      </trkpt>
      <trkpt lat="59.8487016" lon="17.5363595">
        <ele>24.1703</ele>
        <time>2013-04-24T16:54:04Z</time>
      </trkpt>
      <trkpt lat="59.8486876" lon="17.5365452">
        <ele>24.1703</ele>
        <time>2013-04-24T16:54:05Z</time>
      </trkpt>
      <trkpt lat="59.8486716" lon="17.5367317">
        <ele>24.1703</ele>
        <time>2013-04-24T16:54:06Z</time>
      </trkpt>
      <trkpt lat="59.8486533" lon="17.5369191">
        <ele>23.6896</ele>
        <time>2013-04-24T16:54:07Z</time>
      </trkpt>
      <trkpt lat="59.8486339" lon="17.5371077">
        <ele>23.6896</ele>
        <time>2013-04-24T16:54:08Z</time>
      </trkpt>
      <trkpt lat="59.848614" lon="17.5372951">
        <ele>23.6896</ele>
        <time>2013-04-24T16:54:09Z</time>
      </trkpt>
      <trkpt lat="59.8485934" lon="17.5374806">
        <ele>23.6896</ele>
        <time>2013-04-24T16:54:10Z</time>
      </trkpt>
      <trkpt lat="59.8485742" lon="17.5376654">
        <ele>23.209</ele>
        <time>2013-04-24T16:54:11Z</time>
      </trkpt>
      <trkpt lat="59.8485556" lon="17.5378487">
        <ele>23.209</ele>
        <time>2013-04-24T16:54:12Z</time>
      </trkpt>
      <trkpt lat="59.8485352" lon="17.5380293">
        <ele>23.209</ele>
        <time>2013-04-24T16:54:13Z</time>
      </trkpt>
      <trkpt lat="59.8485123" lon="17.5382074">
        <ele>23.209</ele>
        <time>2013-04-24T16:54:14Z</time>
      </trkpt>
      <trkpt lat="59.848488" lon="17.5383835">
        <ele>22.7283</ele>
        <time>2013-04-24T16:54:15Z</time>
      </trkpt>
      <trkpt lat="59.8484628" lon="17.538558">
        <ele>22.7283</ele>
        <time>2013-04-24T16:54:16Z</time>
      </trkpt>
      <trkpt lat="59.8484376" lon="17.5387319">
        <ele>23.209</ele>
        <time>2013-04-24T16:54:17Z</time>
      </trkpt>
      <trkpt lat="59.8484131" lon="17.5389053">
        <ele>23.209</ele>
        <time>2013-04-24T16:54:18Z</time>
      </trkpt>
      <trkpt lat="59.8483898" lon="17.539079">
        <ele>23.209</ele>
        <time>2013-04-24T16:54:19Z</time>
      </trkpt>
      <trkpt lat="59.8483676" lon="17.5392522">
        <ele>23.209</ele>
        <time>2013-04-24T16:54:20Z</time>
      </trkpt>
      <trkpt lat="59.8483472" lon="17.539425">
        <ele>23.209</ele>
        <time>2013-04-24T16:54:21Z</time>
      </trkpt>
      <trkpt lat="59.8483287" lon="17.5395978">
        <ele>23.209</ele>
        <time>2013-04-24T16:54:22Z</time>
      </trkpt>
      <trkpt lat="59.8483115" lon="17.5397718">
        <ele>23.209</ele>
        <time>2013-04-24T16:54:23Z</time>
      </trkpt>
      <trkpt lat="59.8482932" lon="17.5399474">
        <ele>23.209</ele>
        <time>2013-04-24T16:54:24Z</time>
      </trkpt>
      <trkpt lat="59.848271" lon="17.5401228">
        <ele>23.209</ele>
        <time>2013-04-24T16:54:25Z</time>
      </trkpt>
      <trkpt lat="59.8482442" lon="17.5402971">
        <ele>23.209</ele>
        <time>2013-04-24T16:54:26Z</time>
      </trkpt>
      <trkpt lat="59.8482163" lon="17.5404727">
        <ele>22.7283</ele>
        <time>2013-04-24T16:54:27Z</time>
      </trkpt>
      <trkpt lat="59.8481894" lon="17.5406514">
        <ele>22.7283</ele>
        <time>2013-04-24T16:54:28Z</time>
      </trkpt>
      <trkpt lat="59.8481634" lon="17.5408336">
        <ele>22.7283</ele>
        <time>2013-04-24T16:54:29Z</time>
      </trkpt>
      <trkpt lat="59.8481386" lon="17.5410182">
        <ele>22.7283</ele>
        <time>2013-04-24T16:54:30Z</time>
      </trkpt>
      <trkpt lat="59.8481161" lon="17.5412039">
        <ele>22.2476</ele>
        <time>2013-04-24T16:54:31Z</time>
      </trkpt>
      <trkpt lat="59.8480945" lon="17.5413876">
        <ele>22.2476</ele>
        <time>2013-04-24T16:54:32Z</time>
      </trkpt>
      <trkpt lat="59.8480705" lon="17.5415687">
        <ele>22.2476</ele>
        <time>2013-04-24T16:54:33Z</time>
      </trkpt>
      <trkpt lat="59.8480444" lon="17.541747">
        <ele>22.7283</ele>
        <time>2013-04-24T16:54:34Z</time>
      </trkpt>
      <trkpt lat="59.8480176" lon="17.5419252">
        <ele>22.7283</ele>
        <time>2013-04-24T16:54:35Z</time>
      </trkpt>
      <trkpt lat="59.8479894" lon="17.5421038">
        <ele>23.209</ele>
        <time>2013-04-24T16:54:36Z</time>
      </trkpt>
      <trkpt lat="59.8479614" lon="17.5422829">
        <ele>23.209</ele>
        <time>2013-04-24T16:54:37Z</time>
      </trkpt>
      <trkpt lat="59.847934" lon="17.5424625">
        <ele>23.209</ele>
        <time>2013-04-24T16:54:38Z</time>
      </trkpt>
      <trkpt lat="59.8479059" lon="17.542643">
        <ele>23.209</ele>
        <time>2013-04-24T16:54:39Z</time>
      </trkpt>
      <trkpt lat="59.8478765" lon="17.5428244">
        <ele>23.209</ele>
        <time>2013-04-24T16:54:40Z</time>
      </trkpt>
      <trkpt lat="59.8478468" lon="17.5430063">
        <ele>23.209</ele>
        <time>2013-04-24T16:54:41Z</time>
      </trkpt>
      <trkpt lat="59.8478164" lon="17.5431871">
        <ele>23.6896</ele>
        <time>2013-04-24T16:54:42Z</time>
      </trkpt>
      <trkpt lat="59.8477853" lon="17.5433667">
        <ele>23.6896</ele>
        <time>2013-04-24T16:54:43Z</time>
      </trkpt>
      <trkpt lat="59.8477537" lon="17.5435458">
        <ele>23.6896</ele>
        <time>2013-04-24T16:54:44Z</time>
      </trkpt>
      <trkpt lat="59.8477221" lon="17.5437253">
        <ele>24.1703</ele>
        <time>2013-04-24T16:54:45Z</time>
      </trkpt>
      <trkpt lat="59.8476909" lon="17.5439055">
        <ele>24.1703</ele>
        <time>2013-04-24T16:54:46Z</time>
      </trkpt>
      <trkpt lat="59.8476607" lon="17.5440874">
        <ele>24.651</ele>
        <time>2013-04-24T16:54:47Z</time>
      </trkpt>
      <trkpt lat="59.8476315" lon="17.5442705">
        <ele>24.651</ele>
        <time>2013-04-24T16:54:48Z</time>
      </trkpt>
      <trkpt lat="59.8476025" lon="17.5444526">
        <ele>24.651</ele>
        <time>2013-04-24T16:54:49Z</time>
      </trkpt>
      <trkpt lat="59.8475748" lon="17.5446344">
        <ele>25.1317</ele>
        <time>2013-04-24T16:54:50Z</time>
      </trkpt>
      <trkpt lat="59.8475485" lon="17.5448173">
        <ele>25.1317</ele>
        <time>2013-04-24T16:54:51Z</time>
      </trkpt>
      <trkpt lat="59.8475232" lon="17.545002">
        <ele>25.6123</ele>
        <time>2013-04-24T16:54:52Z</time>
      </trkpt>
      <trkpt lat="59.8474978" lon="17.5451876">
        <ele>25.6123</ele>
        <time>2013-04-24T16:54:53Z</time>
      </trkpt>
      <trkpt lat="59.8474715" lon="17.5453741">
        <ele>25.6123</ele>
        <time>2013-04-24T16:54:54Z</time>
      </trkpt>
      <trkpt lat="59.8474425" lon="17.5455624">
        <ele>25.6123</ele>
        <time>2013-04-24T16:54:55Z</time>
      </trkpt>
      <trkpt lat="59.8474117" lon="17.5457501">
        <ele>25.6123</ele>
        <time>2013-04-24T16:54:56Z</time>
      </trkpt>
      <trkpt lat="59.8473801" lon="17.5459331">
        <ele>26.0929</ele>
        <time>2013-04-24T16:54:57Z</time>
      </trkpt>
      <trkpt lat="59.8473486" lon="17.5461098">
        <ele>26.5736</ele>
        <time>2013-04-24T16:54:58Z</time>
      </trkpt>
      <trkpt lat="59.8473179" lon="17.5462805">
        <ele>26.5736</ele>
        <time>2013-04-24T16:54:59Z</time>
      </trkpt>
      <trkpt lat="59.8472862" lon="17.5464469">
        <ele>27.0543</ele>
        <time>2013-04-24T16:55:00Z</time>
      </trkpt>
      <trkpt lat="59.8472542" lon="17.5466117">
        <ele>27.0543</ele>
        <time>2013-04-24T16:55:01Z</time>
      </trkpt>
      <trkpt lat="59.8472227" lon="17.5467763">
        <ele>27.0543</ele>
        <time>2013-04-24T16:55:02Z</time>
      </trkpt>
      <trkpt lat="59.8471911" lon="17.5469411">
        <ele>27.5349</ele>
        <time>2013-04-24T16:55:03Z</time>
      </trkpt>
      <trkpt lat="59.847158" lon="17.5471056">
        <ele>27.5349</ele>
        <time>2013-04-24T16:55:04Z</time>
      </trkpt>
      <trkpt lat="59.8471217" lon="17.5472679">
        <ele>27.5349</ele>
        <time>2013-04-24T16:55:05Z</time>
      </trkpt>
      <trkpt lat="59.8470813" lon="17.547428">
        <ele>27.5349</ele>
        <time>2013-04-24T16:55:06Z</time>
      </trkpt>
      <trkpt lat="59.8470381" lon="17.5475865">
        <ele>27.5349</ele>
        <time>2013-04-24T16:55:07Z</time>
      </trkpt>
      <trkpt lat="59.8469922" lon="17.5477433">
        <ele>27.5349</ele>
        <time>2013-04-24T16:55:08Z</time>
      </trkpt>
      <trkpt lat="59.846945" lon="17.5478969">
        <ele>28.0155</ele>
        <time>2013-04-24T16:55:09Z</time>
      </trkpt>
      <trkpt lat="59.8468984" lon="17.5480468">
        <ele>28.0155</ele>
        <time>2013-04-24T16:55:10Z</time>
      </trkpt>
      <trkpt lat="59.8468542" lon="17.5481946">
        <ele>28.0155</ele>
        <time>2013-04-24T16:55:11Z</time>
      </trkpt>
      <trkpt lat="59.8468114" lon="17.5483411">
        <ele>28.0155</ele>
        <time>2013-04-24T16:55:12Z</time>
      </trkpt>
      <trkpt lat="59.8467694" lon="17.5484841">
        <ele>28.0155</ele>
        <time>2013-04-24T16:55:13Z</time>
      </trkpt>
      <trkpt lat="59.8467276" lon="17.548623">
        <ele>28.0155</ele>
        <time>2013-04-24T16:55:14Z</time>
      </trkpt>
      <trkpt lat="59.8466866" lon="17.5487583">
        <ele>28.0155</ele>
        <time>2013-04-24T16:55:15Z</time>
      </trkpt>
      <trkpt lat="59.846644" lon="17.5488872">
        <ele>28.0155</ele>
        <time>2013-04-24T16:55:16Z</time>
      </trkpt>
      <trkpt lat="59.846598" lon="17.5490075">
        <ele>28.4962</ele>
        <time>2013-04-24T16:55:17Z</time>
      </trkpt>
      <trkpt lat="59.8465491" lon="17.5491182">
        <ele>28.4962</ele>
        <time>2013-04-24T16:55:18Z</time>
      </trkpt>
      <trkpt lat="59.8464973" lon="17.5492204">
        <ele>28.4962</ele>
        <time>2013-04-24T16:55:19Z</time>
      </trkpt>
      <trkpt lat="59.8464452" lon="17.5493202">
        <ele>28.9769</ele>
        <time>2013-04-24T16:55:20Z</time>
      </trkpt>
      <trkpt lat="59.8463955" lon="17.5494221">
        <ele>28.9769</ele>
        <time>2013-04-24T16:55:21Z</time>
      </trkpt>
      <trkpt lat="59.8463487" lon="17.549527">
        <ele>28.9769</ele>
        <time>2013-04-24T16:55:22Z</time>
      </trkpt>
      <trkpt lat="59.8463049" lon="17.5496327">
        <ele>28.9769</ele>
        <time>2013-04-24T16:55:23Z</time>
      </trkpt>
      <trkpt lat="59.8462645" lon="17.5497368">
        <ele>29.4575</ele>
        <time>2013-04-24T16:55:24Z</time>
      </trkpt>
      <trkpt lat="59.846226" lon="17.549835">
        <ele>29.4575</ele>
        <time>2013-04-24T16:55:25Z</time>
      </trkpt>
      <trkpt lat="59.8461886" lon="17.5499246">
        <ele>29.4575</ele>
        <time>2013-04-24T16:55:26Z</time>
      </trkpt>
      <trkpt lat="59.8461541" lon="17.5500092">
        <ele>29.9381</ele>
        <time>2013-04-24T16:55:27Z</time>
      </trkpt>
      <trkpt lat="59.846122" lon="17.5500937">
        <ele>29.9381</ele>
        <time>2013-04-24T16:55:28Z</time>
      </trkpt>
      <trkpt lat="59.8460907" lon="17.5501781">
        <ele>29.9381</ele>
        <time>2013-04-24T16:55:29Z</time>
      </trkpt>
      <trkpt lat="59.8460597" lon="17.5502651">
        <ele>29.9381</ele>
        <time>2013-04-24T16:55:30Z</time>
      </trkpt>
      <trkpt lat="59.8460288" lon="17.5503584">
        <ele>29.9381</ele>
        <time>2013-04-24T16:55:31Z</time>
      </trkpt>
      <trkpt lat="59.8459957" lon="17.5504558">
        <ele>29.9381</ele>
        <time>2013-04-24T16:55:32Z</time>
      </trkpt>
      <trkpt lat="59.8459591" lon="17.5505525">
        <ele>29.9381</ele>
        <time>2013-04-24T16:55:33Z</time>
      </trkpt>
      <trkpt lat="59.8459207" lon="17.5506479">
        <ele>30.4188</ele>
        <time>2013-04-24T16:55:34Z</time>
      </trkpt>
      <trkpt lat="59.8458829" lon="17.5507463">
        <ele>30.4188</ele>
        <time>2013-04-24T16:55:35Z</time>
      </trkpt>
      <trkpt lat="59.8458477" lon="17.5508464">
        <ele>30.4188</ele>
        <time>2013-04-24T16:55:36Z</time>
      </trkpt>
      <trkpt lat="59.8458147" lon="17.5509477">
        <ele>30.8995</ele>
        <time>2013-04-24T16:55:37Z</time>
      </trkpt>
      <trkpt lat="59.8457846" lon="17.5510525">
        <ele>30.8995</ele>
        <time>2013-04-24T16:55:38Z</time>
      </trkpt>
      <trkpt lat="59.8457557" lon="17.5511644">
        <ele>30.4188</ele>
        <time>2013-04-24T16:55:39Z</time>
      </trkpt>
      <trkpt lat="59.8457278" lon="17.5512821">
        <ele>30.4188</ele>
        <time>2013-04-24T16:55:40Z</time>
      </trkpt>
      <trkpt lat="59.8457024" lon="17.5514068">
        <ele>30.4188</ele>
        <time>2013-04-24T16:55:41Z</time>
      </trkpt>
      <trkpt lat="59.8456831" lon="17.5515414">
        <ele>30.4188</ele>
        <time>2013-04-24T16:55:42Z</time>
      </trkpt>
      <trkpt lat="59.8456714" lon="17.551686">
        <ele>29.9381</ele>
        <time>2013-04-24T16:55:43Z</time>
      </trkpt>
      <trkpt lat="59.8456682" lon="17.5518388">
        <ele>29.9381</ele>
        <time>2013-04-24T16:55:44Z</time>
      </trkpt>
      <trkpt lat="59.8456775" lon="17.5519947">
        <ele>29.9381</ele>
        <time>2013-04-24T16:55:45Z</time>
      </trkpt>
      <trkpt lat="59.8456967" lon="17.5521498">
        <ele>29.9381</ele>
        <time>2013-04-24T16:55:46Z</time>
      </trkpt>
      <trkpt lat="59.84572" lon="17.5523035">
        <ele>29.4575</ele>
        <time>2013-04-24T16:55:47Z</time>
      </trkpt>
      <trkpt lat="59.8457478" lon="17.5524561">
        <ele>29.4575</ele>
        <time>2013-04-24T16:55:48Z</time>
      </trkpt>
      <trkpt lat="59.845778" lon="17.552609">
        <ele>29.4575</ele>
        <time>2013-04-24T16:55:49Z</time>
      </trkpt>
      <trkpt lat="59.8458096" lon="17.5527624">
        <ele>29.4575</ele>
        <time>2013-04-24T16:55:50Z</time>
      </trkpt>
      <trkpt lat="59.8458443" lon="17.5529131">
        <ele>29.4575</ele>
        <time>2013-04-24T16:55:51Z</time>
      </trkpt>
      <trkpt lat="59.8458812" lon="17.5530604">
        <ele>29.4575</ele>
        <time>2013-04-24T16:55:52Z</time>
      </trkpt>
      <trkpt lat="59.8459194" lon="17.5532052">
        <ele>29.4575</ele>
        <time>2013-04-24T16:55:53Z</time>
      </trkpt>
      <trkpt lat="59.8459586" lon="17.5533464">
        <ele>29.4575</ele>
        <time>2013-04-24T16:55:54Z</time>
      </trkpt>
      <trkpt lat="59.8459981" lon="17.5534851">
        <ele>29.9381</ele>
        <time>2013-04-24T16:55:55Z</time>
      </trkpt>
      <trkpt lat="59.8460364" lon="17.5536212">
        <ele>29.9381</ele>
        <time>2013-04-24T16:55:56Z</time>
      </trkpt>
      <trkpt lat="59.8460717" lon="17.5537563">
        <ele>29.9381</ele>
        <time>2013-04-24T16:55:57Z</time>
      </trkpt>
      <trkpt lat="59.8461055" lon="17.5538937">
        <ele>29.9381</ele>
        <time>2013-04-24T16:55:58Z</time>
      </trkpt>
      <trkpt lat="59.8461406" lon="17.5540331">
        <ele>29.9381</ele>
        <time>2013-04-24T16:55:59Z</time>
      </trkpt>
      <trkpt lat="59.8461763" lon="17.5541745">
        <ele>29.9381</ele>
        <time>2013-04-24T16:56:00Z</time>
      </trkpt>
      <trkpt lat="59.8462131" lon="17.5543143">
        <ele>30.4188</ele>
        <time>2013-04-24T16:56:01Z</time>
      </trkpt>
      <trkpt lat="59.8462498" lon="17.5544537">
        <ele>30.4188</ele>
        <time>2013-04-24T16:56:02Z</time>
      </trkpt>
      <trkpt lat="59.8462872" lon="17.5545917">
        <ele>30.4188</ele>
        <time>2013-04-24T16:56:03Z</time>
      </trkpt>
      <trkpt lat="59.8463239" lon="17.5547298">
        <ele>30.4188</ele>
        <time>2013-04-24T16:56:04Z</time>
      </trkpt>
      <trkpt lat="59.84636" lon="17.5548683">
        <ele>30.4188</ele>
        <time>2013-04-24T16:56:05Z</time>
      </trkpt>
      <trkpt lat="59.8463965" lon="17.5550065">
        <ele>30.4188</ele>
        <time>2013-04-24T16:56:06Z</time>
      </trkpt>
      <trkpt lat="59.8464337" lon="17.5551436">
        <ele>30.4188</ele>
        <time>2013-04-24T16:56:07Z</time>
      </trkpt>
      <trkpt lat="59.8464704" lon="17.5552795">
        <ele>30.4188</ele>
        <time>2013-04-24T16:56:08Z</time>
      </trkpt>
      <trkpt lat="59.8465068" lon="17.555416">
        <ele>29.9381</ele>
        <time>2013-04-24T16:56:09Z</time>
      </trkpt>
      <trkpt lat="59.8465449" lon="17.5555518">
        <ele>29.9381</ele>
        <time>2013-04-24T16:56:10Z</time>
      </trkpt>
      <trkpt lat="59.8465839" lon="17.5556878">
        <ele>30.4188</ele>
        <time>2013-04-24T16:56:11Z</time>
      </trkpt>
      <trkpt lat="59.8466234" lon="17.5558243">
        <ele>29.9381</ele>
        <time>2013-04-24T16:56:12Z</time>
      </trkpt>
      <trkpt lat="59.8466629" lon="17.5559637">
        <ele>29.9381</ele>
        <time>2013-04-24T16:56:13Z</time>
      </trkpt>
      <trkpt lat="59.8467012" lon="17.5561073">
        <ele>29.9381</ele>
        <time>2013-04-24T16:56:14Z</time>
      </trkpt>
      <trkpt lat="59.8467388" lon="17.5562539">
        <ele>29.4575</ele>
        <time>2013-04-24T16:56:15Z</time>
      </trkpt>
      <trkpt lat="59.8467751" lon="17.5564034">
        <ele>29.4575</ele>
        <time>2013-04-24T16:56:16Z</time>
      </trkpt>
      <trkpt lat="59.8468108" lon="17.5565564">
        <ele>28.9769</ele>
        <time>2013-04-24T16:56:17Z</time>
      </trkpt>
      <trkpt lat="59.8468462" lon="17.5567124">
        <ele>28.9769</ele>
        <time>2013-04-24T16:56:18Z</time>
      </trkpt>
      <trkpt lat="59.8468825" lon="17.5568721">
        <ele>28.9769</ele>
        <time>2013-04-24T16:56:19Z</time>
      </trkpt>
      <trkpt lat="59.8469186" lon="17.5570338">
        <ele>28.4962</ele>
        <time>2013-04-24T16:56:20Z</time>
      </trkpt>
      <trkpt lat="59.8469529" lon="17.5571966">
        <ele>28.4962</ele>
        <time>2013-04-24T16:56:21Z</time>
      </trkpt>
      <trkpt lat="59.8469853" lon="17.5573615">
        <ele>28.4962</ele>
        <time>2013-04-24T16:56:22Z</time>
      </trkpt>
      <trkpt lat="59.8470181" lon="17.5575267">
        <ele>28.4962</ele>
        <time>2013-04-24T16:56:23Z</time>
      </trkpt>
      <trkpt lat="59.8470516" lon="17.5576899">
        <ele>28.4962</ele>
        <time>2013-04-24T16:56:24Z</time>
      </trkpt>
      <trkpt lat="59.8470854" lon="17.5578515">
        <ele>28.4962</ele>
        <time>2013-04-24T16:56:25Z</time>
      </trkpt>
      <trkpt lat="59.8471196" lon="17.5580125">
        <ele>28.4962</ele>
        <time>2013-04-24T16:56:26Z</time>
      </trkpt>
      <trkpt lat="59.8471543" lon="17.5581746">
        <ele>28.4962</ele>
        <time>2013-04-24T16:56:27Z</time>
      </trkpt>
      <trkpt lat="59.8471907" lon="17.5583372">
        <ele>28.4962</ele>
        <time>2013-04-24T16:56:28Z</time>
      </trkpt>
      <trkpt lat="59.8472295" lon="17.5585003">
        <ele>28.4962</ele>
        <time>2013-04-24T16:56:29Z</time>
      </trkpt>
      <trkpt lat="59.8472691" lon="17.5586646">
        <ele>28.4962</ele>
        <time>2013-04-24T16:56:30Z</time>
      </trkpt>
      <trkpt lat="59.8473083" lon="17.5588309">
        <ele>28.4962</ele>
        <time>2013-04-24T16:56:31Z</time>
      </trkpt>
      <trkpt lat="59.8473484" lon="17.558998">
        <ele>28.4962</ele>
        <time>2013-04-24T16:56:32Z</time>
      </trkpt>
      <trkpt lat="59.8473895" lon="17.5591643">
        <ele>28.4962</ele>
        <time>2013-04-24T16:56:33Z</time>
      </trkpt>
      <trkpt lat="59.8474294" lon="17.5593334">
        <ele>28.0155</ele>
        <time>2013-04-24T16:56:34Z</time>
      </trkpt>
      <trkpt lat="59.8474696" lon="17.5595027">
        <ele>28.0155</ele>
        <time>2013-04-24T16:56:35Z</time>
      </trkpt>
      <trkpt lat="59.8475107" lon="17.559667">
        <ele>27.5349</ele>
        <time>2013-04-24T16:56:36Z</time>
      </trkpt>
      <trkpt lat="59.8475526" lon="17.5598281">
        <ele>27.5349</ele>
        <time>2013-04-24T16:56:37Z</time>
      </trkpt>
      <trkpt lat="59.8475922" lon="17.5599887">
        <ele>27.5349</ele>
        <time>2013-04-24T16:56:38Z</time>
      </trkpt>
      <trkpt lat="59.8476294" lon="17.5601477">
        <ele>27.5349</ele>
        <time>2013-04-24T16:56:39Z</time>
      </trkpt>
      <trkpt lat="59.8476652" lon="17.5603053">
        <ele>27.5349</ele>
        <time>2013-04-24T16:56:40Z</time>
      </trkpt>
      <trkpt lat="59.8477004" lon="17.5604625">
        <ele>27.5349</ele>
        <time>2013-04-24T16:56:41Z</time>
      </trkpt>
      <trkpt lat="59.8477356" lon="17.5606191">
        <ele>27.5349</ele>
        <time>2013-04-24T16:56:42Z</time>
      </trkpt>
      <trkpt lat="59.8477704" lon="17.5607766">
        <ele>27.5349</ele>
        <time>2013-04-24T16:56:43Z</time>
      </trkpt>
      <trkpt lat="59.8478058" lon="17.5609331">
        <ele>27.5349</ele>
        <time>2013-04-24T16:56:44Z</time>
      </trkpt>
      <trkpt lat="59.8478408" lon="17.561091">
        <ele>27.5349</ele>
        <time>2013-04-24T16:56:45Z</time>
      </trkpt>
      <trkpt lat="59.8478752" lon="17.5612496">
        <ele>27.5349</ele>
        <time>2013-04-24T16:56:46Z</time>
      </trkpt>
      <trkpt lat="59.84791" lon="17.5614049">
        <ele>27.5349</ele>
        <time>2013-04-24T16:56:47Z</time>
      </trkpt>
      <trkpt lat="59.8479446" lon="17.5615562">
        <ele>28.0155</ele>
        <time>2013-04-24T16:56:48Z</time>
      </trkpt>
      <trkpt lat="59.847978" lon="17.5617047">
        <ele>28.0155</ele>
        <time>2013-04-24T16:56:49Z</time>
      </trkpt>
      <trkpt lat="59.8480115" lon="17.5618481">
        <ele>28.0155</ele>
        <time>2013-04-24T16:56:50Z</time>
      </trkpt>
      <trkpt lat="59.848051" lon="17.5619789">
        <ele>28.0155</ele>
        <time>2013-04-24T16:56:51Z</time>
      </trkpt>
      <trkpt lat="59.8481028" lon="17.5620885">
        <ele>28.0155</ele>
        <time>2013-04-24T16:56:52Z</time>
      </trkpt>
      <trkpt lat="59.8481664" lon="17.5621674">
        <ele>28.0155</ele>
        <time>2013-04-24T16:56:53Z</time>
      </trkpt>
      <trkpt lat="59.8482368" lon="17.5622083">
        <ele>28.0155</ele>
        <time>2013-04-24T16:56:54Z</time>
      </trkpt>
      <trkpt lat="59.8483086" lon="17.5622147">
        <ele>28.0155</ele>
        <time>2013-04-24T16:56:55Z</time>
      </trkpt>
      <trkpt lat="59.8483779" lon="17.5621923">
        <ele>28.0155</ele>
        <time>2013-04-24T16:56:56Z</time>
      </trkpt>
      <trkpt lat="59.8484409" lon="17.5621441">
        <ele>28.4962</ele>
        <time>2013-04-24T16:56:57Z</time>
      </trkpt>
      <trkpt lat="59.8484996" lon="17.5620849">
        <ele>28.4962</ele>
        <time>2013-04-24T16:56:58Z</time>
      </trkpt>
      <trkpt lat="59.8485571" lon="17.5620311">
        <ele>28.4962</ele>
        <time>2013-04-24T16:56:59Z</time>
      </trkpt>
      <trkpt lat="59.8486141" lon="17.5619939">
        <ele>28.9769</ele>
        <time>2013-04-24T16:57:00Z</time>
      </trkpt>
      <trkpt lat="59.8486664" lon="17.5619761">
        <ele>28.9769</ele>
        <time>2013-04-24T16:57:01Z</time>
      </trkpt>
      <trkpt lat="59.8487083" lon="17.5619774">
        <ele>28.9769</ele>
        <time>2013-04-24T16:57:02Z</time>
      </trkpt>
      <trkpt lat="59.8487379" lon="17.5619907">
        <ele>28.9769</ele>
        <time>2013-04-24T16:57:03Z</time>
      </trkpt>
      <trkpt lat="59.8490067" lon="17.567221">
        <ele>29.4575</ele>
        <time>2013-04-24T17:12:40Z</time>
      </trkpt>
      <trkpt lat="59.8490164" lon="17.567306">
        <ele>28.9769</ele>
        <time>2013-04-24T17:12:41Z</time>
      </trkpt>
      <trkpt lat="59.8490284" lon="17.5673891">
        <ele>28.9769</ele>
        <time>2013-04-24T17:12:42Z</time>
      </trkpt>
      <trkpt lat="59.8490412" lon="17.5674763">
        <ele>28.9769</ele>
        <time>2013-04-24T17:12:43Z</time>
      </trkpt>
      <trkpt lat="59.8490542" lon="17.567566">
        <ele>28.9769</ele>
        <time>2013-04-24T17:12:44Z</time>
      </trkpt>
      <trkpt lat="59.8490671" lon="17.5676573">
        <ele>28.9769</ele>
        <time>2013-04-24T17:12:45Z</time>
      </trkpt>
      <trkpt lat="59.8490798" lon="17.5677517">
        <ele>28.9769</ele>
        <time>2013-04-24T17:12:46Z</time>
      </trkpt>
      <trkpt lat="59.8490931" lon="17.5678482">
        <ele>28.4962</ele>
        <time>2013-04-24T17:12:47Z</time>
      </trkpt>
      <trkpt lat="59.8491066" lon="17.5679458">
        <ele>28.4962</ele>
        <time>2013-04-24T17:12:48Z</time>
      </trkpt>
      <trkpt lat="59.84912" lon="17.5680462">
        <ele>28.4962</ele>
        <time>2013-04-24T17:12:49Z</time>
      </trkpt>
      <trkpt lat="59.8491342" lon="17.5681479">
        <ele>28.4962</ele>
        <time>2013-04-24T17:12:50Z</time>
      </trkpt>
      <trkpt lat="59.8491493" lon="17.5682494">
        <ele>28.4962</ele>
        <time>2013-04-24T17:12:51Z</time>
      </trkpt>
      <trkpt lat="59.8491653" lon="17.5683507">
        <ele>28.9769</ele>
        <time>2013-04-24T17:12:52Z</time>
      </trkpt>
      <trkpt lat="59.8491822" lon="17.5684531">
        <ele>28.9769</ele>
        <time>2013-04-24T17:12:53Z</time>
      </trkpt>
      <trkpt lat="59.8491997" lon="17.5685555">
        <ele>28.9769</ele>
        <time>2013-04-24T17:12:54Z</time>
      </trkpt>
      <trkpt lat="59.8492176" lon="17.5686591">
        <ele>28.9769</ele>
        <time>2013-04-24T17:12:55Z</time>
      </trkpt>
      <trkpt lat="59.8492374" lon="17.5687622">
        <ele>28.9769</ele>
        <time>2013-04-24T17:12:56Z</time>
      </trkpt>
      <trkpt lat="59.8492581" lon="17.5688635">
        <ele>28.9769</ele>
        <time>2013-04-24T17:12:57Z</time>
      </trkpt>
      <trkpt lat="59.849278" lon="17.5689663">
        <ele>29.4575</ele>
        <time>2013-04-24T17:12:58Z</time>
      </trkpt>
      <trkpt lat="59.8493004" lon="17.5690669">
        <ele>29.4575</ele>
        <time>2013-04-24T17:12:59Z</time>
      </trkpt>
      <trkpt lat="59.8493235" lon="17.5691663">
        <ele>29.4575</ele>
        <time>2013-04-24T17:13:00Z</time>
      </trkpt>
      <trkpt lat="59.849346" lon="17.569269">
        <ele>29.4575</ele>
        <time>2013-04-24T17:13:01Z</time>
      </trkpt>
      <trkpt lat="59.8493688" lon="17.5693713">
        <ele>29.4575</ele>
        <time>2013-04-24T17:13:02Z</time>
      </trkpt>
      <trkpt lat="59.8493927" lon="17.569476">
        <ele>29.4575</ele>
        <time>2013-04-24T17:13:03Z</time>
      </trkpt>
      <trkpt lat="59.8494175" lon="17.5695805">
        <ele>29.4575</ele>
        <time>2013-04-24T17:13:04Z</time>
      </trkpt>
      <trkpt lat="59.8494425" lon="17.5696849">
        <ele>29.4575</ele>
        <time>2013-04-24T17:13:05Z</time>
      </trkpt>
      <trkpt lat="59.8494687" lon="17.5697868">
        <ele>28.9769</ele>
        <time>2013-04-24T17:13:06Z</time>
      </trkpt>
      <trkpt lat="59.8494933" lon="17.5698897">
        <ele>28.9769</ele>
        <time>2013-04-24T17:13:07Z</time>
      </trkpt>
      <trkpt lat="59.8495162" lon="17.5699936">
        <ele>28.9769</ele>
        <time>2013-04-24T17:13:08Z</time>
      </trkpt>
      <trkpt lat="59.8495398" lon="17.5700946">
        <ele>28.4962</ele>
        <time>2013-04-24T17:13:09Z</time>
      </trkpt>
      <trkpt lat="59.849564" lon="17.5701945">
        <ele>28.4962</ele>
        <time>2013-04-24T17:13:10Z</time>
      </trkpt>
      <trkpt lat="59.8495885" lon="17.570295">
        <ele>28.0155</ele>
        <time>2013-04-24T17:13:11Z</time>
      </trkpt>
      <trkpt lat="59.8496149" lon="17.570395">
        <ele>28.0155</ele>
        <time>2013-04-24T17:13:12Z</time>
      </trkpt>
      <trkpt lat="59.8496421" lon="17.5704945">
        <ele>27.5349</ele>
        <time>2013-04-24T17:13:13Z</time>
      </trkpt>
      <trkpt lat="59.8496689" lon="17.5705942">
        <ele>27.0543</ele>
        <time>2013-04-24T17:13:14Z</time>
      </trkpt>
      <trkpt lat="59.8496953" lon="17.5706935">
        <ele>27.0543</ele>
        <time>2013-04-24T17:13:15Z</time>
      </trkpt>
      <trkpt lat="59.8497206" lon="17.570795">
        <ele>27.0543</ele>
        <time>2013-04-24T17:13:16Z</time>
      </trkpt>
      <trkpt lat="59.8497468" lon="17.5708969">
        <ele>27.0543</ele>
        <time>2013-04-24T17:13:17Z</time>
      </trkpt>
      <trkpt lat="59.8497739" lon="17.570998">
        <ele>27.0543</ele>
        <time>2013-04-24T17:13:18Z</time>
      </trkpt>
      <trkpt lat="59.8498003" lon="17.571099">
        <ele>27.0543</ele>
        <time>2013-04-24T17:13:19Z</time>
      </trkpt>
      <trkpt lat="59.8498258" lon="17.5711998">
        <ele>27.0543</ele>
        <time>2013-04-24T17:13:20Z</time>
      </trkpt>
      <trkpt lat="59.8498496" lon="17.5713015">
        <ele>27.0543</ele>
        <time>2013-04-24T17:13:21Z</time>
      </trkpt>
      <trkpt lat="59.8498754" lon="17.5714011">
        <ele>27.0543</ele>
        <time>2013-04-24T17:13:22Z</time>
      </trkpt>
      <trkpt lat="59.8499033" lon="17.5714976">
        <ele>27.0543</ele>
        <time>2013-04-24T17:13:23Z</time>
      </trkpt>
      <trkpt lat="59.8499303" lon="17.5715943">
        <ele>27.0543</ele>
        <time>2013-04-24T17:13:24Z</time>
      </trkpt>
      <trkpt lat="59.8499557" lon="17.5716914">
        <ele>27.0543</ele>
        <time>2013-04-24T17:13:25Z</time>
      </trkpt>
      <trkpt lat="59.849979" lon="17.5717878">
        <ele>27.0543</ele>
        <time>2013-04-24T17:13:26Z</time>
      </trkpt>
      <trkpt lat="59.8500014" lon="17.5718837">
        <ele>27.0543</ele>
        <time>2013-04-24T17:13:27Z</time>
      </trkpt>
      <trkpt lat="59.8500255" lon="17.571978">
        <ele>27.0543</ele>
        <time>2013-04-24T17:13:28Z</time>
      </trkpt>
      <trkpt lat="59.8500498" lon="17.5720713">
        <ele>27.0543</ele>
        <time>2013-04-24T17:13:29Z</time>
      </trkpt>
      <trkpt lat="59.8500738" lon="17.5721641">
        <ele>27.0543</ele>
        <time>2013-04-24T17:13:30Z</time>
      </trkpt>
      <trkpt lat="59.8500983" lon="17.5722563">
        <ele>27.0543</ele>
        <time>2013-04-24T17:13:31Z</time>
      </trkpt>
      <trkpt lat="59.8501211" lon="17.5723458">
        <ele>27.0543</ele>
        <time>2013-04-24T17:13:32Z</time>
      </trkpt>
      <trkpt lat="59.8501407" lon="17.572426">
        <ele>27.0543</ele>
        <time>2013-04-24T17:13:33Z</time>
      </trkpt>
      <trkpt lat="59.8501536" lon="17.5724975">
        <ele>27.0543</ele>
        <time>2013-04-24T17:13:34Z</time>
      </trkpt>
      <trkpt lat="59.8501536" lon="17.5725659">
        <ele>26.5736</ele>
        <time>2013-04-24T17:13:35Z</time>
      </trkpt>
      <trkpt lat="59.8501381" lon="17.5726277">
        <ele>26.5736</ele>
        <time>2013-04-24T17:13:36Z</time>
      </trkpt>
      <trkpt lat="59.8501131" lon="17.5726751">
        <ele>26.5736</ele>
        <time>2013-04-24T17:13:37Z</time>
      </trkpt>
      <trkpt lat="59.8500848" lon="17.5727104">
        <ele>26.5736</ele>
        <time>2013-04-24T17:13:38Z</time>
      </trkpt>
      <trkpt lat="59.8500563" lon="17.5727367">
        <ele>26.5736</ele>
        <time>2013-04-24T17:13:39Z</time>
      </trkpt>
      <trkpt lat="59.8498361" lon="17.572883">
        <ele>29.4575</ele>
        <time>2013-04-24T17:13:51Z</time>
      </trkpt>
      <trkpt lat="59.8498208" lon="17.5728959">
        <ele>29.4575</ele>
        <time>2013-04-24T17:13:52Z</time>
      </trkpt>
      <trkpt lat="59.8497988" lon="17.5729063">
        <ele>29.4575</ele>
        <time>2013-04-24T17:13:53Z</time>
      </trkpt>
      <trkpt lat="59.8497713" lon="17.5729202">
        <ele>29.4575</ele>
        <time>2013-04-24T17:13:54Z</time>
      </trkpt>
      <trkpt lat="59.84974" lon="17.5729481">
        <ele>29.4575</ele>
        <time>2013-04-24T17:13:55Z</time>
      </trkpt>
      <trkpt lat="59.8497072" lon="17.5729944">
        <ele>29.4575</ele>
        <time>2013-04-24T17:13:56Z</time>
      </trkpt>
      <trkpt lat="59.8496772" lon="17.573058">
        <ele>29.4575</ele>
        <time>2013-04-24T17:13:57Z</time>
      </trkpt>
      <trkpt lat="59.8496548" lon="17.5731413">
        <ele>29.9381</ele>
        <time>2013-04-24T17:13:58Z</time>
      </trkpt>
      <trkpt lat="59.8496407" lon="17.573244">
        <ele>29.9381</ele>
        <time>2013-04-24T17:13:59Z</time>
      </trkpt>
      <trkpt lat="59.8496338" lon="17.5733601">
        <ele>29.4575</ele>
        <time>2013-04-24T17:14:00Z</time>
      </trkpt>
      <trkpt lat="59.8496366" lon="17.5734885">
        <ele>29.4575</ele>
        <time>2013-04-24T17:14:01Z</time>
      </trkpt>
      <trkpt lat="59.8496464" lon="17.5736256">
        <ele>29.4575</ele>
        <time>2013-04-24T17:14:02Z</time>
      </trkpt>
      <trkpt lat="59.8496615" lon="17.5737652">
        <ele>29.4575</ele>
        <time>2013-04-24T17:14:03Z</time>
      </trkpt>
      <trkpt lat="59.8496781" lon="17.573905">
        <ele>29.4575</ele>
        <time>2013-04-24T17:14:04Z</time>
      </trkpt>
      <trkpt lat="59.8496944" lon="17.5740488">
        <ele>29.4575</ele>
        <time>2013-04-24T17:14:05Z</time>
      </trkpt>
      <trkpt lat="59.8497118" lon="17.5741982">
        <ele>29.4575</ele>
        <time>2013-04-24T17:14:06Z</time>
      </trkpt>
      <trkpt lat="59.8497315" lon="17.5743516">
        <ele>28.9769</ele>
        <time>2013-04-24T17:14:07Z</time>
      </trkpt>
      <trkpt lat="59.8497537" lon="17.5745073">
        <ele>28.9769</ele>
        <time>2013-04-24T17:14:08Z</time>
      </trkpt>
      <trkpt lat="59.8497778" lon="17.5746637">
        <ele>28.9769</ele>
        <time>2013-04-24T17:14:09Z</time>
      </trkpt>
      <trkpt lat="59.8498017" lon="17.5748193">
        <ele>28.4962</ele>
        <time>2013-04-24T17:14:10Z</time>
      </trkpt>
      <trkpt lat="59.8498245" lon="17.5749756">
        <ele>28.0155</ele>
        <time>2013-04-24T17:14:11Z</time>
      </trkpt>
      <trkpt lat="59.849847" lon="17.5751312">
        <ele>28.0155</ele>
        <time>2013-04-24T17:14:12Z</time>
      </trkpt>
      <trkpt lat="59.8498703" lon="17.5752866">
        <ele>27.5349</ele>
        <time>2013-04-24T17:14:13Z</time>
      </trkpt>
      <trkpt lat="59.849894" lon="17.5754436">
        <ele>27.0543</ele>
        <time>2013-04-24T17:14:14Z</time>
      </trkpt>
      <trkpt lat="59.849918" lon="17.5756035">
        <ele>27.0543</ele>
        <time>2013-04-24T17:14:15Z</time>
      </trkpt>
      <trkpt lat="59.8499419" lon="17.5757647">
        <ele>26.5736</ele>
        <time>2013-04-24T17:14:16Z</time>
      </trkpt>
      <trkpt lat="59.8499667" lon="17.5759278">
        <ele>26.0929</ele>
        <time>2013-04-24T17:14:17Z</time>
      </trkpt>
      <trkpt lat="59.849993" lon="17.576093">
        <ele>26.0929</ele>
        <time>2013-04-24T17:14:18Z</time>
      </trkpt>
      <trkpt lat="59.8500189" lon="17.5762595">
        <ele>25.6123</ele>
        <time>2013-04-24T17:14:19Z</time>
      </trkpt>
      <trkpt lat="59.8500455" lon="17.5764278">
        <ele>25.1317</ele>
        <time>2013-04-24T17:14:20Z</time>
      </trkpt>
      <trkpt lat="59.8500729" lon="17.5766007">
        <ele>24.651</ele>
        <time>2013-04-24T17:14:21Z</time>
      </trkpt>
      <trkpt lat="59.8501014" lon="17.5767748">
        <ele>24.651</ele>
        <time>2013-04-24T17:14:22Z</time>
      </trkpt>
      <trkpt lat="59.8501304" lon="17.5769504">
        <ele>24.651</ele>
        <time>2013-04-24T17:14:23Z</time>
      </trkpt>
      <trkpt lat="59.8501609" lon="17.5771274">
        <ele>24.1703</ele>
        <time>2013-04-24T17:14:24Z</time>
      </trkpt>
      <trkpt lat="59.850192" lon="17.5773052">
        <ele>24.1703</ele>
        <time>2013-04-24T17:14:25Z</time>
      </trkpt>
      <trkpt lat="59.8502233" lon="17.5774832">
        <ele>23.6896</ele>
        <time>2013-04-24T17:14:26Z</time>
      </trkpt>
      <trkpt lat="59.8502551" lon="17.577661">
        <ele>23.6896</ele>
        <time>2013-04-24T17:14:27Z</time>
      </trkpt>
      <trkpt lat="59.8502878" lon="17.5778388">
        <ele>23.6896</ele>
        <time>2013-04-24T17:14:28Z</time>
      </trkpt>
      <trkpt lat="59.8503226" lon="17.578016">
        <ele>23.6896</ele>
        <time>2013-04-24T17:14:29Z</time>
      </trkpt>
      <trkpt lat="59.8503585" lon="17.5781953">
        <ele>23.209</ele>
        <time>2013-04-24T17:14:30Z</time>
      </trkpt>
      <trkpt lat="59.8503946" lon="17.578378">
        <ele>23.209</ele>
        <time>2013-04-24T17:14:31Z</time>
      </trkpt>
      <trkpt lat="59.8504314" lon="17.5785609">
        <ele>22.7283</ele>
        <time>2013-04-24T17:14:32Z</time>
      </trkpt>
      <trkpt lat="59.8504692" lon="17.5787428">
        <ele>22.7283</ele>
        <time>2013-04-24T17:14:33Z</time>
      </trkpt>
      <trkpt lat="59.8505084" lon="17.5789238">
        <ele>22.2476</ele>
        <time>2013-04-24T17:14:34Z</time>
      </trkpt>
      <trkpt lat="59.8505477" lon="17.5791047">
        <ele>22.2476</ele>
        <time>2013-04-24T17:14:35Z</time>
      </trkpt>
      <trkpt lat="59.8505863" lon="17.5792862">
        <ele>21.767</ele>
        <time>2013-04-24T17:14:36Z</time>
      </trkpt>
      <trkpt lat="59.8506251" lon="17.5794679">
        <ele>21.767</ele>
        <time>2013-04-24T17:14:37Z</time>
      </trkpt>
      <trkpt lat="59.8506652" lon="17.5796483">
        <ele>21.767</ele>
        <time>2013-04-24T17:14:38Z</time>
      </trkpt>
      <trkpt lat="59.8507063" lon="17.5798279">
        <ele>21.2864</ele>
        <time>2013-04-24T17:14:39Z</time>
      </trkpt>
      <trkpt lat="59.8507479" lon="17.5800072">
        <ele>21.2864</ele>
        <time>2013-04-24T17:14:40Z</time>
      </trkpt>
      <trkpt lat="59.8507892" lon="17.5801879">
        <ele>20.8057</ele>
        <time>2013-04-24T17:14:41Z</time>
      </trkpt>
      <trkpt lat="59.8508308" lon="17.5803713">
        <ele>20.8057</ele>
        <time>2013-04-24T17:14:42Z</time>
      </trkpt>
      <trkpt lat="59.850873" lon="17.5805564">
        <ele>20.325</ele>
        <time>2013-04-24T17:14:43Z</time>
      </trkpt>
      <trkpt lat="59.8509155" lon="17.5807405">
        <ele>20.325</ele>
        <time>2013-04-24T17:14:44Z</time>
      </trkpt>
      <trkpt lat="59.850958" lon="17.5809241">
        <ele>19.8444</ele>
        <time>2013-04-24T17:14:45Z</time>
      </trkpt>
      <trkpt lat="59.8510001" lon="17.5811085">
        <ele>19.3638</ele>
        <time>2013-04-24T17:14:46Z</time>
      </trkpt>
      <trkpt lat="59.8510415" lon="17.5812937">
        <ele>19.3638</ele>
        <time>2013-04-24T17:14:47Z</time>
      </trkpt>
      <trkpt lat="59.8510837" lon="17.5814782">
        <ele>19.3638</ele>
        <time>2013-04-24T17:14:48Z</time>
      </trkpt>
      <trkpt lat="59.851127" lon="17.5816615">
        <ele>18.8831</ele>
        <time>2013-04-24T17:14:49Z</time>
      </trkpt>
      <trkpt lat="59.8511705" lon="17.5818435">
        <ele>18.8831</ele>
        <time>2013-04-24T17:14:50Z</time>
      </trkpt>
      <trkpt lat="59.8512128" lon="17.5820255">
        <ele>18.4023</ele>
        <time>2013-04-24T17:14:51Z</time>
      </trkpt>
      <trkpt lat="59.8512542" lon="17.5822072">
        <ele>18.4023</ele>
        <time>2013-04-24T17:14:52Z</time>
      </trkpt>
      <trkpt lat="59.8512956" lon="17.5823881">
        <ele>17.9218</ele>
        <time>2013-04-24T17:14:53Z</time>
      </trkpt>
      <trkpt lat="59.8513376" lon="17.5825682">
        <ele>17.9218</ele>
        <time>2013-04-24T17:14:54Z</time>
      </trkpt>
      <trkpt lat="59.8513796" lon="17.5827478">
        <ele>17.9218</ele>
        <time>2013-04-24T17:14:55Z</time>
      </trkpt>
      <trkpt lat="59.8514216" lon="17.5829288">
        <ele>17.4412</ele>
        <time>2013-04-24T17:14:56Z</time>
      </trkpt>
      <trkpt lat="59.851464" lon="17.5831111">
        <ele>17.4412</ele>
        <time>2013-04-24T17:14:57Z</time>
      </trkpt>
      <trkpt lat="59.8515062" lon="17.5832925">
        <ele>17.4412</ele>
        <time>2013-04-24T17:14:58Z</time>
      </trkpt>
      <trkpt lat="59.851548" lon="17.5834732">
        <ele>17.4412</ele>
        <time>2013-04-24T17:14:59Z</time>
      </trkpt>
      <trkpt lat="59.851589" lon="17.583654">
        <ele>16.9604</ele>
        <time>2013-04-24T17:15:00Z</time>
      </trkpt>
      <trkpt lat="59.851629" lon="17.5838341">
        <ele>16.9604</ele>
        <time>2013-04-24T17:15:01Z</time>
      </trkpt>
      <trkpt lat="59.8516693" lon="17.584013">
        <ele>16.4797</ele>
        <time>2013-04-24T17:15:02Z</time>
      </trkpt>
      <trkpt lat="59.8517097" lon="17.5841906">
        <ele>16.4797</ele>
        <time>2013-04-24T17:15:03Z</time>
      </trkpt>
      <trkpt lat="59.851751" lon="17.5843662">
        <ele>16.4797</ele>
        <time>2013-04-24T17:15:04Z</time>
      </trkpt>
      <trkpt lat="59.8517916" lon="17.5845407">
        <ele>16.4797</ele>
        <time>2013-04-24T17:15:05Z</time>
      </trkpt>
      <trkpt lat="59.8518316" lon="17.5847143">
        <ele>15.999</ele>
        <time>2013-04-24T17:15:06Z</time>
      </trkpt>
      <trkpt lat="59.851872" lon="17.5848867">
        <ele>15.999</ele>
        <time>2013-04-24T17:15:07Z</time>
      </trkpt>
      <trkpt lat="59.8519129" lon="17.5850577">
        <ele>15.999</ele>
        <time>2013-04-24T17:15:08Z</time>
      </trkpt>
      <trkpt lat="59.8519531" lon="17.5852282">
        <ele>15.999</ele>
        <time>2013-04-24T17:15:09Z</time>
      </trkpt>
      <trkpt lat="59.851993" lon="17.5853992">
        <ele>15.5184</ele>
        <time>2013-04-24T17:15:10Z</time>
      </trkpt>
      <trkpt lat="59.8520348" lon="17.58557">
        <ele>15.5184</ele>
        <time>2013-04-24T17:15:11Z</time>
      </trkpt>
      <trkpt lat="59.8520779" lon="17.5857395">
        <ele>15.5184</ele>
        <time>2013-04-24T17:15:12Z</time>
      </trkpt>
      <trkpt lat="59.8521195" lon="17.5859088">
        <ele>15.5184</ele>
        <time>2013-04-24T17:15:13Z</time>
      </trkpt>
      <trkpt lat="59.8521589" lon="17.5860778">
        <ele>15.5184</ele>
        <time>2013-04-24T17:15:14Z</time>
      </trkpt>
      <trkpt lat="59.8521975" lon="17.5862461">
        <ele>15.5184</ele>
        <time>2013-04-24T17:15:15Z</time>
      </trkpt>
      <trkpt lat="59.852235" lon="17.5864144">
        <ele>15.0377</ele>
        <time>2013-04-24T17:15:16Z</time>
      </trkpt>
      <trkpt lat="59.8522723" lon="17.5865831">
        <ele>15.0377</ele>
        <time>2013-04-24T17:15:17Z</time>
      </trkpt>
      <trkpt lat="59.8523096" lon="17.5867553">
        <ele>15.0377</ele>
        <time>2013-04-24T17:15:18Z</time>
      </trkpt>
      <trkpt lat="59.8523453" lon="17.5869325">
        <ele>15.0377</ele>
        <time>2013-04-24T17:15:19Z</time>
      </trkpt>
      <trkpt lat="59.8523809" lon="17.5871096">
        <ele>15.0377</ele>
        <time>2013-04-24T17:15:20Z</time>
      </trkpt>
      <trkpt lat="59.8524173" lon="17.587284">
        <ele>15.0377</ele>
        <time>2013-04-24T17:15:21Z</time>
      </trkpt>
      <trkpt lat="59.852454" lon="17.587456">
        <ele>15.0377</ele>
        <time>2013-04-24T17:15:22Z</time>
      </trkpt>
      <trkpt lat="59.852491" lon="17.5876251">
        <ele>15.0377</ele>
        <time>2013-04-24T17:15:23Z</time>
      </trkpt>
      <trkpt lat="59.8525286" lon="17.5877912">
        <ele>14.557</ele>
        <time>2013-04-24T17:15:24Z</time>
      </trkpt>
      <trkpt lat="59.8525653" lon="17.5879564">
        <ele>14.557</ele>
        <time>2013-04-24T17:15:25Z</time>
      </trkpt>
      <trkpt lat="59.8526008" lon="17.5881226">
        <ele>14.557</ele>
        <time>2013-04-24T17:15:26Z</time>
      </trkpt>
      <trkpt lat="59.8526359" lon="17.588289">
        <ele>14.557</ele>
        <time>2013-04-24T17:15:27Z</time>
      </trkpt>
      <trkpt lat="59.8526711" lon="17.5884539">
        <ele>14.557</ele>
        <time>2013-04-24T17:15:28Z</time>
      </trkpt>
      <trkpt lat="59.8527075" lon="17.5886176">
        <ele>14.557</ele>
        <time>2013-04-24T17:15:29Z</time>
      </trkpt>
      <trkpt lat="59.8527447" lon="17.5887816">
        <ele>14.557</ele>
        <time>2013-04-24T17:15:30Z</time>
      </trkpt>
      <trkpt lat="59.852782" lon="17.5889442">
        <ele>14.557</ele>
        <time>2013-04-24T17:15:31Z</time>
      </trkpt>
      <trkpt lat="59.8528198" lon="17.5891049">
        <ele>14.557</ele>
        <time>2013-04-24T17:15:32Z</time>
      </trkpt>
      <trkpt lat="59.8528576" lon="17.5892651">
        <ele>14.557</ele>
        <time>2013-04-24T17:15:33Z</time>
      </trkpt>
      <trkpt lat="59.852895" lon="17.5894231">
        <ele>14.557</ele>
        <time>2013-04-24T17:15:34Z</time>
      </trkpt>
      <trkpt lat="59.8529343" lon="17.5895773">
        <ele>15.0377</ele>
        <time>2013-04-24T17:15:35Z</time>
      </trkpt>
      <trkpt lat="59.8529747" lon="17.5897302">
        <ele>15.0377</ele>
        <time>2013-04-24T17:15:36Z</time>
      </trkpt>
      <trkpt lat="59.8530147" lon="17.5898841">
        <ele>15.0377</ele>
        <time>2013-04-24T17:15:37Z</time>
      </trkpt>
      <trkpt lat="59.853056" lon="17.5900358">
        <ele>15.0377</ele>
        <time>2013-04-24T17:15:38Z</time>
      </trkpt>
      <trkpt lat="59.853099" lon="17.5901841">
        <ele>15.5184</ele>
        <time>2013-04-24T17:15:39Z</time>
      </trkpt>
      <trkpt lat="59.853143" lon="17.5903296">
        <ele>15.5184</ele>
        <time>2013-04-24T17:15:40Z</time>
      </trkpt>
      <trkpt lat="59.8531871" lon="17.590474">
        <ele>15.5184</ele>
        <time>2013-04-24T17:15:41Z</time>
      </trkpt>
      <trkpt lat="59.8532319" lon="17.5906179">
        <ele>15.5184</ele>
        <time>2013-04-24T17:15:42Z</time>
      </trkpt>
      <trkpt lat="59.8532782" lon="17.5907581">
        <ele>15.5184</ele>
        <time>2013-04-24T17:15:43Z</time>
      </trkpt>
      <trkpt lat="59.8533265" lon="17.5908952">
        <ele>15.999</ele>
        <time>2013-04-24T17:15:44Z</time>
      </trkpt>
      <trkpt lat="59.8533759" lon="17.5910309">
        <ele>15.999</ele>
        <time>2013-04-24T17:15:45Z</time>
      </trkpt>
      <trkpt lat="59.8534264" lon="17.5911641">
        <ele>16.4797</ele>
        <time>2013-04-24T17:15:46Z</time>
      </trkpt>
      <trkpt lat="59.8534791" lon="17.5912936">
        <ele>16.4797</ele>
        <time>2013-04-24T17:15:47Z</time>
      </trkpt>
      <trkpt lat="59.8535324" lon="17.5914215">
        <ele>16.4797</ele>
        <time>2013-04-24T17:15:48Z</time>
      </trkpt>
      <trkpt lat="59.853587" lon="17.5915464">
        <ele>16.4797</ele>
        <time>2013-04-24T17:15:49Z</time>
      </trkpt>
      <trkpt lat="59.8536449" lon="17.5916672">
        <ele>16.4797</ele>
        <time>2013-04-24T17:15:50Z</time>
      </trkpt>
      <trkpt lat="59.8537056" lon="17.5917835">
        <ele>16.4797</ele>
        <time>2013-04-24T17:15:51Z</time>
      </trkpt>
      <trkpt lat="59.8537682" lon="17.5918972">
        <ele>16.4797</ele>
        <time>2013-04-24T17:15:52Z</time>
      </trkpt>
      <trkpt lat="59.853832" lon="17.5920082">
        <ele>16.9604</ele>
        <time>2013-04-24T17:15:53Z</time>
      </trkpt>
      <trkpt lat="59.8538945" lon="17.5921184">
        <ele>16.9604</ele>
        <time>2013-04-24T17:15:54Z</time>
      </trkpt>
      <trkpt lat="59.8539548" lon="17.59223">
        <ele>16.9604</ele>
        <time>2013-04-24T17:15:55Z</time>
      </trkpt>
      <trkpt lat="59.8540126" lon="17.5923479">
        <ele>16.9604</ele>
        <time>2013-04-24T17:15:56Z</time>
      </trkpt>
      <trkpt lat="59.8540628" lon="17.5924793">
        <ele>16.9604</ele>
        <time>2013-04-24T17:15:57Z</time>
      </trkpt>
      <trkpt lat="59.8540998" lon="17.5926248">
        <ele>16.9604</ele>
        <time>2013-04-24T17:15:58Z</time>
      </trkpt>
      <trkpt lat="59.8541225" lon="17.5927796">
        <ele>17.4412</ele>
        <time>2013-04-24T17:15:59Z</time>
      </trkpt>
      <trkpt lat="59.8541318" lon="17.5929388">
        <ele>17.4412</ele>
        <time>2013-04-24T17:16:00Z</time>
      </trkpt>
      <trkpt lat="59.8541297" lon="17.5930973">
        <ele>17.9218</ele>
        <time>2013-04-24T17:16:01Z</time>
      </trkpt>
      <trkpt lat="59.85412" lon="17.5932551">
        <ele>17.9218</ele>
        <time>2013-04-24T17:16:02Z</time>
      </trkpt>
      <trkpt lat="59.8541046" lon="17.5934121">
        <ele>17.9218</ele>
        <time>2013-04-24T17:16:03Z</time>
      </trkpt>
      <trkpt lat="59.8540859" lon="17.5935675">
        <ele>18.4023</ele>
        <time>2013-04-24T17:16:04Z</time>
      </trkpt>
      <trkpt lat="59.8540681" lon="17.5937229">
        <ele>18.4023</ele>
        <time>2013-04-24T17:16:05Z</time>
      </trkpt>
      <trkpt lat="59.8540522" lon="17.5938788">
        <ele>18.4023</ele>
        <time>2013-04-24T17:16:06Z</time>
      </trkpt>
      <trkpt lat="59.8540366" lon="17.5940354">
        <ele>18.4023</ele>
        <time>2013-04-24T17:16:07Z</time>
      </trkpt>
      <trkpt lat="59.8540221" lon="17.5941933">
        <ele>18.4023</ele>
        <time>2013-04-24T17:16:08Z</time>
      </trkpt>
      <trkpt lat="59.8540097" lon="17.5943514">
        <ele>18.8831</ele>
        <time>2013-04-24T17:16:09Z</time>
      </trkpt>
      <trkpt lat="59.8539993" lon="17.5945093">
        <ele>18.8831</ele>
        <time>2013-04-24T17:16:10Z</time>
      </trkpt>
      <trkpt lat="59.8539926" lon="17.5946669">
        <ele>18.8831</ele>
        <time>2013-04-24T17:16:11Z</time>
      </trkpt>
      <trkpt lat="59.8539889" lon="17.5948243">
        <ele>19.3638</ele>
        <time>2013-04-24T17:16:12Z</time>
      </trkpt>
      <trkpt lat="59.8539878" lon="17.5949816">
        <ele>19.3638</ele>
        <time>2013-04-24T17:16:13Z</time>
      </trkpt>
      <trkpt lat="59.8539901" lon="17.5951383">
        <ele>19.3638</ele>
        <time>2013-04-24T17:16:14Z</time>
      </trkpt>
      <trkpt lat="59.8539952" lon="17.5952931">
        <ele>19.3638</ele>
        <time>2013-04-24T17:16:15Z</time>
      </trkpt>
      <trkpt lat="59.8540019" lon="17.5954469">
        <ele>19.3638</ele>
        <time>2013-04-24T17:16:16Z</time>
      </trkpt>
      <trkpt lat="59.8540097" lon="17.5956014">
        <ele>19.3638</ele>
        <time>2013-04-24T17:16:17Z</time>
      </trkpt>
      <trkpt lat="59.854018" lon="17.5957573">
        <ele>19.3638</ele>
        <time>2013-04-24T17:16:18Z</time>
      </trkpt>
      <trkpt lat="59.8540264" lon="17.5959143">
        <ele>19.3638</ele>
        <time>2013-04-24T17:16:19Z</time>
      </trkpt>
      <trkpt lat="59.8540352" lon="17.5960725">
        <ele>19.3638</ele>
        <time>2013-04-24T17:16:20Z</time>
      </trkpt>
      <trkpt lat="59.8540445" lon="17.5962324">
        <ele>19.3638</ele>
        <time>2013-04-24T17:16:21Z</time>
      </trkpt>
      <trkpt lat="59.8540533" lon="17.596393">
        <ele>19.8444</ele>
        <time>2013-04-24T17:16:22Z</time>
      </trkpt>
      <trkpt lat="59.8540608" lon="17.5965528">
        <ele>19.8444</ele>
        <time>2013-04-24T17:16:23Z</time>
      </trkpt>
      <trkpt lat="59.854067" lon="17.5967116">
        <ele>19.8444</ele>
        <time>2013-04-24T17:16:24Z</time>
      </trkpt>
      <trkpt lat="59.8540722" lon="17.5968703">
        <ele>19.8444</ele>
        <time>2013-04-24T17:16:25Z</time>
      </trkpt>
      <trkpt lat="59.8540759" lon="17.5970286">
        <ele>19.8444</ele>
        <time>2013-04-24T17:16:26Z</time>
      </trkpt>
      <trkpt lat="59.8540785" lon="17.5971884">
        <ele>19.8444</ele>
        <time>2013-04-24T17:16:27Z</time>
      </trkpt>
      <trkpt lat="59.8540795" lon="17.5973502">
        <ele>19.8444</ele>
        <time>2013-04-24T17:16:28Z</time>
      </trkpt>
      <trkpt lat="59.8540791" lon="17.597514">
        <ele>19.8444</ele>
        <time>2013-04-24T17:16:29Z</time>
      </trkpt>
      <trkpt lat="59.8540776" lon="17.5976784">
        <ele>19.8444</ele>
        <time>2013-04-24T17:16:30Z</time>
      </trkpt>
      <trkpt lat="59.8540763" lon="17.5978424">
        <ele>19.8444</ele>
        <time>2013-04-24T17:16:31Z</time>
      </trkpt>
      <trkpt lat="59.8540743" lon="17.598006">
        <ele>19.8444</ele>
        <time>2013-04-24T17:16:32Z</time>
      </trkpt>
      <trkpt lat="59.8540718" lon="17.5981681">
        <ele>19.8444</ele>
        <time>2013-04-24T17:16:33Z</time>
      </trkpt>
      <trkpt lat="59.8540683" lon="17.5983296">
        <ele>19.8444</ele>
        <time>2013-04-24T17:16:34Z</time>
      </trkpt>
      <trkpt lat="59.8540633" lon="17.5984922">
        <ele>19.8444</ele>
        <time>2013-04-24T17:16:35Z</time>
      </trkpt>
      <trkpt lat="59.8540572" lon="17.5986555">
        <ele>19.8444</ele>
        <time>2013-04-24T17:16:36Z</time>
      </trkpt>
      <trkpt lat="59.8540509" lon="17.5988191">
        <ele>19.8444</ele>
        <time>2013-04-24T17:16:37Z</time>
      </trkpt>
      <trkpt lat="59.8540443" lon="17.5989829">
        <ele>19.8444</ele>
        <time>2013-04-24T17:16:38Z</time>
      </trkpt>
      <trkpt lat="59.8540359" lon="17.5991471">
        <ele>20.325</ele>
        <time>2013-04-24T17:16:39Z</time>
      </trkpt>
      <trkpt lat="59.854026" lon="17.5993118">
        <ele>20.325</ele>
        <time>2013-04-24T17:16:40Z</time>
      </trkpt>
      <trkpt lat="59.854015" lon="17.599477">
        <ele>20.8057</ele>
        <time>2013-04-24T17:16:41Z</time>
      </trkpt>
      <trkpt lat="59.8540035" lon="17.5996414">
        <ele>20.8057</ele>
        <time>2013-04-24T17:16:42Z</time>
      </trkpt>
      <trkpt lat="59.8539926" lon="17.599806">
        <ele>20.8057</ele>
        <time>2013-04-24T17:16:43Z</time>
      </trkpt>
      <trkpt lat="59.8539805" lon="17.5999729">
        <ele>21.2864</ele>
        <time>2013-04-24T17:16:44Z</time>
      </trkpt>
      <trkpt lat="59.8539665" lon="17.6001394">
        <ele>21.2864</ele>
        <time>2013-04-24T17:16:45Z</time>
      </trkpt>
      <trkpt lat="59.8539522" lon="17.6003054">
        <ele>21.2864</ele>
        <time>2013-04-24T17:16:46Z</time>
      </trkpt>
      <trkpt lat="59.8539403" lon="17.6004704">
        <ele>21.2864</ele>
        <time>2013-04-24T17:16:47Z</time>
      </trkpt>
      <trkpt lat="59.8539283" lon="17.6006364">
        <ele>21.2864</ele>
        <time>2013-04-24T17:16:48Z</time>
      </trkpt>
      <trkpt lat="59.8539152" lon="17.6008033">
        <ele>21.2864</ele>
        <time>2013-04-24T17:16:49Z</time>
      </trkpt>
      <trkpt lat="59.8539023" lon="17.6009711">
        <ele>21.2864</ele>
        <time>2013-04-24T17:16:50Z</time>
      </trkpt>
      <trkpt lat="59.853891" lon="17.6011384">
        <ele>21.767</ele>
        <time>2013-04-24T17:16:51Z</time>
      </trkpt>
      <trkpt lat="59.8538808" lon="17.6013037">
        <ele>21.767</ele>
        <time>2013-04-24T17:16:52Z</time>
      </trkpt>
      <trkpt lat="59.8538706" lon="17.6014655">
        <ele>21.2864</ele>
        <time>2013-04-24T17:16:53Z</time>
      </trkpt>
      <trkpt lat="59.8538574" lon="17.6016249">
        <ele>21.767</ele>
        <time>2013-04-24T17:16:54Z</time>
      </trkpt>
      <trkpt lat="59.853846" lon="17.6017782">
        <ele>21.767</ele>
        <time>2013-04-24T17:16:55Z</time>
      </trkpt>
      <trkpt lat="59.8538346" lon="17.6019269">
        <ele>21.767</ele>
        <time>2013-04-24T17:16:56Z</time>
      </trkpt>
      <trkpt lat="59.8538219" lon="17.6020723">
        <ele>21.767</ele>
        <time>2013-04-24T17:16:57Z</time>
      </trkpt>
      <trkpt lat="59.8538097" lon="17.6022174">
        <ele>21.767</ele>
        <time>2013-04-24T17:16:58Z</time>
      </trkpt>
      <trkpt lat="59.8537994" lon="17.6023597">
        <ele>21.767</ele>
        <time>2013-04-24T17:16:59Z</time>
      </trkpt>
      <trkpt lat="59.8537898" lon="17.6025023">
        <ele>21.767</ele>
        <time>2013-04-24T17:17:00Z</time>
      </trkpt>
      <trkpt lat="59.8537797" lon="17.6026528">
        <ele>21.767</ele>
        <time>2013-04-24T17:17:01Z</time>
      </trkpt>
      <trkpt lat="59.8537708" lon="17.6028095">
        <ele>22.2476</ele>
        <time>2013-04-24T17:17:02Z</time>
      </trkpt>
      <trkpt lat="59.853763" lon="17.6029715">
        <ele>22.2476</ele>
        <time>2013-04-24T17:17:03Z</time>
      </trkpt>
      <trkpt lat="59.8537579" lon="17.6031357">
        <ele>22.2476</ele>
        <time>2013-04-24T17:17:04Z</time>
      </trkpt>
      <trkpt lat="59.8537551" lon="17.6033024">
        <ele>22.2476</ele>
        <time>2013-04-24T17:17:05Z</time>
      </trkpt>
      <trkpt lat="59.8537553" lon="17.6034692">
        <ele>22.2476</ele>
        <time>2013-04-24T17:17:06Z</time>
      </trkpt>
      <trkpt lat="59.8537564" lon="17.6036383">
        <ele>21.767</ele>
        <time>2013-04-24T17:17:07Z</time>
      </trkpt>
      <trkpt lat="59.8537584" lon="17.6038095">
        <ele>21.767</ele>
        <time>2013-04-24T17:17:08Z</time>
      </trkpt>
      <trkpt lat="59.8537617" lon="17.6039832">
        <ele>21.767</ele>
        <time>2013-04-24T17:17:09Z</time>
      </trkpt>
      <trkpt lat="59.8537666" lon="17.6041584">
        <ele>21.2864</ele>
        <time>2013-04-24T17:17:10Z</time>
      </trkpt>
      <trkpt lat="59.8537731" lon="17.6043349">
        <ele>21.2864</ele>
        <time>2013-04-24T17:17:11Z</time>
      </trkpt>
      <trkpt lat="59.8537836" lon="17.6045122">
        <ele>20.8057</ele>
        <time>2013-04-24T17:17:12Z</time>
      </trkpt>
      <trkpt lat="59.8537953" lon="17.6046904">
        <ele>20.8057</ele>
        <time>2013-04-24T17:17:13Z</time>
      </trkpt>
      <trkpt lat="59.8538101" lon="17.6048709">
        <ele>20.325</ele>
        <time>2013-04-24T17:17:14Z</time>
      </trkpt>
      <trkpt lat="59.8538294" lon="17.605053">
        <ele>20.325</ele>
        <time>2013-04-24T17:17:15Z</time>
      </trkpt>
      <trkpt lat="59.8538496" lon="17.6052357">
        <ele>20.325</ele>
        <time>2013-04-24T17:17:16Z</time>
      </trkpt>
      <trkpt lat="59.853873" lon="17.6054177">
        <ele>19.8444</ele>
        <time>2013-04-24T17:17:17Z</time>
      </trkpt>
      <trkpt lat="59.8538977" lon="17.6056001">
        <ele>19.8444</ele>
        <time>2013-04-24T17:17:18Z</time>
      </trkpt>
      <trkpt lat="59.8539247" lon="17.6057834">
        <ele>19.8444</ele>
        <time>2013-04-24T17:17:19Z</time>
      </trkpt>
      <trkpt lat="59.8539547" lon="17.6059657">
        <ele>19.8444</ele>
        <time>2013-04-24T17:17:20Z</time>
      </trkpt>
      <trkpt lat="59.8539858" lon="17.6061466">
        <ele>19.3638</ele>
        <time>2013-04-24T17:17:21Z</time>
      </trkpt>
      <trkpt lat="59.8540194" lon="17.6063281">
        <ele>19.3638</ele>
        <time>2013-04-24T17:17:22Z</time>
      </trkpt>
      <trkpt lat="59.8540546" lon="17.6065101">
        <ele>19.3638</ele>
        <time>2013-04-24T17:17:23Z</time>
      </trkpt>
      <trkpt lat="59.8540923" lon="17.6066899">
        <ele>18.8831</ele>
        <time>2013-04-24T17:17:24Z</time>
      </trkpt>
      <trkpt lat="59.8541338" lon="17.6068664">
        <ele>18.8831</ele>
        <time>2013-04-24T17:17:25Z</time>
      </trkpt>
      <trkpt lat="59.8541766" lon="17.6070406">
        <ele>18.8831</ele>
        <time>2013-04-24T17:17:26Z</time>
      </trkpt>
      <trkpt lat="59.8542199" lon="17.607212">
        <ele>18.4023</ele>
        <time>2013-04-24T17:17:27Z</time>
      </trkpt>
      <trkpt lat="59.8542648" lon="17.6073795">
        <ele>18.4023</ele>
        <time>2013-04-24T17:17:28Z</time>
      </trkpt>
      <trkpt lat="59.8543125" lon="17.6075441">
        <ele>18.4023</ele>
        <time>2013-04-24T17:17:29Z</time>
      </trkpt>
      <trkpt lat="59.8543618" lon="17.6077066">
        <ele>18.4023</ele>
        <time>2013-04-24T17:17:30Z</time>
      </trkpt>
      <trkpt lat="59.8544125" lon="17.6078669">
        <ele>17.9218</ele>
        <time>2013-04-24T17:17:31Z</time>
      </trkpt>
      <trkpt lat="59.8544641" lon="17.6080253">
        <ele>17.9218</ele>
        <time>2013-04-24T17:17:32Z</time>
      </trkpt>
      <trkpt lat="59.8545171" lon="17.6081816">
        <ele>17.9218</ele>
        <time>2013-04-24T17:17:33Z</time>
      </trkpt>
      <trkpt lat="59.8545728" lon="17.6083346">
        <ele>17.9218</ele>
        <time>2013-04-24T17:17:34Z</time>
      </trkpt>
      <trkpt lat="59.8546303" lon="17.6084836">
        <ele>17.4412</ele>
        <time>2013-04-24T17:17:35Z</time>
      </trkpt>
      <trkpt lat="59.8546879" lon="17.6086287">
        <ele>17.4412</ele>
        <time>2013-04-24T17:17:36Z</time>
      </trkpt>
      <trkpt lat="59.8547493" lon="17.6087697">
        <ele>16.9604</ele>
        <time>2013-04-24T17:17:37Z</time>
      </trkpt>
      <trkpt lat="59.8548136" lon="17.608908">
        <ele>16.9604</ele>
        <time>2013-04-24T17:17:38Z</time>
      </trkpt>
      <trkpt lat="59.8548806" lon="17.6090431">
        <ele>16.9604</ele>
        <time>2013-04-24T17:17:39Z</time>
      </trkpt>
      <trkpt lat="59.8549495" lon="17.6091751">
        <ele>16.4797</ele>
        <time>2013-04-24T17:17:40Z</time>
      </trkpt>
      <trkpt lat="59.8550207" lon="17.6093064">
        <ele>16.4797</ele>
        <time>2013-04-24T17:17:41Z</time>
      </trkpt>
      <trkpt lat="59.8550934" lon="17.6094358">
        <ele>16.4797</ele>
        <time>2013-04-24T17:17:42Z</time>
      </trkpt>
      <trkpt lat="59.8551683" lon="17.6095632">
        <ele>16.4797</ele>
        <time>2013-04-24T17:17:43Z</time>
      </trkpt>
      <trkpt lat="59.8552435" lon="17.6096881">
        <ele>16.4797</ele>
        <time>2013-04-24T17:17:44Z</time>
      </trkpt>
      <trkpt lat="59.8553182" lon="17.6098088">
        <ele>16.4797</ele>
        <time>2013-04-24T17:17:45Z</time>
      </trkpt>
      <trkpt lat="59.8553943" lon="17.6099279">
        <ele>16.9604</ele>
        <time>2013-04-24T17:17:46Z</time>
      </trkpt>
      <trkpt lat="59.8554689" lon="17.6100457">
        <ele>16.4797</ele>
        <time>2013-04-24T17:17:47Z</time>
      </trkpt>
      <trkpt lat="59.8555438" lon="17.6101586">
        <ele>16.4797</ele>
        <time>2013-04-24T17:17:48Z</time>
      </trkpt>
      <trkpt lat="59.8556176" lon="17.6102676">
        <ele>16.4797</ele>
        <time>2013-04-24T17:17:49Z</time>
      </trkpt>
      <trkpt lat="59.8556906" lon="17.6103736">
        <ele>16.9604</ele>
        <time>2013-04-24T17:17:50Z</time>
      </trkpt>
      <trkpt lat="59.8557616" lon="17.6104794">
        <ele>16.9604</ele>
        <time>2013-04-24T17:17:51Z</time>
      </trkpt>
      <trkpt lat="59.855832" lon="17.6105841">
        <ele>16.9604</ele>
        <time>2013-04-24T17:17:52Z</time>
      </trkpt>
      <trkpt lat="59.855901" lon="17.6106868">
        <ele>16.9604</ele>
        <time>2013-04-24T17:17:53Z</time>
      </trkpt>
      <trkpt lat="59.8559689" lon="17.6107861">
        <ele>16.9604</ele>
        <time>2013-04-24T17:17:54Z</time>
      </trkpt>
      <trkpt lat="59.8560355" lon="17.610882">
        <ele>16.4797</ele>
        <time>2013-04-24T17:17:55Z</time>
      </trkpt>
      <trkpt lat="59.856101" lon="17.6109759">
        <ele>16.4797</ele>
        <time>2013-04-24T17:17:56Z</time>
      </trkpt>
      <trkpt lat="59.8561652" lon="17.6110697">
        <ele>16.4797</ele>
        <time>2013-04-24T17:17:57Z</time>
      </trkpt>
      <trkpt lat="59.8562264" lon="17.6111617">
        <ele>15.999</ele>
        <time>2013-04-24T17:17:58Z</time>
      </trkpt>
      <trkpt lat="59.8562874" lon="17.6112504">
        <ele>15.999</ele>
        <time>2013-04-24T17:17:59Z</time>
      </trkpt>
      <trkpt lat="59.8563495" lon="17.6113391">
        <ele>15.999</ele>
        <time>2013-04-24T17:18:00Z</time>
      </trkpt>
      <trkpt lat="59.8564063" lon="17.6114281">
        <ele>15.5184</ele>
        <time>2013-04-24T17:18:01Z</time>
      </trkpt>
      <trkpt lat="59.856464" lon="17.6115147">
        <ele>15.5184</ele>
        <time>2013-04-24T17:18:02Z</time>
      </trkpt>
      <trkpt lat="59.8565213" lon="17.611603">
        <ele>15.0377</ele>
        <time>2013-04-24T17:18:03Z</time>
      </trkpt>
      <trkpt lat="59.856577" lon="17.611695">
        <ele>14.557</ele>
        <time>2013-04-24T17:18:04Z</time>
      </trkpt>
      <trkpt lat="59.8566358" lon="17.6117859">
        <ele>14.557</ele>
        <time>2013-04-24T17:18:05Z</time>
      </trkpt>
      <trkpt lat="59.8566961" lon="17.6118726">
        <ele>14.557</ele>
        <time>2013-04-24T17:18:06Z</time>
      </trkpt>
      <trkpt lat="59.8567551" lon="17.6119581">
        <ele>14.0764</ele>
        <time>2013-04-24T17:18:07Z</time>
      </trkpt>
      <trkpt lat="59.8568168" lon="17.6120472">
        <ele>13.5958</ele>
        <time>2013-04-24T17:18:08Z</time>
      </trkpt>
      <trkpt lat="59.8568806" lon="17.6121412">
        <ele>13.5958</ele>
        <time>2013-04-24T17:18:09Z</time>
      </trkpt>
      <trkpt lat="59.8569432" lon="17.6122381">
        <ele>13.1151</ele>
        <time>2013-04-24T17:18:10Z</time>
      </trkpt>
      <trkpt lat="59.8570075" lon="17.6123357">
        <ele>13.1151</ele>
        <time>2013-04-24T17:18:11Z</time>
      </trkpt>
      <trkpt lat="59.8570773" lon="17.6124357">
        <ele>13.1151</ele>
        <time>2013-04-24T17:18:12Z</time>
      </trkpt>
      <trkpt lat="59.8571471" lon="17.6125399">
        <ele>13.1151</ele>
        <time>2013-04-24T17:18:13Z</time>
      </trkpt>
      <trkpt lat="59.8572202" lon="17.6126445">
        <ele>13.1151</ele>
        <time>2013-04-24T17:18:14Z</time>
      </trkpt>
      <trkpt lat="59.8573021" lon="17.612751">
        <ele>13.5958</ele>
        <time>2013-04-24T17:18:15Z</time>
      </trkpt>
      <trkpt lat="59.8573808" lon="17.6128592">
        <ele>13.5958</ele>
        <time>2013-04-24T17:18:16Z</time>
      </trkpt>
      <trkpt lat="59.8574525" lon="17.6129695">
        <ele>13.5958</ele>
        <time>2013-04-24T17:18:17Z</time>
      </trkpt>
      <trkpt lat="59.8575283" lon="17.613078">
        <ele>13.1151</ele>
        <time>2013-04-24T17:18:18Z</time>
      </trkpt>
      <trkpt lat="59.857606" lon="17.6131873">
        <ele>13.1151</ele>
        <time>2013-04-24T17:18:19Z</time>
      </trkpt>
      <trkpt lat="59.8576842" lon="17.613297">
        <ele>13.1151</ele>
        <time>2013-04-24T17:18:20Z</time>
      </trkpt>
      <trkpt lat="59.8577627" lon="17.6134059">
        <ele>13.1151</ele>
        <time>2013-04-24T17:18:21Z</time>
      </trkpt>
      <trkpt lat="59.8578384" lon="17.6135167">
        <ele>12.6344</ele>
        <time>2013-04-24T17:18:22Z</time>
      </trkpt>
      <trkpt lat="59.8579134" lon="17.6136279">
        <ele>12.1538</ele>
        <time>2013-04-24T17:18:23Z</time>
      </trkpt>
      <trkpt lat="59.8579911" lon="17.6137408">
        <ele>12.1538</ele>
        <time>2013-04-24T17:18:24Z</time>
      </trkpt>
      <trkpt lat="59.8580701" lon="17.6138581">
        <ele>12.1538</ele>
        <time>2013-04-24T17:18:25Z</time>
      </trkpt>
      <trkpt lat="59.8581478" lon="17.6139752">
        <ele>11.6732</ele>
        <time>2013-04-24T17:18:26Z</time>
      </trkpt>
      <trkpt lat="59.8582219" lon="17.6140968">
        <ele>11.6732</ele>
        <time>2013-04-24T17:18:27Z</time>
      </trkpt>
      <trkpt lat="59.8582981" lon="17.6142197">
        <ele>11.6732</ele>
        <time>2013-04-24T17:18:28Z</time>
      </trkpt>
      <trkpt lat="59.8583729" lon="17.614345">
        <ele>11.6732</ele>
        <time>2013-04-24T17:18:29Z</time>
      </trkpt>
      <trkpt lat="59.8584454" lon="17.6144704">
        <ele>11.6732</ele>
        <time>2013-04-24T17:18:30Z</time>
      </trkpt>
      <trkpt lat="59.8585159" lon="17.6145984">
        <ele>11.1925</ele>
        <time>2013-04-24T17:18:31Z</time>
      </trkpt>
      <trkpt lat="59.8585842" lon="17.6147283">
        <ele>10.7118</ele>
        <time>2013-04-24T17:18:32Z</time>
      </trkpt>
      <trkpt lat="59.8586557" lon="17.6148532">
        <ele>11.1925</ele>
        <time>2013-04-24T17:18:33Z</time>
      </trkpt>
      <trkpt lat="59.8587275" lon="17.6149756">
        <ele>11.1925</ele>
        <time>2013-04-24T17:18:34Z</time>
      </trkpt>
      <trkpt lat="59.8588022" lon="17.6151002">
        <ele>11.1925</ele>
        <time>2013-04-24T17:18:35Z</time>
      </trkpt>
      <trkpt lat="59.8588729" lon="17.6152267">
        <ele>11.6732</ele>
        <time>2013-04-24T17:18:36Z</time>
      </trkpt>
      <trkpt lat="59.8589421" lon="17.6153541">
        <ele>11.6732</ele>
        <time>2013-04-24T17:18:37Z</time>
      </trkpt>
      <trkpt lat="59.859008" lon="17.6154834">
        <ele>11.6732</ele>
        <time>2013-04-24T17:18:38Z</time>
      </trkpt>
      <trkpt lat="59.8590785" lon="17.6156152">
        <ele>12.1538</ele>
        <time>2013-04-24T17:18:39Z</time>
      </trkpt>
      <trkpt lat="59.8591404" lon="17.6157497">
        <ele>12.6344</ele>
        <time>2013-04-24T17:18:40Z</time>
      </trkpt>
      <trkpt lat="59.8592" lon="17.6158802">
        <ele>12.6344</ele>
        <time>2013-04-24T17:18:41Z</time>
      </trkpt>
      <trkpt lat="59.8592546" lon="17.6160135">
        <ele>13.1151</ele>
        <time>2013-04-24T17:18:42Z</time>
      </trkpt>
      <trkpt lat="59.8593121" lon="17.6161542">
        <ele>14.0764</ele>
        <time>2013-04-24T17:18:43Z</time>
      </trkpt>
      <trkpt lat="59.8593702" lon="17.6162912">
        <ele>14.0764</ele>
        <time>2013-04-24T17:18:44Z</time>
      </trkpt>
      <trkpt lat="59.8594194" lon="17.616426">
        <ele>15.0377</ele>
        <time>2013-04-24T17:18:45Z</time>
      </trkpt>
      <trkpt lat="59.8594519" lon="17.6165806">
        <ele>14.557</ele>
        <time>2013-04-24T17:18:46Z</time>
      </trkpt>
      <trkpt lat="59.8594922" lon="17.6167489">
        <ele>14.557</ele>
        <time>2013-04-24T17:18:47Z</time>
      </trkpt>
      <trkpt lat="59.8595313" lon="17.6168869">
        <ele>15.0377</ele>
        <time>2013-04-24T17:18:48Z</time>
      </trkpt>
      <trkpt lat="59.8595928" lon="17.61704">
        <ele>15.5184</ele>
        <time>2013-04-24T17:18:49Z</time>
      </trkpt>
      <trkpt lat="59.8596425" lon="17.6171552">
        <ele>15.999</ele>
        <time>2013-04-24T17:18:50Z</time>
      </trkpt>
      <trkpt lat="59.8597076" lon="17.6172821">
        <ele>15.5184</ele>
        <time>2013-04-24T17:18:51Z</time>
      </trkpt>
      <trkpt lat="59.8597747" lon="17.617391">
        <ele>15.5184</ele>
        <time>2013-04-24T17:18:52Z</time>
      </trkpt>
      <trkpt lat="59.8598632" lon="17.6175214">
        <ele>18.4023</ele>
        <time>2013-04-24T17:18:53Z</time>
      </trkpt>
      <trkpt lat="59.8599357" lon="17.6176199">
        <ele>18.8831</ele>
        <time>2013-04-24T17:18:54Z</time>
      </trkpt>
      <trkpt lat="59.8599956" lon="17.6177345">
        <ele>18.4023</ele>
        <time>2013-04-24T17:18:55Z</time>
      </trkpt>
      <trkpt lat="59.8600642" lon="17.6178639">
        <ele>17.9218</ele>
        <time>2013-04-24T17:18:56Z</time>
      </trkpt>
      <trkpt lat="59.8601092" lon="17.6179735">
        <ele>17.4412</ele>
        <time>2013-04-24T17:18:57Z</time>
      </trkpt>
      <trkpt lat="59.860164" lon="17.6180787">
        <ele>17.4412</ele>
        <time>2013-04-24T17:18:58Z</time>
      </trkpt>
      <trkpt lat="59.8602102" lon="17.6181784">
        <ele>17.4412</ele>
        <time>2013-04-24T17:18:59Z</time>
      </trkpt>
      <trkpt lat="59.8602506" lon="17.6182668">
        <ele>16.9604</ele>
        <time>2013-04-24T17:19:00Z</time>
      </trkpt>
      <trkpt lat="59.8602849" lon="17.6183357">
        <ele>16.9604</ele>
        <time>2013-04-24T17:19:01Z</time>
      </trkpt>
      <trkpt lat="59.8603076" lon="17.6183955">
        <ele>15.999</ele>
        <time>2013-04-24T17:19:02Z</time>
      </trkpt>
      <trkpt lat="59.8603366" lon="17.6184548">
        <ele>15.5184</ele>
        <time>2013-04-24T17:19:03Z</time>
      </trkpt>
      <trkpt lat="59.8603606" lon="17.6185041">
        <ele>15.5184</ele>
        <time>2013-04-24T17:19:04Z</time>
      </trkpt>
      <trkpt lat="59.8603859" lon="17.6185493">
        <ele>15.5184</ele>
        <time>2013-04-24T17:19:05Z</time>
      </trkpt>
      <trkpt lat="59.8604183" lon="17.6185941">
        <ele>15.0377</ele>
        <time>2013-04-24T17:19:06Z</time>
      </trkpt>
      <trkpt lat="59.8604532" lon="17.6186415">
        <ele>15.0377</ele>
        <time>2013-04-24T17:19:07Z</time>
      </trkpt>
      <trkpt lat="59.8604903" lon="17.6186975">
        <ele>15.5184</ele>
        <time>2013-04-24T17:19:08Z</time>
      </trkpt>
      <trkpt lat="59.8605261" lon="17.6187528">
        <ele>15.5184</ele>
        <time>2013-04-24T17:19:09Z</time>
      </trkpt>
      <trkpt lat="59.8605646" lon="17.6188175">
        <ele>15.999</ele>
        <time>2013-04-24T17:19:10Z</time>
      </trkpt>
      <trkpt lat="59.8606129" lon="17.6189013">
        <ele>15.5184</ele>
        <time>2013-04-24T17:19:11Z</time>
      </trkpt>
      <trkpt lat="59.8606625" lon="17.618986">
        <ele>15.0377</ele>
        <time>2013-04-24T17:19:12Z</time>
      </trkpt>
      <trkpt lat="59.8607205" lon="17.6190834">
        <ele>14.557</ele>
        <time>2013-04-24T17:19:13Z</time>
      </trkpt>
      <trkpt lat="59.8607791" lon="17.6191931">
        <ele>14.557</ele>
        <time>2013-04-24T17:19:14Z</time>
      </trkpt>
      <trkpt lat="59.8608308" lon="17.6193154">
        <ele>14.557</ele>
        <time>2013-04-24T17:19:15Z</time>
      </trkpt>
      <trkpt lat="59.860889" lon="17.6194422">
        <ele>14.557</ele>
        <time>2013-04-24T17:19:16Z</time>
      </trkpt>
      <trkpt lat="59.860951" lon="17.6195734">
        <ele>15.0377</ele>
        <time>2013-04-24T17:19:17Z</time>
      </trkpt>
      <trkpt lat="59.8610068" lon="17.6197128">
        <ele>15.5184</ele>
        <time>2013-04-24T17:19:18Z</time>
      </trkpt>
      <trkpt lat="59.8610619" lon="17.6198581">
        <ele>15.999</ele>
        <time>2013-04-24T17:19:19Z</time>
      </trkpt>
      <trkpt lat="59.8611213" lon="17.6200011">
        <ele>15.999</ele>
        <time>2013-04-24T17:19:20Z</time>
      </trkpt>
      <trkpt lat="59.8611855" lon="17.6201405">
        <ele>15.5184</ele>
        <time>2013-04-24T17:19:21Z</time>
      </trkpt>
      <trkpt lat="59.8612583" lon="17.6202885">
        <ele>15.5184</ele>
        <time>2013-04-24T17:19:22Z</time>
      </trkpt>
      <trkpt lat="59.8613318" lon="17.620439">
        <ele>15.5184</ele>
        <time>2013-04-24T17:19:23Z</time>
      </trkpt>
      <trkpt lat="59.8613996" lon="17.6206036">
        <ele>15.0377</ele>
        <time>2013-04-24T17:19:24Z</time>
      </trkpt>
      <trkpt lat="59.8614685" lon="17.6207814">
        <ele>14.557</ele>
        <time>2013-04-24T17:19:25Z</time>
      </trkpt>
      <trkpt lat="59.8615388" lon="17.6209595">
        <ele>14.557</ele>
        <time>2013-04-24T17:19:26Z</time>
      </trkpt>
      <trkpt lat="59.8616507" lon="17.6211931">
        <ele>15.0377</ele>
        <time>2013-04-24T17:19:27Z</time>
      </trkpt>
      <trkpt lat="59.8617178" lon="17.62136">
        <ele>14.557</ele>
        <time>2013-04-24T17:19:28Z</time>
      </trkpt>
      <trkpt lat="59.8617882" lon="17.6215236">
        <ele>14.0764</ele>
        <time>2013-04-24T17:19:29Z</time>
      </trkpt>
      <trkpt lat="59.86186" lon="17.6216816">
        <ele>13.5958</ele>
        <time>2013-04-24T17:19:30Z</time>
      </trkpt>
      <trkpt lat="59.8619379" lon="17.6218406">
        <ele>13.5958</ele>
        <time>2013-04-24T17:19:31Z</time>
      </trkpt>
      <trkpt lat="59.8620252" lon="17.6219878">
        <ele>13.5958</ele>
        <time>2013-04-24T17:19:32Z</time>
      </trkpt>
      <trkpt lat="59.862088" lon="17.6221567">
        <ele>13.5958</ele>
        <time>2013-04-24T17:19:33Z</time>
      </trkpt>
      <trkpt lat="59.8621436" lon="17.6223333">
        <ele>13.5958</ele>
        <time>2013-04-24T17:19:34Z</time>
      </trkpt>
      <trkpt lat="59.8622158" lon="17.6224789">
        <ele>13.5958</ele>
        <time>2013-04-24T17:19:35Z</time>
      </trkpt>
      <trkpt lat="59.8622777" lon="17.6226234">
        <ele>13.1151</ele>
        <time>2013-04-24T17:19:36Z</time>
      </trkpt>
      <trkpt lat="59.8623306" lon="17.6227894">
        <ele>13.5958</ele>
        <time>2013-04-24T17:19:37Z</time>
      </trkpt>
      <trkpt lat="59.8624123" lon="17.6229238">
        <ele>14.0764</ele>
        <time>2013-04-24T17:19:38Z</time>
      </trkpt>
      <trkpt lat="59.8624715" lon="17.6230726">
        <ele>13.5958</ele>
        <time>2013-04-24T17:19:39Z</time>
      </trkpt>
      <trkpt lat="59.8625354" lon="17.6232201">
        <ele>14.0764</ele>
        <time>2013-04-24T17:19:40Z</time>
      </trkpt>
      <trkpt lat="59.8626056" lon="17.6233606">
        <ele>14.0764</ele>
        <time>2013-04-24T17:19:41Z</time>
      </trkpt>
      <trkpt lat="59.8626703" lon="17.6234905">
        <ele>13.5958</ele>
        <time>2013-04-24T17:19:42Z</time>
      </trkpt>
      <trkpt lat="59.8627314" lon="17.6236343">
        <ele>13.5958</ele>
        <time>2013-04-24T17:19:43Z</time>
      </trkpt>
      <trkpt lat="59.8628351" lon="17.6237697">
        <ele>13.5958</ele>
        <time>2013-04-24T17:19:44Z</time>
      </trkpt>
      <trkpt lat="59.8629488" lon="17.6239019">
        <ele>14.557</ele>
        <time>2013-04-24T17:19:45Z</time>
      </trkpt>
      <trkpt lat="59.8629944" lon="17.6240546">
        <ele>14.557</ele>
        <time>2013-04-24T17:19:46Z</time>
      </trkpt>
      <trkpt lat="59.8630605" lon="17.6241753">
        <ele>16.4797</ele>
        <time>2013-04-24T17:19:47Z</time>
      </trkpt>
      <trkpt lat="59.8631342" lon="17.6243074">
        <ele>18.4023</ele>
        <time>2013-04-24T17:19:48Z</time>
      </trkpt>
      <trkpt lat="59.8631891" lon="17.6244663">
        <ele>17.4412</ele>
        <time>2013-04-24T17:19:49Z</time>
      </trkpt>
      <trkpt lat="59.8632525" lon="17.6246223">
        <ele>17.4412</ele>
        <time>2013-04-24T17:19:50Z</time>
      </trkpt>
      <trkpt lat="59.8632976" lon="17.6247679">
        <ele>17.4412</ele>
        <time>2013-04-24T17:19:51Z</time>
      </trkpt>
      <trkpt lat="59.8633618" lon="17.6249161">
        <ele>16.4797</ele>
        <time>2013-04-24T17:19:52Z</time>
      </trkpt>
      <trkpt lat="59.8634404" lon="17.6250269">
        <ele>16.9604</ele>
        <time>2013-04-24T17:19:53Z</time>
      </trkpt>
      <trkpt lat="59.8635063" lon="17.6251927">
        <ele>15.999</ele>
        <time>2013-04-24T17:19:54Z</time>
      </trkpt>
      <trkpt lat="59.8635417" lon="17.6253641">
        <ele>15.5184</ele>
        <time>2013-04-24T17:19:55Z</time>
      </trkpt>
      <trkpt lat="59.8636307" lon="17.6254666">
        <ele>15.999</ele>
        <time>2013-04-24T17:19:56Z</time>
      </trkpt>
      <trkpt lat="59.8636851" lon="17.6256051">
        <ele>15.999</ele>
        <time>2013-04-24T17:19:57Z</time>
      </trkpt>
      <trkpt lat="59.863742" lon="17.6257734">
        <ele>15.999</ele>
        <time>2013-04-24T17:19:58Z</time>
      </trkpt>
      <trkpt lat="59.8638062" lon="17.6259448">
        <ele>15.999</ele>
        <time>2013-04-24T17:19:59Z</time>
      </trkpt>
      <trkpt lat="59.8638725" lon="17.6261142">
        <ele>15.999</ele>
        <time>2013-04-24T17:20:00Z</time>
      </trkpt>
      <trkpt lat="59.8639337" lon="17.6262604">
        <ele>15.5184</ele>
        <time>2013-04-24T17:20:01Z</time>
      </trkpt>
      <trkpt lat="59.8639985" lon="17.6264057">
        <ele>15.0377</ele>
        <time>2013-04-24T17:20:02Z</time>
      </trkpt>
      <trkpt lat="59.864058" lon="17.6265494">
        <ele>14.0764</ele>
        <time>2013-04-24T17:20:03Z</time>
      </trkpt>
      <trkpt lat="59.8641254" lon="17.6266912">
        <ele>13.5958</ele>
        <time>2013-04-24T17:20:04Z</time>
      </trkpt>
      <trkpt lat="59.8641879" lon="17.6268344">
        <ele>13.5958</ele>
        <time>2013-04-24T17:20:05Z</time>
      </trkpt>
      <trkpt lat="59.8642503" lon="17.626981">
        <ele>13.1151</ele>
        <time>2013-04-24T17:20:06Z</time>
      </trkpt>
      <trkpt lat="59.8643109" lon="17.6271234">
        <ele>12.6344</ele>
        <time>2013-04-24T17:20:07Z</time>
      </trkpt>
      <trkpt lat="59.864371" lon="17.6272621">
        <ele>12.1538</ele>
        <time>2013-04-24T17:20:08Z</time>
      </trkpt>
      <trkpt lat="59.8644182" lon="17.6274315">
        <ele>13.1151</ele>
        <time>2013-04-24T17:20:09Z</time>
      </trkpt>
      <trkpt lat="59.8644507" lon="17.6275631">
        <ele>13.1151</ele>
        <time>2013-04-24T17:20:10Z</time>
      </trkpt>
      <trkpt lat="59.8645135" lon="17.6276896">
        <ele>12.6344</ele>
        <time>2013-04-24T17:20:11Z</time>
      </trkpt>
      <trkpt lat="59.8645585" lon="17.6278242">
        <ele>12.6344</ele>
        <time>2013-04-24T17:20:12Z</time>
      </trkpt>
      <trkpt lat="59.8646051" lon="17.6279613">
        <ele>12.6344</ele>
        <time>2013-04-24T17:20:13Z</time>
      </trkpt>
      <trkpt lat="59.8646621" lon="17.6280853">
        <ele>12.6344</ele>
        <time>2013-04-24T17:20:14Z</time>
      </trkpt>
      <trkpt lat="59.8647061" lon="17.6282104">
        <ele>11.6732</ele>
        <time>2013-04-24T17:20:15Z</time>
      </trkpt>
      <trkpt lat="59.8647434" lon="17.6283421">
        <ele>11.6732</ele>
        <time>2013-04-24T17:20:16Z</time>
      </trkpt>
      <trkpt lat="59.8647758" lon="17.628477">
        <ele>11.1925</ele>
        <time>2013-04-24T17:20:17Z</time>
      </trkpt>
      <trkpt lat="59.8648034" lon="17.6286126">
        <ele>11.1925</ele>
        <time>2013-04-24T17:20:18Z</time>
      </trkpt>
      <trkpt lat="59.8648274" lon="17.6287456">
        <ele>10.7118</ele>
        <time>2013-04-24T17:20:19Z</time>
      </trkpt>
      <trkpt lat="59.8648476" lon="17.6288747">
        <ele>10.7118</ele>
        <time>2013-04-24T17:20:20Z</time>
      </trkpt>
      <trkpt lat="59.8648639" lon="17.6289984">
        <ele>10.7118</ele>
        <time>2013-04-24T17:20:21Z</time>
      </trkpt>
      <trkpt lat="59.8648774" lon="17.6291146">
        <ele>10.7118</ele>
        <time>2013-04-24T17:20:22Z</time>
      </trkpt>
      <trkpt lat="59.8648894" lon="17.6292229">
        <ele>10.2312</ele>
        <time>2013-04-24T17:20:23Z</time>
      </trkpt>
      <trkpt lat="59.8648992" lon="17.6293166">
        <ele>10.2312</ele>
        <time>2013-04-24T17:20:24Z</time>
      </trkpt>
      <trkpt lat="59.8649064" lon="17.6293989">
        <ele>10.2312</ele>
        <time>2013-04-24T17:20:25Z</time>
      </trkpt>
      <trkpt lat="59.8649112" lon="17.6294698">
        <ele>10.2312</ele>
        <time>2013-04-24T17:20:26Z</time>
      </trkpt>
      <trkpt lat="59.864916" lon="17.629529">
        <ele>9.75061</ele>
        <time>2013-04-24T17:20:27Z</time>
      </trkpt>
      <trkpt lat="59.8649184" lon="17.6295798">
        <ele>9.75061</ele>
        <time>2013-04-24T17:20:28Z</time>
      </trkpt>
      <trkpt lat="59.8649206" lon="17.6296248">
        <ele>9.75061</ele>
        <time>2013-04-24T17:20:29Z</time>
      </trkpt>
      <trkpt lat="59.8649237" lon="17.6296626">
        <ele>9.75061</ele>
        <time>2013-04-24T17:20:30Z</time>
      </trkpt>
      <trkpt lat="59.8649263" lon="17.6296963">
        <ele>9.75061</ele>
        <time>2013-04-24T17:20:31Z</time>
      </trkpt>
      <trkpt lat="59.8649255" lon="17.6297354">
        <ele>11.1925</ele>
        <time>2013-04-24T17:20:32Z</time>
      </trkpt>
      <trkpt lat="59.8649263" lon="17.6297609">
        <ele>11.1925</ele>
        <time>2013-04-24T17:20:33Z</time>
      </trkpt>
      <trkpt lat="59.8649267" lon="17.6297797">
        <ele>10.7118</ele>
        <time>2013-04-24T17:20:34Z</time>
      </trkpt>
      <trkpt lat="59.8649231" lon="17.6297946">
        <ele>11.1925</ele>
        <time>2013-04-24T17:20:35Z</time>
      </trkpt>
      <trkpt lat="59.8649231" lon="17.6297979">
        <ele>10.7118</ele>
        <time>2013-04-24T17:20:36Z</time>
      </trkpt>
      <trkpt lat="59.8649231" lon="17.6297971">
        <ele>10.7118</ele>
        <time>2013-04-24T17:20:37Z</time>
      </trkpt>
      <trkpt lat="59.8649234" lon="17.629796">
        <ele>10.7118</ele>
        <time>2013-04-24T17:20:38Z</time>
      </trkpt>
      <trkpt lat="59.8649227" lon="17.6297958">
        <ele>10.7118</ele>
        <time>2013-04-24T17:20:39Z</time>
      </trkpt>
      <trkpt lat="59.8649003" lon="17.6298366">
        <ele>14.0764</ele>
        <time>2013-04-24T17:21:09Z</time>
      </trkpt>
      <trkpt lat="59.8649012" lon="17.6298378">
        <ele>13.5958</ele>
        <time>2013-04-24T17:21:10Z</time>
      </trkpt>
      <trkpt lat="59.8649032" lon="17.6298499">
        <ele>13.5958</ele>
        <time>2013-04-24T17:21:11Z</time>
      </trkpt>
      <trkpt lat="59.8649044" lon="17.6298834">
        <ele>13.1151</ele>
        <time>2013-04-24T17:21:12Z</time>
      </trkpt>
      <trkpt lat="59.8649069" lon="17.6299318">
        <ele>13.1151</ele>
        <time>2013-04-24T17:21:13Z</time>
      </trkpt>
      <trkpt lat="59.86491" lon="17.629992">
        <ele>12.6344</ele>
        <time>2013-04-24T17:21:14Z</time>
      </trkpt>
      <trkpt lat="59.8649128" lon="17.6300675">
        <ele>12.6344</ele>
        <time>2013-04-24T17:21:15Z</time>
      </trkpt>
      <trkpt lat="59.8649159" lon="17.6301564">
        <ele>12.1538</ele>
        <time>2013-04-24T17:21:16Z</time>
      </trkpt>
      <trkpt lat="59.8649242" lon="17.6302578">
        <ele>12.6344</ele>
        <time>2013-04-24T17:21:17Z</time>
      </trkpt>
      <trkpt lat="59.8649479" lon="17.6303515">
        <ele>12.6344</ele>
        <time>2013-04-24T17:21:18Z</time>
      </trkpt>
      <trkpt lat="59.8649806" lon="17.6304245">
        <ele>12.6344</ele>
        <time>2013-04-24T17:21:19Z</time>
      </trkpt>
      <trkpt lat="59.8650339" lon="17.6304249">
        <ele>12.1538</ele>
        <time>2013-04-24T17:21:20Z</time>
      </trkpt>
      <trkpt lat="59.8650992" lon="17.6304171">
        <ele>11.6732</ele>
        <time>2013-04-24T17:21:21Z</time>
      </trkpt>
      <trkpt lat="59.8651726" lon="17.6303872">
        <ele>11.1925</ele>
        <time>2013-04-24T17:21:22Z</time>
      </trkpt>
      <trkpt lat="59.8652406" lon="17.6303547">
        <ele>11.1925</ele>
        <time>2013-04-24T17:21:23Z</time>
      </trkpt>
      <trkpt lat="59.8653168" lon="17.6303244">
        <ele>11.6732</ele>
        <time>2013-04-24T17:21:24Z</time>
      </trkpt>
      <trkpt lat="59.8653612" lon="17.63029">
        <ele>12.1538</ele>
        <time>2013-04-24T17:21:25Z</time>
      </trkpt>
      <trkpt lat="59.8654053" lon="17.6302745">
        <ele>13.1151</ele>
        <time>2013-04-24T17:21:26Z</time>
      </trkpt>
      <trkpt lat="59.8654275" lon="17.6302683">
        <ele>13.1151</ele>
        <time>2013-04-24T17:21:27Z</time>
      </trkpt>
      <trkpt lat="59.86544" lon="17.6302695">
        <ele>12.6344</ele>
        <time>2013-04-24T17:21:28Z</time>
      </trkpt>
      <trkpt lat="59.8654523" lon="17.6302661">
        <ele>13.1151</ele>
        <time>2013-04-24T17:21:29Z</time>
      </trkpt>
      <trkpt lat="59.8654654" lon="17.6302635">
        <ele>13.1151</ele>
        <time>2013-04-24T17:21:30Z</time>
      </trkpt>
      <trkpt lat="59.8654769" lon="17.6302593">
        <ele>13.5958</ele>
        <time>2013-04-24T17:21:31Z</time>
      </trkpt>
      <trkpt lat="59.8654792" lon="17.6302572">
        <ele>13.1151</ele>
        <time>2013-04-24T17:21:32Z</time>
      </trkpt>
      <trkpt lat="59.8654794" lon="17.630255">
        <ele>13.1151</ele>
        <time>2013-04-24T17:21:33Z</time>
      </trkpt>
      <trkpt lat="59.8654847" lon="17.6302548">
        <ele>13.1151</ele>
        <time>2013-04-24T17:21:34Z</time>
      </trkpt>
      <trkpt lat="59.8655044" lon="17.6302473">
        <ele>13.1151</ele>
        <time>2013-04-24T17:21:35Z</time>
      </trkpt>
      <trkpt lat="59.8655359" lon="17.6302338">
        <ele>13.1151</ele>
        <time>2013-04-24T17:21:36Z</time>
      </trkpt>
      <trkpt lat="59.8655775" lon="17.6302188">
        <ele>13.1151</ele>
        <time>2013-04-24T17:21:37Z</time>
      </trkpt>
      <trkpt lat="59.8656256" lon="17.6301982">
        <ele>13.1151</ele>
        <time>2013-04-24T17:21:38Z</time>
      </trkpt>
      <trkpt lat="59.8656829" lon="17.6301706">
        <ele>13.1151</ele>
        <time>2013-04-24T17:21:39Z</time>
      </trkpt>
      <trkpt lat="59.8657549" lon="17.6301271">
        <ele>12.6344</ele>
        <time>2013-04-24T17:21:40Z</time>
      </trkpt>
      <trkpt lat="59.8658352" lon="17.6300743">
        <ele>12.6344</ele>
        <time>2013-04-24T17:21:41Z</time>
      </trkpt>
      <trkpt lat="59.8659239" lon="17.6300299">
        <ele>12.1538</ele>
        <time>2013-04-24T17:21:42Z</time>
      </trkpt>
      <trkpt lat="59.8660177" lon="17.6299875">
        <ele>11.6732</ele>
        <time>2013-04-24T17:21:43Z</time>
      </trkpt>
      <trkpt lat="59.8661152" lon="17.6299559">
        <ele>10.7118</ele>
        <time>2013-04-24T17:21:44Z</time>
      </trkpt>
      <trkpt lat="59.8662182" lon="17.6299112">
        <ele>10.2312</ele>
        <time>2013-04-24T17:21:45Z</time>
      </trkpt>
      <trkpt lat="59.8663212" lon="17.6298745">
        <ele>9.75061</ele>
        <time>2013-04-24T17:21:46Z</time>
      </trkpt>
      <trkpt lat="59.8664229" lon="17.6298376">
        <ele>9.2699</ele>
        <time>2013-04-24T17:21:47Z</time>
      </trkpt>
      <trkpt lat="59.8665222" lon="17.6297952">
        <ele>8.78918</ele>
        <time>2013-04-24T17:21:48Z</time>
      </trkpt>
      <trkpt lat="59.8666173" lon="17.6297542">
        <ele>8.78918</ele>
        <time>2013-04-24T17:21:49Z</time>
      </trkpt>
      <trkpt lat="59.866708" lon="17.6297097">
        <ele>8.78918</ele>
        <time>2013-04-24T17:21:50Z</time>
      </trkpt>
      <trkpt lat="59.8667956" lon="17.6296646">
        <ele>8.78918</ele>
        <time>2013-04-24T17:21:51Z</time>
      </trkpt>
      <trkpt lat="59.8668825" lon="17.6296205">
        <ele>9.2699</ele>
        <time>2013-04-24T17:21:52Z</time>
      </trkpt>
      <trkpt lat="59.8669672" lon="17.6295812">
        <ele>8.78918</ele>
        <time>2013-04-24T17:21:53Z</time>
      </trkpt>
      <trkpt lat="59.8670485" lon="17.6295415">
        <ele>9.2699</ele>
        <time>2013-04-24T17:21:54Z</time>
      </trkpt>
      <trkpt lat="59.8671272" lon="17.6294998">
        <ele>9.2699</ele>
        <time>2013-04-24T17:21:55Z</time>
      </trkpt>
      <trkpt lat="59.867204" lon="17.6294565">
        <ele>8.78918</ele>
        <time>2013-04-24T17:21:56Z</time>
      </trkpt>
      <trkpt lat="59.8672798" lon="17.6294129">
        <ele>8.78918</ele>
        <time>2013-04-24T17:21:57Z</time>
      </trkpt>
      <trkpt lat="59.8673562" lon="17.6293672">
        <ele>8.78918</ele>
        <time>2013-04-24T17:21:58Z</time>
      </trkpt>
      <trkpt lat="59.8674344" lon="17.6293212">
        <ele>8.78918</ele>
        <time>2013-04-24T17:21:59Z</time>
      </trkpt>
      <trkpt lat="59.867513" lon="17.6292751">
        <ele>8.78918</ele>
        <time>2013-04-24T17:22:00Z</time>
      </trkpt>
      <trkpt lat="59.8675888" lon="17.629226">
        <ele>8.30859</ele>
        <time>2013-04-24T17:22:01Z</time>
      </trkpt>
      <trkpt lat="59.8676647" lon="17.6291749">
        <ele>8.30859</ele>
        <time>2013-04-24T17:22:02Z</time>
      </trkpt>
      <trkpt lat="59.8677407" lon="17.629124">
        <ele>8.30859</ele>
        <time>2013-04-24T17:22:03Z</time>
      </trkpt>
      <trkpt lat="59.8678179" lon="17.6290746">
        <ele>8.30859</ele>
        <time>2013-04-24T17:22:04Z</time>
      </trkpt>
      <trkpt lat="59.8678956" lon="17.6290242">
        <ele>8.30859</ele>
        <time>2013-04-24T17:22:05Z</time>
      </trkpt>
      <trkpt lat="59.8679736" lon="17.6289729">
        <ele>7.82788</ele>
        <time>2013-04-24T17:22:06Z</time>
      </trkpt>
      <trkpt lat="59.8680519" lon="17.6289279">
        <ele>7.82788</ele>
        <time>2013-04-24T17:22:07Z</time>
      </trkpt>
      <trkpt lat="59.8681299" lon="17.6288867">
        <ele>7.34717</ele>
        <time>2013-04-24T17:22:08Z</time>
      </trkpt>
      <trkpt lat="59.8682104" lon="17.6288494">
        <ele>7.34717</ele>
        <time>2013-04-24T17:22:09Z</time>
      </trkpt>
      <trkpt lat="59.8682922" lon="17.628815">
        <ele>7.34717</ele>
        <time>2013-04-24T17:22:10Z</time>
      </trkpt>
      <trkpt lat="59.8683736" lon="17.6287787">
        <ele>7.34717</ele>
        <time>2013-04-24T17:22:11Z</time>
      </trkpt>
      <trkpt lat="59.8684532" lon="17.6287378">
        <ele>7.34717</ele>
        <time>2013-04-24T17:22:12Z</time>
      </trkpt>
      <trkpt lat="59.8685309" lon="17.6286949">
        <ele>7.82788</ele>
        <time>2013-04-24T17:22:13Z</time>
      </trkpt>
      <trkpt lat="59.868607" lon="17.6286514">
        <ele>7.82788</ele>
        <time>2013-04-24T17:22:14Z</time>
      </trkpt>
      <trkpt lat="59.8686819" lon="17.6286083">
        <ele>7.34717</ele>
        <time>2013-04-24T17:22:15Z</time>
      </trkpt>
      <trkpt lat="59.8687583" lon="17.6285661">
        <ele>7.82788</ele>
        <time>2013-04-24T17:22:16Z</time>
      </trkpt>
      <trkpt lat="59.8688341" lon="17.6285214">
        <ele>7.34717</ele>
        <time>2013-04-24T17:22:17Z</time>
      </trkpt>
      <trkpt lat="59.8689117" lon="17.62848">
        <ele>7.34717</ele>
        <time>2013-04-24T17:22:18Z</time>
      </trkpt>
      <trkpt lat="59.8689909" lon="17.6284374">
        <ele>7.82788</ele>
        <time>2013-04-24T17:22:19Z</time>
      </trkpt>
      <trkpt lat="59.8690662" lon="17.6283912">
        <ele>7.82788</ele>
        <time>2013-04-24T17:22:20Z</time>
      </trkpt>
      <trkpt lat="59.8691432" lon="17.6283448">
        <ele>7.82788</ele>
        <time>2013-04-24T17:22:21Z</time>
      </trkpt>
      <trkpt lat="59.869219" lon="17.6282991">
        <ele>7.82788</ele>
        <time>2013-04-24T17:22:22Z</time>
      </trkpt>
      <trkpt lat="59.8692928" lon="17.6282557">
        <ele>7.82788</ele>
        <time>2013-04-24T17:22:23Z</time>
      </trkpt>
      <trkpt lat="59.8693682" lon="17.6282122">
        <ele>7.82788</ele>
        <time>2013-04-24T17:22:24Z</time>
      </trkpt>
      <trkpt lat="59.8694453" lon="17.6281664">
        <ele>7.82788</ele>
        <time>2013-04-24T17:22:25Z</time>
      </trkpt>
      <trkpt lat="59.8695205" lon="17.6281232">
        <ele>7.82788</ele>
        <time>2013-04-24T17:22:26Z</time>
      </trkpt>
      <trkpt lat="59.8695966" lon="17.6280796">
        <ele>7.82788</ele>
        <time>2013-04-24T17:22:27Z</time>
      </trkpt>
      <trkpt lat="59.8696718" lon="17.6280345">
        <ele>7.82788</ele>
        <time>2013-04-24T17:22:28Z</time>
      </trkpt>
      <trkpt lat="59.8697466" lon="17.627988">
        <ele>7.82788</ele>
        <time>2013-04-24T17:22:29Z</time>
      </trkpt>
      <trkpt lat="59.8698212" lon="17.6279423">
        <ele>7.82788</ele>
        <time>2013-04-24T17:22:30Z</time>
      </trkpt>
      <trkpt lat="59.8698958" lon="17.6278977">
        <ele>7.82788</ele>
        <time>2013-04-24T17:22:31Z</time>
      </trkpt>
      <trkpt lat="59.869969" lon="17.6278521">
        <ele>7.34717</ele>
        <time>2013-04-24T17:22:32Z</time>
      </trkpt>
      <trkpt lat="59.8700415" lon="17.6278107">
        <ele>7.82788</ele>
        <time>2013-04-24T17:22:33Z</time>
      </trkpt>
      <trkpt lat="59.8701089" lon="17.6277931">
        <ele>7.82788</ele>
        <time>2013-04-24T17:22:34Z</time>
      </trkpt>
      <trkpt lat="59.870165" lon="17.6278077">
        <ele>8.30859</ele>
        <time>2013-04-24T17:22:35Z</time>
      </trkpt>
      <trkpt lat="59.870223" lon="17.6279179">
        <ele>8.30859</ele>
        <time>2013-04-24T17:22:36Z</time>
      </trkpt>
      <trkpt lat="59.8702777" lon="17.6280454">
        <ele>8.30859</ele>
        <time>2013-04-24T17:22:37Z</time>
      </trkpt>
      <trkpt lat="59.8703222" lon="17.628179">
        <ele>8.30859</ele>
        <time>2013-04-24T17:22:38Z</time>
      </trkpt>
      <trkpt lat="59.8703767" lon="17.6283044">
        <ele>9.2699</ele>
        <time>2013-04-24T17:22:39Z</time>
      </trkpt>
      <trkpt lat="59.8704244" lon="17.6284399">
        <ele>9.75061</ele>
        <time>2013-04-24T17:22:40Z</time>
      </trkpt>
      <trkpt lat="59.8704576" lon="17.6286048">
        <ele>9.75061</ele>
        <time>2013-04-24T17:22:41Z</time>
      </trkpt>
      <trkpt lat="59.8704959" lon="17.6287984">
        <ele>9.75061</ele>
        <time>2013-04-24T17:22:42Z</time>
      </trkpt>
      <trkpt lat="59.8705394" lon="17.6289506">
        <ele>10.7118</ele>
        <time>2013-04-24T17:22:43Z</time>
      </trkpt>
      <trkpt lat="59.8705772" lon="17.629098">
        <ele>11.1925</ele>
        <time>2013-04-24T17:22:44Z</time>
      </trkpt>
      <trkpt lat="59.870615" lon="17.6292503">
        <ele>11.6732</ele>
        <time>2013-04-24T17:22:45Z</time>
      </trkpt>
      <trkpt lat="59.8706699" lon="17.6293922">
        <ele>11.6732</ele>
        <time>2013-04-24T17:22:46Z</time>
      </trkpt>
      <trkpt lat="59.8707274" lon="17.6295289">
        <ele>12.1538</ele>
        <time>2013-04-24T17:22:47Z</time>
      </trkpt>
      <trkpt lat="59.870779" lon="17.629675">
        <ele>12.1538</ele>
        <time>2013-04-24T17:22:48Z</time>
      </trkpt>
      <trkpt lat="59.8708261" lon="17.6298263">
        <ele>12.1538</ele>
        <time>2013-04-24T17:22:49Z</time>
      </trkpt>
      <trkpt lat="59.8708797" lon="17.6299624">
        <ele>12.6344</ele>
        <time>2013-04-24T17:22:50Z</time>
      </trkpt>
      <trkpt lat="59.8709206" lon="17.6301103">
        <ele>12.1538</ele>
        <time>2013-04-24T17:22:51Z</time>
      </trkpt>
      <trkpt lat="59.8709578" lon="17.6302681">
        <ele>12.6344</ele>
        <time>2013-04-24T17:22:52Z</time>
      </trkpt>
      <trkpt lat="59.8710076" lon="17.6304107">
        <ele>13.1151</ele>
        <time>2013-04-24T17:22:53Z</time>
      </trkpt>
      <trkpt lat="59.8710528" lon="17.6305639">
        <ele>13.1151</ele>
        <time>2013-04-24T17:22:54Z</time>
      </trkpt>
      <trkpt lat="59.8710952" lon="17.6307178">
        <ele>12.6344</ele>
        <time>2013-04-24T17:22:55Z</time>
      </trkpt>
      <trkpt lat="59.871143" lon="17.6308623">
        <ele>13.1151</ele>
        <time>2013-04-24T17:22:56Z</time>
      </trkpt>
      <trkpt lat="59.8712041" lon="17.6310554">
        <ele>13.1151</ele>
        <time>2013-04-24T17:22:57Z</time>
      </trkpt>
      <trkpt lat="59.8712479" lon="17.63119">
        <ele>13.1151</ele>
        <time>2013-04-24T17:22:58Z</time>
      </trkpt>
      <trkpt lat="59.8712952" lon="17.6313227">
        <ele>13.1151</ele>
        <time>2013-04-24T17:22:59Z</time>
      </trkpt>
      <trkpt lat="59.871332" lon="17.6314719">
        <ele>13.1151</ele>
        <time>2013-04-24T17:23:00Z</time>
      </trkpt>
      <trkpt lat="59.8713773" lon="17.6316071">
        <ele>12.6344</ele>
        <time>2013-04-24T17:23:01Z</time>
      </trkpt>
      <trkpt lat="59.871421" lon="17.6317479">
        <ele>12.6344</ele>
        <time>2013-04-24T17:23:02Z</time>
      </trkpt>
      <trkpt lat="59.8714607" lon="17.6318931">
        <ele>12.6344</ele>
        <time>2013-04-24T17:23:03Z</time>
      </trkpt>
      <trkpt lat="59.871503" lon="17.6320347">
        <ele>12.1538</ele>
        <time>2013-04-24T17:23:04Z</time>
      </trkpt>
      <trkpt lat="59.871549" lon="17.632173">
        <ele>11.6732</ele>
        <time>2013-04-24T17:23:05Z</time>
      </trkpt>
      <trkpt lat="59.8715929" lon="17.6323154">
        <ele>11.1925</ele>
        <time>2013-04-24T17:23:06Z</time>
      </trkpt>
      <trkpt lat="59.87164" lon="17.6324526">
        <ele>11.1925</ele>
        <time>2013-04-24T17:23:07Z</time>
      </trkpt>
      <trkpt lat="59.8716835" lon="17.6325931">
        <ele>11.1925</ele>
        <time>2013-04-24T17:23:08Z</time>
      </trkpt>
      <trkpt lat="59.871734" lon="17.6327406">
        <ele>11.1925</ele>
        <time>2013-04-24T17:23:09Z</time>
      </trkpt>
      <trkpt lat="59.8717608" lon="17.6328467">
        <ele>10.7118</ele>
        <time>2013-04-24T17:23:10Z</time>
      </trkpt>
      <trkpt lat="59.8718076" lon="17.6330162">
        <ele>10.7118</ele>
        <time>2013-04-24T17:23:11Z</time>
      </trkpt>
      <trkpt lat="59.8718987" lon="17.6331935">
        <ele>11.6732</ele>
        <time>2013-04-24T17:23:12Z</time>
      </trkpt>
      <trkpt lat="59.8719587" lon="17.6333266">
        <ele>12.6344</ele>
        <time>2013-04-24T17:23:13Z</time>
      </trkpt>
      <trkpt lat="59.8719902" lon="17.6334435">
        <ele>12.6344</ele>
        <time>2013-04-24T17:23:14Z</time>
      </trkpt>
      <trkpt lat="59.8720198" lon="17.6335808">
        <ele>13.1151</ele>
        <time>2013-04-24T17:23:15Z</time>
      </trkpt>
      <trkpt lat="59.8720481" lon="17.6337036">
        <ele>12.6344</ele>
        <time>2013-04-24T17:23:16Z</time>
      </trkpt>
      <trkpt lat="59.8720689" lon="17.6338189">
        <ele>12.6344</ele>
        <time>2013-04-24T17:23:17Z</time>
      </trkpt>
      <trkpt lat="59.8721057" lon="17.6339531">
        <ele>12.6344</ele>
        <time>2013-04-24T17:23:18Z</time>
      </trkpt>
      <trkpt lat="59.8721453" lon="17.634075">
        <ele>12.6344</ele>
        <time>2013-04-24T17:23:19Z</time>
      </trkpt>
      <trkpt lat="59.8721892" lon="17.6341958">
        <ele>12.1538</ele>
        <time>2013-04-24T17:23:20Z</time>
      </trkpt>
      <trkpt lat="59.8722331" lon="17.6343201">
        <ele>12.1538</ele>
        <time>2013-04-24T17:23:21Z</time>
      </trkpt>
      <trkpt lat="59.8722747" lon="17.6344509">
        <ele>11.6732</ele>
        <time>2013-04-24T17:23:22Z</time>
      </trkpt>
      <trkpt lat="59.8723078" lon="17.6345825">
        <ele>10.7118</ele>
        <time>2013-04-24T17:23:23Z</time>
      </trkpt>
      <trkpt lat="59.8723472" lon="17.6347245">
        <ele>9.75061</ele>
        <time>2013-04-24T17:23:24Z</time>
      </trkpt>
      <trkpt lat="59.8723885" lon="17.6348738">
        <ele>8.78918</ele>
        <time>2013-04-24T17:23:25Z</time>
      </trkpt>
      <trkpt lat="59.8724346" lon="17.6350318">
        <ele>8.30859</ele>
        <time>2013-04-24T17:23:26Z</time>
      </trkpt>
      <trkpt lat="59.8724809" lon="17.6351952">
        <ele>7.34717</ele>
        <time>2013-04-24T17:23:27Z</time>
      </trkpt>
      <trkpt lat="59.8725275" lon="17.6353616">
        <ele>6.38586</ele>
        <time>2013-04-24T17:23:28Z</time>
      </trkpt>
      <trkpt lat="59.8725746" lon="17.6355335">
        <ele>5.90527</ele>
        <time>2013-04-24T17:23:29Z</time>
      </trkpt>
      <trkpt lat="59.8726273" lon="17.635718">
        <ele>5.42456</ele>
        <time>2013-04-24T17:23:30Z</time>
      </trkpt>
      <trkpt lat="59.8726785" lon="17.6358887">
        <ele>5.42456</ele>
        <time>2013-04-24T17:23:31Z</time>
      </trkpt>
      <trkpt lat="59.8727254" lon="17.6360522">
        <ele>4.94385</ele>
        <time>2013-04-24T17:23:32Z</time>
      </trkpt>
      <trkpt lat="59.8727702" lon="17.6362077">
        <ele>5.42456</ele>
        <time>2013-04-24T17:23:33Z</time>
      </trkpt>
      <trkpt lat="59.8728093" lon="17.6363561">
        <ele>6.38586</ele>
        <time>2013-04-24T17:23:34Z</time>
      </trkpt>
      <trkpt lat="59.872845" lon="17.6364946">
        <ele>6.86646</ele>
        <time>2013-04-24T17:23:35Z</time>
      </trkpt>
      <trkpt lat="59.8728787" lon="17.6366208">
        <ele>7.34717</ele>
        <time>2013-04-24T17:23:36Z</time>
      </trkpt>
      <trkpt lat="59.8729109" lon="17.6367365">
        <ele>7.82788</ele>
        <time>2013-04-24T17:23:37Z</time>
      </trkpt>
      <trkpt lat="59.8729399" lon="17.6368453">
        <ele>8.30859</ele>
        <time>2013-04-24T17:23:38Z</time>
      </trkpt>
      <trkpt lat="59.872966" lon="17.6369466">
        <ele>8.78918</ele>
        <time>2013-04-24T17:23:39Z</time>
      </trkpt>
      <trkpt lat="59.8729896" lon="17.6370406">
        <ele>8.78918</ele>
        <time>2013-04-24T17:23:40Z</time>
      </trkpt>
      <trkpt lat="59.8730124" lon="17.6371251">
        <ele>9.2699</ele>
        <time>2013-04-24T17:23:41Z</time>
      </trkpt>
      <trkpt lat="59.8730329" lon="17.6372016">
        <ele>9.2699</ele>
        <time>2013-04-24T17:23:42Z</time>
      </trkpt>
      <trkpt lat="59.8730506" lon="17.6372699">
        <ele>9.2699</ele>
        <time>2013-04-24T17:23:43Z</time>
      </trkpt>
      <trkpt lat="59.8730676" lon="17.6373306">
        <ele>9.75061</ele>
        <time>2013-04-24T17:23:44Z</time>
      </trkpt>
      <trkpt lat="59.8730828" lon="17.6373862">
        <ele>9.75061</ele>
        <time>2013-04-24T17:23:45Z</time>
      </trkpt>
      <trkpt lat="59.8731021" lon="17.6374302">
        <ele>9.75061</ele>
        <time>2013-04-24T17:23:46Z</time>
      </trkpt>
      <trkpt lat="59.8731275" lon="17.6374592">
        <ele>9.2699</ele>
        <time>2013-04-24T17:23:47Z</time>
      </trkpt>
      <trkpt lat="59.8731558" lon="17.6374825">
        <ele>8.78918</ele>
        <time>2013-04-24T17:23:48Z</time>
      </trkpt>
      <trkpt lat="59.8731801" lon="17.6375053">
        <ele>8.78918</ele>
        <time>2013-04-24T17:23:49Z</time>
      </trkpt>
      <trkpt lat="59.8731948" lon="17.6375234">
        <ele>8.30859</ele>
        <time>2013-04-24T17:23:50Z</time>
      </trkpt>
      <trkpt lat="59.8732018" lon="17.63753">
        <ele>8.30859</ele>
        <time>2013-04-24T17:23:51Z</time>
      </trkpt>
      <trkpt lat="59.8732083" lon="17.6375343">
        <ele>8.30859</ele>
        <time>2013-04-24T17:23:52Z</time>
      </trkpt>
      <trkpt lat="59.8732188" lon="17.637542">
        <ele>8.30859</ele>
        <time>2013-04-24T17:23:53Z</time>
      </trkpt>
      <trkpt lat="59.8732292" lon="17.6375476">
        <ele>8.78918</ele>
        <time>2013-04-24T17:23:54Z</time>
      </trkpt>
      <trkpt lat="59.8732397" lon="17.6375384">
        <ele>8.30859</ele>
        <time>2013-04-24T17:23:55Z</time>
      </trkpt>
      <trkpt lat="59.8732455" lon="17.637526">
        <ele>8.30859</ele>
        <time>2013-04-24T17:23:56Z</time>
      </trkpt>
      <trkpt lat="59.8732476" lon="17.6375196">
        <ele>8.30859</ele>
        <time>2013-04-24T17:23:57Z</time>
      </trkpt>
      <trkpt lat="59.8736983" lon="17.6371913">
        <ele>17.9218</ele>
        <time>2013-04-24T18:27:51Z</time>
      </trkpt>
      <trkpt lat="59.8737109" lon="17.6371596">
        <ele>16.9604</ele>
        <time>2013-04-24T18:27:52Z</time>
      </trkpt>
      <trkpt lat="59.8737245" lon="17.6371314">
        <ele>15.999</ele>
        <time>2013-04-24T18:27:53Z</time>
      </trkpt>
      <trkpt lat="59.87374" lon="17.6371038">
        <ele>15.5184</ele>
        <time>2013-04-24T18:27:54Z</time>
      </trkpt>
      <trkpt lat="59.8737561" lon="17.6370743">
        <ele>14.557</ele>
        <time>2013-04-24T18:27:55Z</time>
      </trkpt>
      <trkpt lat="59.8737707" lon="17.6370493">
        <ele>14.557</ele>
        <time>2013-04-24T18:27:56Z</time>
      </trkpt>
      <trkpt lat="59.8737861" lon="17.6370208">
        <ele>14.0764</ele>
        <time>2013-04-24T18:27:57Z</time>
      </trkpt>
      <trkpt lat="59.8738058" lon="17.6369872">
        <ele>13.1151</ele>
        <time>2013-04-24T18:27:58Z</time>
      </trkpt>
      <trkpt lat="59.8738313" lon="17.6369578">
        <ele>12.6344</ele>
        <time>2013-04-24T18:27:59Z</time>
      </trkpt>
      <trkpt lat="59.8738553" lon="17.6369309">
        <ele>12.1538</ele>
        <time>2013-04-24T18:28:00Z</time>
      </trkpt>
      <trkpt lat="59.873878" lon="17.6369011">
        <ele>10.7118</ele>
        <time>2013-04-24T18:28:01Z</time>
      </trkpt>
      <trkpt lat="59.8738976" lon="17.63687">
        <ele>10.2312</ele>
        <time>2013-04-24T18:28:02Z</time>
      </trkpt>
      <trkpt lat="59.8739147" lon="17.6368382">
        <ele>9.2699</ele>
        <time>2013-04-24T18:28:03Z</time>
      </trkpt>
      <trkpt lat="59.8739342" lon="17.6368127">
        <ele>8.78918</ele>
        <time>2013-04-24T18:28:04Z</time>
      </trkpt>
      <trkpt lat="59.8739541" lon="17.6367868">
        <ele>8.30859</ele>
        <time>2013-04-24T18:28:05Z</time>
      </trkpt>
      <trkpt lat="59.8739744" lon="17.6367562">
        <ele>7.82788</ele>
        <time>2013-04-24T18:28:06Z</time>
      </trkpt>
      <trkpt lat="59.8740003" lon="17.6367241">
        <ele>7.34717</ele>
        <time>2013-04-24T18:28:07Z</time>
      </trkpt>
      <trkpt lat="59.8740291" lon="17.6366862">
        <ele>6.38586</ele>
        <time>2013-04-24T18:28:08Z</time>
      </trkpt>
      <trkpt lat="59.8740583" lon="17.6366413">
        <ele>5.42456</ele>
        <time>2013-04-24T18:28:09Z</time>
      </trkpt>
      <trkpt lat="59.8740881" lon="17.6365987">
        <ele>4.46326</ele>
        <time>2013-04-24T18:28:10Z</time>
      </trkpt>
      <trkpt lat="59.8741193" lon="17.6365706">
        <ele>3.98267</ele>
        <time>2013-04-24T18:28:11Z</time>
      </trkpt>
      <trkpt lat="59.8741567" lon="17.63657">
        <ele>4.46326</ele>
        <time>2013-04-24T18:28:12Z</time>
      </trkpt>
      <trkpt lat="59.8741939" lon="17.6365935">
        <ele>5.42456</ele>
        <time>2013-04-24T18:28:13Z</time>
      </trkpt>
      <trkpt lat="59.874226" lon="17.6366411">
        <ele>6.38586</ele>
        <time>2013-04-24T18:28:14Z</time>
      </trkpt>
      <trkpt lat="59.8742557" lon="17.6366973">
        <ele>7.34717</ele>
        <time>2013-04-24T18:28:15Z</time>
      </trkpt>
      <trkpt lat="59.87428" lon="17.6367353">
        <ele>6.86646</ele>
        <time>2013-04-24T18:28:16Z</time>
      </trkpt>
      <trkpt lat="59.8743126" lon="17.6367702">
        <ele>7.34717</ele>
        <time>2013-04-24T18:28:17Z</time>
      </trkpt>
      <trkpt lat="59.8743491" lon="17.6367987">
        <ele>8.30859</ele>
        <time>2013-04-24T18:28:18Z</time>
      </trkpt>
      <trkpt lat="59.8743876" lon="17.6368097">
        <ele>8.30859</ele>
        <time>2013-04-24T18:28:19Z</time>
      </trkpt>
      <trkpt lat="59.8744271" lon="17.636794">
        <ele>8.78918</ele>
        <time>2013-04-24T18:28:20Z</time>
      </trkpt>
      <trkpt lat="59.8744678" lon="17.6367599">
        <ele>9.2699</ele>
        <time>2013-04-24T18:28:21Z</time>
      </trkpt>
      <trkpt lat="59.8745095" lon="17.6367214">
        <ele>9.2699</ele>
        <time>2013-04-24T18:28:22Z</time>
      </trkpt>
      <trkpt lat="59.874556" lon="17.6366874">
        <ele>9.75061</ele>
        <time>2013-04-24T18:28:23Z</time>
      </trkpt>
      <trkpt lat="59.8746047" lon="17.6366519">
        <ele>9.75061</ele>
        <time>2013-04-24T18:28:24Z</time>
      </trkpt>
      <trkpt lat="59.8746539" lon="17.6366174">
        <ele>10.2312</ele>
        <time>2013-04-24T18:28:25Z</time>
      </trkpt>
      <trkpt lat="59.8747055" lon="17.6365818">
        <ele>10.2312</ele>
        <time>2013-04-24T18:28:26Z</time>
      </trkpt>
      <trkpt lat="59.8747581" lon="17.6365414">
        <ele>10.7118</ele>
        <time>2013-04-24T18:28:27Z</time>
      </trkpt>
      <trkpt lat="59.8748136" lon="17.6365014">
        <ele>11.1925</ele>
        <time>2013-04-24T18:28:28Z</time>
      </trkpt>
      <trkpt lat="59.874871" lon="17.6364615">
        <ele>11.6732</ele>
        <time>2013-04-24T18:28:29Z</time>
      </trkpt>
      <trkpt lat="59.8749246" lon="17.6364149">
        <ele>12.6344</ele>
        <time>2013-04-24T18:28:30Z</time>
      </trkpt>
      <trkpt lat="59.8749772" lon="17.6363729">
        <ele>12.6344</ele>
        <time>2013-04-24T18:28:31Z</time>
      </trkpt>
      <trkpt lat="59.8750343" lon="17.6363416">
        <ele>13.1151</ele>
        <time>2013-04-24T18:28:32Z</time>
      </trkpt>
      <trkpt lat="59.8750946" lon="17.6363121">
        <ele>13.1151</ele>
        <time>2013-04-24T18:28:33Z</time>
      </trkpt>
      <trkpt lat="59.8751575" lon="17.6362808">
        <ele>13.5958</ele>
        <time>2013-04-24T18:28:34Z</time>
      </trkpt>
      <trkpt lat="59.8752246" lon="17.6362494">
        <ele>14.0764</ele>
        <time>2013-04-24T18:28:35Z</time>
      </trkpt>
      <trkpt lat="59.8752932" lon="17.6362137">
        <ele>14.557</ele>
        <time>2013-04-24T18:28:36Z</time>
      </trkpt>
      <trkpt lat="59.8753615" lon="17.6361736">
        <ele>14.557</ele>
        <time>2013-04-24T18:28:37Z</time>
      </trkpt>
      <trkpt lat="59.8754333" lon="17.6361397">
        <ele>15.0377</ele>
        <time>2013-04-24T18:28:38Z</time>
      </trkpt>
      <trkpt lat="59.8755071" lon="17.6361098">
        <ele>15.5184</ele>
        <time>2013-04-24T18:28:39Z</time>
      </trkpt>
      <trkpt lat="59.875581" lon="17.6360764">
        <ele>15.0377</ele>
        <time>2013-04-24T18:28:40Z</time>
      </trkpt>
      <trkpt lat="59.8756538" lon="17.6360408">
        <ele>14.557</ele>
        <time>2013-04-24T18:28:41Z</time>
      </trkpt>
      <trkpt lat="59.8757288" lon="17.6360087">
        <ele>14.0764</ele>
        <time>2013-04-24T18:28:42Z</time>
      </trkpt>
      <trkpt lat="59.8758056" lon="17.6359795">
        <ele>14.0764</ele>
        <time>2013-04-24T18:28:43Z</time>
      </trkpt>
      <trkpt lat="59.8758861" lon="17.6359601">
        <ele>14.557</ele>
        <time>2013-04-24T18:28:44Z</time>
      </trkpt>
      <trkpt lat="59.875962" lon="17.6359372">
        <ele>14.557</ele>
        <time>2013-04-24T18:28:45Z</time>
      </trkpt>
      <trkpt lat="59.8760396" lon="17.6359161">
        <ele>14.0764</ele>
        <time>2013-04-24T18:28:46Z</time>
      </trkpt>
      <trkpt lat="59.8761166" lon="17.6358944">
        <ele>13.5958</ele>
        <time>2013-04-24T18:28:47Z</time>
      </trkpt>
      <trkpt lat="59.876196" lon="17.6358808">
        <ele>14.0764</ele>
        <time>2013-04-24T18:28:48Z</time>
      </trkpt>
      <trkpt lat="59.8762769" lon="17.6358754">
        <ele>14.557</ele>
        <time>2013-04-24T18:28:49Z</time>
      </trkpt>
      <trkpt lat="59.8763562" lon="17.6358678">
        <ele>14.557</ele>
        <time>2013-04-24T18:28:50Z</time>
      </trkpt>
      <trkpt lat="59.8764369" lon="17.635858">
        <ele>15.0377</ele>
        <time>2013-04-24T18:28:51Z</time>
      </trkpt>
      <trkpt lat="59.8765182" lon="17.6358477">
        <ele>15.0377</ele>
        <time>2013-04-24T18:28:52Z</time>
      </trkpt>
      <trkpt lat="59.8765995" lon="17.6358383">
        <ele>15.5184</ele>
        <time>2013-04-24T18:28:53Z</time>
      </trkpt>
      <trkpt lat="59.8766808" lon="17.6358295">
        <ele>15.5184</ele>
        <time>2013-04-24T18:28:54Z</time>
      </trkpt>
      <trkpt lat="59.8767617" lon="17.6358221">
        <ele>15.5184</ele>
        <time>2013-04-24T18:28:55Z</time>
      </trkpt>
      <trkpt lat="59.8768433" lon="17.6358166">
        <ele>15.999</ele>
        <time>2013-04-24T18:28:56Z</time>
      </trkpt>
      <trkpt lat="59.8769253" lon="17.635812">
        <ele>15.999</ele>
        <time>2013-04-24T18:28:57Z</time>
      </trkpt>
      <trkpt lat="59.8770077" lon="17.6358072">
        <ele>15.999</ele>
        <time>2013-04-24T18:28:58Z</time>
      </trkpt>
      <trkpt lat="59.8770905" lon="17.6358019">
        <ele>15.999</ele>
        <time>2013-04-24T18:28:59Z</time>
      </trkpt>
      <trkpt lat="59.8771735" lon="17.6357963">
        <ele>15.999</ele>
        <time>2013-04-24T18:29:00Z</time>
      </trkpt>
      <trkpt lat="59.8772569" lon="17.6357904">
        <ele>15.999</ele>
        <time>2013-04-24T18:29:01Z</time>
      </trkpt>
      <trkpt lat="59.8773413" lon="17.6357832">
        <ele>15.999</ele>
        <time>2013-04-24T18:29:02Z</time>
      </trkpt>
      <trkpt lat="59.8774264" lon="17.6357783">
        <ele>15.999</ele>
        <time>2013-04-24T18:29:03Z</time>
      </trkpt>
      <trkpt lat="59.8775117" lon="17.6357782">
        <ele>15.5184</ele>
        <time>2013-04-24T18:29:04Z</time>
      </trkpt>
      <trkpt lat="59.8775962" lon="17.6357771">
        <ele>15.5184</ele>
        <time>2013-04-24T18:29:05Z</time>
      </trkpt>
      <trkpt lat="59.877681" lon="17.635774">
        <ele>15.5184</ele>
        <time>2013-04-24T18:29:06Z</time>
      </trkpt>
      <trkpt lat="59.8777646" lon="17.6357694">
        <ele>15.5184</ele>
        <time>2013-04-24T18:29:07Z</time>
      </trkpt>
      <trkpt lat="59.8778476" lon="17.6357632">
        <ele>15.0377</ele>
        <time>2013-04-24T18:29:08Z</time>
      </trkpt>
      <trkpt lat="59.8779304" lon="17.6357575">
        <ele>15.0377</ele>
        <time>2013-04-24T18:29:09Z</time>
      </trkpt>
      <trkpt lat="59.8780131" lon="17.6357523">
        <ele>15.0377</ele>
        <time>2013-04-24T18:29:10Z</time>
      </trkpt>
      <trkpt lat="59.8780957" lon="17.6357501">
        <ele>15.5184</ele>
        <time>2013-04-24T18:29:11Z</time>
      </trkpt>
      <trkpt lat="59.8781774" lon="17.6357492">
        <ele>15.5184</ele>
        <time>2013-04-24T18:29:12Z</time>
      </trkpt>
      <trkpt lat="59.8782575" lon="17.635745">
        <ele>15.5184</ele>
        <time>2013-04-24T18:29:13Z</time>
      </trkpt>
      <trkpt lat="59.878337" lon="17.6357412">
        <ele>15.5184</ele>
        <time>2013-04-24T18:29:14Z</time>
      </trkpt>
      <trkpt lat="59.8784166" lon="17.635739">
        <ele>15.5184</ele>
        <time>2013-04-24T18:29:15Z</time>
      </trkpt>
      <trkpt lat="59.878494" lon="17.6357319">
        <ele>15.5184</ele>
        <time>2013-04-24T18:29:16Z</time>
      </trkpt>
      <trkpt lat="59.8785706" lon="17.6357252">
        <ele>15.999</ele>
        <time>2013-04-24T18:29:17Z</time>
      </trkpt>
      <trkpt lat="59.8786445" lon="17.63572">
        <ele>15.999</ele>
        <time>2013-04-24T18:29:18Z</time>
      </trkpt>
      <trkpt lat="59.8787166" lon="17.6357148">
        <ele>15.999</ele>
        <time>2013-04-24T18:29:19Z</time>
      </trkpt>
      <trkpt lat="59.878788" lon="17.6357099">
        <ele>16.4797</ele>
        <time>2013-04-24T18:29:20Z</time>
      </trkpt>
      <trkpt lat="59.8788596" lon="17.6357047">
        <ele>16.4797</ele>
        <time>2013-04-24T18:29:21Z</time>
      </trkpt>
      <trkpt lat="59.8789322" lon="17.6356989">
        <ele>16.4797</ele>
        <time>2013-04-24T18:29:22Z</time>
      </trkpt>
      <trkpt lat="59.8790057" lon="17.6356944">
        <ele>16.4797</ele>
        <time>2013-04-24T18:29:23Z</time>
      </trkpt>
      <trkpt lat="59.8790796" lon="17.6356903">
        <ele>16.4797</ele>
        <time>2013-04-24T18:29:24Z</time>
      </trkpt>
      <trkpt lat="59.8791539" lon="17.6356849">
        <ele>16.4797</ele>
        <time>2013-04-24T18:29:25Z</time>
      </trkpt>
      <trkpt lat="59.8792291" lon="17.6356819">
        <ele>16.9604</ele>
        <time>2013-04-24T18:29:26Z</time>
      </trkpt>
      <trkpt lat="59.8793051" lon="17.6356806">
        <ele>16.9604</ele>
        <time>2013-04-24T18:29:27Z</time>
      </trkpt>
      <trkpt lat="59.8793813" lon="17.6356777">
        <ele>16.9604</ele>
        <time>2013-04-24T18:29:28Z</time>
      </trkpt>
      <trkpt lat="59.8794574" lon="17.635674">
        <ele>16.9604</ele>
        <time>2013-04-24T18:29:29Z</time>
      </trkpt>
      <trkpt lat="59.8795339" lon="17.63567">
        <ele>17.4412</ele>
        <time>2013-04-24T18:29:30Z</time>
      </trkpt>
      <trkpt lat="59.8796107" lon="17.6356658">
        <ele>17.4412</ele>
        <time>2013-04-24T18:29:31Z</time>
      </trkpt>
      <trkpt lat="59.8796873" lon="17.6356606">
        <ele>17.4412</ele>
        <time>2013-04-24T18:29:32Z</time>
      </trkpt>
      <trkpt lat="59.8797631" lon="17.6356544">
        <ele>17.4412</ele>
        <time>2013-04-24T18:29:33Z</time>
      </trkpt>
      <trkpt lat="59.8798386" lon="17.6356503">
        <ele>17.9218</ele>
        <time>2013-04-24T18:29:34Z</time>
      </trkpt>
      <trkpt lat="59.8799146" lon="17.635647">
        <ele>17.9218</ele>
        <time>2013-04-24T18:29:35Z</time>
      </trkpt>
      <trkpt lat="59.8799916" lon="17.6356408">
        <ele>17.9218</ele>
        <time>2013-04-24T18:29:36Z</time>
      </trkpt>
      <trkpt lat="59.8800701" lon="17.6356346">
        <ele>17.9218</ele>
        <time>2013-04-24T18:29:37Z</time>
      </trkpt>
      <trkpt lat="59.880149" lon="17.6356297">
        <ele>17.9218</ele>
        <time>2013-04-24T18:29:38Z</time>
      </trkpt>
      <trkpt lat="59.8802277" lon="17.6356249">
        <ele>18.4023</ele>
        <time>2013-04-24T18:29:39Z</time>
      </trkpt>
      <trkpt lat="59.8803055" lon="17.635619">
        <ele>18.4023</ele>
        <time>2013-04-24T18:29:40Z</time>
      </trkpt>
      <trkpt lat="59.8803831" lon="17.6356117">
        <ele>18.4023</ele>
        <time>2013-04-24T18:29:41Z</time>
      </trkpt>
      <trkpt lat="59.8804606" lon="17.6356042">
        <ele>18.4023</ele>
        <time>2013-04-24T18:29:42Z</time>
      </trkpt>
      <trkpt lat="59.8805379" lon="17.6355994">
        <ele>18.4023</ele>
        <time>2013-04-24T18:29:43Z</time>
      </trkpt>
      <trkpt lat="59.8806153" lon="17.6355953">
        <ele>18.4023</ele>
        <time>2013-04-24T18:29:44Z</time>
      </trkpt>
      <trkpt lat="59.8806929" lon="17.6355897">
        <ele>18.8831</ele>
        <time>2013-04-24T18:29:45Z</time>
      </trkpt>
      <trkpt lat="59.8807705" lon="17.635584">
        <ele>18.8831</ele>
        <time>2013-04-24T18:29:46Z</time>
      </trkpt>
      <trkpt lat="59.8808482" lon="17.6355765">
        <ele>18.8831</ele>
        <time>2013-04-24T18:29:47Z</time>
      </trkpt>
      <trkpt lat="59.8809263" lon="17.6355672">
        <ele>18.8831</ele>
        <time>2013-04-24T18:29:48Z</time>
      </trkpt>
      <trkpt lat="59.8810047" lon="17.6355582">
        <ele>18.8831</ele>
        <time>2013-04-24T18:29:49Z</time>
      </trkpt>
      <trkpt lat="59.8810836" lon="17.6355516">
        <ele>18.8831</ele>
        <time>2013-04-24T18:29:50Z</time>
      </trkpt>
      <trkpt lat="59.8811633" lon="17.6355455">
        <ele>18.8831</ele>
        <time>2013-04-24T18:29:51Z</time>
      </trkpt>
      <trkpt lat="59.8812433" lon="17.6355389">
        <ele>18.8831</ele>
        <time>2013-04-24T18:29:52Z</time>
      </trkpt>
      <trkpt lat="59.8813227" lon="17.6355317">
        <ele>18.8831</ele>
        <time>2013-04-24T18:29:53Z</time>
      </trkpt>
      <trkpt lat="59.8814015" lon="17.6355234">
        <ele>19.3638</ele>
        <time>2013-04-24T18:29:54Z</time>
      </trkpt>
      <trkpt lat="59.8814807" lon="17.6355151">
        <ele>19.3638</ele>
        <time>2013-04-24T18:29:55Z</time>
      </trkpt>
      <trkpt lat="59.88156" lon="17.6355057">
        <ele>19.3638</ele>
        <time>2013-04-24T18:29:56Z</time>
      </trkpt>
      <trkpt lat="59.8816398" lon="17.6354959">
        <ele>19.3638</ele>
        <time>2013-04-24T18:29:57Z</time>
      </trkpt>
      <trkpt lat="59.8817202" lon="17.6354869">
        <ele>19.3638</ele>
        <time>2013-04-24T18:29:58Z</time>
      </trkpt>
      <trkpt lat="59.881801" lon="17.6354783">
        <ele>19.3638</ele>
        <time>2013-04-24T18:29:59Z</time>
      </trkpt>
      <trkpt lat="59.8818816" lon="17.635471">
        <ele>19.3638</ele>
        <time>2013-04-24T18:30:00Z</time>
      </trkpt>
      <trkpt lat="59.8819613" lon="17.6354659">
        <ele>19.3638</ele>
        <time>2013-04-24T18:30:01Z</time>
      </trkpt>
      <trkpt lat="59.8820406" lon="17.6354612">
        <ele>19.8444</ele>
        <time>2013-04-24T18:30:02Z</time>
      </trkpt>
      <trkpt lat="59.882119" lon="17.6354564">
        <ele>19.8444</ele>
        <time>2013-04-24T18:30:03Z</time>
      </trkpt>
      <trkpt lat="59.8821972" lon="17.6354507">
        <ele>19.8444</ele>
        <time>2013-04-24T18:30:04Z</time>
      </trkpt>
      <trkpt lat="59.8822749" lon="17.6354436">
        <ele>19.8444</ele>
        <time>2013-04-24T18:30:05Z</time>
      </trkpt>
      <trkpt lat="59.8823526" lon="17.6354361">
        <ele>19.8444</ele>
        <time>2013-04-24T18:30:06Z</time>
      </trkpt>
      <trkpt lat="59.8824294" lon="17.635428">
        <ele>19.8444</ele>
        <time>2013-04-24T18:30:07Z</time>
      </trkpt>
      <trkpt lat="59.8825062" lon="17.635419">
        <ele>19.8444</ele>
        <time>2013-04-24T18:30:08Z</time>
      </trkpt>
      <trkpt lat="59.882583" lon="17.6354084">
        <ele>19.8444</ele>
        <time>2013-04-24T18:30:09Z</time>
      </trkpt>
      <trkpt lat="59.8826594" lon="17.6354007">
        <ele>19.8444</ele>
        <time>2013-04-24T18:30:10Z</time>
      </trkpt>
      <trkpt lat="59.8827364" lon="17.6353949">
        <ele>19.8444</ele>
        <time>2013-04-24T18:30:11Z</time>
      </trkpt>
      <trkpt lat="59.8828137" lon="17.63539">
        <ele>19.8444</ele>
        <time>2013-04-24T18:30:12Z</time>
      </trkpt>
      <trkpt lat="59.8828896" lon="17.6353848">
        <ele>19.8444</ele>
        <time>2013-04-24T18:30:13Z</time>
      </trkpt>
      <trkpt lat="59.8829644" lon="17.6353793">
        <ele>19.8444</ele>
        <time>2013-04-24T18:30:14Z</time>
      </trkpt>
      <trkpt lat="59.8830396" lon="17.6353714">
        <ele>19.8444</ele>
        <time>2013-04-24T18:30:15Z</time>
      </trkpt>
      <trkpt lat="59.8831145" lon="17.6353598">
        <ele>19.8444</ele>
        <time>2013-04-24T18:30:16Z</time>
      </trkpt>
      <trkpt lat="59.8831895" lon="17.6353507">
        <ele>19.8444</ele>
        <time>2013-04-24T18:30:17Z</time>
      </trkpt>
      <trkpt lat="59.8832653" lon="17.6353467">
        <ele>19.8444</ele>
        <time>2013-04-24T18:30:18Z</time>
      </trkpt>
      <trkpt lat="59.883341" lon="17.6353488">
        <ele>19.8444</ele>
        <time>2013-04-24T18:30:19Z</time>
      </trkpt>
      <trkpt lat="59.8834171" lon="17.6353563">
        <ele>19.8444</ele>
        <time>2013-04-24T18:30:20Z</time>
      </trkpt>
      <trkpt lat="59.8834932" lon="17.6353649">
        <ele>19.8444</ele>
        <time>2013-04-24T18:30:21Z</time>
      </trkpt>
      <trkpt lat="59.8835694" lon="17.6353742">
        <ele>19.8444</ele>
        <time>2013-04-24T18:30:22Z</time>
      </trkpt>
      <trkpt lat="59.8836456" lon="17.6353869">
        <ele>20.325</ele>
        <time>2013-04-24T18:30:23Z</time>
      </trkpt>
      <trkpt lat="59.8837227" lon="17.6354037">
        <ele>20.325</ele>
        <time>2013-04-24T18:30:24Z</time>
      </trkpt>
      <trkpt lat="59.8838005" lon="17.6354244">
        <ele>20.325</ele>
        <time>2013-04-24T18:30:25Z</time>
      </trkpt>
      <trkpt lat="59.8838787" lon="17.6354472">
        <ele>20.325</ele>
        <time>2013-04-24T18:30:26Z</time>
      </trkpt>
      <trkpt lat="59.8839568" lon="17.6354713">
        <ele>20.8057</ele>
        <time>2013-04-24T18:30:27Z</time>
      </trkpt>
      <trkpt lat="59.8840339" lon="17.635499">
        <ele>20.8057</ele>
        <time>2013-04-24T18:30:28Z</time>
      </trkpt>
      <trkpt lat="59.8841107" lon="17.6355318">
        <ele>20.8057</ele>
        <time>2013-04-24T18:30:29Z</time>
      </trkpt>
      <trkpt lat="59.8841878" lon="17.635568">
        <ele>20.8057</ele>
        <time>2013-04-24T18:30:30Z</time>
      </trkpt>
      <trkpt lat="59.8842647" lon="17.6356057">
        <ele>21.2864</ele>
        <time>2013-04-24T18:30:31Z</time>
      </trkpt>
      <trkpt lat="59.8843423" lon="17.6356472">
        <ele>21.2864</ele>
        <time>2013-04-24T18:30:32Z</time>
      </trkpt>
      <trkpt lat="59.8844183" lon="17.6356952">
        <ele>21.2864</ele>
        <time>2013-04-24T18:30:33Z</time>
      </trkpt>
      <trkpt lat="59.8844938" lon="17.6357478">
        <ele>21.767</ele>
        <time>2013-04-24T18:30:34Z</time>
      </trkpt>
      <trkpt lat="59.8845686" lon="17.6358057">
        <ele>21.767</ele>
        <time>2013-04-24T18:30:35Z</time>
      </trkpt>
      <trkpt lat="59.8846442" lon="17.6358682">
        <ele>22.2476</ele>
        <time>2013-04-24T18:30:36Z</time>
      </trkpt>
      <trkpt lat="59.8847198" lon="17.6359334">
        <ele>22.2476</ele>
        <time>2013-04-24T18:30:37Z</time>
      </trkpt>
      <trkpt lat="59.8847927" lon="17.636005">
        <ele>22.2476</ele>
        <time>2013-04-24T18:30:38Z</time>
      </trkpt>
      <trkpt lat="59.8848671" lon="17.6360759">
        <ele>22.2476</ele>
        <time>2013-04-24T18:30:39Z</time>
      </trkpt>
      <trkpt lat="59.8849412" lon="17.6361445">
        <ele>22.2476</ele>
        <time>2013-04-24T18:30:40Z</time>
      </trkpt>
      <trkpt lat="59.885014" lon="17.6362085">
        <ele>22.7283</ele>
        <time>2013-04-24T18:30:41Z</time>
      </trkpt>
      <trkpt lat="59.8850841" lon="17.6362741">
        <ele>22.7283</ele>
        <time>2013-04-24T18:30:42Z</time>
      </trkpt>
      <trkpt lat="59.8851566" lon="17.6363416">
        <ele>22.7283</ele>
        <time>2013-04-24T18:30:43Z</time>
      </trkpt>
      <trkpt lat="59.885228" lon="17.6364058">
        <ele>22.7283</ele>
        <time>2013-04-24T18:30:44Z</time>
      </trkpt>
      <trkpt lat="59.8852938" lon="17.6364707">
        <ele>23.209</ele>
        <time>2013-04-24T18:30:45Z</time>
      </trkpt>
      <trkpt lat="59.8853585" lon="17.6365365">
        <ele>23.209</ele>
        <time>2013-04-24T18:30:46Z</time>
      </trkpt>
      <trkpt lat="59.8854224" lon="17.636602">
        <ele>23.209</ele>
        <time>2013-04-24T18:30:47Z</time>
      </trkpt>
      <trkpt lat="59.8854874" lon="17.6366599">
        <ele>23.209</ele>
        <time>2013-04-24T18:30:48Z</time>
      </trkpt>
      <trkpt lat="59.8855529" lon="17.6367189">
        <ele>23.209</ele>
        <time>2013-04-24T18:30:49Z</time>
      </trkpt>
      <trkpt lat="59.8856192" lon="17.636777">
        <ele>23.6896</ele>
        <time>2013-04-24T18:30:50Z</time>
      </trkpt>
      <trkpt lat="59.8856855" lon="17.6368342">
        <ele>23.6896</ele>
        <time>2013-04-24T18:30:51Z</time>
      </trkpt>
      <trkpt lat="59.8857511" lon="17.6368945">
        <ele>23.6896</ele>
        <time>2013-04-24T18:30:52Z</time>
      </trkpt>
      <trkpt lat="59.8858155" lon="17.6369575">
        <ele>24.1703</ele>
        <time>2013-04-24T18:30:53Z</time>
      </trkpt>
      <trkpt lat="59.8858782" lon="17.6370176">
        <ele>24.1703</ele>
        <time>2013-04-24T18:30:54Z</time>
      </trkpt>
      <trkpt lat="59.8859403" lon="17.6370774">
        <ele>24.1703</ele>
        <time>2013-04-24T18:30:55Z</time>
      </trkpt>
      <trkpt lat="59.8860034" lon="17.6371344">
        <ele>23.6896</ele>
        <time>2013-04-24T18:30:56Z</time>
      </trkpt>
      <trkpt lat="59.8860652" lon="17.6371862">
        <ele>24.1703</ele>
        <time>2013-04-24T18:30:57Z</time>
      </trkpt>
      <trkpt lat="59.8861269" lon="17.6372302">
        <ele>23.6896</ele>
        <time>2013-04-24T18:30:58Z</time>
      </trkpt>
      <trkpt lat="59.8861895" lon="17.6372772">
        <ele>23.6896</ele>
        <time>2013-04-24T18:30:59Z</time>
      </trkpt>
      <trkpt lat="59.8862523" lon="17.6373238">
        <ele>23.6896</ele>
        <time>2013-04-24T18:31:00Z</time>
      </trkpt>
      <trkpt lat="59.8863174" lon="17.6373614">
        <ele>23.6896</ele>
        <time>2013-04-24T18:31:01Z</time>
      </trkpt>
      <trkpt lat="59.8863838" lon="17.6373935">
        <ele>24.1703</ele>
        <time>2013-04-24T18:31:02Z</time>
      </trkpt>
      <trkpt lat="59.8864495" lon="17.6374209">
        <ele>24.1703</ele>
        <time>2013-04-24T18:31:03Z</time>
      </trkpt>
      <trkpt lat="59.8865146" lon="17.6374448">
        <ele>24.1703</ele>
        <time>2013-04-24T18:31:04Z</time>
      </trkpt>
      <trkpt lat="59.8865793" lon="17.637476">
        <ele>24.1703</ele>
        <time>2013-04-24T18:31:05Z</time>
      </trkpt>
      <trkpt lat="59.8866437" lon="17.6375147">
        <ele>24.651</ele>
        <time>2013-04-24T18:31:06Z</time>
      </trkpt>
      <trkpt lat="59.8867075" lon="17.6375528">
        <ele>24.651</ele>
        <time>2013-04-24T18:31:07Z</time>
      </trkpt>
      <trkpt lat="59.8867705" lon="17.6375876">
        <ele>24.651</ele>
        <time>2013-04-24T18:31:08Z</time>
      </trkpt>
      <trkpt lat="59.8868333" lon="17.6376211">
        <ele>24.651</ele>
        <time>2013-04-24T18:31:09Z</time>
      </trkpt>
      <trkpt lat="59.8868961" lon="17.6376554">
        <ele>24.1703</ele>
        <time>2013-04-24T18:31:10Z</time>
      </trkpt>
      <trkpt lat="59.8869612" lon="17.6376884">
        <ele>24.1703</ele>
        <time>2013-04-24T18:31:11Z</time>
      </trkpt>
      <trkpt lat="59.8870265" lon="17.6377192">
        <ele>24.1703</ele>
        <time>2013-04-24T18:31:12Z</time>
      </trkpt>
      <trkpt lat="59.8870933" lon="17.6377482">
        <ele>24.1703</ele>
        <time>2013-04-24T18:31:13Z</time>
      </trkpt>
      <trkpt lat="59.8871614" lon="17.6377746">
        <ele>24.1703</ele>
        <time>2013-04-24T18:31:14Z</time>
      </trkpt>
      <trkpt lat="59.8872294" lon="17.6378016">
        <ele>24.651</ele>
        <time>2013-04-24T18:31:15Z</time>
      </trkpt>
      <trkpt lat="59.8872985" lon="17.637831">
        <ele>24.651</ele>
        <time>2013-04-24T18:31:16Z</time>
      </trkpt>
      <trkpt lat="59.8873683" lon="17.6378625">
        <ele>24.651</ele>
        <time>2013-04-24T18:31:17Z</time>
      </trkpt>
      <trkpt lat="59.887438" lon="17.6378946">
        <ele>24.651</ele>
        <time>2013-04-24T18:31:18Z</time>
      </trkpt>
      <trkpt lat="59.8875089" lon="17.6379275">
        <ele>24.651</ele>
        <time>2013-04-24T18:31:19Z</time>
      </trkpt>
      <trkpt lat="59.8875814" lon="17.6379557">
        <ele>24.651</ele>
        <time>2013-04-24T18:31:20Z</time>
      </trkpt>
      <trkpt lat="59.8876559" lon="17.6379798">
        <ele>24.651</ele>
        <time>2013-04-24T18:31:21Z</time>
      </trkpt>
      <trkpt lat="59.88773" lon="17.638002">
        <ele>24.651</ele>
        <time>2013-04-24T18:31:22Z</time>
      </trkpt>
      <trkpt lat="59.8878022" lon="17.6380268">
        <ele>24.1703</ele>
        <time>2013-04-24T18:31:23Z</time>
      </trkpt>
      <trkpt lat="59.8878755" lon="17.6380503">
        <ele>23.6896</ele>
        <time>2013-04-24T18:31:24Z</time>
      </trkpt>
      <trkpt lat="59.8879523" lon="17.6380664">
        <ele>23.6896</ele>
        <time>2013-04-24T18:31:25Z</time>
      </trkpt>
      <trkpt lat="59.8880315" lon="17.6380775">
        <ele>23.6896</ele>
        <time>2013-04-24T18:31:26Z</time>
      </trkpt>
      <trkpt lat="59.8881113" lon="17.6380875">
        <ele>23.209</ele>
        <time>2013-04-24T18:31:27Z</time>
      </trkpt>
      <trkpt lat="59.8881906" lon="17.6380931">
        <ele>23.209</ele>
        <time>2013-04-24T18:31:28Z</time>
      </trkpt>
      <trkpt lat="59.8882714" lon="17.6380915">
        <ele>22.7283</ele>
        <time>2013-04-24T18:31:29Z</time>
      </trkpt>
      <trkpt lat="59.8883563" lon="17.6380857">
        <ele>22.7283</ele>
        <time>2013-04-24T18:31:30Z</time>
      </trkpt>
      <trkpt lat="59.8884412" lon="17.638079">
        <ele>22.2476</ele>
        <time>2013-04-24T18:31:31Z</time>
      </trkpt>
      <trkpt lat="59.8885265" lon="17.6380694">
        <ele>22.2476</ele>
        <time>2013-04-24T18:31:32Z</time>
      </trkpt>
      <trkpt lat="59.8886125" lon="17.638059">
        <ele>21.767</ele>
        <time>2013-04-24T18:31:33Z</time>
      </trkpt>
      <trkpt lat="59.8886987" lon="17.6380487">
        <ele>21.767</ele>
        <time>2013-04-24T18:31:34Z</time>
      </trkpt>
      <trkpt lat="59.8887852" lon="17.6380393">
        <ele>21.2864</ele>
        <time>2013-04-24T18:31:35Z</time>
      </trkpt>
      <trkpt lat="59.8888726" lon="17.6380325">
        <ele>20.8057</ele>
        <time>2013-04-24T18:31:36Z</time>
      </trkpt>
      <trkpt lat="59.8889613" lon="17.6380285">
        <ele>20.325</ele>
        <time>2013-04-24T18:31:37Z</time>
      </trkpt>
      <trkpt lat="59.889051" lon="17.6380299">
        <ele>20.325</ele>
        <time>2013-04-24T18:31:38Z</time>
      </trkpt>
      <trkpt lat="59.8891417" lon="17.6380368">
        <ele>20.325</ele>
        <time>2013-04-24T18:31:39Z</time>
      </trkpt>
      <trkpt lat="59.8892313" lon="17.6380497">
        <ele>20.325</ele>
        <time>2013-04-24T18:31:40Z</time>
      </trkpt>
      <trkpt lat="59.8893192" lon="17.6380699">
        <ele>19.8444</ele>
        <time>2013-04-24T18:31:41Z</time>
      </trkpt>
      <trkpt lat="59.8894075" lon="17.6380932">
        <ele>19.8444</ele>
        <time>2013-04-24T18:31:42Z</time>
      </trkpt>
      <trkpt lat="59.8894986" lon="17.6381205">
        <ele>19.3638</ele>
        <time>2013-04-24T18:31:43Z</time>
      </trkpt>
      <trkpt lat="59.8895886" lon="17.6381501">
        <ele>19.3638</ele>
        <time>2013-04-24T18:31:44Z</time>
      </trkpt>
      <trkpt lat="59.8896804" lon="17.638187">
        <ele>19.3638</ele>
        <time>2013-04-24T18:31:45Z</time>
      </trkpt>
      <trkpt lat="59.8897709" lon="17.6382258">
        <ele>18.8831</ele>
        <time>2013-04-24T18:31:46Z</time>
      </trkpt>
      <trkpt lat="59.8898605" lon="17.6382635">
        <ele>18.8831</ele>
        <time>2013-04-24T18:31:47Z</time>
      </trkpt>
      <trkpt lat="59.8899488" lon="17.6383028">
        <ele>18.8831</ele>
        <time>2013-04-24T18:31:48Z</time>
      </trkpt>
      <trkpt lat="59.8900368" lon="17.6383409">
        <ele>18.8831</ele>
        <time>2013-04-24T18:31:49Z</time>
      </trkpt>
      <trkpt lat="59.8901274" lon="17.6383792">
        <ele>18.8831</ele>
        <time>2013-04-24T18:31:50Z</time>
      </trkpt>
      <trkpt lat="59.8902155" lon="17.6384149">
        <ele>18.8831</ele>
        <time>2013-04-24T18:31:51Z</time>
      </trkpt>
      <trkpt lat="59.8903023" lon="17.6384476">
        <ele>18.8831</ele>
        <time>2013-04-24T18:31:52Z</time>
      </trkpt>
      <trkpt lat="59.8903898" lon="17.6384785">
        <ele>18.4023</ele>
        <time>2013-04-24T18:31:53Z</time>
      </trkpt>
      <trkpt lat="59.8904765" lon="17.6385065">
        <ele>18.4023</ele>
        <time>2013-04-24T18:31:54Z</time>
      </trkpt>
      <trkpt lat="59.8905614" lon="17.6385302">
        <ele>18.4023</ele>
        <time>2013-04-24T18:31:55Z</time>
      </trkpt>
      <trkpt lat="59.8906452" lon="17.6385488">
        <ele>18.4023</ele>
        <time>2013-04-24T18:31:56Z</time>
      </trkpt>
      <trkpt lat="59.8907268" lon="17.6385654">
        <ele>18.4023</ele>
        <time>2013-04-24T18:31:57Z</time>
      </trkpt>
      <trkpt lat="59.8908097" lon="17.6385822">
        <ele>18.4023</ele>
        <time>2013-04-24T18:31:58Z</time>
      </trkpt>
      <trkpt lat="59.8908926" lon="17.6385968">
        <ele>18.4023</ele>
        <time>2013-04-24T18:31:59Z</time>
      </trkpt>
      <trkpt lat="59.8909731" lon="17.6386107">
        <ele>18.4023</ele>
        <time>2013-04-24T18:32:00Z</time>
      </trkpt>
      <trkpt lat="59.8910537" lon="17.6386217">
        <ele>18.4023</ele>
        <time>2013-04-24T18:32:01Z</time>
      </trkpt>
      <trkpt lat="59.8911354" lon="17.6386294">
        <ele>18.4023</ele>
        <time>2013-04-24T18:32:02Z</time>
      </trkpt>
      <trkpt lat="59.8912153" lon="17.6386351">
        <ele>17.9218</ele>
        <time>2013-04-24T18:32:03Z</time>
      </trkpt>
      <trkpt lat="59.8912955" lon="17.6386385">
        <ele>17.9218</ele>
        <time>2013-04-24T18:32:04Z</time>
      </trkpt>
      <trkpt lat="59.8913753" lon="17.6386402">
        <ele>17.9218</ele>
        <time>2013-04-24T18:32:05Z</time>
      </trkpt>
      <trkpt lat="59.891454" lon="17.6386411">
        <ele>17.9218</ele>
        <time>2013-04-24T18:32:06Z</time>
      </trkpt>
      <trkpt lat="59.8915315" lon="17.6386402">
        <ele>17.9218</ele>
        <time>2013-04-24T18:32:07Z</time>
      </trkpt>
      <trkpt lat="59.8916073" lon="17.6386375">
        <ele>17.9218</ele>
        <time>2013-04-24T18:32:08Z</time>
      </trkpt>
      <trkpt lat="59.8916812" lon="17.6386315">
        <ele>17.4412</ele>
        <time>2013-04-24T18:32:09Z</time>
      </trkpt>
      <trkpt lat="59.8917561" lon="17.6386262">
        <ele>17.4412</ele>
        <time>2013-04-24T18:32:10Z</time>
      </trkpt>
      <trkpt lat="59.8918304" lon="17.6386169">
        <ele>17.9218</ele>
        <time>2013-04-24T18:32:11Z</time>
      </trkpt>
      <trkpt lat="59.8919036" lon="17.638609">
        <ele>17.9218</ele>
        <time>2013-04-24T18:32:12Z</time>
      </trkpt>
      <trkpt lat="59.8919762" lon="17.6386019">
        <ele>18.4023</ele>
        <time>2013-04-24T18:32:13Z</time>
      </trkpt>
      <trkpt lat="59.8920472" lon="17.6385894">
        <ele>18.4023</ele>
        <time>2013-04-24T18:32:14Z</time>
      </trkpt>
      <trkpt lat="59.8921165" lon="17.638572">
        <ele>18.8831</ele>
        <time>2013-04-24T18:32:15Z</time>
      </trkpt>
      <trkpt lat="59.8921855" lon="17.6385532">
        <ele>18.8831</ele>
        <time>2013-04-24T18:32:16Z</time>
      </trkpt>
      <trkpt lat="59.892255" lon="17.638532">
        <ele>18.8831</ele>
        <time>2013-04-24T18:32:17Z</time>
      </trkpt>
      <trkpt lat="59.8923237" lon="17.638511">
        <ele>19.3638</ele>
        <time>2013-04-24T18:32:18Z</time>
      </trkpt>
      <trkpt lat="59.8923897" lon="17.6384925">
        <ele>19.3638</ele>
        <time>2013-04-24T18:32:19Z</time>
      </trkpt>
      <trkpt lat="59.8924564" lon="17.638477">
        <ele>19.3638</ele>
        <time>2013-04-24T18:32:20Z</time>
      </trkpt>
      <trkpt lat="59.8925228" lon="17.6384662">
        <ele>19.3638</ele>
        <time>2013-04-24T18:32:21Z</time>
      </trkpt>
      <trkpt lat="59.8925895" lon="17.6384661">
        <ele>19.3638</ele>
        <time>2013-04-24T18:32:22Z</time>
      </trkpt>
      <trkpt lat="59.8926543" lon="17.6384708">
        <ele>19.8444</ele>
        <time>2013-04-24T18:32:23Z</time>
      </trkpt>
      <trkpt lat="59.8927167" lon="17.6384636">
        <ele>19.8444</ele>
        <time>2013-04-24T18:32:24Z</time>
      </trkpt>
      <trkpt lat="59.8927777" lon="17.6384351">
        <ele>19.3638</ele>
        <time>2013-04-24T18:32:25Z</time>
      </trkpt>
      <trkpt lat="59.892838" lon="17.6383936">
        <ele>19.3638</ele>
        <time>2013-04-24T18:32:26Z</time>
      </trkpt>
      <trkpt lat="59.8928991" lon="17.6383564">
        <ele>19.3638</ele>
        <time>2013-04-24T18:32:27Z</time>
      </trkpt>
      <trkpt lat="59.8929628" lon="17.6383204">
        <ele>19.8444</ele>
        <time>2013-04-24T18:32:28Z</time>
      </trkpt>
      <trkpt lat="59.8930231" lon="17.6382802">
        <ele>19.8444</ele>
        <time>2013-04-24T18:32:29Z</time>
      </trkpt>
      <trkpt lat="59.8930822" lon="17.6382439">
        <ele>20.325</ele>
        <time>2013-04-24T18:32:30Z</time>
      </trkpt>
      <trkpt lat="59.8931395" lon="17.6382072">
        <ele>20.325</ele>
        <time>2013-04-24T18:32:31Z</time>
      </trkpt>
      <trkpt lat="59.8931977" lon="17.6381729">
        <ele>20.325</ele>
        <time>2013-04-24T18:32:32Z</time>
      </trkpt>
      <trkpt lat="59.8932532" lon="17.6381363">
        <ele>20.325</ele>
        <time>2013-04-24T18:32:33Z</time>
      </trkpt>
      <trkpt lat="59.8933093" lon="17.638102">
        <ele>20.325</ele>
        <time>2013-04-24T18:32:34Z</time>
      </trkpt>
      <trkpt lat="59.893367" lon="17.6380681">
        <ele>20.325</ele>
        <time>2013-04-24T18:32:35Z</time>
      </trkpt>
      <trkpt lat="59.8934252" lon="17.6380348">
        <ele>19.8444</ele>
        <time>2013-04-24T18:32:36Z</time>
      </trkpt>
      <trkpt lat="59.8934829" lon="17.6379969">
        <ele>19.8444</ele>
        <time>2013-04-24T18:32:37Z</time>
      </trkpt>
      <trkpt lat="59.8935419" lon="17.6379564">
        <ele>19.8444</ele>
        <time>2013-04-24T18:32:38Z</time>
      </trkpt>
      <trkpt lat="59.8936007" lon="17.6379195">
        <ele>19.8444</ele>
        <time>2013-04-24T18:32:39Z</time>
      </trkpt>
      <trkpt lat="59.8936569" lon="17.6378797">
        <ele>19.8444</ele>
        <time>2013-04-24T18:32:40Z</time>
      </trkpt>
      <trkpt lat="59.893713" lon="17.6378373">
        <ele>19.8444</ele>
        <time>2013-04-24T18:32:41Z</time>
      </trkpt>
      <trkpt lat="59.8937714" lon="17.6377938">
        <ele>19.8444</ele>
        <time>2013-04-24T18:32:42Z</time>
      </trkpt>
      <trkpt lat="59.8938334" lon="17.6377461">
        <ele>19.8444</ele>
        <time>2013-04-24T18:32:43Z</time>
      </trkpt>
      <trkpt lat="59.8938981" lon="17.6376994">
        <ele>20.325</ele>
        <time>2013-04-24T18:32:44Z</time>
      </trkpt>
      <trkpt lat="59.8939643" lon="17.6376518">
        <ele>20.325</ele>
        <time>2013-04-24T18:32:45Z</time>
      </trkpt>
      <trkpt lat="59.8940301" lon="17.6376046">
        <ele>20.325</ele>
        <time>2013-04-24T18:32:46Z</time>
      </trkpt>
      <trkpt lat="59.8940963" lon="17.6375566">
        <ele>20.325</ele>
        <time>2013-04-24T18:32:47Z</time>
      </trkpt>
      <trkpt lat="59.8941637" lon="17.6375064">
        <ele>19.8444</ele>
        <time>2013-04-24T18:32:48Z</time>
      </trkpt>
      <trkpt lat="59.894233" lon="17.6374596">
        <ele>20.325</ele>
        <time>2013-04-24T18:32:49Z</time>
      </trkpt>
      <trkpt lat="59.8943037" lon="17.6374131">
        <ele>20.325</ele>
        <time>2013-04-24T18:32:50Z</time>
      </trkpt>
      <trkpt lat="59.894376" lon="17.637369">
        <ele>20.8057</ele>
        <time>2013-04-24T18:32:51Z</time>
      </trkpt>
      <trkpt lat="59.8944477" lon="17.6373261">
        <ele>20.8057</ele>
        <time>2013-04-24T18:32:52Z</time>
      </trkpt>
      <trkpt lat="59.8945186" lon="17.6372803">
        <ele>20.325</ele>
        <time>2013-04-24T18:32:53Z</time>
      </trkpt>
      <trkpt lat="59.8945869" lon="17.6372357">
        <ele>20.325</ele>
        <time>2013-04-24T18:32:54Z</time>
      </trkpt>
      <trkpt lat="59.8946596" lon="17.6371929">
        <ele>20.325</ele>
        <time>2013-04-24T18:32:55Z</time>
      </trkpt>
      <trkpt lat="59.8947292" lon="17.6371519">
        <ele>19.8444</ele>
        <time>2013-04-24T18:32:56Z</time>
      </trkpt>
      <trkpt lat="59.8948024" lon="17.6371122">
        <ele>19.8444</ele>
        <time>2013-04-24T18:32:57Z</time>
      </trkpt>
      <trkpt lat="59.8948776" lon="17.6370704">
        <ele>20.325</ele>
        <time>2013-04-24T18:32:58Z</time>
      </trkpt>
      <trkpt lat="59.8949533" lon="17.6370243">
        <ele>20.325</ele>
        <time>2013-04-24T18:32:59Z</time>
      </trkpt>
      <trkpt lat="59.8950186" lon="17.6369705">
        <ele>18.8831</ele>
        <time>2013-04-24T18:33:00Z</time>
      </trkpt>
      <trkpt lat="59.8950871" lon="17.6369178">
        <ele>17.9218</ele>
        <time>2013-04-24T18:33:01Z</time>
      </trkpt>
      <trkpt lat="59.895154" lon="17.6368666">
        <ele>16.9604</ele>
        <time>2013-04-24T18:33:02Z</time>
      </trkpt>
      <trkpt lat="59.8952241" lon="17.6368142">
        <ele>16.4797</ele>
        <time>2013-04-24T18:33:03Z</time>
      </trkpt>
      <trkpt lat="59.895293" lon="17.6367604">
        <ele>15.999</ele>
        <time>2013-04-24T18:33:04Z</time>
      </trkpt>
      <trkpt lat="59.8953625" lon="17.6367087">
        <ele>15.5184</ele>
        <time>2013-04-24T18:33:05Z</time>
      </trkpt>
      <trkpt lat="59.8954318" lon="17.6366589">
        <ele>15.0377</ele>
        <time>2013-04-24T18:33:06Z</time>
      </trkpt>
      <trkpt lat="59.8955018" lon="17.6366144">
        <ele>15.0377</ele>
        <time>2013-04-24T18:33:07Z</time>
      </trkpt>
      <trkpt lat="59.8955728" lon="17.636575">
        <ele>14.557</ele>
        <time>2013-04-24T18:33:08Z</time>
      </trkpt>
      <trkpt lat="59.8956446" lon="17.6365421">
        <ele>15.0377</ele>
        <time>2013-04-24T18:33:09Z</time>
      </trkpt>
      <trkpt lat="59.8957162" lon="17.6365169">
        <ele>14.557</ele>
        <time>2013-04-24T18:33:10Z</time>
      </trkpt>
      <trkpt lat="59.8957908" lon="17.6365009">
        <ele>15.0377</ele>
        <time>2013-04-24T18:33:11Z</time>
      </trkpt>
      <trkpt lat="59.8958644" lon="17.6364894">
        <ele>14.557</ele>
        <time>2013-04-24T18:33:12Z</time>
      </trkpt>
      <trkpt lat="59.8959394" lon="17.6364859">
        <ele>14.557</ele>
        <time>2013-04-24T18:33:13Z</time>
      </trkpt>
      <trkpt lat="59.8960161" lon="17.6364924">
        <ele>14.557</ele>
        <time>2013-04-24T18:33:14Z</time>
      </trkpt>
      <trkpt lat="59.8960938" lon="17.6365105">
        <ele>15.0377</ele>
        <time>2013-04-24T18:33:15Z</time>
      </trkpt>
      <trkpt lat="59.8961713" lon="17.6365376">
        <ele>15.0377</ele>
        <time>2013-04-24T18:33:16Z</time>
      </trkpt>
      <trkpt lat="59.8962468" lon="17.63657">
        <ele>15.0377</ele>
        <time>2013-04-24T18:33:17Z</time>
      </trkpt>
      <trkpt lat="59.8963223" lon="17.6366055">
        <ele>15.0377</ele>
        <time>2013-04-24T18:33:18Z</time>
      </trkpt>
      <trkpt lat="59.8963942" lon="17.6366473">
        <ele>15.0377</ele>
        <time>2013-04-24T18:33:19Z</time>
      </trkpt>
      <trkpt lat="59.8964677" lon="17.6366791">
        <ele>15.0377</ele>
        <time>2013-04-24T18:33:20Z</time>
      </trkpt>
      <trkpt lat="59.8965393" lon="17.6367066">
        <ele>15.0377</ele>
        <time>2013-04-24T18:33:21Z</time>
      </trkpt>
      <trkpt lat="59.8966037" lon="17.6367315">
        <ele>15.0377</ele>
        <time>2013-04-24T18:33:22Z</time>
      </trkpt>
      <trkpt lat="59.8966604" lon="17.6367522">
        <ele>15.0377</ele>
        <time>2013-04-24T18:33:23Z</time>
      </trkpt>
      <trkpt lat="59.8967092" lon="17.6367711">
        <ele>15.0377</ele>
        <time>2013-04-24T18:33:24Z</time>
      </trkpt>
      <trkpt lat="59.896759" lon="17.6367899">
        <ele>15.0377</ele>
        <time>2013-04-24T18:33:25Z</time>
      </trkpt>
      <trkpt lat="59.8968065" lon="17.6368105">
        <ele>15.0377</ele>
        <time>2013-04-24T18:33:26Z</time>
      </trkpt>
      <trkpt lat="59.8968564" lon="17.6368335">
        <ele>15.5184</ele>
        <time>2013-04-24T18:33:27Z</time>
      </trkpt>
      <trkpt lat="59.8969111" lon="17.6368636">
        <ele>15.5184</ele>
        <time>2013-04-24T18:33:28Z</time>
      </trkpt>
      <trkpt lat="59.8969694" lon="17.6368967">
        <ele>15.5184</ele>
        <time>2013-04-24T18:33:29Z</time>
      </trkpt>
      <trkpt lat="59.8970314" lon="17.6369306">
        <ele>15.5184</ele>
        <time>2013-04-24T18:33:30Z</time>
      </trkpt>
      <trkpt lat="59.8970977" lon="17.636966">
        <ele>15.0377</ele>
        <time>2013-04-24T18:33:31Z</time>
      </trkpt>
      <trkpt lat="59.8971676" lon="17.6370042">
        <ele>15.0377</ele>
        <time>2013-04-24T18:33:32Z</time>
      </trkpt>
      <trkpt lat="59.8972401" lon="17.6370458">
        <ele>15.0377</ele>
        <time>2013-04-24T18:33:33Z</time>
      </trkpt>
      <trkpt lat="59.8973152" lon="17.6370867">
        <ele>14.557</ele>
        <time>2013-04-24T18:33:34Z</time>
      </trkpt>
      <trkpt lat="59.8973946" lon="17.6371274">
        <ele>14.557</ele>
        <time>2013-04-24T18:33:35Z</time>
      </trkpt>
      <trkpt lat="59.8974754" lon="17.6371743">
        <ele>14.0764</ele>
        <time>2013-04-24T18:33:36Z</time>
      </trkpt>
      <trkpt lat="59.8975568" lon="17.6372292">
        <ele>14.0764</ele>
        <time>2013-04-24T18:33:37Z</time>
      </trkpt>
      <trkpt lat="59.8976375" lon="17.6372959">
        <ele>14.0764</ele>
        <time>2013-04-24T18:33:38Z</time>
      </trkpt>
      <trkpt lat="59.897715" lon="17.637383">
        <ele>14.0764</ele>
        <time>2013-04-24T18:33:39Z</time>
      </trkpt>
      <trkpt lat="59.8977883" lon="17.6374906">
        <ele>13.5958</ele>
        <time>2013-04-24T18:33:40Z</time>
      </trkpt>
      <trkpt lat="59.8978596" lon="17.6376063">
        <ele>13.5958</ele>
        <time>2013-04-24T18:33:41Z</time>
      </trkpt>
      <trkpt lat="59.8979352" lon="17.6377176">
        <ele>14.0764</ele>
        <time>2013-04-24T18:33:42Z</time>
      </trkpt>
      <trkpt lat="59.8980152" lon="17.6378191">
        <ele>14.0764</ele>
        <time>2013-04-24T18:33:43Z</time>
      </trkpt>
      <trkpt lat="59.8980999" lon="17.6379072">
        <ele>14.557</ele>
        <time>2013-04-24T18:33:44Z</time>
      </trkpt>
      <trkpt lat="59.898187" lon="17.6379868">
        <ele>14.557</ele>
        <time>2013-04-24T18:33:45Z</time>
      </trkpt>
      <trkpt lat="59.8982737" lon="17.6380652">
        <ele>14.557</ele>
        <time>2013-04-24T18:33:46Z</time>
      </trkpt>
      <trkpt lat="59.8983612" lon="17.6381409">
        <ele>15.0377</ele>
        <time>2013-04-24T18:33:47Z</time>
      </trkpt>
      <trkpt lat="59.8984499" lon="17.6382065">
        <ele>15.0377</ele>
        <time>2013-04-24T18:33:48Z</time>
      </trkpt>
      <trkpt lat="59.8985408" lon="17.6382489">
        <ele>15.0377</ele>
        <time>2013-04-24T18:33:49Z</time>
      </trkpt>
      <trkpt lat="59.8986341" lon="17.638266">
        <ele>15.0377</ele>
        <time>2013-04-24T18:33:50Z</time>
      </trkpt>
      <trkpt lat="59.8987283" lon="17.6382784">
        <ele>15.0377</ele>
        <time>2013-04-24T18:33:51Z</time>
      </trkpt>
      <trkpt lat="59.8988196" lon="17.6383004">
        <ele>15.0377</ele>
        <time>2013-04-24T18:33:52Z</time>
      </trkpt>
      <trkpt lat="59.8989083" lon="17.6383394">
        <ele>15.0377</ele>
        <time>2013-04-24T18:33:53Z</time>
      </trkpt>
      <trkpt lat="59.8989968" lon="17.6383977">
        <ele>14.557</ele>
        <time>2013-04-24T18:33:54Z</time>
      </trkpt>
      <trkpt lat="59.8990824" lon="17.6384714">
        <ele>14.557</ele>
        <time>2013-04-24T18:33:55Z</time>
      </trkpt>
      <trkpt lat="59.8991657" lon="17.6385525">
        <ele>14.557</ele>
        <time>2013-04-24T18:33:56Z</time>
      </trkpt>
      <trkpt lat="59.8992496" lon="17.6386432">
        <ele>14.557</ele>
        <time>2013-04-24T18:33:57Z</time>
      </trkpt>
      <trkpt lat="59.8993308" lon="17.6387376">
        <ele>14.0764</ele>
        <time>2013-04-24T18:33:58Z</time>
      </trkpt>
      <trkpt lat="59.8994108" lon="17.6388315">
        <ele>14.0764</ele>
        <time>2013-04-24T18:33:59Z</time>
      </trkpt>
      <trkpt lat="59.8994918" lon="17.6389257">
        <ele>13.5958</ele>
        <time>2013-04-24T18:34:00Z</time>
      </trkpt>
      <trkpt lat="59.8995748" lon="17.6390192">
        <ele>13.1151</ele>
        <time>2013-04-24T18:34:01Z</time>
      </trkpt>
      <trkpt lat="59.8996619" lon="17.6391121">
        <ele>13.1151</ele>
        <time>2013-04-24T18:34:02Z</time>
      </trkpt>
      <trkpt lat="59.8997505" lon="17.6392031">
        <ele>13.1151</ele>
        <time>2013-04-24T18:34:03Z</time>
      </trkpt>
      <trkpt lat="59.8998402" lon="17.6392966">
        <ele>12.6344</ele>
        <time>2013-04-24T18:34:04Z</time>
      </trkpt>
      <trkpt lat="59.8999322" lon="17.6393924">
        <ele>12.6344</ele>
        <time>2013-04-24T18:34:05Z</time>
      </trkpt>
      <trkpt lat="59.9000261" lon="17.6394886">
        <ele>12.6344</ele>
        <time>2013-04-24T18:34:06Z</time>
      </trkpt>
      <trkpt lat="59.9001234" lon="17.6395828">
        <ele>12.1538</ele>
        <time>2013-04-24T18:34:07Z</time>
      </trkpt>
      <trkpt lat="59.9002196" lon="17.6396777">
        <ele>12.1538</ele>
        <time>2013-04-24T18:34:08Z</time>
      </trkpt>
      <trkpt lat="59.9003167" lon="17.6397757">
        <ele>12.1538</ele>
        <time>2013-04-24T18:34:09Z</time>
      </trkpt>
      <trkpt lat="59.9004154" lon="17.6398757">
        <ele>12.1538</ele>
        <time>2013-04-24T18:34:10Z</time>
      </trkpt>
      <trkpt lat="59.9005147" lon="17.6399783">
        <ele>11.6732</ele>
        <time>2013-04-24T18:34:11Z</time>
      </trkpt>
      <trkpt lat="59.9006161" lon="17.6400844">
        <ele>11.6732</ele>
        <time>2013-04-24T18:34:12Z</time>
      </trkpt>
      <trkpt lat="59.9007202" lon="17.6401909">
        <ele>11.6732</ele>
        <time>2013-04-24T18:34:13Z</time>
      </trkpt>
      <trkpt lat="59.9008262" lon="17.6402966">
        <ele>11.1925</ele>
        <time>2013-04-24T18:34:14Z</time>
      </trkpt>
      <trkpt lat="59.9009339" lon="17.640402">
        <ele>11.1925</ele>
        <time>2013-04-24T18:34:15Z</time>
      </trkpt>
      <trkpt lat="59.901043" lon="17.6405071">
        <ele>11.1925</ele>
        <time>2013-04-24T18:34:16Z</time>
      </trkpt>
      <trkpt lat="59.9011527" lon="17.6406107">
        <ele>11.1925</ele>
        <time>2013-04-24T18:34:17Z</time>
      </trkpt>
      <trkpt lat="59.901262" lon="17.6407141">
        <ele>11.1925</ele>
        <time>2013-04-24T18:34:18Z</time>
      </trkpt>
      <trkpt lat="59.9013713" lon="17.6408184">
        <ele>11.6732</ele>
        <time>2013-04-24T18:34:19Z</time>
      </trkpt>
      <trkpt lat="59.9014792" lon="17.6409221">
        <ele>12.1538</ele>
        <time>2013-04-24T18:34:20Z</time>
      </trkpt>
      <trkpt lat="59.9015878" lon="17.6410213">
        <ele>12.6344</ele>
        <time>2013-04-24T18:34:21Z</time>
      </trkpt>
      <trkpt lat="59.9016962" lon="17.6411143">
        <ele>12.6344</ele>
        <time>2013-04-24T18:34:22Z</time>
      </trkpt>
      <trkpt lat="59.9018074" lon="17.6412016">
        <ele>12.6344</ele>
        <time>2013-04-24T18:34:23Z</time>
      </trkpt>
      <trkpt lat="59.9019185" lon="17.6412874">
        <ele>13.1151</ele>
        <time>2013-04-24T18:34:24Z</time>
      </trkpt>
      <trkpt lat="59.9020302" lon="17.6413738">
        <ele>13.5958</ele>
        <time>2013-04-24T18:34:25Z</time>
      </trkpt>
      <trkpt lat="59.9021411" lon="17.6414587">
        <ele>13.5958</ele>
        <time>2013-04-24T18:34:26Z</time>
      </trkpt>
      <trkpt lat="59.9022504" lon="17.6415405">
        <ele>13.5958</ele>
        <time>2013-04-24T18:34:27Z</time>
      </trkpt>
      <trkpt lat="59.9023579" lon="17.6416198">
        <ele>14.0764</ele>
        <time>2013-04-24T18:34:28Z</time>
      </trkpt>
      <trkpt lat="59.9024638" lon="17.6416955">
        <ele>14.0764</ele>
        <time>2013-04-24T18:34:29Z</time>
      </trkpt>
      <trkpt lat="59.9025689" lon="17.6417653">
        <ele>14.0764</ele>
        <time>2013-04-24T18:34:30Z</time>
      </trkpt>
      <trkpt lat="59.9026731" lon="17.6418292">
        <ele>14.0764</ele>
        <time>2013-04-24T18:34:31Z</time>
      </trkpt>
      <trkpt lat="59.9027758" lon="17.6418885">
        <ele>14.557</ele>
        <time>2013-04-24T18:34:32Z</time>
      </trkpt>
      <trkpt lat="59.9028772" lon="17.6419415">
        <ele>14.557</ele>
        <time>2013-04-24T18:34:33Z</time>
      </trkpt>
      <trkpt lat="59.9029776" lon="17.6419902">
        <ele>14.557</ele>
        <time>2013-04-24T18:34:34Z</time>
      </trkpt>
      <trkpt lat="59.9030765" lon="17.6420384">
        <ele>15.0377</ele>
        <time>2013-04-24T18:34:35Z</time>
      </trkpt>
      <trkpt lat="59.903174" lon="17.6420855">
        <ele>15.0377</ele>
        <time>2013-04-24T18:34:36Z</time>
      </trkpt>
      <trkpt lat="59.9032703" lon="17.6421332">
        <ele>15.0377</ele>
        <time>2013-04-24T18:34:37Z</time>
      </trkpt>
      <trkpt lat="59.9033667" lon="17.6421798">
        <ele>15.0377</ele>
        <time>2013-04-24T18:34:38Z</time>
      </trkpt>
      <trkpt lat="59.9034634" lon="17.6422231">
        <ele>15.0377</ele>
        <time>2013-04-24T18:34:39Z</time>
      </trkpt>
      <trkpt lat="59.9035599" lon="17.6422656">
        <ele>15.0377</ele>
        <time>2013-04-24T18:34:40Z</time>
      </trkpt>
      <trkpt lat="59.9036563" lon="17.6423088">
        <ele>14.557</ele>
        <time>2013-04-24T18:34:41Z</time>
      </trkpt>
      <trkpt lat="59.9037527" lon="17.6423552">
        <ele>14.557</ele>
        <time>2013-04-24T18:34:42Z</time>
      </trkpt>
      <trkpt lat="59.9038496" lon="17.642403">
        <ele>14.557</ele>
        <time>2013-04-24T18:34:43Z</time>
      </trkpt>
      <trkpt lat="59.9039463" lon="17.6424503">
        <ele>14.557</ele>
        <time>2013-04-24T18:34:44Z</time>
      </trkpt>
      <trkpt lat="59.9040441" lon="17.6424964">
        <ele>14.0764</ele>
        <time>2013-04-24T18:34:45Z</time>
      </trkpt>
      <trkpt lat="59.9041435" lon="17.6425419">
        <ele>14.0764</ele>
        <time>2013-04-24T18:34:46Z</time>
      </trkpt>
      <trkpt lat="59.9042442" lon="17.6425885">
        <ele>13.5958</ele>
        <time>2013-04-24T18:34:47Z</time>
      </trkpt>
      <trkpt lat="59.9043457" lon="17.6426359">
        <ele>13.5958</ele>
        <time>2013-04-24T18:34:48Z</time>
      </trkpt>
      <trkpt lat="59.9044476" lon="17.6426844">
        <ele>13.1151</ele>
        <time>2013-04-24T18:34:49Z</time>
      </trkpt>
      <trkpt lat="59.9045507" lon="17.6427344">
        <ele>13.5958</ele>
        <time>2013-04-24T18:34:50Z</time>
      </trkpt>
      <trkpt lat="59.9046544" lon="17.6427844">
        <ele>13.5958</ele>
        <time>2013-04-24T18:34:51Z</time>
      </trkpt>
      <trkpt lat="59.9047587" lon="17.6428325">
        <ele>13.5958</ele>
        <time>2013-04-24T18:34:52Z</time>
      </trkpt>
      <trkpt lat="59.9048635" lon="17.6428797">
        <ele>13.5958</ele>
        <time>2013-04-24T18:34:53Z</time>
      </trkpt>
      <trkpt lat="59.9049685" lon="17.6429273">
        <ele>13.5958</ele>
        <time>2013-04-24T18:34:54Z</time>
      </trkpt>
      <trkpt lat="59.9050719" lon="17.6429755">
        <ele>13.5958</ele>
        <time>2013-04-24T18:34:55Z</time>
      </trkpt>
      <trkpt lat="59.9051738" lon="17.6430231">
        <ele>13.5958</ele>
        <time>2013-04-24T18:34:56Z</time>
      </trkpt>
      <trkpt lat="59.9052746" lon="17.6430674">
        <ele>14.0764</ele>
        <time>2013-04-24T18:34:57Z</time>
      </trkpt>
      <trkpt lat="59.9053738" lon="17.6431107">
        <ele>14.0764</ele>
        <time>2013-04-24T18:34:58Z</time>
      </trkpt>
      <trkpt lat="59.9054715" lon="17.6431562">
        <ele>14.0764</ele>
        <time>2013-04-24T18:34:59Z</time>
      </trkpt>
      <trkpt lat="59.9055681" lon="17.6432013">
        <ele>14.0764</ele>
        <time>2013-04-24T18:35:00Z</time>
      </trkpt>
      <trkpt lat="59.9056646" lon="17.6432459">
        <ele>14.557</ele>
        <time>2013-04-24T18:35:01Z</time>
      </trkpt>
      <trkpt lat="59.905761" lon="17.6432907">
        <ele>15.0377</ele>
        <time>2013-04-24T18:35:02Z</time>
      </trkpt>
      <trkpt lat="59.9058557" lon="17.6433358">
        <ele>15.5184</ele>
        <time>2013-04-24T18:35:03Z</time>
      </trkpt>
      <trkpt lat="59.9059495" lon="17.6433793">
        <ele>15.999</ele>
        <time>2013-04-24T18:35:04Z</time>
      </trkpt>
      <trkpt lat="59.9060418" lon="17.6434183">
        <ele>16.4797</ele>
        <time>2013-04-24T18:35:05Z</time>
      </trkpt>
      <trkpt lat="59.9061329" lon="17.6434557">
        <ele>16.4797</ele>
        <time>2013-04-24T18:35:06Z</time>
      </trkpt>
      <trkpt lat="59.9062187" lon="17.6434883">
        <ele>16.9604</ele>
        <time>2013-04-24T18:35:07Z</time>
      </trkpt>
      <trkpt lat="59.9063052" lon="17.6435157">
        <ele>16.9604</ele>
        <time>2013-04-24T18:35:08Z</time>
      </trkpt>
      <trkpt lat="59.9064001" lon="17.6435489">
        <ele>17.4412</ele>
        <time>2013-04-24T18:35:09Z</time>
      </trkpt>
      <trkpt lat="59.9064938" lon="17.6435783">
        <ele>17.9218</ele>
        <time>2013-04-24T18:35:10Z</time>
      </trkpt>
      <trkpt lat="59.9065857" lon="17.643607">
        <ele>17.9218</ele>
        <time>2013-04-24T18:35:11Z</time>
      </trkpt>
      <trkpt lat="59.9066772" lon="17.6436355">
        <ele>18.4023</ele>
        <time>2013-04-24T18:35:12Z</time>
      </trkpt>
      <trkpt lat="59.906769" lon="17.6436626">
        <ele>18.4023</ele>
        <time>2013-04-24T18:35:13Z</time>
      </trkpt>
      <trkpt lat="59.906861" lon="17.6436882">
        <ele>18.8831</ele>
        <time>2013-04-24T18:35:14Z</time>
      </trkpt>
      <trkpt lat="59.9069529" lon="17.6437127">
        <ele>19.3638</ele>
        <time>2013-04-24T18:35:15Z</time>
      </trkpt>
      <trkpt lat="59.9070457" lon="17.6437357">
        <ele>19.8444</ele>
        <time>2013-04-24T18:35:16Z</time>
      </trkpt>
      <trkpt lat="59.9071368" lon="17.6437577">
        <ele>20.325</ele>
        <time>2013-04-24T18:35:17Z</time>
      </trkpt>
      <trkpt lat="59.9072269" lon="17.6437778">
        <ele>20.8057</ele>
        <time>2013-04-24T18:35:18Z</time>
      </trkpt>
      <trkpt lat="59.907314" lon="17.643797">
        <ele>21.2864</ele>
        <time>2013-04-24T18:35:19Z</time>
      </trkpt>
      <trkpt lat="59.9074015" lon="17.6438136">
        <ele>21.767</ele>
        <time>2013-04-24T18:35:20Z</time>
      </trkpt>
      <trkpt lat="59.9074867" lon="17.6438269">
        <ele>21.767</ele>
        <time>2013-04-24T18:35:21Z</time>
      </trkpt>
      <trkpt lat="59.9075697" lon="17.6438325">
        <ele>22.2476</ele>
        <time>2013-04-24T18:35:22Z</time>
      </trkpt>
      <trkpt lat="59.9076513" lon="17.6438336">
        <ele>22.7283</ele>
        <time>2013-04-24T18:35:23Z</time>
      </trkpt>
      <trkpt lat="59.9077319" lon="17.6438346">
        <ele>22.7283</ele>
        <time>2013-04-24T18:35:24Z</time>
      </trkpt>
      <trkpt lat="59.9078111" lon="17.6438334">
        <ele>23.209</ele>
        <time>2013-04-24T18:35:25Z</time>
      </trkpt>
      <trkpt lat="59.9078893" lon="17.6438328">
        <ele>23.209</ele>
        <time>2013-04-24T18:35:26Z</time>
      </trkpt>
      <trkpt lat="59.9079666" lon="17.6438367">
        <ele>23.6896</ele>
        <time>2013-04-24T18:35:27Z</time>
      </trkpt>
      <trkpt lat="59.9080434" lon="17.643843">
        <ele>23.6896</ele>
        <time>2013-04-24T18:35:28Z</time>
      </trkpt>
      <trkpt lat="59.9081196" lon="17.6438467">
        <ele>24.1703</ele>
        <time>2013-04-24T18:35:29Z</time>
      </trkpt>
      <trkpt lat="59.9081954" lon="17.6438411">
        <ele>24.1703</ele>
        <time>2013-04-24T18:35:30Z</time>
      </trkpt>
      <trkpt lat="59.9082692" lon="17.6438157">
        <ele>24.1703</ele>
        <time>2013-04-24T18:35:31Z</time>
      </trkpt>
      <trkpt lat="59.9083417" lon="17.64377">
        <ele>24.651</ele>
        <time>2013-04-24T18:35:32Z</time>
      </trkpt>
      <trkpt lat="59.9084157" lon="17.643724">
        <ele>24.651</ele>
        <time>2013-04-24T18:35:33Z</time>
      </trkpt>
      <trkpt lat="59.9084945" lon="17.6436996">
        <ele>24.651</ele>
        <time>2013-04-24T18:35:34Z</time>
      </trkpt>
      <trkpt lat="59.9085773" lon="17.6436958">
        <ele>24.1703</ele>
        <time>2013-04-24T18:35:35Z</time>
      </trkpt>
      <trkpt lat="59.9086616" lon="17.6437006">
        <ele>24.1703</ele>
        <time>2013-04-24T18:35:36Z</time>
      </trkpt>
      <trkpt lat="59.9087477" lon="17.6437015">
        <ele>24.1703</ele>
        <time>2013-04-24T18:35:37Z</time>
      </trkpt>
      <trkpt lat="59.9088347" lon="17.6436966">
        <ele>24.1703</ele>
        <time>2013-04-24T18:35:38Z</time>
      </trkpt>
      <trkpt lat="59.9089222" lon="17.6436898">
        <ele>23.6896</ele>
        <time>2013-04-24T18:35:39Z</time>
      </trkpt>
      <trkpt lat="59.90901" lon="17.6436815">
        <ele>23.6896</ele>
        <time>2013-04-24T18:35:40Z</time>
      </trkpt>
      <trkpt lat="59.9090974" lon="17.643672">
        <ele>23.6896</ele>
        <time>2013-04-24T18:35:41Z</time>
      </trkpt>
      <trkpt lat="59.909185" lon="17.6436607">
        <ele>23.6896</ele>
        <time>2013-04-24T18:35:42Z</time>
      </trkpt>
      <trkpt lat="59.9092729" lon="17.6436471">
        <ele>23.6896</ele>
        <time>2013-04-24T18:35:43Z</time>
      </trkpt>
      <trkpt lat="59.9093615" lon="17.6436316">
        <ele>23.6896</ele>
        <time>2013-04-24T18:35:44Z</time>
      </trkpt>
      <trkpt lat="59.9094496" lon="17.6436145">
        <ele>23.6896</ele>
        <time>2013-04-24T18:35:45Z</time>
      </trkpt>
      <trkpt lat="59.9095376" lon="17.6435961">
        <ele>23.6896</ele>
        <time>2013-04-24T18:35:46Z</time>
      </trkpt>
      <trkpt lat="59.9096257" lon="17.643577">
        <ele>23.6896</ele>
        <time>2013-04-24T18:35:47Z</time>
      </trkpt>
      <trkpt lat="59.909713" lon="17.6435572">
        <ele>23.6896</ele>
        <time>2013-04-24T18:35:48Z</time>
      </trkpt>
      <trkpt lat="59.9097993" lon="17.6435384">
        <ele>24.1703</ele>
        <time>2013-04-24T18:35:49Z</time>
      </trkpt>
      <trkpt lat="59.9098853" lon="17.6435347">
        <ele>24.1703</ele>
        <time>2013-04-24T18:35:50Z</time>
      </trkpt>
      <trkpt lat="59.9099707" lon="17.6435564">
        <ele>24.651</ele>
        <time>2013-04-24T18:35:51Z</time>
      </trkpt>
      <trkpt lat="59.9100541" lon="17.6435934">
        <ele>25.1317</ele>
        <time>2013-04-24T18:35:52Z</time>
      </trkpt>
      <trkpt lat="59.9101345" lon="17.6436204">
        <ele>26.0929</ele>
        <time>2013-04-24T18:35:53Z</time>
      </trkpt>
      <trkpt lat="59.9102127" lon="17.6436274">
        <ele>26.5736</ele>
        <time>2013-04-24T18:35:54Z</time>
      </trkpt>
      <trkpt lat="59.9102907" lon="17.6436209">
        <ele>26.5736</ele>
        <time>2013-04-24T18:35:55Z</time>
      </trkpt>
      <trkpt lat="59.9103686" lon="17.6436079">
        <ele>27.0543</ele>
        <time>2013-04-24T18:35:56Z</time>
      </trkpt>
      <trkpt lat="59.9104464" lon="17.643591">
        <ele>27.5349</ele>
        <time>2013-04-24T18:35:57Z</time>
      </trkpt>
      <trkpt lat="59.910523" lon="17.6435627">
        <ele>27.5349</ele>
        <time>2013-04-24T18:35:58Z</time>
      </trkpt>
      <trkpt lat="59.9106" lon="17.6435178">
        <ele>27.0543</ele>
        <time>2013-04-24T18:35:59Z</time>
      </trkpt>
      <trkpt lat="59.9106796" lon="17.6434827">
        <ele>27.5349</ele>
        <time>2013-04-24T18:36:00Z</time>
      </trkpt>
      <trkpt lat="59.9107623" lon="17.643466">
        <ele>28.0155</ele>
        <time>2013-04-24T18:36:01Z</time>
      </trkpt>
      <trkpt lat="59.910844" lon="17.6434556">
        <ele>28.4962</ele>
        <time>2013-04-24T18:36:02Z</time>
      </trkpt>
      <trkpt lat="59.9109246" lon="17.6434415">
        <ele>28.9769</ele>
        <time>2013-04-24T18:36:03Z</time>
      </trkpt>
      <trkpt lat="59.9110048" lon="17.6434261">
        <ele>28.9769</ele>
        <time>2013-04-24T18:36:04Z</time>
      </trkpt>
      <trkpt lat="59.9110845" lon="17.6434093">
        <ele>28.9769</ele>
        <time>2013-04-24T18:36:05Z</time>
      </trkpt>
      <trkpt lat="59.9111633" lon="17.643395">
        <ele>28.9769</ele>
        <time>2013-04-24T18:36:06Z</time>
      </trkpt>
      <trkpt lat="59.9112413" lon="17.6433812">
        <ele>28.9769</ele>
        <time>2013-04-24T18:36:07Z</time>
      </trkpt>
      <trkpt lat="59.9113187" lon="17.6433628">
        <ele>28.9769</ele>
        <time>2013-04-24T18:36:08Z</time>
      </trkpt>
      <trkpt lat="59.9113959" lon="17.6433406">
        <ele>28.4962</ele>
        <time>2013-04-24T18:36:09Z</time>
      </trkpt>
      <trkpt lat="59.9114725" lon="17.6433195">
        <ele>28.4962</ele>
        <time>2013-04-24T18:36:10Z</time>
      </trkpt>
      <trkpt lat="59.9115496" lon="17.6433018">
        <ele>28.4962</ele>
        <time>2013-04-24T18:36:11Z</time>
      </trkpt>
      <trkpt lat="59.9116274" lon="17.6432857">
        <ele>28.4962</ele>
        <time>2013-04-24T18:36:12Z</time>
      </trkpt>
      <trkpt lat="59.9117057" lon="17.6432712">
        <ele>28.4962</ele>
        <time>2013-04-24T18:36:13Z</time>
      </trkpt>
      <trkpt lat="59.9117838" lon="17.6432567">
        <ele>28.0155</ele>
        <time>2013-04-24T18:36:14Z</time>
      </trkpt>
      <trkpt lat="59.9118626" lon="17.6432495">
        <ele>28.9769</ele>
        <time>2013-04-24T18:36:15Z</time>
      </trkpt>
      <trkpt lat="59.9119387" lon="17.6432325">
        <ele>29.4575</ele>
        <time>2013-04-24T18:36:16Z</time>
      </trkpt>
      <trkpt lat="59.9120132" lon="17.6432132">
        <ele>29.4575</ele>
        <time>2013-04-24T18:36:17Z</time>
      </trkpt>
      <trkpt lat="59.9120877" lon="17.6431916">
        <ele>29.4575</ele>
        <time>2013-04-24T18:36:18Z</time>
      </trkpt>
      <trkpt lat="59.9121625" lon="17.6431687">
        <ele>28.9769</ele>
        <time>2013-04-24T18:36:19Z</time>
      </trkpt>
      <trkpt lat="59.9122405" lon="17.6431495">
        <ele>29.4575</ele>
        <time>2013-04-24T18:36:20Z</time>
      </trkpt>
      <trkpt lat="59.9123188" lon="17.6431246">
        <ele>28.9769</ele>
        <time>2013-04-24T18:36:21Z</time>
      </trkpt>
      <trkpt lat="59.9123983" lon="17.6431029">
        <ele>28.9769</ele>
        <time>2013-04-24T18:36:22Z</time>
      </trkpt>
      <trkpt lat="59.9124789" lon="17.6430863">
        <ele>28.4962</ele>
        <time>2013-04-24T18:36:23Z</time>
      </trkpt>
      <trkpt lat="59.9125598" lon="17.6430771">
        <ele>28.4962</ele>
        <time>2013-04-24T18:36:24Z</time>
      </trkpt>
      <trkpt lat="59.9126401" lon="17.6430842">
        <ele>28.4962</ele>
        <time>2013-04-24T18:36:25Z</time>
      </trkpt>
      <trkpt lat="59.9127172" lon="17.6431081">
        <ele>28.4962</ele>
        <time>2013-04-24T18:36:26Z</time>
      </trkpt>
      <trkpt lat="59.9127908" lon="17.643134">
        <ele>28.4962</ele>
        <time>2013-04-24T18:36:27Z</time>
      </trkpt>
      <trkpt lat="59.9128644" lon="17.6431459">
        <ele>28.4962</ele>
        <time>2013-04-24T18:36:28Z</time>
      </trkpt>
      <trkpt lat="59.912938" lon="17.6431451">
        <ele>28.4962</ele>
        <time>2013-04-24T18:36:29Z</time>
      </trkpt>
      <trkpt lat="59.9130105" lon="17.6431363">
        <ele>28.4962</ele>
        <time>2013-04-24T18:36:30Z</time>
      </trkpt>
      <trkpt lat="59.9130841" lon="17.6431201">
        <ele>28.4962</ele>
        <time>2013-04-24T18:36:31Z</time>
      </trkpt>
      <trkpt lat="59.9131581" lon="17.643106">
        <ele>28.9769</ele>
        <time>2013-04-24T18:36:32Z</time>
      </trkpt>
      <trkpt lat="59.9132297" lon="17.6430893">
        <ele>28.4962</ele>
        <time>2013-04-24T18:36:33Z</time>
      </trkpt>
      <trkpt lat="59.9133032" lon="17.6430744">
        <ele>28.4962</ele>
        <time>2013-04-24T18:36:34Z</time>
      </trkpt>
      <trkpt lat="59.9133778" lon="17.6430563">
        <ele>28.0155</ele>
        <time>2013-04-24T18:36:35Z</time>
      </trkpt>
      <trkpt lat="59.9134524" lon="17.643034">
        <ele>28.0155</ele>
        <time>2013-04-24T18:36:36Z</time>
      </trkpt>
      <trkpt lat="59.9135262" lon="17.6430134">
        <ele>27.5349</ele>
        <time>2013-04-24T18:36:37Z</time>
      </trkpt>
      <trkpt lat="59.9136011" lon="17.6429976">
        <ele>27.5349</ele>
        <time>2013-04-24T18:36:38Z</time>
      </trkpt>
      <trkpt lat="59.9136771" lon="17.6429858">
        <ele>27.5349</ele>
        <time>2013-04-24T18:36:39Z</time>
      </trkpt>
      <trkpt lat="59.9137534" lon="17.6429744">
        <ele>27.5349</ele>
        <time>2013-04-24T18:36:40Z</time>
      </trkpt>
      <trkpt lat="59.9138304" lon="17.6429604">
        <ele>27.5349</ele>
        <time>2013-04-24T18:36:41Z</time>
      </trkpt>
      <trkpt lat="59.9139077" lon="17.6429462">
        <ele>27.0543</ele>
        <time>2013-04-24T18:36:42Z</time>
      </trkpt>
      <trkpt lat="59.9139857" lon="17.6429319">
        <ele>27.0543</ele>
        <time>2013-04-24T18:36:43Z</time>
      </trkpt>
      <trkpt lat="59.9140648" lon="17.6429152">
        <ele>26.5736</ele>
        <time>2013-04-24T18:36:44Z</time>
      </trkpt>
      <trkpt lat="59.9141444" lon="17.6429003">
        <ele>26.5736</ele>
        <time>2013-04-24T18:36:45Z</time>
      </trkpt>
      <trkpt lat="59.9142247" lon="17.6428836">
        <ele>26.0929</ele>
        <time>2013-04-24T18:36:46Z</time>
      </trkpt>
      <trkpt lat="59.9143067" lon="17.6428681">
        <ele>26.0929</ele>
        <time>2013-04-24T18:36:47Z</time>
      </trkpt>
      <trkpt lat="59.9143897" lon="17.6428517">
        <ele>25.6123</ele>
        <time>2013-04-24T18:36:48Z</time>
      </trkpt>
      <trkpt lat="59.9144722" lon="17.6428374">
        <ele>25.6123</ele>
        <time>2013-04-24T18:36:49Z</time>
      </trkpt>
      <trkpt lat="59.9145552" lon="17.6428216">
        <ele>25.1317</ele>
        <time>2013-04-24T18:36:50Z</time>
      </trkpt>
      <trkpt lat="59.9146391" lon="17.6428055">
        <ele>24.651</ele>
        <time>2013-04-24T18:36:51Z</time>
      </trkpt>
      <trkpt lat="59.9147237" lon="17.6427899">
        <ele>24.1703</ele>
        <time>2013-04-24T18:36:52Z</time>
      </trkpt>
      <trkpt lat="59.914809" lon="17.6427744">
        <ele>24.1703</ele>
        <time>2013-04-24T18:36:53Z</time>
      </trkpt>
      <trkpt lat="59.9148951" lon="17.6427587">
        <ele>23.6896</ele>
        <time>2013-04-24T18:36:54Z</time>
      </trkpt>
      <trkpt lat="59.9149809" lon="17.6427438">
        <ele>23.6896</ele>
        <time>2013-04-24T18:36:55Z</time>
      </trkpt>
      <trkpt lat="59.9150661" lon="17.6427314">
        <ele>23.6896</ele>
        <time>2013-04-24T18:36:56Z</time>
      </trkpt>
      <trkpt lat="59.9151495" lon="17.642715">
        <ele>23.6896</ele>
        <time>2013-04-24T18:36:57Z</time>
      </trkpt>
      <trkpt lat="59.9152291" lon="17.6426792">
        <ele>23.6896</ele>
        <time>2013-04-24T18:36:58Z</time>
      </trkpt>
      <trkpt lat="59.9153064" lon="17.6426272">
        <ele>23.6896</ele>
        <time>2013-04-24T18:36:59Z</time>
      </trkpt>
      <trkpt lat="59.9153912" lon="17.6425692">
        <ele>23.209</ele>
        <time>2013-04-24T18:37:00Z</time>
      </trkpt>
      <trkpt lat="59.9154833" lon="17.6425258">
        <ele>23.209</ele>
        <time>2013-04-24T18:37:01Z</time>
      </trkpt>
      <trkpt lat="59.9155782" lon="17.6424978">
        <ele>23.209</ele>
        <time>2013-04-24T18:37:02Z</time>
      </trkpt>
      <trkpt lat="59.9156739" lon="17.6424781">
        <ele>22.7283</ele>
        <time>2013-04-24T18:37:03Z</time>
      </trkpt>
      <trkpt lat="59.9157693" lon="17.6424646">
        <ele>22.7283</ele>
        <time>2013-04-24T18:37:04Z</time>
      </trkpt>
      <trkpt lat="59.9158642" lon="17.6424568">
        <ele>22.7283</ele>
        <time>2013-04-24T18:37:05Z</time>
      </trkpt>
      <trkpt lat="59.9159585" lon="17.642455">
        <ele>23.209</ele>
        <time>2013-04-24T18:37:06Z</time>
      </trkpt>
      <trkpt lat="59.9160523" lon="17.6424547">
        <ele>23.209</ele>
        <time>2013-04-24T18:37:07Z</time>
      </trkpt>
      <trkpt lat="59.9161459" lon="17.6424534">
        <ele>23.209</ele>
        <time>2013-04-24T18:37:08Z</time>
      </trkpt>
      <trkpt lat="59.916239" lon="17.6424503">
        <ele>23.6896</ele>
        <time>2013-04-24T18:37:09Z</time>
      </trkpt>
      <trkpt lat="59.9163312" lon="17.6424435">
        <ele>23.6896</ele>
        <time>2013-04-24T18:37:10Z</time>
      </trkpt>
      <trkpt lat="59.9164226" lon="17.6424329">
        <ele>23.6896</ele>
        <time>2013-04-24T18:37:11Z</time>
      </trkpt>
      <trkpt lat="59.9165136" lon="17.6424196">
        <ele>23.6896</ele>
        <time>2013-04-24T18:37:12Z</time>
      </trkpt>
      <trkpt lat="59.916605" lon="17.6424067">
        <ele>23.6896</ele>
        <time>2013-04-24T18:37:13Z</time>
      </trkpt>
      <trkpt lat="59.9166975" lon="17.6423941">
        <ele>23.6896</ele>
        <time>2013-04-24T18:37:14Z</time>
      </trkpt>
      <trkpt lat="59.9167908" lon="17.6423823">
        <ele>23.6896</ele>
        <time>2013-04-24T18:37:15Z</time>
      </trkpt>
      <trkpt lat="59.9168848" lon="17.6423699">
        <ele>23.209</ele>
        <time>2013-04-24T18:37:16Z</time>
      </trkpt>
      <trkpt lat="59.9169795" lon="17.6423541">
        <ele>23.209</ele>
        <time>2013-04-24T18:37:17Z</time>
      </trkpt>
      <trkpt lat="59.9170748" lon="17.6423304">
        <ele>23.209</ele>
        <time>2013-04-24T18:37:18Z</time>
      </trkpt>
      <trkpt lat="59.9171701" lon="17.6423">
        <ele>22.7283</ele>
        <time>2013-04-24T18:37:19Z</time>
      </trkpt>
      <trkpt lat="59.9172671" lon="17.6422787">
        <ele>22.7283</ele>
        <time>2013-04-24T18:37:20Z</time>
      </trkpt>
      <trkpt lat="59.9173652" lon="17.6422725">
        <ele>22.7283</ele>
        <time>2013-04-24T18:37:21Z</time>
      </trkpt>
      <trkpt lat="59.9174629" lon="17.6422741">
        <ele>22.7283</ele>
        <time>2013-04-24T18:37:22Z</time>
      </trkpt>
      <trkpt lat="59.9175601" lon="17.642273">
        <ele>22.7283</ele>
        <time>2013-04-24T18:37:23Z</time>
      </trkpt>
      <trkpt lat="59.9176566" lon="17.6422708">
        <ele>22.7283</ele>
        <time>2013-04-24T18:37:24Z</time>
      </trkpt>
      <trkpt lat="59.9177532" lon="17.6422699">
        <ele>22.7283</ele>
        <time>2013-04-24T18:37:25Z</time>
      </trkpt>
      <trkpt lat="59.9178493" lon="17.6422672">
        <ele>23.209</ele>
        <time>2013-04-24T18:37:26Z</time>
      </trkpt>
      <trkpt lat="59.9179444" lon="17.6422635">
        <ele>23.209</ele>
        <time>2013-04-24T18:37:27Z</time>
      </trkpt>
      <trkpt lat="59.9180384" lon="17.6422579">
        <ele>23.6896</ele>
        <time>2013-04-24T18:37:28Z</time>
      </trkpt>
      <trkpt lat="59.9181313" lon="17.6422496">
        <ele>24.1703</ele>
        <time>2013-04-24T18:37:29Z</time>
      </trkpt>
      <trkpt lat="59.9182222" lon="17.6422405">
        <ele>24.651</ele>
        <time>2013-04-24T18:37:30Z</time>
      </trkpt>
      <trkpt lat="59.9183111" lon="17.6422331">
        <ele>24.651</ele>
        <time>2013-04-24T18:37:31Z</time>
      </trkpt>
      <trkpt lat="59.9183981" lon="17.6422249">
        <ele>25.1317</ele>
        <time>2013-04-24T18:37:32Z</time>
      </trkpt>
      <trkpt lat="59.9184832" lon="17.6422153">
        <ele>25.6123</ele>
        <time>2013-04-24T18:37:33Z</time>
      </trkpt>
      <trkpt lat="59.9185676" lon="17.6422067">
        <ele>26.0929</ele>
        <time>2013-04-24T18:37:34Z</time>
      </trkpt>
      <trkpt lat="59.9186525" lon="17.6421974">
        <ele>26.0929</ele>
        <time>2013-04-24T18:37:35Z</time>
      </trkpt>
      <trkpt lat="59.918737" lon="17.642187">
        <ele>26.0929</ele>
        <time>2013-04-24T18:37:36Z</time>
      </trkpt>
      <trkpt lat="59.9188216" lon="17.6421767">
        <ele>26.0929</ele>
        <time>2013-04-24T18:37:37Z</time>
      </trkpt>
      <trkpt lat="59.9189065" lon="17.6421653">
        <ele>26.5736</ele>
        <time>2013-04-24T18:37:38Z</time>
      </trkpt>
      <trkpt lat="59.9189914" lon="17.6421542">
        <ele>26.5736</ele>
        <time>2013-04-24T18:37:39Z</time>
      </trkpt>
      <trkpt lat="59.9190763" lon="17.6421428">
        <ele>26.5736</ele>
        <time>2013-04-24T18:37:40Z</time>
      </trkpt>
      <trkpt lat="59.9191604" lon="17.6421301">
        <ele>26.5736</ele>
        <time>2013-04-24T18:37:41Z</time>
      </trkpt>
      <trkpt lat="59.9192447" lon="17.6421192">
        <ele>26.5736</ele>
        <time>2013-04-24T18:37:42Z</time>
      </trkpt>
      <trkpt lat="59.9193303" lon="17.6421104">
        <ele>26.5736</ele>
        <time>2013-04-24T18:37:43Z</time>
      </trkpt>
      <trkpt lat="59.9194165" lon="17.6421016">
        <ele>26.0929</ele>
        <time>2013-04-24T18:37:44Z</time>
      </trkpt>
      <trkpt lat="59.9195035" lon="17.6420938">
        <ele>26.0929</ele>
        <time>2013-04-24T18:37:45Z</time>
      </trkpt>
      <trkpt lat="59.9195908" lon="17.642086">
        <ele>26.0929</ele>
        <time>2013-04-24T18:37:46Z</time>
      </trkpt>
      <trkpt lat="59.9196781" lon="17.6420768">
        <ele>26.0929</ele>
        <time>2013-04-24T18:37:47Z</time>
      </trkpt>
      <trkpt lat="59.9197651" lon="17.642063">
        <ele>25.6123</ele>
        <time>2013-04-24T18:37:48Z</time>
      </trkpt>
      <trkpt lat="59.9198516" lon="17.6420425">
        <ele>25.6123</ele>
        <time>2013-04-24T18:37:49Z</time>
      </trkpt>
      <trkpt lat="59.919938" lon="17.6420187">
        <ele>25.6123</ele>
        <time>2013-04-24T18:37:50Z</time>
      </trkpt>
      <trkpt lat="59.9200248" lon="17.6419983">
        <ele>25.6123</ele>
        <time>2013-04-24T18:37:51Z</time>
      </trkpt>
      <trkpt lat="59.9201123" lon="17.6419846">
        <ele>25.6123</ele>
        <time>2013-04-24T18:37:52Z</time>
      </trkpt>
      <trkpt lat="59.9202" lon="17.6419791">
        <ele>25.6123</ele>
        <time>2013-04-24T18:37:53Z</time>
      </trkpt>
      <trkpt lat="59.9202866" lon="17.6419762">
        <ele>26.0929</ele>
        <time>2013-04-24T18:37:54Z</time>
      </trkpt>
      <trkpt lat="59.9203736" lon="17.6419747">
        <ele>26.0929</ele>
        <time>2013-04-24T18:37:55Z</time>
      </trkpt>
      <trkpt lat="59.920461" lon="17.6419716">
        <ele>26.0929</ele>
        <time>2013-04-24T18:37:56Z</time>
      </trkpt>
      <trkpt lat="59.9205486" lon="17.6419679">
        <ele>26.0929</ele>
        <time>2013-04-24T18:37:57Z</time>
      </trkpt>
      <trkpt lat="59.9206355" lon="17.6419647">
        <ele>25.6123</ele>
        <time>2013-04-24T18:37:58Z</time>
      </trkpt>
      <trkpt lat="59.920719" lon="17.6419627">
        <ele>26.0929</ele>
        <time>2013-04-24T18:37:59Z</time>
      </trkpt>
      <trkpt lat="59.9207992" lon="17.6419625">
        <ele>26.0929</ele>
        <time>2013-04-24T18:38:00Z</time>
      </trkpt>
      <trkpt lat="59.9208784" lon="17.6419621">
        <ele>26.0929</ele>
        <time>2013-04-24T18:38:01Z</time>
      </trkpt>
      <trkpt lat="59.9209577" lon="17.6419579">
        <ele>26.0929</ele>
        <time>2013-04-24T18:38:02Z</time>
      </trkpt>
      <trkpt lat="59.9210369" lon="17.6419538">
        <ele>26.0929</ele>
        <time>2013-04-24T18:38:03Z</time>
      </trkpt>
      <trkpt lat="59.9211158" lon="17.6419492">
        <ele>26.0929</ele>
        <time>2013-04-24T18:38:04Z</time>
      </trkpt>
      <trkpt lat="59.9211956" lon="17.6419425">
        <ele>26.0929</ele>
        <time>2013-04-24T18:38:05Z</time>
      </trkpt>
      <trkpt lat="59.9212753" lon="17.6419357">
        <ele>26.5736</ele>
        <time>2013-04-24T18:38:06Z</time>
      </trkpt>
      <trkpt lat="59.9213545" lon="17.6419269">
        <ele>27.0543</ele>
        <time>2013-04-24T18:38:07Z</time>
      </trkpt>
      <trkpt lat="59.9214323" lon="17.6419173">
        <ele>27.0543</ele>
        <time>2013-04-24T18:38:08Z</time>
      </trkpt>
      <trkpt lat="59.9215098" lon="17.6419104">
        <ele>27.5349</ele>
        <time>2013-04-24T18:38:09Z</time>
      </trkpt>
      <trkpt lat="59.9215866" lon="17.6419045">
        <ele>28.0155</ele>
        <time>2013-04-24T18:38:10Z</time>
      </trkpt>
      <trkpt lat="59.9216638" lon="17.6418975">
        <ele>28.0155</ele>
        <time>2013-04-24T18:38:11Z</time>
      </trkpt>
      <trkpt lat="59.9217425" lon="17.6418887">
        <ele>28.0155</ele>
        <time>2013-04-24T18:38:12Z</time>
      </trkpt>
      <trkpt lat="59.9218234" lon="17.6418782">
        <ele>28.0155</ele>
        <time>2013-04-24T18:38:13Z</time>
      </trkpt>
      <trkpt lat="59.9219062" lon="17.6418678">
        <ele>28.4962</ele>
        <time>2013-04-24T18:38:14Z</time>
      </trkpt>
      <trkpt lat="59.9219901" lon="17.6418589">
        <ele>28.4962</ele>
        <time>2013-04-24T18:38:15Z</time>
      </trkpt>
      <trkpt lat="59.9220742" lon="17.6418483">
        <ele>28.4962</ele>
        <time>2013-04-24T18:38:16Z</time>
      </trkpt>
      <trkpt lat="59.9221576" lon="17.6418363">
        <ele>28.0155</ele>
        <time>2013-04-24T18:38:17Z</time>
      </trkpt>
      <trkpt lat="59.9222413" lon="17.6418273">
        <ele>28.0155</ele>
        <time>2013-04-24T18:38:18Z</time>
      </trkpt>
      <trkpt lat="59.9223241" lon="17.6418192">
        <ele>27.5349</ele>
        <time>2013-04-24T18:38:19Z</time>
      </trkpt>
      <trkpt lat="59.9224082" lon="17.6418102">
        <ele>27.0543</ele>
        <time>2013-04-24T18:38:20Z</time>
      </trkpt>
      <trkpt lat="59.9224932" lon="17.6417985">
        <ele>27.0543</ele>
        <time>2013-04-24T18:38:21Z</time>
      </trkpt>
      <trkpt lat="59.9225787" lon="17.6417866">
        <ele>27.0543</ele>
        <time>2013-04-24T18:38:22Z</time>
      </trkpt>
      <trkpt lat="59.9226646" lon="17.6417733">
        <ele>26.5736</ele>
        <time>2013-04-24T18:38:23Z</time>
      </trkpt>
      <trkpt lat="59.9227505" lon="17.64176">
        <ele>26.5736</ele>
        <time>2013-04-24T18:38:24Z</time>
      </trkpt>
      <trkpt lat="59.9228367" lon="17.6417487">
        <ele>26.0929</ele>
        <time>2013-04-24T18:38:25Z</time>
      </trkpt>
      <trkpt lat="59.9229242" lon="17.6417393">
        <ele>26.0929</ele>
        <time>2013-04-24T18:38:26Z</time>
      </trkpt>
      <trkpt lat="59.9230125" lon="17.6417303">
        <ele>25.6123</ele>
        <time>2013-04-24T18:38:27Z</time>
      </trkpt>
      <trkpt lat="59.9231009" lon="17.6417203">
        <ele>25.6123</ele>
        <time>2013-04-24T18:38:28Z</time>
      </trkpt>
      <trkpt lat="59.9231898" lon="17.6417101">
        <ele>25.1317</ele>
        <time>2013-04-24T18:38:29Z</time>
      </trkpt>
      <trkpt lat="59.9232785" lon="17.6416991">
        <ele>25.1317</ele>
        <time>2013-04-24T18:38:30Z</time>
      </trkpt>
      <trkpt lat="59.9233674" lon="17.6416869">
        <ele>24.651</ele>
        <time>2013-04-24T18:38:31Z</time>
      </trkpt>
      <trkpt lat="59.9234567" lon="17.6416732">
        <ele>24.651</ele>
        <time>2013-04-24T18:38:32Z</time>
      </trkpt>
      <trkpt lat="59.9235474" lon="17.6416603">
        <ele>24.1703</ele>
        <time>2013-04-24T18:38:33Z</time>
      </trkpt>
      <trkpt lat="59.9236395" lon="17.6416474">
        <ele>23.6896</ele>
        <time>2013-04-24T18:38:34Z</time>
      </trkpt>
      <trkpt lat="59.9237337" lon="17.6416331">
        <ele>23.6896</ele>
        <time>2013-04-24T18:38:35Z</time>
      </trkpt>
      <trkpt lat="59.9238297" lon="17.6416207">
        <ele>23.209</ele>
        <time>2013-04-24T18:38:36Z</time>
      </trkpt>
      <trkpt lat="59.9239265" lon="17.6416084">
        <ele>23.209</ele>
        <time>2013-04-24T18:38:37Z</time>
      </trkpt>
      <trkpt lat="59.924024" lon="17.641595">
        <ele>23.209</ele>
        <time>2013-04-24T18:38:38Z</time>
      </trkpt>
      <trkpt lat="59.9241219" lon="17.6415841">
        <ele>22.7283</ele>
        <time>2013-04-24T18:38:39Z</time>
      </trkpt>
      <trkpt lat="59.9242197" lon="17.6415758">
        <ele>22.7283</ele>
        <time>2013-04-24T18:38:40Z</time>
      </trkpt>
      <trkpt lat="59.9243176" lon="17.6415685">
        <ele>22.7283</ele>
        <time>2013-04-24T18:38:41Z</time>
      </trkpt>
      <trkpt lat="59.9244151" lon="17.6415604">
        <ele>22.7283</ele>
        <time>2013-04-24T18:38:42Z</time>
      </trkpt>
      <trkpt lat="59.924512" lon="17.6415495">
        <ele>22.2476</ele>
        <time>2013-04-24T18:38:43Z</time>
      </trkpt>
      <trkpt lat="59.9246082" lon="17.641535">
        <ele>22.2476</ele>
        <time>2013-04-24T18:38:44Z</time>
      </trkpt>
      <trkpt lat="59.9247038" lon="17.6415156">
        <ele>22.2476</ele>
        <time>2013-04-24T18:38:45Z</time>
      </trkpt>
      <trkpt lat="59.9247987" lon="17.6414925">
        <ele>22.2476</ele>
        <time>2013-04-24T18:38:46Z</time>
      </trkpt>
      <trkpt lat="59.9248931" lon="17.6414696">
        <ele>22.2476</ele>
        <time>2013-04-24T18:38:47Z</time>
      </trkpt>
      <trkpt lat="59.9249877" lon="17.6414525">
        <ele>22.2476</ele>
        <time>2013-04-24T18:38:48Z</time>
      </trkpt>
      <trkpt lat="59.9250825" lon="17.6414446">
        <ele>21.767</ele>
        <time>2013-04-24T18:38:49Z</time>
      </trkpt>
      <trkpt lat="59.9251774" lon="17.6414421">
        <ele>21.767</ele>
        <time>2013-04-24T18:38:50Z</time>
      </trkpt>
      <trkpt lat="59.9252723" lon="17.6414416">
        <ele>21.767</ele>
        <time>2013-04-24T18:38:51Z</time>
      </trkpt>
      <trkpt lat="59.9253671" lon="17.6414405">
        <ele>21.767</ele>
        <time>2013-04-24T18:38:52Z</time>
      </trkpt>
      <trkpt lat="59.9254619" lon="17.6414349">
        <ele>21.767</ele>
        <time>2013-04-24T18:38:53Z</time>
      </trkpt>
      <trkpt lat="59.9255572" lon="17.641426">
        <ele>21.2864</ele>
        <time>2013-04-24T18:38:54Z</time>
      </trkpt>
      <trkpt lat="59.9256536" lon="17.6414155">
        <ele>21.2864</ele>
        <time>2013-04-24T18:38:55Z</time>
      </trkpt>
      <trkpt lat="59.9257495" lon="17.6414037">
        <ele>21.2864</ele>
        <time>2013-04-24T18:38:56Z</time>
      </trkpt>
      <trkpt lat="59.9258448" lon="17.6413903">
        <ele>21.2864</ele>
        <time>2013-04-24T18:38:57Z</time>
      </trkpt>
      <trkpt lat="59.9259398" lon="17.6413769">
        <ele>20.8057</ele>
        <time>2013-04-24T18:38:58Z</time>
      </trkpt>
      <trkpt lat="59.9260346" lon="17.6413634">
        <ele>20.8057</ele>
        <time>2013-04-24T18:38:59Z</time>
      </trkpt>
      <trkpt lat="59.9261294" lon="17.6413502">
        <ele>20.8057</ele>
        <time>2013-04-24T18:39:00Z</time>
      </trkpt>
      <trkpt lat="59.9262242" lon="17.641338">
        <ele>20.8057</ele>
        <time>2013-04-24T18:39:01Z</time>
      </trkpt>
      <trkpt lat="59.9263186" lon="17.6413269">
        <ele>20.8057</ele>
        <time>2013-04-24T18:39:02Z</time>
      </trkpt>
      <trkpt lat="59.9264134" lon="17.6413142">
        <ele>20.325</ele>
        <time>2013-04-24T18:39:03Z</time>
      </trkpt>
      <trkpt lat="59.9265077" lon="17.6413013">
        <ele>20.325</ele>
        <time>2013-04-24T18:39:04Z</time>
      </trkpt>
      <trkpt lat="59.926601" lon="17.6412889">
        <ele>20.8057</ele>
        <time>2013-04-24T18:39:05Z</time>
      </trkpt>
      <trkpt lat="59.9266932" lon="17.641277">
        <ele>20.8057</ele>
        <time>2013-04-24T18:39:06Z</time>
      </trkpt>
      <trkpt lat="59.9267849" lon="17.6412672">
        <ele>20.8057</ele>
        <time>2013-04-24T18:39:07Z</time>
      </trkpt>
      <trkpt lat="59.9268765" lon="17.6412571">
        <ele>20.8057</ele>
        <time>2013-04-24T18:39:08Z</time>
      </trkpt>
      <trkpt lat="59.9269679" lon="17.6412462">
        <ele>20.8057</ele>
        <time>2013-04-24T18:39:09Z</time>
      </trkpt>
      <trkpt lat="59.9270594" lon="17.641236">
        <ele>20.8057</ele>
        <time>2013-04-24T18:39:10Z</time>
      </trkpt>
      <trkpt lat="59.9271511" lon="17.6412261">
        <ele>20.8057</ele>
        <time>2013-04-24T18:39:11Z</time>
      </trkpt>
      <trkpt lat="59.9272428" lon="17.6412178">
        <ele>20.8057</ele>
        <time>2013-04-24T18:39:12Z</time>
      </trkpt>
      <trkpt lat="59.9273339" lon="17.6412121">
        <ele>20.8057</ele>
        <time>2013-04-24T18:39:13Z</time>
      </trkpt>
      <trkpt lat="59.9274246" lon="17.6412065">
        <ele>20.8057</ele>
        <time>2013-04-24T18:39:14Z</time>
      </trkpt>
      <trkpt lat="59.9275152" lon="17.641199">
        <ele>20.8057</ele>
        <time>2013-04-24T18:39:15Z</time>
      </trkpt>
      <trkpt lat="59.9276059" lon="17.641191">
        <ele>20.8057</ele>
        <time>2013-04-24T18:39:16Z</time>
      </trkpt>
      <trkpt lat="59.927697" lon="17.6411832">
        <ele>20.8057</ele>
        <time>2013-04-24T18:39:17Z</time>
      </trkpt>
      <trkpt lat="59.9277882" lon="17.6411746">
        <ele>20.8057</ele>
        <time>2013-04-24T18:39:18Z</time>
      </trkpt>
      <trkpt lat="59.9278792" lon="17.6411655">
        <ele>21.2864</ele>
        <time>2013-04-24T18:39:19Z</time>
      </trkpt>
      <trkpt lat="59.9279701" lon="17.641157">
        <ele>21.2864</ele>
        <time>2013-04-24T18:39:20Z</time>
      </trkpt>
      <trkpt lat="59.9280606" lon="17.6411484">
        <ele>21.2864</ele>
        <time>2013-04-24T18:39:21Z</time>
      </trkpt>
      <trkpt lat="59.9281505" lon="17.6411381">
        <ele>21.2864</ele>
        <time>2013-04-24T18:39:22Z</time>
      </trkpt>
      <trkpt lat="59.92824" lon="17.6411265">
        <ele>21.2864</ele>
        <time>2013-04-24T18:39:23Z</time>
      </trkpt>
      <trkpt lat="59.9283291" lon="17.6411149">
        <ele>21.2864</ele>
        <time>2013-04-24T18:39:24Z</time>
      </trkpt>
      <trkpt lat="59.9284182" lon="17.6411032">
        <ele>21.2864</ele>
        <time>2013-04-24T18:39:25Z</time>
      </trkpt>
      <trkpt lat="59.9285068" lon="17.6410909">
        <ele>21.2864</ele>
        <time>2013-04-24T18:39:26Z</time>
      </trkpt>
      <trkpt lat="59.9285941" lon="17.6410784">
        <ele>21.2864</ele>
        <time>2013-04-24T18:39:27Z</time>
      </trkpt>
      <trkpt lat="59.9286798" lon="17.641064">
        <ele>21.767</ele>
        <time>2013-04-24T18:39:28Z</time>
      </trkpt>
      <trkpt lat="59.9287647" lon="17.6410464">
        <ele>21.2864</ele>
        <time>2013-04-24T18:39:29Z</time>
      </trkpt>
      <trkpt lat="59.9288501" lon="17.641027">
        <ele>21.767</ele>
        <time>2013-04-24T18:39:30Z</time>
      </trkpt>
      <trkpt lat="59.9289362" lon="17.6410068">
        <ele>21.2864</ele>
        <time>2013-04-24T18:39:31Z</time>
      </trkpt>
      <trkpt lat="59.929023" lon="17.6409911">
        <ele>21.767</ele>
        <time>2013-04-24T18:39:32Z</time>
      </trkpt>
      <trkpt lat="59.9291097" lon="17.6409826">
        <ele>21.767</ele>
        <time>2013-04-24T18:39:33Z</time>
      </trkpt>
      <trkpt lat="59.9291969" lon="17.6409783">
        <ele>21.767</ele>
        <time>2013-04-24T18:39:34Z</time>
      </trkpt>
      <trkpt lat="59.9292842" lon="17.6409765">
        <ele>21.767</ele>
        <time>2013-04-24T18:39:35Z</time>
      </trkpt>
      <trkpt lat="59.9293708" lon="17.6409752">
        <ele>21.767</ele>
        <time>2013-04-24T18:39:36Z</time>
      </trkpt>
      <trkpt lat="59.9294573" lon="17.6409688">
        <ele>21.767</ele>
        <time>2013-04-24T18:39:37Z</time>
      </trkpt>
      <trkpt lat="59.9295437" lon="17.6409564">
        <ele>21.767</ele>
        <time>2013-04-24T18:39:38Z</time>
      </trkpt>
      <trkpt lat="59.9296293" lon="17.6409402">
        <ele>21.767</ele>
        <time>2013-04-24T18:39:39Z</time>
      </trkpt>
      <trkpt lat="59.9297138" lon="17.6409224">
        <ele>22.2476</ele>
        <time>2013-04-24T18:39:40Z</time>
      </trkpt>
      <trkpt lat="59.9297961" lon="17.6409034">
        <ele>22.7283</ele>
        <time>2013-04-24T18:39:41Z</time>
      </trkpt>
      <trkpt lat="59.9298763" lon="17.6408883">
        <ele>22.7283</ele>
        <time>2013-04-24T18:39:42Z</time>
      </trkpt>
      <trkpt lat="59.9299571" lon="17.6408805">
        <ele>22.7283</ele>
        <time>2013-04-24T18:39:43Z</time>
      </trkpt>
      <trkpt lat="59.9300404" lon="17.6408797">
        <ele>22.2476</ele>
        <time>2013-04-24T18:39:44Z</time>
      </trkpt>
      <trkpt lat="59.9301254" lon="17.6408827">
        <ele>22.2476</ele>
        <time>2013-04-24T18:39:45Z</time>
      </trkpt>
      <trkpt lat="59.9302105" lon="17.6408851">
        <ele>22.7283</ele>
        <time>2013-04-24T18:39:46Z</time>
      </trkpt>
      <trkpt lat="59.9302953" lon="17.6408888">
        <ele>22.7283</ele>
        <time>2013-04-24T18:39:47Z</time>
      </trkpt>
      <trkpt lat="59.9303789" lon="17.6408946">
        <ele>22.7283</ele>
        <time>2013-04-24T18:39:48Z</time>
      </trkpt>
      <trkpt lat="59.9304616" lon="17.6408994">
        <ele>23.209</ele>
        <time>2013-04-24T18:39:49Z</time>
      </trkpt>
      <trkpt lat="59.9305426" lon="17.6408999">
        <ele>23.209</ele>
        <time>2013-04-24T18:39:50Z</time>
      </trkpt>
      <trkpt lat="59.9306218" lon="17.6408929">
        <ele>23.6896</ele>
        <time>2013-04-24T18:39:51Z</time>
      </trkpt>
      <trkpt lat="59.9306985" lon="17.640878">
        <ele>23.6896</ele>
        <time>2013-04-24T18:39:52Z</time>
      </trkpt>
      <trkpt lat="59.930774" lon="17.6408628">
        <ele>24.1703</ele>
        <time>2013-04-24T18:39:53Z</time>
      </trkpt>
      <trkpt lat="59.9308501" lon="17.64086">
        <ele>24.1703</ele>
        <time>2013-04-24T18:39:54Z</time>
      </trkpt>
      <trkpt lat="59.9309279" lon="17.6408733">
        <ele>23.6896</ele>
        <time>2013-04-24T18:39:55Z</time>
      </trkpt>
      <trkpt lat="59.9310073" lon="17.6408993">
        <ele>23.6896</ele>
        <time>2013-04-24T18:39:56Z</time>
      </trkpt>
      <trkpt lat="59.9310843" lon="17.6409405">
        <ele>23.6896</ele>
        <time>2013-04-24T18:39:57Z</time>
      </trkpt>
      <trkpt lat="59.9311606" lon="17.6409947">
        <ele>23.6896</ele>
        <time>2013-04-24T18:39:58Z</time>
      </trkpt>
      <trkpt lat="59.9312365" lon="17.6410517">
        <ele>24.1703</ele>
        <time>2013-04-24T18:39:59Z</time>
      </trkpt>
      <trkpt lat="59.9313108" lon="17.6411065">
        <ele>24.651</ele>
        <time>2013-04-24T18:40:00Z</time>
      </trkpt>
      <trkpt lat="59.9313827" lon="17.6411591">
        <ele>25.1317</ele>
        <time>2013-04-24T18:40:01Z</time>
      </trkpt>
      <trkpt lat="59.9314512" lon="17.6412096">
        <ele>25.1317</ele>
        <time>2013-04-24T18:40:02Z</time>
      </trkpt>
      <trkpt lat="59.93152" lon="17.6412615">
        <ele>24.651</ele>
        <time>2013-04-24T18:40:03Z</time>
      </trkpt>
      <trkpt lat="59.9315908" lon="17.6413138">
        <ele>24.651</ele>
        <time>2013-04-24T18:40:04Z</time>
      </trkpt>
      <trkpt lat="59.9316626" lon="17.6413644">
        <ele>24.651</ele>
        <time>2013-04-24T18:40:05Z</time>
      </trkpt>
      <trkpt lat="59.9317334" lon="17.641414">
        <ele>24.651</ele>
        <time>2013-04-24T18:40:06Z</time>
      </trkpt>
      <trkpt lat="59.9318042" lon="17.641464">
        <ele>24.651</ele>
        <time>2013-04-24T18:40:07Z</time>
      </trkpt>
      <trkpt lat="59.9318759" lon="17.6415136">
        <ele>24.651</ele>
        <time>2013-04-24T18:40:08Z</time>
      </trkpt>
      <trkpt lat="59.9319483" lon="17.6415609">
        <ele>24.651</ele>
        <time>2013-04-24T18:40:09Z</time>
      </trkpt>
      <trkpt lat="59.9320195" lon="17.6416069">
        <ele>24.651</ele>
        <time>2013-04-24T18:40:10Z</time>
      </trkpt>
      <trkpt lat="59.9320882" lon="17.6416572">
        <ele>25.1317</ele>
        <time>2013-04-24T18:40:11Z</time>
      </trkpt>
      <trkpt lat="59.932155" lon="17.6417157">
        <ele>24.651</ele>
        <time>2013-04-24T18:40:12Z</time>
      </trkpt>
      <trkpt lat="59.932224" lon="17.641783">
        <ele>24.651</ele>
        <time>2013-04-24T18:40:13Z</time>
      </trkpt>
      <trkpt lat="59.9322945" lon="17.6418546">
        <ele>24.651</ele>
        <time>2013-04-24T18:40:14Z</time>
      </trkpt>
      <trkpt lat="59.9323674" lon="17.641926">
        <ele>24.651</ele>
        <time>2013-04-24T18:40:15Z</time>
      </trkpt>
      <trkpt lat="59.932443" lon="17.6419955">
        <ele>25.1317</ele>
        <time>2013-04-24T18:40:16Z</time>
      </trkpt>
      <trkpt lat="59.9325188" lon="17.6420661">
        <ele>25.1317</ele>
        <time>2013-04-24T18:40:17Z</time>
      </trkpt>
      <trkpt lat="59.9325943" lon="17.6421418">
        <ele>25.6123</ele>
        <time>2013-04-24T18:40:18Z</time>
      </trkpt>
      <trkpt lat="59.9326683" lon="17.6422222">
        <ele>25.6123</ele>
        <time>2013-04-24T18:40:19Z</time>
      </trkpt>
      <trkpt lat="59.9327372" lon="17.6423098">
        <ele>25.6123</ele>
        <time>2013-04-24T18:40:20Z</time>
      </trkpt>
      <trkpt lat="59.9328004" lon="17.6424118">
        <ele>26.0929</ele>
        <time>2013-04-24T18:40:21Z</time>
      </trkpt>
      <trkpt lat="59.9328591" lon="17.6425223">
        <ele>26.0929</ele>
        <time>2013-04-24T18:40:22Z</time>
      </trkpt>
      <trkpt lat="59.9329181" lon="17.6426324">
        <ele>26.0929</ele>
        <time>2013-04-24T18:40:23Z</time>
      </trkpt>
      <trkpt lat="59.9329807" lon="17.6427331">
        <ele>26.5736</ele>
        <time>2013-04-24T18:40:24Z</time>
      </trkpt>
      <trkpt lat="59.9330472" lon="17.6428237">
        <ele>26.5736</ele>
        <time>2013-04-24T18:40:25Z</time>
      </trkpt>
      <trkpt lat="59.9331146" lon="17.6429112">
        <ele>27.0543</ele>
        <time>2013-04-24T18:40:26Z</time>
      </trkpt>
      <trkpt lat="59.93318" lon="17.643002">
        <ele>27.0543</ele>
        <time>2013-04-24T18:40:27Z</time>
      </trkpt>
      <trkpt lat="59.9332398" lon="17.6430977">
        <ele>27.5349</ele>
        <time>2013-04-24T18:40:28Z</time>
      </trkpt>
      <trkpt lat="59.9332957" lon="17.6431925">
        <ele>27.5349</ele>
        <time>2013-04-24T18:40:29Z</time>
      </trkpt>
      <trkpt lat="59.9333491" lon="17.643286">
        <ele>28.0155</ele>
        <time>2013-04-24T18:40:30Z</time>
      </trkpt>
      <trkpt lat="59.9334019" lon="17.6433696">
        <ele>28.9769</ele>
        <time>2013-04-24T18:40:31Z</time>
      </trkpt>
      <trkpt lat="59.9334548" lon="17.6434459">
        <ele>29.4575</ele>
        <time>2013-04-24T18:40:32Z</time>
      </trkpt>
      <trkpt lat="59.9335079" lon="17.6435209">
        <ele>30.4188</ele>
        <time>2013-04-24T18:40:33Z</time>
      </trkpt>
      <trkpt lat="59.9335632" lon="17.6435899">
        <ele>30.8995</ele>
        <time>2013-04-24T18:40:34Z</time>
      </trkpt>
      <trkpt lat="59.9336183" lon="17.6436583">
        <ele>30.8995</ele>
        <time>2013-04-24T18:40:35Z</time>
      </trkpt>
      <trkpt lat="59.9336738" lon="17.6437256">
        <ele>30.8995</ele>
        <time>2013-04-24T18:40:36Z</time>
      </trkpt>
      <trkpt lat="59.9337299" lon="17.6437856">
        <ele>30.8995</ele>
        <time>2013-04-24T18:40:37Z</time>
      </trkpt>
      <trkpt lat="59.9337858" lon="17.6438385">
        <ele>30.8995</ele>
        <time>2013-04-24T18:40:38Z</time>
      </trkpt>
      <trkpt lat="59.9338401" lon="17.6438882">
        <ele>30.8995</ele>
        <time>2013-04-24T18:40:39Z</time>
      </trkpt>
      <trkpt lat="59.933893" lon="17.643941">
        <ele>30.4188</ele>
        <time>2013-04-24T18:40:40Z</time>
      </trkpt>
      <trkpt lat="59.9339454" lon="17.6439984">
        <ele>30.4188</ele>
        <time>2013-04-24T18:40:41Z</time>
      </trkpt>
      <trkpt lat="59.9339969" lon="17.6440594">
        <ele>30.4188</ele>
        <time>2013-04-24T18:40:42Z</time>
      </trkpt>
      <trkpt lat="59.9340485" lon="17.6441244">
        <ele>30.8995</ele>
        <time>2013-04-24T18:40:43Z</time>
      </trkpt>
      <trkpt lat="59.9341008" lon="17.644192">
        <ele>30.8995</ele>
        <time>2013-04-24T18:40:44Z</time>
      </trkpt>
      <trkpt lat="59.9341536" lon="17.6442613">
        <ele>30.8995</ele>
        <time>2013-04-24T18:40:45Z</time>
      </trkpt>
      <trkpt lat="59.9342069" lon="17.64433">
        <ele>30.8995</ele>
        <time>2013-04-24T18:40:46Z</time>
      </trkpt>
      <trkpt lat="59.9342608" lon="17.6443996">
        <ele>30.8995</ele>
        <time>2013-04-24T18:40:47Z</time>
      </trkpt>
      <trkpt lat="59.9343146" lon="17.6444716">
        <ele>30.8995</ele>
        <time>2013-04-24T18:40:48Z</time>
      </trkpt>
      <trkpt lat="59.9343659" lon="17.6445466">
        <ele>31.3801</ele>
        <time>2013-04-24T18:40:49Z</time>
      </trkpt>
      <trkpt lat="59.93441" lon="17.6446269">
        <ele>31.8607</ele>
        <time>2013-04-24T18:40:50Z</time>
      </trkpt>
      <trkpt lat="59.9344437" lon="17.6447129">
        <ele>32.3416</ele>
        <time>2013-04-24T18:40:51Z</time>
      </trkpt>
      <trkpt lat="59.9344685" lon="17.6448033">
        <ele>32.8223</ele>
        <time>2013-04-24T18:40:52Z</time>
      </trkpt>
      <trkpt lat="59.9344922" lon="17.644892">
        <ele>32.8223</ele>
        <time>2013-04-24T18:40:53Z</time>
      </trkpt>
      <trkpt lat="59.9345196" lon="17.6449754">
        <ele>32.8223</ele>
        <time>2013-04-24T18:40:54Z</time>
      </trkpt>
      <trkpt lat="59.9345525" lon="17.6450527">
        <ele>33.3029</ele>
        <time>2013-04-24T18:40:55Z</time>
      </trkpt>
      <trkpt lat="59.9345913" lon="17.6451201">
        <ele>33.3029</ele>
        <time>2013-04-24T18:40:56Z</time>
      </trkpt>
      <trkpt lat="59.9346338" lon="17.6451804">
        <ele>33.7834</ele>
        <time>2013-04-24T18:40:57Z</time>
      </trkpt>
      <trkpt lat="59.9346789" lon="17.6452381">
        <ele>34.2642</ele>
        <time>2013-04-24T18:40:58Z</time>
      </trkpt>
      <trkpt lat="59.9347264" lon="17.6452945">
        <ele>34.2642</ele>
        <time>2013-04-24T18:40:59Z</time>
      </trkpt>
      <trkpt lat="59.9347747" lon="17.6453527">
        <ele>34.2642</ele>
        <time>2013-04-24T18:41:00Z</time>
      </trkpt>
      <trkpt lat="59.9348238" lon="17.6454147">
        <ele>34.7449</ele>
        <time>2013-04-24T18:41:01Z</time>
      </trkpt>
      <trkpt lat="59.9348731" lon="17.6454777">
        <ele>34.7449</ele>
        <time>2013-04-24T18:41:02Z</time>
      </trkpt>
      <trkpt lat="59.9349235" lon="17.6455396">
        <ele>34.7449</ele>
        <time>2013-04-24T18:41:03Z</time>
      </trkpt>
      <trkpt lat="59.9349762" lon="17.6455986">
        <ele>34.7449</ele>
        <time>2013-04-24T18:41:04Z</time>
      </trkpt>
      <trkpt lat="59.9350288" lon="17.6456608">
        <ele>35.2255</ele>
        <time>2013-04-24T18:41:05Z</time>
      </trkpt>
      <trkpt lat="59.9350798" lon="17.6457269">
        <ele>34.7449</ele>
        <time>2013-04-24T18:41:06Z</time>
      </trkpt>
      <trkpt lat="59.9351312" lon="17.6457943">
        <ele>34.7449</ele>
        <time>2013-04-24T18:41:07Z</time>
      </trkpt>
      <trkpt lat="59.9351842" lon="17.6458627">
        <ele>34.7449</ele>
        <time>2013-04-24T18:41:08Z</time>
      </trkpt>
      <trkpt lat="59.9352382" lon="17.6459341">
        <ele>34.2642</ele>
        <time>2013-04-24T18:41:09Z</time>
      </trkpt>
      <trkpt lat="59.9352942" lon="17.6460058">
        <ele>34.2642</ele>
        <time>2013-04-24T18:41:10Z</time>
      </trkpt>
      <trkpt lat="59.9353531" lon="17.6460766">
        <ele>34.2642</ele>
        <time>2013-04-24T18:41:11Z</time>
      </trkpt>
      <trkpt lat="59.9354119" lon="17.6461481">
        <ele>34.2642</ele>
        <time>2013-04-24T18:41:12Z</time>
      </trkpt>
      <trkpt lat="59.9354697" lon="17.6462213">
        <ele>34.2642</ele>
        <time>2013-04-24T18:41:13Z</time>
      </trkpt>
      <trkpt lat="59.9355279" lon="17.646295">
        <ele>34.2642</ele>
        <time>2013-04-24T18:41:14Z</time>
      </trkpt>
      <trkpt lat="59.9355874" lon="17.6463695">
        <ele>34.2642</ele>
        <time>2013-04-24T18:41:15Z</time>
      </trkpt>
      <trkpt lat="59.9356469" lon="17.6464455">
        <ele>34.2642</ele>
        <time>2013-04-24T18:41:16Z</time>
      </trkpt>
      <trkpt lat="59.9357066" lon="17.6465219">
        <ele>34.2642</ele>
        <time>2013-04-24T18:41:17Z</time>
      </trkpt>
      <trkpt lat="59.9357668" lon="17.6465982">
        <ele>34.2642</ele>
        <time>2013-04-24T18:41:18Z</time>
      </trkpt>
      <trkpt lat="59.9358278" lon="17.6466739">
        <ele>34.2642</ele>
        <time>2013-04-24T18:41:19Z</time>
      </trkpt>
      <trkpt lat="59.9358899" lon="17.6467489">
        <ele>34.2642</ele>
        <time>2013-04-24T18:41:20Z</time>
      </trkpt>
      <trkpt lat="59.9359519" lon="17.6468253">
        <ele>34.2642</ele>
        <time>2013-04-24T18:41:21Z</time>
      </trkpt>
      <trkpt lat="59.9360141" lon="17.6469041">
        <ele>34.2642</ele>
        <time>2013-04-24T18:41:22Z</time>
      </trkpt>
      <trkpt lat="59.9360765" lon="17.6469843">
        <ele>33.7834</ele>
        <time>2013-04-24T18:41:23Z</time>
      </trkpt>
      <trkpt lat="59.9361395" lon="17.6470656">
        <ele>33.7834</ele>
        <time>2013-04-24T18:41:24Z</time>
      </trkpt>
      <trkpt lat="59.9362035" lon="17.647147">
        <ele>33.7834</ele>
        <time>2013-04-24T18:41:25Z</time>
      </trkpt>
      <trkpt lat="59.9362691" lon="17.6472288">
        <ele>33.7834</ele>
        <time>2013-04-24T18:41:26Z</time>
      </trkpt>
      <trkpt lat="59.9363353" lon="17.6473121">
        <ele>33.7834</ele>
        <time>2013-04-24T18:41:27Z</time>
      </trkpt>
      <trkpt lat="59.9364024" lon="17.6473967">
        <ele>33.3029</ele>
        <time>2013-04-24T18:41:28Z</time>
      </trkpt>
      <trkpt lat="59.9364707" lon="17.6474826">
        <ele>33.3029</ele>
        <time>2013-04-24T18:41:29Z</time>
      </trkpt>
      <trkpt lat="59.9365396" lon="17.6475702">
        <ele>33.3029</ele>
        <time>2013-04-24T18:41:30Z</time>
      </trkpt>
      <trkpt lat="59.9366093" lon="17.6476586">
        <ele>33.3029</ele>
        <time>2013-04-24T18:41:31Z</time>
      </trkpt>
      <trkpt lat="59.936679" lon="17.6477474">
        <ele>32.8223</ele>
        <time>2013-04-24T18:41:32Z</time>
      </trkpt>
      <trkpt lat="59.9367486" lon="17.647837">
        <ele>32.8223</ele>
        <time>2013-04-24T18:41:33Z</time>
      </trkpt>
      <trkpt lat="59.9368187" lon="17.6479261">
        <ele>32.8223</ele>
        <time>2013-04-24T18:41:34Z</time>
      </trkpt>
      <trkpt lat="59.93689" lon="17.6480153">
        <ele>32.8223</ele>
        <time>2013-04-24T18:41:35Z</time>
      </trkpt>
      <trkpt lat="59.9369612" lon="17.6481069">
        <ele>32.3416</ele>
        <time>2013-04-24T18:41:36Z</time>
      </trkpt>
      <trkpt lat="59.9370326" lon="17.6481996">
        <ele>32.3416</ele>
        <time>2013-04-24T18:41:37Z</time>
      </trkpt>
      <trkpt lat="59.9371047" lon="17.6482922">
        <ele>32.3416</ele>
        <time>2013-04-24T18:41:38Z</time>
      </trkpt>
      <trkpt lat="59.9371782" lon="17.6483866">
        <ele>32.3416</ele>
        <time>2013-04-24T18:41:39Z</time>
      </trkpt>
      <trkpt lat="59.9372514" lon="17.648484">
        <ele>32.3416</ele>
        <time>2013-04-24T18:41:40Z</time>
      </trkpt>
      <trkpt lat="59.9373242" lon="17.6485853">
        <ele>32.3416</ele>
        <time>2013-04-24T18:41:41Z</time>
      </trkpt>
      <trkpt lat="59.9373958" lon="17.6486907">
        <ele>32.3416</ele>
        <time>2013-04-24T18:41:42Z</time>
      </trkpt>
      <trkpt lat="59.9374678" lon="17.6487995">
        <ele>32.3416</ele>
        <time>2013-04-24T18:41:43Z</time>
      </trkpt>
      <trkpt lat="59.9375379" lon="17.6489113">
        <ele>31.8607</ele>
        <time>2013-04-24T18:41:44Z</time>
      </trkpt>
      <trkpt lat="59.9376057" lon="17.6490284">
        <ele>31.8607</ele>
        <time>2013-04-24T18:41:45Z</time>
      </trkpt>
      <trkpt lat="59.9376714" lon="17.6491516">
        <ele>31.3801</ele>
        <time>2013-04-24T18:41:46Z</time>
      </trkpt>
      <trkpt lat="59.9377321" lon="17.6492848">
        <ele>31.3801</ele>
        <time>2013-04-24T18:41:47Z</time>
      </trkpt>
      <trkpt lat="59.9377869" lon="17.6494326">
        <ele>31.3801</ele>
        <time>2013-04-24T18:41:48Z</time>
      </trkpt>
      <trkpt lat="59.9378368" lon="17.6495858">
        <ele>31.3801</ele>
        <time>2013-04-24T18:41:49Z</time>
      </trkpt>
      <trkpt lat="59.937889" lon="17.6497379">
        <ele>31.3801</ele>
        <time>2013-04-24T18:41:50Z</time>
      </trkpt>
      <trkpt lat="59.9379431" lon="17.6498882">
        <ele>31.3801</ele>
        <time>2013-04-24T18:41:51Z</time>
      </trkpt>
      <trkpt lat="59.9379994" lon="17.6500369">
        <ele>31.3801</ele>
        <time>2013-04-24T18:41:52Z</time>
      </trkpt>
      <trkpt lat="59.9380545" lon="17.6501866">
        <ele>31.3801</ele>
        <time>2013-04-24T18:41:53Z</time>
      </trkpt>
      <trkpt lat="59.938107" lon="17.6503384">
        <ele>30.8995</ele>
        <time>2013-04-24T18:41:54Z</time>
      </trkpt>
      <trkpt lat="59.9381594" lon="17.6504891">
        <ele>30.8995</ele>
        <time>2013-04-24T18:41:55Z</time>
      </trkpt>
      <trkpt lat="59.9382127" lon="17.6506372">
        <ele>30.8995</ele>
        <time>2013-04-24T18:41:56Z</time>
      </trkpt>
      <trkpt lat="59.9382681" lon="17.6507819">
        <ele>30.4188</ele>
        <time>2013-04-24T18:41:57Z</time>
      </trkpt>
      <trkpt lat="59.9383273" lon="17.6509207">
        <ele>30.4188</ele>
        <time>2013-04-24T18:41:58Z</time>
      </trkpt>
      <trkpt lat="59.9383883" lon="17.6510572">
        <ele>30.4188</ele>
        <time>2013-04-24T18:41:59Z</time>
      </trkpt>
      <trkpt lat="59.9384459" lon="17.651201">
        <ele>30.4188</ele>
        <time>2013-04-24T18:42:00Z</time>
      </trkpt>
      <trkpt lat="59.9384977" lon="17.6513528">
        <ele>30.4188</ele>
        <time>2013-04-24T18:42:01Z</time>
      </trkpt>
      <trkpt lat="59.9385473" lon="17.6515081">
        <ele>30.4188</ele>
        <time>2013-04-24T18:42:02Z</time>
      </trkpt>
      <trkpt lat="59.9385955" lon="17.6516641">
        <ele>30.4188</ele>
        <time>2013-04-24T18:42:03Z</time>
      </trkpt>
      <trkpt lat="59.9386427" lon="17.6518216">
        <ele>30.4188</ele>
        <time>2013-04-24T18:42:04Z</time>
      </trkpt>
      <trkpt lat="59.9386886" lon="17.6519803">
        <ele>30.4188</ele>
        <time>2013-04-24T18:42:05Z</time>
      </trkpt>
      <trkpt lat="59.9387333" lon="17.652139">
        <ele>30.4188</ele>
        <time>2013-04-24T18:42:06Z</time>
      </trkpt>
      <trkpt lat="59.9387779" lon="17.6522979">
        <ele>30.4188</ele>
        <time>2013-04-24T18:42:07Z</time>
      </trkpt>
      <trkpt lat="59.9388223" lon="17.652455">
        <ele>30.4188</ele>
        <time>2013-04-24T18:42:08Z</time>
      </trkpt>
      <trkpt lat="59.9388654" lon="17.6526099">
        <ele>30.4188</ele>
        <time>2013-04-24T18:42:09Z</time>
      </trkpt>
      <trkpt lat="59.9389063" lon="17.6527632">
        <ele>30.4188</ele>
        <time>2013-04-24T18:42:10Z</time>
      </trkpt>
      <trkpt lat="59.9389446" lon="17.6529151">
        <ele>30.4188</ele>
        <time>2013-04-24T18:42:11Z</time>
      </trkpt>
      <trkpt lat="59.9389805" lon="17.6530672">
        <ele>30.4188</ele>
        <time>2013-04-24T18:42:12Z</time>
      </trkpt>
      <trkpt lat="59.9390157" lon="17.6532192">
        <ele>29.9381</ele>
        <time>2013-04-24T18:42:13Z</time>
      </trkpt>
      <trkpt lat="59.9390519" lon="17.6533707">
        <ele>29.9381</ele>
        <time>2013-04-24T18:42:14Z</time>
      </trkpt>
      <trkpt lat="59.9390879" lon="17.6535221">
        <ele>29.9381</ele>
        <time>2013-04-24T18:42:15Z</time>
      </trkpt>
      <trkpt lat="59.9391213" lon="17.6536734">
        <ele>29.9381</ele>
        <time>2013-04-24T18:42:16Z</time>
      </trkpt>
      <trkpt lat="59.9391544" lon="17.6538262">
        <ele>29.9381</ele>
        <time>2013-04-24T18:42:17Z</time>
      </trkpt>
      <trkpt lat="59.9391866" lon="17.6539785">
        <ele>29.9381</ele>
        <time>2013-04-24T18:42:18Z</time>
      </trkpt>
      <trkpt lat="59.9392183" lon="17.6541313">
        <ele>29.9381</ele>
        <time>2013-04-24T18:42:19Z</time>
      </trkpt>
      <trkpt lat="59.9392478" lon="17.6542853">
        <ele>29.4575</ele>
        <time>2013-04-24T18:42:20Z</time>
      </trkpt>
      <trkpt lat="59.9392767" lon="17.654439">
        <ele>29.4575</ele>
        <time>2013-04-24T18:42:21Z</time>
      </trkpt>
      <trkpt lat="59.9393076" lon="17.6545913">
        <ele>29.4575</ele>
        <time>2013-04-24T18:42:22Z</time>
      </trkpt>
      <trkpt lat="59.939339" lon="17.6547441">
        <ele>29.4575</ele>
        <time>2013-04-24T18:42:23Z</time>
      </trkpt>
      <trkpt lat="59.9393698" lon="17.654898">
        <ele>28.9769</ele>
        <time>2013-04-24T18:42:24Z</time>
      </trkpt>
      <trkpt lat="59.9393998" lon="17.6550529">
        <ele>28.9769</ele>
        <time>2013-04-24T18:42:25Z</time>
      </trkpt>
      <trkpt lat="59.9394299" lon="17.6552073">
        <ele>28.9769</ele>
        <time>2013-04-24T18:42:26Z</time>
      </trkpt>
      <trkpt lat="59.9394597" lon="17.6553617">
        <ele>28.4962</ele>
        <time>2013-04-24T18:42:27Z</time>
      </trkpt>
      <trkpt lat="59.9394917" lon="17.6555184">
        <ele>28.4962</ele>
        <time>2013-04-24T18:42:28Z</time>
      </trkpt>
      <trkpt lat="59.9395239" lon="17.655675">
        <ele>28.4962</ele>
        <time>2013-04-24T18:42:29Z</time>
      </trkpt>
      <trkpt lat="59.9395555" lon="17.6558322">
        <ele>28.4962</ele>
        <time>2013-04-24T18:42:30Z</time>
      </trkpt>
      <trkpt lat="59.9395861" lon="17.6559888">
        <ele>28.4962</ele>
        <time>2013-04-24T18:42:31Z</time>
      </trkpt>
      <trkpt lat="59.9396171" lon="17.6561473">
        <ele>28.0155</ele>
        <time>2013-04-24T18:42:32Z</time>
      </trkpt>
      <trkpt lat="59.9396481" lon="17.6563071">
        <ele>27.5349</ele>
        <time>2013-04-24T18:42:33Z</time>
      </trkpt>
      <trkpt lat="59.9396792" lon="17.656469">
        <ele>27.5349</ele>
        <time>2013-04-24T18:42:34Z</time>
      </trkpt>
      <trkpt lat="59.9397112" lon="17.6566315">
        <ele>27.0543</ele>
        <time>2013-04-24T18:42:35Z</time>
      </trkpt>
      <trkpt lat="59.939746" lon="17.6567966">
        <ele>27.0543</ele>
        <time>2013-04-24T18:42:36Z</time>
      </trkpt>
      <trkpt lat="59.9397803" lon="17.6569621">
        <ele>27.0543</ele>
        <time>2013-04-24T18:42:37Z</time>
      </trkpt>
      <trkpt lat="59.9398139" lon="17.6571273">
        <ele>26.5736</ele>
        <time>2013-04-24T18:42:38Z</time>
      </trkpt>
      <trkpt lat="59.9398473" lon="17.657293">
        <ele>26.0929</ele>
        <time>2013-04-24T18:42:39Z</time>
      </trkpt>
      <trkpt lat="59.9398819" lon="17.6574617">
        <ele>26.0929</ele>
        <time>2013-04-24T18:42:40Z</time>
      </trkpt>
      <trkpt lat="59.9399174" lon="17.657632">
        <ele>26.0929</ele>
        <time>2013-04-24T18:42:41Z</time>
      </trkpt>
      <trkpt lat="59.9399504" lon="17.6577992">
        <ele>25.6123</ele>
        <time>2013-04-24T18:42:42Z</time>
      </trkpt>
      <trkpt lat="59.9399848" lon="17.6579685">
        <ele>25.1317</ele>
        <time>2013-04-24T18:42:43Z</time>
      </trkpt>
      <trkpt lat="59.9400196" lon="17.6581405">
        <ele>24.651</ele>
        <time>2013-04-24T18:42:44Z</time>
      </trkpt>
      <trkpt lat="59.9400582" lon="17.6583169">
        <ele>24.651</ele>
        <time>2013-04-24T18:42:45Z</time>
      </trkpt>
      <trkpt lat="59.9400981" lon="17.6584927">
        <ele>24.1703</ele>
        <time>2013-04-24T18:42:46Z</time>
      </trkpt>
      <trkpt lat="59.9401386" lon="17.6586678">
        <ele>24.1703</ele>
        <time>2013-04-24T18:42:47Z</time>
      </trkpt>
      <trkpt lat="59.940178" lon="17.658843">
        <ele>24.1703</ele>
        <time>2013-04-24T18:42:48Z</time>
      </trkpt>
      <trkpt lat="59.9402141" lon="17.6590177">
        <ele>24.1703</ele>
        <time>2013-04-24T18:42:49Z</time>
      </trkpt>
      <trkpt lat="59.9402452" lon="17.6591903">
        <ele>24.1703</ele>
        <time>2013-04-24T18:42:50Z</time>
      </trkpt>
      <trkpt lat="59.9402739" lon="17.659362">
        <ele>24.651</ele>
        <time>2013-04-24T18:42:51Z</time>
      </trkpt>
      <trkpt lat="59.9403019" lon="17.6595259">
        <ele>25.1317</ele>
        <time>2013-04-24T18:42:52Z</time>
      </trkpt>
      <trkpt lat="59.9403355" lon="17.6596811">
        <ele>25.6123</ele>
        <time>2013-04-24T18:42:53Z</time>
      </trkpt>
      <trkpt lat="59.9403739" lon="17.6598277">
        <ele>26.0929</ele>
        <time>2013-04-24T18:42:54Z</time>
      </trkpt>
      <trkpt lat="59.9404075" lon="17.659979">
        <ele>26.5736</ele>
        <time>2013-04-24T18:42:55Z</time>
      </trkpt>
      <trkpt lat="59.9404226" lon="17.6600312">
        <ele>27.0543</ele>
        <time>2013-04-24T18:42:56Z</time>
      </trkpt>
      <trkpt lat="59.9403992" lon="17.6601205">
        <ele>26.5736</ele>
        <time>2013-04-24T18:42:57Z</time>
      </trkpt>
      <trkpt lat="59.9404292" lon="17.6602509">
        <ele>26.0929</ele>
        <time>2013-04-24T18:42:58Z</time>
      </trkpt>
      <trkpt lat="59.9404215" lon="17.6603827">
        <ele>26.0929</ele>
        <time>2013-04-24T18:42:59Z</time>
      </trkpt>
      <trkpt lat="59.9404257" lon="17.6605855">
        <ele>27.0543</ele>
        <time>2013-04-24T18:43:00Z</time>
      </trkpt>
      <trkpt lat="59.94041" lon="17.6607902">
        <ele>28.0155</ele>
        <time>2013-04-24T18:43:01Z</time>
      </trkpt>
      <trkpt lat="59.940398" lon="17.6609856">
        <ele>28.9769</ele>
        <time>2013-04-24T18:43:02Z</time>
      </trkpt>
      <trkpt lat="59.9403838" lon="17.6611497">
        <ele>28.4962</ele>
        <time>2013-04-24T18:43:03Z</time>
      </trkpt>
      <trkpt lat="59.9403853" lon="17.6613232">
        <ele>29.4575</ele>
        <time>2013-04-24T18:43:04Z</time>
      </trkpt>
      <trkpt lat="59.9403913" lon="17.6614848">
        <ele>28.9769</ele>
        <time>2013-04-24T18:43:05Z</time>
      </trkpt>
      <trkpt lat="59.940411" lon="17.6616418">
        <ele>28.9769</ele>
        <time>2013-04-24T18:43:06Z</time>
      </trkpt>
      <trkpt lat="59.9404469" lon="17.6617835">
        <ele>29.4575</ele>
        <time>2013-04-24T18:43:07Z</time>
      </trkpt>
      <trkpt lat="59.9404964" lon="17.6619112">
        <ele>29.4575</ele>
        <time>2013-04-24T18:43:08Z</time>
      </trkpt>
      <trkpt lat="59.940556" lon="17.6620093">
        <ele>29.4575</ele>
        <time>2013-04-24T18:43:09Z</time>
      </trkpt>
      <trkpt lat="59.9406293" lon="17.6620787">
        <ele>29.4575</ele>
        <time>2013-04-24T18:43:10Z</time>
      </trkpt>
      <trkpt lat="59.9407062" lon="17.6621252">
        <ele>29.4575</ele>
        <time>2013-04-24T18:43:11Z</time>
      </trkpt>
      <trkpt lat="59.9407865" lon="17.6621491">
        <ele>29.4575</ele>
        <time>2013-04-24T18:43:12Z</time>
      </trkpt>
      <trkpt lat="59.9408689" lon="17.6621678">
        <ele>29.9381</ele>
        <time>2013-04-24T18:43:13Z</time>
      </trkpt>
      <trkpt lat="59.940953" lon="17.6621922">
        <ele>29.9381</ele>
        <time>2013-04-24T18:43:14Z</time>
      </trkpt>
      <trkpt lat="59.9410373" lon="17.6622264">
        <ele>30.4188</ele>
        <time>2013-04-24T18:43:15Z</time>
      </trkpt>
      <trkpt lat="59.941122" lon="17.6622734">
        <ele>30.4188</ele>
        <time>2013-04-24T18:43:16Z</time>
      </trkpt>
      <trkpt lat="59.9412063" lon="17.6623298">
        <ele>30.4188</ele>
        <time>2013-04-24T18:43:17Z</time>
      </trkpt>
      <trkpt lat="59.94129" lon="17.6623972">
        <ele>30.4188</ele>
        <time>2013-04-24T18:43:18Z</time>
      </trkpt>
      <trkpt lat="59.9413726" lon="17.6624799">
        <ele>30.4188</ele>
        <time>2013-04-24T18:43:19Z</time>
      </trkpt>
      <trkpt lat="59.9414524" lon="17.6625749">
        <ele>30.4188</ele>
        <time>2013-04-24T18:43:20Z</time>
      </trkpt>
      <trkpt lat="59.9415285" lon="17.6626789">
        <ele>30.4188</ele>
        <time>2013-04-24T18:43:21Z</time>
      </trkpt>
      <trkpt lat="59.9416" lon="17.6627936">
        <ele>30.4188</ele>
        <time>2013-04-24T18:43:22Z</time>
      </trkpt>
      <trkpt lat="59.9416689" lon="17.6629168">
        <ele>30.4188</ele>
        <time>2013-04-24T18:43:23Z</time>
      </trkpt>
      <trkpt lat="59.9417373" lon="17.6630421">
        <ele>29.9381</ele>
        <time>2013-04-24T18:43:24Z</time>
      </trkpt>
      <trkpt lat="59.9418062" lon="17.6631662">
        <ele>29.9381</ele>
        <time>2013-04-24T18:43:25Z</time>
      </trkpt>
      <trkpt lat="59.9418765" lon="17.6632866">
        <ele>29.9381</ele>
        <time>2013-04-24T18:43:26Z</time>
      </trkpt>
      <trkpt lat="59.9419482" lon="17.6634024">
        <ele>29.9381</ele>
        <time>2013-04-24T18:43:27Z</time>
      </trkpt>
      <trkpt lat="59.9420209" lon="17.6635157">
        <ele>29.9381</ele>
        <time>2013-04-24T18:43:28Z</time>
      </trkpt>
      <trkpt lat="59.942094" lon="17.6636283">
        <ele>29.9381</ele>
        <time>2013-04-24T18:43:29Z</time>
      </trkpt>
      <trkpt lat="59.9421677" lon="17.6637388">
        <ele>29.4575</ele>
        <time>2013-04-24T18:43:30Z</time>
      </trkpt>
      <trkpt lat="59.9422427" lon="17.6638474">
        <ele>29.4575</ele>
        <time>2013-04-24T18:43:31Z</time>
      </trkpt>
      <trkpt lat="59.942319" lon="17.6639531">
        <ele>29.4575</ele>
        <time>2013-04-24T18:43:32Z</time>
      </trkpt>
      <trkpt lat="59.942397" lon="17.6640557">
        <ele>29.4575</ele>
        <time>2013-04-24T18:43:33Z</time>
      </trkpt>
      <trkpt lat="59.9424755" lon="17.6641554">
        <ele>28.9769</ele>
        <time>2013-04-24T18:43:34Z</time>
      </trkpt>
      <trkpt lat="59.9425547" lon="17.6642512">
        <ele>28.9769</ele>
        <time>2013-04-24T18:43:35Z</time>
      </trkpt>
      <trkpt lat="59.9426338" lon="17.664346">
        <ele>28.9769</ele>
        <time>2013-04-24T18:43:36Z</time>
      </trkpt>
      <trkpt lat="59.9427132" lon="17.6644387">
        <ele>28.4962</ele>
        <time>2013-04-24T18:43:37Z</time>
      </trkpt>
      <trkpt lat="59.9427939" lon="17.6645298">
        <ele>28.4962</ele>
        <time>2013-04-24T18:43:38Z</time>
      </trkpt>
      <trkpt lat="59.9428758" lon="17.6646169">
        <ele>28.4962</ele>
        <time>2013-04-24T18:43:39Z</time>
      </trkpt>
      <trkpt lat="59.9429578" lon="17.6647003">
        <ele>28.4962</ele>
        <time>2013-04-24T18:43:40Z</time>
      </trkpt>
      <trkpt lat="59.9430395" lon="17.6647815">
        <ele>28.4962</ele>
        <time>2013-04-24T18:43:41Z</time>
      </trkpt>
      <trkpt lat="59.9431219" lon="17.6648594">
        <ele>28.4962</ele>
        <time>2013-04-24T18:43:42Z</time>
      </trkpt>
      <trkpt lat="59.9432053" lon="17.6649344">
        <ele>28.4962</ele>
        <time>2013-04-24T18:43:43Z</time>
      </trkpt>
      <trkpt lat="59.9432898" lon="17.6650074">
        <ele>28.0155</ele>
        <time>2013-04-24T18:43:44Z</time>
      </trkpt>
      <trkpt lat="59.9433753" lon="17.6650778">
        <ele>28.0155</ele>
        <time>2013-04-24T18:43:45Z</time>
      </trkpt>
      <trkpt lat="59.9434623" lon="17.665144">
        <ele>28.0155</ele>
        <time>2013-04-24T18:43:46Z</time>
      </trkpt>
      <trkpt lat="59.9435503" lon="17.665208">
        <ele>27.5349</ele>
        <time>2013-04-24T18:43:47Z</time>
      </trkpt>
      <trkpt lat="59.9436394" lon="17.6652699">
        <ele>27.5349</ele>
        <time>2013-04-24T18:43:48Z</time>
      </trkpt>
      <trkpt lat="59.9437295" lon="17.6653286">
        <ele>27.5349</ele>
        <time>2013-04-24T18:43:49Z</time>
      </trkpt>
      <trkpt lat="59.9438202" lon="17.6653835">
        <ele>27.0543</ele>
        <time>2013-04-24T18:43:50Z</time>
      </trkpt>
      <trkpt lat="59.9439119" lon="17.6654315">
        <ele>27.0543</ele>
        <time>2013-04-24T18:43:51Z</time>
      </trkpt>
      <trkpt lat="59.944004" lon="17.6654758">
        <ele>27.0543</ele>
        <time>2013-04-24T18:43:52Z</time>
      </trkpt>
      <trkpt lat="59.9440948" lon="17.6655194">
        <ele>26.5736</ele>
        <time>2013-04-24T18:43:53Z</time>
      </trkpt>
      <trkpt lat="59.944186" lon="17.6655572">
        <ele>26.5736</ele>
        <time>2013-04-24T18:43:54Z</time>
      </trkpt>
      <trkpt lat="59.9442786" lon="17.6655933">
        <ele>26.5736</ele>
        <time>2013-04-24T18:43:55Z</time>
      </trkpt>
      <trkpt lat="59.9443718" lon="17.6656343">
        <ele>26.5736</ele>
        <time>2013-04-24T18:43:56Z</time>
      </trkpt>
      <trkpt lat="59.9444659" lon="17.6656778">
        <ele>26.0929</ele>
        <time>2013-04-24T18:43:57Z</time>
      </trkpt>
      <trkpt lat="59.9445614" lon="17.6657193">
        <ele>26.0929</ele>
        <time>2013-04-24T18:43:58Z</time>
      </trkpt>
      <trkpt lat="59.9446587" lon="17.6657579">
        <ele>26.0929</ele>
        <time>2013-04-24T18:43:59Z</time>
      </trkpt>
      <trkpt lat="59.9447571" lon="17.6657938">
        <ele>26.0929</ele>
        <time>2013-04-24T18:44:00Z</time>
      </trkpt>
      <trkpt lat="59.9448558" lon="17.6658293">
        <ele>26.0929</ele>
        <time>2013-04-24T18:44:01Z</time>
      </trkpt>
      <trkpt lat="59.9449551" lon="17.6658658">
        <ele>26.0929</ele>
        <time>2013-04-24T18:44:02Z</time>
      </trkpt>
      <trkpt lat="59.9450546" lon="17.6659037">
        <ele>25.6123</ele>
        <time>2013-04-24T18:44:03Z</time>
      </trkpt>
      <trkpt lat="59.9451542" lon="17.665941">
        <ele>25.6123</ele>
        <time>2013-04-24T18:44:04Z</time>
      </trkpt>
      <trkpt lat="59.9452539" lon="17.6659775">
        <ele>25.6123</ele>
        <time>2013-04-24T18:44:05Z</time>
      </trkpt>
      <trkpt lat="59.9453538" lon="17.6660145">
        <ele>25.6123</ele>
        <time>2013-04-24T18:44:06Z</time>
      </trkpt>
      <trkpt lat="59.9454539" lon="17.6660523">
        <ele>25.6123</ele>
        <time>2013-04-24T18:44:07Z</time>
      </trkpt>
      <trkpt lat="59.945555" lon="17.6660923">
        <ele>25.6123</ele>
        <time>2013-04-24T18:44:08Z</time>
      </trkpt>
      <trkpt lat="59.9456587" lon="17.666131">
        <ele>25.1317</ele>
        <time>2013-04-24T18:44:09Z</time>
      </trkpt>
      <trkpt lat="59.9457643" lon="17.6661691">
        <ele>25.1317</ele>
        <time>2013-04-24T18:44:10Z</time>
      </trkpt>
      <trkpt lat="59.9458704" lon="17.6662097">
        <ele>25.1317</ele>
        <time>2013-04-24T18:44:11Z</time>
      </trkpt>
      <trkpt lat="59.945977" lon="17.6662525">
        <ele>25.1317</ele>
        <time>2013-04-24T18:44:12Z</time>
      </trkpt>
      <trkpt lat="59.9460843" lon="17.6662984">
        <ele>25.1317</ele>
        <time>2013-04-24T18:44:13Z</time>
      </trkpt>
      <trkpt lat="59.9461926" lon="17.6663481">
        <ele>25.1317</ele>
        <time>2013-04-24T18:44:14Z</time>
      </trkpt>
      <trkpt lat="59.9463002" lon="17.6664123">
        <ele>25.1317</ele>
        <time>2013-04-24T18:44:15Z</time>
      </trkpt>
      <trkpt lat="59.9464081" lon="17.6664834">
        <ele>24.651</ele>
        <time>2013-04-24T18:44:16Z</time>
      </trkpt>
      <trkpt lat="59.9465195" lon="17.6665376">
        <ele>24.651</ele>
        <time>2013-04-24T18:44:17Z</time>
      </trkpt>
      <trkpt lat="59.9466345" lon="17.6665661">
        <ele>24.651</ele>
        <time>2013-04-24T18:44:18Z</time>
      </trkpt>
      <trkpt lat="59.9467512" lon="17.6665811">
        <ele>24.651</ele>
        <time>2013-04-24T18:44:19Z</time>
      </trkpt>
      <trkpt lat="59.9468676" lon="17.6666079">
        <ele>24.651</ele>
        <time>2013-04-24T18:44:20Z</time>
      </trkpt>
      <trkpt lat="59.9469831" lon="17.6666506">
        <ele>24.1703</ele>
        <time>2013-04-24T18:44:21Z</time>
      </trkpt>
      <trkpt lat="59.9470974" lon="17.6666982">
        <ele>24.1703</ele>
        <time>2013-04-24T18:44:22Z</time>
      </trkpt>
      <trkpt lat="59.9472106" lon="17.6667469">
        <ele>24.1703</ele>
        <time>2013-04-24T18:44:23Z</time>
      </trkpt>
      <trkpt lat="59.9473228" lon="17.6667982">
        <ele>24.1703</ele>
        <time>2013-04-24T18:44:24Z</time>
      </trkpt>
      <trkpt lat="59.9474343" lon="17.6668524">
        <ele>24.1703</ele>
        <time>2013-04-24T18:44:25Z</time>
      </trkpt>
      <trkpt lat="59.9475447" lon="17.6669076">
        <ele>24.1703</ele>
        <time>2013-04-24T18:44:26Z</time>
      </trkpt>
      <trkpt lat="59.9476545" lon="17.6669639">
        <ele>24.1703</ele>
        <time>2013-04-24T18:44:27Z</time>
      </trkpt>
      <trkpt lat="59.9477637" lon="17.6670197">
        <ele>23.6896</ele>
        <time>2013-04-24T18:44:28Z</time>
      </trkpt>
      <trkpt lat="59.9478729" lon="17.6670749">
        <ele>23.6896</ele>
        <time>2013-04-24T18:44:29Z</time>
      </trkpt>
      <trkpt lat="59.947982" lon="17.6671317">
        <ele>23.6896</ele>
        <time>2013-04-24T18:44:30Z</time>
      </trkpt>
      <trkpt lat="59.9480915" lon="17.6671893">
        <ele>23.6896</ele>
        <time>2013-04-24T18:44:31Z</time>
      </trkpt>
      <trkpt lat="59.9482005" lon="17.6672485">
        <ele>23.6896</ele>
        <time>2013-04-24T18:44:32Z</time>
      </trkpt>
      <trkpt lat="59.948309" lon="17.6673094">
        <ele>23.6896</ele>
        <time>2013-04-24T18:44:33Z</time>
      </trkpt>
      <trkpt lat="59.9484171" lon="17.6673709">
        <ele>23.6896</ele>
        <time>2013-04-24T18:44:34Z</time>
      </trkpt>
      <trkpt lat="59.9485254" lon="17.6674331">
        <ele>23.6896</ele>
        <time>2013-04-24T18:44:35Z</time>
      </trkpt>
      <trkpt lat="59.948633" lon="17.6674953">
        <ele>23.6896</ele>
        <time>2013-04-24T18:44:36Z</time>
      </trkpt>
      <trkpt lat="59.9487391" lon="17.6675559">
        <ele>23.6896</ele>
        <time>2013-04-24T18:44:37Z</time>
      </trkpt>
      <trkpt lat="59.9488434" lon="17.6676166">
        <ele>23.6896</ele>
        <time>2013-04-24T18:44:38Z</time>
      </trkpt>
      <trkpt lat="59.9489459" lon="17.6676761">
        <ele>23.6896</ele>
        <time>2013-04-24T18:44:39Z</time>
      </trkpt>
      <trkpt lat="59.9490473" lon="17.667732">
        <ele>23.6896</ele>
        <time>2013-04-24T18:44:40Z</time>
      </trkpt>
      <trkpt lat="59.9491473" lon="17.6677877">
        <ele>23.6896</ele>
        <time>2013-04-24T18:44:41Z</time>
      </trkpt>
      <trkpt lat="59.9492466" lon="17.6678436">
        <ele>23.6896</ele>
        <time>2013-04-24T18:44:42Z</time>
      </trkpt>
      <trkpt lat="59.9493436" lon="17.6678991">
        <ele>23.209</ele>
        <time>2013-04-24T18:44:43Z</time>
      </trkpt>
      <trkpt lat="59.94944" lon="17.6679532">
        <ele>23.209</ele>
        <time>2013-04-24T18:44:44Z</time>
      </trkpt>
      <trkpt lat="59.9495354" lon="17.6680056">
        <ele>23.209</ele>
        <time>2013-04-24T18:44:45Z</time>
      </trkpt>
      <trkpt lat="59.9496316" lon="17.6680571">
        <ele>22.7283</ele>
        <time>2013-04-24T18:44:46Z</time>
      </trkpt>
      <trkpt lat="59.9497291" lon="17.6681076">
        <ele>22.7283</ele>
        <time>2013-04-24T18:44:47Z</time>
      </trkpt>
      <trkpt lat="59.949828" lon="17.6681523">
        <ele>23.209</ele>
        <time>2013-04-24T18:44:48Z</time>
      </trkpt>
      <trkpt lat="59.9499255" lon="17.6681943">
        <ele>23.209</ele>
        <time>2013-04-24T18:44:49Z</time>
      </trkpt>
      <trkpt lat="59.9500228" lon="17.668233">
        <ele>23.209</ele>
        <time>2013-04-24T18:44:50Z</time>
      </trkpt>
      <trkpt lat="59.9501205" lon="17.6682638">
        <ele>23.209</ele>
        <time>2013-04-24T18:44:51Z</time>
      </trkpt>
      <trkpt lat="59.9502177" lon="17.6682874">
        <ele>23.209</ele>
        <time>2013-04-24T18:44:52Z</time>
      </trkpt>
      <trkpt lat="59.950315" lon="17.6683049">
        <ele>23.209</ele>
        <time>2013-04-24T18:44:53Z</time>
      </trkpt>
      <trkpt lat="59.9504122" lon="17.6683166">
        <ele>23.209</ele>
        <time>2013-04-24T18:44:54Z</time>
      </trkpt>
      <trkpt lat="59.9505088" lon="17.6683237">
        <ele>23.209</ele>
        <time>2013-04-24T18:44:55Z</time>
      </trkpt>
      <trkpt lat="59.9506055" lon="17.6683232">
        <ele>23.209</ele>
        <time>2013-04-24T18:44:56Z</time>
      </trkpt>
      <trkpt lat="59.9507009" lon="17.6683113">
        <ele>22.7283</ele>
        <time>2013-04-24T18:44:57Z</time>
      </trkpt>
      <trkpt lat="59.9507962" lon="17.6682927">
        <ele>22.7283</ele>
        <time>2013-04-24T18:44:58Z</time>
      </trkpt>
      <trkpt lat="59.9508921" lon="17.6682719">
        <ele>22.2476</ele>
        <time>2013-04-24T18:44:59Z</time>
      </trkpt>
      <trkpt lat="59.950989" lon="17.6682474">
        <ele>22.2476</ele>
        <time>2013-04-24T18:45:00Z</time>
      </trkpt>
      <trkpt lat="59.9510864" lon="17.6682195">
        <ele>21.767</ele>
        <time>2013-04-24T18:45:01Z</time>
      </trkpt>
      <trkpt lat="59.9511832" lon="17.668186">
        <ele>21.767</ele>
        <time>2013-04-24T18:45:02Z</time>
      </trkpt>
      <trkpt lat="59.9512795" lon="17.668151">
        <ele>21.2864</ele>
        <time>2013-04-24T18:45:03Z</time>
      </trkpt>
      <trkpt lat="59.9513748" lon="17.6681179">
        <ele>21.2864</ele>
        <time>2013-04-24T18:45:04Z</time>
      </trkpt>
      <trkpt lat="59.9514682" lon="17.6680912">
        <ele>20.8057</ele>
        <time>2013-04-24T18:45:05Z</time>
      </trkpt>
      <trkpt lat="59.9515598" lon="17.6680838">
        <ele>20.325</ele>
        <time>2013-04-24T18:45:06Z</time>
      </trkpt>
      <trkpt lat="59.9516411" lon="17.6681236">
        <ele>20.325</ele>
        <time>2013-04-24T18:45:07Z</time>
      </trkpt>
      <trkpt lat="59.9516973" lon="17.6682563">
        <ele>20.325</ele>
        <time>2013-04-24T18:45:08Z</time>
      </trkpt>
      <trkpt lat="59.9517477" lon="17.6684073">
        <ele>20.325</ele>
        <time>2013-04-24T18:45:09Z</time>
      </trkpt>
      <trkpt lat="59.9517854" lon="17.6685832">
        <ele>20.325</ele>
        <time>2013-04-24T18:45:10Z</time>
      </trkpt>
      <trkpt lat="59.9518111" lon="17.6687681">
        <ele>20.325</ele>
        <time>2013-04-24T18:45:11Z</time>
      </trkpt>
      <trkpt lat="59.9518244" lon="17.6689573">
        <ele>20.8057</ele>
        <time>2013-04-24T18:45:12Z</time>
      </trkpt>
      <trkpt lat="59.9518253" lon="17.6691461">
        <ele>20.8057</ele>
        <time>2013-04-24T18:45:13Z</time>
      </trkpt>
      <trkpt lat="59.9518176" lon="17.6693301">
        <ele>20.8057</ele>
        <time>2013-04-24T18:45:14Z</time>
      </trkpt>
      <trkpt lat="59.9518073" lon="17.669513">
        <ele>21.2864</ele>
        <time>2013-04-24T18:45:15Z</time>
      </trkpt>
      <trkpt lat="59.951797" lon="17.6696958">
        <ele>21.2864</ele>
        <time>2013-04-24T18:45:16Z</time>
      </trkpt>
      <trkpt lat="59.9517873" lon="17.6698787">
        <ele>21.2864</ele>
        <time>2013-04-24T18:45:17Z</time>
      </trkpt>
      <trkpt lat="59.9517778" lon="17.670061">
        <ele>21.2864</ele>
        <time>2013-04-24T18:45:18Z</time>
      </trkpt>
      <trkpt lat="59.9517659" lon="17.6702425">
        <ele>21.2864</ele>
        <time>2013-04-24T18:45:19Z</time>
      </trkpt>
      <trkpt lat="59.9517519" lon="17.6704221">
        <ele>21.2864</ele>
        <time>2013-04-24T18:45:20Z</time>
      </trkpt>
      <trkpt lat="59.9517388" lon="17.6706008">
        <ele>21.767</ele>
        <time>2013-04-24T18:45:21Z</time>
      </trkpt>
      <trkpt lat="59.95173" lon="17.6707787">
        <ele>21.767</ele>
        <time>2013-04-24T18:45:22Z</time>
      </trkpt>
      <trkpt lat="59.9517305" lon="17.6709557">
        <ele>22.2476</ele>
        <time>2013-04-24T18:45:23Z</time>
      </trkpt>
      <trkpt lat="59.9517431" lon="17.6711194">
        <ele>21.767</ele>
        <time>2013-04-24T18:45:24Z</time>
      </trkpt>
      <trkpt lat="59.9517671" lon="17.6712765">
        <ele>21.767</ele>
        <time>2013-04-24T18:45:25Z</time>
      </trkpt>
      <trkpt lat="59.9517909" lon="17.6714303">
        <ele>21.767</ele>
        <time>2013-04-24T18:45:26Z</time>
      </trkpt>
      <trkpt lat="59.9518064" lon="17.6715866">
        <ele>21.767</ele>
        <time>2013-04-24T18:45:27Z</time>
      </trkpt>
      <trkpt lat="59.951814" lon="17.6717467">
        <ele>22.2476</ele>
        <time>2013-04-24T18:45:28Z</time>
      </trkpt>
      <trkpt lat="59.9518196" lon="17.6719089">
        <ele>22.7283</ele>
        <time>2013-04-24T18:45:29Z</time>
      </trkpt>
      <trkpt lat="59.9518274" lon="17.6720725">
        <ele>22.7283</ele>
        <time>2013-04-24T18:45:30Z</time>
      </trkpt>
      <trkpt lat="59.951839" lon="17.6722416">
        <ele>23.209</ele>
        <time>2013-04-24T18:45:31Z</time>
      </trkpt>
      <trkpt lat="59.9518545" lon="17.6724101">
        <ele>23.6896</ele>
        <time>2013-04-24T18:45:32Z</time>
      </trkpt>
      <trkpt lat="59.951874" lon="17.6725741">
        <ele>24.1703</ele>
        <time>2013-04-24T18:45:33Z</time>
      </trkpt>
      <trkpt lat="59.951893" lon="17.6727284">
        <ele>24.1703</ele>
        <time>2013-04-24T18:45:34Z</time>
      </trkpt>
      <trkpt lat="59.9519125" lon="17.672879">
        <ele>24.651</ele>
        <time>2013-04-24T18:45:35Z</time>
      </trkpt>
      <trkpt lat="59.951932" lon="17.6730257">
        <ele>24.651</ele>
        <time>2013-04-24T18:45:36Z</time>
      </trkpt>
      <trkpt lat="59.9519522" lon="17.6731701">
        <ele>24.651</ele>
        <time>2013-04-24T18:45:37Z</time>
      </trkpt>
      <trkpt lat="59.9519735" lon="17.6733117">
        <ele>24.651</ele>
        <time>2013-04-24T18:45:38Z</time>
      </trkpt>
      <trkpt lat="59.9519964" lon="17.6734509">
        <ele>24.651</ele>
        <time>2013-04-24T18:45:39Z</time>
      </trkpt>
      <trkpt lat="59.9520204" lon="17.6735878">
        <ele>25.1317</ele>
        <time>2013-04-24T18:45:40Z</time>
      </trkpt>
      <trkpt lat="59.9520451" lon="17.673724">
        <ele>25.1317</ele>
        <time>2013-04-24T18:45:41Z</time>
      </trkpt>
      <trkpt lat="59.9520701" lon="17.6738611">
        <ele>25.1317</ele>
        <time>2013-04-24T18:45:42Z</time>
      </trkpt>
      <trkpt lat="59.9520949" lon="17.6739973">
        <ele>25.6123</ele>
        <time>2013-04-24T18:45:43Z</time>
      </trkpt>
      <trkpt lat="59.9521206" lon="17.6741299">
        <ele>25.6123</ele>
        <time>2013-04-24T18:45:44Z</time>
      </trkpt>
      <trkpt lat="59.9521461" lon="17.6742631">
        <ele>25.6123</ele>
        <time>2013-04-24T18:45:45Z</time>
      </trkpt>
      <trkpt lat="59.9521726" lon="17.6743973">
        <ele>25.6123</ele>
        <time>2013-04-24T18:45:46Z</time>
      </trkpt>
      <trkpt lat="59.9521999" lon="17.6745307">
        <ele>26.0929</ele>
        <time>2013-04-24T18:45:47Z</time>
      </trkpt>
      <trkpt lat="59.9522252" lon="17.6746631">
        <ele>26.5736</ele>
        <time>2013-04-24T18:45:48Z</time>
      </trkpt>
      <trkpt lat="59.9522488" lon="17.6747927">
        <ele>27.0543</ele>
        <time>2013-04-24T18:45:49Z</time>
      </trkpt>
      <trkpt lat="59.9522693" lon="17.6749129">
        <ele>27.5349</ele>
        <time>2013-04-24T18:45:50Z</time>
      </trkpt>
      <trkpt lat="59.9522865" lon="17.6750207">
        <ele>28.0155</ele>
        <time>2013-04-24T18:45:51Z</time>
      </trkpt>
      <trkpt lat="59.9523082" lon="17.675124">
        <ele>28.0155</ele>
        <time>2013-04-24T18:45:52Z</time>
      </trkpt>
      <trkpt lat="59.9523327" lon="17.6752224">
        <ele>28.0155</ele>
        <time>2013-04-24T18:45:53Z</time>
      </trkpt>
      <trkpt lat="59.9523628" lon="17.6753225">
        <ele>27.5349</ele>
        <time>2013-04-24T18:45:54Z</time>
      </trkpt>
      <trkpt lat="59.9523983" lon="17.6754257">
        <ele>27.5349</ele>
        <time>2013-04-24T18:45:55Z</time>
      </trkpt>
      <trkpt lat="59.9524369" lon="17.6755334">
        <ele>27.0543</ele>
        <time>2013-04-24T18:45:56Z</time>
      </trkpt>
      <trkpt lat="59.9524787" lon="17.6756441">
        <ele>27.0543</ele>
        <time>2013-04-24T18:45:57Z</time>
      </trkpt>
      <trkpt lat="59.9525247" lon="17.6757587">
        <ele>26.5736</ele>
        <time>2013-04-24T18:45:58Z</time>
      </trkpt>
      <trkpt lat="59.952573" lon="17.6758792">
        <ele>26.0929</ele>
        <time>2013-04-24T18:45:59Z</time>
      </trkpt>
      <trkpt lat="59.9526218" lon="17.6760065">
        <ele>26.0929</ele>
        <time>2013-04-24T18:46:00Z</time>
      </trkpt>
      <trkpt lat="59.9526704" lon="17.6761414">
        <ele>26.0929</ele>
        <time>2013-04-24T18:46:01Z</time>
      </trkpt>
      <trkpt lat="59.952718" lon="17.6762802">
        <ele>25.6123</ele>
        <time>2013-04-24T18:46:02Z</time>
      </trkpt>
      <trkpt lat="59.9527662" lon="17.6764196">
        <ele>25.6123</ele>
        <time>2013-04-24T18:46:03Z</time>
      </trkpt>
      <trkpt lat="59.9528179" lon="17.676558">
        <ele>25.6123</ele>
        <time>2013-04-24T18:46:04Z</time>
      </trkpt>
      <trkpt lat="59.9528733" lon="17.676697">
        <ele>25.1317</ele>
        <time>2013-04-24T18:46:05Z</time>
      </trkpt>
      <trkpt lat="59.9529283" lon="17.6768366">
        <ele>25.1317</ele>
        <time>2013-04-24T18:46:06Z</time>
      </trkpt>
      <trkpt lat="59.9529838" lon="17.6769775">
        <ele>25.1317</ele>
        <time>2013-04-24T18:46:07Z</time>
      </trkpt>
      <trkpt lat="59.9530393" lon="17.6771196">
        <ele>25.1317</ele>
        <time>2013-04-24T18:46:08Z</time>
      </trkpt>
      <trkpt lat="59.9530934" lon="17.6772629">
        <ele>25.1317</ele>
        <time>2013-04-24T18:46:09Z</time>
      </trkpt>
      <trkpt lat="59.9531453" lon="17.6774079">
        <ele>25.1317</ele>
        <time>2013-04-24T18:46:10Z</time>
      </trkpt>
      <trkpt lat="59.9531966" lon="17.6775532">
        <ele>25.1317</ele>
        <time>2013-04-24T18:46:11Z</time>
      </trkpt>
      <trkpt lat="59.953248" lon="17.6776972">
        <ele>25.1317</ele>
        <time>2013-04-24T18:46:12Z</time>
      </trkpt>
      <trkpt lat="59.9532993" lon="17.6778401">
        <ele>25.1317</ele>
        <time>2013-04-24T18:46:13Z</time>
      </trkpt>
      <trkpt lat="59.95335" lon="17.677981">
        <ele>24.651</ele>
        <time>2013-04-24T18:46:14Z</time>
      </trkpt>
      <trkpt lat="59.9534008" lon="17.6781212">
        <ele>24.651</ele>
        <time>2013-04-24T18:46:15Z</time>
      </trkpt>
      <trkpt lat="59.95345" lon="17.6782621">
        <ele>24.651</ele>
        <time>2013-04-24T18:46:16Z</time>
      </trkpt>
      <trkpt lat="59.9534985" lon="17.6784047">
        <ele>25.1317</ele>
        <time>2013-04-24T18:46:17Z</time>
      </trkpt>
      <trkpt lat="59.9535472" lon="17.6785482">
        <ele>24.651</ele>
        <time>2013-04-24T18:46:18Z</time>
      </trkpt>
      <trkpt lat="59.9535971" lon="17.6786933">
        <ele>24.651</ele>
        <time>2013-04-24T18:46:19Z</time>
      </trkpt>
      <trkpt lat="59.9536474" lon="17.6788399">
        <ele>24.651</ele>
        <time>2013-04-24T18:46:20Z</time>
      </trkpt>
      <trkpt lat="59.9536974" lon="17.6789875">
        <ele>24.651</ele>
        <time>2013-04-24T18:46:21Z</time>
      </trkpt>
      <trkpt lat="59.9537468" lon="17.679137">
        <ele>24.651</ele>
        <time>2013-04-24T18:46:22Z</time>
      </trkpt>
      <trkpt lat="59.9537965" lon="17.6792878">
        <ele>24.651</ele>
        <time>2013-04-24T18:46:23Z</time>
      </trkpt>
      <trkpt lat="59.9538463" lon="17.6794385">
        <ele>24.1703</ele>
        <time>2013-04-24T18:46:24Z</time>
      </trkpt>
      <trkpt lat="59.9538955" lon="17.6795888">
        <ele>24.1703</ele>
        <time>2013-04-24T18:46:25Z</time>
      </trkpt>
      <trkpt lat="59.9539456" lon="17.6797394">
        <ele>24.1703</ele>
        <time>2013-04-24T18:46:26Z</time>
      </trkpt>
      <trkpt lat="59.953997" lon="17.6798899">
        <ele>24.1703</ele>
        <time>2013-04-24T18:46:27Z</time>
      </trkpt>
      <trkpt lat="59.9540492" lon="17.6800401">
        <ele>24.1703</ele>
        <time>2013-04-24T18:46:28Z</time>
      </trkpt>
      <trkpt lat="59.9541016" lon="17.6801909">
        <ele>24.1703</ele>
        <time>2013-04-24T18:46:29Z</time>
      </trkpt>
      <trkpt lat="59.9541533" lon="17.6803426">
        <ele>24.1703</ele>
        <time>2013-04-24T18:46:30Z</time>
      </trkpt>
      <trkpt lat="59.9542037" lon="17.6804952">
        <ele>24.1703</ele>
        <time>2013-04-24T18:46:31Z</time>
      </trkpt>
      <trkpt lat="59.9542528" lon="17.6806484">
        <ele>24.1703</ele>
        <time>2013-04-24T18:46:32Z</time>
      </trkpt>
      <trkpt lat="59.9543007" lon="17.680802">
        <ele>24.1703</ele>
        <time>2013-04-24T18:46:33Z</time>
      </trkpt>
      <trkpt lat="59.9543487" lon="17.6809549">
        <ele>24.1703</ele>
        <time>2013-04-24T18:46:34Z</time>
      </trkpt>
      <trkpt lat="59.9543974" lon="17.681108">
        <ele>24.1703</ele>
        <time>2013-04-24T18:46:35Z</time>
      </trkpt>
      <trkpt lat="59.9544456" lon="17.6812599">
        <ele>24.1703</ele>
        <time>2013-04-24T18:46:36Z</time>
      </trkpt>
      <trkpt lat="59.9544957" lon="17.6814108">
        <ele>25.1317</ele>
        <time>2013-04-24T18:46:37Z</time>
      </trkpt>
      <trkpt lat="59.9545451" lon="17.6815563">
        <ele>25.1317</ele>
        <time>2013-04-24T18:46:38Z</time>
      </trkpt>
      <trkpt lat="59.9545961" lon="17.6816993">
        <ele>25.1317</ele>
        <time>2013-04-24T18:46:39Z</time>
      </trkpt>
      <trkpt lat="59.9546513" lon="17.6818322">
        <ele>25.1317</ele>
        <time>2013-04-24T18:46:40Z</time>
      </trkpt>
      <trkpt lat="59.9547165" lon="17.6819446">
        <ele>25.1317</ele>
        <time>2013-04-24T18:46:41Z</time>
      </trkpt>
      <trkpt lat="59.954787" lon="17.6820452">
        <ele>25.1317</ele>
        <time>2013-04-24T18:46:42Z</time>
      </trkpt>
      <trkpt lat="59.9548492" lon="17.6821615">
        <ele>25.1317</ele>
        <time>2013-04-24T18:46:43Z</time>
      </trkpt>
      <trkpt lat="59.9549" lon="17.6823006">
        <ele>25.1317</ele>
        <time>2013-04-24T18:46:44Z</time>
      </trkpt>
      <trkpt lat="59.9549449" lon="17.682449">
        <ele>25.1317</ele>
        <time>2013-04-24T18:46:45Z</time>
      </trkpt>
      <trkpt lat="59.9549868" lon="17.682601">
        <ele>25.1317</ele>
        <time>2013-04-24T18:46:46Z</time>
      </trkpt>
      <trkpt lat="59.9550297" lon="17.6827504">
        <ele>25.6123</ele>
        <time>2013-04-24T18:46:47Z</time>
      </trkpt>
      <trkpt lat="59.9550719" lon="17.682897">
        <ele>25.6123</ele>
        <time>2013-04-24T18:46:48Z</time>
      </trkpt>
      <trkpt lat="59.9551111" lon="17.6830434">
        <ele>25.6123</ele>
        <time>2013-04-24T18:46:49Z</time>
      </trkpt>
      <trkpt lat="59.9551475" lon="17.6831899">
        <ele>25.6123</ele>
        <time>2013-04-24T18:46:50Z</time>
      </trkpt>
      <trkpt lat="59.9551821" lon="17.6833358">
        <ele>25.6123</ele>
        <time>2013-04-24T18:46:51Z</time>
      </trkpt>
      <trkpt lat="59.9552173" lon="17.6834793">
        <ele>25.6123</ele>
        <time>2013-04-24T18:46:52Z</time>
      </trkpt>
      <trkpt lat="59.9552522" lon="17.6836222">
        <ele>25.6123</ele>
        <time>2013-04-24T18:46:53Z</time>
      </trkpt>
      <trkpt lat="59.9552857" lon="17.6837656">
        <ele>25.6123</ele>
        <time>2013-04-24T18:46:54Z</time>
      </trkpt>
      <trkpt lat="59.9553169" lon="17.6839045">
        <ele>26.0929</ele>
        <time>2013-04-24T18:46:55Z</time>
      </trkpt>
      <trkpt lat="59.9553428" lon="17.6840432">
        <ele>26.0929</ele>
        <time>2013-04-24T18:46:56Z</time>
      </trkpt>
      <trkpt lat="59.9553677" lon="17.6841804">
        <ele>26.0929</ele>
        <time>2013-04-24T18:46:57Z</time>
      </trkpt>
      <trkpt lat="59.9553909" lon="17.6843162">
        <ele>26.0929</ele>
        <time>2013-04-24T18:46:58Z</time>
      </trkpt>
      <trkpt lat="59.9554135" lon="17.6844498">
        <ele>26.5736</ele>
        <time>2013-04-24T18:46:59Z</time>
      </trkpt>
      <trkpt lat="59.955437" lon="17.6845799">
        <ele>26.5736</ele>
        <time>2013-04-24T18:47:00Z</time>
      </trkpt>
      <trkpt lat="59.9554588" lon="17.6847084">
        <ele>26.5736</ele>
        <time>2013-04-24T18:47:01Z</time>
      </trkpt>
      <trkpt lat="59.9554783" lon="17.6848348">
        <ele>26.5736</ele>
        <time>2013-04-24T18:47:02Z</time>
      </trkpt>
      <trkpt lat="59.9554962" lon="17.6849617">
        <ele>26.5736</ele>
        <time>2013-04-24T18:47:03Z</time>
      </trkpt>
      <trkpt lat="59.9555138" lon="17.6850893">
        <ele>26.5736</ele>
        <time>2013-04-24T18:47:04Z</time>
      </trkpt>
      <trkpt lat="59.9555344" lon="17.685219">
        <ele>26.5736</ele>
        <time>2013-04-24T18:47:05Z</time>
      </trkpt>
      <trkpt lat="59.9555548" lon="17.6853483">
        <ele>26.5736</ele>
        <time>2013-04-24T18:47:06Z</time>
      </trkpt>
      <trkpt lat="59.9555747" lon="17.6854777">
        <ele>27.0543</ele>
        <time>2013-04-24T18:47:07Z</time>
      </trkpt>
      <trkpt lat="59.955593" lon="17.6856075">
        <ele>27.0543</ele>
        <time>2013-04-24T18:47:08Z</time>
      </trkpt>
      <trkpt lat="59.9556097" lon="17.6857354">
        <ele>27.0543</ele>
        <time>2013-04-24T18:47:09Z</time>
      </trkpt>
      <trkpt lat="59.9556283" lon="17.6858635">
        <ele>27.0543</ele>
        <time>2013-04-24T18:47:10Z</time>
      </trkpt>
      <trkpt lat="59.955649" lon="17.6859935">
        <ele>27.0543</ele>
        <time>2013-04-24T18:47:11Z</time>
      </trkpt>
      <trkpt lat="59.9556665" lon="17.6861188">
        <ele>27.0543</ele>
        <time>2013-04-24T18:47:12Z</time>
      </trkpt>
      <trkpt lat="59.9556829" lon="17.6862452">
        <ele>27.0543</ele>
        <time>2013-04-24T18:47:13Z</time>
      </trkpt>
      <trkpt lat="59.9557011" lon="17.6863743">
        <ele>27.0543</ele>
        <time>2013-04-24T18:47:14Z</time>
      </trkpt>
      <trkpt lat="59.9557195" lon="17.6865021">
        <ele>27.0543</ele>
        <time>2013-04-24T18:47:15Z</time>
      </trkpt>
      <trkpt lat="59.9557379" lon="17.6866298">
        <ele>27.0543</ele>
        <time>2013-04-24T18:47:16Z</time>
      </trkpt>
      <trkpt lat="59.955755" lon="17.6867551">
        <ele>27.0543</ele>
        <time>2013-04-24T18:47:17Z</time>
      </trkpt>
      <trkpt lat="59.9557722" lon="17.6868783">
        <ele>27.0543</ele>
        <time>2013-04-24T18:47:18Z</time>
      </trkpt>
      <trkpt lat="59.9557901" lon="17.6869986">
        <ele>27.5349</ele>
        <time>2013-04-24T18:47:19Z</time>
      </trkpt>
      <trkpt lat="59.955808" lon="17.6871172">
        <ele>27.5349</ele>
        <time>2013-04-24T18:47:20Z</time>
      </trkpt>
      <trkpt lat="59.9558256" lon="17.6872331">
        <ele>27.5349</ele>
        <time>2013-04-24T18:47:21Z</time>
      </trkpt>
      <trkpt lat="59.955844" lon="17.6873504">
        <ele>27.5349</ele>
        <time>2013-04-24T18:47:22Z</time>
      </trkpt>
      <trkpt lat="59.9558633" lon="17.6874703">
        <ele>27.5349</ele>
        <time>2013-04-24T18:47:23Z</time>
      </trkpt>
      <trkpt lat="59.9558823" lon="17.6875884">
        <ele>27.5349</ele>
        <time>2013-04-24T18:47:24Z</time>
      </trkpt>
      <trkpt lat="59.955902" lon="17.6877051">
        <ele>27.5349</ele>
        <time>2013-04-24T18:47:25Z</time>
      </trkpt>
      <trkpt lat="59.9559209" lon="17.6878209">
        <ele>27.5349</ele>
        <time>2013-04-24T18:47:26Z</time>
      </trkpt>
      <trkpt lat="59.9559401" lon="17.6879382">
        <ele>27.5349</ele>
        <time>2013-04-24T18:47:27Z</time>
      </trkpt>
      <trkpt lat="59.9559582" lon="17.6880561">
        <ele>27.5349</ele>
        <time>2013-04-24T18:47:28Z</time>
      </trkpt>
      <trkpt lat="59.9559771" lon="17.6881744">
        <ele>28.0155</ele>
        <time>2013-04-24T18:47:29Z</time>
      </trkpt>
      <trkpt lat="59.9559963" lon="17.6882925">
        <ele>28.0155</ele>
        <time>2013-04-24T18:47:30Z</time>
      </trkpt>
      <trkpt lat="59.9560152" lon="17.6884101">
        <ele>28.0155</ele>
        <time>2013-04-24T18:47:31Z</time>
      </trkpt>
      <trkpt lat="59.9560349" lon="17.6885265">
        <ele>28.0155</ele>
        <time>2013-04-24T18:47:32Z</time>
      </trkpt>
      <trkpt lat="59.9560566" lon="17.6886406">
        <ele>28.0155</ele>
        <time>2013-04-24T18:47:33Z</time>
      </trkpt>
      <trkpt lat="59.9560825" lon="17.6887489">
        <ele>28.4962</ele>
        <time>2013-04-24T18:47:34Z</time>
      </trkpt>
      <trkpt lat="59.9561127" lon="17.6888476">
        <ele>28.4962</ele>
        <time>2013-04-24T18:47:35Z</time>
      </trkpt>
      <trkpt lat="59.9561445" lon="17.6889421">
        <ele>28.4962</ele>
        <time>2013-04-24T18:47:36Z</time>
      </trkpt>
      <trkpt lat="59.9561755" lon="17.6890405">
        <ele>28.9769</ele>
        <time>2013-04-24T18:47:37Z</time>
      </trkpt>
      <trkpt lat="59.9562032" lon="17.6891457">
        <ele>28.9769</ele>
        <time>2013-04-24T18:47:38Z</time>
      </trkpt>
      <trkpt lat="59.956227" lon="17.6892568">
        <ele>28.9769</ele>
        <time>2013-04-24T18:47:39Z</time>
      </trkpt>
      <trkpt lat="59.9562503" lon="17.689371">
        <ele>28.9769</ele>
        <time>2013-04-24T18:47:40Z</time>
      </trkpt>
      <trkpt lat="59.9562752" lon="17.6894861">
        <ele>28.9769</ele>
        <time>2013-04-24T18:47:41Z</time>
      </trkpt>
      <trkpt lat="59.9563" lon="17.6896016">
        <ele>29.4575</ele>
        <time>2013-04-24T18:47:42Z</time>
      </trkpt>
      <trkpt lat="59.9563245" lon="17.6897164">
        <ele>29.4575</ele>
        <time>2013-04-24T18:47:43Z</time>
      </trkpt>
      <trkpt lat="59.9563513" lon="17.6898296">
        <ele>29.4575</ele>
        <time>2013-04-24T18:47:44Z</time>
      </trkpt>
      <trkpt lat="59.9563794" lon="17.6899416">
        <ele>29.4575</ele>
        <time>2013-04-24T18:47:45Z</time>
      </trkpt>
      <trkpt lat="59.9564098" lon="17.6900511">
        <ele>29.4575</ele>
        <time>2013-04-24T18:47:46Z</time>
      </trkpt>
      <trkpt lat="59.9564415" lon="17.6901558">
        <ele>29.4575</ele>
        <time>2013-04-24T18:47:47Z</time>
      </trkpt>
      <trkpt lat="59.9564746" lon="17.690261">
        <ele>29.4575</ele>
        <time>2013-04-24T18:47:48Z</time>
      </trkpt>
      <trkpt lat="59.9565097" lon="17.690369">
        <ele>29.4575</ele>
        <time>2013-04-24T18:47:49Z</time>
      </trkpt>
      <trkpt lat="59.9565471" lon="17.6904801">
        <ele>29.4575</ele>
        <time>2013-04-24T18:47:50Z</time>
      </trkpt>
      <trkpt lat="59.956585" lon="17.6905946">
        <ele>28.9769</ele>
        <time>2013-04-24T18:47:51Z</time>
      </trkpt>
      <trkpt lat="59.9566242" lon="17.6907116">
        <ele>28.9769</ele>
        <time>2013-04-24T18:47:52Z</time>
      </trkpt>
      <trkpt lat="59.9566646" lon="17.6908313">
        <ele>28.9769</ele>
        <time>2013-04-24T18:47:53Z</time>
      </trkpt>
      <trkpt lat="59.9567053" lon="17.6909518">
        <ele>28.9769</ele>
        <time>2013-04-24T18:47:54Z</time>
      </trkpt>
      <trkpt lat="59.9567467" lon="17.6910758">
        <ele>28.4962</ele>
        <time>2013-04-24T18:47:55Z</time>
      </trkpt>
      <trkpt lat="59.9567891" lon="17.6912027">
        <ele>28.4962</ele>
        <time>2013-04-24T18:47:56Z</time>
      </trkpt>
      <trkpt lat="59.9568336" lon="17.691331">
        <ele>28.0155</ele>
        <time>2013-04-24T18:47:57Z</time>
      </trkpt>
      <trkpt lat="59.9568802" lon="17.6914582">
        <ele>28.0155</ele>
        <time>2013-04-24T18:47:58Z</time>
      </trkpt>
      <trkpt lat="59.9569284" lon="17.6915843">
        <ele>27.5349</ele>
        <time>2013-04-24T18:47:59Z</time>
      </trkpt>
      <trkpt lat="59.9569753" lon="17.6917123">
        <ele>27.5349</ele>
        <time>2013-04-24T18:48:00Z</time>
      </trkpt>
      <trkpt lat="59.9570196" lon="17.6918445">
        <ele>27.5349</ele>
        <time>2013-04-24T18:48:01Z</time>
      </trkpt>
      <trkpt lat="59.9570647" lon="17.6919802">
        <ele>27.5349</ele>
        <time>2013-04-24T18:48:02Z</time>
      </trkpt>
      <trkpt lat="59.9571114" lon="17.6921204">
        <ele>27.0543</ele>
        <time>2013-04-24T18:48:03Z</time>
      </trkpt>
      <trkpt lat="59.95716" lon="17.6922645">
        <ele>27.0543</ele>
        <time>2013-04-24T18:48:04Z</time>
      </trkpt>
      <trkpt lat="59.9572082" lon="17.6924112">
        <ele>27.0543</ele>
        <time>2013-04-24T18:48:05Z</time>
      </trkpt>
      <trkpt lat="59.9572564" lon="17.6925587">
        <ele>27.0543</ele>
        <time>2013-04-24T18:48:06Z</time>
      </trkpt>
      <trkpt lat="59.9573054" lon="17.692706">
        <ele>27.0543</ele>
        <time>2013-04-24T18:48:07Z</time>
      </trkpt>
      <trkpt lat="59.9573548" lon="17.692853">
        <ele>27.0543</ele>
        <time>2013-04-24T18:48:08Z</time>
      </trkpt>
      <trkpt lat="59.957405" lon="17.6929997">
        <ele>27.0543</ele>
        <time>2013-04-24T18:48:09Z</time>
      </trkpt>
      <trkpt lat="59.9574563" lon="17.6931479">
        <ele>27.0543</ele>
        <time>2013-04-24T18:48:10Z</time>
      </trkpt>
      <trkpt lat="59.9575081" lon="17.6932974">
        <ele>27.0543</ele>
        <time>2013-04-24T18:48:11Z</time>
      </trkpt>
      <trkpt lat="59.9575603" lon="17.6934477">
        <ele>27.0543</ele>
        <time>2013-04-24T18:48:12Z</time>
      </trkpt>
      <trkpt lat="59.9576118" lon="17.693599">
        <ele>26.5736</ele>
        <time>2013-04-24T18:48:13Z</time>
      </trkpt>
      <trkpt lat="59.9576643" lon="17.6937517">
        <ele>26.5736</ele>
        <time>2013-04-24T18:48:14Z</time>
      </trkpt>
      <trkpt lat="59.9577168" lon="17.6939055">
        <ele>26.5736</ele>
        <time>2013-04-24T18:48:15Z</time>
      </trkpt>
      <trkpt lat="59.9577697" lon="17.6940607">
        <ele>26.5736</ele>
        <time>2013-04-24T18:48:16Z</time>
      </trkpt>
      <trkpt lat="59.9578233" lon="17.6942164">
        <ele>26.5736</ele>
        <time>2013-04-24T18:48:17Z</time>
      </trkpt>
      <trkpt lat="59.9578786" lon="17.6943719">
        <ele>27.0543</ele>
        <time>2013-04-24T18:48:18Z</time>
      </trkpt>
      <trkpt lat="59.9579347" lon="17.6945278">
        <ele>27.0543</ele>
        <time>2013-04-24T18:48:19Z</time>
      </trkpt>
      <trkpt lat="59.9579906" lon="17.6946863">
        <ele>27.0543</ele>
        <time>2013-04-24T18:48:20Z</time>
      </trkpt>
      <trkpt lat="59.9580461" lon="17.6948464">
        <ele>27.0543</ele>
        <time>2013-04-24T18:48:21Z</time>
      </trkpt>
      <trkpt lat="59.9581026" lon="17.6950057">
        <ele>27.0543</ele>
        <time>2013-04-24T18:48:22Z</time>
      </trkpt>
      <trkpt lat="59.9581606" lon="17.6951629">
        <ele>27.0543</ele>
        <time>2013-04-24T18:48:23Z</time>
      </trkpt>
      <trkpt lat="59.9582191" lon="17.6953177">
        <ele>27.0543</ele>
        <time>2013-04-24T18:48:24Z</time>
      </trkpt>
      <trkpt lat="59.9582778" lon="17.695468">
        <ele>27.5349</ele>
        <time>2013-04-24T18:48:25Z</time>
      </trkpt>
      <trkpt lat="59.9583364" lon="17.6956135">
        <ele>27.5349</ele>
        <time>2013-04-24T18:48:26Z</time>
      </trkpt>
      <trkpt lat="59.9583945" lon="17.6957555">
        <ele>27.5349</ele>
        <time>2013-04-24T18:48:27Z</time>
      </trkpt>
      <trkpt lat="59.9584523" lon="17.6958944">
        <ele>27.5349</ele>
        <time>2013-04-24T18:48:28Z</time>
      </trkpt>
      <trkpt lat="59.958509" lon="17.6960331">
        <ele>27.5349</ele>
        <time>2013-04-24T18:48:29Z</time>
      </trkpt>
      <trkpt lat="59.9585643" lon="17.696174">
        <ele>27.5349</ele>
        <time>2013-04-24T18:48:30Z</time>
      </trkpt>
      <trkpt lat="59.9586175" lon="17.6963186">
        <ele>27.5349</ele>
        <time>2013-04-24T18:48:31Z</time>
      </trkpt>
      <trkpt lat="59.9586688" lon="17.696467">
        <ele>27.5349</ele>
        <time>2013-04-24T18:48:32Z</time>
      </trkpt>
      <trkpt lat="59.9587181" lon="17.6966199">
        <ele>27.5349</ele>
        <time>2013-04-24T18:48:33Z</time>
      </trkpt>
      <trkpt lat="59.9587637" lon="17.696777">
        <ele>28.0155</ele>
        <time>2013-04-24T18:48:34Z</time>
      </trkpt>
      <trkpt lat="59.9588046" lon="17.6969375">
        <ele>28.0155</ele>
        <time>2013-04-24T18:48:35Z</time>
      </trkpt>
      <trkpt lat="59.9588424" lon="17.6971003">
        <ele>28.0155</ele>
        <time>2013-04-24T18:48:36Z</time>
      </trkpt>
      <trkpt lat="59.9588764" lon="17.6972663">
        <ele>28.0155</ele>
        <time>2013-04-24T18:48:37Z</time>
      </trkpt>
      <trkpt lat="59.9589068" lon="17.6974342">
        <ele>28.4962</ele>
        <time>2013-04-24T18:48:38Z</time>
      </trkpt>
      <trkpt lat="59.9589352" lon="17.6976037">
        <ele>28.4962</ele>
        <time>2013-04-24T18:48:39Z</time>
      </trkpt>
      <trkpt lat="59.9589571" lon="17.6977709">
        <ele>28.9769</ele>
        <time>2013-04-24T18:48:40Z</time>
      </trkpt>
      <trkpt lat="59.9589721" lon="17.6979342">
        <ele>29.4575</ele>
        <time>2013-04-24T18:48:41Z</time>
      </trkpt>
      <trkpt lat="59.9589833" lon="17.6980984">
        <ele>29.4575</ele>
        <time>2013-04-24T18:48:42Z</time>
      </trkpt>
      <trkpt lat="59.9589906" lon="17.6982638">
        <ele>29.4575</ele>
        <time>2013-04-24T18:48:43Z</time>
      </trkpt>
      <trkpt lat="59.9589978" lon="17.6984247">
        <ele>29.9381</ele>
        <time>2013-04-24T18:48:44Z</time>
      </trkpt>
      <trkpt lat="59.9590052" lon="17.6985847">
        <ele>29.9381</ele>
        <time>2013-04-24T18:48:45Z</time>
      </trkpt>
      <trkpt lat="59.9590098" lon="17.6987409">
        <ele>29.9381</ele>
        <time>2013-04-24T18:48:46Z</time>
      </trkpt>
      <trkpt lat="59.9590132" lon="17.6988951">
        <ele>30.4188</ele>
        <time>2013-04-24T18:48:47Z</time>
      </trkpt>
      <trkpt lat="59.9590163" lon="17.699048">
        <ele>30.4188</ele>
        <time>2013-04-24T18:48:48Z</time>
      </trkpt>
      <trkpt lat="59.9590221" lon="17.6992021">
        <ele>30.4188</ele>
        <time>2013-04-24T18:48:49Z</time>
      </trkpt>
      <trkpt lat="59.9590308" lon="17.6993567">
        <ele>30.4188</ele>
        <time>2013-04-24T18:48:50Z</time>
      </trkpt>
      <trkpt lat="59.9590422" lon="17.6995116">
        <ele>30.4188</ele>
        <time>2013-04-24T18:48:51Z</time>
      </trkpt>
      <trkpt lat="59.9590554" lon="17.6996679">
        <ele>30.8995</ele>
        <time>2013-04-24T18:48:52Z</time>
      </trkpt>
      <trkpt lat="59.9590695" lon="17.6998253">
        <ele>30.8995</ele>
        <time>2013-04-24T18:48:53Z</time>
      </trkpt>
      <trkpt lat="59.959084" lon="17.6999825">
        <ele>30.8995</ele>
        <time>2013-04-24T18:48:54Z</time>
      </trkpt>
      <trkpt lat="59.9590984" lon="17.700139">
        <ele>31.3801</ele>
        <time>2013-04-24T18:48:55Z</time>
      </trkpt>
      <trkpt lat="59.959113" lon="17.7002948">
        <ele>31.3801</ele>
        <time>2013-04-24T18:48:56Z</time>
      </trkpt>
      <trkpt lat="59.9591277" lon="17.7004503">
        <ele>31.3801</ele>
        <time>2013-04-24T18:48:57Z</time>
      </trkpt>
      <trkpt lat="59.959142" lon="17.7006041">
        <ele>31.8607</ele>
        <time>2013-04-24T18:48:58Z</time>
      </trkpt>
      <trkpt lat="59.9591578" lon="17.7007541">
        <ele>31.8607</ele>
        <time>2013-04-24T18:48:59Z</time>
      </trkpt>
      <trkpt lat="59.9591745" lon="17.7009004">
        <ele>32.3416</ele>
        <time>2013-04-24T18:49:00Z</time>
      </trkpt>
      <trkpt lat="59.9591921" lon="17.7010442">
        <ele>32.3416</ele>
        <time>2013-04-24T18:49:01Z</time>
      </trkpt>
      <trkpt lat="59.9592095" lon="17.7011846">
        <ele>32.3416</ele>
        <time>2013-04-24T18:49:02Z</time>
      </trkpt>
      <trkpt lat="59.9592284" lon="17.701321">
        <ele>32.3416</ele>
        <time>2013-04-24T18:49:03Z</time>
      </trkpt>
      <trkpt lat="59.9592511" lon="17.7014563">
        <ele>32.3416</ele>
        <time>2013-04-24T18:49:04Z</time>
      </trkpt>
      <trkpt lat="59.9592774" lon="17.7015888">
        <ele>32.8223</ele>
        <time>2013-04-24T18:49:05Z</time>
      </trkpt>
      <trkpt lat="59.9593071" lon="17.7017209">
        <ele>32.8223</ele>
        <time>2013-04-24T18:49:06Z</time>
      </trkpt>
      <trkpt lat="59.9593408" lon="17.7018567">
        <ele>32.8223</ele>
        <time>2013-04-24T18:49:07Z</time>
      </trkpt>
      <trkpt lat="59.9593758" lon="17.70199">
        <ele>32.8223</ele>
        <time>2013-04-24T18:49:08Z</time>
      </trkpt>
      <trkpt lat="59.9594129" lon="17.7021249">
        <ele>32.8223</ele>
        <time>2013-04-24T18:49:09Z</time>
      </trkpt>
      <trkpt lat="59.9594523" lon="17.7022597">
        <ele>32.8223</ele>
        <time>2013-04-24T18:49:10Z</time>
      </trkpt>
      <trkpt lat="59.9594921" lon="17.7023943">
        <ele>32.8223</ele>
        <time>2013-04-24T18:49:11Z</time>
      </trkpt>
      <trkpt lat="59.9595304" lon="17.7025284">
        <ele>32.8223</ele>
        <time>2013-04-24T18:49:12Z</time>
      </trkpt>
      <trkpt lat="59.9595687" lon="17.7026615">
        <ele>32.8223</ele>
        <time>2013-04-24T18:49:13Z</time>
      </trkpt>
      <trkpt lat="59.9596079" lon="17.7027924">
        <ele>32.8223</ele>
        <time>2013-04-24T18:49:14Z</time>
      </trkpt>
      <trkpt lat="59.959648" lon="17.7029205">
        <ele>32.8223</ele>
        <time>2013-04-24T18:49:15Z</time>
      </trkpt>
      <trkpt lat="59.9596869" lon="17.7030479">
        <ele>32.8223</ele>
        <time>2013-04-24T18:49:16Z</time>
      </trkpt>
      <trkpt lat="59.9597256" lon="17.703177">
        <ele>32.3416</ele>
        <time>2013-04-24T18:49:17Z</time>
      </trkpt>
      <trkpt lat="59.9597661" lon="17.7033081">
        <ele>32.3416</ele>
        <time>2013-04-24T18:49:18Z</time>
      </trkpt>
      <trkpt lat="59.9598079" lon="17.7034418">
        <ele>31.8607</ele>
        <time>2013-04-24T18:49:19Z</time>
      </trkpt>
      <trkpt lat="59.959852" lon="17.703579">
        <ele>31.8607</ele>
        <time>2013-04-24T18:49:20Z</time>
      </trkpt>
      <trkpt lat="59.9598962" lon="17.7037173">
        <ele>31.8607</ele>
        <time>2013-04-24T18:49:21Z</time>
      </trkpt>
      <trkpt lat="59.9599423" lon="17.703853">
        <ele>31.3801</ele>
        <time>2013-04-24T18:49:22Z</time>
      </trkpt>
      <trkpt lat="59.959992" lon="17.7039782">
        <ele>30.8995</ele>
        <time>2013-04-24T18:49:23Z</time>
      </trkpt>
      <trkpt lat="59.9600458" lon="17.704096">
        <ele>30.8995</ele>
        <time>2013-04-24T18:49:24Z</time>
      </trkpt>
      <trkpt lat="59.9601002" lon="17.7042104">
        <ele>30.8995</ele>
        <time>2013-04-24T18:49:25Z</time>
      </trkpt>
      <trkpt lat="59.9601587" lon="17.7043182">
        <ele>30.8995</ele>
        <time>2013-04-24T18:49:26Z</time>
      </trkpt>
      <trkpt lat="59.960222" lon="17.7044182">
        <ele>30.8995</ele>
        <time>2013-04-24T18:49:27Z</time>
      </trkpt>
      <trkpt lat="59.9602885" lon="17.7045105">
        <ele>30.4188</ele>
        <time>2013-04-24T18:49:28Z</time>
      </trkpt>
      <trkpt lat="59.9603564" lon="17.7045974">
        <ele>30.4188</ele>
        <time>2013-04-24T18:49:29Z</time>
      </trkpt>
      <trkpt lat="59.9604245" lon="17.7046838">
        <ele>30.4188</ele>
        <time>2013-04-24T18:49:30Z</time>
      </trkpt>
      <trkpt lat="59.960493" lon="17.704773">
        <ele>30.4188</ele>
        <time>2013-04-24T18:49:31Z</time>
      </trkpt>
      <trkpt lat="59.9605618" lon="17.7048622">
        <ele>30.4188</ele>
        <time>2013-04-24T18:49:32Z</time>
      </trkpt>
      <trkpt lat="59.9606306" lon="17.7049502">
        <ele>29.9381</ele>
        <time>2013-04-24T18:49:33Z</time>
      </trkpt>
      <trkpt lat="59.9606994" lon="17.7050377">
        <ele>29.9381</ele>
        <time>2013-04-24T18:49:34Z</time>
      </trkpt>
      <trkpt lat="59.9607679" lon="17.7051257">
        <ele>29.9381</ele>
        <time>2013-04-24T18:49:35Z</time>
      </trkpt>
      <trkpt lat="59.9608374" lon="17.7052142">
        <ele>29.4575</ele>
        <time>2013-04-24T18:49:36Z</time>
      </trkpt>
      <trkpt lat="59.9609068" lon="17.7053049">
        <ele>29.4575</ele>
        <time>2013-04-24T18:49:37Z</time>
      </trkpt>
      <trkpt lat="59.9609762" lon="17.7053987">
        <ele>29.4575</ele>
        <time>2013-04-24T18:49:38Z</time>
      </trkpt>
      <trkpt lat="59.9610425" lon="17.7055003">
        <ele>29.4575</ele>
        <time>2013-04-24T18:49:39Z</time>
      </trkpt>
      <trkpt lat="59.9611057" lon="17.7056107">
        <ele>29.4575</ele>
        <time>2013-04-24T18:49:40Z</time>
      </trkpt>
      <trkpt lat="59.9611676" lon="17.705725">
        <ele>29.4575</ele>
        <time>2013-04-24T18:49:41Z</time>
      </trkpt>
      <trkpt lat="59.9612306" lon="17.7058383">
        <ele>29.4575</ele>
        <time>2013-04-24T18:49:42Z</time>
      </trkpt>
      <trkpt lat="59.9612933" lon="17.7059504">
        <ele>29.4575</ele>
        <time>2013-04-24T18:49:43Z</time>
      </trkpt>
      <trkpt lat="59.9613564" lon="17.7060628">
        <ele>29.4575</ele>
        <time>2013-04-24T18:49:44Z</time>
      </trkpt>
      <trkpt lat="59.9614191" lon="17.7061747">
        <ele>29.4575</ele>
        <time>2013-04-24T18:49:45Z</time>
      </trkpt>
      <trkpt lat="59.9614831" lon="17.7062846">
        <ele>29.4575</ele>
        <time>2013-04-24T18:49:46Z</time>
      </trkpt>
      <trkpt lat="59.9615491" lon="17.7063887">
        <ele>29.4575</ele>
        <time>2013-04-24T18:49:47Z</time>
      </trkpt>
      <trkpt lat="59.9616169" lon="17.7064864">
        <ele>29.4575</ele>
        <time>2013-04-24T18:49:48Z</time>
      </trkpt>
      <trkpt lat="59.9616848" lon="17.7065763">
        <ele>29.4575</ele>
        <time>2013-04-24T18:49:49Z</time>
      </trkpt>
      <trkpt lat="59.9617547" lon="17.706657">
        <ele>28.9769</ele>
        <time>2013-04-24T18:49:50Z</time>
      </trkpt>
      <trkpt lat="59.9618284" lon="17.7067262">
        <ele>28.9769</ele>
        <time>2013-04-24T18:49:51Z</time>
      </trkpt>
      <trkpt lat="59.9619045" lon="17.7067851">
        <ele>28.9769</ele>
        <time>2013-04-24T18:49:52Z</time>
      </trkpt>
      <trkpt lat="59.9619819" lon="17.7068404">
        <ele>28.9769</ele>
        <time>2013-04-24T18:49:53Z</time>
      </trkpt>
      <trkpt lat="59.9620582" lon="17.7068937">
        <ele>28.9769</ele>
        <time>2013-04-24T18:49:54Z</time>
      </trkpt>
      <trkpt lat="59.9621349" lon="17.7069427">
        <ele>28.9769</ele>
        <time>2013-04-24T18:49:55Z</time>
      </trkpt>
      <trkpt lat="59.9622121" lon="17.7069874">
        <ele>28.9769</ele>
        <time>2013-04-24T18:49:56Z</time>
      </trkpt>
      <trkpt lat="59.9622898" lon="17.707028">
        <ele>28.9769</ele>
        <time>2013-04-24T18:49:57Z</time>
      </trkpt>
      <trkpt lat="59.9623691" lon="17.7070641">
        <ele>28.9769</ele>
        <time>2013-04-24T18:49:58Z</time>
      </trkpt>
      <trkpt lat="59.9624494" lon="17.7070982">
        <ele>28.9769</ele>
        <time>2013-04-24T18:49:59Z</time>
      </trkpt>
      <trkpt lat="59.9625311" lon="17.7071308">
        <ele>28.9769</ele>
        <time>2013-04-24T18:50:00Z</time>
      </trkpt>
      <trkpt lat="59.962615" lon="17.7071585">
        <ele>28.9769</ele>
        <time>2013-04-24T18:50:01Z</time>
      </trkpt>
      <trkpt lat="59.9626992" lon="17.70718">
        <ele>28.9769</ele>
        <time>2013-04-24T18:50:02Z</time>
      </trkpt>
      <trkpt lat="59.9627857" lon="17.7071936">
        <ele>28.9769</ele>
        <time>2013-04-24T18:50:03Z</time>
      </trkpt>
      <trkpt lat="59.9628735" lon="17.7071988">
        <ele>28.4962</ele>
        <time>2013-04-24T18:50:04Z</time>
      </trkpt>
      <trkpt lat="59.9629641" lon="17.7071999">
        <ele>28.4962</ele>
        <time>2013-04-24T18:50:05Z</time>
      </trkpt>
      <trkpt lat="59.9630563" lon="17.7071986">
        <ele>28.0155</ele>
        <time>2013-04-24T18:50:06Z</time>
      </trkpt>
      <trkpt lat="59.9631497" lon="17.7071968">
        <ele>28.0155</ele>
        <time>2013-04-24T18:50:07Z</time>
      </trkpt>
      <trkpt lat="59.9632443" lon="17.7072009">
        <ele>28.0155</ele>
        <time>2013-04-24T18:50:08Z</time>
      </trkpt>
      <trkpt lat="59.9633378" lon="17.7072043">
        <ele>28.0155</ele>
        <time>2013-04-24T18:50:09Z</time>
      </trkpt>
      <trkpt lat="59.963431" lon="17.7072043">
        <ele>27.5349</ele>
        <time>2013-04-24T18:50:10Z</time>
      </trkpt>
      <trkpt lat="59.9635248" lon="17.7072071">
        <ele>27.5349</ele>
        <time>2013-04-24T18:50:11Z</time>
      </trkpt>
      <trkpt lat="59.9636196" lon="17.7072113">
        <ele>27.5349</ele>
        <time>2013-04-24T18:50:12Z</time>
      </trkpt>
      <trkpt lat="59.9637141" lon="17.7072189">
        <ele>27.0543</ele>
        <time>2013-04-24T18:50:13Z</time>
      </trkpt>
      <trkpt lat="59.9638082" lon="17.7072272">
        <ele>27.0543</ele>
        <time>2013-04-24T18:50:14Z</time>
      </trkpt>
      <trkpt lat="59.9639024" lon="17.7072356">
        <ele>26.5736</ele>
        <time>2013-04-24T18:50:15Z</time>
      </trkpt>
      <trkpt lat="59.9639975" lon="17.7072473">
        <ele>26.5736</ele>
        <time>2013-04-24T18:50:16Z</time>
      </trkpt>
      <trkpt lat="59.9640944" lon="17.7072627">
        <ele>26.5736</ele>
        <time>2013-04-24T18:50:17Z</time>
      </trkpt>
      <trkpt lat="59.964192" lon="17.7072789">
        <ele>26.5736</ele>
        <time>2013-04-24T18:50:18Z</time>
      </trkpt>
      <trkpt lat="59.96429" lon="17.7072983">
        <ele>26.5736</ele>
        <time>2013-04-24T18:50:19Z</time>
      </trkpt>
      <trkpt lat="59.9643898" lon="17.7073272">
        <ele>26.5736</ele>
        <time>2013-04-24T18:50:20Z</time>
      </trkpt>
      <trkpt lat="59.9644912" lon="17.7073661">
        <ele>27.0543</ele>
        <time>2013-04-24T18:50:21Z</time>
      </trkpt>
      <trkpt lat="59.9645896" lon="17.7074173">
        <ele>27.0543</ele>
        <time>2013-04-24T18:50:22Z</time>
      </trkpt>
      <trkpt lat="59.9646855" lon="17.7074805">
        <ele>26.5736</ele>
        <time>2013-04-24T18:50:23Z</time>
      </trkpt>
      <trkpt lat="59.9647807" lon="17.7075509">
        <ele>26.5736</ele>
        <time>2013-04-24T18:50:24Z</time>
      </trkpt>
      <trkpt lat="59.9648745" lon="17.7076224">
        <ele>26.5736</ele>
        <time>2013-04-24T18:50:25Z</time>
      </trkpt>
      <trkpt lat="59.9649669" lon="17.7076931">
        <ele>26.5736</ele>
        <time>2013-04-24T18:50:26Z</time>
      </trkpt>
      <trkpt lat="59.965058" lon="17.7077636">
        <ele>26.0929</ele>
        <time>2013-04-24T18:50:27Z</time>
      </trkpt>
      <trkpt lat="59.9651483" lon="17.7078344">
        <ele>26.0929</ele>
        <time>2013-04-24T18:50:28Z</time>
      </trkpt>
      <trkpt lat="59.9652394" lon="17.7079069">
        <ele>26.0929</ele>
        <time>2013-04-24T18:50:29Z</time>
      </trkpt>
      <trkpt lat="59.9653307" lon="17.7079824">
        <ele>26.0929</ele>
        <time>2013-04-24T18:50:30Z</time>
      </trkpt>
      <trkpt lat="59.9654217" lon="17.7080654">
        <ele>26.0929</ele>
        <time>2013-04-24T18:50:31Z</time>
      </trkpt>
      <trkpt lat="59.9655111" lon="17.7081601">
        <ele>26.0929</ele>
        <time>2013-04-24T18:50:32Z</time>
      </trkpt>
      <trkpt lat="59.9655979" lon="17.7082666">
        <ele>26.0929</ele>
        <time>2013-04-24T18:50:33Z</time>
      </trkpt>
      <trkpt lat="59.9656812" lon="17.7083866">
        <ele>26.0929</ele>
        <time>2013-04-24T18:50:34Z</time>
      </trkpt>
      <trkpt lat="59.9657588" lon="17.7085214">
        <ele>26.0929</ele>
        <time>2013-04-24T18:50:35Z</time>
      </trkpt>
      <trkpt lat="59.9658302" lon="17.7086699">
        <ele>26.0929</ele>
        <time>2013-04-24T18:50:36Z</time>
      </trkpt>
      <trkpt lat="59.9658937" lon="17.708828">
        <ele>26.0929</ele>
        <time>2013-04-24T18:50:37Z</time>
      </trkpt>
      <trkpt lat="59.9659507" lon="17.7089927">
        <ele>26.0929</ele>
        <time>2013-04-24T18:50:38Z</time>
      </trkpt>
      <trkpt lat="59.9660034" lon="17.709162">
        <ele>26.0929</ele>
        <time>2013-04-24T18:50:39Z</time>
      </trkpt>
      <trkpt lat="59.9660532" lon="17.7093313">
        <ele>26.0929</ele>
        <time>2013-04-24T18:50:40Z</time>
      </trkpt>
      <trkpt lat="59.9661013" lon="17.7094971">
        <ele>26.0929</ele>
        <time>2013-04-24T18:50:41Z</time>
      </trkpt>
      <trkpt lat="59.9661474" lon="17.70966">
        <ele>26.0929</ele>
        <time>2013-04-24T18:50:42Z</time>
      </trkpt>
      <trkpt lat="59.9661921" lon="17.7098209">
        <ele>26.0929</ele>
        <time>2013-04-24T18:50:43Z</time>
      </trkpt>
      <trkpt lat="59.9662356" lon="17.7099785">
        <ele>26.0929</ele>
        <time>2013-04-24T18:50:44Z</time>
      </trkpt>
      <trkpt lat="59.9662795" lon="17.710134">
        <ele>26.0929</ele>
        <time>2013-04-24T18:50:45Z</time>
      </trkpt>
      <trkpt lat="59.9663237" lon="17.7102896">
        <ele>26.0929</ele>
        <time>2013-04-24T18:50:46Z</time>
      </trkpt>
      <trkpt lat="59.9663661" lon="17.7104435">
        <ele>26.0929</ele>
        <time>2013-04-24T18:50:47Z</time>
      </trkpt>
      <trkpt lat="59.966408" lon="17.7105953">
        <ele>26.5736</ele>
        <time>2013-04-24T18:50:48Z</time>
      </trkpt>
      <trkpt lat="59.966449" lon="17.710743">
        <ele>26.5736</ele>
        <time>2013-04-24T18:50:49Z</time>
      </trkpt>
      <trkpt lat="59.9664902" lon="17.7108864">
        <ele>26.5736</ele>
        <time>2013-04-24T18:50:50Z</time>
      </trkpt>
      <trkpt lat="59.9665318" lon="17.711028">
        <ele>26.5736</ele>
        <time>2013-04-24T18:50:51Z</time>
      </trkpt>
      <trkpt lat="59.9665732" lon="17.7111692">
        <ele>26.5736</ele>
        <time>2013-04-24T18:50:52Z</time>
      </trkpt>
      <trkpt lat="59.9666137" lon="17.711309">
        <ele>27.0543</ele>
        <time>2013-04-24T18:50:53Z</time>
      </trkpt>
      <trkpt lat="59.9666557" lon="17.7114458">
        <ele>27.0543</ele>
        <time>2013-04-24T18:50:54Z</time>
      </trkpt>
      <trkpt lat="59.9667005" lon="17.7115797">
        <ele>27.0543</ele>
        <time>2013-04-24T18:50:55Z</time>
      </trkpt>
      <trkpt lat="59.9667466" lon="17.7117128">
        <ele>27.0543</ele>
        <time>2013-04-24T18:50:56Z</time>
      </trkpt>
      <trkpt lat="59.9667934" lon="17.711846">
        <ele>27.0543</ele>
        <time>2013-04-24T18:50:57Z</time>
      </trkpt>
      <trkpt lat="59.9668405" lon="17.7119789">
        <ele>27.0543</ele>
        <time>2013-04-24T18:50:58Z</time>
      </trkpt>
      <trkpt lat="59.966888" lon="17.712112">
        <ele>27.0543</ele>
        <time>2013-04-24T18:50:59Z</time>
      </trkpt>
      <trkpt lat="59.9669356" lon="17.7122448">
        <ele>27.0543</ele>
        <time>2013-04-24T18:51:00Z</time>
      </trkpt>
      <trkpt lat="59.966983" lon="17.7123794">
        <ele>27.0543</ele>
        <time>2013-04-24T18:51:01Z</time>
      </trkpt>
      <trkpt lat="59.9670296" lon="17.7125151">
        <ele>27.0543</ele>
        <time>2013-04-24T18:51:02Z</time>
      </trkpt>
      <trkpt lat="59.9670752" lon="17.7126526">
        <ele>27.0543</ele>
        <time>2013-04-24T18:51:03Z</time>
      </trkpt>
      <trkpt lat="59.9671181" lon="17.7127953">
        <ele>26.5736</ele>
        <time>2013-04-24T18:51:04Z</time>
      </trkpt>
      <trkpt lat="59.9671574" lon="17.7129444">
        <ele>26.5736</ele>
        <time>2013-04-24T18:51:05Z</time>
      </trkpt>
      <trkpt lat="59.9671938" lon="17.7131001">
        <ele>26.0929</ele>
        <time>2013-04-24T18:51:06Z</time>
      </trkpt>
      <trkpt lat="59.9672284" lon="17.7132627">
        <ele>26.0929</ele>
        <time>2013-04-24T18:51:07Z</time>
      </trkpt>
      <trkpt lat="59.9672611" lon="17.7134308">
        <ele>25.6123</ele>
        <time>2013-04-24T18:51:08Z</time>
      </trkpt>
      <trkpt lat="59.9672901" lon="17.713605">
        <ele>25.1317</ele>
        <time>2013-04-24T18:51:09Z</time>
      </trkpt>
      <trkpt lat="59.9673166" lon="17.7137869">
        <ele>24.651</ele>
        <time>2013-04-24T18:51:10Z</time>
      </trkpt>
      <trkpt lat="59.9673429" lon="17.7139752">
        <ele>24.651</ele>
        <time>2013-04-24T18:51:11Z</time>
      </trkpt>
      <trkpt lat="59.9673695" lon="17.7141691">
        <ele>24.1703</ele>
        <time>2013-04-24T18:51:12Z</time>
      </trkpt>
      <trkpt lat="59.9673973" lon="17.7143705">
        <ele>23.6896</ele>
        <time>2013-04-24T18:51:13Z</time>
      </trkpt>
      <trkpt lat="59.9674257" lon="17.7145753">
        <ele>23.209</ele>
        <time>2013-04-24T18:51:14Z</time>
      </trkpt>
      <trkpt lat="59.9674548" lon="17.714784">
        <ele>22.7283</ele>
        <time>2013-04-24T18:51:15Z</time>
      </trkpt>
      <trkpt lat="59.9674855" lon="17.7149947">
        <ele>22.7283</ele>
        <time>2013-04-24T18:51:16Z</time>
      </trkpt>
      <trkpt lat="59.9675213" lon="17.7152022">
        <ele>22.2476</ele>
        <time>2013-04-24T18:51:17Z</time>
      </trkpt>
      <trkpt lat="59.9675402" lon="17.715454">
        <ele>21.767</ele>
        <time>2013-04-24T18:51:18Z</time>
      </trkpt>
      <trkpt lat="59.9675776" lon="17.7156465">
        <ele>21.767</ele>
        <time>2013-04-24T18:51:19Z</time>
      </trkpt>
      <trkpt lat="59.9676155" lon="17.7158142">
        <ele>21.767</ele>
        <time>2013-04-24T18:51:20Z</time>
      </trkpt>
      <trkpt lat="59.9676743" lon="17.7159909">
        <ele>21.767</ele>
        <time>2013-04-24T18:51:21Z</time>
      </trkpt>
      <trkpt lat="59.9677319" lon="17.716154">
        <ele>22.2476</ele>
        <time>2013-04-24T18:51:22Z</time>
      </trkpt>
      <trkpt lat="59.9677937" lon="17.7163078">
        <ele>23.209</ele>
        <time>2013-04-24T18:51:23Z</time>
      </trkpt>
      <trkpt lat="59.9678564" lon="17.7164482">
        <ele>23.6896</ele>
        <time>2013-04-24T18:51:24Z</time>
      </trkpt>
      <trkpt lat="59.9679215" lon="17.7165722">
        <ele>24.1703</ele>
        <time>2013-04-24T18:51:25Z</time>
      </trkpt>
      <trkpt lat="59.9679909" lon="17.7166788">
        <ele>24.1703</ele>
        <time>2013-04-24T18:51:26Z</time>
      </trkpt>
      <trkpt lat="59.968062" lon="17.716771">
        <ele>24.651</ele>
        <time>2013-04-24T18:51:27Z</time>
      </trkpt>
      <trkpt lat="59.968133" lon="17.7168545">
        <ele>25.1317</ele>
        <time>2013-04-24T18:51:28Z</time>
      </trkpt>
      <trkpt lat="59.9682037" lon="17.716932">
        <ele>25.6123</ele>
        <time>2013-04-24T18:51:29Z</time>
      </trkpt>
      <trkpt lat="59.9682739" lon="17.7170032">
        <ele>25.6123</ele>
        <time>2013-04-24T18:51:30Z</time>
      </trkpt>
      <trkpt lat="59.9683458" lon="17.7170669">
        <ele>26.0929</ele>
        <time>2013-04-24T18:51:31Z</time>
      </trkpt>
      <trkpt lat="59.9684174" lon="17.7171228">
        <ele>27.0543</ele>
        <time>2013-04-24T18:51:32Z</time>
      </trkpt>
      <trkpt lat="59.9684893" lon="17.7171746">
        <ele>27.0543</ele>
        <time>2013-04-24T18:51:33Z</time>
      </trkpt>
      <trkpt lat="59.9685619" lon="17.7172164">
        <ele>27.5349</ele>
        <time>2013-04-24T18:51:34Z</time>
      </trkpt>
      <trkpt lat="59.968638" lon="17.7172492">
        <ele>27.5349</ele>
        <time>2013-04-24T18:51:35Z</time>
      </trkpt>
      <trkpt lat="59.9687163" lon="17.7172783">
        <ele>28.0155</ele>
        <time>2013-04-24T18:51:36Z</time>
      </trkpt>
      <trkpt lat="59.9687925" lon="17.7173089">
        <ele>28.0155</ele>
        <time>2013-04-24T18:51:37Z</time>
      </trkpt>
      <trkpt lat="59.968868" lon="17.7173383">
        <ele>28.0155</ele>
        <time>2013-04-24T18:51:38Z</time>
      </trkpt>
      <trkpt lat="59.9689431" lon="17.7173649">
        <ele>28.0155</ele>
        <time>2013-04-24T18:51:39Z</time>
      </trkpt>
      <trkpt lat="59.9690176" lon="17.7173897">
        <ele>28.0155</ele>
        <time>2013-04-24T18:51:40Z</time>
      </trkpt>
      <trkpt lat="59.9690929" lon="17.7174131">
        <ele>28.0155</ele>
        <time>2013-04-24T18:51:41Z</time>
      </trkpt>
      <trkpt lat="59.969169" lon="17.7174387">
        <ele>28.0155</ele>
        <time>2013-04-24T18:51:42Z</time>
      </trkpt>
      <trkpt lat="59.9692451" lon="17.7174697">
        <ele>28.0155</ele>
        <time>2013-04-24T18:51:43Z</time>
      </trkpt>
      <trkpt lat="59.9693213" lon="17.7175074">
        <ele>28.0155</ele>
        <time>2013-04-24T18:51:44Z</time>
      </trkpt>
      <trkpt lat="59.9693984" lon="17.7175511">
        <ele>28.0155</ele>
        <time>2013-04-24T18:51:45Z</time>
      </trkpt>
      <trkpt lat="59.9694767" lon="17.7175975">
        <ele>27.5349</ele>
        <time>2013-04-24T18:51:46Z</time>
      </trkpt>
      <trkpt lat="59.9695561" lon="17.717645">
        <ele>27.5349</ele>
        <time>2013-04-24T18:51:47Z</time>
      </trkpt>
      <trkpt lat="59.9696363" lon="17.7176936">
        <ele>27.5349</ele>
        <time>2013-04-24T18:51:48Z</time>
      </trkpt>
      <trkpt lat="59.9697165" lon="17.7177459">
        <ele>27.5349</ele>
        <time>2013-04-24T18:51:49Z</time>
      </trkpt>
      <trkpt lat="59.9697962" lon="17.7178037">
        <ele>27.0543</ele>
        <time>2013-04-24T18:51:50Z</time>
      </trkpt>
      <trkpt lat="59.9698752" lon="17.7178668">
        <ele>27.0543</ele>
        <time>2013-04-24T18:51:51Z</time>
      </trkpt>
      <trkpt lat="59.9699534" lon="17.7179355">
        <ele>27.0543</ele>
        <time>2013-04-24T18:51:52Z</time>
      </trkpt>
      <trkpt lat="59.9700311" lon="17.7180085">
        <ele>27.0543</ele>
        <time>2013-04-24T18:51:53Z</time>
      </trkpt>
      <trkpt lat="59.9701092" lon="17.7180823">
        <ele>27.0543</ele>
        <time>2013-04-24T18:51:54Z</time>
      </trkpt>
      <trkpt lat="59.970188" lon="17.7181546">
        <ele>26.5736</ele>
        <time>2013-04-24T18:51:55Z</time>
      </trkpt>
      <trkpt lat="59.9702673" lon="17.7182268">
        <ele>26.5736</ele>
        <time>2013-04-24T18:51:56Z</time>
      </trkpt>
      <trkpt lat="59.9703464" lon="17.7182993">
        <ele>26.5736</ele>
        <time>2013-04-24T18:51:57Z</time>
      </trkpt>
      <trkpt lat="59.9704253" lon="17.7183727">
        <ele>26.5736</ele>
        <time>2013-04-24T18:51:58Z</time>
      </trkpt>
      <trkpt lat="59.9705048" lon="17.7184459">
        <ele>26.5736</ele>
        <time>2013-04-24T18:51:59Z</time>
      </trkpt>
      <trkpt lat="59.9705851" lon="17.7185194">
        <ele>26.5736</ele>
        <time>2013-04-24T18:52:00Z</time>
      </trkpt>
      <trkpt lat="59.9706665" lon="17.7185925">
        <ele>26.5736</ele>
        <time>2013-04-24T18:52:01Z</time>
      </trkpt>
      <trkpt lat="59.9707487" lon="17.7186644">
        <ele>26.5736</ele>
        <time>2013-04-24T18:52:02Z</time>
      </trkpt>
      <trkpt lat="59.9708316" lon="17.7187365">
        <ele>26.5736</ele>
        <time>2013-04-24T18:52:03Z</time>
      </trkpt>
      <trkpt lat="59.9709151" lon="17.7188095">
        <ele>26.5736</ele>
        <time>2013-04-24T18:52:04Z</time>
      </trkpt>
      <trkpt lat="59.9709989" lon="17.7188846">
        <ele>26.5736</ele>
        <time>2013-04-24T18:52:05Z</time>
      </trkpt>
      <trkpt lat="59.971083" lon="17.7189618">
        <ele>26.0929</ele>
        <time>2013-04-24T18:52:06Z</time>
      </trkpt>
      <trkpt lat="59.9711676" lon="17.71904">
        <ele>26.0929</ele>
        <time>2013-04-24T18:52:07Z</time>
      </trkpt>
      <trkpt lat="59.9712528" lon="17.7191177">
        <ele>26.0929</ele>
        <time>2013-04-24T18:52:08Z</time>
      </trkpt>
      <trkpt lat="59.9713374" lon="17.7191974">
        <ele>26.0929</ele>
        <time>2013-04-24T18:52:09Z</time>
      </trkpt>
      <trkpt lat="59.9714221" lon="17.7192788">
        <ele>26.0929</ele>
        <time>2013-04-24T18:52:10Z</time>
      </trkpt>
      <trkpt lat="59.9715073" lon="17.7193579">
        <ele>26.0929</ele>
        <time>2013-04-24T18:52:11Z</time>
      </trkpt>
      <trkpt lat="59.9715938" lon="17.7194353">
        <ele>26.0929</ele>
        <time>2013-04-24T18:52:12Z</time>
      </trkpt>
      <trkpt lat="59.9716808" lon="17.719513">
        <ele>26.0929</ele>
        <time>2013-04-24T18:52:13Z</time>
      </trkpt>
      <trkpt lat="59.9717674" lon="17.7195915">
        <ele>26.0929</ele>
        <time>2013-04-24T18:52:14Z</time>
      </trkpt>
      <trkpt lat="59.9718534" lon="17.7196705">
        <ele>26.0929</ele>
        <time>2013-04-24T18:52:15Z</time>
      </trkpt>
      <trkpt lat="59.9719391" lon="17.719749">
        <ele>26.0929</ele>
        <time>2013-04-24T18:52:16Z</time>
      </trkpt>
      <trkpt lat="59.9720246" lon="17.7198243">
        <ele>26.0929</ele>
        <time>2013-04-24T18:52:17Z</time>
      </trkpt>
      <trkpt lat="59.9721103" lon="17.7198967">
        <ele>25.6123</ele>
        <time>2013-04-24T18:52:18Z</time>
      </trkpt>
      <trkpt lat="59.9721956" lon="17.7199704">
        <ele>25.6123</ele>
        <time>2013-04-24T18:52:19Z</time>
      </trkpt>
      <trkpt lat="59.9722802" lon="17.720046">
        <ele>25.6123</ele>
        <time>2013-04-24T18:52:20Z</time>
      </trkpt>
      <trkpt lat="59.9723646" lon="17.7201219">
        <ele>25.6123</ele>
        <time>2013-04-24T18:52:21Z</time>
      </trkpt>
      <trkpt lat="59.9724485" lon="17.7202015">
        <ele>25.6123</ele>
        <time>2013-04-24T18:52:22Z</time>
      </trkpt>
      <trkpt lat="59.9725324" lon="17.7202837">
        <ele>25.6123</ele>
        <time>2013-04-24T18:52:23Z</time>
      </trkpt>
      <trkpt lat="59.9726168" lon="17.7203657">
        <ele>25.6123</ele>
        <time>2013-04-24T18:52:24Z</time>
      </trkpt>
      <trkpt lat="59.9727021" lon="17.7204496">
        <ele>25.6123</ele>
        <time>2013-04-24T18:52:25Z</time>
      </trkpt>
      <trkpt lat="59.9727878" lon="17.7205377">
        <ele>25.6123</ele>
        <time>2013-04-24T18:52:26Z</time>
      </trkpt>
      <trkpt lat="59.9728739" lon="17.7206314">
        <ele>25.1317</ele>
        <time>2013-04-24T18:52:27Z</time>
      </trkpt>
      <trkpt lat="59.9729596" lon="17.7207319">
        <ele>25.1317</ele>
        <time>2013-04-24T18:52:28Z</time>
      </trkpt>
      <trkpt lat="59.9730433" lon="17.7208416">
        <ele>25.1317</ele>
        <time>2013-04-24T18:52:29Z</time>
      </trkpt>
      <trkpt lat="59.9731259" lon="17.7209594">
        <ele>25.1317</ele>
        <time>2013-04-24T18:52:30Z</time>
      </trkpt>
      <trkpt lat="59.973207" lon="17.7210836">
        <ele>25.1317</ele>
        <time>2013-04-24T18:52:31Z</time>
      </trkpt>
      <trkpt lat="59.9732861" lon="17.7212149">
        <ele>25.1317</ele>
        <time>2013-04-24T18:52:32Z</time>
      </trkpt>
      <trkpt lat="59.9733633" lon="17.7213525">
        <ele>25.1317</ele>
        <time>2013-04-24T18:52:33Z</time>
      </trkpt>
      <trkpt lat="59.9734375" lon="17.7214957">
        <ele>25.1317</ele>
        <time>2013-04-24T18:52:34Z</time>
      </trkpt>
      <trkpt lat="59.9735083" lon="17.7216467">
        <ele>25.1317</ele>
        <time>2013-04-24T18:52:35Z</time>
      </trkpt>
      <trkpt lat="59.9735758" lon="17.7218036">
        <ele>25.1317</ele>
        <time>2013-04-24T18:52:36Z</time>
      </trkpt>
      <trkpt lat="59.9736399" lon="17.7219641">
        <ele>25.1317</ele>
        <time>2013-04-24T18:52:37Z</time>
      </trkpt>
      <trkpt lat="59.9736995" lon="17.7221284">
        <ele>24.651</ele>
        <time>2013-04-24T18:52:38Z</time>
      </trkpt>
      <trkpt lat="59.9737549" lon="17.7222964">
        <ele>24.651</ele>
        <time>2013-04-24T18:52:39Z</time>
      </trkpt>
      <trkpt lat="59.9738066" lon="17.722467">
        <ele>24.651</ele>
        <time>2013-04-24T18:52:40Z</time>
      </trkpt>
      <trkpt lat="59.9738549" lon="17.7226382">
        <ele>25.1317</ele>
        <time>2013-04-24T18:52:41Z</time>
      </trkpt>
      <trkpt lat="59.9738996" lon="17.7228096">
        <ele>25.1317</ele>
        <time>2013-04-24T18:52:42Z</time>
      </trkpt>
      <trkpt lat="59.9739412" lon="17.7229805">
        <ele>25.1317</ele>
        <time>2013-04-24T18:52:43Z</time>
      </trkpt>
      <trkpt lat="59.9739786" lon="17.723152">
        <ele>25.1317</ele>
        <time>2013-04-24T18:52:44Z</time>
      </trkpt>
      <trkpt lat="59.974012" lon="17.7233259">
        <ele>25.1317</ele>
        <time>2013-04-24T18:52:45Z</time>
      </trkpt>
      <trkpt lat="59.974043" lon="17.7235016">
        <ele>25.1317</ele>
        <time>2013-04-24T18:52:46Z</time>
      </trkpt>
      <trkpt lat="59.9740716" lon="17.7236773">
        <ele>25.1317</ele>
        <time>2013-04-24T18:52:47Z</time>
      </trkpt>
      <trkpt lat="59.9740993" lon="17.7238529">
        <ele>25.1317</ele>
        <time>2013-04-24T18:52:48Z</time>
      </trkpt>
      <trkpt lat="59.9741258" lon="17.7240286">
        <ele>25.1317</ele>
        <time>2013-04-24T18:52:49Z</time>
      </trkpt>
      <trkpt lat="59.9741516" lon="17.724205">
        <ele>25.1317</ele>
        <time>2013-04-24T18:52:50Z</time>
      </trkpt>
      <trkpt lat="59.9741769" lon="17.7243823">
        <ele>25.1317</ele>
        <time>2013-04-24T18:52:51Z</time>
      </trkpt>
      <trkpt lat="59.9742015" lon="17.7245618">
        <ele>25.1317</ele>
        <time>2013-04-24T18:52:52Z</time>
      </trkpt>
      <trkpt lat="59.9742268" lon="17.7247429">
        <ele>25.1317</ele>
        <time>2013-04-24T18:52:53Z</time>
      </trkpt>
      <trkpt lat="59.9742526" lon="17.7249246">
        <ele>25.1317</ele>
        <time>2013-04-24T18:52:54Z</time>
      </trkpt>
      <trkpt lat="59.9742776" lon="17.725107">
        <ele>25.1317</ele>
        <time>2013-04-24T18:52:55Z</time>
      </trkpt>
      <trkpt lat="59.9743007" lon="17.7252909">
        <ele>25.1317</ele>
        <time>2013-04-24T18:52:56Z</time>
      </trkpt>
      <trkpt lat="59.9743206" lon="17.7254766">
        <ele>25.1317</ele>
        <time>2013-04-24T18:52:57Z</time>
      </trkpt>
      <trkpt lat="59.9743383" lon="17.7256637">
        <ele>25.1317</ele>
        <time>2013-04-24T18:52:58Z</time>
      </trkpt>
      <trkpt lat="59.9743551" lon="17.725853">
        <ele>25.6123</ele>
        <time>2013-04-24T18:52:59Z</time>
      </trkpt>
      <trkpt lat="59.9743691" lon="17.7260444">
        <ele>25.6123</ele>
        <time>2013-04-24T18:53:00Z</time>
      </trkpt>
      <trkpt lat="59.9743795" lon="17.7262388">
        <ele>25.6123</ele>
        <time>2013-04-24T18:53:01Z</time>
      </trkpt>
      <trkpt lat="59.9743859" lon="17.7264336">
        <ele>25.6123</ele>
        <time>2013-04-24T18:53:02Z</time>
      </trkpt>
      <trkpt lat="59.9743901" lon="17.7266289">
        <ele>25.1317</ele>
        <time>2013-04-24T18:53:03Z</time>
      </trkpt>
      <trkpt lat="59.9743942" lon="17.7268278">
        <ele>25.1317</ele>
        <time>2013-04-24T18:53:04Z</time>
      </trkpt>
      <trkpt lat="59.9743984" lon="17.7270277">
        <ele>25.1317</ele>
        <time>2013-04-24T18:53:05Z</time>
      </trkpt>
      <trkpt lat="59.9744035" lon="17.7272319">
        <ele>25.1317</ele>
        <time>2013-04-24T18:53:06Z</time>
      </trkpt>
      <trkpt lat="59.9744082" lon="17.7274395">
        <ele>25.1317</ele>
        <time>2013-04-24T18:53:07Z</time>
      </trkpt>
      <trkpt lat="59.9744121" lon="17.7276488">
        <ele>24.651</ele>
        <time>2013-04-24T18:53:08Z</time>
      </trkpt>
      <trkpt lat="59.9744152" lon="17.7278623">
        <ele>24.651</ele>
        <time>2013-04-24T18:53:09Z</time>
      </trkpt>
      <trkpt lat="59.9744189" lon="17.7280776">
        <ele>24.651</ele>
        <time>2013-04-24T18:53:10Z</time>
      </trkpt>
      <trkpt lat="59.9744241" lon="17.7282948">
        <ele>24.651</ele>
        <time>2013-04-24T18:53:11Z</time>
      </trkpt>
      <trkpt lat="59.9744297" lon="17.7285107">
        <ele>24.651</ele>
        <time>2013-04-24T18:53:12Z</time>
      </trkpt>
      <trkpt lat="59.9744361" lon="17.7287268">
        <ele>24.651</ele>
        <time>2013-04-24T18:53:13Z</time>
      </trkpt>
      <trkpt lat="59.9744437" lon="17.7289429">
        <ele>24.651</ele>
        <time>2013-04-24T18:53:14Z</time>
      </trkpt>
      <trkpt lat="59.974452" lon="17.7291588">
        <ele>24.651</ele>
        <time>2013-04-24T18:53:15Z</time>
      </trkpt>
      <trkpt lat="59.9744564" lon="17.7293754">
        <ele>24.651</ele>
        <time>2013-04-24T18:53:16Z</time>
      </trkpt>
      <trkpt lat="59.9744531" lon="17.7295894">
        <ele>24.651</ele>
        <time>2013-04-24T18:53:17Z</time>
      </trkpt>
      <trkpt lat="59.9744428" lon="17.7298025">
        <ele>25.1317</ele>
        <time>2013-04-24T18:53:18Z</time>
      </trkpt>
      <trkpt lat="59.9744273" lon="17.7300104">
        <ele>25.1317</ele>
        <time>2013-04-24T18:53:19Z</time>
      </trkpt>
      <trkpt lat="59.9744102" lon="17.7302162">
        <ele>25.1317</ele>
        <time>2013-04-24T18:53:20Z</time>
      </trkpt>
      <trkpt lat="59.9743929" lon="17.7304213">
        <ele>25.1317</ele>
        <time>2013-04-24T18:53:21Z</time>
      </trkpt>
      <trkpt lat="59.9743756" lon="17.7306237">
        <ele>25.1317</ele>
        <time>2013-04-24T18:53:22Z</time>
      </trkpt>
      <trkpt lat="59.974362" lon="17.7308243">
        <ele>25.1317</ele>
        <time>2013-04-24T18:53:23Z</time>
      </trkpt>
      <trkpt lat="59.9743481" lon="17.7310212">
        <ele>25.1317</ele>
        <time>2013-04-24T18:53:24Z</time>
      </trkpt>
      <trkpt lat="59.9743361" lon="17.7312092">
        <ele>24.651</ele>
        <time>2013-04-24T18:53:25Z</time>
      </trkpt>
      <trkpt lat="59.9743294" lon="17.7313942">
        <ele>24.651</ele>
        <time>2013-04-24T18:53:26Z</time>
      </trkpt>
      <trkpt lat="59.9743264" lon="17.7315779">
        <ele>24.1703</ele>
        <time>2013-04-24T18:53:27Z</time>
      </trkpt>
      <trkpt lat="59.9743242" lon="17.7317587">
        <ele>24.1703</ele>
        <time>2013-04-24T18:53:28Z</time>
      </trkpt>
      <trkpt lat="59.9743221" lon="17.731936">
        <ele>23.6896</ele>
        <time>2013-04-24T18:53:29Z</time>
      </trkpt>
      <trkpt lat="59.9743201" lon="17.7321106">
        <ele>23.6896</ele>
        <time>2013-04-24T18:53:30Z</time>
      </trkpt>
      <trkpt lat="59.9743175" lon="17.7322824">
        <ele>23.209</ele>
        <time>2013-04-24T18:53:31Z</time>
      </trkpt>
      <trkpt lat="59.974318" lon="17.732455">
        <ele>23.209</ele>
        <time>2013-04-24T18:53:32Z</time>
      </trkpt>
      <trkpt lat="59.9743201" lon="17.7326263">
        <ele>23.209</ele>
        <time>2013-04-24T18:53:33Z</time>
      </trkpt>
      <trkpt lat="59.9743201" lon="17.7327959">
        <ele>22.7283</ele>
        <time>2013-04-24T18:53:34Z</time>
      </trkpt>
      <trkpt lat="59.9743166" lon="17.732965">
        <ele>22.7283</ele>
        <time>2013-04-24T18:53:35Z</time>
      </trkpt>
      <trkpt lat="59.9743116" lon="17.7331391">
        <ele>22.7283</ele>
        <time>2013-04-24T18:53:36Z</time>
      </trkpt>
      <trkpt lat="59.9743047" lon="17.7333124">
        <ele>22.7283</ele>
        <time>2013-04-24T18:53:37Z</time>
      </trkpt>
      <trkpt lat="59.9742974" lon="17.7334847">
        <ele>22.7283</ele>
        <time>2013-04-24T18:53:38Z</time>
      </trkpt>
      <trkpt lat="59.9742906" lon="17.7336565">
        <ele>22.7283</ele>
        <time>2013-04-24T18:53:39Z</time>
      </trkpt>
      <trkpt lat="59.9742828" lon="17.7338271">
        <ele>22.7283</ele>
        <time>2013-04-24T18:53:40Z</time>
      </trkpt>
      <trkpt lat="59.974275" lon="17.7339972">
        <ele>22.7283</ele>
        <time>2013-04-24T18:53:41Z</time>
      </trkpt>
      <trkpt lat="59.9742697" lon="17.7341685">
        <ele>23.209</ele>
        <time>2013-04-24T18:53:42Z</time>
      </trkpt>
      <trkpt lat="59.974264" lon="17.7343312">
        <ele>22.7283</ele>
        <time>2013-04-24T18:53:43Z</time>
      </trkpt>
      <trkpt lat="59.9742609" lon="17.7344954">
        <ele>22.7283</ele>
        <time>2013-04-24T18:53:44Z</time>
      </trkpt>
      <trkpt lat="59.9742621" lon="17.7346604">
        <ele>22.7283</ele>
        <time>2013-04-24T18:53:45Z</time>
      </trkpt>
      <trkpt lat="59.9742692" lon="17.7348267">
        <ele>22.7283</ele>
        <time>2013-04-24T18:53:46Z</time>
      </trkpt>
      <trkpt lat="59.9742807" lon="17.7349899">
        <ele>22.7283</ele>
        <time>2013-04-24T18:53:47Z</time>
      </trkpt>
      <trkpt lat="59.9742963" lon="17.7351559">
        <ele>22.7283</ele>
        <time>2013-04-24T18:53:48Z</time>
      </trkpt>
      <trkpt lat="59.9743126" lon="17.7353193">
        <ele>22.7283</ele>
        <time>2013-04-24T18:53:49Z</time>
      </trkpt>
      <trkpt lat="59.974332" lon="17.7354807">
        <ele>23.209</ele>
        <time>2013-04-24T18:53:50Z</time>
      </trkpt>
      <trkpt lat="59.9743547" lon="17.735638">
        <ele>23.209</ele>
        <time>2013-04-24T18:53:51Z</time>
      </trkpt>
      <trkpt lat="59.9743812" lon="17.7357925">
        <ele>23.209</ele>
        <time>2013-04-24T18:53:52Z</time>
      </trkpt>
      <trkpt lat="59.9744123" lon="17.7359483">
        <ele>23.209</ele>
        <time>2013-04-24T18:53:53Z</time>
      </trkpt>
      <trkpt lat="59.9744465" lon="17.7361026">
        <ele>23.209</ele>
        <time>2013-04-24T18:53:54Z</time>
      </trkpt>
      <trkpt lat="59.9744833" lon="17.7362545">
        <ele>23.209</ele>
        <time>2013-04-24T18:53:55Z</time>
      </trkpt>
      <trkpt lat="59.974523" lon="17.7364052">
        <ele>23.6896</ele>
        <time>2013-04-24T18:53:56Z</time>
      </trkpt>
      <trkpt lat="59.9745655" lon="17.7365543">
        <ele>23.6896</ele>
        <time>2013-04-24T18:53:57Z</time>
      </trkpt>
      <trkpt lat="59.9746108" lon="17.7367006">
        <ele>23.6896</ele>
        <time>2013-04-24T18:53:58Z</time>
      </trkpt>
      <trkpt lat="59.9746589" lon="17.7368456">
        <ele>23.6896</ele>
        <time>2013-04-24T18:53:59Z</time>
      </trkpt>
      <trkpt lat="59.9747096" lon="17.7369897">
        <ele>24.1703</ele>
        <time>2013-04-24T18:54:00Z</time>
      </trkpt>
      <trkpt lat="59.9747621" lon="17.7371298">
        <ele>24.1703</ele>
        <time>2013-04-24T18:54:01Z</time>
      </trkpt>
      <trkpt lat="59.9748153" lon="17.7372629">
        <ele>24.1703</ele>
        <time>2013-04-24T18:54:02Z</time>
      </trkpt>
      <trkpt lat="59.9748711" lon="17.7373895">
        <ele>24.651</ele>
        <time>2013-04-24T18:54:03Z</time>
      </trkpt>
      <trkpt lat="59.9749287" lon="17.7375077">
        <ele>24.651</ele>
        <time>2013-04-24T18:54:04Z</time>
      </trkpt>
      <trkpt lat="59.9749895" lon="17.7376191">
        <ele>24.651</ele>
        <time>2013-04-24T18:54:05Z</time>
      </trkpt>
      <trkpt lat="59.9750509" lon="17.7377252">
        <ele>25.1317</ele>
        <time>2013-04-24T18:54:06Z</time>
      </trkpt>
      <trkpt lat="59.9751114" lon="17.7378286">
        <ele>25.1317</ele>
        <time>2013-04-24T18:54:07Z</time>
      </trkpt>
      <trkpt lat="59.9751707" lon="17.7379293">
        <ele>25.1317</ele>
        <time>2013-04-24T18:54:08Z</time>
      </trkpt>
      <trkpt lat="59.9752285" lon="17.7380302">
        <ele>25.1317</ele>
        <time>2013-04-24T18:54:09Z</time>
      </trkpt>
      <trkpt lat="59.9752852" lon="17.7381314">
        <ele>25.1317</ele>
        <time>2013-04-24T18:54:10Z</time>
      </trkpt>
      <trkpt lat="59.9753432" lon="17.7382301">
        <ele>25.1317</ele>
        <time>2013-04-24T18:54:11Z</time>
      </trkpt>
      <trkpt lat="59.9754027" lon="17.7383281">
        <ele>25.1317</ele>
        <time>2013-04-24T18:54:12Z</time>
      </trkpt>
      <trkpt lat="59.9754612" lon="17.7384302">
        <ele>25.1317</ele>
        <time>2013-04-24T18:54:13Z</time>
      </trkpt>
      <trkpt lat="59.9755186" lon="17.7385362">
        <ele>25.1317</ele>
        <time>2013-04-24T18:54:14Z</time>
      </trkpt>
      <trkpt lat="59.9755757" lon="17.7386446">
        <ele>25.1317</ele>
        <time>2013-04-24T18:54:15Z</time>
      </trkpt>
      <trkpt lat="59.975632" lon="17.7387527">
        <ele>25.1317</ele>
        <time>2013-04-24T18:54:16Z</time>
      </trkpt>
      <trkpt lat="59.9756902" lon="17.7388582">
        <ele>25.6123</ele>
        <time>2013-04-24T18:54:17Z</time>
      </trkpt>
      <trkpt lat="59.9757477" lon="17.7389583">
        <ele>25.6123</ele>
        <time>2013-04-24T18:54:18Z</time>
      </trkpt>
      <trkpt lat="59.9758042" lon="17.7390555">
        <ele>26.0929</ele>
        <time>2013-04-24T18:54:19Z</time>
      </trkpt>
      <trkpt lat="59.9758596" lon="17.7391523">
        <ele>26.5736</ele>
        <time>2013-04-24T18:54:20Z</time>
      </trkpt>
      <trkpt lat="59.9759151" lon="17.7392481">
        <ele>26.5736</ele>
        <time>2013-04-24T18:54:21Z</time>
      </trkpt>
      <trkpt lat="59.9759721" lon="17.7393367">
        <ele>27.0543</ele>
        <time>2013-04-24T18:54:22Z</time>
      </trkpt>
      <trkpt lat="59.9760285" lon="17.739418">
        <ele>27.5349</ele>
        <time>2013-04-24T18:54:23Z</time>
      </trkpt>
      <trkpt lat="59.9760819" lon="17.7394927">
        <ele>28.0155</ele>
        <time>2013-04-24T18:54:24Z</time>
      </trkpt>
      <trkpt lat="59.976134" lon="17.7395584">
        <ele>28.4962</ele>
        <time>2013-04-24T18:54:25Z</time>
      </trkpt>
      <trkpt lat="59.9761839" lon="17.73962">
        <ele>28.9769</ele>
        <time>2013-04-24T18:54:26Z</time>
      </trkpt>
      <trkpt lat="59.9762334" lon="17.7396708">
        <ele>29.4575</ele>
        <time>2013-04-24T18:54:27Z</time>
      </trkpt>
      <trkpt lat="59.9762831" lon="17.7396992">
        <ele>29.9381</ele>
        <time>2013-04-24T18:54:28Z</time>
      </trkpt>
      <trkpt lat="59.9763347" lon="17.7397009">
        <ele>30.4188</ele>
        <time>2013-04-24T18:54:29Z</time>
      </trkpt>
      <trkpt lat="59.976395" lon="17.7396831">
        <ele>30.4188</ele>
        <time>2013-04-24T18:54:30Z</time>
      </trkpt>
      <trkpt lat="59.9764486" lon="17.7396485">
        <ele>30.4188</ele>
        <time>2013-04-24T18:54:31Z</time>
      </trkpt>
      <trkpt lat="59.976502" lon="17.7396087">
        <ele>30.8995</ele>
        <time>2013-04-24T18:54:32Z</time>
      </trkpt>
      <trkpt lat="59.9765509" lon="17.7395641">
        <ele>30.8995</ele>
        <time>2013-04-24T18:54:33Z</time>
      </trkpt>
      <trkpt lat="59.9766019" lon="17.7395193">
        <ele>30.8995</ele>
        <time>2013-04-24T18:54:34Z</time>
      </trkpt>
      <trkpt lat="59.9766494" lon="17.7394765">
        <ele>31.3801</ele>
        <time>2013-04-24T18:54:35Z</time>
      </trkpt>
      <trkpt lat="59.9766975" lon="17.7394385">
        <ele>31.8607</ele>
        <time>2013-04-24T18:54:36Z</time>
      </trkpt>
      <trkpt lat="59.9767433" lon="17.7394073">
        <ele>31.8607</ele>
        <time>2013-04-24T18:54:37Z</time>
      </trkpt>
      <trkpt lat="59.97679" lon="17.7393829">
        <ele>32.3416</ele>
        <time>2013-04-24T18:54:38Z</time>
      </trkpt>
      <trkpt lat="59.9768371" lon="17.7393636">
        <ele>32.3416</ele>
        <time>2013-04-24T18:54:39Z</time>
      </trkpt>
      <trkpt lat="59.9768838" lon="17.7393474">
        <ele>32.8223</ele>
        <time>2013-04-24T18:54:40Z</time>
      </trkpt>
      <trkpt lat="59.9769298" lon="17.739332">
        <ele>32.8223</ele>
        <time>2013-04-24T18:54:41Z</time>
      </trkpt>
      <trkpt lat="59.9769776" lon="17.7393153">
        <ele>32.8223</ele>
        <time>2013-04-24T18:54:42Z</time>
      </trkpt>
      <trkpt lat="59.9770245" lon="17.7392942">
        <ele>33.3029</ele>
        <time>2013-04-24T18:54:43Z</time>
      </trkpt>
      <trkpt lat="59.9770677" lon="17.7392673">
        <ele>33.3029</ele>
        <time>2013-04-24T18:54:44Z</time>
      </trkpt>
      <trkpt lat="59.9771112" lon="17.7392401">
        <ele>33.3029</ele>
        <time>2013-04-24T18:54:45Z</time>
      </trkpt>
      <trkpt lat="59.9771589" lon="17.739216">
        <ele>33.7834</ele>
        <time>2013-04-24T18:54:46Z</time>
      </trkpt>
      <trkpt lat="59.9772059" lon="17.7391937">
        <ele>33.7834</ele>
        <time>2013-04-24T18:54:47Z</time>
      </trkpt>
      <trkpt lat="59.9772541" lon="17.7391704">
        <ele>33.7834</ele>
        <time>2013-04-24T18:54:48Z</time>
      </trkpt>
      <trkpt lat="59.9772998" lon="17.7391429">
        <ele>33.7834</ele>
        <time>2013-04-24T18:54:49Z</time>
      </trkpt>
      <trkpt lat="59.9773477" lon="17.739113">
        <ele>33.7834</ele>
        <time>2013-04-24T18:54:50Z</time>
      </trkpt>
      <trkpt lat="59.9773955" lon="17.739089">
        <ele>34.2642</ele>
        <time>2013-04-24T18:54:51Z</time>
      </trkpt>
      <trkpt lat="59.9774433" lon="17.7390715">
        <ele>34.2642</ele>
        <time>2013-04-24T18:54:52Z</time>
      </trkpt>
      <trkpt lat="59.9774875" lon="17.7390559">
        <ele>34.2642</ele>
        <time>2013-04-24T18:54:53Z</time>
      </trkpt>
      <trkpt lat="59.9775302" lon="17.7390412">
        <ele>34.7449</ele>
        <time>2013-04-24T18:54:54Z</time>
      </trkpt>
      <trkpt lat="59.9775715" lon="17.7390295">
        <ele>34.7449</ele>
        <time>2013-04-24T18:54:55Z</time>
      </trkpt>
      <trkpt lat="59.9776127" lon="17.7390239">
        <ele>34.7449</ele>
        <time>2013-04-24T18:54:56Z</time>
      </trkpt>
      <trkpt lat="59.977653" lon="17.7390226">
        <ele>35.2255</ele>
        <time>2013-04-24T18:54:57Z</time>
      </trkpt>
      <trkpt lat="59.9776918" lon="17.7390275">
        <ele>35.7061</ele>
        <time>2013-04-24T18:54:58Z</time>
      </trkpt>
      <trkpt lat="59.9777282" lon="17.739034">
        <ele>35.7061</ele>
        <time>2013-04-24T18:54:59Z</time>
      </trkpt>
      <trkpt lat="59.9777628" lon="17.7390424">
        <ele>35.7061</ele>
        <time>2013-04-24T18:55:00Z</time>
      </trkpt>
      <trkpt lat="59.977798" lon="17.7390527">
        <ele>36.1868</ele>
        <time>2013-04-24T18:55:01Z</time>
      </trkpt>
      <trkpt lat="59.9778339" lon="17.7390641">
        <ele>36.6675</ele>
        <time>2013-04-24T18:55:02Z</time>
      </trkpt>
      <trkpt lat="59.977871" lon="17.7390794">
        <ele>36.6675</ele>
        <time>2013-04-24T18:55:03Z</time>
      </trkpt>
      <trkpt lat="59.9779068" lon="17.739097">
        <ele>37.1481</ele>
        <time>2013-04-24T18:55:04Z</time>
      </trkpt>
      <trkpt lat="59.9779403" lon="17.7391187">
        <ele>37.1481</ele>
        <time>2013-04-24T18:55:05Z</time>
      </trkpt>
      <trkpt lat="59.9779766" lon="17.7391415">
        <ele>37.6287</ele>
        <time>2013-04-24T18:55:06Z</time>
      </trkpt>
      <trkpt lat="59.9780123" lon="17.7391606">
        <ele>37.6287</ele>
        <time>2013-04-24T18:55:07Z</time>
      </trkpt>
      <trkpt lat="59.9780492" lon="17.7391766">
        <ele>37.6287</ele>
        <time>2013-04-24T18:55:08Z</time>
      </trkpt>
      <trkpt lat="59.9780881" lon="17.7391917">
        <ele>38.1094</ele>
        <time>2013-04-24T18:55:09Z</time>
      </trkpt>
      <trkpt lat="59.9781279" lon="17.7392044">
        <ele>38.1094</ele>
        <time>2013-04-24T18:55:10Z</time>
      </trkpt>
      <trkpt lat="59.9781648" lon="17.7392122">
        <ele>38.5901</ele>
        <time>2013-04-24T18:55:11Z</time>
      </trkpt>
      <trkpt lat="59.9782047" lon="17.7392215">
        <ele>39.0707</ele>
        <time>2013-04-24T18:55:12Z</time>
      </trkpt>
      <trkpt lat="59.9782464" lon="17.7392336">
        <ele>39.0707</ele>
        <time>2013-04-24T18:55:13Z</time>
      </trkpt>
      <trkpt lat="59.978288" lon="17.739243">
        <ele>39.5513</ele>
        <time>2013-04-24T18:55:14Z</time>
      </trkpt>
      <trkpt lat="59.9783299" lon="17.7392512">
        <ele>40.0321</ele>
        <time>2013-04-24T18:55:15Z</time>
      </trkpt>
      <trkpt lat="59.9783739" lon="17.7392646">
        <ele>40.0321</ele>
        <time>2013-04-24T18:55:16Z</time>
      </trkpt>
      <trkpt lat="59.9784145" lon="17.7392757">
        <ele>40.0321</ele>
        <time>2013-04-24T18:55:17Z</time>
      </trkpt>
      <trkpt lat="59.9784596" lon="17.739288">
        <ele>39.5513</ele>
        <time>2013-04-24T18:55:18Z</time>
      </trkpt>
    </trkseg>
  </trk>
</gpx>